<?xml version="1.0" encoding="UTF-8"?>
<gpx version="1.1" creator="https://www.youtrack.es" xsi:schemaLocation="http://www.topografix.com/GPX/1/1 http://www.topografix.com/GPX/1/1/gpx.xsd http://www.garmin.com/xmlschemas/GpxExtensions/v3 http://www.garmin.com/xmlschemas/GpxExtensionsv3.xsd http://www.garmin.com/xmlschemas/TrackPointExtension/v1 http://www.garmin.com/xmlschemas/TrackPointExtensionv1.xsd" xmlns:gpxtpx="http://www.garmin.com/xmlschemas/TrackPointExtension/v1" xmlns:gpxx="http://www.garmin.com/xmlschemas/GpxExtensions/v3" xmlns:xsi="http://www.w3.org/2001/XMLSchema-instance">
  <metadata>
    <link href="https://www.youtrack.es">
      <text>YouTrack.es</text>
    </link>
    <time>2026-05-08T08:52:31Z</time>
  </metadata>
  <trk>
    <src>https://www.youtrack.es</src>
    <link href="https://www.youtrack.es/ruta/6532-gasteiz-egileta-egino-agurain-landa-gasteiz">
      <text>YouTrack.es</text>
    </link>
    <trkseg>
      <trkpt lat="42.853581011295319" lon="-2.699026968330145">
        <ele>513</ele>
        <time>2019-06-23T06:17:58Z</time>
      </trkpt>
      <trkpt lat="42.853545974940062" lon="-2.698969971388578">
        <ele>513</ele>
        <time>2019-06-23T06:18:00Z</time>
      </trkpt>
      <trkpt lat="42.853530971333385" lon="-2.698933007195592">
        <ele>513</ele>
        <time>2019-06-23T06:18:01Z</time>
      </trkpt>
      <trkpt lat="42.853506999090314" lon="-2.698846003040671">
        <ele>512.79999999999995</ele>
        <time>2019-06-23T06:18:03Z</time>
      </trkpt>
      <trkpt lat="42.85347699187696" lon="-2.698752041906118">
        <ele>512.79999999999995</ele>
        <time>2019-06-23T06:18:05Z</time>
      </trkpt>
      <trkpt lat="42.853438016027212" lon="-2.698657996952534">
        <ele>512.79999999999995</ele>
        <time>2019-06-23T06:18:07Z</time>
      </trkpt>
      <trkpt lat="42.85341203212738" lon="-2.698611980304122">
        <ele>512.79999999999995</ele>
        <time>2019-06-23T06:18:08Z</time>
      </trkpt>
      <trkpt lat="42.853385964408517" lon="-2.698566969484091">
        <ele>512.79999999999995</ele>
        <time>2019-06-23T06:18:09Z</time>
      </trkpt>
      <trkpt lat="42.853356963023543" lon="-2.698465967550874">
        <ele>512.79999999999995</ele>
        <time>2019-06-23T06:18:11Z</time>
      </trkpt>
      <trkpt lat="42.853350006043911" lon="-2.698409976437688">
        <ele>512.60000000000002</ele>
        <time>2019-06-23T06:18:12Z</time>
      </trkpt>
      <trkpt lat="42.85334799438715" lon="-2.698353985324502">
        <ele>512.60000000000002</ele>
        <time>2019-06-23T06:18:13Z</time>
      </trkpt>
      <trkpt lat="42.853355035185814" lon="-2.698235968127847">
        <ele>512.60000000000002</ele>
        <time>2019-06-23T06:18:15Z</time>
      </trkpt>
      <trkpt lat="42.853356963023543" lon="-2.69817503169179">
        <ele>512.60000000000002</ele>
        <time>2019-06-23T06:18:16Z</time>
      </trkpt>
      <trkpt lat="42.853355035185814" lon="-2.698109988123179">
        <ele>512.60000000000002</ele>
        <time>2019-06-23T06:18:17Z</time>
      </trkpt>
      <trkpt lat="42.853361992165446" lon="-2.697988031432033">
        <ele>512.60000000000002</ele>
        <time>2019-06-23T06:18:19Z</time>
      </trkpt>
      <trkpt lat="42.85336903296411" lon="-2.697870014235377">
        <ele>512.60000000000002</ele>
        <time>2019-06-23T06:18:21Z</time>
      </trkpt>
      <trkpt lat="42.853370038792491" lon="-2.697755014523864">
        <ele>512.60000000000002</ele>
        <time>2019-06-23T06:18:23Z</time>
      </trkpt>
      <trkpt lat="42.853364003822207" lon="-2.697701035067439">
        <ele>512.60000000000002</ele>
        <time>2019-06-23T06:18:24Z</time>
      </trkpt>
      <trkpt lat="42.853357968851924" lon="-2.697648983448744">
        <ele>512.60000000000002</ele>
        <time>2019-06-23T06:18:25Z</time>
      </trkpt>
      <trkpt lat="42.853342965245247" lon="-2.697542030364275">
        <ele>512.60000000000002</ele>
        <time>2019-06-23T06:18:27Z</time>
      </trkpt>
      <trkpt lat="42.853317987173796" lon="-2.697443962097168">
        <ele>512.39999999999998</ele>
        <time>2019-06-23T06:18:29Z</time>
      </trkpt>
      <trkpt lat="42.853315975517035" lon="-2.697387970983982">
        <ele>512.60000000000002</ele>
        <time>2019-06-23T06:18:30Z</time>
      </trkpt>
      <trkpt lat="42.853313963860273" lon="-2.697332985699177">
        <ele>512.39999999999998</ele>
        <time>2019-06-23T06:18:31Z</time>
      </trkpt>
      <trkpt lat="42.853313963860273" lon="-2.697227960452437">
        <ele>512.60000000000002</ele>
        <time>2019-06-23T06:18:33Z</time>
      </trkpt>
      <trkpt lat="42.853319998830557" lon="-2.697174986824393">
        <ele>512.60000000000002</ele>
        <time>2019-06-23T06:18:34Z</time>
      </trkpt>
      <trkpt lat="42.853331984952092" lon="-2.697122013196349">
        <ele>512.79999999999995</ele>
        <time>2019-06-23T06:18:35Z</time>
      </trkpt>
      <trkpt lat="42.853332990780473" lon="-2.697067027911544">
        <ele>512.60000000000002</ele>
        <time>2019-06-23T06:18:36Z</time>
      </trkpt>
      <trkpt lat="42.853332990780473" lon="-2.697009025141597">
        <ele>512.60000000000002</ele>
        <time>2019-06-23T06:18:37Z</time>
      </trkpt>
      <trkpt lat="42.853343971073627" lon="-2.696895031258464">
        <ele>512.60000000000002</ele>
        <time>2019-06-23T06:18:39Z</time>
      </trkpt>
      <trkpt lat="42.853342965245247" lon="-2.696839962154627">
        <ele>512.60000000000002</ele>
        <time>2019-06-23T06:18:40Z</time>
      </trkpt>
      <trkpt lat="42.853336008265615" lon="-2.696783971041441">
        <ele>512.60000000000002</ele>
        <time>2019-06-23T06:18:41Z</time>
      </trkpt>
      <trkpt lat="42.853321004658937" lon="-2.696666037663817">
        <ele>512.60000000000002</ele>
        <time>2019-06-23T06:18:43Z</time>
      </trkpt>
      <trkpt lat="42.853302983567119" lon="-2.696541985496879">
        <ele>512.60000000000002</ele>
        <time>2019-06-23T06:18:45Z</time>
      </trkpt>
      <trkpt lat="42.853265013545752" lon="-2.696404019370675">
        <ele>512.60000000000002</ele>
        <time>2019-06-23T06:18:47Z</time>
      </trkpt>
      <trkpt lat="42.853246992453933" lon="-2.696336964145303">
        <ele>512.60000000000002</ele>
        <time>2019-06-23T06:18:48Z</time>
      </trkpt>
      <trkpt lat="42.853234000504017" lon="-2.696275021880865">
        <ele>512.60000000000002</ele>
        <time>2019-06-23T06:18:49Z</time>
      </trkpt>
      <trkpt lat="42.853202987462282" lon="-2.696148036047816">
        <ele>512.79999999999995</ele>
        <time>2019-06-23T06:18:51Z</time>
      </trkpt>
      <trkpt lat="42.853182032704353" lon="-2.696087015792728">
        <ele>512.60000000000002</ele>
        <time>2019-06-23T06:18:52Z</time>
      </trkpt>
      <trkpt lat="42.853161999955773" lon="-2.6960280071944">
        <ele>512.60000000000002</ele>
        <time>2019-06-23T06:18:53Z</time>
      </trkpt>
      <trkpt lat="42.853143978863955" lon="-2.695971010252833">
        <ele>512.60000000000002</ele>
        <time>2019-06-23T06:18:54Z</time>
      </trkpt>
      <trkpt lat="42.853121012449265" lon="-2.695915019139648">
        <ele>512.79999999999995</ele>
        <time>2019-06-23T06:18:55Z</time>
      </trkpt>
      <trkpt lat="42.85306703299284" lon="-2.695802031084895">
        <ele>512.79999999999995</ele>
        <time>2019-06-23T06:18:57Z</time>
      </trkpt>
      <trkpt lat="42.85302503965795" lon="-2.695689965039492">
        <ele>513</ele>
        <time>2019-06-23T06:18:59Z</time>
      </trkpt>
      <trkpt lat="42.852979023009539" lon="-2.695573959499598">
        <ele>513.20000000000005</ele>
        <time>2019-06-23T06:19:01Z</time>
      </trkpt>
      <trkpt lat="42.852952033281326" lon="-2.695518974214792">
        <ele>513.79999999999995</ele>
        <time>2019-06-23T06:19:02Z</time>
      </trkpt>
      <trkpt lat="42.852929988875985" lon="-2.695463988929987">
        <ele>514</ele>
        <time>2019-06-23T06:19:03Z</time>
      </trkpt>
      <trkpt lat="42.852895958349109" lon="-2.695353012531996">
        <ele>514.20000000000005</ele>
        <time>2019-06-23T06:19:05Z</time>
      </trkpt>
      <trkpt lat="42.852885983884335" lon="-2.695299033075571">
        <ele>514.39999999999998</ele>
        <time>2019-06-23T06:19:06Z</time>
      </trkpt>
      <trkpt lat="42.852865029126406" lon="-2.695242036134005">
        <ele>514.79999999999995</ele>
        <time>2019-06-23T06:19:07Z</time>
      </trkpt>
      <trkpt lat="42.852824963629246" lon="-2.695131981745362">
        <ele>515.39999999999998</ele>
        <time>2019-06-23T06:19:09Z</time>
      </trkpt>
      <trkpt lat="42.852784981951118" lon="-2.695052018389106">
        <ele>516</ele>
        <time>2019-06-23T06:19:11Z</time>
      </trkpt>
      <trkpt lat="42.852752041071653" lon="-2.695033997297287">
        <ele>516.20000000000005</ele>
        <time>2019-06-23T06:19:12Z</time>
      </trkpt>
      <trkpt lat="42.852709963917732" lon="-2.695031985640526">
        <ele>516.39999999999998</ele>
        <time>2019-06-23T06:19:13Z</time>
      </trkpt>
      <trkpt lat="42.852606028318405" lon="-2.695047995075584">
        <ele>516.79999999999995</ele>
        <time>2019-06-23T06:19:15Z</time>
      </trkpt>
      <trkpt lat="42.852547019720078" lon="-2.695059981197119">
        <ele>517.20000000000005</ele>
        <time>2019-06-23T06:19:16Z</time>
      </trkpt>
      <trkpt lat="42.852494968101382" lon="-2.695071967318654">
        <ele>517.60000000000002</ele>
        <time>2019-06-23T06:19:17Z</time>
      </trkpt>
      <trkpt lat="42.852404024451971" lon="-2.695100968703628">
        <ele>517.79999999999995</ele>
        <time>2019-06-23T06:19:19Z</time>
      </trkpt>
      <trkpt lat="42.852321965619922" lon="-2.695133993402124">
        <ele>518.20000000000005</ele>
        <time>2019-06-23T06:19:21Z</time>
      </trkpt>
      <trkpt lat="42.852278966456652" lon="-2.69514799118042">
        <ele>518.39999999999998</ele>
        <time>2019-06-23T06:19:22Z</time>
      </trkpt>
      <trkpt lat="42.852235967293382" lon="-2.695157965645194">
        <ele>518.20000000000005</ele>
        <time>2019-06-23T06:19:23Z</time>
      </trkpt>
      <trkpt lat="42.852163966745138" lon="-2.695185961201787">
        <ele>518.60000000000002</ele>
        <time>2019-06-23T06:19:25Z</time>
      </trkpt>
      <trkpt lat="42.852096995338798" lon="-2.695198031142354">
        <ele>518.79999999999995</ele>
        <time>2019-06-23T06:19:27Z</time>
      </trkpt>
      <trkpt lat="42.852063970640302" lon="-2.695215968415141">
        <ele>519</ele>
        <time>2019-06-23T06:19:28Z</time>
      </trkpt>
      <trkpt lat="42.852027006447315" lon="-2.695230972021818">
        <ele>519</ele>
        <time>2019-06-23T06:19:29Z</time>
      </trkpt>
      <trkpt lat="42.8519949875772" lon="-2.695248993113637">
        <ele>519.20000000000005</ele>
        <time>2019-06-23T06:19:30Z</time>
      </trkpt>
      <trkpt lat="42.851956011727452" lon="-2.695261985063553">
        <ele>519.20000000000005</ele>
        <time>2019-06-23T06:19:31Z</time>
      </trkpt>
      <trkpt lat="42.851860038936138" lon="-2.695271037518978">
        <ele>519.39999999999998</ele>
        <time>2019-06-23T06:19:33Z</time>
      </trkpt>
      <trkpt lat="42.851768005639315" lon="-2.695275982841849">
        <ele>519.39999999999998</ele>
        <time>2019-06-23T06:19:35Z</time>
      </trkpt>
      <trkpt lat="42.851728023961186" lon="-2.695289980620146">
        <ele>519.60000000000002</ele>
        <time>2019-06-23T06:19:36Z</time>
      </trkpt>
      <trkpt lat="42.851678989827633" lon="-2.695300038903952">
        <ele>519.60000000000002</ele>
        <time>2019-06-23T06:19:37Z</time>
      </trkpt>
      <trkpt lat="42.851575976237655" lon="-2.695314958691597">
        <ele>519.60000000000002</ele>
        <time>2019-06-23T06:19:39Z</time>
      </trkpt>
      <trkpt lat="42.851475980132818" lon="-2.695335997268558">
        <ele>519.79999999999995</ele>
        <time>2019-06-23T06:19:41Z</time>
      </trkpt>
      <trkpt lat="42.851373972371221" lon="-2.695356030017138">
        <ele>519.79999999999995</ele>
        <time>2019-06-23T06:19:43Z</time>
      </trkpt>
      <trkpt lat="42.851317981258035" lon="-2.695368016138673">
        <ele>520</ele>
        <time>2019-06-23T06:19:44Z</time>
      </trkpt>
      <trkpt lat="42.85126400180161" lon="-2.695377990603447">
        <ele>520</ele>
        <time>2019-06-23T06:19:45Z</time>
      </trkpt>
      <trkpt lat="42.85115797072649" lon="-2.695386037230492">
        <ele>520.20000000000005</ele>
        <time>2019-06-23T06:19:47Z</time>
      </trkpt>
      <trkpt lat="42.851055962964892" lon="-2.695399029180408">
        <ele>520.20000000000005</ele>
        <time>2019-06-23T06:19:49Z</time>
      </trkpt>
      <trkpt lat="42.850954039022326" lon="-2.695424007251859">
        <ele>520.39999999999998</ele>
        <time>2019-06-23T06:19:51Z</time>
      </trkpt>
      <trkpt lat="42.850855970755219" lon="-2.695456026121974">
        <ele>520.20000000000005</ele>
        <time>2019-06-23T06:19:53Z</time>
      </trkpt>
      <trkpt lat="42.850809032097459" lon="-2.69546901807189">
        <ele>520.39999999999998</ele>
        <time>2019-06-23T06:19:54Z</time>
      </trkpt>
      <trkpt lat="42.850761003792286" lon="-2.695478992536664">
        <ele>520.20000000000005</ele>
        <time>2019-06-23T06:19:55Z</time>
      </trkpt>
      <trkpt lat="42.850670982152224" lon="-2.695503970608115">
        <ele>520.39999999999998</ele>
        <time>2019-06-23T06:19:57Z</time>
      </trkpt>
      <trkpt lat="42.850577021017671" lon="-2.695541018620133">
        <ele>520.39999999999998</ele>
        <time>2019-06-23T06:19:59Z</time>
      </trkpt>
      <trkpt lat="42.850493034347892" lon="-2.695576976984739">
        <ele>520.39999999999998</ele>
        <time>2019-06-23T06:20:01Z</time>
      </trkpt>
      <trkpt lat="42.850449029356241" lon="-2.695590974763036">
        <ele>520.60000000000002</ele>
        <time>2019-06-23T06:20:02Z</time>
      </trkpt>
      <trkpt lat="42.850403012707829" lon="-2.695603966712952">
        <ele>520.60000000000002</ele>
        <time>2019-06-23T06:20:03Z</time>
      </trkpt>
      <trkpt lat="42.850316008552909" lon="-2.695631962269545">
        <ele>521</ele>
        <time>2019-06-23T06:20:05Z</time>
      </trkpt>
      <trkpt lat="42.850226992741227" lon="-2.695658029988408">
        <ele>521</ele>
        <time>2019-06-23T06:20:07Z</time>
      </trkpt>
      <trkpt lat="42.850136971101165" lon="-2.69568401388824">
        <ele>521.20000000000005</ele>
        <time>2019-06-23T06:20:09Z</time>
      </trkpt>
      <trkpt lat="42.850043009966612" lon="-2.695705974474549">
        <ele>521.39999999999998</ele>
        <time>2019-06-23T06:20:11Z</time>
      </trkpt>
      <trkpt lat="42.849997999146581" lon="-2.695718966424465">
        <ele>521.60000000000002</ele>
        <time>2019-06-23T06:20:12Z</time>
      </trkpt>
      <trkpt lat="42.849949970841408" lon="-2.695731958374381">
        <ele>521.60000000000002</ele>
        <time>2019-06-23T06:20:13Z</time>
      </trkpt>
      <trkpt lat="42.849872019141912" lon="-2.695776969194412">
        <ele>521.60000000000002</ele>
        <time>2019-06-23T06:20:15Z</time>
      </trkpt>
      <trkpt lat="42.849789038300514" lon="-2.695816028863192">
        <ele>522</ele>
        <time>2019-06-23T06:20:17Z</time>
      </trkpt>
      <trkpt lat="42.849692981690168" lon="-2.695826003327966">
        <ele>522</ele>
        <time>2019-06-23T06:20:19Z</time>
      </trkpt>
      <trkpt lat="42.849613018333912" lon="-2.695763977244496">
        <ele>521.79999999999995</ele>
        <time>2019-06-23T06:20:21Z</time>
      </trkpt>
      <trkpt lat="42.84958896227181" lon="-2.695708991959691">
        <ele>522.20000000000005</ele>
        <time>2019-06-23T06:20:22Z</time>
      </trkpt>
      <trkpt lat="42.849573036655784" lon="-2.695653000846505">
        <ele>522</ele>
        <time>2019-06-23T06:20:23Z</time>
      </trkpt>
      <trkpt lat="42.849550992250443" lon="-2.695538001134992">
        <ele>522.20000000000005</ele>
        <time>2019-06-23T06:20:25Z</time>
      </trkpt>
      <trkpt lat="42.849527020007372" lon="-2.695423001423478">
        <ele>522.39999999999998</ele>
        <time>2019-06-23T06:20:27Z</time>
      </trkpt>
      <trkpt lat="42.84950296394527" lon="-2.695305990055203">
        <ele>522.60000000000002</ele>
        <time>2019-06-23T06:20:29Z</time>
      </trkpt>
      <trkpt lat="42.849486032500863" lon="-2.695186967030168">
        <ele>522.60000000000002</ele>
        <time>2019-06-23T06:20:31Z</time>
      </trkpt>
      <trkpt lat="42.849434986710548" lon="-2.695093005895615">
        <ele>522.79999999999995</ele>
        <time>2019-06-23T06:20:33Z</time>
      </trkpt>
      <trkpt lat="42.849348988384008" lon="-2.695071967318654">
        <ele>523</ele>
        <time>2019-06-23T06:20:35Z</time>
      </trkpt>
      <trkpt lat="42.849304983392358" lon="-2.695079008117318">
        <ele>523</ele>
        <time>2019-06-23T06:20:36Z</time>
      </trkpt>
      <trkpt lat="42.849262990057468" lon="-2.695087976753712">
        <ele>523</ele>
        <time>2019-06-23T06:20:37Z</time>
      </trkpt>
      <trkpt lat="42.84917900338769" lon="-2.695113038644195">
        <ele>523.20000000000005</ele>
        <time>2019-06-23T06:20:39Z</time>
      </trkpt>
      <trkpt lat="42.84909300506115" lon="-2.695138016715646">
        <ele>523.20000000000005</ele>
        <time>2019-06-23T06:20:41Z</time>
      </trkpt>
      <trkpt lat="42.849009018391371" lon="-2.695164000615478">
        <ele>523.60000000000002</ele>
        <time>2019-06-23T06:20:43Z</time>
      </trkpt>
      <trkpt lat="42.848966019228101" lon="-2.695177998393774">
        <ele>523.60000000000002</ele>
        <time>2019-06-23T06:20:44Z</time>
      </trkpt>
      <trkpt lat="42.848924025893211" lon="-2.69519099034369">
        <ele>523.60000000000002</ele>
        <time>2019-06-23T06:20:45Z</time>
      </trkpt>
      <trkpt lat="42.848881026729941" lon="-2.695203982293606">
        <ele>523.79999999999995</ele>
        <time>2019-06-23T06:20:46Z</time>
      </trkpt>
      <trkpt lat="42.848838027566671" lon="-2.695219991728663">
        <ele>523.60000000000002</ele>
        <time>2019-06-23T06:20:47Z</time>
      </trkpt>
      <trkpt lat="42.848797040060163" lon="-2.695242036134005">
        <ele>524</ele>
        <time>2019-06-23T06:20:48Z</time>
      </trkpt>
      <trkpt lat="42.848758986219764" lon="-2.695272965356708">
        <ele>524.20000000000005</ele>
        <time>2019-06-23T06:20:49Z</time>
      </trkpt>
      <trkpt lat="42.848722022026777" lon="-2.695311019197106">
        <ele>524.39999999999998</ele>
        <time>2019-06-23T06:20:50Z</time>
      </trkpt>
      <trkpt lat="42.848688997328281" lon="-2.695352006703615">
        <ele>524.39999999999998</ele>
        <time>2019-06-23T06:20:51Z</time>
      </trkpt>
      <trkpt lat="42.848625965416431" lon="-2.695438005030155">
        <ele>524.60000000000002</ele>
        <time>2019-06-23T06:20:53Z</time>
      </trkpt>
      <trkpt lat="42.848558994010091" lon="-2.695517968386412">
        <ele>525</ele>
        <time>2019-06-23T06:20:55Z</time>
      </trkpt>
      <trkpt lat="42.848483975976706" lon="-2.695574965327978">
        <ele>525.39999999999998</ele>
        <time>2019-06-23T06:20:57Z</time>
      </trkpt>
      <trkpt lat="42.848443994298577" lon="-2.695594998076558">
        <ele>525.60000000000002</ele>
        <time>2019-06-23T06:20:58Z</time>
      </trkpt>
      <trkpt lat="42.848403006792068" lon="-2.695608995854855">
        <ele>525.79999999999995</ele>
        <time>2019-06-23T06:20:59Z</time>
      </trkpt>
      <trkpt lat="42.848357995972037" lon="-2.695614024996758">
        <ele>525.79999999999995</ele>
        <time>2019-06-23T06:21:00Z</time>
      </trkpt>
      <trkpt lat="42.848313990980387" lon="-2.695604972541332">
        <ele>526</ele>
        <time>2019-06-23T06:21:01Z</time>
      </trkpt>
      <trkpt lat="42.848273003473878" lon="-2.695581000298262">
        <ele>526</ele>
        <time>2019-06-23T06:21:02Z</time>
      </trkpt>
      <trkpt lat="42.84823402762413" lon="-2.695544958114624">
        <ele>526</ele>
        <time>2019-06-23T06:21:03Z</time>
      </trkpt>
      <trkpt lat="42.848202008754015" lon="-2.695499025285244">
        <ele>526</ele>
        <time>2019-06-23T06:21:04Z</time>
      </trkpt>
      <trkpt lat="42.848173007369041" lon="-2.695444962009788">
        <ele>526.20000000000005</ele>
        <time>2019-06-23T06:21:05Z</time>
      </trkpt>
      <trkpt lat="42.848151968792081" lon="-2.695386959239841">
        <ele>526.20000000000005</ele>
        <time>2019-06-23T06:21:06Z</time>
      </trkpt>
      <trkpt lat="42.848136965185404" lon="-2.695323005318642">
        <ele>526.39999999999998</ele>
        <time>2019-06-23T06:21:07Z</time>
      </trkpt>
      <trkpt lat="42.848131014034152" lon="-2.695257961750031">
        <ele>526.39999999999998</ele>
        <time>2019-06-23T06:21:08Z</time>
      </trkpt>
      <trkpt lat="42.848135037347674" lon="-2.695193002000451">
        <ele>526.39999999999998</ele>
        <time>2019-06-23T06:21:09Z</time>
      </trkpt>
      <trkpt lat="42.848143000155687" lon="-2.695128964260221">
        <ele>526.20000000000005</ele>
        <time>2019-06-23T06:21:10Z</time>
      </trkpt>
      <trkpt lat="42.848155992105603" lon="-2.695065010339022">
        <ele>526.39999999999998</ele>
        <time>2019-06-23T06:21:11Z</time>
      </trkpt>
      <trkpt lat="42.848180970177054" lon="-2.694936012849212">
        <ele>526.39999999999998</ele>
        <time>2019-06-23T06:21:13Z</time>
      </trkpt>
      <trkpt lat="42.848184993490577" lon="-2.694868035614491">
        <ele>526.39999999999998</ele>
        <time>2019-06-23T06:21:14Z</time>
      </trkpt>
      <trkpt lat="42.848179964348674" lon="-2.694797962903976">
        <ele>526.39999999999998</ele>
        <time>2019-06-23T06:21:15Z</time>
      </trkpt>
      <trkpt lat="42.848151968792081" lon="-2.694665025919676">
        <ele>526.39999999999998</ele>
        <time>2019-06-23T06:21:17Z</time>
      </trkpt>
      <trkpt lat="42.848135037347674" lon="-2.694599982351065">
        <ele>526.39999999999998</ele>
        <time>2019-06-23T06:21:18Z</time>
      </trkpt>
      <trkpt lat="42.848117016255856" lon="-2.694536028429866">
        <ele>526.39999999999998</ele>
        <time>2019-06-23T06:21:19Z</time>
      </trkpt>
      <trkpt lat="42.848081979900599" lon="-2.694408958777785">
        <ele>526.39999999999998</ele>
        <time>2019-06-23T06:21:21Z</time>
      </trkpt>
      <trkpt lat="42.848045015707612" lon="-2.694284990429878">
        <ele>526.60000000000002</ele>
        <time>2019-06-23T06:21:23Z</time>
      </trkpt>
      <trkpt lat="42.8479989990592" lon="-2.694169990718365">
        <ele>526.39999999999998</ele>
        <time>2019-06-23T06:21:25Z</time>
      </trkpt>
      <trkpt lat="42.847964968532324" lon="-2.694123974069953">
        <ele>526.39999999999998</ele>
        <time>2019-06-23T06:21:26Z</time>
      </trkpt>
      <trkpt lat="42.847925992682576" lon="-2.694089021533728">
        <ele>526.39999999999998</ele>
        <time>2019-06-23T06:21:27Z</time>
      </trkpt>
      <trkpt lat="42.8478470351547" lon="-2.694018026813865">
        <ele>526.39999999999998</ele>
        <time>2019-06-23T06:21:29Z</time>
      </trkpt>
      <trkpt lat="42.847809987142682" lon="-2.693977961316705">
        <ele>526.60000000000002</ele>
        <time>2019-06-23T06:21:30Z</time>
      </trkpt>
      <trkpt lat="42.847776040434837" lon="-2.693934040144086">
        <ele>526.39999999999998</ele>
        <time>2019-06-23T06:21:31Z</time>
      </trkpt>
      <trkpt lat="42.847748966887593" lon="-2.693884000182152">
        <ele>526.60000000000002</ele>
        <time>2019-06-23T06:21:32Z</time>
      </trkpt>
      <trkpt lat="42.847730023786426" lon="-2.693825997412205">
        <ele>526.60000000000002</ele>
        <time>2019-06-23T06:21:33Z</time>
      </trkpt>
      <trkpt lat="42.847723988816142" lon="-2.693764977157116">
        <ele>526.60000000000002</ele>
        <time>2019-06-23T06:21:34Z</time>
      </trkpt>
      <trkpt lat="42.847730023786426" lon="-2.693704040721059">
        <ele>526.60000000000002</ele>
        <time>2019-06-23T06:21:35Z</time>
      </trkpt>
      <trkpt lat="42.847744021564722" lon="-2.69364201463759">
        <ele>526.79999999999995</ele>
        <time>2019-06-23T06:21:36Z</time>
      </trkpt>
      <trkpt lat="42.84776397049427" lon="-2.69357898272574">
        <ele>527</ele>
        <time>2019-06-23T06:21:37Z</time>
      </trkpt>
      <trkpt lat="42.847781991586089" lon="-2.69351402297616">
        <ele>527.20000000000005</ele>
        <time>2019-06-23T06:21:38Z</time>
      </trkpt>
      <trkpt lat="42.847795989364386" lon="-2.693446967750788">
        <ele>527.20000000000005</ele>
        <time>2019-06-23T06:21:39Z</time>
      </trkpt>
      <trkpt lat="42.847799006849527" lon="-2.693377984687686">
        <ele>527.39999999999998</ele>
        <time>2019-06-23T06:21:40Z</time>
      </trkpt>
      <trkpt lat="42.847790960222483" lon="-2.693307995796204">
        <ele>527.39999999999998</ele>
        <time>2019-06-23T06:21:41Z</time>
      </trkpt>
      <trkpt lat="42.847776962444186" lon="-2.69323498941958">
        <ele>527.39999999999998</ele>
        <time>2019-06-23T06:21:42Z</time>
      </trkpt>
      <trkpt lat="42.84776103682816" lon="-2.693160977214575">
        <ele>527.39999999999998</ele>
        <time>2019-06-23T06:21:43Z</time>
      </trkpt>
      <trkpt lat="42.84771803766489" lon="-2.693003984168172">
        <ele>527.39999999999998</ele>
        <time>2019-06-23T06:21:45Z</time>
      </trkpt>
      <trkpt lat="42.84769699908793" lon="-2.692925026640296">
        <ele>527.39999999999998</ele>
        <time>2019-06-23T06:21:46Z</time>
      </trkpt>
      <trkpt lat="42.847678977996111" lon="-2.692844979465008">
        <ele>526.79999999999995</ele>
        <time>2019-06-23T06:21:47Z</time>
      </trkpt>
      <trkpt lat="42.847659029066563" lon="-2.692769039422274">
        <ele>526.60000000000002</ele>
        <time>2019-06-23T06:21:48Z</time>
      </trkpt>
      <trkpt lat="42.847623992711306" lon="-2.69269703887403">
        <ele>526.39999999999998</ele>
        <time>2019-06-23T06:21:49Z</time>
      </trkpt>
      <trkpt lat="42.847570013254881" lon="-2.69257097505033">
        <ele>526.20000000000005</ele>
        <time>2019-06-23T06:21:51Z</time>
      </trkpt>
      <trkpt lat="42.847540006041527" lon="-2.692511966452003">
        <ele>525.79999999999995</ele>
        <time>2019-06-23T06:21:52Z</time>
      </trkpt>
      <trkpt lat="42.847528019919991" lon="-2.692448012530804">
        <ele>525.79999999999995</ele>
        <time>2019-06-23T06:21:53Z</time>
      </trkpt>
      <trkpt lat="42.847519973292947" lon="-2.69231197424233">
        <ele>525.39999999999998</ele>
        <time>2019-06-23T06:21:55Z</time>
      </trkpt>
      <trkpt lat="42.847512010484934" lon="-2.692242991179228">
        <ele>525.39999999999998</ele>
        <time>2019-06-23T06:21:56Z</time>
      </trkpt>
      <trkpt lat="42.847498012706637" lon="-2.692180965095758">
        <ele>525</ele>
        <time>2019-06-23T06:21:57Z</time>
      </trkpt>
      <trkpt lat="42.847460964694619" lon="-2.692052973434329">
        <ele>524.79999999999995</ele>
        <time>2019-06-23T06:21:59Z</time>
      </trkpt>
      <trkpt lat="42.847422994673252" lon="-2.691916013136506">
        <ele>524.60000000000002</ele>
        <time>2019-06-23T06:22:01Z</time>
      </trkpt>
      <trkpt lat="42.847385024651885" lon="-2.691778969019651">
        <ele>524.60000000000002</ele>
        <time>2019-06-23T06:22:03Z</time>
      </trkpt>
      <trkpt lat="42.847336996346712" lon="-2.691631028428674">
        <ele>524.20000000000005</ele>
        <time>2019-06-23T06:22:05Z</time>
      </trkpt>
      <trkpt lat="42.847297014668584" lon="-2.691479986533523">
        <ele>524</ele>
        <time>2019-06-23T06:22:07Z</time>
      </trkpt>
      <trkpt lat="42.847250998020172" lon="-2.691327016800642">
        <ele>523.79999999999995</ele>
        <time>2019-06-23T06:22:09Z</time>
      </trkpt>
      <trkpt lat="42.84720104187727" lon="-2.69117496907711">
        <ele>523.39999999999998</ele>
        <time>2019-06-23T06:22:11Z</time>
      </trkpt>
      <trkpt lat="42.847144966945052" lon="-2.691046977415681">
        <ele>523</ele>
        <time>2019-06-23T06:22:13Z</time>
      </trkpt>
      <trkpt lat="42.847108002752066" lon="-2.691014958545566">
        <ele>523</ele>
        <time>2019-06-23T06:22:14Z</time>
      </trkpt>
      <trkpt lat="42.847055029124022" lon="-2.69100196659565">
        <ele>522.60000000000002</ele>
        <time>2019-06-23T06:22:15Z</time>
      </trkpt>
      <trkpt lat="42.846971964463592" lon="-2.691014958545566">
        <ele>522.39999999999998</ele>
        <time>2019-06-23T06:22:17Z</time>
      </trkpt>
      <trkpt lat="42.846927959471941" lon="-2.691025016829372">
        <ele>522.20000000000005</ele>
        <time>2019-06-23T06:22:18Z</time>
      </trkpt>
      <trkpt lat="42.846884038299322" lon="-2.691035997122526">
        <ele>522</ele>
        <time>2019-06-23T06:22:19Z</time>
      </trkpt>
      <trkpt lat="42.846789993345737" lon="-2.691062986850739">
        <ele>522</ele>
        <time>2019-06-23T06:22:21Z</time>
      </trkpt>
      <trkpt lat="42.846697038039565" lon="-2.691091988235712">
        <ele>521.79999999999995</ele>
        <time>2019-06-23T06:22:23Z</time>
      </trkpt>
      <trkpt lat="42.8466019872576" lon="-2.691115960478783">
        <ele>521.60000000000002</ele>
        <time>2019-06-23T06:22:25Z</time>
      </trkpt>
      <trkpt lat="42.846507020294666" lon="-2.691142028197646">
        <ele>521.79999999999995</ele>
        <time>2019-06-23T06:22:27Z</time>
      </trkpt>
      <trkpt lat="42.846459997817874" lon="-2.691158037632704">
        <ele>521.60000000000002</ele>
        <time>2019-06-23T06:22:28Z</time>
      </trkpt>
      <trkpt lat="42.846415992826223" lon="-2.69117396324873">
        <ele>521.79999999999995</ele>
        <time>2019-06-23T06:22:29Z</time>
      </trkpt>
      <trkpt lat="42.84632496535778" lon="-2.691202964633703">
        <ele>521.60000000000002</ele>
        <time>2019-06-23T06:22:31Z</time>
      </trkpt>
      <trkpt lat="42.84623502753675" lon="-2.691231966018677">
        <ele>521.79999999999995</ele>
        <time>2019-06-23T06:22:33Z</time>
      </trkpt>
      <trkpt lat="42.846145005896688" lon="-2.691256022080779">
        <ele>522</ele>
        <time>2019-06-23T06:22:35Z</time>
      </trkpt>
      <trkpt lat="42.846052972599864" lon="-2.691283011808991">
        <ele>522</ele>
        <time>2019-06-23T06:22:37Z</time>
      </trkpt>
      <trkpt lat="42.845964962616563" lon="-2.691317964345217">
        <ele>522.20000000000005</ele>
        <time>2019-06-23T06:22:39Z</time>
      </trkpt>
      <trkpt lat="42.845880975946784" lon="-2.691361969336867">
        <ele>522.20000000000005</ele>
        <time>2019-06-23T06:22:41Z</time>
      </trkpt>
      <trkpt lat="42.845836970955133" lon="-2.691380996257067">
        <ele>522.20000000000005</ele>
        <time>2019-06-23T06:22:42Z</time>
      </trkpt>
      <trkpt lat="42.845793971791863" lon="-2.691390970721841">
        <ele>522.20000000000005</ele>
        <time>2019-06-23T06:22:43Z</time>
      </trkpt>
      <trkpt lat="42.845710990950465" lon="-2.691382002085447">
        <ele>522.20000000000005</ele>
        <time>2019-06-23T06:22:45Z</time>
      </trkpt>
      <trkpt lat="42.845633961260319" lon="-2.69132299348712">
        <ele>522.79999999999995</ele>
        <time>2019-06-23T06:22:47Z</time>
      </trkpt>
      <trkpt lat="42.845605965703726" lon="-2.691276976838708">
        <ele>522.79999999999995</ele>
        <time>2019-06-23T06:22:48Z</time>
      </trkpt>
      <trkpt lat="42.845586016774178" lon="-2.691222997382283">
        <ele>522.79999999999995</ele>
        <time>2019-06-23T06:22:49Z</time>
      </trkpt>
      <trkpt lat="42.845537988469005" lon="-2.691112020984292">
        <ele>523</ele>
        <time>2019-06-23T06:22:51Z</time>
      </trkpt>
      <trkpt lat="42.845487026497722" lon="-2.69100003875792">
        <ele>522.79999999999995</ele>
        <time>2019-06-23T06:22:53Z</time>
      </trkpt>
      <trkpt lat="42.845462970435619" lon="-2.690943041816354">
        <ele>523</ele>
        <time>2019-06-23T06:22:54Z</time>
      </trkpt>
      <trkpt lat="42.845440004020929" lon="-2.690885039046407">
        <ele>523</ele>
        <time>2019-06-23T06:22:55Z</time>
      </trkpt>
      <trkpt lat="42.845390969887376" lon="-2.690771967172623">
        <ele>523</ele>
        <time>2019-06-23T06:22:57Z</time>
      </trkpt>
      <trkpt lat="42.84533497877419" lon="-2.690653027966619">
        <ele>523.20000000000005</ele>
        <time>2019-06-23T06:22:59Z</time>
      </trkpt>
      <trkpt lat="42.845278987661004" lon="-2.690530987456441">
        <ele>523</ele>
        <time>2019-06-23T06:23:01Z</time>
      </trkpt>
      <trkpt lat="42.845222996547818" lon="-2.690410958603025">
        <ele>523</ele>
        <time>2019-06-23T06:23:03Z</time>
      </trkpt>
      <trkpt lat="42.845175974071026" lon="-2.690283972769976">
        <ele>522.79999999999995</ele>
        <time>2019-06-23T06:23:05Z</time>
      </trkpt>
      <trkpt lat="42.845132974907756" lon="-2.69016201607883">
        <ele>522.60000000000002</ele>
        <time>2019-06-23T06:23:07Z</time>
      </trkpt>
      <trkpt lat="42.845092993229628" lon="-2.690041987225413">
        <ele>522.60000000000002</ele>
        <time>2019-06-23T06:23:09Z</time>
      </trkpt>
      <trkpt lat="42.845042031258345" lon="-2.689912989735603">
        <ele>522.39999999999998</ele>
        <time>2019-06-23T06:23:11Z</time>
      </trkpt>
      <trkpt lat="42.845016969367862" lon="-2.689848029986024">
        <ele>522.39999999999998</ele>
        <time>2019-06-23T06:23:12Z</time>
      </trkpt>
      <trkpt lat="42.844994002953172" lon="-2.689783992245793">
        <ele>522.39999999999998</ele>
        <time>2019-06-23T06:23:13Z</time>
      </trkpt>
      <trkpt lat="42.844928959384561" lon="-2.689650971442461">
        <ele>522.20000000000005</ele>
        <time>2019-06-23T06:23:15Z</time>
      </trkpt>
      <trkpt lat="42.844853019341826" lon="-2.689505964517593">
        <ele>522.20000000000005</ele>
        <time>2019-06-23T06:23:17Z</time>
      </trkpt>
      <trkpt lat="42.844781018793583" lon="-2.689366992563009">
        <ele>522.20000000000005</ele>
        <time>2019-06-23T06:23:19Z</time>
      </trkpt>
      <trkpt lat="42.844750005751848" lon="-2.689301026985049">
        <ele>522</ele>
        <time>2019-06-23T06:23:20Z</time>
      </trkpt>
      <trkpt lat="42.844719998538494" lon="-2.689233971759677">
        <ele>522</ele>
        <time>2019-06-23T06:23:21Z</time>
      </trkpt>
      <trkpt lat="42.84466702491045" lon="-2.689100028946996">
        <ele>522</ele>
        <time>2019-06-23T06:23:23Z</time>
      </trkpt>
      <trkpt lat="42.844642968848348" lon="-2.689032973721623">
        <ele>521.79999999999995</ele>
        <time>2019-06-23T06:23:24Z</time>
      </trkpt>
      <trkpt lat="42.84462402574718" lon="-2.688964996486902">
        <ele>521.79999999999995</ele>
        <time>2019-06-23T06:23:25Z</time>
      </trkpt>
      <trkpt lat="42.844574991613626" lon="-2.688833987340331">
        <ele>521.60000000000002</ele>
        <time>2019-06-23T06:23:27Z</time>
      </trkpt>
      <trkpt lat="42.844523023813963" lon="-2.688698032870889">
        <ele>521.39999999999998</ele>
        <time>2019-06-23T06:23:29Z</time>
      </trkpt>
      <trkpt lat="42.844501985237002" lon="-2.688629971817136">
        <ele>521.20000000000005</ele>
        <time>2019-06-23T06:23:30Z</time>
      </trkpt>
      <trkpt lat="42.844469966366887" lon="-2.688555959612131">
        <ele>521.20000000000005</ele>
        <time>2019-06-23T06:23:31Z</time>
      </trkpt>
      <trkpt lat="42.844391008839011" lon="-2.688402989879251">
        <ele>521.20000000000005</ele>
        <time>2019-06-23T06:23:33Z</time>
      </trkpt>
      <trkpt lat="42.844315990805626" lon="-2.688253037631512">
        <ele>520.79999999999995</ele>
        <time>2019-06-23T06:23:35Z</time>
      </trkpt>
      <trkpt lat="42.84428003244102" lon="-2.688176007941365">
        <ele>520.79999999999995</ele>
        <time>2019-06-23T06:23:36Z</time>
      </trkpt>
      <trkpt lat="42.844233009964228" lon="-2.688096966594458">
        <ele>520.79999999999995</ele>
        <time>2019-06-23T06:23:37Z</time>
      </trkpt>
      <trkpt lat="42.844171989709139" lon="-2.687953971326351">
        <ele>520.60000000000002</ele>
        <time>2019-06-23T06:23:39Z</time>
      </trkpt>
      <trkpt lat="42.844113986939192" lon="-2.687817011028528">
        <ele>520.60000000000002</ele>
        <time>2019-06-23T06:23:41Z</time>
      </trkpt>
      <trkpt lat="42.844094038009644" lon="-2.687751967459917">
        <ele>520.79999999999995</ele>
        <time>2019-06-23T06:23:42Z</time>
      </trkpt>
      <trkpt lat="42.84406797029078" lon="-2.687681978568435">
        <ele>520.60000000000002</ele>
        <time>2019-06-23T06:23:43Z</time>
      </trkpt>
      <trkpt lat="42.844000998884439" lon="-2.687543006613851">
        <ele>520.39999999999998</ele>
        <time>2019-06-23T06:23:45Z</time>
      </trkpt>
      <trkpt lat="42.843949031084776" lon="-2.687404034659267">
        <ele>520.39999999999998</ele>
        <time>2019-06-23T06:23:47Z</time>
      </trkpt>
      <trkpt lat="42.84389303997159" lon="-2.687265984714031">
        <ele>520.60000000000002</ele>
        <time>2019-06-23T06:23:49Z</time>
      </trkpt>
      <trkpt lat="42.843835959210992" lon="-2.687129024416208">
        <ele>520.60000000000002</ele>
        <time>2019-06-23T06:23:51Z</time>
      </trkpt>
      <trkpt lat="42.843786003068089" lon="-2.686990974470973">
        <ele>520.79999999999995</ele>
        <time>2019-06-23T06:23:53Z</time>
      </trkpt>
      <trkpt lat="42.843739986419678" lon="-2.68685300834477">
        <ele>520.79999999999995</ele>
        <time>2019-06-23T06:23:55Z</time>
      </trkpt>
      <trkpt lat="42.843698998913169" lon="-2.686713030561805">
        <ele>520.79999999999995</ele>
        <time>2019-06-23T06:23:57Z</time>
      </trkpt>
      <trkpt lat="42.843655999749899" lon="-2.686572968959808">
        <ele>521</ele>
        <time>2019-06-23T06:23:59Z</time>
      </trkpt>
      <trkpt lat="42.843620963394642" lon="-2.686432991176844">
        <ele>520.79999999999995</ele>
        <time>2019-06-23T06:24:01Z</time>
      </trkpt>
      <trkpt lat="42.843578970059752" lon="-2.686291001737118">
        <ele>521</ele>
        <time>2019-06-23T06:24:03Z</time>
      </trkpt>
      <trkpt lat="42.843544017523527" lon="-2.686148006469011">
        <ele>521.20000000000005</ele>
        <time>2019-06-23T06:24:05Z</time>
      </trkpt>
      <trkpt lat="42.843525996431708" lon="-2.686077011749148">
        <ele>521.20000000000005</ele>
        <time>2019-06-23T06:24:06Z</time>
      </trkpt>
      <trkpt lat="42.84350898116827" lon="-2.686007022857666">
        <ele>521.20000000000005</ele>
        <time>2019-06-23T06:24:07Z</time>
      </trkpt>
      <trkpt lat="42.843476040288806" lon="-2.68586796708405">
        <ele>521.39999999999998</ele>
        <time>2019-06-23T06:24:09Z</time>
      </trkpt>
      <trkpt lat="42.843450978398323" lon="-2.685731006786227">
        <ele>521.20000000000005</ele>
        <time>2019-06-23T06:24:11Z</time>
      </trkpt>
      <trkpt lat="42.843445027247071" lon="-2.685607960447669">
        <ele>521.39999999999998</ele>
        <time>2019-06-23T06:24:13Z</time>
      </trkpt>
      <trkpt lat="42.84348601475358" lon="-2.685519028455019">
        <ele>521.39999999999998</ele>
        <time>2019-06-23T06:24:15Z</time>
      </trkpt>
      <trkpt lat="42.843520967289805" lon="-2.685486003756523">
        <ele>521.20000000000005</ele>
        <time>2019-06-23T06:24:16Z</time>
      </trkpt>
      <trkpt lat="42.843559021130204" lon="-2.685462031513453">
        <ele>521.39999999999998</ele>
        <time>2019-06-23T06:24:17Z</time>
      </trkpt>
      <trkpt lat="42.843643007799983" lon="-2.685428000986576">
        <ele>521.39999999999998</ele>
        <time>2019-06-23T06:24:19Z</time>
      </trkpt>
      <trkpt lat="42.843733029440045" lon="-2.6853939704597">
        <ele>521.20000000000005</ele>
        <time>2019-06-23T06:24:21Z</time>
      </trkpt>
      <trkpt lat="42.843826990574598" lon="-2.685362035408616">
        <ele>521.20000000000005</ele>
        <time>2019-06-23T06:24:23Z</time>
      </trkpt>
      <trkpt lat="42.843878036364913" lon="-2.685342002660036">
        <ele>521.20000000000005</ele>
        <time>2019-06-23T06:24:24Z</time>
      </trkpt>
      <trkpt lat="42.843923969194293" lon="-2.685331022366881">
        <ele>521</ele>
        <time>2019-06-23T06:24:25Z</time>
      </trkpt>
      <trkpt lat="42.844014996662736" lon="-2.685306966304779">
        <ele>520.79999999999995</ele>
        <time>2019-06-23T06:24:27Z</time>
      </trkpt>
      <trkpt lat="42.844060007482767" lon="-2.685294980183244">
        <ele>520.79999999999995</ele>
        <time>2019-06-23T06:24:28Z</time>
      </trkpt>
      <trkpt lat="42.844104012474418" lon="-2.685282994061709">
        <ele>520.79999999999995</ele>
        <time>2019-06-23T06:24:29Z</time>
      </trkpt>
      <trkpt lat="42.844147011637688" lon="-2.685275031253696">
        <ele>520.79999999999995</ele>
        <time>2019-06-23T06:24:30Z</time>
      </trkpt>
      <trkpt lat="42.844190010800958" lon="-2.685276959091425">
        <ele>520.79999999999995</ele>
        <time>2019-06-23T06:24:31Z</time>
      </trkpt>
      <trkpt lat="42.844281960278749" lon="-2.685276037082076">
        <ele>520.79999999999995</ele>
        <time>2019-06-23T06:24:33Z</time>
      </trkpt>
      <trkpt lat="42.844326971098781" lon="-2.685271007940173">
        <ele>520.79999999999995</ele>
        <time>2019-06-23T06:24:34Z</time>
      </trkpt>
      <trkpt lat="42.844373993575573" lon="-2.685267990455031">
        <ele>520.79999999999995</ele>
        <time>2019-06-23T06:24:35Z</time>
      </trkpt>
      <trkpt lat="42.844459991902113" lon="-2.685253992676735">
        <ele>520.60000000000002</ele>
        <time>2019-06-23T06:24:37Z</time>
      </trkpt>
      <trkpt lat="42.844527969136834" lon="-2.685252986848354">
        <ele>520.60000000000002</ele>
        <time>2019-06-23T06:24:39Z</time>
      </trkpt>
      <trkpt lat="42.844570968300104" lon="-2.685259021818638">
        <ele>520.60000000000002</ele>
        <time>2019-06-23T06:24:41Z</time>
      </trkpt>
      <trkpt lat="42.844595024362206" lon="-2.685271007940173">
        <ele>520.60000000000002</ele>
        <time>2019-06-23T06:24:43Z</time>
      </trkpt>
      <trkpt lat="42.844636011868715" lon="-2.68528601154685">
        <ele>520.60000000000002</ele>
        <time>2019-06-23T06:24:45Z</time>
      </trkpt>
      <trkpt lat="42.844686973839998" lon="-2.68532901071012">
        <ele>520.60000000000002</ele>
        <time>2019-06-23T06:24:47Z</time>
      </trkpt>
      <trkpt lat="42.844711029902101" lon="-2.685361029580236">
        <ele>520.39999999999998</ele>
        <time>2019-06-23T06:24:48Z</time>
      </trkpt>
      <trkpt lat="42.844733996316791" lon="-2.6853939704597">
        <ele>520.39999999999998</ele>
        <time>2019-06-23T06:24:49Z</time>
      </trkpt>
      <trkpt lat="42.844751011580229" lon="-2.685409979894757">
        <ele>520.39999999999998</ele>
        <time>2019-06-23T06:24:50Z</time>
      </trkpt>
      <trkpt lat="42.844767021015286" lon="-2.685404028743506">
        <ele>520.39999999999998</ele>
        <time>2019-06-23T06:24:51Z</time>
      </trkpt>
      <trkpt lat="42.844809014350176" lon="-2.685374021530151">
        <ele>520.60000000000002</ele>
        <time>2019-06-23T06:24:53Z</time>
      </trkpt>
      <trkpt lat="42.844856958836317" lon="-2.68535197712481">
        <ele>520.60000000000002</ele>
        <time>2019-06-23T06:24:55Z</time>
      </trkpt>
      <trkpt lat="42.844876991584897" lon="-2.685340996831656">
        <ele>520.60000000000002</ele>
        <time>2019-06-23T06:24:56Z</time>
      </trkpt>
      <trkpt lat="42.844897024333477" lon="-2.685333034023643">
        <ele>520.79999999999995</ele>
        <time>2019-06-23T06:24:57Z</time>
      </trkpt>
      <trkpt lat="42.844936000183225" lon="-2.685325993224978">
        <ele>520.60000000000002</ele>
        <time>2019-06-23T06:24:59Z</time>
      </trkpt>
      <trkpt lat="42.844980005174875" lon="-2.685305960476399">
        <ele>520.79999999999995</ele>
        <time>2019-06-23T06:25:01Z</time>
      </trkpt>
      <trkpt lat="42.845002971589565" lon="-2.685291962698102">
        <ele>520.79999999999995</ele>
        <time>2019-06-23T06:25:02Z</time>
      </trkpt>
      <trkpt lat="42.845029961317778" lon="-2.685280982404947">
        <ele>521</ele>
        <time>2019-06-23T06:25:03Z</time>
      </trkpt>
      <trkpt lat="42.845059968531132" lon="-2.685272013768554">
        <ele>521.20000000000005</ele>
        <time>2019-06-23T06:25:04Z</time>
      </trkpt>
      <trkpt lat="42.845088969916105" lon="-2.685260027647018">
        <ele>521</ele>
        <time>2019-06-23T06:25:05Z</time>
      </trkpt>
      <trkpt lat="42.845115037634969" lon="-2.685247035697103">
        <ele>521.20000000000005</ele>
        <time>2019-06-23T06:25:06Z</time>
      </trkpt>
      <trkpt lat="42.845136998221278" lon="-2.685232032090426">
        <ele>521.20000000000005</ele>
        <time>2019-06-23T06:25:07Z</time>
      </trkpt>
      <trkpt lat="42.845158958807588" lon="-2.68519900739193">
        <ele>521.39999999999998</ele>
        <time>2019-06-23T06:25:09Z</time>
      </trkpt>
      <trkpt lat="42.845164993777871" lon="-2.685173023492098">
        <ele>521.39999999999998</ele>
        <time>2019-06-23T06:25:10Z</time>
      </trkpt>
      <trkpt lat="42.845171028748155" lon="-2.685139998793602">
        <ele>521.39999999999998</ele>
        <time>2019-06-23T06:25:11Z</time>
      </trkpt>
      <trkpt lat="42.845185026526451" lon="-2.685084007680416">
        <ele>521.60000000000002</ele>
        <time>2019-06-23T06:25:13Z</time>
      </trkpt>
      <trkpt lat="42.845181003212929" lon="-2.685021981596947">
        <ele>521.39999999999998</ele>
        <time>2019-06-23T06:25:15Z</time>
      </trkpt>
      <trkpt lat="42.845185026526451" lon="-2.684955010190606">
        <ele>521.60000000000002</ele>
        <time>2019-06-23T06:25:17Z</time>
      </trkpt>
      <trkpt lat="42.845187038183212" lon="-2.684891978278756">
        <ele>521.79999999999995</ele>
        <time>2019-06-23T06:25:19Z</time>
      </trkpt>
      <trkpt lat="42.845195000991225" lon="-2.684827018529177">
        <ele>521.79999999999995</ele>
        <time>2019-06-23T06:25:21Z</time>
      </trkpt>
      <trkpt lat="42.845201035961509" lon="-2.68476901575923">
        <ele>521.79999999999995</ele>
        <time>2019-06-23T06:25:23Z</time>
      </trkpt>
      <trkpt lat="42.845198018476367" lon="-2.68472702242434">
        <ele>522</ele>
        <time>2019-06-23T06:25:25Z</time>
      </trkpt>
      <trkpt lat="42.845201035961509" lon="-2.684711012989283">
        <ele>521.79999999999995</ele>
        <time>2019-06-23T06:25:26Z</time>
      </trkpt>
      <trkpt lat="42.845203969627619" lon="-2.684692991897464">
        <ele>522</ele>
        <time>2019-06-23T06:25:27Z</time>
      </trkpt>
      <trkpt lat="42.845203969627619" lon="-2.684644963592291">
        <ele>522</ele>
        <time>2019-06-23T06:25:29Z</time>
      </trkpt>
      <trkpt lat="42.845204975455999" lon="-2.68462099134922">
        <ele>522</ele>
        <time>2019-06-23T06:25:30Z</time>
      </trkpt>
      <trkpt lat="42.845198018476367" lon="-2.684596013277769">
        <ele>522</ele>
        <time>2019-06-23T06:25:31Z</time>
      </trkpt>
      <trkpt lat="42.845191983506083" lon="-2.684574974700809">
        <ele>522</ele>
        <time>2019-06-23T06:25:32Z</time>
      </trkpt>
      <trkpt lat="42.845199024304748" lon="-2.684552008286119">
        <ele>522</ele>
        <time>2019-06-23T06:25:33Z</time>
      </trkpt>
      <trkpt lat="42.845195000991225" lon="-2.684505991637707">
        <ele>521.79999999999995</ele>
        <time>2019-06-23T06:25:35Z</time>
      </trkpt>
      <trkpt lat="42.845195000991225" lon="-2.684472966939211">
        <ele>522</ele>
        <time>2019-06-23T06:25:37Z</time>
      </trkpt>
      <trkpt lat="42.845192989334464" lon="-2.684441031888127">
        <ele>522</ele>
        <time>2019-06-23T06:25:39Z</time>
      </trkpt>
      <trkpt lat="42.845204975455999" lon="-2.684411024674773">
        <ele>522</ele>
        <time>2019-06-23T06:25:41Z</time>
      </trkpt>
      <trkpt lat="42.845215033739805" lon="-2.68438302911818">
        <ele>522</ele>
        <time>2019-06-23T06:25:43Z</time>
      </trkpt>
      <trkpt lat="42.845219979062676" lon="-2.684364002197981">
        <ele>522</ele>
        <time>2019-06-23T06:25:45Z</time>
      </trkpt>
      <trkpt lat="42.845227019861341" lon="-2.684365008026362">
        <ele>522</ele>
        <time>2019-06-23T06:25:46Z</time>
      </trkpt>
      <trkpt lat="42.846270985901356" lon="-2.682855008170009">
        <ele>518.79999999999995</ele>
        <time>2019-06-23T06:34:20Z</time>
      </trkpt>
      <trkpt lat="42.846249025315046" lon="-2.682803040370345">
        <ele>518.60000000000002</ele>
        <time>2019-06-23T06:34:22Z</time>
      </trkpt>
      <trkpt lat="42.846224969252944" lon="-2.682745037600398">
        <ele>518.79999999999995</ele>
        <time>2019-06-23T06:34:24Z</time>
      </trkpt>
      <trkpt lat="42.846194040030241" lon="-2.682731039822102">
        <ele>518.79999999999995</ele>
        <time>2019-06-23T06:34:25Z</time>
      </trkpt>
      <trkpt lat="42.846161015331745" lon="-2.682718969881535">
        <ele>518.79999999999995</ele>
        <time>2019-06-23T06:34:26Z</time>
      </trkpt>
      <trkpt lat="42.846079040318727" lon="-2.682710001245141">
        <ele>518.79999999999995</ele>
        <time>2019-06-23T06:34:28Z</time>
      </trkpt>
      <trkpt lat="42.84606303088367" lon="-2.682705977931619">
        <ele>518.79999999999995</ele>
        <time>2019-06-23T06:34:29Z</time>
      </trkpt>
      <trkpt lat="42.846047021448612" lon="-2.682700026780367">
        <ele>519</ele>
        <time>2019-06-23T06:34:30Z</time>
      </trkpt>
      <trkpt lat="42.845996981486678" lon="-2.682682005688548">
        <ele>519</ele>
        <time>2019-06-23T06:34:32Z</time>
      </trkpt>
      <trkpt lat="42.845948031172156" lon="-2.6826430298388">
        <ele>519</ele>
        <time>2019-06-23T06:34:34Z</time>
      </trkpt>
      <trkpt lat="42.84591400064528" lon="-2.682591984048486">
        <ele>519.20000000000005</ele>
        <time>2019-06-23T06:34:36Z</time>
      </trkpt>
      <trkpt lat="42.845853986218572" lon="-2.6825359929353">
        <ele>519.39999999999998</ele>
        <time>2019-06-23T06:34:38Z</time>
      </trkpt>
      <trkpt lat="42.845783997327089" lon="-2.682488970458508">
        <ele>519.20000000000005</ele>
        <time>2019-06-23T06:34:40Z</time>
      </trkpt>
      <trkpt lat="42.845748960971832" lon="-2.682467009872198">
        <ele>519.39999999999998</ele>
        <time>2019-06-23T06:34:41Z</time>
      </trkpt>
      <trkpt lat="42.84571903757751" lon="-2.682451000437141">
        <ele>519.39999999999998</ele>
        <time>2019-06-23T06:34:42Z</time>
      </trkpt>
      <trkpt lat="42.845619041472673" lon="-2.682432979345322">
        <ele>519.39999999999998</ele>
        <time>2019-06-23T06:34:44Z</time>
      </trkpt>
      <trkpt lat="42.845575958490372" lon="-2.682424010708928">
        <ele>519.39999999999998</ele>
        <time>2019-06-23T06:34:45Z</time>
      </trkpt>
      <trkpt lat="42.845535976812243" lon="-2.682425016537309">
        <ele>519.39999999999998</ele>
        <time>2019-06-23T06:34:46Z</time>
      </trkpt>
      <trkpt lat="42.845449978485703" lon="-2.682417975738645">
        <ele>519.20000000000005</ele>
        <time>2019-06-23T06:34:48Z</time>
      </trkpt>
      <trkpt lat="42.845389964058995" lon="-2.682412024587393">
        <ele>519.60000000000002</ele>
        <time>2019-06-23T06:34:50Z</time>
      </trkpt>
      <trkpt lat="42.845345959067345" lon="-2.682401966303587">
        <ele>519.39999999999998</ele>
        <time>2019-06-23T06:34:52Z</time>
      </trkpt>
      <trkpt lat="42.845286028459668" lon="-2.682389980182052">
        <ele>519.39999999999998</ele>
        <time>2019-06-23T06:34:54Z</time>
      </trkpt>
      <trkpt lat="42.845247974619269" lon="-2.682388974353671">
        <ele>519.60000000000002</ele>
        <time>2019-06-23T06:34:55Z</time>
      </trkpt>
      <trkpt lat="42.845202963799238" lon="-2.682383023202419">
        <ele>519.79999999999995</ele>
        <time>2019-06-23T06:34:56Z</time>
      </trkpt>
      <trkpt lat="42.845111014321446" lon="-2.682370031252503">
        <ele>520</ele>
        <time>2019-06-23T06:34:58Z</time>
      </trkpt>
      <trkpt lat="42.845025015994906" lon="-2.682365002110601">
        <ele>519.79999999999995</ele>
        <time>2019-06-23T06:35:00Z</time>
      </trkpt>
      <trkpt lat="42.844985034316778" lon="-2.682367013767362">
        <ele>519.79999999999995</ele>
        <time>2019-06-23T06:35:01Z</time>
      </trkpt>
      <trkpt lat="42.844938011839986" lon="-2.682362990453839">
        <ele>520</ele>
        <time>2019-06-23T06:35:02Z</time>
      </trkpt>
      <trkpt lat="42.844841033220291" lon="-2.682362990453839">
        <ele>520</ele>
        <time>2019-06-23T06:35:04Z</time>
      </trkpt>
      <trkpt lat="42.844747994095087" lon="-2.682374976575375">
        <ele>520</ele>
        <time>2019-06-23T06:35:06Z</time>
      </trkpt>
      <trkpt lat="42.844655038788915" lon="-2.682387968525291">
        <ele>520</ele>
        <time>2019-06-23T06:35:08Z</time>
      </trkpt>
      <trkpt lat="42.844566022977233" lon="-2.682402972131968">
        <ele>520</ele>
        <time>2019-06-23T06:35:10Z</time>
      </trkpt>
      <trkpt lat="42.844476001337171" lon="-2.682416969910264">
        <ele>520</ele>
        <time>2019-06-23T06:35:12Z</time>
      </trkpt>
      <trkpt lat="42.844381034374237" lon="-2.682434991002083">
        <ele>520.20000000000005</ele>
        <time>2019-06-23T06:35:14Z</time>
      </trkpt>
      <trkpt lat="42.844286989420652" lon="-2.682447982951999">
        <ele>520.20000000000005</ele>
        <time>2019-06-23T06:35:16Z</time>
      </trkpt>
      <trkpt lat="42.844182970002294" lon="-2.682458963245153">
        <ele>520.39999999999998</ele>
        <time>2019-06-23T06:35:18Z</time>
      </trkpt>
      <trkpt lat="42.84408800303936" lon="-2.682468015700579">
        <ele>520.39999999999998</ele>
        <time>2019-06-23T06:35:20Z</time>
      </trkpt>
      <trkpt lat="42.843985995277762" lon="-2.682488970458508">
        <ele>520.39999999999998</ele>
        <time>2019-06-23T06:35:22Z</time>
      </trkpt>
      <trkpt lat="42.843887005001307" lon="-2.68251596018672">
        <ele>520.60000000000002</ele>
        <time>2019-06-23T06:35:24Z</time>
      </trkpt>
      <trkpt lat="42.843781979754567" lon="-2.682533981278539">
        <ele>520.60000000000002</ele>
        <time>2019-06-23T06:35:26Z</time>
      </trkpt>
      <trkpt lat="42.843675026670098" lon="-2.682545967400074">
        <ele>520.60000000000002</ele>
        <time>2019-06-23T06:35:28Z</time>
      </trkpt>
      <trkpt lat="42.843573018908501" lon="-2.682549990713596">
        <ele>520.79999999999995</ele>
        <time>2019-06-23T06:35:30Z</time>
      </trkpt>
      <trkpt lat="42.843463970348239" lon="-2.68255895934999">
        <ele>521</ele>
        <time>2019-06-23T06:35:32Z</time>
      </trkpt>
      <trkpt lat="42.843353999778628" lon="-2.68255602568388">
        <ele>521</ele>
        <time>2019-06-23T06:35:34Z</time>
      </trkpt>
      <trkpt lat="42.843252997845411" lon="-2.682560971006751">
        <ele>521.20000000000005</ele>
        <time>2019-06-23T06:35:36Z</time>
      </trkpt>
      <trkpt lat="42.843175968155265" lon="-2.682571029290557">
        <ele>521</ele>
        <time>2019-06-23T06:35:38Z</time>
      </trkpt>
      <trkpt lat="42.843133974820375" lon="-2.682569017633796">
        <ele>521.20000000000005</ele>
        <time>2019-06-23T06:35:40Z</time>
      </trkpt>
      <trkpt lat="42.843116037547588" lon="-2.682563988491893">
        <ele>521.20000000000005</ele>
        <time>2019-06-23T06:35:42Z</time>
      </trkpt>
      <trkpt lat="42.843116037547588" lon="-2.682563988491893">
        <ele>521.39999999999998</ele>
        <time>2019-06-23T06:35:43Z</time>
      </trkpt>
      <trkpt lat="42.843089969828725" lon="-2.682561976835132">
        <ele>522</ele>
        <time>2019-06-23T06:36:00Z</time>
      </trkpt>
      <trkpt lat="42.843070020899177" lon="-2.682561976835132">
        <ele>522</ele>
        <time>2019-06-23T06:36:01Z</time>
      </trkpt>
      <trkpt lat="42.843040013685822" lon="-2.682566000148654">
        <ele>521.79999999999995</ele>
        <time>2019-06-23T06:36:02Z</time>
      </trkpt>
      <trkpt lat="42.842967007309198" lon="-2.682588966563344">
        <ele>521.79999999999995</ele>
        <time>2019-06-23T06:36:04Z</time>
      </trkpt>
      <trkpt lat="42.84292601980269" lon="-2.682604975998402">
        <ele>521.60000000000002</ele>
        <time>2019-06-23T06:36:05Z</time>
      </trkpt>
      <trkpt lat="42.84288302063942" lon="-2.682622997090221">
        <ele>521.79999999999995</ele>
        <time>2019-06-23T06:36:06Z</time>
      </trkpt>
      <trkpt lat="42.842835998162627" lon="-2.682645041495562">
        <ele>521.79999999999995</ele>
        <time>2019-06-23T06:36:07Z</time>
      </trkpt>
      <trkpt lat="42.842788975685835" lon="-2.682673959061503">
        <ele>521.60000000000002</ele>
        <time>2019-06-23T06:36:08Z</time>
      </trkpt>
      <trkpt lat="42.842699959874153" lon="-2.682744031772018">
        <ele>521.60000000000002</ele>
        <time>2019-06-23T06:36:10Z</time>
      </trkpt>
      <trkpt lat="42.842613039538264" lon="-2.682830030098558">
        <ele>521.60000000000002</ele>
        <time>2019-06-23T06:36:12Z</time>
      </trkpt>
      <trkpt lat="42.842530980706215" lon="-2.682921979576349">
        <ele>521.79999999999995</ele>
        <time>2019-06-23T06:36:14Z</time>
      </trkpt>
      <trkpt lat="42.842457974329591" lon="-2.683010995388031">
        <ele>521.60000000000002</ele>
        <time>2019-06-23T06:36:16Z</time>
      </trkpt>
      <trkpt lat="42.842420004308224" lon="-2.683048965409398">
        <ele>521.79999999999995</ele>
        <time>2019-06-23T06:36:17Z</time>
      </trkpt>
      <trkpt lat="42.842382034286857" lon="-2.683060029521585">
        <ele>521.60000000000002</ele>
        <time>2019-06-23T06:36:18Z</time>
      </trkpt>
      <trkpt lat="42.842349009588361" lon="-2.683062963187695">
        <ele>521.79999999999995</ele>
        <time>2019-06-23T06:36:19Z</time>
      </trkpt>
      <trkpt lat="42.842306010425091" lon="-2.68305298872292">
        <ele>521.60000000000002</ele>
        <time>2019-06-23T06:36:20Z</time>
      </trkpt>
      <trkpt lat="42.842200985178351" lon="-2.683022981509566">
        <ele>521.79999999999995</ele>
        <time>2019-06-23T06:36:22Z</time>
      </trkpt>
      <trkpt lat="42.842142982408404" lon="-2.683018036186695">
        <ele>521.60000000000002</ele>
        <time>2019-06-23T06:36:23Z</time>
      </trkpt>
      <trkpt lat="42.842085985466838" lon="-2.683021975681186">
        <ele>521.79999999999995</ele>
        <time>2019-06-23T06:36:24Z</time>
      </trkpt>
      <trkpt lat="42.841968974098563" lon="-2.683057012036443">
        <ele>521.79999999999995</ele>
        <time>2019-06-23T06:36:26Z</time>
      </trkpt>
      <trkpt lat="42.841908959671855" lon="-2.683074027299881">
        <ele>521.79999999999995</ele>
        <time>2019-06-23T06:36:27Z</time>
      </trkpt>
      <trkpt lat="42.841852968558669" lon="-2.683090036734939">
        <ele>521.60000000000002</ele>
        <time>2019-06-23T06:36:28Z</time>
      </trkpt>
      <trkpt lat="42.8417460154742" lon="-2.683122977614403">
        <ele>521.79999999999995</ele>
        <time>2019-06-23T06:36:30Z</time>
      </trkpt>
      <trkpt lat="42.841633027419448" lon="-2.683157008141279">
        <ele>521.79999999999995</ele>
        <time>2019-06-23T06:36:32Z</time>
      </trkpt>
      <trkpt lat="42.841520961374044" lon="-2.683197995647788">
        <ele>522</ele>
        <time>2019-06-23T06:36:34Z</time>
      </trkpt>
      <trkpt lat="42.841410990804434" lon="-2.683234037831426">
        <ele>522</ele>
        <time>2019-06-23T06:36:36Z</time>
      </trkpt>
      <trkpt lat="42.841299008578062" lon="-2.68326697871089">
        <ele>522.20000000000005</ele>
        <time>2019-06-23T06:36:38Z</time>
      </trkpt>
      <trkpt lat="42.84118702635169" lon="-2.683293968439102">
        <ele>522.20000000000005</ele>
        <time>2019-06-23T06:36:40Z</time>
      </trkpt>
      <trkpt lat="42.841132041066885" lon="-2.683307966217399">
        <ele>522.39999999999998</ele>
        <time>2019-06-23T06:36:41Z</time>
      </trkpt>
      <trkpt lat="42.841074960306287" lon="-2.683323975652456">
        <ele>522.39999999999998</ele>
        <time>2019-06-23T06:36:42Z</time>
      </trkpt>
      <trkpt lat="42.840960966423154" lon="-2.683355994522572">
        <ele>522.39999999999998</ele>
        <time>2019-06-23T06:36:44Z</time>
      </trkpt>
      <trkpt lat="42.840847978368402" lon="-2.683384995907545">
        <ele>522.60000000000002</ele>
        <time>2019-06-23T06:36:46Z</time>
      </trkpt>
      <trkpt lat="42.840740019455552" lon="-2.68341600894928">
        <ele>522.60000000000002</ele>
        <time>2019-06-23T06:36:48Z</time>
      </trkpt>
      <trkpt lat="42.84062803722918" lon="-2.683437969535589">
        <ele>522.60000000000002</ele>
        <time>2019-06-23T06:36:50Z</time>
      </trkpt>
      <trkpt lat="42.840518988668919" lon="-2.68341600894928">
        <ele>522.79999999999995</ele>
        <time>2019-06-23T06:36:52Z</time>
      </trkpt>
      <trkpt lat="42.840411029756069" lon="-2.683369992300868">
        <ele>523</ele>
        <time>2019-06-23T06:36:54Z</time>
      </trkpt>
      <trkpt lat="42.840351015329361" lon="-2.68335398286581">
        <ele>523</ele>
        <time>2019-06-23T06:36:55Z</time>
      </trkpt>
      <trkpt lat="42.840294018387794" lon="-2.683345014229417">
        <ele>523</ele>
        <time>2019-06-23T06:36:56Z</time>
      </trkpt>
      <trkpt lat="42.840181030333042" lon="-2.683340990915895">
        <ele>523.20000000000005</ele>
        <time>2019-06-23T06:36:58Z</time>
      </trkpt>
      <trkpt lat="42.840067958459258" lon="-2.683338979259133">
        <ele>523.20000000000005</ele>
        <time>2019-06-23T06:37:00Z</time>
      </trkpt>
      <trkpt lat="42.839955976232886" lon="-2.683335039764643">
        <ele>523.39999999999998</ele>
        <time>2019-06-23T06:37:02Z</time>
      </trkpt>
      <trkpt lat="42.839842988178134" lon="-2.683326993137598">
        <ele>523.60000000000002</ele>
        <time>2019-06-23T06:37:04Z</time>
      </trkpt>
      <trkpt lat="42.839731005951762" lon="-2.683321963995695">
        <ele>523.60000000000002</ele>
        <time>2019-06-23T06:37:06Z</time>
      </trkpt>
      <trkpt lat="42.83961902372539" lon="-2.683316012844443">
        <ele>523.79999999999995</ele>
        <time>2019-06-23T06:37:08Z</time>
      </trkpt>
      <trkpt lat="42.839564038440585" lon="-2.683314001187682">
        <ele>524</ele>
        <time>2019-06-23T06:37:09Z</time>
      </trkpt>
      <trkpt lat="42.839507963508368" lon="-2.683312995359302">
        <ele>524</ele>
        <time>2019-06-23T06:37:10Z</time>
      </trkpt>
      <trkpt lat="42.839398998767138" lon="-2.683312995359302">
        <ele>524.20000000000005</ele>
        <time>2019-06-23T06:37:12Z</time>
      </trkpt>
      <trkpt lat="42.839292967692018" lon="-2.683320958167315">
        <ele>524.79999999999995</ele>
        <time>2019-06-23T06:37:14Z</time>
      </trkpt>
      <trkpt lat="42.839187020435929" lon="-2.683333028107882">
        <ele>524.79999999999995</ele>
        <time>2019-06-23T06:37:16Z</time>
      </trkpt>
      <trkpt lat="42.839077971875668" lon="-2.683349959552288">
        <ele>525</ele>
        <time>2019-06-23T06:37:18Z</time>
      </trkpt>
      <trkpt lat="42.838981999084353" lon="-2.683366974815726">
        <ele>525.20000000000005</ele>
        <time>2019-06-23T06:37:20Z</time>
      </trkpt>
      <trkpt lat="42.838933970779181" lon="-2.683379966765642">
        <ele>525</ele>
        <time>2019-06-23T06:37:21Z</time>
      </trkpt>
      <trkpt lat="42.838885020464659" lon="-2.683397987857461">
        <ele>525</ele>
        <time>2019-06-23T06:37:22Z</time>
      </trkpt>
      <trkpt lat="42.838837997987866" lon="-2.683421038091183">
        <ele>525.20000000000005</ele>
        <time>2019-06-23T06:37:23Z</time>
      </trkpt>
      <trkpt lat="42.838793992996216" lon="-2.683450039476156">
        <ele>525.20000000000005</ele>
        <time>2019-06-23T06:37:24Z</time>
      </trkpt>
      <trkpt lat="42.838701959699392" lon="-2.683511981740594">
        <ele>525.39999999999998</ele>
        <time>2019-06-23T06:37:26Z</time>
      </trkpt>
      <trkpt lat="42.838657032698393" lon="-2.683541988953948">
        <ele>525.39999999999998</ele>
        <time>2019-06-23T06:37:27Z</time>
      </trkpt>
      <trkpt lat="42.838613027706742" lon="-2.683579036965966">
        <ele>525.60000000000002</ele>
        <time>2019-06-23T06:37:28Z</time>
      </trkpt>
      <trkpt lat="42.838528035208583" lon="-2.683655982837081">
        <ele>525.79999999999995</ele>
        <time>2019-06-23T06:37:30Z</time>
      </trkpt>
      <trkpt lat="42.838487969711423" lon="-2.68369697034359">
        <ele>526</ele>
        <time>2019-06-23T06:37:31Z</time>
      </trkpt>
      <trkpt lat="42.838451005518436" lon="-2.683742986992002">
        <ele>526</ele>
        <time>2019-06-23T06:37:32Z</time>
      </trkpt>
      <trkpt lat="42.838377999141812" lon="-2.683841977268457">
        <ele>526.39999999999998</ele>
        <time>2019-06-23T06:37:34Z</time>
      </trkpt>
      <trkpt lat="42.838310021907091" lon="-2.683942979201675">
        <ele>526.60000000000002</ele>
        <time>2019-06-23T06:37:36Z</time>
      </trkpt>
      <trkpt lat="42.838230980560184" lon="-2.684046998620033">
        <ele>526.60000000000002</ele>
        <time>2019-06-23T06:37:38Z</time>
      </trkpt>
      <trkpt lat="42.838183036074042" lon="-2.684089997783303">
        <ele>526.60000000000002</ele>
        <time>2019-06-23T06:37:39Z</time>
      </trkpt>
      <trkpt lat="42.838135007768869" lon="-2.684111958369613">
        <ele>526.79999999999995</ele>
        <time>2019-06-23T06:37:40Z</time>
      </trkpt>
      <trkpt lat="42.838097037747502" lon="-2.684091003611684">
        <ele>526.79999999999995</ele>
        <time>2019-06-23T06:37:41Z</time>
      </trkpt>
      <trkpt lat="42.838066024705768" lon="-2.68404096364975">
        <ele>527</ele>
        <time>2019-06-23T06:37:42Z</time>
      </trkpt>
      <trkpt lat="42.838040040805936" lon="-2.68397499807179">
        <ele>527</ele>
        <time>2019-06-23T06:37:43Z</time>
      </trkpt>
      <trkpt lat="42.838025959208608" lon="-2.683897968381643">
        <ele>527.20000000000005</ele>
        <time>2019-06-23T06:37:44Z</time>
      </trkpt>
      <trkpt lat="42.838020008057356" lon="-2.683820016682148">
        <ele>527.20000000000005</ele>
        <time>2019-06-23T06:37:45Z</time>
      </trkpt>
      <trkpt lat="42.838017996400595" lon="-2.68374097533524">
        <ele>527.39999999999998</ele>
        <time>2019-06-23T06:37:46Z</time>
      </trkpt>
      <trkpt lat="42.838013973087072" lon="-2.683582976460457">
        <ele>527.39999999999998</ele>
        <time>2019-06-23T06:37:48Z</time>
      </trkpt>
      <trkpt lat="42.838010033592582" lon="-2.683419026434422">
        <ele>527.60000000000002</ele>
        <time>2019-06-23T06:37:50Z</time>
      </trkpt>
      <trkpt lat="42.838002992793918" lon="-2.683336967602372">
        <ele>527.39999999999998</ele>
        <time>2019-06-23T06:37:51Z</time>
      </trkpt>
      <trkpt lat="42.837997963652015" lon="-2.683253986760974">
        <ele>527.60000000000002</ele>
        <time>2019-06-23T06:37:52Z</time>
      </trkpt>
      <trkpt lat="42.837982038035989" lon="-2.683089030906558">
        <ele>527.60000000000002</ele>
        <time>2019-06-23T06:37:54Z</time>
      </trkpt>
      <trkpt lat="42.837958987802267" lon="-2.682931032031775">
        <ele>527.20000000000005</ele>
        <time>2019-06-23T06:37:56Z</time>
      </trkpt>
      <trkpt lat="42.837936021387577" lon="-2.682774960994721">
        <ele>527.20000000000005</ele>
        <time>2019-06-23T06:37:58Z</time>
      </trkpt>
      <trkpt lat="42.837926968932152" lon="-2.682693991810083">
        <ele>527.20000000000005</ele>
        <time>2019-06-23T06:37:59Z</time>
      </trkpt>
      <trkpt lat="42.837919006124139" lon="-2.682613022625446">
        <ele>527.20000000000005</ele>
        <time>2019-06-23T06:38:00Z</time>
      </trkpt>
      <trkpt lat="42.837898973375559" lon="-2.682452006265521">
        <ele>527.20000000000005</ele>
        <time>2019-06-23T06:38:02Z</time>
      </trkpt>
      <trkpt lat="42.837888998910785" lon="-2.682373970746994">
        <ele>527</ele>
        <time>2019-06-23T06:38:03Z</time>
      </trkpt>
      <trkpt lat="42.837879024446011" lon="-2.682297024875879">
        <ele>527</ele>
        <time>2019-06-23T06:38:04Z</time>
      </trkpt>
      <trkpt lat="42.83785798586905" lon="-2.682141037657857">
        <ele>527</ele>
        <time>2019-06-23T06:38:06Z</time>
      </trkpt>
      <trkpt lat="42.837841976433992" lon="-2.681989995762706">
        <ele>526.79999999999995</ele>
        <time>2019-06-23T06:38:08Z</time>
      </trkpt>
      <trkpt lat="42.837824039161205" lon="-2.68187097273767">
        <ele>526.79999999999995</ele>
        <time>2019-06-23T06:38:10Z</time>
      </trkpt>
      <trkpt lat="42.837818004190922" lon="-2.681830991059542">
        <ele>527</ele>
        <time>2019-06-23T06:38:11Z</time>
      </trkpt>
      <trkpt lat="42.837813980877399" lon="-2.681801989674568">
        <ele>527</ele>
        <time>2019-06-23T06:38:12Z</time>
      </trkpt>
      <trkpt lat="42.837808029726148" lon="-2.681768964976072">
        <ele>527.20000000000005</ele>
        <time>2019-06-23T06:38:14Z</time>
      </trkpt>
      <trkpt lat="42.837806018069386" lon="-2.681756978854537">
        <ele>527.20000000000005</ele>
        <time>2019-06-23T06:38:15Z</time>
      </trkpt>
      <trkpt lat="42.837805012241006" lon="-2.681745998561382">
        <ele>527</ele>
        <time>2019-06-23T06:38:16Z</time>
      </trkpt>
      <trkpt lat="42.837803000584245" lon="-2.681739963591099">
        <ele>527</ele>
        <time>2019-06-23T06:38:17Z</time>
      </trkpt>
      <trkpt lat="42.837803000584245" lon="-2.681739963591099">
        <ele>527.20000000000005</ele>
        <time>2019-06-23T06:38:18Z</time>
      </trkpt>
      <trkpt lat="42.837798977270722" lon="-2.681684978306294">
        <ele>528.20000000000005</ele>
        <time>2019-06-23T06:38:33Z</time>
      </trkpt>
      <trkpt lat="42.83779202029109" lon="-2.681646002456546">
        <ele>528.20000000000005</ele>
        <time>2019-06-23T06:38:34Z</time>
      </trkpt>
      <trkpt lat="42.837780034169555" lon="-2.681552041321993">
        <ele>528.20000000000005</ele>
        <time>2019-06-23T06:38:36Z</time>
      </trkpt>
      <trkpt lat="42.837776010856032" lon="-2.681494960561395">
        <ele>528.20000000000005</ele>
        <time>2019-06-23T06:38:37Z</time>
      </trkpt>
      <trkpt lat="42.837769975885749" lon="-2.681428994983435">
        <ele>528</ele>
        <time>2019-06-23T06:38:38Z</time>
      </trkpt>
      <trkpt lat="42.837761007249355" lon="-2.681362023577094">
        <ele>528.20000000000005</ele>
        <time>2019-06-23T06:38:39Z</time>
      </trkpt>
      <trkpt lat="42.837753966450691" lon="-2.681293040513992">
        <ele>528</ele>
        <time>2019-06-23T06:38:40Z</time>
      </trkpt>
      <trkpt lat="42.837744997814298" lon="-2.681223973631859">
        <ele>528</ele>
        <time>2019-06-23T06:38:41Z</time>
      </trkpt>
      <trkpt lat="42.837737035006285" lon="-2.681151973083615">
        <ele>528</ele>
        <time>2019-06-23T06:38:42Z</time>
      </trkpt>
      <trkpt lat="42.83772898837924" lon="-2.681075027212501">
        <ele>528</ele>
        <time>2019-06-23T06:38:43Z</time>
      </trkpt>
      <trkpt lat="42.837721025571227" lon="-2.680999003350735">
        <ele>528</ele>
        <time>2019-06-23T06:38:44Z</time>
      </trkpt>
      <trkpt lat="42.837701998651028" lon="-2.680844021961093">
        <ele>527.79999999999995</ele>
        <time>2019-06-23T06:38:46Z</time>
      </trkpt>
      <trkpt lat="42.837686995044351" lon="-2.680688034743071">
        <ele>527.60000000000002</ele>
        <time>2019-06-23T06:38:48Z</time>
      </trkpt>
      <trkpt lat="42.837667968124151" lon="-2.680530035868287">
        <ele>527.39999999999998</ele>
        <time>2019-06-23T06:38:50Z</time>
      </trkpt>
      <trkpt lat="42.837649025022984" lon="-2.680370025336742">
        <ele>527.39999999999998</ele>
        <time>2019-06-23T06:38:52Z</time>
      </trkpt>
      <trkpt lat="42.837637960910797" lon="-2.680289978161454">
        <ele>527.20000000000005</ele>
        <time>2019-06-23T06:38:53Z</time>
      </trkpt>
      <trkpt lat="42.837624968960881" lon="-2.680211020633578">
        <ele>527.60000000000002</ele>
        <time>2019-06-23T06:38:54Z</time>
      </trkpt>
      <trkpt lat="42.837614994496107" lon="-2.680132985115051">
        <ele>527.39999999999998</ele>
        <time>2019-06-23T06:38:55Z</time>
      </trkpt>
      <trkpt lat="42.837604014202952" lon="-2.680054027587175">
        <ele>527.39999999999998</ele>
        <time>2019-06-23T06:38:56Z</time>
      </trkpt>
      <trkpt lat="42.837582975625992" lon="-2.679889993742108">
        <ele>527.39999999999998</ele>
        <time>2019-06-23T06:38:58Z</time>
      </trkpt>
      <trkpt lat="42.837560009211302" lon="-2.67972000874579">
        <ele>527.39999999999998</ele>
        <time>2019-06-23T06:39:00Z</time>
      </trkpt>
      <trkpt lat="42.837548023089767" lon="-2.67963401041925">
        <ele>527.39999999999998</ele>
        <time>2019-06-23T06:39:01Z</time>
      </trkpt>
      <trkpt lat="42.837536036968231" lon="-2.679547006264329">
        <ele>527.39999999999998</ele>
        <time>2019-06-23T06:39:02Z</time>
      </trkpt>
      <trkpt lat="42.837514998391271" lon="-2.67937601543963">
        <ele>527.60000000000002</ele>
        <time>2019-06-23T06:39:04Z</time>
      </trkpt>
      <trkpt lat="42.837497983127832" lon="-2.67920795828104">
        <ele>527.60000000000002</ele>
        <time>2019-06-23T06:39:06Z</time>
      </trkpt>
      <trkpt lat="42.837478034198284" lon="-2.679039984941483">
        <ele>527.79999999999995</ele>
        <time>2019-06-23T06:39:08Z</time>
      </trkpt>
      <trkpt lat="42.837459007278085" lon="-2.678880980238318">
        <ele>527.60000000000002</ele>
        <time>2019-06-23T06:39:10Z</time>
      </trkpt>
      <trkpt lat="42.837439980357885" lon="-2.678748965263367">
        <ele>527.79999999999995</ele>
        <time>2019-06-23T06:39:12Z</time>
      </trkpt>
      <trkpt lat="42.837433023378253" lon="-2.678698003292084">
        <ele>527.79999999999995</ele>
        <time>2019-06-23T06:39:13Z</time>
      </trkpt>
      <trkpt lat="42.837426988407969" lon="-2.678658021613956">
        <ele>527.79999999999995</ele>
        <time>2019-06-23T06:39:14Z</time>
      </trkpt>
      <trkpt lat="42.837418019771576" lon="-2.67860496416688">
        <ele>527.79999999999995</ele>
        <time>2019-06-23T06:39:16Z</time>
      </trkpt>
      <trkpt lat="42.837415002286434" lon="-2.678589038550854">
        <ele>528</ele>
        <time>2019-06-23T06:39:17Z</time>
      </trkpt>
      <trkpt lat="42.837412990629673" lon="-2.678576968610287">
        <ele>528</ele>
        <time>2019-06-23T06:39:18Z</time>
      </trkpt>
      <trkpt lat="42.837410978972912" lon="-2.678563976660371">
        <ele>528</ele>
        <time>2019-06-23T06:39:20Z</time>
      </trkpt>
      <trkpt lat="42.837409973144531" lon="-2.678563976660371">
        <ele>528.20000000000005</ele>
        <time>2019-06-23T06:39:21Z</time>
      </trkpt>
      <trkpt lat="42.837396981194615" lon="-2.678500022739172">
        <ele>528.60000000000002</ele>
        <time>2019-06-23T06:39:48Z</time>
      </trkpt>
      <trkpt lat="42.837393041700125" lon="-2.678460041061044">
        <ele>528.60000000000002</ele>
        <time>2019-06-23T06:39:49Z</time>
      </trkpt>
      <trkpt lat="42.837388012558222" lon="-2.678413018584251">
        <ele>528.60000000000002</ele>
        <time>2019-06-23T06:39:50Z</time>
      </trkpt>
      <trkpt lat="42.837380971759558" lon="-2.678359039127827">
        <ele>528.39999999999998</ele>
        <time>2019-06-23T06:39:51Z</time>
      </trkpt>
      <trkpt lat="42.837374014779925" lon="-2.67830103635788">
        <ele>528.39999999999998</ele>
        <time>2019-06-23T06:39:52Z</time>
      </trkpt>
      <trkpt lat="42.837364040315151" lon="-2.678236998617649">
        <ele>528.60000000000002</ele>
        <time>2019-06-23T06:39:53Z</time>
      </trkpt>
      <trkpt lat="42.837354987859726" lon="-2.678169021382928">
        <ele>528.60000000000002</ele>
        <time>2019-06-23T06:39:54Z</time>
      </trkpt>
      <trkpt lat="42.837335960939527" lon="-2.678025020286441">
        <ele>528.39999999999998</ele>
        <time>2019-06-23T06:39:56Z</time>
      </trkpt>
      <trkpt lat="42.837317017838359" lon="-2.67787397839129">
        <ele>528.39999999999998</ele>
        <time>2019-06-23T06:39:58Z</time>
      </trkpt>
      <trkpt lat="42.837294973433018" lon="-2.677716985344887">
        <ele>528.20000000000005</ele>
        <time>2019-06-23T06:40:00Z</time>
      </trkpt>
      <trkpt lat="42.837275024503469" lon="-2.677556974813342">
        <ele>528</ele>
        <time>2019-06-23T06:40:02Z</time>
      </trkpt>
      <trkpt lat="42.837253985926509" lon="-2.677392018958926">
        <ele>528</ele>
        <time>2019-06-23T06:40:04Z</time>
      </trkpt>
      <trkpt lat="42.837232025340199" lon="-2.677227985113859">
        <ele>527.79999999999995</ele>
        <time>2019-06-23T06:40:06Z</time>
      </trkpt>
      <trkpt lat="42.837214004248381" lon="-2.677065040916205">
        <ele>527.79999999999995</ele>
        <time>2019-06-23T06:40:08Z</time>
      </trkpt>
      <trkpt lat="42.837193971499801" lon="-2.676900001242757">
        <ele>527.79999999999995</ele>
        <time>2019-06-23T06:40:10Z</time>
      </trkpt>
      <trkpt lat="42.837181985378265" lon="-2.67673697322607">
        <ele>527.79999999999995</ele>
        <time>2019-06-23T06:40:12Z</time>
      </trkpt>
      <trkpt lat="42.837164970114827" lon="-2.676570005714893">
        <ele>527.79999999999995</ele>
        <time>2019-06-23T06:40:14Z</time>
      </trkpt>
      <trkpt lat="42.83714703284204" lon="-2.676403038203716">
        <ele>527.79999999999995</ele>
        <time>2019-06-23T06:40:16Z</time>
      </trkpt>
      <trkpt lat="42.837134962901473" lon="-2.676317961886525">
        <ele>527.79999999999995</ele>
        <time>2019-06-23T06:40:17Z</time>
      </trkpt>
      <trkpt lat="42.837123982608318" lon="-2.676233975216746">
        <ele>527.79999999999995</ele>
        <time>2019-06-23T06:40:18Z</time>
      </trkpt>
      <trkpt lat="42.83710403367877" lon="-2.676060972735286">
        <ele>527.79999999999995</ele>
        <time>2019-06-23T06:40:20Z</time>
      </trkpt>
      <trkpt lat="42.837092969566584" lon="-2.675973968580365">
        <ele>527.60000000000002</ele>
        <time>2019-06-23T06:40:21Z</time>
      </trkpt>
      <trkpt lat="42.837081989273429" lon="-2.675886964425445">
        <ele>527.79999999999995</ele>
        <time>2019-06-23T06:40:22Z</time>
      </trkpt>
      <trkpt lat="42.8370610345155" lon="-2.675718991085887">
        <ele>528</ele>
        <time>2019-06-23T06:40:24Z</time>
      </trkpt>
      <trkpt lat="42.83703999593854" lon="-2.675555963069201">
        <ele>528.20000000000005</ele>
        <time>2019-06-23T06:40:26Z</time>
      </trkpt>
      <trkpt lat="42.83702096901834" lon="-2.675392013043165">
        <ele>528.20000000000005</ele>
        <time>2019-06-23T06:40:28Z</time>
      </trkpt>
      <trkpt lat="42.837010994553566" lon="-2.675309032201767">
        <ele>528.20000000000005</ele>
        <time>2019-06-23T06:40:29Z</time>
      </trkpt>
      <trkpt lat="42.837001020088792" lon="-2.675224961712956">
        <ele>528.20000000000005</ele>
        <time>2019-06-23T06:40:30Z</time>
      </trkpt>
      <trkpt lat="42.836984004825354" lon="-2.675056988373399">
        <ele>528.20000000000005</ele>
        <time>2019-06-23T06:40:32Z</time>
      </trkpt>
      <trkpt lat="42.836963972076774" lon="-2.674890020862222">
        <ele>528.20000000000005</ele>
        <time>2019-06-23T06:40:34Z</time>
      </trkpt>
      <trkpt lat="42.836945028975606" lon="-2.674723975360394">
        <ele>528.39999999999998</ele>
        <time>2019-06-23T06:40:36Z</time>
      </trkpt>
      <trkpt lat="42.836930025368929" lon="-2.674559019505978">
        <ele>528.39999999999998</ele>
        <time>2019-06-23T06:40:38Z</time>
      </trkpt>
      <trkpt lat="42.836913010105491" lon="-2.674391968175769">
        <ele>528.39999999999998</ele>
        <time>2019-06-23T06:40:40Z</time>
      </trkpt>
      <trkpt lat="42.836892977356911" lon="-2.674225000664592">
        <ele>528.60000000000002</ele>
        <time>2019-06-23T06:40:42Z</time>
      </trkpt>
      <trkpt lat="42.836873028427362" lon="-2.674059038981795">
        <ele>528.60000000000002</ele>
        <time>2019-06-23T06:40:44Z</time>
      </trkpt>
      <trkpt lat="42.836855007335544" lon="-2.673895005136728">
        <ele>528.60000000000002</ele>
        <time>2019-06-23T06:40:46Z</time>
      </trkpt>
      <trkpt lat="42.83684503287077" lon="-2.67381202429533">
        <ele>528.79999999999995</ele>
        <time>2019-06-23T06:40:47Z</time>
      </trkpt>
      <trkpt lat="42.836834974586964" lon="-2.673729965463281">
        <ele>528.79999999999995</ele>
        <time>2019-06-23T06:40:48Z</time>
      </trkpt>
      <trkpt lat="42.836819970980287" lon="-2.673568027094007">
        <ele>528.60000000000002</ele>
        <time>2019-06-23T06:40:50Z</time>
      </trkpt>
      <trkpt lat="42.836800022050738" lon="-2.673406004905701">
        <ele>528.79999999999995</ele>
        <time>2019-06-23T06:40:52Z</time>
      </trkpt>
      <trkpt lat="42.8367830067873" lon="-2.67325202934444">
        <ele>529</ele>
        <time>2019-06-23T06:40:54Z</time>
      </trkpt>
      <trkpt lat="42.836769009009004" lon="-2.673180028796196">
        <ele>529</ele>
        <time>2019-06-23T06:40:55Z</time>
      </trkpt>
      <trkpt lat="42.836757022887468" lon="-2.673111967742443">
        <ele>529</ele>
        <time>2019-06-23T06:40:56Z</time>
      </trkpt>
      <trkpt lat="42.836737995967269" lon="-2.67299696803093">
        <ele>529</ele>
        <time>2019-06-23T06:40:58Z</time>
      </trkpt>
      <trkpt lat="42.836721986532211" lon="-2.672920022159815">
        <ele>529.20000000000005</ele>
        <time>2019-06-23T06:41:00Z</time>
      </trkpt>
      <trkpt lat="42.836713017895818" lon="-2.6728689763695">
        <ele>529.20000000000005</ele>
        <time>2019-06-23T06:41:02Z</time>
      </trkpt>
      <trkpt lat="42.836704971268773" lon="-2.672837963327766">
        <ele>529.39999999999998</ele>
        <time>2019-06-23T06:41:04Z</time>
      </trkpt>
      <trkpt lat="42.836703965440392" lon="-2.672826983034611">
        <ele>529.20000000000005</ele>
        <time>2019-06-23T06:41:05Z</time>
      </trkpt>
      <trkpt lat="42.836702037602663" lon="-2.672820026054978">
        <ele>529.39999999999998</ele>
        <time>2019-06-23T06:41:06Z</time>
      </trkpt>
      <trkpt lat="42.836700025945902" lon="-2.672814996913075">
        <ele>529.79999999999995</ele>
        <time>2019-06-23T06:41:08Z</time>
      </trkpt>
      <trkpt lat="42.836690973490477" lon="-2.672761017456651">
        <ele>529.79999999999995</ele>
        <time>2019-06-23T06:41:14Z</time>
      </trkpt>
      <trkpt lat="42.836685022339225" lon="-2.672668984159827">
        <ele>529.79999999999995</ele>
        <time>2019-06-23T06:41:16Z</time>
      </trkpt>
      <trkpt lat="42.836679993197322" lon="-2.672611987218261">
        <ele>529.79999999999995</ele>
        <time>2019-06-23T06:41:17Z</time>
      </trkpt>
      <trkpt lat="42.83667303621769" lon="-2.672552978619933">
        <ele>529.79999999999995</ele>
        <time>2019-06-23T06:41:18Z</time>
      </trkpt>
      <trkpt lat="42.836657026782632" lon="-2.672421969473362">
        <ele>529.79999999999995</ele>
        <time>2019-06-23T06:41:20Z</time>
      </trkpt>
      <trkpt lat="42.836642023175955" lon="-2.672278974205256">
        <ele>530</ele>
        <time>2019-06-23T06:41:22Z</time>
      </trkpt>
      <trkpt lat="42.83663003705442" lon="-2.672132039442658">
        <ele>530</ele>
        <time>2019-06-23T06:41:24Z</time>
      </trkpt>
      <trkpt lat="42.836616961285472" lon="-2.671978985890746">
        <ele>529.79999999999995</ele>
        <time>2019-06-23T06:41:26Z</time>
      </trkpt>
      <trkpt lat="42.836602041497827" lon="-2.671821992844343">
        <ele>529.60000000000002</ele>
        <time>2019-06-23T06:41:28Z</time>
      </trkpt>
      <trkpt lat="42.836585026234388" lon="-2.671660976484418">
        <ele>529.60000000000002</ele>
        <time>2019-06-23T06:41:30Z</time>
      </trkpt>
      <trkpt lat="42.836564993485808" lon="-2.671500965952873">
        <ele>529.60000000000002</ele>
        <time>2019-06-23T06:41:32Z</time>
      </trkpt>
      <trkpt lat="42.836545966565609" lon="-2.67134003341198">
        <ele>529.39999999999998</ele>
        <time>2019-06-23T06:41:34Z</time>
      </trkpt>
      <trkpt lat="42.836520988494158" lon="-2.671183962374926">
        <ele>529.39999999999998</ele>
        <time>2019-06-23T06:41:36Z</time>
      </trkpt>
      <trkpt lat="42.836496010422707" lon="-2.671028980985284">
        <ele>529.60000000000002</ele>
        <time>2019-06-23T06:41:38Z</time>
      </trkpt>
      <trkpt lat="42.836477989330888" lon="-2.670866958796978">
        <ele>529.60000000000002</ele>
        <time>2019-06-23T06:41:40Z</time>
      </trkpt>
      <trkpt lat="42.836464997380972" lon="-2.670703008770943">
        <ele>529.79999999999995</ele>
        <time>2019-06-23T06:41:42Z</time>
      </trkpt>
      <trkpt lat="42.836449993774295" lon="-2.670544004067779">
        <ele>530</ele>
        <time>2019-06-23T06:41:44Z</time>
      </trkpt>
      <trkpt lat="42.83643800765276" lon="-2.670467980206013">
        <ele>529.79999999999995</ele>
        <time>2019-06-23T06:41:45Z</time>
      </trkpt>
      <trkpt lat="42.836427027359605" lon="-2.670392040163279">
        <ele>529.79999999999995</ele>
        <time>2019-06-23T06:41:46Z</time>
      </trkpt>
      <trkpt lat="42.836411017924547" lon="-2.670243009924889">
        <ele>530</ele>
        <time>2019-06-23T06:41:48Z</time>
      </trkpt>
      <trkpt lat="42.836402971297503" lon="-2.670093979686499">
        <ele>530</ele>
        <time>2019-06-23T06:41:50Z</time>
      </trkpt>
      <trkpt lat="42.836398025974631" lon="-2.670020973309875">
        <ele>530.20000000000005</ele>
        <time>2019-06-23T06:41:51Z</time>
      </trkpt>
      <trkpt lat="42.836388973519206" lon="-2.669954001903534">
        <ele>530.39999999999998</ele>
        <time>2019-06-23T06:41:52Z</time>
      </trkpt>
      <trkpt lat="42.836371036246419" lon="-2.669821986928582">
        <ele>530.39999999999998</ele>
        <time>2019-06-23T06:41:54Z</time>
      </trkpt>
      <trkpt lat="42.836357960477471" lon="-2.669702963903546">
        <ele>530.79999999999995</ele>
        <time>2019-06-23T06:41:56Z</time>
      </trkpt>
      <trkpt lat="42.836359972134233" lon="-2.669658036902547">
        <ele>530.79999999999995</ele>
        <time>2019-06-23T06:41:57Z</time>
      </trkpt>
      <trkpt lat="42.836360977962613" lon="-2.669618977233768">
        <ele>531</ele>
        <time>2019-06-23T06:41:58Z</time>
      </trkpt>
      <trkpt lat="42.83635200932622" lon="-2.669546976685524">
        <ele>531.20000000000005</ele>
        <time>2019-06-23T06:42:00Z</time>
      </trkpt>
      <trkpt lat="42.836348991841078" lon="-2.669485034421086">
        <ele>531.60000000000002</ele>
        <time>2019-06-23T06:42:02Z</time>
      </trkpt>
      <trkpt lat="42.836338011547923" lon="-2.669470030814409">
        <ele>531.79999999999995</ele>
        <time>2019-06-23T06:42:04Z</time>
      </trkpt>
      <trkpt lat="42.836337005719543" lon="-2.669463995844126">
        <ele>532</ele>
        <time>2019-06-23T06:42:05Z</time>
      </trkpt>
      <trkpt lat="42.836335999891162" lon="-2.66940901055932">
        <ele>532.79999999999995</ele>
        <time>2019-06-23T06:42:40Z</time>
      </trkpt>
      <trkpt lat="42.83633197657764" lon="-2.669343966990709">
        <ele>532.79999999999995</ele>
        <time>2019-06-23T06:42:42Z</time>
      </trkpt>
      <trkpt lat="42.836330970749259" lon="-2.669261991977692">
        <ele>533</ele>
        <time>2019-06-23T06:42:44Z</time>
      </trkpt>
      <trkpt lat="42.836329964920878" lon="-2.66921304166317">
        <ele>532.79999999999995</ele>
        <time>2019-06-23T06:42:45Z</time>
      </trkpt>
      <trkpt lat="42.836327031254768" lon="-2.669154033064842">
        <ele>532.79999999999995</ele>
        <time>2019-06-23T06:42:46Z</time>
      </trkpt>
      <trkpt lat="42.836322002112865" lon="-2.669088989496231">
        <ele>532.79999999999995</ele>
        <time>2019-06-23T06:42:47Z</time>
      </trkpt>
      <trkpt lat="42.836316972970963" lon="-2.669020006433129">
        <ele>532.79999999999995</ele>
        <time>2019-06-23T06:42:48Z</time>
      </trkpt>
      <trkpt lat="42.836303981021047" lon="-2.66887198202312">
        <ele>532.79999999999995</ele>
        <time>2019-06-23T06:42:50Z</time>
      </trkpt>
      <trkpt lat="42.836299035698175" lon="-2.668795036152005">
        <ele>532.79999999999995</ele>
        <time>2019-06-23T06:42:51Z</time>
      </trkpt>
      <trkpt lat="42.836290989071131" lon="-2.668719012290239">
        <ele>532.79999999999995</ele>
        <time>2019-06-23T06:42:52Z</time>
      </trkpt>
      <trkpt lat="42.836283026263118" lon="-2.668642988428474">
        <ele>532.79999999999995</ele>
        <time>2019-06-23T06:42:53Z</time>
      </trkpt>
      <trkpt lat="42.836276991292834" lon="-2.668565958738327">
        <ele>532.79999999999995</ele>
        <time>2019-06-23T06:42:54Z</time>
      </trkpt>
      <trkpt lat="42.836269028484821" lon="-2.668489012867212">
        <ele>532.79999999999995</ele>
        <time>2019-06-23T06:42:55Z</time>
      </trkpt>
      <trkpt lat="42.836262993514538" lon="-2.668410977348685">
        <ele>532.60000000000002</ele>
        <time>2019-06-23T06:42:56Z</time>
      </trkpt>
      <trkpt lat="42.836250001564622" lon="-2.668249038979411">
        <ele>532.79999999999995</ele>
        <time>2019-06-23T06:42:58Z</time>
      </trkpt>
      <trkpt lat="42.836239021271467" lon="-2.668168991804123">
        <ele>532.79999999999995</ele>
        <time>2019-06-23T06:42:59Z</time>
      </trkpt>
      <trkpt lat="42.836228962987661" lon="-2.668090034276247">
        <ele>532.60000000000002</ele>
        <time>2019-06-23T06:43:00Z</time>
      </trkpt>
      <trkpt lat="42.836205996572971" lon="-2.667933041229844">
        <ele>532.79999999999995</ele>
        <time>2019-06-23T06:43:02Z</time>
      </trkpt>
      <trkpt lat="42.836178001016378" lon="-2.66777403652668">
        <ele>533</ele>
        <time>2019-06-23T06:43:04Z</time>
      </trkpt>
      <trkpt lat="42.836165009066463" lon="-2.667697006836534">
        <ele>532.79999999999995</ele>
        <time>2019-06-23T06:43:05Z</time>
      </trkpt>
      <trkpt lat="42.836152017116547" lon="-2.667618971318007">
        <ele>533</ele>
        <time>2019-06-23T06:43:06Z</time>
      </trkpt>
      <trkpt lat="42.836140030995011" lon="-2.667544959113002">
        <ele>533</ele>
        <time>2019-06-23T06:43:07Z</time>
      </trkpt>
      <trkpt lat="42.836126033216715" lon="-2.667472958564758">
        <ele>533</ele>
        <time>2019-06-23T06:43:08Z</time>
      </trkpt>
      <trkpt lat="42.836103988811374" lon="-2.667317977175117">
        <ele>533.20000000000005</ele>
        <time>2019-06-23T06:43:10Z</time>
      </trkpt>
      <trkpt lat="42.83609502017498" lon="-2.667240025475621">
        <ele>533.39999999999998</ele>
        <time>2019-06-23T06:43:11Z</time>
      </trkpt>
      <trkpt lat="42.836084039881825" lon="-2.667161989957094">
        <ele>533.39999999999998</ele>
        <time>2019-06-23T06:43:12Z</time>
      </trkpt>
      <trkpt lat="42.836066018790007" lon="-2.667012959718704">
        <ele>533.60000000000002</ele>
        <time>2019-06-23T06:43:14Z</time>
      </trkpt>
      <trkpt lat="42.836076999083161" lon="-2.666939031332731">
        <ele>534</ele>
        <time>2019-06-23T06:43:15Z</time>
      </trkpt>
      <trkpt lat="42.836066018790007" lon="-2.666866024956107">
        <ele>534</ele>
        <time>2019-06-23T06:43:16Z</time>
      </trkpt>
      <trkpt lat="42.836044980213046" lon="-2.666723029688001">
        <ele>534.20000000000005</ele>
        <time>2019-06-23T06:43:18Z</time>
      </trkpt>
      <trkpt lat="42.836026959121227" lon="-2.666581962257624">
        <ele>534.39999999999998</ele>
        <time>2019-06-23T06:43:20Z</time>
      </trkpt>
      <trkpt lat="42.836010027676821" lon="-2.666434021666646">
        <ele>534.60000000000002</ele>
        <time>2019-06-23T06:43:22Z</time>
      </trkpt>
      <trkpt lat="42.835996029898524" lon="-2.666282979771495">
        <ele>535</ele>
        <time>2019-06-23T06:43:24Z</time>
      </trkpt>
      <trkpt lat="42.835960993543267" lon="-2.666134033352137">
        <ele>535</ele>
        <time>2019-06-23T06:43:26Z</time>
      </trkpt>
      <trkpt lat="42.835935009643435" lon="-2.665980979800224">
        <ele>535.20000000000005</ele>
        <time>2019-06-23T06:43:28Z</time>
      </trkpt>
      <trkpt lat="42.835924029350281" lon="-2.665903028100729">
        <ele>535.20000000000005</ele>
        <time>2019-06-23T06:43:29Z</time>
      </trkpt>
      <trkpt lat="42.835912965238094" lon="-2.665822980925441">
        <ele>535.39999999999998</ele>
        <time>2019-06-23T06:43:30Z</time>
      </trkpt>
      <trkpt lat="42.835893016308546" lon="-2.665664982050657">
        <ele>535.60000000000002</ele>
        <time>2019-06-23T06:43:32Z</time>
      </trkpt>
      <trkpt lat="42.835872983559966" lon="-2.665512012317777">
        <ele>535.60000000000002</ele>
        <time>2019-06-23T06:43:34Z</time>
      </trkpt>
      <trkpt lat="42.835857979953289" lon="-2.665435988456011">
        <ele>535.60000000000002</ele>
        <time>2019-06-23T06:43:35Z</time>
      </trkpt>
      <trkpt lat="42.835849011316895" lon="-2.665359964594245">
        <ele>535.60000000000002</ele>
        <time>2019-06-23T06:43:36Z</time>
      </trkpt>
      <trkpt lat="42.835831996053457" lon="-2.665200959891081">
        <ele>535.79999999999995</ele>
        <time>2019-06-23T06:43:38Z</time>
      </trkpt>
      <trkpt lat="42.835811041295528" lon="-2.665040027350187">
        <ele>536.20000000000005</ele>
        <time>2019-06-23T06:43:40Z</time>
      </trkpt>
      <trkpt lat="42.835796037688851" lon="-2.664882028475404">
        <ele>536.20000000000005</ele>
        <time>2019-06-23T06:43:42Z</time>
      </trkpt>
      <trkpt lat="42.835774999111891" lon="-2.664726041257381">
        <ele>536.39999999999998</ele>
        <time>2019-06-23T06:43:44Z</time>
      </trkpt>
      <trkpt lat="42.83575396053493" lon="-2.664572987705469">
        <ele>536.60000000000002</ele>
        <time>2019-06-23T06:43:46Z</time>
      </trkpt>
      <trkpt lat="42.835735017433763" lon="-2.664434015750885">
        <ele>536.79999999999995</ele>
        <time>2019-06-23T06:43:48Z</time>
      </trkpt>
      <trkpt lat="42.835716996341944" lon="-2.664314992725849">
        <ele>536.79999999999995</ele>
        <time>2019-06-23T06:43:50Z</time>
      </trkpt>
      <trkpt lat="42.83571096137166" lon="-2.664269981905818">
        <ele>536.79999999999995</ele>
        <time>2019-06-23T06:43:51Z</time>
      </trkpt>
      <trkpt lat="42.835702998563647" lon="-2.664239974692464">
        <ele>537</ele>
        <time>2019-06-23T06:43:52Z</time>
      </trkpt>
      <trkpt lat="42.835694029927254" lon="-2.66420803964138">
        <ele>536.79999999999995</ele>
        <time>2019-06-23T06:43:54Z</time>
      </trkpt>
      <trkpt lat="42.835692018270493" lon="-2.664202004671097">
        <ele>537</ele>
        <time>2019-06-23T06:43:55Z</time>
      </trkpt>
      <trkpt lat="42.835694029927254" lon="-2.664197981357575">
        <ele>537</ele>
        <time>2019-06-23T06:43:56Z</time>
      </trkpt>
      <trkpt lat="42.835695035755634" lon="-2.664194963872433">
        <ele>537.20000000000005</ele>
        <time>2019-06-23T06:43:57Z</time>
      </trkpt>
      <trkpt lat="42.835676008835435" lon="-2.664159005507827">
        <ele>538</ele>
        <time>2019-06-23T06:44:31Z</time>
      </trkpt>
      <trkpt lat="42.835653964430094" lon="-2.664137966930866">
        <ele>538.20000000000005</ele>
        <time>2019-06-23T06:44:32Z</time>
      </trkpt>
      <trkpt lat="42.835633009672165" lon="-2.664105026051402">
        <ele>538.20000000000005</ele>
        <time>2019-06-23T06:44:33Z</time>
      </trkpt>
      <trkpt lat="42.835615994408727" lon="-2.66405800357461">
        <ele>538.20000000000005</ele>
        <time>2019-06-23T06:44:34Z</time>
      </trkpt>
      <trkpt lat="42.83560199663043" lon="-2.664004024118185">
        <ele>538.20000000000005</ele>
        <time>2019-06-23T06:44:35Z</time>
      </trkpt>
      <trkpt lat="42.835590010508895" lon="-2.663939986377955">
        <ele>538.20000000000005</ele>
        <time>2019-06-23T06:44:36Z</time>
      </trkpt>
      <trkpt lat="42.835572995245457" lon="-2.663796991109848">
        <ele>538</ele>
        <time>2019-06-23T06:44:38Z</time>
      </trkpt>
      <trkpt lat="42.835563020780683" lon="-2.663637986406684">
        <ele>538</ele>
        <time>2019-06-23T06:44:40Z</time>
      </trkpt>
      <trkpt lat="42.835556985810399" lon="-2.663556011393666">
        <ele>538</ele>
        <time>2019-06-23T06:44:41Z</time>
      </trkpt>
      <trkpt lat="42.835548017174006" lon="-2.663475964218378">
        <ele>538</ele>
        <time>2019-06-23T06:44:42Z</time>
      </trkpt>
      <trkpt lat="42.835532007738948" lon="-2.663311008363962">
        <ele>537.79999999999995</ele>
        <time>2019-06-23T06:44:44Z</time>
      </trkpt>
      <trkpt lat="42.835523961111903" lon="-2.663229033350945">
        <ele>537.79999999999995</ele>
        <time>2019-06-23T06:44:45Z</time>
      </trkpt>
      <trkpt lat="42.835522033274174" lon="-2.663144040852785">
        <ele>537.60000000000002</ele>
        <time>2019-06-23T06:44:46Z</time>
      </trkpt>
      <trkpt lat="42.835518009960651" lon="-2.663057036697865">
        <ele>537.60000000000002</ele>
        <time>2019-06-23T06:44:47Z</time>
      </trkpt>
      <trkpt lat="42.835508035495877" lon="-2.662971960380673">
        <ele>537.60000000000002</ele>
        <time>2019-06-23T06:44:48Z</time>
      </trkpt>
      <trkpt lat="42.83549495972693" lon="-2.662799041718245">
        <ele>537.39999999999998</ele>
        <time>2019-06-23T06:44:50Z</time>
      </trkpt>
      <trkpt lat="42.835490014404058" lon="-2.662617992609739">
        <ele>537.60000000000002</ele>
        <time>2019-06-23T06:44:52Z</time>
      </trkpt>
      <trkpt lat="42.835483979433775" lon="-2.662529982626438">
        <ele>537.39999999999998</ele>
        <time>2019-06-23T06:44:53Z</time>
      </trkpt>
      <trkpt lat="42.835476016625762" lon="-2.662440966814756">
        <ele>537.39999999999998</ele>
        <time>2019-06-23T06:44:54Z</time>
      </trkpt>
      <trkpt lat="42.835462018847466" lon="-2.662262013182044">
        <ele>537.60000000000002</ele>
        <time>2019-06-23T06:44:56Z</time>
      </trkpt>
      <trkpt lat="42.83544902689755" lon="-2.662081969901919">
        <ele>537.39999999999998</ele>
        <time>2019-06-23T06:44:58Z</time>
      </trkpt>
      <trkpt lat="42.835436034947634" lon="-2.661901004612446">
        <ele>537.39999999999998</ele>
        <time>2019-06-23T06:45:00Z</time>
      </trkpt>
      <trkpt lat="42.835422959178686" lon="-2.661718027666211">
        <ele>537.39999999999998</ele>
        <time>2019-06-23T06:45:02Z</time>
      </trkpt>
      <trkpt lat="42.835404016077518" lon="-2.661529015749693">
        <ele>537.39999999999998</ele>
        <time>2019-06-23T06:45:04Z</time>
      </trkpt>
      <trkpt lat="42.835391024127603" lon="-2.661336986348033">
        <ele>537.39999999999998</ele>
        <time>2019-06-23T06:45:06Z</time>
      </trkpt>
      <trkpt lat="42.835382977500558" lon="-2.661237996071577">
        <ele>537</ele>
        <time>2019-06-23T06:45:07Z</time>
      </trkpt>
      <trkpt lat="42.835374008864164" lon="-2.661140011623502">
        <ele>537</ele>
        <time>2019-06-23T06:45:08Z</time>
      </trkpt>
      <trkpt lat="42.835367973893881" lon="-2.660969020798802">
        <ele>537</ele>
        <time>2019-06-23T06:45:10Z</time>
      </trkpt>
      <trkpt lat="42.835355987772346" lon="-2.66085603274405">
        <ele>537</ele>
        <time>2019-06-23T06:45:12Z</time>
      </trkpt>
      <trkpt lat="42.835333021357656" lon="-2.660797024145722">
        <ele>536.20000000000005</ele>
        <time>2019-06-23T06:45:14Z</time>
      </trkpt>
      <trkpt lat="42.835311982780695" lon="-2.660745978355408">
        <ele>536</ele>
        <time>2019-06-23T06:45:16Z</time>
      </trkpt>
      <trkpt lat="42.835288010537624" lon="-2.660655034705997">
        <ele>536</ele>
        <time>2019-06-23T06:45:18Z</time>
      </trkpt>
      <trkpt lat="42.835281975567341" lon="-2.660595020279288">
        <ele>536</ele>
        <time>2019-06-23T06:45:19Z</time>
      </trkpt>
      <trkpt lat="42.835290022194386" lon="-2.660536011680961">
        <ele>536</ele>
        <time>2019-06-23T06:45:20Z</time>
      </trkpt>
      <trkpt lat="42.83534299582243" lon="-2.660415982827544">
        <ele>536</ele>
        <time>2019-06-23T06:45:22Z</time>
      </trkpt>
      <trkpt lat="42.835383983328938" lon="-2.660359991714358">
        <ele>536</ele>
        <time>2019-06-23T06:45:23Z</time>
      </trkpt>
      <trkpt lat="42.835426982492208" lon="-2.660306012257934">
        <ele>536</ele>
        <time>2019-06-23T06:45:24Z</time>
      </trkpt>
      <trkpt lat="42.835467969998717" lon="-2.660247003659606">
        <ele>536</ele>
        <time>2019-06-23T06:45:25Z</time>
      </trkpt>
      <trkpt lat="42.8354930318892" lon="-2.660176008939743">
        <ele>536</ele>
        <time>2019-06-23T06:45:26Z</time>
      </trkpt>
      <trkpt lat="42.835497977212071" lon="-2.660097973421216">
        <ele>536</ele>
        <time>2019-06-23T06:45:27Z</time>
      </trkpt>
      <trkpt lat="42.835490014404058" lon="-2.660021027550101">
        <ele>536</ele>
        <time>2019-06-23T06:45:28Z</time>
      </trkpt>
      <trkpt lat="42.835469981655478" lon="-2.659946009516716">
        <ele>536</ele>
        <time>2019-06-23T06:45:29Z</time>
      </trkpt>
      <trkpt lat="42.835437040776014" lon="-2.659878032281995">
        <ele>536</ele>
        <time>2019-06-23T06:45:30Z</time>
      </trkpt>
      <trkpt lat="42.835394041612744" lon="-2.659819023683667">
        <ele>536</ele>
        <time>2019-06-23T06:45:31Z</time>
      </trkpt>
      <trkpt lat="42.83534299582243" lon="-2.659768983721733">
        <ele>536</ele>
        <time>2019-06-23T06:45:32Z</time>
      </trkpt>
      <trkpt lat="42.835240988060832" lon="-2.6596740167588">
        <ele>536</ele>
        <time>2019-06-23T06:45:34Z</time>
      </trkpt>
      <trkpt lat="42.835144009441137" lon="-2.659564968198538">
        <ele>535.79999999999995</ele>
        <time>2019-06-23T06:45:36Z</time>
      </trkpt>
      <trkpt lat="42.835044013336301" lon="-2.659448040649295">
        <ele>535.79999999999995</ele>
        <time>2019-06-23T06:45:38Z</time>
      </trkpt>
      <trkpt lat="42.834948040544987" lon="-2.65933002345264">
        <ele>536</ele>
        <time>2019-06-23T06:45:40Z</time>
      </trkpt>
      <trkpt lat="42.834902023896575" lon="-2.659270009025931">
        <ele>536</ele>
        <time>2019-06-23T06:45:41Z</time>
      </trkpt>
      <trkpt lat="42.834853995591402" lon="-2.659212006255984">
        <ele>536</ele>
        <time>2019-06-23T06:45:42Z</time>
      </trkpt>
      <trkpt lat="42.83480797894299" lon="-2.659152997657657">
        <ele>536</ele>
        <time>2019-06-23T06:45:43Z</time>
      </trkpt>
      <trkpt lat="42.834761962294579" lon="-2.65909499488771">
        <ele>536</ele>
        <time>2019-06-23T06:45:44Z</time>
      </trkpt>
      <trkpt lat="42.834670012816787" lon="-2.658978989347816">
        <ele>536</ele>
        <time>2019-06-23T06:45:46Z</time>
      </trkpt>
      <trkpt lat="42.834574962034822" lon="-2.658862983807921">
        <ele>536.20000000000005</ele>
        <time>2019-06-23T06:45:48Z</time>
      </trkpt>
      <trkpt lat="42.834473038092256" lon="-2.658748989924789">
        <ele>536.39999999999998</ele>
        <time>2019-06-23T06:45:50Z</time>
      </trkpt>
      <trkpt lat="42.834371030330658" lon="-2.658632984384894">
        <ele>536.79999999999995</ele>
        <time>2019-06-23T06:45:52Z</time>
      </trkpt>
      <trkpt lat="42.834272040054202" lon="-2.658518990501761">
        <ele>537</ele>
        <time>2019-06-23T06:45:54Z</time>
      </trkpt>
      <trkpt lat="42.834174977615476" lon="-2.658404996618629">
        <ele>537.39999999999998</ele>
        <time>2019-06-23T06:45:56Z</time>
      </trkpt>
      <trkpt lat="42.834128038957715" lon="-2.658346993848681">
        <ele>537.39999999999998</ele>
        <time>2019-06-23T06:45:57Z</time>
      </trkpt>
      <trkpt lat="42.834080010652542" lon="-2.658287985250354">
        <ele>537.39999999999998</ele>
        <time>2019-06-23T06:45:58Z</time>
      </trkpt>
      <trkpt lat="42.833984037861228" lon="-2.658168962225318">
        <ele>537.39999999999998</ele>
        <time>2019-06-23T06:46:00Z</time>
      </trkpt>
      <trkpt lat="42.833886975422502" lon="-2.658050023019314">
        <ele>537.60000000000002</ele>
        <time>2019-06-23T06:46:02Z</time>
      </trkpt>
      <trkpt lat="42.833791002631187" lon="-2.657927982509136">
        <ele>537.60000000000002</ele>
        <time>2019-06-23T06:46:04Z</time>
      </trkpt>
      <trkpt lat="42.833696035668254" lon="-2.65780602581799">
        <ele>537.79999999999995</ele>
        <time>2019-06-23T06:46:06Z</time>
      </trkpt>
      <trkpt lat="42.833599979057908" lon="-2.657685996964574">
        <ele>537.79999999999995</ele>
        <time>2019-06-23T06:46:08Z</time>
      </trkpt>
      <trkpt lat="42.833506017923355" lon="-2.657565968111157">
        <ele>538</ele>
        <time>2019-06-23T06:46:10Z</time>
      </trkpt>
      <trkpt lat="42.833413984626532" lon="-2.657448034733534">
        <ele>538</ele>
        <time>2019-06-23T06:46:12Z</time>
      </trkpt>
      <trkpt lat="42.833320023491979" lon="-2.657329011708498">
        <ele>538</ele>
        <time>2019-06-23T06:46:14Z</time>
      </trkpt>
      <trkpt lat="42.833226984366775" lon="-2.657209988683462">
        <ele>538.20000000000005</ele>
        <time>2019-06-23T06:46:16Z</time>
      </trkpt>
      <trkpt lat="42.833133023232222" lon="-2.657090965658426">
        <ele>538.20000000000005</ele>
        <time>2019-06-23T06:46:18Z</time>
      </trkpt>
      <trkpt lat="42.833039984107018" lon="-2.656971020624042">
        <ele>538.39999999999998</ele>
        <time>2019-06-23T06:46:20Z</time>
      </trkpt>
      <trkpt lat="42.832992961630225" lon="-2.656910000368953">
        <ele>538.60000000000002</ele>
        <time>2019-06-23T06:46:21Z</time>
      </trkpt>
      <trkpt lat="42.832946022972465" lon="-2.656849985942245">
        <ele>538.60000000000002</ele>
        <time>2019-06-23T06:46:22Z</time>
      </trkpt>
      <trkpt lat="42.832848960533738" lon="-2.65673398040235">
        <ele>538.79999999999995</ele>
        <time>2019-06-23T06:46:24Z</time>
      </trkpt>
      <trkpt lat="42.832750976085663" lon="-2.656618980690837">
        <ele>538.79999999999995</ele>
        <time>2019-06-23T06:46:26Z</time>
      </trkpt>
      <trkpt lat="42.832652991637588" lon="-2.656504986807704">
        <ele>539</ele>
        <time>2019-06-23T06:46:28Z</time>
      </trkpt>
      <trkpt lat="42.832556013017893" lon="-2.65638898126781">
        <ele>539</ele>
        <time>2019-06-23T06:46:30Z</time>
      </trkpt>
      <trkpt lat="42.832458028569818" lon="-2.656273981556296">
        <ele>539</ele>
        <time>2019-06-23T06:46:32Z</time>
      </trkpt>
      <trkpt lat="42.832408994436264" lon="-2.65621698461473">
        <ele>539.20000000000005</ele>
        <time>2019-06-23T06:46:33Z</time>
      </trkpt>
      <trkpt lat="42.832359038293362" lon="-2.656159987673163">
        <ele>539.20000000000005</ele>
        <time>2019-06-23T06:46:34Z</time>
      </trkpt>
      <trkpt lat="42.832258958369493" lon="-2.65604498796165">
        <ele>539.39999999999998</ele>
        <time>2019-06-23T06:46:36Z</time>
      </trkpt>
      <trkpt lat="42.832158040255308" lon="-2.655929988250136">
        <ele>539.60000000000002</ele>
        <time>2019-06-23T06:46:38Z</time>
      </trkpt>
      <trkpt lat="42.832058966159821" lon="-2.655810965225101">
        <ele>539.60000000000002</ele>
        <time>2019-06-23T06:46:40Z</time>
      </trkpt>
      <trkpt lat="42.831962993368506" lon="-2.655685991048813">
        <ele>539.60000000000002</ele>
        <time>2019-06-23T06:46:42Z</time>
      </trkpt>
      <trkpt lat="42.831869032233953" lon="-2.655559005215764">
        <ele>539.60000000000002</ele>
        <time>2019-06-23T06:46:44Z</time>
      </trkpt>
      <trkpt lat="42.831821003928781" lon="-2.655498990789056">
        <ele>539.79999999999995</ele>
        <time>2019-06-23T06:46:45Z</time>
      </trkpt>
      <trkpt lat="42.831771969795227" lon="-2.655437970533967">
        <ele>539.79999999999995</ele>
        <time>2019-06-23T06:46:46Z</time>
      </trkpt>
      <trkpt lat="42.831724025309086" lon="-2.655376028269529">
        <ele>539.79999999999995</ele>
        <time>2019-06-23T06:46:47Z</time>
      </trkpt>
      <trkpt lat="42.831677002832294" lon="-2.655315008014441">
        <ele>539.60000000000002</ele>
        <time>2019-06-23T06:46:48Z</time>
      </trkpt>
      <trkpt lat="42.831628974527121" lon="-2.655253987759352">
        <ele>539.79999999999995</ele>
        <time>2019-06-23T06:46:49Z</time>
      </trkpt>
      <trkpt lat="42.831580024212599" lon="-2.655192967504263">
        <ele>539.79999999999995</ele>
        <time>2019-06-23T06:46:50Z</time>
      </trkpt>
      <trkpt lat="42.831483967602253" lon="-2.655071010813117">
        <ele>539.79999999999995</ele>
        <time>2019-06-23T06:46:52Z</time>
      </trkpt>
      <trkpt lat="42.831389000639319" lon="-2.65494997613132">
        <ele>539.79999999999995</ele>
        <time>2019-06-23T06:46:54Z</time>
      </trkpt>
      <trkpt lat="42.831341978162527" lon="-2.654889039695263">
        <ele>539.79999999999995</ele>
        <time>2019-06-23T06:46:55Z</time>
      </trkpt>
      <trkpt lat="42.831295039504766" lon="-2.654828019440174">
        <ele>539.79999999999995</ele>
        <time>2019-06-23T06:46:56Z</time>
      </trkpt>
      <trkpt lat="42.831202000379562" lon="-2.654707990586758">
        <ele>540</ele>
        <time>2019-06-23T06:46:58Z</time>
      </trkpt>
      <trkpt lat="42.831110972911119" lon="-2.654587961733341">
        <ele>540</ele>
        <time>2019-06-23T06:47:00Z</time>
      </trkpt>
      <trkpt lat="42.831021035090089" lon="-2.654469022527337">
        <ele>540.20000000000005</ele>
        <time>2019-06-23T06:47:02Z</time>
      </trkpt>
      <trkpt lat="42.830932019278407" lon="-2.654349999502301">
        <ele>540.20000000000005</ele>
        <time>2019-06-23T06:47:04Z</time>
      </trkpt>
      <trkpt lat="42.830887008458376" lon="-2.654291996732354">
        <ele>540.20000000000005</ele>
        <time>2019-06-23T06:47:05Z</time>
      </trkpt>
      <trkpt lat="42.830840991809964" lon="-2.654233993962407">
        <ele>540.39999999999998</ele>
        <time>2019-06-23T06:47:06Z</time>
      </trkpt>
      <trkpt lat="42.830749964341521" lon="-2.654115976765752">
        <ele>540.39999999999998</ele>
        <time>2019-06-23T06:47:08Z</time>
      </trkpt>
      <trkpt lat="42.830661032348871" lon="-2.654000977054238">
        <ele>540.39999999999998</ele>
        <time>2019-06-23T06:47:10Z</time>
      </trkpt>
      <trkpt lat="42.830563969910145" lon="-2.65389502979815">
        <ele>540.39999999999998</ele>
        <time>2019-06-23T06:47:12Z</time>
      </trkpt>
      <trkpt lat="42.830461962148547" lon="-2.653797967359424">
        <ele>540.60000000000002</ele>
        <time>2019-06-23T06:47:14Z</time>
      </trkpt>
      <trkpt lat="42.830411000177264" lon="-2.653751028701663">
        <ele>540.60000000000002</ele>
        <time>2019-06-23T06:47:15Z</time>
      </trkpt>
      <trkpt lat="42.83035802654922" lon="-2.653705012053251">
        <ele>540.60000000000002</ele>
        <time>2019-06-23T06:47:16Z</time>
      </trkpt>
      <trkpt lat="42.830248977988958" lon="-2.653621025383472">
        <ele>540.60000000000002</ele>
        <time>2019-06-23T06:47:18Z</time>
      </trkpt>
      <trkpt lat="42.830139007419348" lon="-2.653540978208184">
        <ele>540.79999999999995</ele>
        <time>2019-06-23T06:47:20Z</time>
      </trkpt>
      <trkpt lat="42.830028031021357" lon="-2.653468977659941">
        <ele>540.79999999999995</ele>
        <time>2019-06-23T06:47:22Z</time>
      </trkpt>
      <trkpt lat="42.829916970804334" lon="-2.653397982940078">
        <ele>541</ele>
        <time>2019-06-23T06:47:24Z</time>
      </trkpt>
      <trkpt lat="42.829807000234723" lon="-2.653326988220215">
        <ele>541.20000000000005</ele>
        <time>2019-06-23T06:47:26Z</time>
      </trkpt>
      <trkpt lat="42.829698035493493" lon="-2.65325297601521">
        <ele>541</ele>
        <time>2019-06-23T06:47:28Z</time>
      </trkpt>
      <trkpt lat="42.829590998589993" lon="-2.65316597186029">
        <ele>541.20000000000005</ele>
        <time>2019-06-23T06:47:30Z</time>
      </trkpt>
      <trkpt lat="42.829483039677143" lon="-2.653072010725737">
        <ele>541.20000000000005</ele>
        <time>2019-06-23T06:47:32Z</time>
      </trkpt>
      <trkpt lat="42.829378014430404" lon="-2.652976037934423">
        <ele>541.20000000000005</ele>
        <time>2019-06-23T06:47:34Z</time>
      </trkpt>
      <trkpt lat="42.829273995012045" lon="-2.652875036001205">
        <ele>541.20000000000005</ele>
        <time>2019-06-23T06:47:36Z</time>
      </trkpt>
      <trkpt lat="42.82917601056397" lon="-2.652767999097705">
        <ele>541.20000000000005</ele>
        <time>2019-06-23T06:47:38Z</time>
      </trkpt>
      <trkpt lat="42.829083977267146" lon="-2.652648976072669">
        <ele>541.20000000000005</ele>
        <time>2019-06-23T06:47:40Z</time>
      </trkpt>
      <trkpt lat="42.829042989760637" lon="-2.65258401632309">
        <ele>541.20000000000005</ele>
        <time>2019-06-23T06:47:41Z</time>
      </trkpt>
      <trkpt lat="42.82900401391089" lon="-2.652516039088368">
        <ele>541.20000000000005</ele>
        <time>2019-06-23T06:47:42Z</time>
      </trkpt>
      <trkpt lat="42.828968977555633" lon="-2.652442026883364">
        <ele>541.39999999999998</ele>
        <time>2019-06-23T06:47:43Z</time>
      </trkpt>
      <trkpt lat="42.828939976170659" lon="-2.652362985536456">
        <ele>541.39999999999998</ele>
        <time>2019-06-23T06:47:44Z</time>
      </trkpt>
      <trkpt lat="42.828887002542615" lon="-2.65220096334815">
        <ele>541.60000000000002</ele>
        <time>2019-06-23T06:47:46Z</time>
      </trkpt>
      <trkpt lat="42.828844003379345" lon="-2.652032990008593">
        <ele>541.79999999999995</ele>
        <time>2019-06-23T06:47:48Z</time>
      </trkpt>
      <trkpt lat="42.828806033357978" lon="-2.651864010840654">
        <ele>541.60000000000002</ele>
        <time>2019-06-23T06:47:50Z</time>
      </trkpt>
      <trkpt lat="42.82876898534596" lon="-2.651696037501097">
        <ele>541.79999999999995</ele>
        <time>2019-06-23T06:47:52Z</time>
      </trkpt>
      <trkpt lat="42.828733026981354" lon="-2.651527980342507">
        <ele>541.79999999999995</ele>
        <time>2019-06-23T06:47:54Z</time>
      </trkpt>
      <trkpt lat="42.828703019768" lon="-2.651357995346189">
        <ele>541.79999999999995</ele>
        <time>2019-06-23T06:47:56Z</time>
      </trkpt>
      <trkpt lat="42.828673012554646" lon="-2.651187004521489">
        <ele>541.79999999999995</ele>
        <time>2019-06-23T06:47:58Z</time>
      </trkpt>
      <trkpt lat="42.828644011169672" lon="-2.65101601369679">
        <ele>542</ele>
        <time>2019-06-23T06:48:00Z</time>
      </trkpt>
      <trkpt lat="42.828619033098221" lon="-2.650842005386949">
        <ele>541.79999999999995</ele>
        <time>2019-06-23T06:48:02Z</time>
      </trkpt>
      <trkpt lat="42.828601012006402" lon="-2.650663973763585">
        <ele>541.79999999999995</ele>
        <time>2019-06-23T06:48:04Z</time>
      </trkpt>
      <trkpt lat="42.828586008399725" lon="-2.65048099681735">
        <ele>542</ele>
        <time>2019-06-23T06:48:06Z</time>
      </trkpt>
      <trkpt lat="42.828569998964667" lon="-2.650296008214355">
        <ele>542</ele>
        <time>2019-06-23T06:48:08Z</time>
      </trkpt>
      <trkpt lat="42.828557007014751" lon="-2.650104984641075">
        <ele>541.79999999999995</ele>
        <time>2019-06-23T06:48:10Z</time>
      </trkpt>
      <trkpt lat="42.828549966216087" lon="-2.650009011849761">
        <ele>541.60000000000002</ele>
        <time>2019-06-23T06:48:11Z</time>
      </trkpt>
      <trkpt lat="42.828542003408074" lon="-2.649911027401686">
        <ele>541.60000000000002</ele>
        <time>2019-06-23T06:48:12Z</time>
      </trkpt>
      <trkpt lat="42.828534040600061" lon="-2.64981203712523">
        <ele>541.60000000000002</ele>
        <time>2019-06-23T06:48:13Z</time>
      </trkpt>
      <trkpt lat="42.828525993973017" lon="-2.649712041020393">
        <ele>541.60000000000002</ele>
        <time>2019-06-23T06:48:14Z</time>
      </trkpt>
      <trkpt lat="42.828509984537959" lon="-2.649508025497198">
        <ele>541.20000000000005</ele>
        <time>2019-06-23T06:48:16Z</time>
      </trkpt>
      <trkpt lat="42.828495986759663" lon="-2.649299986660481">
        <ele>541</ele>
        <time>2019-06-23T06:48:18Z</time>
      </trkpt>
      <trkpt lat="42.828480983152986" lon="-2.649090019986033">
        <ele>540.39999999999998</ele>
        <time>2019-06-23T06:48:20Z</time>
      </trkpt>
      <trkpt lat="42.828464973717928" lon="-2.648878041654825">
        <ele>540.20000000000005</ele>
        <time>2019-06-23T06:48:22Z</time>
      </trkpt>
      <trkpt lat="42.82844896428287" lon="-2.648662962019444">
        <ele>540</ele>
        <time>2019-06-23T06:48:24Z</time>
      </trkpt>
      <trkpt lat="42.828433038666844" lon="-2.648445032536984">
        <ele>539.60000000000002</ele>
        <time>2019-06-23T06:48:26Z</time>
      </trkpt>
      <trkpt lat="42.828419040888548" lon="-2.648225007578731">
        <ele>538.79999999999995</ele>
        <time>2019-06-23T06:48:28Z</time>
      </trkpt>
      <trkpt lat="42.82840202562511" lon="-2.648003976792097">
        <ele>538.60000000000002</ele>
        <time>2019-06-23T06:48:30Z</time>
      </trkpt>
      <trkpt lat="42.828386016190052" lon="-2.647780012339354">
        <ele>538.39999999999998</ele>
        <time>2019-06-23T06:48:32Z</time>
      </trkpt>
      <trkpt lat="42.828370006754994" lon="-2.647556969895959">
        <ele>538.20000000000005</ele>
        <time>2019-06-23T06:48:34Z</time>
      </trkpt>
      <trkpt lat="42.828353997319937" lon="-2.647336022928357">
        <ele>537.79999999999995</ele>
        <time>2019-06-23T06:48:36Z</time>
      </trkpt>
      <trkpt lat="42.828336982056499" lon="-2.647117003798485">
        <ele>537.60000000000002</ele>
        <time>2019-06-23T06:48:38Z</time>
      </trkpt>
      <trkpt lat="42.82831703312695" lon="-2.646902007982135">
        <ele>537</ele>
        <time>2019-06-23T06:48:40Z</time>
      </trkpt>
      <trkpt lat="42.828294988721609" lon="-2.646692041307688">
        <ele>537</ele>
        <time>2019-06-23T06:48:42Z</time>
      </trkpt>
      <trkpt lat="42.828271016478539" lon="-2.646485008299351">
        <ele>536.79999999999995</ele>
        <time>2019-06-23T06:48:44Z</time>
      </trkpt>
      <trkpt lat="42.828246038407087" lon="-2.646284010261297">
        <ele>536.60000000000002</ele>
        <time>2019-06-23T06:48:46Z</time>
      </trkpt>
      <trkpt lat="42.828220976516604" lon="-2.646089969202876">
        <ele>536.60000000000002</ele>
        <time>2019-06-23T06:48:48Z</time>
      </trkpt>
      <trkpt lat="42.828193986788392" lon="-2.64590498059988">
        <ele>537</ele>
        <time>2019-06-23T06:48:50Z</time>
      </trkpt>
      <trkpt lat="42.828165991231799" lon="-2.645728960633278">
        <ele>537</ele>
        <time>2019-06-23T06:48:52Z</time>
      </trkpt>
      <trkpt lat="42.828152999281883" lon="-2.645642962306738">
        <ele>537</ele>
        <time>2019-06-23T06:48:53Z</time>
      </trkpt>
      <trkpt lat="42.828139001503587" lon="-2.645557969808579">
        <ele>537</ele>
        <time>2019-06-23T06:48:54Z</time>
      </trkpt>
      <trkpt lat="42.828108994290233" lon="-2.645393013954163">
        <ele>537.20000000000005</ele>
        <time>2019-06-23T06:48:56Z</time>
      </trkpt>
      <trkpt lat="42.828093990683556" lon="-2.645312966778874">
        <ele>537.39999999999998</ele>
        <time>2019-06-23T06:48:57Z</time>
      </trkpt>
      <trkpt lat="42.828078987076879" lon="-2.645234009250999">
        <ele>537.39999999999998</ele>
        <time>2019-06-23T06:48:58Z</time>
      </trkpt>
      <trkpt lat="42.828046968206763" lon="-2.645080033689737">
        <ele>538.39999999999998</ele>
        <time>2019-06-23T06:49:00Z</time>
      </trkpt>
      <trkpt lat="42.828031964600086" lon="-2.64500199817121">
        <ele>539</ele>
        <time>2019-06-23T06:49:01Z</time>
      </trkpt>
      <trkpt lat="42.828016960993409" lon="-2.644925974309444">
        <ele>539.20000000000005</ele>
        <time>2019-06-23T06:49:02Z</time>
      </trkpt>
      <trkpt lat="42.827986031770706" lon="-2.644773004576564">
        <ele>539.60000000000002</ele>
        <time>2019-06-23T06:49:04Z</time>
      </trkpt>
      <trkpt lat="42.827971028164029" lon="-2.644696980714798">
        <ele>539.79999999999995</ele>
        <time>2019-06-23T06:49:05Z</time>
      </trkpt>
      <trkpt lat="42.827956024557352" lon="-2.644622968509793">
        <ele>540</ele>
        <time>2019-06-23T06:49:06Z</time>
      </trkpt>
      <trkpt lat="42.827926017343998" lon="-2.644473016262054">
        <ele>540.20000000000005</ele>
        <time>2019-06-23T06:49:08Z</time>
      </trkpt>
      <trkpt lat="42.827911013737321" lon="-2.644397998228669">
        <ele>540.39999999999998</ele>
        <time>2019-06-23T06:49:09Z</time>
      </trkpt>
      <trkpt lat="42.827896010130644" lon="-2.644322980195284">
        <ele>540.60000000000002</ele>
        <time>2019-06-23T06:49:10Z</time>
      </trkpt>
      <trkpt lat="42.827869020402431" lon="-2.644171016290784">
        <ele>541.20000000000005</ele>
        <time>2019-06-23T06:49:12Z</time>
      </trkpt>
      <trkpt lat="42.827840019017458" lon="-2.644020980224013">
        <ele>541.60000000000002</ele>
        <time>2019-06-23T06:49:14Z</time>
      </trkpt>
      <trkpt lat="42.827826021239161" lon="-2.643945040181279">
        <ele>542</ele>
        <time>2019-06-23T06:49:15Z</time>
      </trkpt>
      <trkpt lat="42.827812023460865" lon="-2.643869016319513">
        <ele>542.20000000000005</ele>
        <time>2019-06-23T06:49:16Z</time>
      </trkpt>
      <trkpt lat="42.827785033732653" lon="-2.643713029101491">
        <ele>543</ele>
        <time>2019-06-23T06:49:18Z</time>
      </trkpt>
      <trkpt lat="42.827757960185409" lon="-2.643557963892818">
        <ele>543.20000000000005</ele>
        <time>2019-06-23T06:49:20Z</time>
      </trkpt>
      <trkpt lat="42.827733987942338" lon="-2.643399965018034">
        <ele>543.39999999999998</ele>
        <time>2019-06-23T06:49:22Z</time>
      </trkpt>
      <trkpt lat="42.827713033184409" lon="-2.64323903247714">
        <ele>543.79999999999995</ele>
        <time>2019-06-23T06:49:24Z</time>
      </trkpt>
      <trkpt lat="42.827693000435829" lon="-2.643074998632073">
        <ele>543.79999999999995</ele>
        <time>2019-06-23T06:49:26Z</time>
      </trkpt>
      <trkpt lat="42.827684031799436" lon="-2.642994029447436">
        <ele>544</ele>
        <time>2019-06-23T06:49:27Z</time>
      </trkpt>
      <trkpt lat="42.82767497934401" lon="-2.642910964787006">
        <ele>544</ele>
        <time>2019-06-23T06:49:28Z</time>
      </trkpt>
      <trkpt lat="42.827656036242843" lon="-2.642742991447449">
        <ele>544.20000000000005</ele>
        <time>2019-06-23T06:49:30Z</time>
      </trkpt>
      <trkpt lat="42.827642960473895" lon="-2.642570994794369">
        <ele>544.20000000000005</ele>
        <time>2019-06-23T06:49:32Z</time>
      </trkpt>
      <trkpt lat="42.827632986009121" lon="-2.642395980656147">
        <ele>544.20000000000005</ele>
        <time>2019-06-23T06:49:34Z</time>
      </trkpt>
      <trkpt lat="42.827623011544347" lon="-2.642219038680196">
        <ele>544.20000000000005</ele>
        <time>2019-06-23T06:49:36Z</time>
      </trkpt>
      <trkpt lat="42.827611025422812" lon="-2.642038995400071">
        <ele>544.20000000000005</ele>
        <time>2019-06-23T06:49:38Z</time>
      </trkpt>
      <trkpt lat="42.827599961310625" lon="-2.641853000968695">
        <ele>544.20000000000005</ele>
        <time>2019-06-23T06:49:40Z</time>
      </trkpt>
      <trkpt lat="42.82758504152298" lon="-2.641660971567035">
        <ele>544</ele>
        <time>2019-06-23T06:49:42Z</time>
      </trkpt>
      <trkpt lat="42.827571965754032" lon="-2.641465002670884">
        <ele>543.60000000000002</ele>
        <time>2019-06-23T06:49:44Z</time>
      </trkpt>
      <trkpt lat="42.8275650087744" lon="-2.641366012394428">
        <ele>543.60000000000002</ele>
        <time>2019-06-23T06:49:45Z</time>
      </trkpt>
      <trkpt lat="42.827556962147355" lon="-2.641265010461211">
        <ele>543.60000000000002</ele>
        <time>2019-06-23T06:49:46Z</time>
      </trkpt>
      <trkpt lat="42.827543970197439" lon="-2.641059989109635">
        <ele>543.39999999999998</ele>
        <time>2019-06-23T06:49:48Z</time>
      </trkpt>
      <trkpt lat="42.827530978247523" lon="-2.640849016606808">
        <ele>543</ele>
        <time>2019-06-23T06:49:50Z</time>
      </trkpt>
      <trkpt lat="42.827519997954369" lon="-2.640631003305316">
        <ele>542.60000000000002</ele>
        <time>2019-06-23T06:49:52Z</time>
      </trkpt>
      <trkpt lat="42.827516980469227" lon="-2.640520026907325">
        <ele>542.39999999999998</ele>
        <time>2019-06-23T06:49:53Z</time>
      </trkpt>
      <trkpt lat="42.827515974640846" lon="-2.640407960861921">
        <ele>542.39999999999998</ele>
        <time>2019-06-23T06:49:54Z</time>
      </trkpt>
      <trkpt lat="42.82752301543951" lon="-2.640181984752417">
        <ele>541.60000000000002</ele>
        <time>2019-06-23T06:49:56Z</time>
      </trkpt>
      <trkpt lat="42.827541958540678" lon="-2.639950979501009">
        <ele>540.60000000000002</ele>
        <time>2019-06-23T06:49:58Z</time>
      </trkpt>
      <trkpt lat="42.827556962147355" lon="-2.639833968132734">
        <ele>540.20000000000005</ele>
        <time>2019-06-23T06:49:59Z</time>
      </trkpt>
      <trkpt lat="42.827573977410793" lon="-2.639716034755111">
        <ele>540</ele>
        <time>2019-06-23T06:50:00Z</time>
      </trkpt>
      <trkpt lat="42.827615970745683" lon="-2.6394800003618">
        <ele>539.39999999999998</ele>
        <time>2019-06-23T06:50:02Z</time>
      </trkpt>
      <trkpt lat="42.827670034021139" lon="-2.639245977625251">
        <ele>538.79999999999995</ele>
        <time>2019-06-23T06:50:04Z</time>
      </trkpt>
      <trkpt lat="42.827701969072223" lon="-2.639130977913737">
        <ele>538.60000000000002</ele>
        <time>2019-06-23T06:50:05Z</time>
      </trkpt>
      <trkpt lat="42.82773801125586" lon="-2.639015978202224">
        <ele>538.39999999999998</ele>
        <time>2019-06-23T06:50:06Z</time>
      </trkpt>
      <trkpt lat="42.827813029289246" lon="-2.6387910079211">
        <ele>537.79999999999995</ele>
        <time>2019-06-23T06:50:08Z</time>
      </trkpt>
      <trkpt lat="42.827853010967374" lon="-2.638681037351489">
        <ele>537.60000000000002</ele>
        <time>2019-06-23T06:50:09Z</time>
      </trkpt>
      <trkpt lat="42.827895004302263" lon="-2.638570982962847">
        <ele>537.39999999999998</ele>
        <time>2019-06-23T06:50:10Z</time>
      </trkpt>
      <trkpt lat="42.827981002628803" lon="-2.638352969661355">
        <ele>536.60000000000002</ele>
        <time>2019-06-23T06:50:12Z</time>
      </trkpt>
      <trkpt lat="42.828024001792073" lon="-2.638246016576886">
        <ele>536.39999999999998</ele>
        <time>2019-06-23T06:50:13Z</time>
      </trkpt>
      <trkpt lat="42.828068006783724" lon="-2.638138979673386">
        <ele>536</ele>
        <time>2019-06-23T06:50:14Z</time>
      </trkpt>
      <trkpt lat="42.828154005110264" lon="-2.6379310246557">
        <ele>535.39999999999998</ele>
        <time>2019-06-23T06:50:16Z</time>
      </trkpt>
      <trkpt lat="42.828238997608423" lon="-2.637726003304124">
        <ele>535</ele>
        <time>2019-06-23T06:50:18Z</time>
      </trkpt>
      <trkpt lat="42.828320972621441" lon="-2.63752399943769">
        <ele>534.79999999999995</ele>
        <time>2019-06-23T06:50:20Z</time>
      </trkpt>
      <trkpt lat="42.82840303145349" lon="-2.637328030541539">
        <ele>534.60000000000002</ele>
        <time>2019-06-23T06:50:22Z</time>
      </trkpt>
      <trkpt lat="42.828443013131618" lon="-2.637231973931193">
        <ele>534.60000000000002</ele>
        <time>2019-06-23T06:50:23Z</time>
      </trkpt>
      <trkpt lat="42.828482994809747" lon="-2.637136001139879">
        <ele>534.60000000000002</ele>
        <time>2019-06-23T06:50:24Z</time>
      </trkpt>
      <trkpt lat="42.828561030328274" lon="-2.636946989223361">
        <ele>534.60000000000002</ele>
        <time>2019-06-23T06:50:26Z</time>
      </trkpt>
      <trkpt lat="42.828637976199389" lon="-2.636762000620365">
        <ele>534.60000000000002</ele>
        <time>2019-06-23T06:50:28Z</time>
      </trkpt>
      <trkpt lat="42.828712994232774" lon="-2.636581035330892">
        <ele>534.60000000000002</ele>
        <time>2019-06-23T06:50:30Z</time>
      </trkpt>
      <trkpt lat="42.828787006437778" lon="-2.636401997879148">
        <ele>534.60000000000002</ele>
        <time>2019-06-23T06:50:32Z</time>
      </trkpt>
      <trkpt lat="42.828858001157641" lon="-2.636226983740926">
        <ele>535</ele>
        <time>2019-06-23T06:50:34Z</time>
      </trkpt>
      <trkpt lat="42.828927990049124" lon="-2.636059010401368">
        <ele>535.20000000000005</ele>
        <time>2019-06-23T06:50:36Z</time>
      </trkpt>
      <trkpt lat="42.828996973112226" lon="-2.635891959071159">
        <ele>535.39999999999998</ele>
        <time>2019-06-23T06:50:38Z</time>
      </trkpt>
      <trkpt lat="42.829066962003708" lon="-2.635727003216744">
        <ele>535.39999999999998</ele>
        <time>2019-06-23T06:50:40Z</time>
      </trkpt>
      <trkpt lat="42.829136028885841" lon="-2.635561963543296">
        <ele>535.79999999999995</ele>
        <time>2019-06-23T06:50:42Z</time>
      </trkpt>
      <trkpt lat="42.829204006120563" lon="-2.635399019345641">
        <ele>536.20000000000005</ele>
        <time>2019-06-23T06:50:44Z</time>
      </trkpt>
      <trkpt lat="42.829273995012045" lon="-2.635236997157335">
        <ele>536.39999999999998</ele>
        <time>2019-06-23T06:50:46Z</time>
      </trkpt>
      <trkpt lat="42.829309031367302" lon="-2.635156027972698">
        <ele>536.39999999999998</ele>
        <time>2019-06-23T06:50:47Z</time>
      </trkpt>
      <trkpt lat="42.829344989731908" lon="-2.635074974969029">
        <ele>536.60000000000002</ele>
        <time>2019-06-23T06:50:48Z</time>
      </trkpt>
      <trkpt lat="42.829416990280151" lon="-2.634913036599755">
        <ele>536.60000000000002</ele>
        <time>2019-06-23T06:50:50Z</time>
      </trkpt>
      <trkpt lat="42.829489996656775" lon="-2.634751014411449">
        <ele>536.79999999999995</ele>
        <time>2019-06-23T06:50:52Z</time>
      </trkpt>
      <trkpt lat="42.829565014690161" lon="-2.634589998051524">
        <ele>537</ele>
        <time>2019-06-23T06:50:54Z</time>
      </trkpt>
      <trkpt lat="42.829643972218037" lon="-2.634427975863218">
        <ele>537.20000000000005</ele>
        <time>2019-06-23T06:50:56Z</time>
      </trkpt>
      <trkpt lat="42.829724019393325" lon="-2.634263020008802">
        <ele>537.20000000000005</ele>
        <time>2019-06-23T06:50:58Z</time>
      </trkpt>
      <trkpt lat="42.829805994406343" lon="-2.634098986163735">
        <ele>537.39999999999998</ele>
        <time>2019-06-23T06:51:00Z</time>
      </trkpt>
      <trkpt lat="42.829891992732882" lon="-2.633935958147049">
        <ele>537.60000000000002</ele>
        <time>2019-06-23T06:51:02Z</time>
      </trkpt>
      <trkpt lat="42.829980002716184" lon="-2.633771002292633">
        <ele>537.39999999999998</ele>
        <time>2019-06-23T06:51:04Z</time>
      </trkpt>
      <trkpt lat="42.830069018527865" lon="-2.633605962619185">
        <ele>537.60000000000002</ele>
        <time>2019-06-23T06:51:06Z</time>
      </trkpt>
      <trkpt lat="42.830161973834038" lon="-2.63344100676477">
        <ele>537.60000000000002</ele>
        <time>2019-06-23T06:51:08Z</time>
      </trkpt>
      <trkpt lat="42.830255012959242" lon="-2.633274961262941">
        <ele>537.60000000000002</ele>
        <time>2019-06-23T06:51:10Z</time>
      </trkpt>
      <trkpt lat="42.830349979922175" lon="-2.633111011236906">
        <ele>537.39999999999998</ele>
        <time>2019-06-23T06:51:12Z</time>
      </trkpt>
      <trkpt lat="42.83044695854187" lon="-2.632951000705361">
        <ele>537.20000000000005</ele>
        <time>2019-06-23T06:51:14Z</time>
      </trkpt>
      <trkpt lat="42.830545026808977" lon="-2.632790990173817">
        <ele>537</ele>
        <time>2019-06-23T06:51:16Z</time>
      </trkpt>
      <trkpt lat="42.830640999600291" lon="-2.632629973813891">
        <ele>536.79999999999995</ele>
        <time>2019-06-23T06:51:18Z</time>
      </trkpt>
      <trkpt lat="42.830738984048367" lon="-2.632469963282347">
        <ele>536.39999999999998</ele>
        <time>2019-06-23T06:51:20Z</time>
      </trkpt>
      <trkpt lat="42.830837974324822" lon="-2.632309030741453">
        <ele>536.20000000000005</ele>
        <time>2019-06-23T06:51:22Z</time>
      </trkpt>
      <trkpt lat="42.830936964601278" lon="-2.632147008553147">
        <ele>536</ele>
        <time>2019-06-23T06:51:24Z</time>
      </trkpt>
      <trkpt lat="42.831035032868385" lon="-2.631984986364842">
        <ele>535.79999999999995</ele>
        <time>2019-06-23T06:51:26Z</time>
      </trkpt>
      <trkpt lat="42.831084989011288" lon="-2.631904017180204">
        <ele>535.79999999999995</ele>
        <time>2019-06-23T06:51:27Z</time>
      </trkpt>
      <trkpt lat="42.831134023144841" lon="-2.631822964176536">
        <ele>535.79999999999995</ele>
        <time>2019-06-23T06:51:28Z</time>
      </trkpt>
      <trkpt lat="42.831233013421297" lon="-2.631661025807262">
        <ele>535.79999999999995</ele>
        <time>2019-06-23T06:51:30Z</time>
      </trkpt>
      <trkpt lat="42.831330997869372" lon="-2.631501015275717">
        <ele>535.39999999999998</ele>
        <time>2019-06-23T06:51:32Z</time>
      </trkpt>
      <trkpt lat="42.831427976489067" lon="-2.631341004744172">
        <ele>535.39999999999998</ele>
        <time>2019-06-23T06:51:34Z</time>
      </trkpt>
      <trkpt lat="42.83147600479424" lon="-2.631261041387916">
        <ele>535.39999999999998</ele>
        <time>2019-06-23T06:51:35Z</time>
      </trkpt>
      <trkpt lat="42.831525038927794" lon="-2.631179988384247">
        <ele>535.20000000000005</ele>
        <time>2019-06-23T06:51:36Z</time>
      </trkpt>
      <trkpt lat="42.831623023375869" lon="-2.631018972024322">
        <ele>535</ele>
        <time>2019-06-23T06:51:38Z</time>
      </trkpt>
      <trkpt lat="42.831671973690391" lon="-2.630938002839685">
        <ele>535</ele>
        <time>2019-06-23T06:51:39Z</time>
      </trkpt>
      <trkpt lat="42.831722013652325" lon="-2.630857033655047">
        <ele>534.79999999999995</ele>
        <time>2019-06-23T06:51:40Z</time>
      </trkpt>
      <trkpt lat="42.8318199981004" lon="-2.63069299980998">
        <ele>534.79999999999995</ele>
        <time>2019-06-23T06:51:42Z</time>
      </trkpt>
      <trkpt lat="42.831917982548475" lon="-2.630529971793294">
        <ele>534.60000000000002</ele>
        <time>2019-06-23T06:51:44Z</time>
      </trkpt>
      <trkpt lat="42.832014039158821" lon="-2.630367027595639">
        <ele>534.39999999999998</ele>
        <time>2019-06-23T06:51:46Z</time>
      </trkpt>
      <trkpt lat="42.832106994464993" lon="-2.630201987922192">
        <ele>534.39999999999998</ele>
        <time>2019-06-23T06:51:48Z</time>
      </trkpt>
      <trkpt lat="42.832155022770166" lon="-2.630118001252413">
        <ele>534.39999999999998</ele>
        <time>2019-06-23T06:51:49Z</time>
      </trkpt>
      <trkpt lat="42.832201039418578" lon="-2.630034014582634">
        <ele>534.20000000000005</ele>
        <time>2019-06-23T06:51:50Z</time>
      </trkpt>
      <trkpt lat="42.83229298889637" lon="-2.629865035414696">
        <ele>534.20000000000005</ele>
        <time>2019-06-23T06:51:52Z</time>
      </trkpt>
      <trkpt lat="42.832384016364813" lon="-2.629694966599345">
        <ele>534</ele>
        <time>2019-06-23T06:51:54Z</time>
      </trkpt>
      <trkpt lat="42.832474038004875" lon="-2.629524981603026">
        <ele>533.79999999999995</ele>
        <time>2019-06-23T06:51:56Z</time>
      </trkpt>
      <trkpt lat="42.832560958340764" lon="-2.629353990778327">
        <ele>533.60000000000002</ele>
        <time>2019-06-23T06:51:58Z</time>
      </trkpt>
      <trkpt lat="42.832603035494685" lon="-2.629267992451787">
        <ele>533.79999999999995</ele>
        <time>2019-06-23T06:51:59Z</time>
      </trkpt>
      <trkpt lat="42.832646034657955" lon="-2.629180988296866">
        <ele>533.60000000000002</ele>
        <time>2019-06-23T06:52:00Z</time>
      </trkpt>
      <trkpt lat="42.832689033821225" lon="-2.629093984141946">
        <ele>533.60000000000002</ele>
        <time>2019-06-23T06:52:01Z</time>
      </trkpt>
      <trkpt lat="42.832732032984495" lon="-2.629006979987025">
        <ele>533.60000000000002</ele>
        <time>2019-06-23T06:52:02Z</time>
      </trkpt>
      <trkpt lat="42.832816019654274" lon="-2.628830960020423">
        <ele>533.60000000000002</ele>
        <time>2019-06-23T06:52:04Z</time>
      </trkpt>
      <trkpt lat="42.832900006324053" lon="-2.628656029701233">
        <ele>533.39999999999998</ele>
        <time>2019-06-23T06:52:06Z</time>
      </trkpt>
      <trkpt lat="42.832982987165451" lon="-2.628482021391392">
        <ele>533.39999999999998</ele>
        <time>2019-06-23T06:52:08Z</time>
      </trkpt>
      <trkpt lat="42.833064962178469" lon="-2.628309018909931">
        <ele>533.20000000000005</ele>
        <time>2019-06-23T06:52:10Z</time>
      </trkpt>
      <trkpt lat="42.833148026838899" lon="-2.628137022256851">
        <ele>533</ele>
        <time>2019-06-23T06:52:12Z</time>
      </trkpt>
      <trkpt lat="42.833190020173788" lon="-2.628052029758692">
        <ele>533.20000000000005</ele>
        <time>2019-06-23T06:52:13Z</time>
      </trkpt>
      <trkpt lat="42.833231007680297" lon="-2.627967037260532">
        <ele>533</ele>
        <time>2019-06-23T06:52:14Z</time>
      </trkpt>
      <trkpt lat="42.833312982693315" lon="-2.627796968445182">
        <ele>533</ele>
        <time>2019-06-23T06:52:16Z</time>
      </trkpt>
      <trkpt lat="42.833352964371443" lon="-2.627712981775403">
        <ele>533</ele>
        <time>2019-06-23T06:52:17Z</time>
      </trkpt>
      <trkpt lat="42.833393029868603" lon="-2.627627989277244">
        <ele>533</ele>
        <time>2019-06-23T06:52:18Z</time>
      </trkpt>
      <trkpt lat="42.833472993224859" lon="-2.627461021766067">
        <ele>532.79999999999995</ele>
        <time>2019-06-23T06:52:20Z</time>
      </trkpt>
      <trkpt lat="42.833553040400147" lon="-2.627293970435858">
        <ele>532.79999999999995</ele>
        <time>2019-06-23T06:52:22Z</time>
      </trkpt>
      <trkpt lat="42.833631997928023" lon="-2.627129014581442">
        <ele>532.79999999999995</ele>
        <time>2019-06-23T06:52:24Z</time>
      </trkpt>
      <trkpt lat="42.833670973777771" lon="-2.627047039568424">
        <ele>532.79999999999995</ele>
        <time>2019-06-23T06:52:25Z</time>
      </trkpt>
      <trkpt lat="42.833711039274931" lon="-2.626963974907994">
        <ele>532.79999999999995</ele>
        <time>2019-06-23T06:52:26Z</time>
      </trkpt>
      <trkpt lat="42.833789996802807" lon="-2.626800024881959">
        <ele>532.79999999999995</ele>
        <time>2019-06-23T06:52:28Z</time>
      </trkpt>
      <trkpt lat="42.833869038149714" lon="-2.626635991036892">
        <ele>533</ele>
        <time>2019-06-23T06:52:30Z</time>
      </trkpt>
      <trkpt lat="42.83394698984921" lon="-2.626472963020206">
        <ele>533</ele>
        <time>2019-06-23T06:52:32Z</time>
      </trkpt>
      <trkpt lat="42.834025025367737" lon="-2.62630901299417">
        <ele>533.20000000000005</ele>
        <time>2019-06-23T06:52:34Z</time>
      </trkpt>
      <trkpt lat="42.834103982895613" lon="-2.626146990805864">
        <ele>533</ele>
        <time>2019-06-23T06:52:36Z</time>
      </trkpt>
      <trkpt lat="42.83418302424252" lon="-2.625984968617559">
        <ele>533.20000000000005</ele>
        <time>2019-06-23T06:52:38Z</time>
      </trkpt>
      <trkpt lat="42.834259970113635" lon="-2.625821018591523">
        <ele>533.20000000000005</ele>
        <time>2019-06-23T06:52:40Z</time>
      </trkpt>
      <trkpt lat="42.834338005632162" lon="-2.625656984746456">
        <ele>533.39999999999998</ele>
        <time>2019-06-23T06:52:42Z</time>
      </trkpt>
      <trkpt lat="42.834416963160038" lon="-2.625494040548801">
        <ele>533.20000000000005</ele>
        <time>2019-06-23T06:52:44Z</time>
      </trkpt>
      <trkpt lat="42.834496004506946" lon="-2.625331012532115">
        <ele>533.39999999999998</ele>
        <time>2019-06-23T06:52:46Z</time>
      </trkpt>
      <trkpt lat="42.834574040025473" lon="-2.625167984515429">
        <ele>533.39999999999998</ele>
        <time>2019-06-23T06:52:48Z</time>
      </trkpt>
      <trkpt lat="42.834651991724968" lon="-2.625005962327123">
        <ele>533.39999999999998</ele>
        <time>2019-06-23T06:52:50Z</time>
      </trkpt>
      <trkpt lat="42.834732038900256" lon="-2.624842012301087">
        <ele>533.60000000000002</ele>
        <time>2019-06-23T06:52:52Z</time>
      </trkpt>
      <trkpt lat="42.834809990599751" lon="-2.62467797845602">
        <ele>533.39999999999998</ele>
        <time>2019-06-23T06:52:54Z</time>
      </trkpt>
      <trkpt lat="42.834848966449499" lon="-2.624596003443003">
        <ele>533.60000000000002</ele>
        <time>2019-06-23T06:52:55Z</time>
      </trkpt>
      <trkpt lat="42.834888026118279" lon="-2.624514028429985">
        <ele>533.39999999999998</ele>
        <time>2019-06-23T06:52:56Z</time>
      </trkpt>
      <trkpt lat="42.834966983646154" lon="-2.624351000413299">
        <ele>533.60000000000002</ele>
        <time>2019-06-23T06:52:58Z</time>
      </trkpt>
      <trkpt lat="42.835045019164681" lon="-2.624187972396612">
        <ele>533.60000000000002</ele>
        <time>2019-06-23T06:53:00Z</time>
      </trkpt>
      <trkpt lat="42.835123976692557" lon="-2.624026034027338">
        <ele>533.60000000000002</ele>
        <time>2019-06-23T06:53:02Z</time>
      </trkpt>
      <trkpt lat="42.835202012211084" lon="-2.623864011839032">
        <ele>533.79999999999995</ele>
        <time>2019-06-23T06:53:04Z</time>
      </trkpt>
      <trkpt lat="42.83527996391058" lon="-2.623701989650726">
        <ele>533.60000000000002</ele>
        <time>2019-06-23T06:53:06Z</time>
      </trkpt>
      <trkpt lat="42.835319023579359" lon="-2.62362202629447">
        <ele>533.60000000000002</ele>
        <time>2019-06-23T06:53:07Z</time>
      </trkpt>
      <trkpt lat="42.835357999429107" lon="-2.623540973290801">
        <ele>533.79999999999995</ele>
        <time>2019-06-23T06:53:08Z</time>
      </trkpt>
      <trkpt lat="42.835437040776014" lon="-2.623380962759256">
        <ele>533.79999999999995</ele>
        <time>2019-06-23T06:53:10Z</time>
      </trkpt>
      <trkpt lat="42.83551599830389" lon="-2.623222041875124">
        <ele>533.79999999999995</ele>
        <time>2019-06-23T06:53:12Z</time>
      </trkpt>
      <trkpt lat="42.835595961660147" lon="-2.62306303717196">
        <ele>533.79999999999995</ele>
        <time>2019-06-23T06:53:14Z</time>
      </trkpt>
      <trkpt lat="42.835678020492196" lon="-2.622905960306525">
        <ele>534</ele>
        <time>2019-06-23T06:53:16Z</time>
      </trkpt>
      <trkpt lat="42.835762007161975" lon="-2.622750978916884">
        <ele>534</ele>
        <time>2019-06-23T06:53:18Z</time>
      </trkpt>
      <trkpt lat="42.835846999660134" lon="-2.622595997527242">
        <ele>534</ele>
        <time>2019-06-23T06:53:20Z</time>
      </trkpt>
      <trkpt lat="42.835932997986674" lon="-2.6224410161376">
        <ele>534</ele>
        <time>2019-06-23T06:53:22Z</time>
      </trkpt>
      <trkpt lat="42.836021007969975" lon="-2.622287040576339">
        <ele>534</ele>
        <time>2019-06-23T06:53:24Z</time>
      </trkpt>
      <trkpt lat="42.836065012961626" lon="-2.622210010886192">
        <ele>534</ele>
        <time>2019-06-23T06:53:25Z</time>
      </trkpt>
      <trkpt lat="42.836109017953277" lon="-2.622133987024427">
        <ele>534</ele>
        <time>2019-06-23T06:53:26Z</time>
      </trkpt>
      <trkpt lat="42.836199961602688" lon="-2.621984034776688">
        <ele>534</ele>
        <time>2019-06-23T06:53:28Z</time>
      </trkpt>
      <trkpt lat="42.836290989071131" lon="-2.621835004538298">
        <ele>534.20000000000005</ele>
        <time>2019-06-23T06:53:30Z</time>
      </trkpt>
      <trkpt lat="42.836385034024715" lon="-2.621686980128288">
        <ele>534</ele>
        <time>2019-06-23T06:53:32Z</time>
      </trkpt>
      <trkpt lat="42.83648100681603" lon="-2.62154096737504">
        <ele>534</ele>
        <time>2019-06-23T06:53:34Z</time>
      </trkpt>
      <trkpt lat="42.836575973778963" lon="-2.621394032612443">
        <ele>534</ele>
        <time>2019-06-23T06:53:36Z</time>
      </trkpt>
      <trkpt lat="42.836673958227038" lon="-2.621249025687575">
        <ele>534</ele>
        <time>2019-06-23T06:53:38Z</time>
      </trkpt>
      <trkpt lat="42.836773032322526" lon="-2.621104018762708">
        <ele>533.79999999999995</ele>
        <time>2019-06-23T06:53:40Z</time>
      </trkpt>
      <trkpt lat="42.836822988465428" lon="-2.621031012386084">
        <ele>534</ele>
        <time>2019-06-23T06:53:41Z</time>
      </trkpt>
      <trkpt lat="42.836874034255743" lon="-2.62095901183784">
        <ele>534</ele>
        <time>2019-06-23T06:53:42Z</time>
      </trkpt>
      <trkpt lat="42.83697503618896" lon="-2.620815010741353">
        <ele>533.79999999999995</ele>
        <time>2019-06-23T06:53:44Z</time>
      </trkpt>
      <trkpt lat="42.837076038122177" lon="-2.620670003816485">
        <ele>533.79999999999995</ele>
        <time>2019-06-23T06:53:46Z</time>
      </trkpt>
      <trkpt lat="42.837176034227014" lon="-2.620527008548379">
        <ele>533.39999999999998</ele>
        <time>2019-06-23T06:53:48Z</time>
      </trkpt>
      <trkpt lat="42.83727603033185" lon="-2.620384013280273">
        <ele>533.39999999999998</ele>
        <time>2019-06-23T06:53:50Z</time>
      </trkpt>
      <trkpt lat="42.837376026436687" lon="-2.620240012183785">
        <ele>533.20000000000005</ele>
        <time>2019-06-23T06:53:52Z</time>
      </trkpt>
      <trkpt lat="42.837476022541523" lon="-2.620097016915679">
        <ele>533.39999999999998</ele>
        <time>2019-06-23T06:53:54Z</time>
      </trkpt>
      <trkpt lat="42.83757702447474" lon="-2.619955027475953">
        <ele>533.20000000000005</ele>
        <time>2019-06-23T06:53:56Z</time>
      </trkpt>
      <trkpt lat="42.837676014751196" lon="-2.619811026379466">
        <ele>533.20000000000005</ele>
        <time>2019-06-23T06:53:58Z</time>
      </trkpt>
      <trkpt lat="42.837725970894098" lon="-2.619740031659603">
        <ele>533</ele>
        <time>2019-06-23T06:53:59Z</time>
      </trkpt>
      <trkpt lat="42.837776010856032" lon="-2.61966803111136">
        <ele>533</ele>
        <time>2019-06-23T06:54:00Z</time>
      </trkpt>
      <trkpt lat="42.837875001132488" lon="-2.619522018358111">
        <ele>533</ele>
        <time>2019-06-23T06:54:02Z</time>
      </trkpt>
      <trkpt lat="42.837925041094422" lon="-2.619450017809868">
        <ele>533</ele>
        <time>2019-06-23T06:54:03Z</time>
      </trkpt>
      <trkpt lat="42.837974997237325" lon="-2.619377011433244">
        <ele>533</ele>
        <time>2019-06-23T06:54:04Z</time>
      </trkpt>
      <trkpt lat="42.838077004998922" lon="-2.619233010336757">
        <ele>533</ele>
        <time>2019-06-23T06:54:06Z</time>
      </trkpt>
      <trkpt lat="42.83817901276052" lon="-2.619085991755128">
        <ele>532.79999999999995</ele>
        <time>2019-06-23T06:54:08Z</time>
      </trkpt>
      <trkpt lat="42.838283032178879" lon="-2.61893997900188">
        <ele>532.60000000000002</ele>
        <time>2019-06-23T06:54:10Z</time>
      </trkpt>
      <trkpt lat="42.838385961949825" lon="-2.618791032582521">
        <ele>532.39999999999998</ele>
        <time>2019-06-23T06:54:12Z</time>
      </trkpt>
      <trkpt lat="42.838490987196565" lon="-2.618640996515751">
        <ele>532.20000000000005</ele>
        <time>2019-06-23T06:54:14Z</time>
      </trkpt>
      <trkpt lat="42.838596012443304" lon="-2.618490038439632">
        <ele>532</ele>
        <time>2019-06-23T06:54:16Z</time>
      </trkpt>
      <trkpt lat="42.838701959699392" lon="-2.6183379907161">
        <ele>531.79999999999995</ele>
        <time>2019-06-23T06:54:18Z</time>
      </trkpt>
      <trkpt lat="42.838808996602893" lon="-2.618185020983219">
        <ele>531.39999999999998</ele>
        <time>2019-06-23T06:54:20Z</time>
      </trkpt>
      <trkpt lat="42.838917039334774" lon="-2.618029033765197">
        <ele>531.20000000000005</ele>
        <time>2019-06-23T06:54:22Z</time>
      </trkpt>
      <trkpt lat="42.839026004076004" lon="-2.617872040718794">
        <ele>530.79999999999995</ele>
        <time>2019-06-23T06:54:24Z</time>
      </trkpt>
      <trkpt lat="42.839079983532429" lon="-2.617791993543506">
        <ele>530.79999999999995</ele>
        <time>2019-06-23T06:54:25Z</time>
      </trkpt>
      <trkpt lat="42.839134968817234" lon="-2.617712030187249">
        <ele>530.60000000000002</ele>
        <time>2019-06-23T06:54:26Z</time>
      </trkpt>
      <trkpt lat="42.839245023205876" lon="-2.617552019655705">
        <ele>530</ele>
        <time>2019-06-23T06:54:28Z</time>
      </trkpt>
      <trkpt lat="42.839358011260629" lon="-2.617394020780921">
        <ele>529.79999999999995</ele>
        <time>2019-06-23T06:54:30Z</time>
      </trkpt>
      <trkpt lat="42.83946898765862" lon="-2.617233004420996">
        <ele>529.20000000000005</ele>
        <time>2019-06-23T06:54:32Z</time>
      </trkpt>
      <trkpt lat="42.839579964056611" lon="-2.617075005546212">
        <ele>528.79999999999995</ele>
        <time>2019-06-23T06:54:34Z</time>
      </trkpt>
      <trkpt lat="42.839691024273634" lon="-2.616916000843048">
        <ele>528.60000000000002</ele>
        <time>2019-06-23T06:54:36Z</time>
      </trkpt>
      <trkpt lat="42.839800994843245" lon="-2.616758001968265">
        <ele>528.20000000000005</ele>
        <time>2019-06-23T06:54:38Z</time>
      </trkpt>
      <trkpt lat="42.839905014261603" lon="-2.616594973951578">
        <ele>528</ele>
        <time>2019-06-23T06:54:40Z</time>
      </trkpt>
      <trkpt lat="42.839948013424873" lon="-2.616505958139896">
        <ele>527.79999999999995</ele>
        <time>2019-06-23T06:54:41Z</time>
      </trkpt>
      <trkpt lat="42.839983971789479" lon="-2.616411997005343">
        <ele>527.60000000000002</ele>
        <time>2019-06-23T06:54:42Z</time>
      </trkpt>
      <trkpt lat="42.840008027851582" lon="-2.616313006728888">
        <ele>527.79999999999995</ele>
        <time>2019-06-23T06:54:43Z</time>
      </trkpt>
      <trkpt lat="42.840019008144736" lon="-2.616212004795671">
        <ele>527.39999999999998</ele>
        <time>2019-06-23T06:54:44Z</time>
      </trkpt>
      <trkpt lat="42.840014984831214" lon="-2.616111002862454">
        <ele>527.39999999999998</ele>
        <time>2019-06-23T06:54:45Z</time>
      </trkpt>
      <trkpt lat="42.839996963739395" lon="-2.616014024242759">
        <ele>527.39999999999998</ele>
        <time>2019-06-23T06:54:46Z</time>
      </trkpt>
      <trkpt lat="42.839969974011183" lon="-2.615922996774316">
        <ele>527.39999999999998</ele>
        <time>2019-06-23T06:54:47Z</time>
      </trkpt>
      <trkpt lat="42.839937033131719" lon="-2.615836998447776">
        <ele>527.60000000000002</ele>
        <time>2019-06-23T06:54:48Z</time>
      </trkpt>
      <trkpt lat="42.839869977906346" lon="-2.615670030936599">
        <ele>527.39999999999998</ele>
        <time>2019-06-23T06:54:50Z</time>
      </trkpt>
      <trkpt lat="42.839836031198502" lon="-2.615586966276169">
        <ele>527.60000000000002</ele>
        <time>2019-06-23T06:54:51Z</time>
      </trkpt>
      <trkpt lat="42.839800994843245" lon="-2.615504991263151">
        <ele>527.60000000000002</ele>
        <time>2019-06-23T06:54:52Z</time>
      </trkpt>
      <trkpt lat="42.839733017608523" lon="-2.615341963246465">
        <ele>527.60000000000002</ele>
        <time>2019-06-23T06:54:54Z</time>
      </trkpt>
      <trkpt lat="42.839665962383151" lon="-2.61517901904881">
        <ele>528</ele>
        <time>2019-06-23T06:54:56Z</time>
      </trkpt>
      <trkpt lat="42.83959899097681" lon="-2.615018002688885">
        <ele>528</ele>
        <time>2019-06-23T06:54:58Z</time>
      </trkpt>
      <trkpt lat="42.839534031227231" lon="-2.61485698632896">
        <ele>528.20000000000005</ele>
        <time>2019-06-23T06:55:00Z</time>
      </trkpt>
      <trkpt lat="42.839466976001859" lon="-2.614698987454176">
        <ele>528.20000000000005</ele>
        <time>2019-06-23T06:55:02Z</time>
      </trkpt>
      <trkpt lat="42.839400004595518" lon="-2.614541994407773">
        <ele>528.39999999999998</ele>
        <time>2019-06-23T06:55:04Z</time>
      </trkpt>
      <trkpt lat="42.839334039017558" lon="-2.61438500136137">
        <ele>528.60000000000002</ele>
        <time>2019-06-23T06:55:06Z</time>
      </trkpt>
      <trkpt lat="42.839267989620566" lon="-2.614229014143348">
        <ele>528.79999999999995</ele>
        <time>2019-06-23T06:55:08Z</time>
      </trkpt>
      <trkpt lat="42.839204035699368" lon="-2.614073026925325">
        <ele>529</ele>
        <time>2019-06-23T06:55:10Z</time>
      </trkpt>
      <trkpt lat="42.839138992130756" lon="-2.613918967545033">
        <ele>528.79999999999995</ele>
        <time>2019-06-23T06:55:12Z</time>
      </trkpt>
      <trkpt lat="42.839076966047287" lon="-2.613767003640533">
        <ele>529</ele>
        <time>2019-06-23T06:55:14Z</time>
      </trkpt>
      <trkpt lat="42.83901703543961" lon="-2.613618979230523">
        <ele>529</ele>
        <time>2019-06-23T06:55:16Z</time>
      </trkpt>
      <trkpt lat="42.838956015184522" lon="-2.613475983962417">
        <ele>529.39999999999998</ele>
        <time>2019-06-23T06:55:18Z</time>
      </trkpt>
      <trkpt lat="42.838899018242955" lon="-2.613329971209168">
        <ele>529.60000000000002</ele>
        <time>2019-06-23T06:55:20Z</time>
      </trkpt>
      <trkpt lat="42.83884403295815" lon="-2.613185970112681">
        <ele>530</ele>
        <time>2019-06-23T06:55:22Z</time>
      </trkpt>
      <trkpt lat="42.838789969682693" lon="-2.613042974844575">
        <ele>530.20000000000005</ele>
        <time>2019-06-23T06:55:24Z</time>
      </trkpt>
      <trkpt lat="42.83873800188303" lon="-2.612899979576469">
        <ele>530.39999999999998</ele>
        <time>2019-06-23T06:55:26Z</time>
      </trkpt>
      <trkpt lat="42.838687039911747" lon="-2.612756984308362">
        <ele>530.60000000000002</ele>
        <time>2019-06-23T06:55:28Z</time>
      </trkpt>
      <trkpt lat="42.838639011606574" lon="-2.612616000697017">
        <ele>530.79999999999995</ele>
        <time>2019-06-23T06:55:30Z</time>
      </trkpt>
      <trkpt lat="42.838594000786543" lon="-2.612479040399194">
        <ele>531</ele>
        <time>2019-06-23T06:55:32Z</time>
      </trkpt>
      <trkpt lat="42.838552007451653" lon="-2.612340990453959">
        <ele>531.39999999999998</ele>
        <time>2019-06-23T06:55:34Z</time>
      </trkpt>
      <trkpt lat="42.838512025773525" lon="-2.612205035984516">
        <ele>531.60000000000002</ele>
        <time>2019-06-23T06:55:36Z</time>
      </trkpt>
      <trkpt lat="42.838471038267016" lon="-2.612068997696042">
        <ele>531.79999999999995</ele>
        <time>2019-06-23T06:55:38Z</time>
      </trkpt>
      <trkpt lat="42.838451005518436" lon="-2.612001020461321">
        <ele>532</ele>
        <time>2019-06-23T06:55:39Z</time>
      </trkpt>
      <trkpt lat="42.838431978598237" lon="-2.611932959407568">
        <ele>532.20000000000005</ele>
        <time>2019-06-23T06:55:40Z</time>
      </trkpt>
      <trkpt lat="42.838396020233631" lon="-2.611795999109745">
        <ele>532.79999999999995</ele>
        <time>2019-06-23T06:55:42Z</time>
      </trkpt>
      <trkpt lat="42.838362995535135" lon="-2.611659960821271">
        <ele>533.39999999999998</ele>
        <time>2019-06-23T06:55:44Z</time>
      </trkpt>
      <trkpt lat="42.838327959179878" lon="-2.611524006351829">
        <ele>533.60000000000002</ele>
        <time>2019-06-23T06:55:46Z</time>
      </trkpt>
      <trkpt lat="42.838294012472034" lon="-2.611386962234974">
        <ele>533.60000000000002</ele>
        <time>2019-06-23T06:55:48Z</time>
      </trkpt>
      <trkpt lat="42.838264005258679" lon="-2.61124899610877">
        <ele>534.20000000000005</ele>
        <time>2019-06-23T06:55:50Z</time>
      </trkpt>
      <trkpt lat="42.838236009702086" lon="-2.611111029982567">
        <ele>534.39999999999998</ele>
        <time>2019-06-23T06:55:52Z</time>
      </trkpt>
      <trkpt lat="42.83822201192379" lon="-2.611041041091085">
        <ele>534.60000000000002</ele>
        <time>2019-06-23T06:55:53Z</time>
      </trkpt>
      <trkpt lat="42.838209019973874" lon="-2.61097096838057">
        <ele>534.79999999999995</ele>
        <time>2019-06-23T06:55:54Z</time>
      </trkpt>
      <trkpt lat="42.838183036074042" lon="-2.610827973112464">
        <ele>534.79999999999995</ele>
        <time>2019-06-23T06:55:56Z</time>
      </trkpt>
      <trkpt lat="42.838157974183559" lon="-2.610684977844358">
        <ele>535.39999999999998</ele>
        <time>2019-06-23T06:55:58Z</time>
      </trkpt>
      <trkpt lat="42.838146993890405" lon="-2.610613983124495">
        <ele>535.60000000000002</ele>
        <time>2019-06-23T06:55:59Z</time>
      </trkpt>
      <trkpt lat="42.838134001940489" lon="-2.610543994233012">
        <ele>535.79999999999995</ele>
        <time>2019-06-23T06:56:00Z</time>
      </trkpt>
      <trkpt lat="42.838112963363528" lon="-2.610403010621667">
        <ele>536.39999999999998</ele>
        <time>2019-06-23T06:56:02Z</time>
      </trkpt>
      <trkpt lat="42.838095026090741" lon="-2.610263032838702">
        <ele>536.60000000000002</ele>
        <time>2019-06-23T06:56:04Z</time>
      </trkpt>
      <trkpt lat="42.838078010827303" lon="-2.610120959579945">
        <ele>537</ele>
        <time>2019-06-23T06:56:06Z</time>
      </trkpt>
      <trkpt lat="42.838068958371878" lon="-2.610048959031701">
        <ele>537.20000000000005</ele>
        <time>2019-06-23T06:56:07Z</time>
      </trkpt>
      <trkpt lat="42.838060995563865" lon="-2.609976958483458">
        <ele>537.39999999999998</ele>
        <time>2019-06-23T06:56:08Z</time>
      </trkpt>
      <trkpt lat="42.838043980300426" lon="-2.609833963215351">
        <ele>537.79999999999995</ele>
        <time>2019-06-23T06:56:10Z</time>
      </trkpt>
      <trkpt lat="42.838030988350511" lon="-2.609689962118864">
        <ele>538.20000000000005</ele>
        <time>2019-06-23T06:56:12Z</time>
      </trkpt>
      <trkpt lat="42.838020008057356" lon="-2.609545039013028">
        <ele>538.60000000000002</ele>
        <time>2019-06-23T06:56:14Z</time>
      </trkpt>
      <trkpt lat="42.838013973087072" lon="-2.609473960474134">
        <ele>538.60000000000002</ele>
        <time>2019-06-23T06:56:15Z</time>
      </trkpt>
      <trkpt lat="42.838009027764201" lon="-2.60940195992589">
        <ele>538.79999999999995</ele>
        <time>2019-06-23T06:56:16Z</time>
      </trkpt>
      <trkpt lat="42.837999975308776" lon="-2.609256030991674">
        <ele>539.20000000000005</ele>
        <time>2019-06-23T06:56:18Z</time>
      </trkpt>
      <trkpt lat="42.837992012500763" lon="-2.609110018238425">
        <ele>539.20000000000005</ele>
        <time>2019-06-23T06:56:20Z</time>
      </trkpt>
      <trkpt lat="42.837985977530479" lon="-2.608965011313558">
        <ele>539.39999999999998</ele>
        <time>2019-06-23T06:56:22Z</time>
      </trkpt>
      <trkpt lat="42.837981032207608" lon="-2.608818998560309">
        <ele>540</ele>
        <time>2019-06-23T06:56:24Z</time>
      </trkpt>
      <trkpt lat="42.837980026379228" lon="-2.608745992183685">
        <ele>540.20000000000005</ele>
        <time>2019-06-23T06:56:25Z</time>
      </trkpt>
      <trkpt lat="42.837979020550847" lon="-2.608671979978681">
        <ele>540.20000000000005</ele>
        <time>2019-06-23T06:56:26Z</time>
      </trkpt>
      <trkpt lat="42.837977008894086" lon="-2.608524039387703">
        <ele>540.60000000000002</ele>
        <time>2019-06-23T06:56:28Z</time>
      </trkpt>
      <trkpt lat="42.837977008894086" lon="-2.608375009149313">
        <ele>540.79999999999995</ele>
        <time>2019-06-23T06:56:30Z</time>
      </trkpt>
      <trkpt lat="42.837978014722466" lon="-2.608225978910923">
        <ele>540.79999999999995</ele>
        <time>2019-06-23T06:56:32Z</time>
      </trkpt>
      <trkpt lat="42.837981032207608" lon="-2.608077032491565">
        <ele>541.20000000000005</ele>
        <time>2019-06-23T06:56:34Z</time>
      </trkpt>
      <trkpt lat="42.83798698335886" lon="-2.607926996424794">
        <ele>541.39999999999998</ele>
        <time>2019-06-23T06:56:36Z</time>
      </trkpt>
      <trkpt lat="42.837995029985905" lon="-2.607776038348675">
        <ele>542</ele>
        <time>2019-06-23T06:56:38Z</time>
      </trkpt>
      <trkpt lat="42.838003998622298" lon="-2.607624996453524">
        <ele>542</ele>
        <time>2019-06-23T06:56:40Z</time>
      </trkpt>
      <trkpt lat="42.838013973087072" lon="-2.607474038377404">
        <ele>542.20000000000005</ele>
        <time>2019-06-23T06:56:42Z</time>
      </trkpt>
      <trkpt lat="42.838025037199259" lon="-2.607325008139014">
        <ele>542.39999999999998</ele>
        <time>2019-06-23T06:56:44Z</time>
      </trkpt>
      <trkpt lat="42.838038029149175" lon="-2.607173966243863">
        <ele>542.60000000000002</ele>
        <time>2019-06-23T06:56:46Z</time>
      </trkpt>
      <trkpt lat="42.838049009442329" lon="-2.607023008167744">
        <ele>542.60000000000002</ele>
        <time>2019-06-23T06:56:48Z</time>
      </trkpt>
      <trkpt lat="42.838060995563865" lon="-2.606870960444212">
        <ele>542.39999999999998</ele>
        <time>2019-06-23T06:56:50Z</time>
      </trkpt>
      <trkpt lat="42.838071975857019" lon="-2.606717990711331">
        <ele>542.60000000000002</ele>
        <time>2019-06-23T06:56:52Z</time>
      </trkpt>
      <trkpt lat="42.838083039969206" lon="-2.606567032635212">
        <ele>543</ele>
        <time>2019-06-23T06:56:54Z</time>
      </trkpt>
      <trkpt lat="42.838094020262361" lon="-2.606418002396822">
        <ele>543.20000000000005</ele>
        <time>2019-06-23T06:56:56Z</time>
      </trkpt>
      <trkpt lat="42.838103994727135" lon="-2.606267966330051">
        <ele>543.20000000000005</ele>
        <time>2019-06-23T06:56:58Z</time>
      </trkpt>
      <trkpt lat="42.838114975020289" lon="-2.606119019910693">
        <ele>543.39999999999998</ele>
        <time>2019-06-23T06:57:00Z</time>
      </trkpt>
      <trkpt lat="42.838122015818954" lon="-2.606045007705689">
        <ele>543.60000000000002</ele>
        <time>2019-06-23T06:57:01Z</time>
      </trkpt>
      <trkpt lat="42.838128972798586" lon="-2.605969989672303">
        <ele>543.60000000000002</ele>
        <time>2019-06-23T06:57:02Z</time>
      </trkpt>
      <trkpt lat="42.838141964748502" lon="-2.605821965262294">
        <ele>543.79999999999995</ele>
        <time>2019-06-23T06:57:04Z</time>
      </trkpt>
      <trkpt lat="42.838153028860688" lon="-2.605673018842936">
        <ele>544</ele>
        <time>2019-06-23T06:57:06Z</time>
      </trkpt>
      <trkpt lat="42.838164009153843" lon="-2.605524994432926">
        <ele>544.20000000000005</ele>
        <time>2019-06-23T06:57:08Z</time>
      </trkpt>
      <trkpt lat="42.838169038295746" lon="-2.605450982227922">
        <ele>544</ele>
        <time>2019-06-23T06:57:09Z</time>
      </trkpt>
      <trkpt lat="42.838173983618617" lon="-2.605375964194536">
        <ele>544.20000000000005</ele>
        <time>2019-06-23T06:57:10Z</time>
      </trkpt>
      <trkpt lat="42.838184963911772" lon="-2.605227017775178">
        <ele>544.39999999999998</ele>
        <time>2019-06-23T06:57:12Z</time>
      </trkpt>
      <trkpt lat="42.838196028023958" lon="-2.605079999193549">
        <ele>544.60000000000002</ele>
        <time>2019-06-23T06:57:14Z</time>
      </trkpt>
      <trkpt lat="42.838207008317113" lon="-2.60493197478354">
        <ele>545</ele>
        <time>2019-06-23T06:57:16Z</time>
      </trkpt>
      <trkpt lat="42.838212959468365" lon="-2.604857962578535">
        <ele>545</ele>
        <time>2019-06-23T06:57:17Z</time>
      </trkpt>
      <trkpt lat="42.838218994438648" lon="-2.604785040020943">
        <ele>545.20000000000005</ele>
        <time>2019-06-23T06:57:18Z</time>
      </trkpt>
      <trkpt lat="42.838229974731803" lon="-2.604638021439314">
        <ele>545.39999999999998</ele>
        <time>2019-06-23T06:57:20Z</time>
      </trkpt>
      <trkpt lat="42.838241038843989" lon="-2.604491002857685">
        <ele>545.60000000000002</ele>
        <time>2019-06-23T06:57:22Z</time>
      </trkpt>
      <trkpt lat="42.838252019137144" lon="-2.604342978447676">
        <ele>545.79999999999995</ele>
        <time>2019-06-23T06:57:24Z</time>
      </trkpt>
      <trkpt lat="42.838262999430299" lon="-2.604197971522808">
        <ele>546</ele>
        <time>2019-06-23T06:57:26Z</time>
      </trkpt>
      <trkpt lat="42.838274985551834" lon="-2.60405296459794">
        <ele>546.20000000000005</ele>
        <time>2019-06-23T06:57:28Z</time>
      </trkpt>
      <trkpt lat="42.838286971673369" lon="-2.603906029835343">
        <ele>546.39999999999998</ele>
        <time>2019-06-23T06:57:30Z</time>
      </trkpt>
      <trkpt lat="42.838298035785556" lon="-2.603758005425334">
        <ele>546.60000000000002</ele>
        <time>2019-06-23T06:57:32Z</time>
      </trkpt>
      <trkpt lat="42.838309016078711" lon="-2.603609981015325">
        <ele>546.79999999999995</ele>
        <time>2019-06-23T06:57:34Z</time>
      </trkpt>
      <trkpt lat="42.838314967229962" lon="-2.603536974638701">
        <ele>546.79999999999995</ele>
        <time>2019-06-23T06:57:35Z</time>
      </trkpt>
      <trkpt lat="42.838319996371865" lon="-2.603463968262076">
        <ele>547</ele>
        <time>2019-06-23T06:57:36Z</time>
      </trkpt>
      <trkpt lat="42.838331982493401" lon="-2.60331803932786">
        <ele>547</ele>
        <time>2019-06-23T06:57:38Z</time>
      </trkpt>
      <trkpt lat="42.838342962786555" lon="-2.603172026574612">
        <ele>547</ele>
        <time>2019-06-23T06:57:40Z</time>
      </trkpt>
      <trkpt lat="42.838354026898742" lon="-2.603025007992983">
        <ele>547.20000000000005</ele>
        <time>2019-06-23T06:57:42Z</time>
      </trkpt>
      <trkpt lat="42.838365007191896" lon="-2.602875977754593">
        <ele>547.60000000000002</ele>
        <time>2019-06-23T06:57:44Z</time>
      </trkpt>
      <trkpt lat="42.838375987485051" lon="-2.602724013850093">
        <ele>547.60000000000002</ele>
        <time>2019-06-23T06:57:46Z</time>
      </trkpt>
      <trkpt lat="42.838387973606586" lon="-2.602572971954942">
        <ele>548</ele>
        <time>2019-06-23T06:57:48Z</time>
      </trkpt>
      <trkpt lat="42.83839400857687" lon="-2.602497031912208">
        <ele>548</ele>
        <time>2019-06-23T06:57:49Z</time>
      </trkpt>
      <trkpt lat="42.838399959728122" lon="-2.602421008050442">
        <ele>548</ele>
        <time>2019-06-23T06:57:50Z</time>
      </trkpt>
      <trkpt lat="42.838412029668689" lon="-2.60226896032691">
        <ele>548.20000000000005</ele>
        <time>2019-06-23T06:57:52Z</time>
      </trkpt>
      <trkpt lat="42.838424015790224" lon="-2.60211699642241">
        <ele>548.39999999999998</ele>
        <time>2019-06-23T06:57:54Z</time>
      </trkpt>
      <trkpt lat="42.838436001911759" lon="-2.601966038346291">
        <ele>548.60000000000002</ele>
        <time>2019-06-23T06:57:56Z</time>
      </trkpt>
      <trkpt lat="42.838447988033295" lon="-2.60181499645114">
        <ele>548.79999999999995</ele>
        <time>2019-06-23T06:57:58Z</time>
      </trkpt>
      <trkpt lat="42.838458968326449" lon="-2.60166403837502">
        <ele>548.79999999999995</ele>
        <time>2019-06-23T06:58:00Z</time>
      </trkpt>
      <trkpt lat="42.838471038267016" lon="-2.601512996479869">
        <ele>548.79999999999995</ele>
        <time>2019-06-23T06:58:02Z</time>
      </trkpt>
      <trkpt lat="42.838476989418268" lon="-2.601436972618103">
        <ele>548.79999999999995</ele>
        <time>2019-06-23T06:58:03Z</time>
      </trkpt>
      <trkpt lat="42.838483024388552" lon="-2.60136203840375">
        <ele>549</ele>
        <time>2019-06-23T06:58:04Z</time>
      </trkpt>
      <trkpt lat="42.838496016338468" lon="-2.601210996508598">
        <ele>548.79999999999995</ele>
        <time>2019-06-23T06:58:06Z</time>
      </trkpt>
      <trkpt lat="42.838509008288383" lon="-2.601058026775718">
        <ele>549</ele>
        <time>2019-06-23T06:58:08Z</time>
      </trkpt>
      <trkpt lat="42.838520994409919" lon="-2.600904973223805">
        <ele>549</ele>
        <time>2019-06-23T06:58:10Z</time>
      </trkpt>
      <trkpt lat="42.838530968874693" lon="-2.600749991834164">
        <ele>549.39999999999998</ele>
        <time>2019-06-23T06:58:12Z</time>
      </trkpt>
      <trkpt lat="42.838540021330118" lon="-2.600592998787761">
        <ele>549.39999999999998</ele>
        <time>2019-06-23T06:58:14Z</time>
      </trkpt>
      <trkpt lat="42.838553013280034" lon="-2.600437011569738">
        <ele>549.60000000000002</ele>
        <time>2019-06-23T06:58:16Z</time>
      </trkpt>
      <trkpt lat="42.838559970259666" lon="-2.600358976051211">
        <ele>549.79999999999995</ele>
        <time>2019-06-23T06:58:17Z</time>
      </trkpt>
      <trkpt lat="42.83856600522995" lon="-2.600280018523336">
        <ele>549.79999999999995</ele>
        <time>2019-06-23T06:58:18Z</time>
      </trkpt>
      <trkpt lat="42.838578997179866" lon="-2.600122019648552">
        <ele>550.20000000000005</ele>
        <time>2019-06-23T06:58:20Z</time>
      </trkpt>
      <trkpt lat="42.838592994958162" lon="-2.599958991631866">
        <ele>550.39999999999998</ele>
        <time>2019-06-23T06:58:22Z</time>
      </trkpt>
      <trkpt lat="42.838606992736459" lon="-2.599791018292308">
        <ele>550.39999999999998</ele>
        <time>2019-06-23T06:58:24Z</time>
      </trkpt>
      <trkpt lat="42.838621996343136" lon="-2.599616004154086">
        <ele>550.60000000000002</ele>
        <time>2019-06-23T06:58:26Z</time>
      </trkpt>
      <trkpt lat="42.838638005778193" lon="-2.599437972530723">
        <ele>550.60000000000002</ele>
        <time>2019-06-23T06:58:28Z</time>
      </trkpt>
      <trkpt lat="42.83865200355649" lon="-2.599256001412869">
        <ele>550.60000000000002</ele>
        <time>2019-06-23T06:58:30Z</time>
      </trkpt>
      <trkpt lat="42.838668012991548" lon="-2.599069001153112">
        <ele>550.60000000000002</ele>
        <time>2019-06-23T06:58:32Z</time>
      </trkpt>
      <trkpt lat="42.838684022426605" lon="-2.598877977579832">
        <ele>550.60000000000002</ele>
        <time>2019-06-23T06:58:34Z</time>
      </trkpt>
      <trkpt lat="42.838700031861663" lon="-2.598682008683682">
        <ele>550.60000000000002</ele>
        <time>2019-06-23T06:58:36Z</time>
      </trkpt>
      <trkpt lat="42.838707994669676" lon="-2.598582012578845">
        <ele>550.20000000000005</ele>
        <time>2019-06-23T06:58:37Z</time>
      </trkpt>
      <trkpt lat="42.838716041296721" lon="-2.598481010645628">
        <ele>550.20000000000005</ele>
        <time>2019-06-23T06:58:38Z</time>
      </trkpt>
      <trkpt lat="42.838725009933114" lon="-2.59837900288403">
        <ele>549.79999999999995</ele>
        <time>2019-06-23T06:58:39Z</time>
      </trkpt>
      <trkpt lat="42.838732972741127" lon="-2.598276995122433">
        <ele>549.79999999999995</ele>
        <time>2019-06-23T06:58:40Z</time>
      </trkpt>
      <trkpt lat="42.838748982176185" lon="-2.598072979599237">
        <ele>549.60000000000002</ele>
        <time>2019-06-23T06:58:42Z</time>
      </trkpt>
      <trkpt lat="42.838765997439623" lon="-2.597867036238313">
        <ele>549.39999999999998</ele>
        <time>2019-06-23T06:58:44Z</time>
      </trkpt>
      <trkpt lat="42.838783012703061" lon="-2.597657991573215">
        <ele>549.20000000000005</ele>
        <time>2019-06-23T06:58:46Z</time>
      </trkpt>
      <trkpt lat="42.838800027966499" lon="-2.597447019070387">
        <ele>549</ele>
        <time>2019-06-23T06:58:48Z</time>
      </trkpt>
      <trkpt lat="42.838817965239286" lon="-2.597235962748528">
        <ele>548.60000000000002</ele>
        <time>2019-06-23T06:58:50Z</time>
      </trkpt>
      <trkpt lat="42.838834980502725" lon="-2.5970249902457">
        <ele>548.39999999999998</ele>
        <time>2019-06-23T06:58:52Z</time>
      </trkpt>
      <trkpt lat="42.838850989937782" lon="-2.596815023571253">
        <ele>548.39999999999998</ele>
        <time>2019-06-23T06:58:54Z</time>
      </trkpt>
      <trkpt lat="42.838868005201221" lon="-2.596606984734535">
        <ele>548.20000000000005</ele>
        <time>2019-06-23T06:58:56Z</time>
      </trkpt>
      <trkpt lat="42.838886026293039" lon="-2.596399029716849">
        <ele>547.79999999999995</ele>
        <time>2019-06-23T06:58:58Z</time>
      </trkpt>
      <trkpt lat="42.838903963565826" lon="-2.596193002536893">
        <ele>547.79999999999995</ele>
        <time>2019-06-23T06:59:00Z</time>
      </trkpt>
      <trkpt lat="42.838919973000884" lon="-2.595985969528556">
        <ele>547.79999999999995</ele>
        <time>2019-06-23T06:59:02Z</time>
      </trkpt>
      <trkpt lat="42.838936988264322" lon="-2.59577801451087">
        <ele>547.39999999999998</ele>
        <time>2019-06-23T06:59:04Z</time>
      </trkpt>
      <trkpt lat="42.838951991870999" lon="-2.595568969845772">
        <ele>547.60000000000002</ele>
        <time>2019-06-23T06:59:06Z</time>
      </trkpt>
      <trkpt lat="42.838965989649296" lon="-2.595360008999705">
        <ele>547.39999999999998</ele>
        <time>2019-06-23T06:59:08Z</time>
      </trkpt>
      <trkpt lat="42.838978981599212" lon="-2.595149958506227">
        <ele>547.20000000000005</ele>
        <time>2019-06-23T06:59:10Z</time>
      </trkpt>
      <trkpt lat="42.838989961892366" lon="-2.594936974346638">
        <ele>547</ele>
        <time>2019-06-23T06:59:12Z</time>
      </trkpt>
      <trkpt lat="42.839001026004553" lon="-2.594723990187049">
        <ele>546.79999999999995</ele>
        <time>2019-06-23T06:59:14Z</time>
      </trkpt>
      <trkpt lat="42.839011000469327" lon="-2.59451000019908">
        <ele>546.79999999999995</ele>
        <time>2019-06-23T06:59:16Z</time>
      </trkpt>
      <trkpt lat="42.83901896327734" lon="-2.59429500438273">
        <ele>546.79999999999995</ele>
        <time>2019-06-23T06:59:18Z</time>
      </trkpt>
      <trkpt lat="42.839024998247623" lon="-2.594079002737999">
        <ele>546.60000000000002</ele>
        <time>2019-06-23T06:59:20Z</time>
      </trkpt>
      <trkpt lat="42.839030027389526" lon="-2.593861995264888">
        <ele>546</ele>
        <time>2019-06-23T06:59:22Z</time>
      </trkpt>
      <trkpt lat="42.839032039046288" lon="-2.593753030523658">
        <ele>546</ele>
        <time>2019-06-23T06:59:23Z</time>
      </trkpt>
      <trkpt lat="42.839033966884017" lon="-2.593644987791777">
        <ele>545.60000000000002</ele>
        <time>2019-06-23T06:59:24Z</time>
      </trkpt>
      <trkpt lat="42.839036984369159" lon="-2.593427980318666">
        <ele>545.39999999999998</ele>
        <time>2019-06-23T06:59:26Z</time>
      </trkpt>
      <trkpt lat="42.83903899602592" lon="-2.593209967017174">
        <ele>545</ele>
        <time>2019-06-23T06:59:28Z</time>
      </trkpt>
      <trkpt lat="42.83903899602592" lon="-2.592992037534714">
        <ele>544.79999999999995</ele>
        <time>2019-06-23T06:59:30Z</time>
      </trkpt>
      <trkpt lat="42.839037990197539" lon="-2.592773018404841">
        <ele>544.20000000000005</ele>
        <time>2019-06-23T06:59:32Z</time>
      </trkpt>
      <trkpt lat="42.839033966884017" lon="-2.592553999274969">
        <ele>544</ele>
        <time>2019-06-23T06:59:34Z</time>
      </trkpt>
      <trkpt lat="42.839029021561146" lon="-2.592334980145097">
        <ele>543.79999999999995</ele>
        <time>2019-06-23T06:59:36Z</time>
      </trkpt>
      <trkpt lat="42.839024998247623" lon="-2.592225009575486">
        <ele>543.60000000000002</ele>
        <time>2019-06-23T06:59:37Z</time>
      </trkpt>
      <trkpt lat="42.839021980762482" lon="-2.592115039005876">
        <ele>543.39999999999998</ele>
        <time>2019-06-23T06:59:38Z</time>
      </trkpt>
      <trkpt lat="42.839018041267991" lon="-2.592004984617233">
        <ele>543</ele>
        <time>2019-06-23T06:59:39Z</time>
      </trkpt>
      <trkpt lat="42.839013012126088" lon="-2.591896019876003">
        <ele>543.20000000000005</ele>
        <time>2019-06-23T06:59:40Z</time>
      </trkpt>
      <trkpt lat="42.839002031832933" lon="-2.591679012402892">
        <ele>542.79999999999995</ele>
        <time>2019-06-23T06:59:42Z</time>
      </trkpt>
      <trkpt lat="42.838999014347792" lon="-2.591570969671011">
        <ele>543</ele>
        <time>2019-06-23T06:59:43Z</time>
      </trkpt>
      <trkpt lat="42.83899599686265" lon="-2.5914609991014">
        <ele>542.79999999999995</ele>
        <time>2019-06-23T06:59:44Z</time>
      </trkpt>
      <trkpt lat="42.838984010741115" lon="-2.591241979971528">
        <ele>542.79999999999995</ele>
        <time>2019-06-23T06:59:46Z</time>
      </trkpt>
      <trkpt lat="42.838976969942451" lon="-2.591132009401918">
        <ele>542.60000000000002</ele>
        <time>2019-06-23T06:59:47Z</time>
      </trkpt>
      <trkpt lat="42.838970012962818" lon="-2.591021033003926">
        <ele>542.79999999999995</ele>
        <time>2019-06-23T06:59:48Z</time>
      </trkpt>
      <trkpt lat="42.838954003527761" lon="-2.590800002217293">
        <ele>542.60000000000002</ele>
        <time>2019-06-23T06:59:50Z</time>
      </trkpt>
      <trkpt lat="42.838935982435942" lon="-2.590576959773898">
        <ele>542.39999999999998</ele>
        <time>2019-06-23T06:59:52Z</time>
      </trkpt>
      <trkpt lat="42.838928019627929" lon="-2.590464977547526">
        <ele>542.39999999999998</ele>
        <time>2019-06-23T06:59:53Z</time>
      </trkpt>
      <trkpt lat="42.838918967172503" lon="-2.590354001149535">
        <ele>542.39999999999998</ele>
        <time>2019-06-23T06:59:54Z</time>
      </trkpt>
      <trkpt lat="42.838901029899716" lon="-2.590131964534521">
        <ele>542.20000000000005</ele>
        <time>2019-06-23T06:59:56Z</time>
      </trkpt>
      <trkpt lat="42.838880997151136" lon="-2.589910011738539">
        <ele>542.20000000000005</ele>
        <time>2019-06-23T06:59:58Z</time>
      </trkpt>
      <trkpt lat="42.838858030736446" lon="-2.589688980951905">
        <ele>542.20000000000005</ele>
        <time>2019-06-23T07:00:00Z</time>
      </trkpt>
      <trkpt lat="42.838833974674344" lon="-2.589468033984304">
        <ele>541.20000000000005</ele>
        <time>2019-06-23T07:00:02Z</time>
      </trkpt>
      <trkpt lat="42.838806984946132" lon="-2.589248009026051">
        <ele>540.60000000000002</ele>
        <time>2019-06-23T07:00:04Z</time>
      </trkpt>
      <trkpt lat="42.838778989389539" lon="-2.589027984067798">
        <ele>539.79999999999995</ele>
        <time>2019-06-23T07:00:06Z</time>
      </trkpt>
      <trkpt lat="42.838748982176185" lon="-2.588807037100196">
        <ele>539.60000000000002</ele>
        <time>2019-06-23T07:00:08Z</time>
      </trkpt>
      <trkpt lat="42.838719980791211" lon="-2.588586006313562">
        <ele>539.39999999999998</ele>
        <time>2019-06-23T07:00:10Z</time>
      </trkpt>
      <trkpt lat="42.838687961921096" lon="-2.588364975526929">
        <ele>539.20000000000005</ele>
        <time>2019-06-23T07:00:12Z</time>
      </trkpt>
      <trkpt lat="42.838655021041632" lon="-2.588142016902566">
        <ele>539.20000000000005</ele>
        <time>2019-06-23T07:00:14Z</time>
      </trkpt>
      <trkpt lat="42.838621996343136" lon="-2.587921991944313">
        <ele>539.20000000000005</ele>
        <time>2019-06-23T07:00:16Z</time>
      </trkpt>
      <trkpt lat="42.83858603797853" lon="-2.58770196698606">
        <ele>539.20000000000005</ele>
        <time>2019-06-23T07:00:18Z</time>
      </trkpt>
      <trkpt lat="42.83856600522995" lon="-2.58759199641645">
        <ele>539.20000000000005</ele>
        <time>2019-06-23T07:00:19Z</time>
      </trkpt>
      <trkpt lat="42.83854597248137" lon="-2.587482025846839">
        <ele>539</ele>
        <time>2019-06-23T07:00:20Z</time>
      </trkpt>
      <trkpt lat="42.838510014116764" lon="-2.587259989231825">
        <ele>538.79999999999995</ele>
        <time>2019-06-23T07:00:22Z</time>
      </trkpt>
      <trkpt lat="42.838471038267016" lon="-2.587040970101953">
        <ele>538.60000000000002</ele>
        <time>2019-06-23T07:00:24Z</time>
      </trkpt>
      <trkpt lat="42.838426027446985" lon="-2.586827985942364">
        <ele>538.39999999999998</ele>
        <time>2019-06-23T07:00:26Z</time>
      </trkpt>
      <trkpt lat="42.838407000526786" lon="-2.586722038686276">
        <ele>538</ele>
        <time>2019-06-23T07:00:27Z</time>
      </trkpt>
      <trkpt lat="42.838385961949825" lon="-2.586619025096297">
        <ele>537.79999999999995</ele>
        <time>2019-06-23T07:00:28Z</time>
      </trkpt>
      <trkpt lat="42.838344974443316" lon="-2.586415009573102">
        <ele>537.60000000000002</ele>
        <time>2019-06-23T07:00:30Z</time>
      </trkpt>
      <trkpt lat="42.838301975280046" lon="-2.586219040676951">
        <ele>537.39999999999998</ele>
        <time>2019-06-23T07:00:32Z</time>
      </trkpt>
      <trkpt lat="42.838259981945157" lon="-2.586026005446911">
        <ele>536.79999999999995</ele>
        <time>2019-06-23T07:00:34Z</time>
      </trkpt>
      <trkpt lat="42.838239027187228" lon="-2.585931960493326">
        <ele>536.79999999999995</ele>
        <time>2019-06-23T07:00:35Z</time>
      </trkpt>
      <trkpt lat="42.838215976953506" lon="-2.585840011015534">
        <ele>536.79999999999995</ele>
        <time>2019-06-23T07:00:36Z</time>
      </trkpt>
      <trkpt lat="42.838171971961856" lon="-2.58565803989768">
        <ele>536.60000000000002</ele>
        <time>2019-06-23T07:00:38Z</time>
      </trkpt>
      <trkpt lat="42.838126961141825" lon="-2.585482019931078">
        <ele>536</ele>
        <time>2019-06-23T07:00:40Z</time>
      </trkpt>
      <trkpt lat="42.838080022484064" lon="-2.585311029106379">
        <ele>536</ele>
        <time>2019-06-23T07:00:42Z</time>
      </trkpt>
      <trkpt lat="42.838056972250342" lon="-2.585225030779839">
        <ele>535.79999999999995</ele>
        <time>2019-06-23T07:00:43Z</time>
      </trkpt>
      <trkpt lat="42.838034005835652" lon="-2.585137020796537">
        <ele>535.79999999999995</ele>
        <time>2019-06-23T07:00:44Z</time>
      </trkpt>
      <trkpt lat="42.837987989187241" lon="-2.584961000829935">
        <ele>535.60000000000002</ele>
        <time>2019-06-23T07:00:46Z</time>
      </trkpt>
      <trkpt lat="42.837939038872719" lon="-2.584784980863333">
        <ele>535.60000000000002</ele>
        <time>2019-06-23T07:00:48Z</time>
      </trkpt>
      <trkpt lat="42.837890004739165" lon="-2.584607033059001">
        <ele>535.39999999999998</ele>
        <time>2019-06-23T07:00:50Z</time>
      </trkpt>
      <trkpt lat="42.837840970605612" lon="-2.584430007264018">
        <ele>535.20000000000005</ele>
        <time>2019-06-23T07:00:52Z</time>
      </trkpt>
      <trkpt lat="42.83781498670578" lon="-2.584340991452336">
        <ele>535.39999999999998</ele>
        <time>2019-06-23T07:00:53Z</time>
      </trkpt>
      <trkpt lat="42.837790008634329" lon="-2.584253987297416">
        <ele>535.20000000000005</ele>
        <time>2019-06-23T07:00:54Z</time>
      </trkpt>
      <trkpt lat="42.837738962844014" lon="-2.584078973159194">
        <ele>535.39999999999998</ele>
        <time>2019-06-23T07:00:56Z</time>
      </trkpt>
      <trkpt lat="42.837688000872731" lon="-2.583905970677733">
        <ele>535.20000000000005</ele>
        <time>2019-06-23T07:00:58Z</time>
      </trkpt>
      <trkpt lat="42.837637038901448" lon="-2.583734979853034">
        <ele>535.39999999999998</ele>
        <time>2019-06-23T07:01:00Z</time>
      </trkpt>
      <trkpt lat="42.837582975625992" lon="-2.583566000685096">
        <ele>535.20000000000005</ele>
        <time>2019-06-23T07:01:02Z</time>
      </trkpt>
      <trkpt lat="42.837530001997948" lon="-2.583398027345538">
        <ele>535.20000000000005</ele>
        <time>2019-06-23T07:01:04Z</time>
      </trkpt>
      <trkpt lat="42.837475016713142" lon="-2.583229970186949">
        <ele>535.39999999999998</ele>
        <time>2019-06-23T07:01:06Z</time>
      </trkpt>
      <trkpt lat="42.837418019771576" lon="-2.583063002675772">
        <ele>535.20000000000005</ele>
        <time>2019-06-23T07:01:08Z</time>
      </trkpt>
      <trkpt lat="42.83736202865839" lon="-2.582897963002324">
        <ele>535.20000000000005</ele>
        <time>2019-06-23T07:01:10Z</time>
      </trkpt>
      <trkpt lat="42.837303020060062" lon="-2.582735018804669">
        <ele>535.39999999999998</ele>
        <time>2019-06-23T07:01:12Z</time>
      </trkpt>
      <trkpt lat="42.837274018675089" lon="-2.582653965801001">
        <ele>535.39999999999998</ele>
        <time>2019-06-23T07:01:13Z</time>
      </trkpt>
      <trkpt lat="42.837246023118496" lon="-2.582572996616364">
        <ele>535.39999999999998</ele>
        <time>2019-06-23T07:01:14Z</time>
      </trkpt>
      <trkpt lat="42.837189026176929" lon="-2.582411980256438">
        <ele>535.39999999999998</ele>
        <time>2019-06-23T07:01:16Z</time>
      </trkpt>
      <trkpt lat="42.837131023406982" lon="-2.582253981381655">
        <ele>535.39999999999998</ele>
        <time>2019-06-23T07:01:18Z</time>
      </trkpt>
      <trkpt lat="42.837072014808655" lon="-2.582097994163632">
        <ele>535.60000000000002</ele>
        <time>2019-06-23T07:01:20Z</time>
      </trkpt>
      <trkpt lat="42.837014012038708" lon="-2.581943012773991">
        <ele>535.60000000000002</ele>
        <time>2019-06-23T07:01:22Z</time>
      </trkpt>
      <trkpt lat="42.83695500344038" lon="-2.58179197087884">
        <ele>535.79999999999995</ele>
        <time>2019-06-23T07:01:24Z</time>
      </trkpt>
      <trkpt lat="42.836894989013672" lon="-2.581644030287862">
        <ele>535.79999999999995</ele>
        <time>2019-06-23T07:01:26Z</time>
      </trkpt>
      <trkpt lat="42.836835980415344" lon="-2.581499023362994">
        <ele>536</ele>
        <time>2019-06-23T07:01:28Z</time>
      </trkpt>
      <trkpt lat="42.836777977645397" lon="-2.581358961760998">
        <ele>536.20000000000005</ele>
        <time>2019-06-23T07:01:30Z</time>
      </trkpt>
      <trkpt lat="42.83671896904707" lon="-2.581219989806414">
        <ele>536.39999999999998</ele>
        <time>2019-06-23T07:01:32Z</time>
      </trkpt>
      <trkpt lat="42.836659038439393" lon="-2.58108202368021">
        <ele>536.60000000000002</ele>
        <time>2019-06-23T07:01:34Z</time>
      </trkpt>
      <trkpt lat="42.836629031226039" lon="-2.581011028960347">
        <ele>536.60000000000002</ele>
        <time>2019-06-23T07:01:35Z</time>
      </trkpt>
      <trkpt lat="42.836599024012685" lon="-2.580941040068865">
        <ele>536.79999999999995</ele>
        <time>2019-06-23T07:01:36Z</time>
      </trkpt>
      <trkpt lat="42.836539009585977" lon="-2.580800978466868">
        <ele>537</ele>
        <time>2019-06-23T07:01:38Z</time>
      </trkpt>
      <trkpt lat="42.836476983502507" lon="-2.580659994855523">
        <ele>537.20000000000005</ele>
        <time>2019-06-23T07:01:40Z</time>
      </trkpt>
      <trkpt lat="42.836446976289153" lon="-2.580590005964041">
        <ele>537.39999999999998</ele>
        <time>2019-06-23T07:01:41Z</time>
      </trkpt>
      <trkpt lat="42.836415963247418" lon="-2.580519011244178">
        <ele>537.60000000000002</ele>
        <time>2019-06-23T07:01:42Z</time>
      </trkpt>
      <trkpt lat="42.83635200932622" lon="-2.580378027632833">
        <ele>537.79999999999995</ele>
        <time>2019-06-23T07:01:44Z</time>
      </trkpt>
      <trkpt lat="42.836285959929228" lon="-2.580236960202456">
        <ele>538</ele>
        <time>2019-06-23T07:01:46Z</time>
      </trkpt>
      <trkpt lat="42.836219994351268" lon="-2.58009597659111">
        <ele>538</ele>
        <time>2019-06-23T07:01:48Z</time>
      </trkpt>
      <trkpt lat="42.836154028773308" lon="-2.579955998808146">
        <ele>538</ele>
        <time>2019-06-23T07:01:50Z</time>
      </trkpt>
      <trkpt lat="42.836087979376316" lon="-2.579816021025181">
        <ele>538.20000000000005</ele>
        <time>2019-06-23T07:01:52Z</time>
      </trkpt>
      <trkpt lat="42.836020002141595" lon="-2.579676965251565">
        <ele>538.39999999999998</ele>
        <time>2019-06-23T07:01:54Z</time>
      </trkpt>
      <trkpt lat="42.835952024906874" lon="-2.579537993296981">
        <ele>538.60000000000002</ele>
        <time>2019-06-23T07:01:56Z</time>
      </trkpt>
      <trkpt lat="42.835883041843772" lon="-2.579398015514016">
        <ele>538.60000000000002</ele>
        <time>2019-06-23T07:01:58Z</time>
      </trkpt>
      <trkpt lat="42.835812969133258" lon="-2.5792589597404">
        <ele>538.79999999999995</ele>
        <time>2019-06-23T07:02:00Z</time>
      </trkpt>
      <trkpt lat="42.835741974413395" lon="-2.579118981957436">
        <ele>539</ele>
        <time>2019-06-23T07:02:02Z</time>
      </trkpt>
      <trkpt lat="42.83570802770555" lon="-2.579047987237573">
        <ele>539</ele>
        <time>2019-06-23T07:02:03Z</time>
      </trkpt>
      <trkpt lat="42.835671985521913" lon="-2.57897799834609">
        <ele>539</ele>
        <time>2019-06-23T07:02:04Z</time>
      </trkpt>
      <trkpt lat="42.835599984973669" lon="-2.578839026391506">
        <ele>539.20000000000005</ele>
        <time>2019-06-23T07:02:06Z</time>
      </trkpt>
      <trkpt lat="42.835527984425426" lon="-2.57869997061789">
        <ele>539.20000000000005</ele>
        <time>2019-06-23T07:02:08Z</time>
      </trkpt>
      <trkpt lat="42.835456989705563" lon="-2.578565021976829">
        <ele>539.39999999999998</ele>
        <time>2019-06-23T07:02:10Z</time>
      </trkpt>
      <trkpt lat="42.835422037169337" lon="-2.578497966751456">
        <ele>539.39999999999998</ele>
        <time>2019-06-23T07:02:11Z</time>
      </trkpt>
      <trkpt lat="42.8353859949857" lon="-2.578432001173496">
        <ele>539.39999999999998</ele>
        <time>2019-06-23T07:02:12Z</time>
      </trkpt>
      <trkpt lat="42.835315000265837" lon="-2.578297974541783">
        <ele>539.60000000000002</ele>
        <time>2019-06-23T07:02:14Z</time>
      </trkpt>
      <trkpt lat="42.835279041901231" lon="-2.578232008963823">
        <ele>539.60000000000002</ele>
        <time>2019-06-23T07:02:15Z</time>
      </trkpt>
      <trkpt lat="42.835242999717593" lon="-2.578165959566832">
        <ele>539.60000000000002</ele>
        <time>2019-06-23T07:02:16Z</time>
      </trkpt>
      <trkpt lat="42.835173010826111" lon="-2.578033022582531">
        <ele>539.60000000000002</ele>
        <time>2019-06-23T07:02:18Z</time>
      </trkpt>
      <trkpt lat="42.835102016106248" lon="-2.577901007607579">
        <ele>540</ele>
        <time>2019-06-23T07:02:20Z</time>
      </trkpt>
      <trkpt lat="42.835034038871527" lon="-2.577768992632628">
        <ele>540.20000000000005</ele>
        <time>2019-06-23T07:02:22Z</time>
      </trkpt>
      <trkpt lat="42.834963966161013" lon="-2.577637983486056">
        <ele>540.20000000000005</ele>
        <time>2019-06-23T07:02:24Z</time>
      </trkpt>
      <trkpt lat="42.83489297144115" lon="-2.577505968511105">
        <ele>540.39999999999998</ele>
        <time>2019-06-23T07:02:26Z</time>
      </trkpt>
      <trkpt lat="42.834824994206429" lon="-2.577374037355185">
        <ele>540.20000000000005</ele>
        <time>2019-06-23T07:02:28Z</time>
      </trkpt>
      <trkpt lat="42.834790041670203" lon="-2.577308993786573">
        <ele>540.39999999999998</ele>
        <time>2019-06-23T07:02:29Z</time>
      </trkpt>
      <trkpt lat="42.834755005314946" lon="-2.577244034036994">
        <ele>540.39999999999998</ele>
        <time>2019-06-23T07:02:30Z</time>
      </trkpt>
      <trkpt lat="42.834686022251844" lon="-2.577113024890423">
        <ele>540.39999999999998</ele>
        <time>2019-06-23T07:02:32Z</time>
      </trkpt>
      <trkpt lat="42.834616033360362" lon="-2.576981009915471">
        <ele>540.79999999999995</ele>
        <time>2019-06-23T07:02:34Z</time>
      </trkpt>
      <trkpt lat="42.834545960649848" lon="-2.576847989112139">
        <ele>541</ele>
        <time>2019-06-23T07:02:36Z</time>
      </trkpt>
      <trkpt lat="42.834476977586746" lon="-2.576715974137187">
        <ele>541.20000000000005</ele>
        <time>2019-06-23T07:02:38Z</time>
      </trkpt>
      <trkpt lat="42.834405982866883" lon="-2.576583959162235">
        <ele>541.39999999999998</ele>
        <time>2019-06-23T07:02:40Z</time>
      </trkpt>
      <trkpt lat="42.83433398231864" lon="-2.576451022177935">
        <ele>541.39999999999998</ele>
        <time>2019-06-23T07:02:42Z</time>
      </trkpt>
      <trkpt lat="42.834297018125653" lon="-2.576384972780943">
        <ele>541.60000000000002</ele>
        <time>2019-06-23T07:02:43Z</time>
      </trkpt>
      <trkpt lat="42.834260975942016" lon="-2.576319007202983">
        <ele>541.60000000000002</ele>
        <time>2019-06-23T07:02:44Z</time>
      </trkpt>
      <trkpt lat="42.834189981222153" lon="-2.576185986399651">
        <ele>541.79999999999995</ele>
        <time>2019-06-23T07:02:46Z</time>
      </trkpt>
      <trkpt lat="42.83411898650229" lon="-2.576051959767938">
        <ele>542.20000000000005</ele>
        <time>2019-06-23T07:02:48Z</time>
      </trkpt>
      <trkpt lat="42.834047991782427" lon="-2.575918016955257">
        <ele>542.39999999999998</ele>
        <time>2019-06-23T07:02:50Z</time>
      </trkpt>
      <trkpt lat="42.833975991234183" lon="-2.575784996151924">
        <ele>542.20000000000005</ele>
        <time>2019-06-23T07:02:52Z</time>
      </trkpt>
      <trkpt lat="42.83390499651432" lon="-2.575650969520211">
        <ele>542.39999999999998</ele>
        <time>2019-06-23T07:02:54Z</time>
      </trkpt>
      <trkpt lat="42.833869038149714" lon="-2.575583998113871">
        <ele>542.60000000000002</ele>
        <time>2019-06-23T07:02:55Z</time>
      </trkpt>
      <trkpt lat="42.833832995966077" lon="-2.57551702670753">
        <ele>542.60000000000002</ele>
        <time>2019-06-23T07:02:56Z</time>
      </trkpt>
      <trkpt lat="42.833760995417833" lon="-2.575383000075817">
        <ele>542.79999999999995</ele>
        <time>2019-06-23T07:02:58Z</time>
      </trkpt>
      <trkpt lat="42.83369000069797" lon="-2.575247967615724">
        <ele>542.79999999999995</ele>
        <time>2019-06-23T07:03:00Z</time>
      </trkpt>
      <trkpt lat="42.833618000149727" lon="-2.575113018974662">
        <ele>543</ele>
        <time>2019-06-23T07:03:02Z</time>
      </trkpt>
      <trkpt lat="42.833545999601483" lon="-2.574977986514568">
        <ele>543.20000000000005</ele>
        <time>2019-06-23T07:03:04Z</time>
      </trkpt>
      <trkpt lat="42.83347500488162" lon="-2.574841026216745">
        <ele>543.60000000000002</ele>
        <time>2019-06-23T07:03:06Z</time>
      </trkpt>
      <trkpt lat="42.833438962697983" lon="-2.574772965162993">
        <ele>543.60000000000002</ele>
        <time>2019-06-23T07:03:07Z</time>
      </trkpt>
      <trkpt lat="42.833403004333377" lon="-2.574704987928271">
        <ele>543.60000000000002</ele>
        <time>2019-06-23T07:03:08Z</time>
      </trkpt>
      <trkpt lat="42.833332009613514" lon="-2.574570961296558">
        <ele>543.60000000000002</ele>
        <time>2019-06-23T07:03:10Z</time>
      </trkpt>
      <trkpt lat="42.833261014893651" lon="-2.574437018483877">
        <ele>543.79999999999995</ele>
        <time>2019-06-23T07:03:12Z</time>
      </trkpt>
      <trkpt lat="42.833190020173788" lon="-2.574303997680545">
        <ele>544</ele>
        <time>2019-06-23T07:03:14Z</time>
      </trkpt>
      <trkpt lat="42.833120031282306" lon="-2.574171982705593">
        <ele>544</ele>
        <time>2019-06-23T07:03:16Z</time>
      </trkpt>
      <trkpt lat="42.833048030734062" lon="-2.574039967730641">
        <ele>544</ele>
        <time>2019-06-23T07:03:18Z</time>
      </trkpt>
      <trkpt lat="42.832979969680309" lon="-2.573908036574721">
        <ele>544</ele>
        <time>2019-06-23T07:03:20Z</time>
      </trkpt>
      <trkpt lat="42.832910986617208" lon="-2.57377702742815">
        <ele>544.20000000000005</ele>
        <time>2019-06-23T07:03:22Z</time>
      </trkpt>
      <trkpt lat="42.832843009382486" lon="-2.57364802993834">
        <ele>544.20000000000005</ele>
        <time>2019-06-23T07:03:24Z</time>
      </trkpt>
      <trkpt lat="42.832774026319385" lon="-2.57351903244853">
        <ele>544</ele>
        <time>2019-06-23T07:03:26Z</time>
      </trkpt>
      <trkpt lat="42.832738989964128" lon="-2.573453988879919">
        <ele>544.20000000000005</ele>
        <time>2019-06-23T07:03:27Z</time>
      </trkpt>
      <trkpt lat="42.832704037427902" lon="-2.57338902913034">
        <ele>544</ele>
        <time>2019-06-23T07:03:28Z</time>
      </trkpt>
      <trkpt lat="42.832634970545769" lon="-2.573258019983769">
        <ele>544.20000000000005</ele>
        <time>2019-06-23T07:03:30Z</time>
      </trkpt>
      <trkpt lat="42.832563975825906" lon="-2.573128016665578">
        <ele>544.20000000000005</ele>
        <time>2019-06-23T07:03:32Z</time>
      </trkpt>
      <trkpt lat="42.832491975277662" lon="-2.572998013347387">
        <ele>544.39999999999998</ele>
        <time>2019-06-23T07:03:34Z</time>
      </trkpt>
      <trkpt lat="42.832422992214561" lon="-2.572869015857577">
        <ele>544.60000000000002</ele>
        <time>2019-06-23T07:03:36Z</time>
      </trkpt>
      <trkpt lat="42.832354009151459" lon="-2.572740018367767">
        <ele>544.79999999999995</ele>
        <time>2019-06-23T07:03:38Z</time>
      </trkpt>
      <trkpt lat="42.832286031916738" lon="-2.572610015049577">
        <ele>545.20000000000005</ele>
        <time>2019-06-23T07:03:40Z</time>
      </trkpt>
      <trkpt lat="42.832217970862985" lon="-2.572483029216528">
        <ele>545.20000000000005</ele>
        <time>2019-06-23T07:03:42Z</time>
      </trkpt>
      <trkpt lat="42.832152005285025" lon="-2.572355037555099">
        <ele>545.60000000000002</ele>
        <time>2019-06-23T07:03:44Z</time>
      </trkpt>
      <trkpt lat="42.832085033878684" lon="-2.572226962074637">
        <ele>545.79999999999995</ele>
        <time>2019-06-23T07:03:46Z</time>
      </trkpt>
      <trkpt lat="42.832017978653312" lon="-2.572097964584827">
        <ele>546.39999999999998</ele>
        <time>2019-06-23T07:03:48Z</time>
      </trkpt>
      <trkpt lat="42.831950001418591" lon="-2.571967961266637">
        <ele>546.79999999999995</ele>
        <time>2019-06-23T07:03:50Z</time>
      </trkpt>
      <trkpt lat="42.831882024183869" lon="-2.571838041767478">
        <ele>547</ele>
        <time>2019-06-23T07:03:52Z</time>
      </trkpt>
      <trkpt lat="42.831812035292387" lon="-2.571707032620907">
        <ele>546.79999999999995</ele>
        <time>2019-06-23T07:03:54Z</time>
      </trkpt>
      <trkpt lat="42.831741962581873" lon="-2.571578035131097">
        <ele>547</ele>
        <time>2019-06-23T07:03:56Z</time>
      </trkpt>
      <trkpt lat="42.831674991175532" lon="-2.571448031812906">
        <ele>547.39999999999998</ele>
        <time>2019-06-23T07:03:58Z</time>
      </trkpt>
      <trkpt lat="42.831607013940811" lon="-2.571320040151477">
        <ele>547.39999999999998</ele>
        <time>2019-06-23T07:04:00Z</time>
      </trkpt>
      <trkpt lat="42.83153903670609" lon="-2.571191964671016">
        <ele>547.39999999999998</ele>
        <time>2019-06-23T07:04:02Z</time>
      </trkpt>
      <trkpt lat="42.831472987309098" lon="-2.571064978837967">
        <ele>547.79999999999995</ele>
        <time>2019-06-23T07:04:04Z</time>
      </trkpt>
      <trkpt lat="42.831407021731138" lon="-2.570936987176538">
        <ele>547.79999999999995</ele>
        <time>2019-06-23T07:04:06Z</time>
      </trkpt>
      <trkpt lat="42.831338960677385" lon="-2.570810001343489">
        <ele>548.39999999999998</ele>
        <time>2019-06-23T07:04:08Z</time>
      </trkpt>
      <trkpt lat="42.831271989271045" lon="-2.570682009682059">
        <ele>548.39999999999998</ele>
        <time>2019-06-23T07:04:10Z</time>
      </trkpt>
      <trkpt lat="42.831204012036324" lon="-2.570553012192249">
        <ele>548.79999999999995</ele>
        <time>2019-06-23T07:04:12Z</time>
      </trkpt>
      <trkpt lat="42.831136034801602" lon="-2.57042502053082">
        <ele>549</ele>
        <time>2019-06-23T07:04:14Z</time>
      </trkpt>
      <trkpt lat="42.831067973747849" lon="-2.57029602304101">
        <ele>549</ele>
        <time>2019-06-23T07:04:16Z</time>
      </trkpt>
      <trkpt lat="42.830999996513128" lon="-2.5701670255512">
        <ele>549.20000000000005</ele>
        <time>2019-06-23T07:04:18Z</time>
      </trkpt>
      <trkpt lat="42.830933025106788" lon="-2.57003802806139">
        <ele>549.20000000000005</ele>
        <time>2019-06-23T07:04:20Z</time>
      </trkpt>
      <trkpt lat="42.830864964053035" lon="-2.569910036399961">
        <ele>549.60000000000002</ele>
        <time>2019-06-23T07:04:22Z</time>
      </trkpt>
      <trkpt lat="42.830797992646694" lon="-2.569781960919499">
        <ele>549.60000000000002</ele>
        <time>2019-06-23T07:04:24Z</time>
      </trkpt>
      <trkpt lat="42.830763962119818" lon="-2.569718006998301">
        <ele>549.79999999999995</ele>
        <time>2019-06-23T07:04:25Z</time>
      </trkpt>
      <trkpt lat="42.830730015411973" lon="-2.56965396925807">
        <ele>549.79999999999995</ele>
        <time>2019-06-23T07:04:26Z</time>
      </trkpt>
      <trkpt lat="42.830662038177252" lon="-2.569523965939879">
        <ele>550</ele>
        <time>2019-06-23T07:04:28Z</time>
      </trkpt>
      <trkpt lat="42.830593977123499" lon="-2.569396980106831">
        <ele>550.39999999999998</ele>
        <time>2019-06-23T07:04:30Z</time>
      </trkpt>
      <trkpt lat="42.830529017373919" lon="-2.569269994273782">
        <ele>550.60000000000002</ele>
        <time>2019-06-23T07:04:32Z</time>
      </trkpt>
      <trkpt lat="42.830462967976928" lon="-2.569145020097494">
        <ele>550.79999999999995</ele>
        <time>2019-06-23T07:04:34Z</time>
      </trkpt>
      <trkpt lat="42.830431032925844" lon="-2.569080982357264">
        <ele>551</ele>
        <time>2019-06-23T07:04:35Z</time>
      </trkpt>
      <trkpt lat="42.830399014055729" lon="-2.569018034264445">
        <ele>550.79999999999995</ele>
        <time>2019-06-23T07:04:36Z</time>
      </trkpt>
      <trkpt lat="42.830332964658737" lon="-2.568890964612365">
        <ele>551.20000000000005</ele>
        <time>2019-06-23T07:04:38Z</time>
      </trkpt>
      <trkpt lat="42.830266999080777" lon="-2.568768002092838">
        <ele>551.20000000000005</ele>
        <time>2019-06-23T07:04:40Z</time>
      </trkpt>
      <trkpt lat="42.830167002975941" lon="-2.568592987954617">
        <ele>551.60000000000002</ele>
        <time>2019-06-23T07:04:42Z</time>
      </trkpt>
      <trkpt lat="42.8301449585706" lon="-2.56855501793325">
        <ele>551.79999999999995</ele>
        <time>2019-06-23T07:04:43Z</time>
      </trkpt>
      <trkpt lat="42.83012299798429" lon="-2.568516964092851">
        <ele>551.79999999999995</ele>
        <time>2019-06-23T07:04:44Z</time>
      </trkpt>
      <trkpt lat="42.83003599382937" lon="-2.56836399435997">
        <ele>552.20000000000005</ele>
        <time>2019-06-23T07:04:46Z</time>
      </trkpt>
      <trkpt lat="42.830004980787635" lon="-2.568304985761643">
        <ele>552.20000000000005</ele>
        <time>2019-06-23T07:04:47Z</time>
      </trkpt>
      <trkpt lat="42.8299739677459" lon="-2.568245977163315">
        <ele>552.39999999999998</ele>
        <time>2019-06-23T07:04:48Z</time>
      </trkpt>
      <trkpt lat="42.829943038523197" lon="-2.568188980221748">
        <ele>552.60000000000002</ele>
        <time>2019-06-23T07:04:49Z</time>
      </trkpt>
      <trkpt lat="42.829900039359927" lon="-2.568098958581686">
        <ele>552.79999999999995</ele>
        <time>2019-06-23T07:04:50Z</time>
      </trkpt>
      <trkpt lat="42.829857040196657" lon="-2.568010026589036">
        <ele>553.20000000000005</ele>
        <time>2019-06-23T07:04:52Z</time>
      </trkpt>
      <trkpt lat="42.829824015498161" lon="-2.56795403547585">
        <ele>553.39999999999998</ele>
        <time>2019-06-23T07:04:53Z</time>
      </trkpt>
      <trkpt lat="42.829799959436059" lon="-2.56791103631258">
        <ele>553.79999999999995</ele>
        <time>2019-06-23T07:04:54Z</time>
      </trkpt>
      <trkpt lat="42.829774981364608" lon="-2.567868959158659">
        <ele>554</ele>
        <time>2019-06-23T07:04:55Z</time>
      </trkpt>
      <trkpt lat="42.829726031050086" lon="-2.56778497248888">
        <ele>554.20000000000005</ele>
        <time>2019-06-23T07:04:56Z</time>
      </trkpt>
      <trkpt lat="42.829665010794997" lon="-2.567668966948986">
        <ele>554.79999999999995</ele>
        <time>2019-06-23T07:04:58Z</time>
      </trkpt>
      <trkpt lat="42.829642966389656" lon="-2.567629991099238">
        <ele>554.79999999999995</ele>
        <time>2019-06-23T07:04:59Z</time>
      </trkpt>
      <trkpt lat="42.829619999974966" lon="-2.567592021077871">
        <ele>555</ele>
        <time>2019-06-23T07:05:00Z</time>
      </trkpt>
      <trkpt lat="42.829528972506523" lon="-2.567437961697578">
        <ele>555.79999999999995</ele>
        <time>2019-06-23T07:05:02Z</time>
      </trkpt>
      <trkpt lat="42.82945697195828" lon="-2.567321034148336">
        <ele>556.20000000000005</ele>
        <time>2019-06-23T07:05:04Z</time>
      </trkpt>
      <trkpt lat="42.829386983066797" lon="-2.567204022780061">
        <ele>556.60000000000002</ele>
        <time>2019-06-23T07:05:06Z</time>
      </trkpt>
      <trkpt lat="42.829315988346934" lon="-2.567090028896928">
        <ele>557</ele>
        <time>2019-06-23T07:05:08Z</time>
      </trkpt>
      <trkpt lat="42.829279024153948" lon="-2.567032026126981">
        <ele>557.60000000000002</ele>
        <time>2019-06-23T07:05:10Z</time>
      </trkpt>
      <trkpt lat="42.829205011948943" lon="-2.566917026415467">
        <ele>558.20000000000005</ele>
        <time>2019-06-23T07:05:12Z</time>
      </trkpt>
      <trkpt lat="42.82909001223743" lon="-2.566746035590768">
        <ele>558.39999999999998</ele>
        <time>2019-06-23T07:05:14Z</time>
      </trkpt>
      <trkpt lat="42.829051958397031" lon="-2.566689038649201">
        <ele>558.79999999999995</ele>
        <time>2019-06-23T07:05:16Z</time>
      </trkpt>
      <trkpt lat="42.828938970342278" lon="-2.566516036167741">
        <ele>559.20000000000005</ele>
        <time>2019-06-23T07:05:18Z</time>
      </trkpt>
      <trkpt lat="42.828864958137274" lon="-2.566399024799466">
        <ele>559.39999999999998</ele>
        <time>2019-06-23T07:05:20Z</time>
      </trkpt>
      <trkpt lat="42.828792035579681" lon="-2.566282013431191">
        <ele>559.60000000000002</ele>
        <time>2019-06-23T07:05:22Z</time>
      </trkpt>
      <trkpt lat="42.828755993396044" lon="-2.566223004832864">
        <ele>559.79999999999995</ele>
        <time>2019-06-23T07:05:24Z</time>
      </trkpt>
      <trkpt lat="42.828681981191039" lon="-2.56610800512135">
        <ele>560.20000000000005</ele>
        <time>2019-06-23T07:05:26Z</time>
      </trkpt>
      <trkpt lat="42.828569998964667" lon="-2.56593500263989">
        <ele>560.39999999999998</ele>
        <time>2019-06-23T07:05:28Z</time>
      </trkpt>
      <trkpt lat="42.8285320289433" lon="-2.565876999869943">
        <ele>560.39999999999998</ele>
        <time>2019-06-23T07:05:29Z</time>
      </trkpt>
      <trkpt lat="42.8285320289433" lon="-2.565876999869943">
        <ele>560.60000000000002</ele>
        <time>2019-06-23T07:05:30Z</time>
      </trkpt>
      <trkpt lat="42.828458016738296" lon="-2.565762000158429">
        <ele>560.79999999999995</ele>
        <time>2019-06-23T07:05:32Z</time>
      </trkpt>
      <trkpt lat="42.828384004533291" lon="-2.565648006275296">
        <ele>561</ele>
        <time>2019-06-23T07:05:34Z</time>
      </trkpt>
      <trkpt lat="42.828309992328286" lon="-2.565530994907022">
        <ele>561.39999999999998</ele>
        <time>2019-06-23T07:05:36Z</time>
      </trkpt>
      <trkpt lat="42.828234974294901" lon="-2.565418006852269">
        <ele>561.60000000000002</ele>
        <time>2019-06-23T07:05:38Z</time>
      </trkpt>
      <trkpt lat="42.828200021758676" lon="-2.565361009910703">
        <ele>561.79999999999995</ele>
        <time>2019-06-23T07:05:39Z</time>
      </trkpt>
      <trkpt lat="42.828163979575038" lon="-2.565307030454278">
        <ele>561.79999999999995</ele>
        <time>2019-06-23T07:05:40Z</time>
      </trkpt>
      <trkpt lat="42.828093990683556" lon="-2.565200999379158">
        <ele>562</ele>
        <time>2019-06-23T07:05:42Z</time>
      </trkpt>
      <trkpt lat="42.828027019277215" lon="-2.565094968304038">
        <ele>562.20000000000005</ele>
        <time>2019-06-23T07:05:44Z</time>
      </trkpt>
      <trkpt lat="42.827959964051843" lon="-2.56499002687633">
        <ele>562.20000000000005</ele>
        <time>2019-06-23T07:05:46Z</time>
      </trkpt>
      <trkpt lat="42.827926017343998" lon="-2.564937975257635">
        <ele>562.39999999999998</ele>
        <time>2019-06-23T07:05:47Z</time>
      </trkpt>
      <trkpt lat="42.827890980988741" lon="-2.564887013286352">
        <ele>562.20000000000005</ele>
        <time>2019-06-23T07:05:48Z</time>
      </trkpt>
      <trkpt lat="42.827857034280896" lon="-2.564834961667657">
        <ele>562.39999999999998</ele>
        <time>2019-06-23T07:05:49Z</time>
      </trkpt>
      <trkpt lat="42.8278240095824" lon="-2.564781988039613">
        <ele>562.39999999999998</ele>
        <time>2019-06-23T07:05:50Z</time>
      </trkpt>
      <trkpt lat="42.827757960185409" lon="-2.564679980278015">
        <ele>562.60000000000002</ele>
        <time>2019-06-23T07:05:52Z</time>
      </trkpt>
      <trkpt lat="42.827693000435829" lon="-2.564575960859656">
        <ele>563.20000000000005</ele>
        <time>2019-06-23T07:05:54Z</time>
      </trkpt>
      <trkpt lat="42.827625023201108" lon="-2.564474958926439">
        <ele>563.79999999999995</ele>
        <time>2019-06-23T07:05:56Z</time>
      </trkpt>
      <trkpt lat="42.827557967975736" lon="-2.564372029155493">
        <ele>563.79999999999995</ele>
        <time>2019-06-23T07:05:58Z</time>
      </trkpt>
      <trkpt lat="42.827454032376409" lon="-2.5642179697752">
        <ele>563.79999999999995</ele>
        <time>2019-06-23T07:06:00Z</time>
      </trkpt>
      <trkpt lat="42.827418996021152" lon="-2.564166001975536">
        <ele>564.20000000000005</ele>
        <time>2019-06-23T07:06:02Z</time>
      </trkpt>
      <trkpt lat="42.827314976602793" lon="-2.564008003100753">
        <ele>564.39999999999998</ele>
        <time>2019-06-23T07:06:04Z</time>
      </trkpt>
      <trkpt lat="42.827245993539691" lon="-2.563902977854013">
        <ele>564.79999999999995</ele>
        <time>2019-06-23T07:06:06Z</time>
      </trkpt>
      <trkpt lat="42.82717801630497" lon="-2.563798036426306">
        <ele>565.20000000000005</ele>
        <time>2019-06-23T07:06:08Z</time>
      </trkpt>
      <trkpt lat="42.827110961079597" lon="-2.563689993694425">
        <ele>565.39999999999998</ele>
        <time>2019-06-23T07:06:10Z</time>
      </trkpt>
      <trkpt lat="42.827076008543372" lon="-2.563637020066381">
        <ele>565.60000000000002</ele>
        <time>2019-06-23T07:06:12Z</time>
      </trkpt>
      <trkpt lat="42.826975006610155" lon="-2.563478015363216">
        <ele>565.79999999999995</ele>
        <time>2019-06-23T07:06:14Z</time>
      </trkpt>
      <trkpt lat="42.826908035203815" lon="-2.563371984288096">
        <ele>566</ele>
        <time>2019-06-23T07:06:16Z</time>
      </trkpt>
      <trkpt lat="42.826840979978442" lon="-2.563266959041357">
        <ele>566.60000000000002</ele>
        <time>2019-06-23T07:06:18Z</time>
      </trkpt>
      <trkpt lat="42.826807033270597" lon="-2.563214991241694">
        <ele>566.79999999999995</ele>
        <time>2019-06-23T07:06:19Z</time>
      </trkpt>
      <trkpt lat="42.826774008572102" lon="-2.56316302344203">
        <ele>566.79999999999995</ele>
        <time>2019-06-23T07:06:20Z</time>
      </trkpt>
      <trkpt lat="42.82670795917511" lon="-2.563061015680432">
        <ele>567</ele>
        <time>2019-06-23T07:06:22Z</time>
      </trkpt>
      <trkpt lat="42.82664299942553" lon="-2.562964037060738">
        <ele>567.20000000000005</ele>
        <time>2019-06-23T07:06:24Z</time>
      </trkpt>
      <trkpt lat="42.82657996751368" lon="-2.562868986278772">
        <ele>567.39999999999998</ele>
        <time>2019-06-23T07:06:26Z</time>
      </trkpt>
      <trkpt lat="42.826518025249243" lon="-2.562775025144219">
        <ele>567.60000000000002</ele>
        <time>2019-06-23T07:06:28Z</time>
      </trkpt>
      <trkpt lat="42.826452981680632" lon="-2.562679974362254">
        <ele>568</ele>
        <time>2019-06-23T07:06:30Z</time>
      </trkpt>
      <trkpt lat="42.826389027759433" lon="-2.562581989914179">
        <ele>568.20000000000005</ele>
        <time>2019-06-23T07:06:32Z</time>
      </trkpt>
      <trkpt lat="42.826358014717698" lon="-2.562533039599657">
        <ele>568.60000000000002</ele>
        <time>2019-06-23T07:06:33Z</time>
      </trkpt>
      <trkpt lat="42.826323984190822" lon="-2.562485011294484">
        <ele>568.79999999999995</ele>
        <time>2019-06-23T07:06:34Z</time>
      </trkpt>
      <trkpt lat="42.826290037482977" lon="-2.562436982989311">
        <ele>569</ele>
        <time>2019-06-23T07:06:35Z</time>
      </trkpt>
      <trkpt lat="42.826258018612862" lon="-2.562386021018028">
        <ele>569.20000000000005</ele>
        <time>2019-06-23T07:06:36Z</time>
      </trkpt>
      <trkpt lat="42.82618903554976" lon="-2.562280995771289">
        <ele>570</ele>
        <time>2019-06-23T07:06:38Z</time>
      </trkpt>
      <trkpt lat="42.826155005022883" lon="-2.562231039628387">
        <ele>570.20000000000005</ele>
        <time>2019-06-23T07:06:40Z</time>
      </trkpt>
      <trkpt lat="42.826089961454272" lon="-2.562127020210028">
        <ele>570.60000000000002</ele>
        <time>2019-06-23T07:06:42Z</time>
      </trkpt>
      <trkpt lat="42.825989965349436" lon="-2.561964998021722">
        <ele>571.39999999999998</ele>
        <time>2019-06-23T07:06:44Z</time>
      </trkpt>
      <trkpt lat="42.825919976457953" lon="-2.561855027452111">
        <ele>571.79999999999995</ele>
        <time>2019-06-23T07:06:46Z</time>
      </trkpt>
      <trkpt lat="42.825884018093348" lon="-2.561799036338925">
        <ele>572</ele>
        <time>2019-06-23T07:06:47Z</time>
      </trkpt>
      <trkpt lat="42.82584797590971" lon="-2.561743967235088">
        <ele>572.20000000000005</ele>
        <time>2019-06-23T07:06:48Z</time>
      </trkpt>
      <trkpt lat="42.825776981189847" lon="-2.561631985008717">
        <ele>572.20000000000005</ele>
        <time>2019-06-23T07:06:50Z</time>
      </trkpt>
      <trkpt lat="42.825702968984842" lon="-2.561520002782345">
        <ele>572.39999999999998</ele>
        <time>2019-06-23T07:06:52Z</time>
      </trkpt>
      <trkpt lat="42.825629040598869" lon="-2.561407014727593">
        <ele>572.39999999999998</ele>
        <time>2019-06-23T07:06:54Z</time>
      </trkpt>
      <trkpt lat="42.825554022565484" lon="-2.56129302084446">
        <ele>572.60000000000002</ele>
        <time>2019-06-23T07:06:56Z</time>
      </trkpt>
      <trkpt lat="42.825479004532099" lon="-2.561179026961327">
        <ele>572.60000000000002</ele>
        <time>2019-06-23T07:06:58Z</time>
      </trkpt>
      <trkpt lat="42.825442040339112" lon="-2.56112203001976">
        <ele>572.39999999999998</ele>
        <time>2019-06-23T07:06:59Z</time>
      </trkpt>
      <trkpt lat="42.825405998155475" lon="-2.561064027249813">
        <ele>572.39999999999998</ele>
        <time>2019-06-23T07:07:00Z</time>
      </trkpt>
      <trkpt lat="42.825332991778851" lon="-2.56095196120441">
        <ele>572.60000000000002</ele>
        <time>2019-06-23T07:07:02Z</time>
      </trkpt>
      <trkpt lat="42.825258979573846" lon="-2.560838973149657">
        <ele>572.60000000000002</ele>
        <time>2019-06-23T07:07:04Z</time>
      </trkpt>
      <trkpt lat="42.825184967368841" lon="-2.560722967609763">
        <ele>572.60000000000002</ele>
        <time>2019-06-23T07:07:06Z</time>
      </trkpt>
      <trkpt lat="42.825110033154488" lon="-2.56060796789825">
        <ele>572.60000000000002</ele>
        <time>2019-06-23T07:07:08Z</time>
      </trkpt>
      <trkpt lat="42.825072985142469" lon="-2.560550970956683">
        <ele>572.60000000000002</ele>
        <time>2019-06-23T07:07:09Z</time>
      </trkpt>
      <trkpt lat="42.825035015121102" lon="-2.560493974015117">
        <ele>572.60000000000002</ele>
        <time>2019-06-23T07:07:10Z</time>
      </trkpt>
      <trkpt lat="42.824962008744478" lon="-2.560379980131984">
        <ele>572.39999999999998</ele>
        <time>2019-06-23T07:07:12Z</time>
      </trkpt>
      <trkpt lat="42.82492496073246" lon="-2.560323989018798">
        <ele>572.60000000000002</ele>
        <time>2019-06-23T07:07:14Z</time>
      </trkpt>
      <trkpt lat="42.824814990162849" lon="-2.56015500985086">
        <ele>572.60000000000002</ele>
        <time>2019-06-23T07:07:16Z</time>
      </trkpt>
      <trkpt lat="42.824743995442986" lon="-2.560045039281249">
        <ele>572.60000000000002</ele>
        <time>2019-06-23T07:07:18Z</time>
      </trkpt>
      <trkpt lat="42.824673000723124" lon="-2.559936996549368">
        <ele>572.79999999999995</ele>
        <time>2019-06-23T07:07:20Z</time>
      </trkpt>
      <trkpt lat="42.824603011831641" lon="-2.559827025979757">
        <ele>572.79999999999995</ele>
        <time>2019-06-23T07:07:22Z</time>
      </trkpt>
      <trkpt lat="42.824531011283398" lon="-2.559718983247876">
        <ele>573</ele>
        <time>2019-06-23T07:07:24Z</time>
      </trkpt>
      <trkpt lat="42.824461022391915" lon="-2.559611024335027">
        <ele>573</ele>
        <time>2019-06-23T07:07:26Z</time>
      </trkpt>
      <trkpt lat="42.824392039328814" lon="-2.559505999088287">
        <ele>573.20000000000005</ele>
        <time>2019-06-23T07:07:28Z</time>
      </trkpt>
      <trkpt lat="42.824325989931822" lon="-2.559399968013167">
        <ele>573.79999999999995</ele>
        <time>2019-06-23T07:07:30Z</time>
      </trkpt>
      <trkpt lat="42.824258012697101" lon="-2.559297038242221">
        <ele>574</ele>
        <time>2019-06-23T07:07:32Z</time>
      </trkpt>
      <trkpt lat="42.824223982170224" lon="-2.559243980795145">
        <ele>574.20000000000005</ele>
        <time>2019-06-23T07:07:33Z</time>
      </trkpt>
      <trkpt lat="42.824190035462379" lon="-2.559192012995482">
        <ele>574.20000000000005</ele>
        <time>2019-06-23T07:07:34Z</time>
      </trkpt>
      <trkpt lat="42.824121974408627" lon="-2.559088999405503">
        <ele>574.20000000000005</ele>
        <time>2019-06-23T07:07:36Z</time>
      </trkpt>
      <trkpt lat="42.824056008830667" lon="-2.558986991643906">
        <ele>574.39999999999998</ele>
        <time>2019-06-23T07:07:38Z</time>
      </trkpt>
      <trkpt lat="42.824023989960551" lon="-2.558936029672623">
        <ele>574.60000000000002</ele>
        <time>2019-06-23T07:07:39Z</time>
      </trkpt>
      <trkpt lat="42.823991971090436" lon="-2.558884983882308">
        <ele>574.79999999999995</ele>
        <time>2019-06-23T07:07:40Z</time>
      </trkpt>
      <trkpt lat="42.823926005512476" lon="-2.558784987777472">
        <ele>575</ele>
        <time>2019-06-23T07:07:42Z</time>
      </trkpt>
      <trkpt lat="42.82389298081398" lon="-2.55873603746295">
        <ele>575</ele>
        <time>2019-06-23T07:07:43Z</time>
      </trkpt>
      <trkpt lat="42.823860961943865" lon="-2.558684991672635">
        <ele>575.20000000000005</ele>
        <time>2019-06-23T07:07:44Z</time>
      </trkpt>
      <trkpt lat="42.823794996365905" lon="-2.558582983911037">
        <ele>575.60000000000002</ele>
        <time>2019-06-23T07:07:46Z</time>
      </trkpt>
      <trkpt lat="42.823730036616325" lon="-2.55848198197782">
        <ele>576</ele>
        <time>2019-06-23T07:07:48Z</time>
      </trkpt>
      <trkpt lat="42.823667004704475" lon="-2.558382991701365">
        <ele>576.39999999999998</ele>
        <time>2019-06-23T07:07:50Z</time>
      </trkpt>
      <trkpt lat="42.823600033298135" lon="-2.558284001424909">
        <ele>576.60000000000002</ele>
        <time>2019-06-23T07:07:52Z</time>
      </trkpt>
      <trkpt lat="42.823567008599639" lon="-2.558233961462975">
        <ele>576.60000000000002</ele>
        <time>2019-06-23T07:07:53Z</time>
      </trkpt>
      <trkpt lat="42.823533983901143" lon="-2.558185011148453">
        <ele>576.79999999999995</ele>
        <time>2019-06-23T07:07:54Z</time>
      </trkpt>
      <trkpt lat="42.823469024151564" lon="-2.558085015043616">
        <ele>577.20000000000005</ele>
        <time>2019-06-23T07:07:56Z</time>
      </trkpt>
      <trkpt lat="42.823403980582952" lon="-2.55798602476716">
        <ele>577.20000000000005</ele>
        <time>2019-06-23T07:07:58Z</time>
      </trkpt>
      <trkpt lat="42.823339020833373" lon="-2.557885022833943">
        <ele>577.39999999999998</ele>
        <time>2019-06-23T07:08:00Z</time>
      </trkpt>
      <trkpt lat="42.823275988921523" lon="-2.557781003415585">
        <ele>578</ele>
        <time>2019-06-23T07:08:02Z</time>
      </trkpt>
      <trkpt lat="42.823212035000324" lon="-2.557680001482368">
        <ele>578.39999999999998</ele>
        <time>2019-06-23T07:08:04Z</time>
      </trkpt>
      <trkpt lat="42.823151014745235" lon="-2.557576987892389">
        <ele>579</ele>
        <time>2019-06-23T07:08:06Z</time>
      </trkpt>
      <trkpt lat="42.823092006146908" lon="-2.55747196264565">
        <ele>579.39999999999998</ele>
        <time>2019-06-23T07:08:08Z</time>
      </trkpt>
      <trkpt lat="42.823061998933554" lon="-2.557419994845986">
        <ele>579.60000000000002</ele>
        <time>2019-06-23T07:08:09Z</time>
      </trkpt>
      <trkpt lat="42.82303299754858" lon="-2.557366015389562">
        <ele>579.79999999999995</ele>
        <time>2019-06-23T07:08:10Z</time>
      </trkpt>
      <trkpt lat="42.822974994778633" lon="-2.557255961000919">
        <ele>579.79999999999995</ele>
        <time>2019-06-23T07:08:12Z</time>
      </trkpt>
      <trkpt lat="42.822915986180305" lon="-2.557144984602928">
        <ele>580</ele>
        <time>2019-06-23T07:08:14Z</time>
      </trkpt>
      <trkpt lat="42.822857983410358" lon="-2.557028979063034">
        <ele>580.20000000000005</ele>
        <time>2019-06-23T07:08:16Z</time>
      </trkpt>
      <trkpt lat="42.822798974812031" lon="-2.556911967694759">
        <ele>580.39999999999998</ele>
        <time>2019-06-23T07:08:18Z</time>
      </trkpt>
      <trkpt lat="42.822738038375974" lon="-2.556793028488755">
        <ele>580.79999999999995</ele>
        <time>2019-06-23T07:08:20Z</time>
      </trkpt>
      <trkpt lat="42.82270803116262" lon="-2.556734019890428">
        <ele>580.79999999999995</ele>
        <time>2019-06-23T07:08:21Z</time>
      </trkpt>
      <trkpt lat="42.822679029777646" lon="-2.556674005463719">
        <ele>581</ele>
        <time>2019-06-23T07:08:22Z</time>
      </trkpt>
      <trkpt lat="42.822620021179318" lon="-2.556553976610303">
        <ele>581.20000000000005</ele>
        <time>2019-06-23T07:08:24Z</time>
      </trkpt>
      <trkpt lat="42.82256000675261" lon="-2.556435959413648">
        <ele>581.60000000000002</ele>
        <time>2019-06-23T07:08:26Z</time>
      </trkpt>
      <trkpt lat="42.822499992325902" lon="-2.556320037692785">
        <ele>581.79999999999995</ele>
        <time>2019-06-23T07:08:28Z</time>
      </trkpt>
      <trkpt lat="42.822440983727574" lon="-2.556203026324511">
        <ele>582</ele>
        <time>2019-06-23T07:08:30Z</time>
      </trkpt>
      <trkpt lat="42.822380969300866" lon="-2.556081991642714">
        <ele>582.20000000000005</ele>
        <time>2019-06-23T07:08:32Z</time>
      </trkpt>
      <trkpt lat="42.822318021208048" lon="-2.555956011638045">
        <ele>582.39999999999998</ele>
        <time>2019-06-23T07:08:34Z</time>
      </trkpt>
      <trkpt lat="42.822254989296198" lon="-2.555820979177952">
        <ele>582.60000000000002</ele>
        <time>2019-06-23T07:08:36Z</time>
      </trkpt>
      <trkpt lat="42.822187012061477" lon="-2.555681001394987">
        <ele>582.60000000000002</ele>
        <time>2019-06-23T07:08:38Z</time>
      </trkpt>
      <trkpt lat="42.822115011513233" lon="-2.5555370002985">
        <ele>582.39999999999998</ele>
        <time>2019-06-23T07:08:40Z</time>
      </trkpt>
      <trkpt lat="42.822042005136609" lon="-2.555392999202013">
        <ele>582.20000000000005</ele>
        <time>2019-06-23T07:08:42Z</time>
      </trkpt>
      <trkpt lat="42.821970004588366" lon="-2.555251009762287">
        <ele>582.60000000000002</ele>
        <time>2019-06-23T07:08:44Z</time>
      </trkpt>
      <trkpt lat="42.821899009868503" lon="-2.555109020322561">
        <ele>582</ele>
        <time>2019-06-23T07:08:46Z</time>
      </trkpt>
      <trkpt lat="42.821832038462162" lon="-2.554968958720565">
        <ele>581.60000000000002</ele>
        <time>2019-06-23T07:08:48Z</time>
      </trkpt>
      <trkpt lat="42.821763977408409" lon="-2.554834010079503">
        <ele>581.39999999999998</ele>
        <time>2019-06-23T07:08:50Z</time>
      </trkpt>
      <trkpt lat="42.821697006002069" lon="-2.554701995104551">
        <ele>581.60000000000002</ele>
        <time>2019-06-23T07:08:52Z</time>
      </trkpt>
      <trkpt lat="42.821662975475192" lon="-2.554637035354972">
        <ele>581.39999999999998</ele>
        <time>2019-06-23T07:08:53Z</time>
      </trkpt>
      <trkpt lat="42.821630034595728" lon="-2.554571991786361">
        <ele>581.60000000000002</ele>
        <time>2019-06-23T07:08:54Z</time>
      </trkpt>
      <trkpt lat="42.821565996855497" lon="-2.554447017610073">
        <ele>581.60000000000002</ele>
        <time>2019-06-23T07:08:56Z</time>
      </trkpt>
      <trkpt lat="42.821533977985382" lon="-2.554383985698223">
        <ele>581.39999999999998</ele>
        <time>2019-06-23T07:08:57Z</time>
      </trkpt>
      <trkpt lat="42.821502964943647" lon="-2.554322965443134">
        <ele>581.60000000000002</ele>
        <time>2019-06-23T07:08:58Z</time>
      </trkpt>
      <trkpt lat="42.821443034335971" lon="-2.554202014580369">
        <ele>581.60000000000002</ele>
        <time>2019-06-23T07:09:00Z</time>
      </trkpt>
      <trkpt lat="42.821383019909263" lon="-2.554081985726953">
        <ele>581.79999999999995</ele>
        <time>2019-06-23T07:09:02Z</time>
      </trkpt>
      <trkpt lat="42.821324011310935" lon="-2.553963968530297">
        <ele>582</ele>
        <time>2019-06-23T07:09:04Z</time>
      </trkpt>
      <trkpt lat="42.821295009925961" lon="-2.55390495993197">
        <ele>582</ele>
        <time>2019-06-23T07:09:05Z</time>
      </trkpt>
      <trkpt lat="42.821266008540988" lon="-2.553846035152674">
        <ele>582.20000000000005</ele>
        <time>2019-06-23T07:09:06Z</time>
      </trkpt>
      <trkpt lat="42.821208005771041" lon="-2.55373002961278">
        <ele>582.60000000000002</ele>
        <time>2019-06-23T07:09:08Z</time>
      </trkpt>
      <trkpt lat="42.821150003001094" lon="-2.553616035729647">
        <ele>582.79999999999995</ele>
        <time>2019-06-23T07:09:10Z</time>
      </trkpt>
      <trkpt lat="42.821092000231147" lon="-2.553502963855863">
        <ele>583.20000000000005</ele>
        <time>2019-06-23T07:09:12Z</time>
      </trkpt>
      <trkpt lat="42.821064004674554" lon="-2.553447978571057">
        <ele>584</ele>
        <time>2019-06-23T07:09:13Z</time>
      </trkpt>
      <trkpt lat="42.821036009117961" lon="-2.553391987457871">
        <ele>584.39999999999998</ele>
        <time>2019-06-23T07:09:14Z</time>
      </trkpt>
      <trkpt lat="42.821008013561368" lon="-2.553337002173066">
        <ele>584.79999999999995</ele>
        <time>2019-06-23T07:09:15Z</time>
      </trkpt>
      <trkpt lat="42.820980018004775" lon="-2.55328101105988">
        <ele>584.79999999999995</ele>
        <time>2019-06-23T07:09:16Z</time>
      </trkpt>
      <trkpt lat="42.820953028276563" lon="-2.553225019946694">
        <ele>585</ele>
        <time>2019-06-23T07:09:17Z</time>
      </trkpt>
      <trkpt lat="42.82092503271997" lon="-2.553169028833509">
        <ele>585</ele>
        <time>2019-06-23T07:09:18Z</time>
      </trkpt>
      <trkpt lat="42.820869963616133" lon="-2.553055034950376">
        <ele>585.39999999999998</ele>
        <time>2019-06-23T07:09:20Z</time>
      </trkpt>
      <trkpt lat="42.820813972502947" lon="-2.552940035238862">
        <ele>586</ele>
        <time>2019-06-23T07:09:22Z</time>
      </trkpt>
      <trkpt lat="42.820755969733" lon="-2.552825035527349">
        <ele>586.39999999999998</ele>
        <time>2019-06-23T07:09:24Z</time>
      </trkpt>
      <trkpt lat="42.820696039125323" lon="-2.552710035815835">
        <ele>586.60000000000002</ele>
        <time>2019-06-23T07:09:26Z</time>
      </trkpt>
      <trkpt lat="42.820636024698615" lon="-2.55259302444756">
        <ele>586.79999999999995</ele>
        <time>2019-06-23T07:09:28Z</time>
      </trkpt>
      <trkpt lat="42.820608029142022" lon="-2.552533010020852">
        <ele>586.79999999999995</ele>
        <time>2019-06-23T07:09:29Z</time>
      </trkpt>
      <trkpt lat="42.820579027757049" lon="-2.552474001422525">
        <ele>587</ele>
        <time>2019-06-23T07:09:30Z</time>
      </trkpt>
      <trkpt lat="42.820521024987102" lon="-2.552355984225869">
        <ele>587</ele>
        <time>2019-06-23T07:09:32Z</time>
      </trkpt>
      <trkpt lat="42.820462016388774" lon="-2.552237967029214">
        <ele>587.20000000000005</ele>
        <time>2019-06-23T07:09:34Z</time>
      </trkpt>
      <trkpt lat="42.820404013618827" lon="-2.55212196148932">
        <ele>587.20000000000005</ele>
        <time>2019-06-23T07:09:36Z</time>
      </trkpt>
      <trkpt lat="42.820375012233853" lon="-2.552063958719373">
        <ele>587.20000000000005</ele>
        <time>2019-06-23T07:09:37Z</time>
      </trkpt>
      <trkpt lat="42.82034601084888" lon="-2.552006961777806">
        <ele>587.39999999999998</ele>
        <time>2019-06-23T07:09:38Z</time>
      </trkpt>
      <trkpt lat="42.820289013907313" lon="-2.551892967894673">
        <ele>587.39999999999998</ele>
        <time>2019-06-23T07:09:40Z</time>
      </trkpt>
      <trkpt lat="42.82026001252234" lon="-2.551835970953107">
        <ele>587.39999999999998</ele>
        <time>2019-06-23T07:09:41Z</time>
      </trkpt>
      <trkpt lat="42.820232016965747" lon="-2.55177796818316">
        <ele>587.39999999999998</ele>
        <time>2019-06-23T07:09:42Z</time>
      </trkpt>
      <trkpt lat="42.820176025852561" lon="-2.551664980128408">
        <ele>587.79999999999995</ele>
        <time>2019-06-23T07:09:44Z</time>
      </trkpt>
      <trkpt lat="42.820119028910995" lon="-2.551550986245275">
        <ele>588</ele>
        <time>2019-06-23T07:09:46Z</time>
      </trkpt>
      <trkpt lat="42.820063959807158" lon="-2.551435986533761">
        <ele>588.39999999999998</ele>
        <time>2019-06-23T07:09:48Z</time>
      </trkpt>
      <trkpt lat="42.820006962865591" lon="-2.551318975165486">
        <ele>588.79999999999995</ele>
        <time>2019-06-23T07:09:50Z</time>
      </trkpt>
      <trkpt lat="42.819948038086295" lon="-2.551202969625592">
        <ele>588.79999999999995</ele>
        <time>2019-06-23T07:09:52Z</time>
      </trkpt>
      <trkpt lat="42.819891963154078" lon="-2.551085036247969">
        <ele>589.20000000000005</ele>
        <time>2019-06-23T07:09:54Z</time>
      </trkpt>
      <trkpt lat="42.819834966212511" lon="-2.550967019051313">
        <ele>589.79999999999995</ele>
        <time>2019-06-23T07:09:56Z</time>
      </trkpt>
      <trkpt lat="42.819776963442564" lon="-2.550851013511419">
        <ele>590.20000000000005</ele>
        <time>2019-06-23T07:09:58Z</time>
      </trkpt>
      <trkpt lat="42.819718960672617" lon="-2.550734002143145">
        <ele>590.60000000000002</ele>
        <time>2019-06-23T07:10:00Z</time>
      </trkpt>
      <trkpt lat="42.819661041721702" lon="-2.550620008260012">
        <ele>590.79999999999995</ele>
        <time>2019-06-23T07:10:02Z</time>
      </trkpt>
      <trkpt lat="42.819631034508348" lon="-2.550564017146826">
        <ele>590.79999999999995</ele>
        <time>2019-06-23T07:10:03Z</time>
      </trkpt>
      <trkpt lat="42.819602033123374" lon="-2.550507020205259">
        <ele>591</ele>
        <time>2019-06-23T07:10:04Z</time>
      </trkpt>
      <trkpt lat="42.819541012868285" lon="-2.550395037978888">
        <ele>591.39999999999998</ele>
        <time>2019-06-23T07:10:06Z</time>
      </trkpt>
      <trkpt lat="42.819483010098338" lon="-2.550280038267374">
        <ele>591.79999999999995</ele>
        <time>2019-06-23T07:10:08Z</time>
      </trkpt>
      <trkpt lat="42.819427018985152" lon="-2.550165038555861">
        <ele>592.20000000000005</ele>
        <time>2019-06-23T07:10:10Z</time>
      </trkpt>
      <trkpt lat="42.819369016215205" lon="-2.550050960853696">
        <ele>592.20000000000005</ele>
        <time>2019-06-23T07:10:12Z</time>
      </trkpt>
      <trkpt lat="42.819339009001851" lon="-2.54999496974051">
        <ele>592.39999999999998</ele>
        <time>2019-06-23T07:10:13Z</time>
      </trkpt>
      <trkpt lat="42.819310007616878" lon="-2.549937972798944">
        <ele>592.39999999999998</ele>
        <time>2019-06-23T07:10:14Z</time>
      </trkpt>
      <trkpt lat="42.819254016503692" lon="-2.54982297308743">
        <ele>592.79999999999995</ele>
        <time>2019-06-23T07:10:16Z</time>
      </trkpt>
      <trkpt lat="42.819196013733745" lon="-2.549708979204297">
        <ele>593.20000000000005</ele>
        <time>2019-06-23T07:10:18Z</time>
      </trkpt>
      <trkpt lat="42.819137005135417" lon="-2.549592973664403">
        <ele>593.20000000000005</ele>
        <time>2019-06-23T07:10:20Z</time>
      </trkpt>
      <trkpt lat="42.819080008193851" lon="-2.549475962296128">
        <ele>593.60000000000002</ele>
        <time>2019-06-23T07:10:22Z</time>
      </trkpt>
      <trkpt lat="42.819023011252284" lon="-2.549358028918505">
        <ele>594</ele>
        <time>2019-06-23T07:10:24Z</time>
      </trkpt>
      <trkpt lat="42.818994009867311" lon="-2.549300026148558">
        <ele>594</ele>
        <time>2019-06-23T07:10:25Z</time>
      </trkpt>
      <trkpt lat="42.818964002653956" lon="-2.549243029206991">
        <ele>595</ele>
        <time>2019-06-23T07:10:26Z</time>
      </trkpt>
      <trkpt lat="42.818905999884009" lon="-2.549128029495478">
        <ele>595.60000000000002</ele>
        <time>2019-06-23T07:10:28Z</time>
      </trkpt>
      <trkpt lat="42.818846991285682" lon="-2.549014035612345">
        <ele>596</ele>
        <time>2019-06-23T07:10:30Z</time>
      </trkpt>
      <trkpt lat="42.818789994344115" lon="-2.548899035900831">
        <ele>596.20000000000005</ele>
        <time>2019-06-23T07:10:32Z</time>
      </trkpt>
      <trkpt lat="42.818732997402549" lon="-2.548784036189318">
        <ele>596.39999999999998</ele>
        <time>2019-06-23T07:10:34Z</time>
      </trkpt>
      <trkpt lat="42.818674994632602" lon="-2.548668030649424">
        <ele>596.79999999999995</ele>
        <time>2019-06-23T07:10:36Z</time>
      </trkpt>
      <trkpt lat="42.818615986034274" lon="-2.54855495877564">
        <ele>596.79999999999995</ele>
        <time>2019-06-23T07:10:38Z</time>
      </trkpt>
      <trkpt lat="42.818558989092708" lon="-2.548440964892507">
        <ele>597</ele>
        <time>2019-06-23T07:10:40Z</time>
      </trkpt>
      <trkpt lat="42.818501992151141" lon="-2.548327976837754">
        <ele>597</ele>
        <time>2019-06-23T07:10:42Z</time>
      </trkpt>
      <trkpt lat="42.818443989381194" lon="-2.548214988783002">
        <ele>597.20000000000005</ele>
        <time>2019-06-23T07:10:44Z</time>
      </trkpt>
      <trkpt lat="42.818385986611247" lon="-2.548100994899869">
        <ele>597.60000000000002</ele>
        <time>2019-06-23T07:10:46Z</time>
      </trkpt>
      <trkpt lat="42.818325972184539" lon="-2.547983983531594">
        <ele>597.79999999999995</ele>
        <time>2019-06-23T07:10:48Z</time>
      </trkpt>
      <trkpt lat="42.818296970799565" lon="-2.547924974933267">
        <ele>598</ele>
        <time>2019-06-23T07:10:49Z</time>
      </trkpt>
      <trkpt lat="42.818266041576862" lon="-2.54786403849721">
        <ele>598.20000000000005</ele>
        <time>2019-06-23T07:10:50Z</time>
      </trkpt>
      <trkpt lat="42.818203009665012" lon="-2.547736968845129">
        <ele>598.39999999999998</ele>
        <time>2019-06-23T07:10:52Z</time>
      </trkpt>
      <trkpt lat="42.818136960268021" lon="-2.547602020204067">
        <ele>598.39999999999998</ele>
        <time>2019-06-23T07:10:54Z</time>
      </trkpt>
      <trkpt lat="42.818103013560176" lon="-2.547531025484204">
        <ele>598.60000000000002</ele>
        <time>2019-06-23T07:10:55Z</time>
      </trkpt>
      <trkpt lat="42.818067977204919" lon="-2.547461036592722">
        <ele>598.79999999999995</ele>
        <time>2019-06-23T07:10:56Z</time>
      </trkpt>
      <trkpt lat="42.818032018840313" lon="-2.547391969710589">
        <ele>598.79999999999995</ele>
        <time>2019-06-23T07:10:57Z</time>
      </trkpt>
      <trkpt lat="42.817995976656675" lon="-2.547322986647487">
        <ele>598.79999999999995</ele>
        <time>2019-06-23T07:10:58Z</time>
      </trkpt>
      <trkpt lat="42.817925987765193" lon="-2.547185020521283">
        <ele>598.79999999999995</ele>
        <time>2019-06-23T07:11:00Z</time>
      </trkpt>
      <trkpt lat="42.817855998873711" lon="-2.547044036909938">
        <ele>598.79999999999995</ele>
        <time>2019-06-23T07:11:02Z</time>
      </trkpt>
      <trkpt lat="42.817787015810609" lon="-2.546906992793083">
        <ele>598.39999999999998</ele>
        <time>2019-06-23T07:11:04Z</time>
      </trkpt>
      <trkpt lat="42.817752985283732" lon="-2.546841027215123">
        <ele>597.60000000000002</ele>
        <time>2019-06-23T07:11:05Z</time>
      </trkpt>
      <trkpt lat="42.817719038575888" lon="-2.546775983646512">
        <ele>597.60000000000002</ele>
        <time>2019-06-23T07:11:06Z</time>
      </trkpt>
      <trkpt lat="42.817686013877392" lon="-2.546712029725313">
        <ele>597.39999999999998</ele>
        <time>2019-06-23T07:11:07Z</time>
      </trkpt>
      <trkpt lat="42.817655000835657" lon="-2.546647991985083">
        <ele>597.39999999999998</ele>
        <time>2019-06-23T07:11:08Z</time>
      </trkpt>
      <trkpt lat="42.817624993622303" lon="-2.546585965901613">
        <ele>597.20000000000005</ele>
        <time>2019-06-23T07:11:09Z</time>
      </trkpt>
      <trkpt lat="42.817594986408949" lon="-2.546526035293937">
        <ele>597.20000000000005</ele>
        <time>2019-06-23T07:11:10Z</time>
      </trkpt>
      <trkpt lat="42.817535977810621" lon="-2.546408018097282">
        <ele>597.39999999999998</ele>
        <time>2019-06-23T07:11:12Z</time>
      </trkpt>
      <trkpt lat="42.817507982254028" lon="-2.546349009498954">
        <ele>597.20000000000005</ele>
        <time>2019-06-23T07:11:13Z</time>
      </trkpt>
      <trkpt lat="42.817479986697435" lon="-2.546291006729007">
        <ele>597.20000000000005</ele>
        <time>2019-06-23T07:11:14Z</time>
      </trkpt>
      <trkpt lat="42.817451991140842" lon="-2.54623400978744">
        <ele>597.39999999999998</ele>
        <time>2019-06-23T07:11:15Z</time>
      </trkpt>
      <trkpt lat="42.817423995584249" lon="-2.546176007017493">
        <ele>597.60000000000002</ele>
        <time>2019-06-23T07:11:16Z</time>
      </trkpt>
      <trkpt lat="42.817364986985922" lon="-2.54606100730598">
        <ele>598.20000000000005</ele>
        <time>2019-06-23T07:11:18Z</time>
      </trkpt>
      <trkpt lat="42.817334979772568" lon="-2.546003004536033">
        <ele>598.39999999999998</ele>
        <time>2019-06-23T07:11:19Z</time>
      </trkpt>
      <trkpt lat="42.817303966730833" lon="-2.545946007594466">
        <ele>598.79999999999995</ele>
        <time>2019-06-23T07:11:20Z</time>
      </trkpt>
      <trkpt lat="42.817242024466395" lon="-2.545833019539714">
        <ele>599.60000000000002</ele>
        <time>2019-06-23T07:11:22Z</time>
      </trkpt>
      <trkpt lat="42.817182010039687" lon="-2.54571701399982">
        <ele>599.79999999999995</ele>
        <time>2019-06-23T07:11:24Z</time>
      </trkpt>
      <trkpt lat="42.817153008654714" lon="-2.545659011229873">
        <ele>600</ele>
        <time>2019-06-23T07:11:25Z</time>
      </trkpt>
      <trkpt lat="42.81712300144136" lon="-2.545600002631545">
        <ele>600</ele>
        <time>2019-06-23T07:11:26Z</time>
      </trkpt>
      <trkpt lat="42.817063992843032" lon="-2.545483997091651">
        <ele>600.60000000000002</ele>
        <time>2019-06-23T07:11:28Z</time>
      </trkpt>
      <trkpt lat="42.817005990073085" lon="-2.545367991551757">
        <ele>601</ele>
        <time>2019-06-23T07:11:30Z</time>
      </trkpt>
      <trkpt lat="42.816948993131518" lon="-2.545253997668624">
        <ele>601.20000000000005</ele>
        <time>2019-06-23T07:11:32Z</time>
      </trkpt>
      <trkpt lat="42.816893002018332" lon="-2.54513899795711">
        <ele>601.60000000000002</ele>
        <time>2019-06-23T07:11:34Z</time>
      </trkpt>
      <trkpt lat="42.816862994804978" lon="-2.545082001015544">
        <ele>601.39999999999998</ele>
        <time>2019-06-23T07:11:35Z</time>
      </trkpt>
      <trkpt lat="42.816833993420005" lon="-2.545025004073978">
        <ele>601.60000000000002</ele>
        <time>2019-06-23T07:11:36Z</time>
      </trkpt>
      <trkpt lat="42.816773978993297" lon="-2.544911010190845">
        <ele>602</ele>
        <time>2019-06-23T07:11:38Z</time>
      </trkpt>
      <trkpt lat="42.816714970394969" lon="-2.544796010479331">
        <ele>602.39999999999998</ele>
        <time>2019-06-23T07:11:40Z</time>
      </trkpt>
      <trkpt lat="42.816657973453403" lon="-2.544682016596198">
        <ele>603</ele>
        <time>2019-06-23T07:11:42Z</time>
      </trkpt>
      <trkpt lat="42.816628972068429" lon="-2.544624013826251">
        <ele>603</ele>
        <time>2019-06-23T07:11:43Z</time>
      </trkpt>
      <trkpt lat="42.816599970683455" lon="-2.544567016884685">
        <ele>603.20000000000005</ele>
        <time>2019-06-23T07:11:44Z</time>
      </trkpt>
      <trkpt lat="42.816540962085128" lon="-2.544453023001552">
        <ele>603.39999999999998</ele>
        <time>2019-06-23T07:11:46Z</time>
      </trkpt>
      <trkpt lat="42.816511038690805" lon="-2.544396026059985">
        <ele>603.60000000000002</ele>
        <time>2019-06-23T07:11:47Z</time>
      </trkpt>
      <trkpt lat="42.816481031477451" lon="-2.544339029118419">
        <ele>603.60000000000002</ele>
        <time>2019-06-23T07:11:48Z</time>
      </trkpt>
      <trkpt lat="42.816422022879124" lon="-2.544224029406905">
        <ele>604.20000000000005</ele>
        <time>2019-06-23T07:11:50Z</time>
      </trkpt>
      <trkpt lat="42.816363014280796" lon="-2.544111041352153">
        <ele>604.60000000000002</ele>
        <time>2019-06-23T07:11:52Z</time>
      </trkpt>
      <trkpt lat="42.816304005682468" lon="-2.543997969478369">
        <ele>605.20000000000005</ele>
        <time>2019-06-23T07:11:54Z</time>
      </trkpt>
      <trkpt lat="42.81624298542738" lon="-2.543885987251997">
        <ele>605.60000000000002</ele>
        <time>2019-06-23T07:11:56Z</time>
      </trkpt>
      <trkpt lat="42.816181965172291" lon="-2.543774005025625">
        <ele>606.20000000000005</ele>
        <time>2019-06-23T07:11:58Z</time>
      </trkpt>
      <trkpt lat="42.816151035949588" lon="-2.543718013912439">
        <ele>606.20000000000005</ele>
        <time>2019-06-23T07:11:59Z</time>
      </trkpt>
      <trkpt lat="42.816119017079473" lon="-2.543663028627634">
        <ele>606.20000000000005</ele>
        <time>2019-06-23T07:12:00Z</time>
      </trkpt>
      <trkpt lat="42.816053973510861" lon="-2.543555991724134">
        <ele>606.39999999999998</ele>
        <time>2019-06-23T07:12:02Z</time>
      </trkpt>
      <trkpt lat="42.815987002104521" lon="-2.543449038639665">
        <ele>606.60000000000002</ele>
        <time>2019-06-23T07:12:04Z</time>
      </trkpt>
      <trkpt lat="42.815917013213038" lon="-2.543344013392925">
        <ele>607</ele>
        <time>2019-06-23T07:12:06Z</time>
      </trkpt>
      <trkpt lat="42.815843001008034" lon="-2.543236976489425">
        <ele>607.20000000000005</ele>
        <time>2019-06-23T07:12:08Z</time>
      </trkpt>
      <trkpt lat="42.815765971317887" lon="-2.543127005919814">
        <ele>607.39999999999998</ele>
        <time>2019-06-23T07:12:10Z</time>
      </trkpt>
      <trkpt lat="42.81568399630487" lon="-2.543016029521823">
        <ele>608</ele>
        <time>2019-06-23T07:12:12Z</time>
      </trkpt>
      <trkpt lat="42.815594980493188" lon="-2.542903041467071">
        <ele>608.39999999999998</ele>
        <time>2019-06-23T07:12:14Z</time>
      </trkpt>
      <trkpt lat="42.815548963844776" lon="-2.542845038697124">
        <ele>608.60000000000002</ele>
        <time>2019-06-23T07:12:15Z</time>
      </trkpt>
      <trkpt lat="42.815502025187016" lon="-2.542787035927177">
        <ele>608.79999999999995</ele>
        <time>2019-06-23T07:12:16Z</time>
      </trkpt>
      <trkpt lat="42.81540596857667" lon="-2.542663989588618">
        <ele>608.79999999999995</ele>
        <time>2019-06-23T07:12:18Z</time>
      </trkpt>
      <trkpt lat="42.815308989956975" lon="-2.542544966563582">
        <ele>608.79999999999995</ele>
        <time>2019-06-23T07:12:20Z</time>
      </trkpt>
      <trkpt lat="42.815215028822422" lon="-2.542429966852069">
        <ele>608.79999999999995</ele>
        <time>2019-06-23T07:12:22Z</time>
      </trkpt>
      <trkpt lat="42.81512500718236" lon="-2.542321002110839">
        <ele>608.79999999999995</ele>
        <time>2019-06-23T07:12:24Z</time>
      </trkpt>
      <trkpt lat="42.81508200801909" lon="-2.542268028482795">
        <ele>608.79999999999995</ele>
        <time>2019-06-23T07:12:25Z</time>
      </trkpt>
      <trkpt lat="42.8150400146842" lon="-2.542214971035719">
        <ele>608.79999999999995</ele>
        <time>2019-06-23T07:12:26Z</time>
      </trkpt>
      <trkpt lat="42.814957033842802" lon="-2.542111035436392">
        <ele>608.60000000000002</ele>
        <time>2019-06-23T07:12:28Z</time>
      </trkpt>
      <trkpt lat="42.814873969182372" lon="-2.542011039331555">
        <ele>608.60000000000002</ele>
        <time>2019-06-23T07:12:30Z</time>
      </trkpt>
      <trkpt lat="42.814791994169354" lon="-2.541911965236068">
        <ele>608.60000000000002</ele>
        <time>2019-06-23T07:12:32Z</time>
      </trkpt>
      <trkpt lat="42.814751006662846" lon="-2.541864020749927">
        <ele>608.79999999999995</ele>
        <time>2019-06-23T07:12:33Z</time>
      </trkpt>
      <trkpt lat="42.814710019156337" lon="-2.541814986616373">
        <ele>608.79999999999995</ele>
        <time>2019-06-23T07:12:34Z</time>
      </trkpt>
      <trkpt lat="42.814629971981049" lon="-2.541717002168298">
        <ele>609</ele>
        <time>2019-06-23T07:12:36Z</time>
      </trkpt>
      <trkpt lat="42.81458898447454" lon="-2.541669979691505">
        <ele>609.20000000000005</ele>
        <time>2019-06-23T07:12:37Z</time>
      </trkpt>
      <trkpt lat="42.814547996968031" lon="-2.541621029376984">
        <ele>609.39999999999998</ele>
        <time>2019-06-23T07:12:38Z</time>
      </trkpt>
      <trkpt lat="42.814465016126633" lon="-2.541522961109877">
        <ele>609.60000000000002</ele>
        <time>2019-06-23T07:12:40Z</time>
      </trkpt>
      <trkpt lat="42.814381029456854" lon="-2.541426988318563">
        <ele>609.79999999999995</ele>
        <time>2019-06-23T07:12:42Z</time>
      </trkpt>
      <trkpt lat="42.814339036121964" lon="-2.541378038004041">
        <ele>610</ele>
        <time>2019-06-23T07:12:43Z</time>
      </trkpt>
      <trkpt lat="42.814296958968043" lon="-2.541329003870487">
        <ele>610</ele>
        <time>2019-06-23T07:12:44Z</time>
      </trkpt>
      <trkpt lat="42.814214983955026" lon="-2.541229007765651">
        <ele>610.39999999999998</ele>
        <time>2019-06-23T07:12:46Z</time>
      </trkpt>
      <trkpt lat="42.814132003113627" lon="-2.541128005832434">
        <ele>610.60000000000002</ele>
        <time>2019-06-23T07:12:48Z</time>
      </trkpt>
      <trkpt lat="42.814049022272229" lon="-2.541025998070836">
        <ele>610.79999999999995</ele>
        <time>2019-06-23T07:12:50Z</time>
      </trkpt>
      <trkpt lat="42.814006023108959" lon="-2.540975036099553">
        <ele>610.79999999999995</ele>
        <time>2019-06-23T07:12:51Z</time>
      </trkpt>
      <trkpt lat="42.813963023945689" lon="-2.540922984480858">
        <ele>611</ele>
        <time>2019-06-23T07:12:52Z</time>
      </trkpt>
      <trkpt lat="42.813874008134007" lon="-2.54081703722477">
        <ele>611</ele>
        <time>2019-06-23T07:12:54Z</time>
      </trkpt>
      <trkpt lat="42.813830003142357" lon="-2.540761968120933">
        <ele>611</ele>
        <time>2019-06-23T07:12:55Z</time>
      </trkpt>
      <trkpt lat="42.813783986493945" lon="-2.540706982836127">
        <ele>611</ele>
        <time>2019-06-23T07:12:56Z</time>
      </trkpt>
      <trkpt lat="42.813736964017153" lon="-2.540650991722941">
        <ele>611</ele>
        <time>2019-06-23T07:12:57Z</time>
      </trkpt>
      <trkpt lat="42.813690025359392" lon="-2.540593994781375">
        <ele>610.79999999999995</ele>
        <time>2019-06-23T07:12:58Z</time>
      </trkpt>
      <trkpt lat="42.813594974577427" lon="-2.540474971756339">
        <ele>610.79999999999995</ele>
        <time>2019-06-23T07:13:00Z</time>
      </trkpt>
      <trkpt lat="42.813495984300971" lon="-2.540354020893574">
        <ele>610.79999999999995</ele>
        <time>2019-06-23T07:13:02Z</time>
      </trkpt>
      <trkpt lat="42.813445022329688" lon="-2.540291994810104">
        <ele>610.79999999999995</ele>
        <time>2019-06-23T07:13:03Z</time>
      </trkpt>
      <trkpt lat="42.813392970710993" lon="-2.540228962898254">
        <ele>610.79999999999995</ele>
        <time>2019-06-23T07:13:04Z</time>
      </trkpt>
      <trkpt lat="42.813341002911329" lon="-2.540166014805436">
        <ele>610.39999999999998</ele>
        <time>2019-06-23T07:13:05Z</time>
      </trkpt>
      <trkpt lat="42.813288029283285" lon="-2.540101977065206">
        <ele>610.39999999999998</ele>
        <time>2019-06-23T07:13:06Z</time>
      </trkpt>
      <trkpt lat="42.813183004036546" lon="-2.539972979575396">
        <ele>610</ele>
        <time>2019-06-23T07:13:08Z</time>
      </trkpt>
      <trkpt lat="42.813130030408502" lon="-2.539909025654197">
        <ele>609.79999999999995</ele>
        <time>2019-06-23T07:13:09Z</time>
      </trkpt>
      <trkpt lat="42.813075967133045" lon="-2.539844987913966">
        <ele>609.60000000000002</ele>
        <time>2019-06-23T07:13:10Z</time>
      </trkpt>
      <trkpt lat="42.812971025705338" lon="-2.539714984595776">
        <ele>609.60000000000002</ele>
        <time>2019-06-23T07:13:12Z</time>
      </trkpt>
      <trkpt lat="42.812864994630218" lon="-2.539589004591107">
        <ele>609.20000000000005</ele>
        <time>2019-06-23T07:13:14Z</time>
      </trkpt>
      <trkpt lat="42.812760975211859" lon="-2.5394650362432">
        <ele>609</ele>
        <time>2019-06-23T07:13:16Z</time>
      </trkpt>
      <trkpt lat="42.812657961621881" lon="-2.539346013218164">
        <ele>608.60000000000002</ele>
        <time>2019-06-23T07:13:18Z</time>
      </trkpt>
      <trkpt lat="42.812556959688663" lon="-2.539233025163412">
        <ele>608.39999999999998</ele>
        <time>2019-06-23T07:13:20Z</time>
      </trkpt>
      <trkpt lat="42.812456963583827" lon="-2.539124982431531">
        <ele>608.39999999999998</ele>
        <time>2019-06-23T07:13:22Z</time>
      </trkpt>
      <trkpt lat="42.812406001612544" lon="-2.539073014631867">
        <ele>608.39999999999998</ele>
        <time>2019-06-23T07:13:23Z</time>
      </trkpt>
      <trkpt lat="42.81235596165061" lon="-2.539024986326695">
        <ele>608.39999999999998</ele>
        <time>2019-06-23T07:13:24Z</time>
      </trkpt>
      <trkpt lat="42.812257977202535" lon="-2.538935970515013">
        <ele>608.39999999999998</ele>
        <time>2019-06-23T07:13:26Z</time>
      </trkpt>
      <trkpt lat="42.81216099858284" lon="-2.538856007158756">
        <ele>608.39999999999998</ele>
        <time>2019-06-23T07:13:28Z</time>
      </trkpt>
      <trkpt lat="42.812064019963145" lon="-2.538790041580796">
        <ele>608.20000000000005</ele>
        <time>2019-06-23T07:13:30Z</time>
      </trkpt>
      <trkpt lat="42.812014985829592" lon="-2.538760034367442">
        <ele>608.60000000000002</ele>
        <time>2019-06-23T07:13:31Z</time>
      </trkpt>
      <trkpt lat="42.811967041343451" lon="-2.538730027154088">
        <ele>609</ele>
        <time>2019-06-23T07:13:32Z</time>
      </trkpt>
      <trkpt lat="42.811922030523419" lon="-2.538701025769115">
        <ele>609.39999999999998</ele>
        <time>2019-06-23T07:13:33Z</time>
      </trkpt>
      <trkpt lat="42.811876013875008" lon="-2.538675963878632">
        <ele>609.79999999999995</ele>
        <time>2019-06-23T07:13:34Z</time>
      </trkpt>
      <trkpt lat="42.811783980578184" lon="-2.538631958886981">
        <ele>610.60000000000002</ele>
        <time>2019-06-23T07:13:36Z</time>
      </trkpt>
      <trkpt lat="42.811738969758153" lon="-2.53860798664391">
        <ele>610.60000000000002</ele>
        <time>2019-06-23T07:13:37Z</time>
      </trkpt>
      <trkpt lat="42.811692031100392" lon="-2.538587031885982">
        <ele>610.79999999999995</ele>
        <time>2019-06-23T07:13:38Z</time>
      </trkpt>
      <trkpt lat="42.811646014451981" lon="-2.538568004965782">
        <ele>611</ele>
        <time>2019-06-23T07:13:39Z</time>
      </trkpt>
      <trkpt lat="42.811598991975188" lon="-2.538550989702344">
        <ele>611.39999999999998</ele>
        <time>2019-06-23T07:13:40Z</time>
      </trkpt>
      <trkpt lat="42.811551969498396" lon="-2.538531040772796">
        <ele>611.79999999999995</ele>
        <time>2019-06-23T07:13:41Z</time>
      </trkpt>
      <trkpt lat="42.811506036669016" lon="-2.538511008024216">
        <ele>612</ele>
        <time>2019-06-23T07:13:42Z</time>
      </trkpt>
      <trkpt lat="42.811411991715431" lon="-2.538475971668959">
        <ele>612.79999999999995</ele>
        <time>2019-06-23T07:13:44Z</time>
      </trkpt>
      <trkpt lat="42.811364969238639" lon="-2.538467003032565">
        <ele>612.79999999999995</ele>
        <time>2019-06-23T07:13:45Z</time>
      </trkpt>
      <trkpt lat="42.811318030580878" lon="-2.538459962233901">
        <ele>613.20000000000005</ele>
        <time>2019-06-23T07:13:46Z</time>
      </trkpt>
      <trkpt lat="42.811268996447325" lon="-2.538449987769127">
        <ele>613.39999999999998</ele>
        <time>2019-06-23T07:13:47Z</time>
      </trkpt>
      <trkpt lat="42.811220968142152" lon="-2.538438001647592">
        <ele>613.79999999999995</ele>
        <time>2019-06-23T07:13:48Z</time>
      </trkpt>
      <trkpt lat="42.811126001179218" lon="-2.538421992212534">
        <ele>614.60000000000002</ele>
        <time>2019-06-23T07:13:50Z</time>
      </trkpt>
      <trkpt lat="42.811078978702426" lon="-2.538420986384153">
        <ele>614.60000000000002</ele>
        <time>2019-06-23T07:13:51Z</time>
      </trkpt>
      <trkpt lat="42.811032040044665" lon="-2.538421992212534">
        <ele>614.79999999999995</ele>
        <time>2019-06-23T07:13:52Z</time>
      </trkpt>
      <trkpt lat="42.810934977605939" lon="-2.538421992212534">
        <ele>615</ele>
        <time>2019-06-23T07:13:54Z</time>
      </trkpt>
      <trkpt lat="42.810835987329483" lon="-2.538417968899012">
        <ele>615.79999999999995</ele>
        <time>2019-06-23T07:13:56Z</time>
      </trkpt>
      <trkpt lat="42.810787037014961" lon="-2.538416041061282">
        <ele>616</ele>
        <time>2019-06-23T07:13:57Z</time>
      </trkpt>
      <trkpt lat="42.810740014538169" lon="-2.538409000262618">
        <ele>616.39999999999998</ele>
        <time>2019-06-23T07:13:58Z</time>
      </trkpt>
      <trkpt lat="42.810695003718138" lon="-2.538397014141083">
        <ele>616.39999999999998</ele>
        <time>2019-06-23T07:13:59Z</time>
      </trkpt>
      <trkpt lat="42.810654016211629" lon="-2.538374969735742">
        <ele>616.39999999999998</ele>
        <time>2019-06-23T07:14:00Z</time>
      </trkpt>
      <trkpt lat="42.810618979856372" lon="-2.538344040513039">
        <ele>617</ele>
        <time>2019-06-23T07:14:01Z</time>
      </trkpt>
      <trkpt lat="42.810590984299779" lon="-2.538310009986162">
        <ele>617.20000000000005</ele>
        <time>2019-06-23T07:14:02Z</time>
      </trkpt>
      <trkpt lat="42.81057002954185" lon="-2.538274973630905">
        <ele>617.60000000000002</ele>
        <time>2019-06-23T07:14:03Z</time>
      </trkpt>
      <trkpt lat="42.810556031763554" lon="-2.538246978074312">
        <ele>617.79999999999995</ele>
        <time>2019-06-23T07:14:04Z</time>
      </trkpt>
      <trkpt lat="42.810543039813638" lon="-2.538196016103029">
        <ele>618</ele>
        <time>2019-06-23T07:14:06Z</time>
      </trkpt>
      <trkpt lat="42.810546979308128" lon="-2.538118986412883">
        <ele>618.79999999999995</ele>
        <time>2019-06-23T07:14:08Z</time>
      </trkpt>
      <trkpt lat="42.810555025935173" lon="-2.538012033328414">
        <ele>619.20000000000005</ele>
        <time>2019-06-23T07:14:10Z</time>
      </trkpt>
      <trkpt lat="42.810567012056708" lon="-2.537886975333095">
        <ele>619.39999999999998</ele>
        <time>2019-06-23T07:14:12Z</time>
      </trkpt>
      <trkpt lat="42.810573969036341" lon="-2.537820003926754">
        <ele>619.60000000000002</ele>
        <time>2019-06-23T07:14:13Z</time>
      </trkpt>
      <trkpt lat="42.810580004006624" lon="-2.537749009206891">
        <ele>619.79999999999995</ele>
        <time>2019-06-23T07:14:14Z</time>
      </trkpt>
      <trkpt lat="42.810584027320147" lon="-2.537674997001886">
        <ele>619.79999999999995</ele>
        <time>2019-06-23T07:14:15Z</time>
      </trkpt>
      <trkpt lat="42.810584027320147" lon="-2.53759796731174">
        <ele>620</ele>
        <time>2019-06-23T07:14:16Z</time>
      </trkpt>
      <trkpt lat="42.810561982914805" lon="-2.537442985922098">
        <ele>620</ele>
        <time>2019-06-23T07:14:18Z</time>
      </trkpt>
      <trkpt lat="42.810509009286761" lon="-2.537306025624275">
        <ele>620</ele>
        <time>2019-06-23T07:14:20Z</time>
      </trkpt>
      <trkpt lat="42.81044295988977" lon="-2.537193959578872">
        <ele>620</ele>
        <time>2019-06-23T07:14:22Z</time>
      </trkpt>
      <trkpt lat="42.810368025675416" lon="-2.537103015929461">
        <ele>619.79999999999995</ele>
        <time>2019-06-23T07:14:24Z</time>
      </trkpt>
      <trkpt lat="42.810288984328508" lon="-2.537022968754172">
        <ele>619.79999999999995</ele>
        <time>2019-06-23T07:14:26Z</time>
      </trkpt>
      <trkpt lat="42.810250008478761" lon="-2.536984998732805">
        <ele>619.79999999999995</ele>
        <time>2019-06-23T07:14:27Z</time>
      </trkpt>
      <trkpt lat="42.810210026800632" lon="-2.536947028711438">
        <ele>620</ele>
        <time>2019-06-23T07:14:28Z</time>
      </trkpt>
      <trkpt lat="42.810169961303473" lon="-2.53690998069942">
        <ele>619.79999999999995</ele>
        <time>2019-06-23T07:14:29Z</time>
      </trkpt>
      <trkpt lat="42.810128973796964" lon="-2.536874022334814">
        <ele>619.79999999999995</ele>
        <time>2019-06-23T07:14:30Z</time>
      </trkpt>
      <trkpt lat="42.810049010440707" lon="-2.53680101595819">
        <ele>620</ele>
        <time>2019-06-23T07:14:32Z</time>
      </trkpt>
      <trkpt lat="42.80997097492218" lon="-2.536725997924805">
        <ele>620</ele>
        <time>2019-06-23T07:14:34Z</time>
      </trkpt>
      <trkpt lat="42.809892017394304" lon="-2.536653997376561">
        <ele>620.39999999999998</ele>
        <time>2019-06-23T07:14:36Z</time>
      </trkpt>
      <trkpt lat="42.809813981875777" lon="-2.536581996828318">
        <ele>620.79999999999995</ele>
        <time>2019-06-23T07:14:38Z</time>
      </trkpt>
      <trkpt lat="42.80977500602603" lon="-2.536545032635331">
        <ele>621</ele>
        <time>2019-06-23T07:14:39Z</time>
      </trkpt>
      <trkpt lat="42.809735024347901" lon="-2.536508990451694">
        <ele>621.20000000000005</ele>
        <time>2019-06-23T07:14:40Z</time>
      </trkpt>
      <trkpt lat="42.809657994657755" lon="-2.536437995731831">
        <ele>621.60000000000002</ele>
        <time>2019-06-23T07:14:42Z</time>
      </trkpt>
      <trkpt lat="42.809579959139228" lon="-2.536367001011968">
        <ele>621.79999999999995</ele>
        <time>2019-06-23T07:14:44Z</time>
      </trkpt>
      <trkpt lat="42.809503013268113" lon="-2.536298017948866">
        <ele>622.39999999999998</ele>
        <time>2019-06-23T07:14:46Z</time>
      </trkpt>
      <trkpt lat="42.809424977749586" lon="-2.536231968551874">
        <ele>622.79999999999995</ele>
        <time>2019-06-23T07:14:48Z</time>
      </trkpt>
      <trkpt lat="42.809348031878471" lon="-2.536163991317153">
        <ele>623</ele>
        <time>2019-06-23T07:14:50Z</time>
      </trkpt>
      <trkpt lat="42.809272008016706" lon="-2.536095008254051">
        <ele>623.39999999999998</ele>
        <time>2019-06-23T07:14:52Z</time>
      </trkpt>
      <trkpt lat="42.80919698998332" lon="-2.536024013534188">
        <ele>623.60000000000002</ele>
        <time>2019-06-23T07:14:54Z</time>
      </trkpt>
      <trkpt lat="42.809121971949935" lon="-2.535952012985945">
        <ele>623.79999999999995</ele>
        <time>2019-06-23T07:14:56Z</time>
      </trkpt>
      <trkpt lat="42.809085007756948" lon="-2.535915970802307">
        <ele>624</ele>
        <time>2019-06-23T07:14:57Z</time>
      </trkpt>
      <trkpt lat="42.809046031907201" lon="-2.535881018266082">
        <ele>624.60000000000002</ele>
        <time>2019-06-23T07:14:58Z</time>
      </trkpt>
      <trkpt lat="42.808969002217054" lon="-2.535810023546219">
        <ele>625.20000000000005</ele>
        <time>2019-06-23T07:15:00Z</time>
      </trkpt>
      <trkpt lat="42.808891972526908" lon="-2.535739028826356">
        <ele>625.39999999999998</ele>
        <time>2019-06-23T07:15:02Z</time>
      </trkpt>
      <trkpt lat="42.808815026655793" lon="-2.535667028278112">
        <ele>625.79999999999995</ele>
        <time>2019-06-23T07:15:04Z</time>
      </trkpt>
      <trkpt lat="42.808735985308886" lon="-2.53559703938663">
        <ele>626.20000000000005</ele>
        <time>2019-06-23T07:15:06Z</time>
      </trkpt>
      <trkpt lat="42.80865996144712" lon="-2.535525038838387">
        <ele>626.79999999999995</ele>
        <time>2019-06-23T07:15:08Z</time>
      </trkpt>
      <trkpt lat="42.808582009747624" lon="-2.535453960299492">
        <ele>627</ele>
        <time>2019-06-23T07:15:10Z</time>
      </trkpt>
      <trkpt lat="42.808504980057478" lon="-2.53538397140801">
        <ele>627.20000000000005</ele>
        <time>2019-06-23T07:15:12Z</time>
      </trkpt>
      <trkpt lat="42.80846600420773" lon="-2.535352036356926">
        <ele>627.39999999999998</ele>
        <time>2019-06-23T07:15:13Z</time>
      </trkpt>
      <trkpt lat="42.808428034186363" lon="-2.535317000001669">
        <ele>627.60000000000002</ele>
        <time>2019-06-23T07:15:14Z</time>
      </trkpt>
      <trkpt lat="42.808355027809739" lon="-2.535244999453425">
        <ele>628.20000000000005</ele>
        <time>2019-06-23T07:15:16Z</time>
      </trkpt>
      <trkpt lat="42.808280009776354" lon="-2.535175010561943">
        <ele>628.39999999999998</ele>
        <time>2019-06-23T07:15:18Z</time>
      </trkpt>
      <trkpt lat="42.808203985914588" lon="-2.535107033327222">
        <ele>628.79999999999995</ele>
        <time>2019-06-23T07:15:20Z</time>
      </trkpt>
      <trkpt lat="42.808128967881203" lon="-2.535036960616708">
        <ele>629.20000000000005</ele>
        <time>2019-06-23T07:15:22Z</time>
      </trkpt>
      <trkpt lat="42.808090997859836" lon="-2.535004019737244">
        <ele>629.39999999999998</ele>
        <time>2019-06-23T07:15:23Z</time>
      </trkpt>
      <trkpt lat="42.808052022010088" lon="-2.534970995038748">
        <ele>629.39999999999998</ele>
        <time>2019-06-23T07:15:24Z</time>
      </trkpt>
      <trkpt lat="42.807977003976703" lon="-2.534902011975646">
        <ele>629.79999999999995</ele>
        <time>2019-06-23T07:15:26Z</time>
      </trkpt>
      <trkpt lat="42.807939033955336" lon="-2.534866975620389">
        <ele>630</ele>
        <time>2019-06-23T07:15:27Z</time>
      </trkpt>
      <trkpt lat="42.807900980114937" lon="-2.534833028912544">
        <ele>630.20000000000005</ele>
        <time>2019-06-23T07:15:28Z</time>
      </trkpt>
      <trkpt lat="42.807824034243822" lon="-2.534765973687172">
        <ele>630.39999999999998</ele>
        <time>2019-06-23T07:15:30Z</time>
      </trkpt>
      <trkpt lat="42.807747004553676" lon="-2.534700008109212">
        <ele>630.79999999999995</ele>
        <time>2019-06-23T07:15:32Z</time>
      </trkpt>
      <trkpt lat="42.807669974863529" lon="-2.534632030874491">
        <ele>631.39999999999998</ele>
        <time>2019-06-23T07:15:34Z</time>
      </trkpt>
      <trkpt lat="42.807594034820795" lon="-2.534561036154628">
        <ele>631.79999999999995</ele>
        <time>2019-06-23T07:15:36Z</time>
      </trkpt>
      <trkpt lat="42.807554975152016" lon="-2.53452499397099">
        <ele>632</ele>
        <time>2019-06-23T07:15:37Z</time>
      </trkpt>
      <trkpt lat="42.807517005130649" lon="-2.534490041434765">
        <ele>632.20000000000005</ele>
        <time>2019-06-23T07:15:38Z</time>
      </trkpt>
      <trkpt lat="42.807441987097263" lon="-2.53441896289587">
        <ele>632.60000000000002</ele>
        <time>2019-06-23T07:15:40Z</time>
      </trkpt>
      <trkpt lat="42.807365041226149" lon="-2.534348974004388">
        <ele>633</ele>
        <time>2019-06-23T07:15:42Z</time>
      </trkpt>
      <trkpt lat="42.807293962687254" lon="-2.534274961799383">
        <ele>633.20000000000005</ele>
        <time>2019-06-23T07:15:44Z</time>
      </trkpt>
      <trkpt lat="42.807230008766055" lon="-2.534188963472843">
        <ele>633.79999999999995</ele>
        <time>2019-06-23T07:15:46Z</time>
      </trkpt>
      <trkpt lat="42.807203019037843" lon="-2.534139007329941">
        <ele>634.20000000000005</ele>
        <time>2019-06-23T07:15:47Z</time>
      </trkpt>
      <trkpt lat="42.807182986289263" lon="-2.534084022045136">
        <ele>634.39999999999998</ele>
        <time>2019-06-23T07:15:48Z</time>
      </trkpt>
      <trkpt lat="42.807181980460882" lon="-2.533959969878197">
        <ele>634.79999999999995</ele>
        <time>2019-06-23T07:15:50Z</time>
      </trkpt>
      <trkpt lat="42.807232020422816" lon="-2.533849999308586">
        <ele>635.39999999999998</ele>
        <time>2019-06-23T07:15:52Z</time>
      </trkpt>
      <trkpt lat="42.807303015142679" lon="-2.533752014860511">
        <ele>635.79999999999995</ele>
        <time>2019-06-23T07:15:54Z</time>
      </trkpt>
      <trkpt lat="42.807345008477569" lon="-2.533700969070196">
        <ele>635.60000000000002</ele>
        <time>2019-06-23T07:15:55Z</time>
      </trkpt>
      <trkpt lat="42.807388007640839" lon="-2.533650007098913">
        <ele>635.79999999999995</ele>
        <time>2019-06-23T07:15:56Z</time>
      </trkpt>
      <trkpt lat="42.807479035109282" lon="-2.533544981852174">
        <ele>635.60000000000002</ele>
        <time>2019-06-23T07:15:58Z</time>
      </trkpt>
      <trkpt lat="42.807575007900596" lon="-2.533436017110944">
        <ele>635.60000000000002</ele>
        <time>2019-06-23T07:16:00Z</time>
      </trkpt>
      <trkpt lat="42.807623958215117" lon="-2.533382037654519">
        <ele>635.79999999999995</ele>
        <time>2019-06-23T07:16:01Z</time>
      </trkpt>
      <trkpt lat="42.807675004005432" lon="-2.533326968550682">
        <ele>635.79999999999995</ele>
        <time>2019-06-23T07:16:02Z</time>
      </trkpt>
      <trkpt lat="42.807770976796746" lon="-2.533218003809452">
        <ele>635.39999999999998</ele>
        <time>2019-06-23T07:16:04Z</time>
      </trkpt>
      <trkpt lat="42.807837026193738" lon="-2.533140974119306">
        <ele>635</ele>
        <time>2019-06-23T07:16:06Z</time>
      </trkpt>
      <trkpt lat="42.807859992608428" lon="-2.533118007704616">
        <ele>635</ele>
        <time>2019-06-23T07:16:08Z</time>
      </trkpt>
      <trkpt lat="42.807860998436809" lon="-2.533119013532996">
        <ele>635</ele>
        <time>2019-06-23T07:16:09Z</time>
      </trkpt>
      <trkpt lat="42.807889999821782" lon="-2.533100992441177">
        <ele>634.60000000000002</ele>
        <time>2019-06-23T07:16:33Z</time>
      </trkpt>
      <trkpt lat="42.80790600925684" lon="-2.533083977177739">
        <ele>634.60000000000002</ele>
        <time>2019-06-23T07:16:34Z</time>
      </trkpt>
      <trkpt lat="42.80795001424849" lon="-2.533031003549695">
        <ele>634.60000000000002</ele>
        <time>2019-06-23T07:16:36Z</time>
      </trkpt>
      <trkpt lat="42.80801597982645" lon="-2.532959003001452">
        <ele>634.60000000000002</ele>
        <time>2019-06-23T07:16:38Z</time>
      </trkpt>
      <trkpt lat="42.808095021173358" lon="-2.532868981361389">
        <ele>634.60000000000002</ele>
        <time>2019-06-23T07:16:40Z</time>
      </trkpt>
      <trkpt lat="42.80818403698504" lon="-2.532765967771411">
        <ele>634.60000000000002</ele>
        <time>2019-06-23T07:16:42Z</time>
      </trkpt>
      <trkpt lat="42.808231981471181" lon="-2.532711988314986">
        <ele>634.39999999999998</ele>
        <time>2019-06-23T07:16:43Z</time>
      </trkpt>
      <trkpt lat="42.808283027261496" lon="-2.5326559972018">
        <ele>634.60000000000002</ele>
        <time>2019-06-23T07:16:44Z</time>
      </trkpt>
      <trkpt lat="42.808387968689203" lon="-2.532542003318667">
        <ele>634.20000000000005</ele>
        <time>2019-06-23T07:16:46Z</time>
      </trkpt>
      <trkpt lat="42.808497017249465" lon="-2.532421974465251">
        <ele>633.79999999999995</ele>
        <time>2019-06-23T07:16:48Z</time>
      </trkpt>
      <trkpt lat="42.80855200253427" lon="-2.532360032200813">
        <ele>633.39999999999998</ele>
        <time>2019-06-23T07:16:49Z</time>
      </trkpt>
      <trkpt lat="42.808607993647456" lon="-2.532297000288963">
        <ele>633.39999999999998</ele>
        <time>2019-06-23T07:16:50Z</time>
      </trkpt>
      <trkpt lat="42.808665996417403" lon="-2.532233968377113">
        <ele>633.20000000000005</ele>
        <time>2019-06-23T07:16:51Z</time>
      </trkpt>
      <trkpt lat="42.80872299335897" lon="-2.532169008627534">
        <ele>632.79999999999995</ele>
        <time>2019-06-23T07:16:52Z</time>
      </trkpt>
      <trkpt lat="42.808841010555625" lon="-2.532036993652582">
        <ele>632.20000000000005</ele>
        <time>2019-06-23T07:16:54Z</time>
      </trkpt>
      <trkpt lat="42.80896196141839" lon="-2.531899027526379">
        <ele>631.79999999999995</ele>
        <time>2019-06-23T07:16:56Z</time>
      </trkpt>
      <trkpt lat="42.80908701941371" lon="-2.531756032258272">
        <ele>630.79999999999995</ele>
        <time>2019-06-23T07:16:58Z</time>
      </trkpt>
      <trkpt lat="42.809150973334908" lon="-2.531683025881648">
        <ele>630.20000000000005</ele>
        <time>2019-06-23T07:16:59Z</time>
      </trkpt>
      <trkpt lat="42.80921601690352" lon="-2.531611025333405">
        <ele>630</ele>
        <time>2019-06-23T07:17:00Z</time>
      </trkpt>
      <trkpt lat="42.809348031878471" lon="-2.531467024236918">
        <ele>629.60000000000002</ele>
        <time>2019-06-23T07:17:02Z</time>
      </trkpt>
      <trkpt lat="42.809482980519533" lon="-2.531317993998528">
        <ele>629.39999999999998</ele>
        <time>2019-06-23T07:17:04Z</time>
      </trkpt>
      <trkpt lat="42.809620024636388" lon="-2.531166030094028">
        <ele>629.20000000000005</ele>
        <time>2019-06-23T07:17:06Z</time>
      </trkpt>
      <trkpt lat="42.809762014076114" lon="-2.531010964885354">
        <ele>628</ele>
        <time>2019-06-23T07:17:08Z</time>
      </trkpt>
      <trkpt lat="42.809833008795977" lon="-2.530932007357478">
        <ele>627.39999999999998</ele>
        <time>2019-06-23T07:17:09Z</time>
      </trkpt>
      <trkpt lat="42.80990500934422" lon="-2.53085196018219">
        <ele>627</ele>
        <time>2019-06-23T07:17:10Z</time>
      </trkpt>
      <trkpt lat="42.810052027925849" lon="-2.530689015984535">
        <ele>626.79999999999995</ele>
        <time>2019-06-23T07:17:12Z</time>
      </trkpt>
      <trkpt lat="42.810199968516827" lon="-2.530522970482707">
        <ele>626.39999999999998</ele>
        <time>2019-06-23T07:17:14Z</time>
      </trkpt>
      <trkpt lat="42.810274986550212" lon="-2.530438983812928">
        <ele>625.79999999999995</ele>
        <time>2019-06-23T07:17:15Z</time>
      </trkpt>
      <trkpt lat="42.810350004583597" lon="-2.53035600297153">
        <ele>625.60000000000002</ele>
        <time>2019-06-23T07:17:16Z</time>
      </trkpt>
      <trkpt lat="42.810425022616982" lon="-2.530271010473371">
        <ele>625.20000000000005</ele>
        <time>2019-06-23T07:17:17Z</time>
      </trkpt>
      <trkpt lat="42.810500040650368" lon="-2.530186017975211">
        <ele>624.39999999999998</ele>
        <time>2019-06-23T07:17:18Z</time>
      </trkpt>
      <trkpt lat="42.810573969036341" lon="-2.530102031305432">
        <ele>624</ele>
        <time>2019-06-23T07:17:19Z</time>
      </trkpt>
      <trkpt lat="42.810648987069726" lon="-2.530017038807273">
        <ele>623.79999999999995</ele>
        <time>2019-06-23T07:17:20Z</time>
      </trkpt>
      <trkpt lat="42.810799023136497" lon="-2.529848981648684">
        <ele>623.20000000000005</ele>
        <time>2019-06-23T07:17:22Z</time>
      </trkpt>
      <trkpt lat="42.810948975384235" lon="-2.529682014137507">
        <ele>622.79999999999995</ele>
        <time>2019-06-23T07:17:24Z</time>
      </trkpt>
      <trkpt lat="42.811099011451006" lon="-2.529513034969568">
        <ele>621.39999999999998</ele>
        <time>2019-06-23T07:17:26Z</time>
      </trkpt>
      <trkpt lat="42.811250975355506" lon="-2.529343971982598">
        <ele>620</ele>
        <time>2019-06-23T07:17:28Z</time>
      </trkpt>
      <trkpt lat="42.811325993388891" lon="-2.529258979484439">
        <ele>619.79999999999995</ele>
        <time>2019-06-23T07:17:29Z</time>
      </trkpt>
      <trkpt lat="42.811403023079038" lon="-2.52917398698628">
        <ele>619.60000000000002</ele>
        <time>2019-06-23T07:17:30Z</time>
      </trkpt>
      <trkpt lat="42.811554986983538" lon="-2.529004001989961">
        <ele>618.79999999999995</ele>
        <time>2019-06-23T07:17:32Z</time>
      </trkpt>
      <trkpt lat="42.811631010845304" lon="-2.528919009491801">
        <ele>618.60000000000002</ele>
        <time>2019-06-23T07:17:33Z</time>
      </trkpt>
      <trkpt lat="42.81170804053545" lon="-2.528833011165261">
        <ele>618.39999999999998</ele>
        <time>2019-06-23T07:17:34Z</time>
      </trkpt>
      <trkpt lat="42.811783980578184" lon="-2.528748018667102">
        <ele>618.20000000000005</ele>
        <time>2019-06-23T07:17:35Z</time>
      </trkpt>
      <trkpt lat="42.81186000443995" lon="-2.528662020340562">
        <ele>617.79999999999995</ele>
        <time>2019-06-23T07:17:36Z</time>
      </trkpt>
      <trkpt lat="42.812012974172831" lon="-2.528492035344243">
        <ele>617.20000000000005</ele>
        <time>2019-06-23T07:17:38Z</time>
      </trkpt>
      <trkpt lat="42.812090003862977" lon="-2.528408970683813">
        <ele>616.60000000000002</ele>
        <time>2019-06-23T07:17:39Z</time>
      </trkpt>
      <trkpt lat="42.812166027724743" lon="-2.528324984014034">
        <ele>616</ele>
        <time>2019-06-23T07:17:40Z</time>
      </trkpt>
      <trkpt lat="42.812317991629243" lon="-2.528153993189335">
        <ele>615.60000000000002</ele>
        <time>2019-06-23T07:17:42Z</time>
      </trkpt>
      <trkpt lat="42.812468027696013" lon="-2.527985014021397">
        <ele>614.79999999999995</ele>
        <time>2019-06-23T07:17:44Z</time>
      </trkpt>
      <trkpt lat="42.812617979943752" lon="-2.527818968519568">
        <ele>614.60000000000002</ele>
        <time>2019-06-23T07:17:46Z</time>
      </trkpt>
      <trkpt lat="42.812767010182142" lon="-2.527653006836772">
        <ele>614.20000000000005</ele>
        <time>2019-06-23T07:17:48Z</time>
      </trkpt>
      <trkpt lat="42.812916040420532" lon="-2.527486039325595">
        <ele>614.20000000000005</ele>
        <time>2019-06-23T07:17:50Z</time>
      </trkpt>
      <trkpt lat="42.812989968806505" lon="-2.527402974665165">
        <ele>613.39999999999998</ele>
        <time>2019-06-23T07:17:51Z</time>
      </trkpt>
      <trkpt lat="42.81306398101151" lon="-2.527318987995386">
        <ele>613.20000000000005</ele>
        <time>2019-06-23T07:17:52Z</time>
      </trkpt>
      <trkpt lat="42.8132130112499" lon="-2.52715403214097">
        <ele>612.79999999999995</ele>
        <time>2019-06-23T07:17:54Z</time>
      </trkpt>
      <trkpt lat="42.813286017626524" lon="-2.52706996165216">
        <ele>612.79999999999995</ele>
        <time>2019-06-23T07:17:55Z</time>
      </trkpt>
      <trkpt lat="42.813360029831529" lon="-2.526985974982381">
        <ele>612.79999999999995</ele>
        <time>2019-06-23T07:17:56Z</time>
      </trkpt>
      <trkpt lat="42.813507970422506" lon="-2.526819007471204">
        <ele>612.79999999999995</ele>
        <time>2019-06-23T07:17:58Z</time>
      </trkpt>
      <trkpt lat="42.813653983175755" lon="-2.526651034131646">
        <ele>612.39999999999998</ele>
        <time>2019-06-23T07:18:00Z</time>
      </trkpt>
      <trkpt lat="42.813727995380759" lon="-2.526566963642836">
        <ele>612</ele>
        <time>2019-06-23T07:18:01Z</time>
      </trkpt>
      <trkpt lat="42.813801001757383" lon="-2.526482976973057">
        <ele>611.60000000000002</ele>
        <time>2019-06-23T07:18:02Z</time>
      </trkpt>
      <trkpt lat="42.813949026167393" lon="-2.526318021118641">
        <ele>610.79999999999995</ele>
        <time>2019-06-23T07:18:04Z</time>
      </trkpt>
      <trkpt lat="42.81409596092999" lon="-2.526153987273574">
        <ele>610.20000000000005</ele>
        <time>2019-06-23T07:18:06Z</time>
      </trkpt>
      <trkpt lat="42.81424499116838" lon="-2.525991965085268">
        <ele>609.79999999999995</ele>
        <time>2019-06-23T07:18:08Z</time>
      </trkpt>
      <trkpt lat="42.81439402140677" lon="-2.525834972038865">
        <ele>608.60000000000002</ele>
        <time>2019-06-23T07:18:10Z</time>
      </trkpt>
      <trkpt lat="42.814470967277884" lon="-2.525760037824512">
        <ele>608.20000000000005</ele>
        <time>2019-06-23T07:18:11Z</time>
      </trkpt>
      <trkpt lat="42.814549002796412" lon="-2.525688037276268">
        <ele>607.79999999999995</ele>
        <time>2019-06-23T07:18:12Z</time>
      </trkpt>
      <trkpt lat="42.814710019156337" lon="-2.525544036179781">
        <ele>607.79999999999995</ele>
        <time>2019-06-23T07:18:14Z</time>
      </trkpt>
      <trkpt lat="42.814874975010753" lon="-2.525398023426533">
        <ele>607.60000000000002</ele>
        <time>2019-06-23T07:18:16Z</time>
      </trkpt>
      <trkpt lat="42.814958039671183" lon="-2.525326022878289">
        <ele>607.39999999999998</ele>
        <time>2019-06-23T07:18:17Z</time>
      </trkpt>
      <trkpt lat="42.815041020512581" lon="-2.525254022330046">
        <ele>607.39999999999998</ele>
        <time>2019-06-23T07:18:18Z</time>
      </trkpt>
      <trkpt lat="42.815208993852139" lon="-2.525110021233559">
        <ele>607</ele>
        <time>2019-06-23T07:18:20Z</time>
      </trkpt>
      <trkpt lat="42.815378978848457" lon="-2.524966020137072">
        <ele>606.20000000000005</ele>
        <time>2019-06-23T07:18:22Z</time>
      </trkpt>
      <trkpt lat="42.815551981329918" lon="-2.524822019040585">
        <ele>605.79999999999995</ele>
        <time>2019-06-23T07:18:24Z</time>
      </trkpt>
      <trkpt lat="42.815638985484838" lon="-2.52474800683558">
        <ele>605.39999999999998</ele>
        <time>2019-06-23T07:18:25Z</time>
      </trkpt>
      <trkpt lat="42.815724983811378" lon="-2.524672988802195">
        <ele>605.20000000000005</ele>
        <time>2019-06-23T07:18:26Z</time>
      </trkpt>
      <trkpt lat="42.815901003777981" lon="-2.524523958563805">
        <ele>604.60000000000002</ele>
        <time>2019-06-23T07:18:28Z</time>
      </trkpt>
      <trkpt lat="42.816079035401344" lon="-2.524382974952459">
        <ele>604.60000000000002</ele>
        <time>2019-06-23T07:18:30Z</time>
      </trkpt>
      <trkpt lat="42.81626402400434" lon="-2.524264035746455">
        <ele>603.60000000000002</ele>
        <time>2019-06-23T07:18:32Z</time>
      </trkpt>
      <trkpt lat="42.816359996795654" lon="-2.524216007441282">
        <ele>603.39999999999998</ele>
        <time>2019-06-23T07:18:33Z</time>
      </trkpt>
      <trkpt lat="42.816459992900491" lon="-2.524177031591535">
        <ele>603.20000000000005</ele>
        <time>2019-06-23T07:18:34Z</time>
      </trkpt>
      <trkpt lat="42.816559989005327" lon="-2.524145012721419">
        <ele>602.79999999999995</ele>
        <time>2019-06-23T07:18:35Z</time>
      </trkpt>
      <trkpt lat="42.816659985110164" lon="-2.524120034649968">
        <ele>602.60000000000002</ele>
        <time>2019-06-23T07:18:36Z</time>
      </trkpt>
      <trkpt lat="42.816759981215" lon="-2.524104025214911">
        <ele>602</ele>
        <time>2019-06-23T07:18:37Z</time>
      </trkpt>
      <trkpt lat="42.816859977319837" lon="-2.524093966931105">
        <ele>601.39999999999998</ele>
        <time>2019-06-23T07:18:38Z</time>
      </trkpt>
      <trkpt lat="42.81706097535789" lon="-2.524092961102724">
        <ele>600.60000000000002</ele>
        <time>2019-06-23T07:18:40Z</time>
      </trkpt>
      <trkpt lat="42.817260967567563" lon="-2.524104025214911">
        <ele>600.39999999999998</ele>
        <time>2019-06-23T07:18:42Z</time>
      </trkpt>
      <trkpt lat="42.817460959777236" lon="-2.524112993851304">
        <ele>600.20000000000005</ele>
        <time>2019-06-23T07:18:44Z</time>
      </trkpt>
      <trkpt lat="42.81766002997756" lon="-2.524119028821588">
        <ele>600.20000000000005</ele>
        <time>2019-06-23T07:18:46Z</time>
      </trkpt>
      <trkpt lat="42.817760026082397" lon="-2.524118022993207">
        <ele>600</ele>
        <time>2019-06-23T07:18:47Z</time>
      </trkpt>
      <trkpt lat="42.817859016358852" lon="-2.524113999679685">
        <ele>599.79999999999995</ele>
        <time>2019-06-23T07:18:48Z</time>
      </trkpt>
      <trkpt lat="42.818054985255003" lon="-2.524095978587866">
        <ele>599.79999999999995</ele>
        <time>2019-06-23T07:18:50Z</time>
      </trkpt>
      <trkpt lat="42.818152969703078" lon="-2.524084998294711">
        <ele>599.60000000000002</ele>
        <time>2019-06-23T07:18:51Z</time>
      </trkpt>
      <trkpt lat="42.818250032141805" lon="-2.524072006344795">
        <ele>599.60000000000002</ele>
        <time>2019-06-23T07:18:52Z</time>
      </trkpt>
      <trkpt lat="42.818443989381194" lon="-2.524036969989538">
        <ele>599.60000000000002</ele>
        <time>2019-06-23T07:18:54Z</time>
      </trkpt>
      <trkpt lat="42.818636018782854" lon="-2.523991959169507">
        <ele>599.39999999999998</ele>
        <time>2019-06-23T07:18:56Z</time>
      </trkpt>
      <trkpt lat="42.818826958537102" lon="-2.523938985541463">
        <ele>598.79999999999995</ele>
        <time>2019-06-23T07:18:58Z</time>
      </trkpt>
      <trkpt lat="42.818925026804209" lon="-2.52391098998487">
        <ele>598.39999999999998</ele>
        <time>2019-06-23T07:18:59Z</time>
      </trkpt>
      <trkpt lat="42.819019993767142" lon="-2.523882994428277">
        <ele>598.20000000000005</ele>
        <time>2019-06-23T07:19:00Z</time>
      </trkpt>
      <trkpt lat="42.819214034825563" lon="-2.52382499165833">
        <ele>598</ele>
        <time>2019-06-23T07:19:02Z</time>
      </trkpt>
      <trkpt lat="42.819312019273639" lon="-2.523795990273356">
        <ele>597.79999999999995</ele>
        <time>2019-06-23T07:19:03Z</time>
      </trkpt>
      <trkpt lat="42.819410003721714" lon="-2.523767994716764">
        <ele>597.79999999999995</ele>
        <time>2019-06-23T07:19:04Z</time>
      </trkpt>
      <trkpt lat="42.819606978446245" lon="-2.523709991946816">
        <ele>597.39999999999998</ele>
        <time>2019-06-23T07:19:06Z</time>
      </trkpt>
      <trkpt lat="42.819705968722701" lon="-2.523680990561843">
        <ele>597.20000000000005</ele>
        <time>2019-06-23T07:19:07Z</time>
      </trkpt>
      <trkpt lat="42.819805964827538" lon="-2.523651989176869">
        <ele>597.20000000000005</ele>
        <time>2019-06-23T07:19:08Z</time>
      </trkpt>
      <trkpt lat="42.820007968693972" lon="-2.523593986406922">
        <ele>596.60000000000002</ele>
        <time>2019-06-23T07:19:10Z</time>
      </trkpt>
      <trkpt lat="42.820209972560406" lon="-2.523532966151834">
        <ele>596</ele>
        <time>2019-06-23T07:19:12Z</time>
      </trkpt>
      <trkpt lat="42.82041298225522" lon="-2.523475969210267">
        <ele>595.79999999999995</ele>
        <time>2019-06-23T07:19:14Z</time>
      </trkpt>
      <trkpt lat="42.820615991950035" lon="-2.523425007238984">
        <ele>595.20000000000005</ele>
        <time>2019-06-23T07:19:16Z</time>
      </trkpt>
      <trkpt lat="42.82082000747323" lon="-2.523370021954179">
        <ele>594.79999999999995</ele>
        <time>2019-06-23T07:19:18Z</time>
      </trkpt>
      <trkpt lat="42.821024022996426" lon="-2.523315036669374">
        <ele>594.39999999999998</ele>
        <time>2019-06-23T07:19:20Z</time>
      </trkpt>
      <trkpt lat="42.821127036586404" lon="-2.523287041112781">
        <ele>593.20000000000005</ele>
        <time>2019-06-23T07:19:21Z</time>
      </trkpt>
      <trkpt lat="42.82122996635735" lon="-2.523256028071046">
        <ele>592.79999999999995</ele>
        <time>2019-06-23T07:19:22Z</time>
      </trkpt>
      <trkpt lat="42.821432976052165" lon="-2.52320003695786">
        <ele>592.39999999999998</ele>
        <time>2019-06-23T07:19:24Z</time>
      </trkpt>
      <trkpt lat="42.82163598574698" lon="-2.523144967854023">
        <ele>592.20000000000005</ele>
        <time>2019-06-23T07:19:26Z</time>
      </trkpt>
      <trkpt lat="42.821840001270175" lon="-2.523088976740837">
        <ele>591.60000000000002</ele>
        <time>2019-06-23T07:19:28Z</time>
      </trkpt>
      <trkpt lat="42.822039993479848" lon="-2.523032985627651">
        <ele>590.79999999999995</ele>
        <time>2019-06-23T07:19:30Z</time>
      </trkpt>
      <trkpt lat="42.822140995413065" lon="-2.523004990071058">
        <ele>590.60000000000002</ele>
        <time>2019-06-23T07:19:31Z</time>
      </trkpt>
      <trkpt lat="42.822240991517901" lon="-2.522978000342846">
        <ele>590.39999999999998</ele>
        <time>2019-06-23T07:19:32Z</time>
      </trkpt>
      <trkpt lat="42.822439977899194" lon="-2.52292200922966">
        <ele>590</ele>
        <time>2019-06-23T07:19:34Z</time>
      </trkpt>
      <trkpt lat="42.822640975937247" lon="-2.522867023944855">
        <ele>589.20000000000005</ele>
        <time>2019-06-23T07:19:36Z</time>
      </trkpt>
      <trkpt lat="42.822740972042084" lon="-2.522839028388262">
        <ele>589</ele>
        <time>2019-06-23T07:19:37Z</time>
      </trkpt>
      <trkpt lat="42.822841973975301" lon="-2.522810027003288">
        <ele>588.79999999999995</ele>
        <time>2019-06-23T07:19:38Z</time>
      </trkpt>
      <trkpt lat="42.823043977841735" lon="-2.522754035890102">
        <ele>588.39999999999998</ele>
        <time>2019-06-23T07:19:40Z</time>
      </trkpt>
      <trkpt lat="42.82324698753655" lon="-2.522697038948536">
        <ele>588</ele>
        <time>2019-06-23T07:19:42Z</time>
      </trkpt>
      <trkpt lat="42.823449997231364" lon="-2.522640964016318">
        <ele>587.39999999999998</ele>
        <time>2019-06-23T07:19:44Z</time>
      </trkpt>
      <trkpt lat="42.823550999164581" lon="-2.522612968459725">
        <ele>587.20000000000005</ele>
        <time>2019-06-23T07:19:45Z</time>
      </trkpt>
      <trkpt lat="42.823653006926179" lon="-2.522583967074752">
        <ele>587</ele>
        <time>2019-06-23T07:19:46Z</time>
      </trkpt>
      <trkpt lat="42.823857022449374" lon="-2.522526970133185">
        <ele>586.60000000000002</ele>
        <time>2019-06-23T07:19:48Z</time>
      </trkpt>
      <trkpt lat="42.823959030210972" lon="-2.522498974576592">
        <ele>586</ele>
        <time>2019-06-23T07:19:49Z</time>
      </trkpt>
      <trkpt lat="42.824061037972569" lon="-2.52247097902">
        <ele>585.79999999999995</ele>
        <time>2019-06-23T07:19:50Z</time>
      </trkpt>
      <trkpt lat="42.824263963848352" lon="-2.522413982078433">
        <ele>585</ele>
        <time>2019-06-23T07:19:52Z</time>
      </trkpt>
      <trkpt lat="42.82436597160995" lon="-2.52238598652184">
        <ele>584.79999999999995</ele>
        <time>2019-06-23T07:19:53Z</time>
      </trkpt>
      <trkpt lat="42.824468985199928" lon="-2.522356985136867">
        <ele>584.39999999999998</ele>
        <time>2019-06-23T07:19:54Z</time>
      </trkpt>
      <trkpt lat="42.824673000723124" lon="-2.522300994023681">
        <ele>584</ele>
        <time>2019-06-23T07:19:56Z</time>
      </trkpt>
      <trkpt lat="42.824873998761177" lon="-2.522243997082114">
        <ele>583</ele>
        <time>2019-06-23T07:19:58Z</time>
      </trkpt>
      <trkpt lat="42.82507399097085" lon="-2.522189011797309">
        <ele>582.60000000000002</ele>
        <time>2019-06-23T07:20:00Z</time>
      </trkpt>
      <trkpt lat="42.825270965695381" lon="-2.522134026512504">
        <ele>582.39999999999998</ele>
        <time>2019-06-23T07:20:02Z</time>
      </trkpt>
      <trkpt lat="42.825466012582183" lon="-2.522078035399318">
        <ele>581.79999999999995</ele>
        <time>2019-06-23T07:20:04Z</time>
      </trkpt>
      <trkpt lat="42.825657036155462" lon="-2.522022966295481">
        <ele>581.39999999999998</ele>
        <time>2019-06-23T07:20:06Z</time>
      </trkpt>
      <trkpt lat="42.825842024758458" lon="-2.521970998495817">
        <ele>581</ele>
        <time>2019-06-23T07:20:08Z</time>
      </trkpt>
      <trkpt lat="42.82593104057014" lon="-2.521945014595985">
        <ele>580.79999999999995</ele>
        <time>2019-06-23T07:20:09Z</time>
      </trkpt>
      <trkpt lat="42.82601703889668" lon="-2.521920958533883">
        <ele>580.60000000000002</ele>
        <time>2019-06-23T07:20:10Z</time>
      </trkpt>
      <trkpt lat="42.826186018064618" lon="-2.521874019876123">
        <ele>580.60000000000002</ele>
        <time>2019-06-23T07:20:12Z</time>
      </trkpt>
      <trkpt lat="42.826348040252924" lon="-2.521829009056091">
        <ele>580.60000000000002</ele>
        <time>2019-06-23T07:20:14Z</time>
      </trkpt>
      <trkpt lat="42.826504027470946" lon="-2.521788021549583">
        <ele>580.79999999999995</ele>
        <time>2019-06-23T07:20:16Z</time>
      </trkpt>
      <trkpt lat="42.8265789616853" lon="-2.521766982972622">
        <ele>580.60000000000002</ele>
        <time>2019-06-23T07:20:17Z</time>
      </trkpt>
      <trkpt lat="42.826652973890305" lon="-2.521747034043074">
        <ele>580.79999999999995</ele>
        <time>2019-06-23T07:20:18Z</time>
      </trkpt>
      <trkpt lat="42.826799992471933" lon="-2.521706968545914">
        <ele>581</ele>
        <time>2019-06-23T07:20:20Z</time>
      </trkpt>
      <trkpt lat="42.826946005225182" lon="-2.521662041544914">
        <ele>581.39999999999998</ele>
        <time>2019-06-23T07:20:22Z</time>
      </trkpt>
      <trkpt lat="42.827098974958062" lon="-2.521618958562613">
        <ele>581.60000000000002</ele>
        <time>2019-06-23T07:20:24Z</time>
      </trkpt>
      <trkpt lat="42.827260997146368" lon="-2.521575959399343">
        <ele>581.79999999999995</ele>
        <time>2019-06-23T07:20:26Z</time>
      </trkpt>
      <trkpt lat="42.827431987971067" lon="-2.521529020741582">
        <ele>581.60000000000002</ele>
        <time>2019-06-23T07:20:28Z</time>
      </trkpt>
      <trkpt lat="42.827610019594431" lon="-2.521479986608028">
        <ele>581.79999999999995</ele>
        <time>2019-06-23T07:20:30Z</time>
      </trkpt>
      <trkpt lat="42.827701969072223" lon="-2.521452996879816">
        <ele>582</ele>
        <time>2019-06-23T07:20:31Z</time>
      </trkpt>
      <trkpt lat="42.827795008197427" lon="-2.521423995494843">
        <ele>581.79999999999995</ele>
        <time>2019-06-23T07:20:32Z</time>
      </trkpt>
      <trkpt lat="42.827887963503599" lon="-2.52139700576663">
        <ele>582</ele>
        <time>2019-06-23T07:20:33Z</time>
      </trkpt>
      <trkpt lat="42.827984020113945" lon="-2.521370016038418">
        <ele>582</ele>
        <time>2019-06-23T07:20:34Z</time>
      </trkpt>
      <trkpt lat="42.828078987076879" lon="-2.521344032138586">
        <ele>581.79999999999995</ele>
        <time>2019-06-23T07:20:35Z</time>
      </trkpt>
      <trkpt lat="42.828176971524954" lon="-2.521316036581993">
        <ele>581.60000000000002</ele>
        <time>2019-06-23T07:20:36Z</time>
      </trkpt>
      <trkpt lat="42.828374030068517" lon="-2.521260967478156">
        <ele>581</ele>
        <time>2019-06-23T07:20:38Z</time>
      </trkpt>
      <trkpt lat="42.828569998964667" lon="-2.521206988021731">
        <ele>580.39999999999998</ele>
        <time>2019-06-23T07:20:40Z</time>
      </trkpt>
      <trkpt lat="42.828668989241123" lon="-2.521178992465138">
        <ele>579.79999999999995</ele>
        <time>2019-06-23T07:20:41Z</time>
      </trkpt>
      <trkpt lat="42.828766973689198" lon="-2.521152002736926">
        <ele>579.39999999999998</ele>
        <time>2019-06-23T07:20:42Z</time>
      </trkpt>
      <trkpt lat="42.828865963965654" lon="-2.521125013008714">
        <ele>579</ele>
        <time>2019-06-23T07:20:43Z</time>
      </trkpt>
      <trkpt lat="42.828964032232761" lon="-2.521097017452121">
        <ele>578.39999999999998</ele>
        <time>2019-06-23T07:20:44Z</time>
      </trkpt>
      <trkpt lat="42.829163018614054" lon="-2.521043037995696">
        <ele>577.60000000000002</ele>
        <time>2019-06-23T07:20:46Z</time>
      </trkpt>
      <trkpt lat="42.82926200889051" lon="-2.521016970276833">
        <ele>577.20000000000005</ele>
        <time>2019-06-23T07:20:47Z</time>
      </trkpt>
      <trkpt lat="42.829360999166965" lon="-2.52098998054862">
        <ele>577</ele>
        <time>2019-06-23T07:20:48Z</time>
      </trkpt>
      <trkpt lat="42.829559985548258" lon="-2.520933989435434">
        <ele>576</ele>
        <time>2019-06-23T07:20:50Z</time>
      </trkpt>
      <trkpt lat="42.829659981653094" lon="-2.520906999707222">
        <ele>575.60000000000002</ele>
        <time>2019-06-23T07:20:51Z</time>
      </trkpt>
      <trkpt lat="42.829759977757931" lon="-2.52088000997901">
        <ele>575</ele>
        <time>2019-06-23T07:20:52Z</time>
      </trkpt>
      <trkpt lat="42.829957958310843" lon="-2.520825024694204">
        <ele>574.39999999999998</ele>
        <time>2019-06-23T07:20:54Z</time>
      </trkpt>
      <trkpt lat="42.830154011026025" lon="-2.520768027752638">
        <ele>573.79999999999995</ele>
        <time>2019-06-23T07:20:56Z</time>
      </trkpt>
      <trkpt lat="42.830348974093795" lon="-2.520714970305562">
        <ele>573</ele>
        <time>2019-06-23T07:20:58Z</time>
      </trkpt>
      <trkpt lat="42.830446036532521" lon="-2.520685968920589">
        <ele>572.79999999999995</ele>
        <time>2019-06-23T07:20:59Z</time>
      </trkpt>
      <trkpt lat="42.830544020980597" lon="-2.520657973363996">
        <ele>572.39999999999998</ele>
        <time>2019-06-23T07:21:00Z</time>
      </trkpt>
      <trkpt lat="42.830640999600291" lon="-2.520630983635783">
        <ele>572.20000000000005</ele>
        <time>2019-06-23T07:21:01Z</time>
      </trkpt>
      <trkpt lat="42.830737978219986" lon="-2.520604999735951">
        <ele>572</ele>
        <time>2019-06-23T07:21:02Z</time>
      </trkpt>
      <trkpt lat="42.830932019278407" lon="-2.520550014451146">
        <ele>571.79999999999995</ele>
        <time>2019-06-23T07:21:04Z</time>
      </trkpt>
      <trkpt lat="42.831122037023306" lon="-2.520496034994721">
        <ele>571.20000000000005</ele>
        <time>2019-06-23T07:21:06Z</time>
      </trkpt>
      <trkpt lat="42.831315994262695" lon="-2.520442977547646">
        <ele>570.39999999999998</ele>
        <time>2019-06-23T07:21:08Z</time>
      </trkpt>
      <trkpt lat="42.83141297288239" lon="-2.520413976162672">
        <ele>569.79999999999995</ele>
        <time>2019-06-23T07:21:09Z</time>
      </trkpt>
      <trkpt lat="42.831510035321116" lon="-2.520385980606079">
        <ele>569.60000000000002</ele>
        <time>2019-06-23T07:21:10Z</time>
      </trkpt>
      <trkpt lat="42.831708015874028" lon="-2.520332001149654">
        <ele>569</ele>
        <time>2019-06-23T07:21:12Z</time>
      </trkpt>
      <trkpt lat="42.831807006150484" lon="-2.520304005593061">
        <ele>568.39999999999998</ele>
        <time>2019-06-23T07:21:13Z</time>
      </trkpt>
      <trkpt lat="42.831907002255321" lon="-2.520275004208088">
        <ele>568.20000000000005</ele>
        <time>2019-06-23T07:21:14Z</time>
      </trkpt>
      <trkpt lat="42.832006998360157" lon="-2.520246002823114">
        <ele>568</ele>
        <time>2019-06-23T07:21:15Z</time>
      </trkpt>
      <trkpt lat="42.832106994464993" lon="-2.520219013094902">
        <ele>567.79999999999995</ele>
        <time>2019-06-23T07:21:16Z</time>
      </trkpt>
      <trkpt lat="42.832305980846286" lon="-2.520162016153336">
        <ele>567.20000000000005</ele>
        <time>2019-06-23T07:21:18Z</time>
      </trkpt>
      <trkpt lat="42.832503961399198" lon="-2.520108036696911">
        <ele>566.79999999999995</ele>
        <time>2019-06-23T07:21:20Z</time>
      </trkpt>
      <trkpt lat="42.832696996629238" lon="-2.520053973421454">
        <ele>566.39999999999998</ele>
        <time>2019-06-23T07:21:22Z</time>
      </trkpt>
      <trkpt lat="42.832791963592172" lon="-2.520028995350003">
        <ele>566</ele>
        <time>2019-06-23T07:21:23Z</time>
      </trkpt>
      <trkpt lat="42.832887014374137" lon="-2.520005023106933">
        <ele>565</ele>
        <time>2019-06-23T07:21:24Z</time>
      </trkpt>
      <trkpt lat="42.833074014633894" lon="-2.519953977316618">
        <ele>564.39999999999998</ele>
        <time>2019-06-23T07:21:26Z</time>
      </trkpt>
      <trkpt lat="42.833166969940066" lon="-2.519928999245167">
        <ele>563.79999999999995</ele>
        <time>2019-06-23T07:21:27Z</time>
      </trkpt>
      <trkpt lat="42.833261014893651" lon="-2.519904021173716">
        <ele>563</ele>
        <time>2019-06-23T07:21:28Z</time>
      </trkpt>
      <trkpt lat="42.833450026810169" lon="-2.51985096372664">
        <ele>562.60000000000002</ele>
        <time>2019-06-23T07:21:30Z</time>
      </trkpt>
      <trkpt lat="42.833637027069926" lon="-2.519794972613454">
        <ele>561.79999999999995</ele>
        <time>2019-06-23T07:21:32Z</time>
      </trkpt>
      <trkpt lat="42.833728976547718" lon="-2.51976203173399">
        <ele>561.60000000000002</ele>
        <time>2019-06-23T07:21:33Z</time>
      </trkpt>
      <trkpt lat="42.833816986531019" lon="-2.519718026742339">
        <ele>561.39999999999998</ele>
        <time>2019-06-23T07:21:34Z</time>
      </trkpt>
      <trkpt lat="42.833951013162732" lon="-2.51957000233233">
        <ele>560.79999999999995</ele>
        <time>2019-06-23T07:21:36Z</time>
      </trkpt>
      <trkpt lat="42.834043968468904" lon="-2.519364980980754">
        <ele>560.39999999999998</ele>
        <time>2019-06-23T07:21:38Z</time>
      </trkpt>
      <trkpt lat="42.834067018702626" lon="-2.519244030117989">
        <ele>560</ele>
        <time>2019-06-23T07:21:39Z</time>
      </trkpt>
      <trkpt lat="42.834070958197117" lon="-2.519118972122669">
        <ele>559.60000000000002</ele>
        <time>2019-06-23T07:21:40Z</time>
      </trkpt>
      <trkpt lat="42.834052015095949" lon="-2.518877992406488">
        <ele>559.39999999999998</ele>
        <time>2019-06-23T07:21:42Z</time>
      </trkpt>
      <trkpt lat="42.834026031196117" lon="-2.518664002418518">
        <ele>559.20000000000005</ele>
        <time>2019-06-23T07:21:44Z</time>
      </trkpt>
      <trkpt lat="42.834003986790776" lon="-2.518477002158761">
        <ele>559.39999999999998</ele>
        <time>2019-06-23T07:21:46Z</time>
      </trkpt>
      <trkpt lat="42.833995018154383" lon="-2.518391003832221">
        <ele>559.39999999999998</ele>
        <time>2019-06-23T07:21:47Z</time>
      </trkpt>
      <trkpt lat="42.833984959870577" lon="-2.518310034647584">
        <ele>559.20000000000005</ele>
        <time>2019-06-23T07:21:48Z</time>
      </trkpt>
      <trkpt lat="42.833970040082932" lon="-2.518159998580813">
        <ele>559.20000000000005</ele>
        <time>2019-06-23T07:21:50Z</time>
      </trkpt>
      <trkpt lat="42.833964005112648" lon="-2.518091015517712">
        <ele>559.20000000000005</ele>
        <time>2019-06-23T07:21:51Z</time>
      </trkpt>
      <trkpt lat="42.833955958485603" lon="-2.518025971949101">
        <ele>559.39999999999998</ele>
        <time>2019-06-23T07:21:52Z</time>
      </trkpt>
      <trkpt lat="42.833951013162732" lon="-2.517960006371141">
        <ele>559.60000000000002</ele>
        <time>2019-06-23T07:21:53Z</time>
      </trkpt>
      <trkpt lat="42.83394698984921" lon="-2.517894040793181">
        <ele>560</ele>
        <time>2019-06-23T07:21:54Z</time>
      </trkpt>
      <trkpt lat="42.833939027041197" lon="-2.517767976969481">
        <ele>562</ele>
        <time>2019-06-23T07:21:56Z</time>
      </trkpt>
      <trkpt lat="42.83392796292901" lon="-2.517640991136432">
        <ele>563.20000000000005</ele>
        <time>2019-06-23T07:21:58Z</time>
      </trkpt>
      <trkpt lat="42.833918994292617" lon="-2.517517022788525">
        <ele>564</ele>
        <time>2019-06-23T07:22:00Z</time>
      </trkpt>
      <trkpt lat="42.833912959322333" lon="-2.517391964793205">
        <ele>564.79999999999995</ele>
        <time>2019-06-23T07:22:02Z</time>
      </trkpt>
      <trkpt lat="42.833911031484604" lon="-2.517330022528768">
        <ele>565.20000000000005</ele>
        <time>2019-06-23T07:22:03Z</time>
      </trkpt>
      <trkpt lat="42.833908013999462" lon="-2.517269002273679">
        <ele>565.39999999999998</ele>
        <time>2019-06-23T07:22:04Z</time>
      </trkpt>
      <trkpt lat="42.833899967372417" lon="-2.517146039754152">
        <ele>565.79999999999995</ele>
        <time>2019-06-23T07:22:06Z</time>
      </trkpt>
      <trkpt lat="42.833892004564404" lon="-2.517022993415594">
        <ele>566.60000000000002</ele>
        <time>2019-06-23T07:22:08Z</time>
      </trkpt>
      <trkpt lat="42.83388496376574" lon="-2.516899025067687">
        <ele>567.20000000000005</ele>
        <time>2019-06-23T07:22:10Z</time>
      </trkpt>
      <trkpt lat="42.833880018442869" lon="-2.516775978729129">
        <ele>568</ele>
        <time>2019-06-23T07:22:12Z</time>
      </trkpt>
      <trkpt lat="42.833878006786108" lon="-2.516653016209602">
        <ele>568.39999999999998</ele>
        <time>2019-06-23T07:22:14Z</time>
      </trkpt>
      <trkpt lat="42.833870965987444" lon="-2.516528964042664">
        <ele>568.79999999999995</ele>
        <time>2019-06-23T07:22:16Z</time>
      </trkpt>
      <trkpt lat="42.833864009007812" lon="-2.516403989866376">
        <ele>569.39999999999998</ele>
        <time>2019-06-23T07:22:18Z</time>
      </trkpt>
      <trkpt lat="42.833859985694289" lon="-2.51628203317523">
        <ele>570</ele>
        <time>2019-06-23T07:22:20Z</time>
      </trkpt>
      <trkpt lat="42.833858979865909" lon="-2.516222018748522">
        <ele>570.39999999999998</ele>
        <time>2019-06-23T07:22:21Z</time>
      </trkpt>
      <trkpt lat="42.833856968209147" lon="-2.516162004321814">
        <ele>570.79999999999995</ele>
        <time>2019-06-23T07:22:22Z</time>
      </trkpt>
      <trkpt lat="42.833855040371418" lon="-2.516039963811636">
        <ele>571.20000000000005</ele>
        <time>2019-06-23T07:22:24Z</time>
      </trkpt>
      <trkpt lat="42.833852022886276" lon="-2.515919012948871">
        <ele>571.60000000000002</ele>
        <time>2019-06-23T07:22:26Z</time>
      </trkpt>
      <trkpt lat="42.833850011229515" lon="-2.515856986865401">
        <ele>571.79999999999995</ele>
        <time>2019-06-23T07:22:27Z</time>
      </trkpt>
      <trkpt lat="42.833846993744373" lon="-2.515795966610313">
        <ele>572.20000000000005</ele>
        <time>2019-06-23T07:22:28Z</time>
      </trkpt>
      <trkpt lat="42.833844982087612" lon="-2.515673004090786">
        <ele>572.79999999999995</ele>
        <time>2019-06-23T07:22:30Z</time>
      </trkpt>
      <trkpt lat="42.833845987915993" lon="-2.515610978007317">
        <ele>573.20000000000005</ele>
        <time>2019-06-23T07:22:31Z</time>
      </trkpt>
      <trkpt lat="42.833844982087612" lon="-2.515547024086118">
        <ele>573.60000000000002</ele>
        <time>2019-06-23T07:22:32Z</time>
      </trkpt>
      <trkpt lat="42.83384196460247" lon="-2.515417020767927">
        <ele>574.20000000000005</ele>
        <time>2019-06-23T07:22:34Z</time>
      </trkpt>
      <trkpt lat="42.833840036764741" lon="-2.515290034934878">
        <ele>575.20000000000005</ele>
        <time>2019-06-23T07:22:36Z</time>
      </trkpt>
      <trkpt lat="42.833837019279599" lon="-2.515161037445068">
        <ele>575.60000000000002</ele>
        <time>2019-06-23T07:22:38Z</time>
      </trkpt>
      <trkpt lat="42.833832995966077" lon="-2.515032039955258">
        <ele>576</ele>
        <time>2019-06-23T07:22:40Z</time>
      </trkpt>
      <trkpt lat="42.833829978480935" lon="-2.514900024980307">
        <ele>576.39999999999998</ele>
        <time>2019-06-23T07:22:42Z</time>
      </trkpt>
      <trkpt lat="42.833826038986444" lon="-2.514765998348594">
        <ele>576.79999999999995</ele>
        <time>2019-06-23T07:22:44Z</time>
      </trkpt>
      <trkpt lat="42.833824027329683" lon="-2.514699026942253">
        <ele>576.79999999999995</ele>
        <time>2019-06-23T07:22:45Z</time>
      </trkpt>
      <trkpt lat="42.833822015672922" lon="-2.514631971716881">
        <ele>576.79999999999995</ele>
        <time>2019-06-23T07:22:46Z</time>
      </trkpt>
      <trkpt lat="42.83381899818778" lon="-2.51456399448216">
        <ele>577</ele>
        <time>2019-06-23T07:22:47Z</time>
      </trkpt>
      <trkpt lat="42.833816986531019" lon="-2.514496017247438">
        <ele>577</ele>
        <time>2019-06-23T07:22:48Z</time>
      </trkpt>
      <trkpt lat="42.833812041208148" lon="-2.514359978958964">
        <ele>577.39999999999998</ele>
        <time>2019-06-23T07:22:50Z</time>
      </trkpt>
      <trkpt lat="42.833807012066245" lon="-2.514223018661141">
        <ele>577.60000000000002</ele>
        <time>2019-06-23T07:22:52Z</time>
      </trkpt>
      <trkpt lat="42.833800977095962" lon="-2.514085974544287">
        <ele>577.79999999999995</ele>
        <time>2019-06-23T07:22:54Z</time>
      </trkpt>
      <trkpt lat="42.83379795961082" lon="-2.513948008418083">
        <ele>577.79999999999995</ele>
        <time>2019-06-23T07:22:56Z</time>
      </trkpt>
      <trkpt lat="42.833797037601471" lon="-2.513878019526601">
        <ele>578.20000000000005</ele>
        <time>2019-06-23T07:22:57Z</time>
      </trkpt>
      <trkpt lat="42.83379502594471" lon="-2.513808030635119">
        <ele>578.20000000000005</ele>
        <time>2019-06-23T07:22:58Z</time>
      </trkpt>
      <trkpt lat="42.833793014287949" lon="-2.513666963204742">
        <ele>578.20000000000005</ele>
        <time>2019-06-23T07:23:00Z</time>
      </trkpt>
      <trkpt lat="42.833793014287949" lon="-2.513595968484879">
        <ele>578.39999999999998</ele>
        <time>2019-06-23T07:23:01Z</time>
      </trkpt>
      <trkpt lat="42.833793014287949" lon="-2.513524973765016">
        <ele>578.20000000000005</ele>
        <time>2019-06-23T07:23:02Z</time>
      </trkpt>
      <trkpt lat="42.833794020116329" lon="-2.51338298432529">
        <ele>578.60000000000002</ele>
        <time>2019-06-23T07:23:04Z</time>
      </trkpt>
      <trkpt lat="42.8337989654392" lon="-2.513237977400422">
        <ele>578.79999999999995</ele>
        <time>2019-06-23T07:23:06Z</time>
      </trkpt>
      <trkpt lat="42.833805000409484" lon="-2.513092970475555">
        <ele>578.79999999999995</ele>
        <time>2019-06-23T07:23:08Z</time>
      </trkpt>
      <trkpt lat="42.833809023723006" lon="-2.51301996409893">
        <ele>579</ele>
        <time>2019-06-23T07:23:09Z</time>
      </trkpt>
      <trkpt lat="42.833813969045877" lon="-2.512946035712957">
        <ele>579.20000000000005</ele>
        <time>2019-06-23T07:23:10Z</time>
      </trkpt>
      <trkpt lat="42.833822015672922" lon="-2.512798011302948">
        <ele>579</ele>
        <time>2019-06-23T07:23:12Z</time>
      </trkpt>
      <trkpt lat="42.833831990137696" lon="-2.512647975236177">
        <ele>579.20000000000005</ele>
        <time>2019-06-23T07:23:14Z</time>
      </trkpt>
      <trkpt lat="42.833843976259232" lon="-2.512497017160058">
        <ele>579.20000000000005</ele>
        <time>2019-06-23T07:23:16Z</time>
      </trkpt>
      <trkpt lat="42.833858979865909" lon="-2.512343963608146">
        <ele>579.20000000000005</ele>
        <time>2019-06-23T07:23:18Z</time>
      </trkpt>
      <trkpt lat="42.833877000957727" lon="-2.512187976390123">
        <ele>579.20000000000005</ele>
        <time>2019-06-23T07:23:20Z</time>
      </trkpt>
      <trkpt lat="42.833897033706307" lon="-2.512027965858579">
        <ele>579.20000000000005</ele>
        <time>2019-06-23T07:23:22Z</time>
      </trkpt>
      <trkpt lat="42.833915976807475" lon="-2.511866027489305">
        <ele>579</ele>
        <time>2019-06-23T07:23:24Z</time>
      </trkpt>
      <trkpt lat="42.833936009556055" lon="-2.511701993644238">
        <ele>579.20000000000005</ele>
        <time>2019-06-23T07:23:26Z</time>
      </trkpt>
      <trkpt lat="42.833957970142365" lon="-2.511536031961441">
        <ele>579.20000000000005</ele>
        <time>2019-06-23T07:23:28Z</time>
      </trkpt>
      <trkpt lat="42.833981020376086" lon="-2.511369986459613">
        <ele>579</ele>
        <time>2019-06-23T07:23:30Z</time>
      </trkpt>
      <trkpt lat="42.834003986790776" lon="-2.511202013120055">
        <ele>579.20000000000005</ele>
        <time>2019-06-23T07:23:32Z</time>
      </trkpt>
      <trkpt lat="42.834030976518989" lon="-2.511031022295356">
        <ele>579</ele>
        <time>2019-06-23T07:23:34Z</time>
      </trkpt>
      <trkpt lat="42.834061989560723" lon="-2.510860031470656">
        <ele>579</ele>
        <time>2019-06-23T07:23:36Z</time>
      </trkpt>
      <trkpt lat="42.834094008430839" lon="-2.510686023160815">
        <ele>579</ele>
        <time>2019-06-23T07:23:38Z</time>
      </trkpt>
      <trkpt lat="42.834128038957715" lon="-2.510508997365832">
        <ele>579</ele>
        <time>2019-06-23T07:23:40Z</time>
      </trkpt>
      <trkpt lat="42.834145976230502" lon="-2.51041897572577">
        <ele>579</ele>
        <time>2019-06-23T07:23:41Z</time>
      </trkpt>
      <trkpt lat="42.834165003150702" lon="-2.510329959914088">
        <ele>578.79999999999995</ele>
        <time>2019-06-23T07:23:42Z</time>
      </trkpt>
      <trkpt lat="42.834203979000449" lon="-2.510147988796234">
        <ele>578.79999999999995</ele>
        <time>2019-06-23T07:23:44Z</time>
      </trkpt>
      <trkpt lat="42.834245972335339" lon="-2.509965011849999">
        <ele>578.79999999999995</ele>
        <time>2019-06-23T07:23:46Z</time>
      </trkpt>
      <trkpt lat="42.83429098315537" lon="-2.509779017418623">
        <ele>578.60000000000002</ele>
        <time>2019-06-23T07:23:48Z</time>
      </trkpt>
      <trkpt lat="42.834339011460543" lon="-2.509591011330485">
        <ele>578.39999999999998</ele>
        <time>2019-06-23T07:23:50Z</time>
      </trkpt>
      <trkpt lat="42.834388967603445" lon="-2.509400993585587">
        <ele>578.20000000000005</ele>
        <time>2019-06-23T07:23:52Z</time>
      </trkpt>
      <trkpt lat="42.834444036707282" lon="-2.509209970012307">
        <ele>577.79999999999995</ele>
        <time>2019-06-23T07:23:54Z</time>
      </trkpt>
      <trkpt lat="42.834501033648849" lon="-2.509017018601298">
        <ele>577.79999999999995</ele>
        <time>2019-06-23T07:23:56Z</time>
      </trkpt>
      <trkpt lat="42.834560964256525" lon="-2.508821971714497">
        <ele>577.39999999999998</ele>
        <time>2019-06-23T07:23:58Z</time>
      </trkpt>
      <trkpt lat="42.834623996168375" lon="-2.508623991161585">
        <ele>577.20000000000005</ele>
        <time>2019-06-23T07:24:00Z</time>
      </trkpt>
      <trkpt lat="42.834657020866871" lon="-2.508523995056748">
        <ele>577.20000000000005</ele>
        <time>2019-06-23T07:24:01Z</time>
      </trkpt>
      <trkpt lat="42.834690967574716" lon="-2.508422993123531">
        <ele>577.20000000000005</ele>
        <time>2019-06-23T07:24:02Z</time>
      </trkpt>
      <trkpt lat="42.834761962294579" lon="-2.508220989257097">
        <ele>576.79999999999995</ele>
        <time>2019-06-23T07:24:04Z</time>
      </trkpt>
      <trkpt lat="42.834800016134977" lon="-2.50811998732388">
        <ele>576.60000000000002</ele>
        <time>2019-06-23T07:24:05Z</time>
      </trkpt>
      <trkpt lat="42.834838991984725" lon="-2.508016973733902">
        <ele>576.20000000000005</ele>
        <time>2019-06-23T07:24:06Z</time>
      </trkpt>
      <trkpt lat="42.834919961169362" lon="-2.507811030372977">
        <ele>576</ele>
        <time>2019-06-23T07:24:08Z</time>
      </trkpt>
      <trkpt lat="42.835004031658173" lon="-2.507599974051118">
        <ele>575.60000000000002</ele>
        <time>2019-06-23T07:24:10Z</time>
      </trkpt>
      <trkpt lat="42.835048036649823" lon="-2.50749402679503">
        <ele>575.60000000000002</ele>
        <time>2019-06-23T07:24:11Z</time>
      </trkpt>
      <trkpt lat="42.835091035813093" lon="-2.50738799571991">
        <ele>575.39999999999998</ele>
        <time>2019-06-23T07:24:12Z</time>
      </trkpt>
      <trkpt lat="42.835180973634124" lon="-2.50717400573194">
        <ele>574.60000000000002</ele>
        <time>2019-06-23T07:24:14Z</time>
      </trkpt>
      <trkpt lat="42.835272001102567" lon="-2.506956998258829">
        <ele>574.39999999999998</ele>
        <time>2019-06-23T07:24:16Z</time>
      </trkpt>
      <trkpt lat="42.83536403439939" lon="-2.506735967472196">
        <ele>574</ele>
        <time>2019-06-23T07:24:18Z</time>
      </trkpt>
      <trkpt lat="42.835455983877182" lon="-2.506510997191072">
        <ele>573.20000000000005</ele>
        <time>2019-06-23T07:24:20Z</time>
      </trkpt>
      <trkpt lat="42.835500994697213" lon="-2.5063990149647">
        <ele>573.20000000000005</ele>
        <time>2019-06-23T07:24:21Z</time>
      </trkpt>
      <trkpt lat="42.835546005517244" lon="-2.506285021081567">
        <ele>573</ele>
        <time>2019-06-23T07:24:22Z</time>
      </trkpt>
      <trkpt lat="42.835632003843784" lon="-2.50605502165854">
        <ele>572.39999999999998</ele>
        <time>2019-06-23T07:24:24Z</time>
      </trkpt>
      <trkpt lat="42.83571096137166" lon="-2.50582099892199">
        <ele>572</ele>
        <time>2019-06-23T07:24:26Z</time>
      </trkpt>
      <trkpt lat="42.835748009383678" lon="-2.505703987553716">
        <ele>571.79999999999995</ele>
        <time>2019-06-23T07:24:27Z</time>
      </trkpt>
      <trkpt lat="42.835782961919904" lon="-2.50558597035706">
        <ele>571.20000000000005</ele>
        <time>2019-06-23T07:24:28Z</time>
      </trkpt>
      <trkpt lat="42.835850017145276" lon="-2.505350019782782">
        <ele>570.60000000000002</ele>
        <time>2019-06-23T07:24:30Z</time>
      </trkpt>
      <trkpt lat="42.835912965238094" lon="-2.50511197373271">
        <ele>570.20000000000005</ele>
        <time>2019-06-23T07:24:32Z</time>
      </trkpt>
      <trkpt lat="42.835969040170312" lon="-2.504873005673289">
        <ele>569.79999999999995</ele>
        <time>2019-06-23T07:24:34Z</time>
      </trkpt>
      <trkpt lat="42.836021007969975" lon="-2.504633031785488">
        <ele>569.39999999999998</ele>
        <time>2019-06-23T07:24:36Z</time>
      </trkpt>
      <trkpt lat="42.836066018790007" lon="-2.504390962421894">
        <ele>569</ele>
        <time>2019-06-23T07:24:38Z</time>
      </trkpt>
      <trkpt lat="42.836104994639754" lon="-2.504149982705712">
        <ele>569</ele>
        <time>2019-06-23T07:24:40Z</time>
      </trkpt>
      <trkpt lat="42.836139025166631" lon="-2.50390799716115">
        <ele>568.79999999999995</ele>
        <time>2019-06-23T07:24:42Z</time>
      </trkpt>
      <trkpt lat="42.836170038208365" lon="-2.503668023273349">
        <ele>568.60000000000002</ele>
        <time>2019-06-23T07:24:44Z</time>
      </trkpt>
      <trkpt lat="42.836197027936578" lon="-2.503427965566516">
        <ele>568.60000000000002</ele>
        <time>2019-06-23T07:24:46Z</time>
      </trkpt>
      <trkpt lat="42.836208008229733" lon="-2.503308020532131">
        <ele>568.39999999999998</ele>
        <time>2019-06-23T07:24:47Z</time>
      </trkpt>
      <trkpt lat="42.836215971037745" lon="-2.503188997507095">
        <ele>568.39999999999998</ele>
        <time>2019-06-23T07:24:48Z</time>
      </trkpt>
      <trkpt lat="42.836230974644423" lon="-2.502952041104436">
        <ele>568.20000000000005</ele>
        <time>2019-06-23T07:24:50Z</time>
      </trkpt>
      <trkpt lat="42.836241032928228" lon="-2.502716006711125">
        <ele>568.20000000000005</ele>
        <time>2019-06-23T07:24:52Z</time>
      </trkpt>
      <trkpt lat="42.836242960765958" lon="-2.502598995342851">
        <ele>568.20000000000005</ele>
        <time>2019-06-23T07:24:53Z</time>
      </trkpt>
      <trkpt lat="42.836243966594338" lon="-2.502481983974576">
        <ele>568</ele>
        <time>2019-06-23T07:24:54Z</time>
      </trkpt>
      <trkpt lat="42.836241032928228" lon="-2.50225299037993">
        <ele>568</ele>
        <time>2019-06-23T07:24:56Z</time>
      </trkpt>
      <trkpt lat="42.836233992129564" lon="-2.502027014270425">
        <ele>567.79999999999995</ele>
        <time>2019-06-23T07:24:58Z</time>
      </trkpt>
      <trkpt lat="42.83622401766479" lon="-2.50180397182703">
        <ele>567.60000000000002</ele>
        <time>2019-06-23T07:25:00Z</time>
      </trkpt>
      <trkpt lat="42.836208008229733" lon="-2.50158503651619">
        <ele>567.39999999999998</ele>
        <time>2019-06-23T07:25:02Z</time>
      </trkpt>
      <trkpt lat="42.836186969652772" lon="-2.50137004069984">
        <ele>567.39999999999998</ele>
        <time>2019-06-23T07:25:04Z</time>
      </trkpt>
      <trkpt lat="42.836175989359617" lon="-2.501263003796339">
        <ele>567.39999999999998</ele>
        <time>2019-06-23T07:25:05Z</time>
      </trkpt>
      <trkpt lat="42.836162997409701" lon="-2.5011579785496">
        <ele>567.60000000000002</ele>
        <time>2019-06-23T07:25:06Z</time>
      </trkpt>
      <trkpt lat="42.836135001853108" lon="-2.500948011875153">
        <ele>567.60000000000002</ele>
        <time>2019-06-23T07:25:08Z</time>
      </trkpt>
      <trkpt lat="42.836103988811374" lon="-2.500741984695196">
        <ele>567.79999999999995</ele>
        <time>2019-06-23T07:25:10Z</time>
      </trkpt>
      <trkpt lat="42.836071969941258" lon="-2.500538975000382">
        <ele>567.79999999999995</ele>
        <time>2019-06-23T07:25:12Z</time>
      </trkpt>
      <trkpt lat="42.836036011576653" lon="-2.500339988619089">
        <ele>567.79999999999995</ele>
        <time>2019-06-23T07:25:14Z</time>
      </trkpt>
      <trkpt lat="42.836016984656453" lon="-2.500243009999394">
        <ele>567.79999999999995</ele>
        <time>2019-06-23T07:25:15Z</time>
      </trkpt>
      <trkpt lat="42.835997035726905" lon="-2.5001460313797">
        <ele>568</ele>
        <time>2019-06-23T07:25:16Z</time>
      </trkpt>
      <trkpt lat="42.835954036563635" lon="-2.49995500780642">
        <ele>568.20000000000005</ele>
        <time>2019-06-23T07:25:18Z</time>
      </trkpt>
      <trkpt lat="42.835907014086843" lon="-2.499768007546663">
        <ele>568.39999999999998</ele>
        <time>2019-06-23T07:25:20Z</time>
      </trkpt>
      <trkpt lat="42.835857979953289" lon="-2.499586958438158">
        <ele>568.39999999999998</ele>
        <time>2019-06-23T07:25:22Z</time>
      </trkpt>
      <trkpt lat="42.835808023810387" lon="-2.499411022290587">
        <ele>568.39999999999998</ele>
        <time>2019-06-23T07:25:24Z</time>
      </trkpt>
      <trkpt lat="42.835756978020072" lon="-2.499241037294269">
        <ele>568.39999999999998</ele>
        <time>2019-06-23T07:25:26Z</time>
      </trkpt>
      <trkpt lat="42.835704004392028" lon="-2.49907398596406">
        <ele>568.79999999999995</ele>
        <time>2019-06-23T07:25:28Z</time>
      </trkpt>
      <trkpt lat="42.835647007450461" lon="-2.498911041766405">
        <ele>569.20000000000005</ele>
        <time>2019-06-23T07:25:30Z</time>
      </trkpt>
      <trkpt lat="42.835587998852134" lon="-2.498752037063241">
        <ele>569.39999999999998</ele>
        <time>2019-06-23T07:25:32Z</time>
      </trkpt>
      <trkpt lat="42.83555899746716" lon="-2.498672995716333">
        <ele>569.39999999999998</ele>
        <time>2019-06-23T07:25:33Z</time>
      </trkpt>
      <trkpt lat="42.835528990253806" lon="-2.498594960197806">
        <ele>569.60000000000002</ele>
        <time>2019-06-23T07:25:34Z</time>
      </trkpt>
      <trkpt lat="42.835467969998717" lon="-2.498440984636545">
        <ele>570</ele>
        <time>2019-06-23T07:25:36Z</time>
      </trkpt>
      <trkpt lat="42.835404016077518" lon="-2.498289020732045">
        <ele>570.20000000000005</ele>
        <time>2019-06-23T07:25:38Z</time>
      </trkpt>
      <trkpt lat="42.835336960852146" lon="-2.498139990493655">
        <ele>570.60000000000002</ele>
        <time>2019-06-23T07:25:40Z</time>
      </trkpt>
      <trkpt lat="42.835268983617425" lon="-2.497994983568788">
        <ele>571</ele>
        <time>2019-06-23T07:25:42Z</time>
      </trkpt>
      <trkpt lat="42.835197988897562" lon="-2.497853999957442">
        <ele>571.20000000000005</ele>
        <time>2019-06-23T07:25:44Z</time>
      </trkpt>
      <trkpt lat="42.835160018876195" lon="-2.49778401106596">
        <ele>571.60000000000002</ele>
        <time>2019-06-23T07:25:45Z</time>
      </trkpt>
      <trkpt lat="42.835122970864177" lon="-2.497717039659619">
        <ele>571.39999999999998</ele>
        <time>2019-06-23T07:25:46Z</time>
      </trkpt>
      <trkpt lat="42.835048958659172" lon="-2.497582007199526">
        <ele>571.60000000000002</ele>
        <time>2019-06-23T07:25:48Z</time>
      </trkpt>
      <trkpt lat="42.834975030273199" lon="-2.497453009709716">
        <ele>572.20000000000005</ele>
        <time>2019-06-23T07:25:50Z</time>
      </trkpt>
      <trkpt lat="42.8349369764328" lon="-2.497390983626247">
        <ele>572.20000000000005</ele>
        <time>2019-06-23T07:25:51Z</time>
      </trkpt>
      <trkpt lat="42.834900012239814" lon="-2.497329963371158">
        <ele>572.39999999999998</ele>
        <time>2019-06-23T07:25:52Z</time>
      </trkpt>
      <trkpt lat="42.83482700586319" lon="-2.497208006680012">
        <ele>572.60000000000002</ele>
        <time>2019-06-23T07:25:54Z</time>
      </trkpt>
      <trkpt lat="42.834790041670203" lon="-2.497146986424923">
        <ele>572.79999999999995</ele>
        <time>2019-06-23T07:25:55Z</time>
      </trkpt>
      <trkpt lat="42.834753999486566" lon="-2.497085966169834">
        <ele>572.79999999999995</ele>
        <time>2019-06-23T07:25:56Z</time>
      </trkpt>
      <trkpt lat="42.834717035293579" lon="-2.497025029733777">
        <ele>573</ele>
        <time>2019-06-23T07:25:57Z</time>
      </trkpt>
      <trkpt lat="42.834679987281561" lon="-2.496966021135449">
        <ele>573.20000000000005</ele>
        <time>2019-06-23T07:25:58Z</time>
      </trkpt>
      <trkpt lat="42.834607986733317" lon="-2.496848003938794">
        <ele>573.79999999999995</ele>
        <time>2019-06-23T07:26:00Z</time>
      </trkpt>
      <trkpt lat="42.834536992013454" lon="-2.496728980913758">
        <ele>574</ele>
        <time>2019-06-23T07:26:02Z</time>
      </trkpt>
      <trkpt lat="42.834464991465211" lon="-2.496611969545484">
        <ele>574.20000000000005</ele>
        <time>2019-06-23T07:26:04Z</time>
      </trkpt>
      <trkpt lat="42.834430038928986" lon="-2.496552960947156">
        <ele>574.39999999999998</ele>
        <time>2019-06-23T07:26:05Z</time>
      </trkpt>
      <trkpt lat="42.834393996745348" lon="-2.49649403616786">
        <ele>574.79999999999995</ele>
        <time>2019-06-23T07:26:06Z</time>
      </trkpt>
      <trkpt lat="42.834323002025485" lon="-2.496375013142824">
        <ele>575</ele>
        <time>2019-06-23T07:26:08Z</time>
      </trkpt>
      <trkpt lat="42.834287965670228" lon="-2.496316004544497">
        <ele>575.20000000000005</ele>
        <time>2019-06-23T07:26:09Z</time>
      </trkpt>
      <trkpt lat="42.834252007305622" lon="-2.496256995946169">
        <ele>575.39999999999998</ele>
        <time>2019-06-23T07:26:10Z</time>
      </trkpt>
      <trkpt lat="42.834181012585759" lon="-2.496138978749514">
        <ele>575.79999999999995</ele>
        <time>2019-06-23T07:26:12Z</time>
      </trkpt>
      <trkpt lat="42.834109012037516" lon="-2.49602003954351">
        <ele>576</ele>
        <time>2019-06-23T07:26:14Z</time>
      </trkpt>
      <trkpt lat="42.834038017317653" lon="-2.495903028175235">
        <ele>576.79999999999995</ele>
        <time>2019-06-23T07:26:16Z</time>
      </trkpt>
      <trkpt lat="42.83396702259779" lon="-2.495782999321818">
        <ele>577.20000000000005</ele>
        <time>2019-06-23T07:26:18Z</time>
      </trkpt>
      <trkpt lat="42.833896027877927" lon="-2.495663976296783">
        <ele>577.79999999999995</ele>
        <time>2019-06-23T07:26:20Z</time>
      </trkpt>
      <trkpt lat="42.833825033158064" lon="-2.495545959100127">
        <ele>577.79999999999995</ele>
        <time>2019-06-23T07:26:22Z</time>
      </trkpt>
      <trkpt lat="42.833788990974426" lon="-2.495486028492451">
        <ele>578</ele>
        <time>2019-06-23T07:26:23Z</time>
      </trkpt>
      <trkpt lat="42.83375303260982" lon="-2.495426014065743">
        <ele>578</ele>
        <time>2019-06-23T07:26:24Z</time>
      </trkpt>
      <trkpt lat="42.833680026233196" lon="-2.495304979383946">
        <ele>578.39999999999998</ele>
        <time>2019-06-23T07:26:26Z</time>
      </trkpt>
      <trkpt lat="42.833608025684953" lon="-2.495185034349561">
        <ele>578.60000000000002</ele>
        <time>2019-06-23T07:26:28Z</time>
      </trkpt>
      <trkpt lat="42.833535019308329" lon="-2.495066011324525">
        <ele>578.79999999999995</ele>
        <time>2019-06-23T07:26:30Z</time>
      </trkpt>
      <trkpt lat="42.833463018760085" lon="-2.494946988299489">
        <ele>579.20000000000005</ele>
        <time>2019-06-23T07:26:32Z</time>
      </trkpt>
      <trkpt lat="42.833426976576447" lon="-2.4948859680444">
        <ele>579.20000000000005</ele>
        <time>2019-06-23T07:26:33Z</time>
      </trkpt>
      <trkpt lat="42.833391018211842" lon="-2.494825031608343">
        <ele>579.20000000000005</ele>
        <time>2019-06-23T07:26:34Z</time>
      </trkpt>
      <trkpt lat="42.833317006006837" lon="-2.494703996926546">
        <ele>579.39999999999998</ele>
        <time>2019-06-23T07:26:36Z</time>
      </trkpt>
      <trkpt lat="42.833243999630213" lon="-2.49458103440702">
        <ele>579.60000000000002</ele>
        <time>2019-06-23T07:26:38Z</time>
      </trkpt>
      <trkpt lat="42.833170993253589" lon="-2.4944559764117">
        <ele>579.79999999999995</ele>
        <time>2019-06-23T07:26:40Z</time>
      </trkpt>
      <trkpt lat="42.833098992705345" lon="-2.494333013892174">
        <ele>580.20000000000005</ele>
        <time>2019-06-23T07:26:42Z</time>
      </trkpt>
      <trkpt lat="42.833027997985482" lon="-2.494208961725235">
        <ele>580.39999999999998</ele>
        <time>2019-06-23T07:26:44Z</time>
      </trkpt>
      <trkpt lat="42.832955997437239" lon="-2.494084993377328">
        <ele>580.60000000000002</ele>
        <time>2019-06-23T07:26:46Z</time>
      </trkpt>
      <trkpt lat="42.832881985232234" lon="-2.493963036686182">
        <ele>580.79999999999995</ele>
        <time>2019-06-23T07:26:48Z</time>
      </trkpt>
      <trkpt lat="42.832845021039248" lon="-2.493902016431093">
        <ele>581</ele>
        <time>2019-06-23T07:26:49Z</time>
      </trkpt>
      <trkpt lat="42.832806967198849" lon="-2.493840996176004">
        <ele>581</ele>
        <time>2019-06-23T07:26:50Z</time>
      </trkpt>
      <trkpt lat="42.832733038812876" lon="-2.493718033656478">
        <ele>581</ele>
        <time>2019-06-23T07:26:52Z</time>
      </trkpt>
      <trkpt lat="42.832659026607871" lon="-2.493596998974681">
        <ele>581.20000000000005</ele>
        <time>2019-06-23T07:26:54Z</time>
      </trkpt>
      <trkpt lat="42.832585014402866" lon="-2.493474036455154">
        <ele>581.39999999999998</ele>
        <time>2019-06-23T07:26:56Z</time>
      </trkpt>
      <trkpt lat="42.832513013854623" lon="-2.493351995944977">
        <ele>581.60000000000002</ele>
        <time>2019-06-23T07:26:58Z</time>
      </trkpt>
      <trkpt lat="42.832439001649618" lon="-2.493230039253831">
        <ele>581.79999999999995</ele>
        <time>2019-06-23T07:27:00Z</time>
      </trkpt>
      <trkpt lat="42.832402037456632" lon="-2.493168013170362">
        <ele>581.79999999999995</ele>
        <time>2019-06-23T07:27:01Z</time>
      </trkpt>
      <trkpt lat="42.832363983616233" lon="-2.493106992915273">
        <ele>582.20000000000005</ele>
        <time>2019-06-23T07:27:02Z</time>
      </trkpt>
      <trkpt lat="42.832288965582848" lon="-2.492984030395746">
        <ele>582.39999999999998</ele>
        <time>2019-06-23T07:27:04Z</time>
      </trkpt>
      <trkpt lat="42.832252001389861" lon="-2.492923010140657">
        <ele>582.39999999999998</ele>
        <time>2019-06-23T07:27:05Z</time>
      </trkpt>
      <trkpt lat="42.832215037196875" lon="-2.492860984057188">
        <ele>582.60000000000002</ele>
        <time>2019-06-23T07:27:06Z</time>
      </trkpt>
      <trkpt lat="42.83214102499187" lon="-2.492738021537662">
        <ele>582.79999999999995</ele>
        <time>2019-06-23T07:27:08Z</time>
      </trkpt>
      <trkpt lat="42.832067012786865" lon="-2.492613969370723">
        <ele>583.20000000000005</ele>
        <time>2019-06-23T07:27:10Z</time>
      </trkpt>
      <trkpt lat="42.831994006410241" lon="-2.492491006851196">
        <ele>583.20000000000005</ele>
        <time>2019-06-23T07:27:12Z</time>
      </trkpt>
      <trkpt lat="42.831918988376856" lon="-2.492367960512638">
        <ele>583.39999999999998</ele>
        <time>2019-06-23T07:27:14Z</time>
      </trkpt>
      <trkpt lat="42.831844976171851" lon="-2.49224198050797">
        <ele>583.39999999999998</ele>
        <time>2019-06-23T07:27:16Z</time>
      </trkpt>
      <trkpt lat="42.831808011978865" lon="-2.492180960252881">
        <ele>583.60000000000002</ele>
        <time>2019-06-23T07:27:17Z</time>
      </trkpt>
      <trkpt lat="42.831769958138466" lon="-2.492119017988443">
        <ele>583.39999999999998</ele>
        <time>2019-06-23T07:27:18Z</time>
      </trkpt>
      <trkpt lat="42.831694018095732" lon="-2.491993037983775">
        <ele>583.60000000000002</ele>
        <time>2019-06-23T07:27:20Z</time>
      </trkpt>
      <trkpt lat="42.831617994233966" lon="-2.491864040493965">
        <ele>583.60000000000002</ele>
        <time>2019-06-23T07:27:22Z</time>
      </trkpt>
      <trkpt lat="42.8315419703722" lon="-2.491733031347394">
        <ele>583.60000000000002</ele>
        <time>2019-06-23T07:27:24Z</time>
      </trkpt>
      <trkpt lat="42.831464018672705" lon="-2.491603028029203">
        <ele>583.60000000000002</ele>
        <time>2019-06-23T07:27:26Z</time>
      </trkpt>
      <trkpt lat="42.831384977325797" lon="-2.491472018882632">
        <ele>583.79999999999995</ele>
        <time>2019-06-23T07:27:28Z</time>
      </trkpt>
      <trkpt lat="42.831344995647669" lon="-2.49140496365726">
        <ele>583.60000000000002</ele>
        <time>2019-06-23T07:27:29Z</time>
      </trkpt>
      <trkpt lat="42.831305013969541" lon="-2.491337992250919">
        <ele>583.60000000000002</ele>
        <time>2019-06-23T07:27:30Z</time>
      </trkpt>
      <trkpt lat="42.831223960965872" lon="-2.491200026124716">
        <ele>583.60000000000002</ele>
        <time>2019-06-23T07:27:32Z</time>
      </trkpt>
      <trkpt lat="42.831140980124474" lon="-2.4910609703511">
        <ele>583.60000000000002</ele>
        <time>2019-06-23T07:27:34Z</time>
      </trkpt>
      <trkpt lat="42.831054981797934" lon="-2.490919986739755">
        <ele>583.39999999999998</ele>
        <time>2019-06-23T07:27:36Z</time>
      </trkpt>
      <trkpt lat="42.830965965986252" lon="-2.490774979814887">
        <ele>583.39999999999998</ele>
        <time>2019-06-23T07:27:38Z</time>
      </trkpt>
      <trkpt lat="42.830877033993602" lon="-2.490627039223909">
        <ele>583.39999999999998</ele>
        <time>2019-06-23T07:27:40Z</time>
      </trkpt>
      <trkpt lat="42.830786006525159" lon="-2.490474991500378">
        <ele>583</ele>
        <time>2019-06-23T07:27:42Z</time>
      </trkpt>
      <trkpt lat="42.830693973228335" lon="-2.490321015939117">
        <ele>582.60000000000002</ele>
        <time>2019-06-23T07:27:44Z</time>
      </trkpt>
      <trkpt lat="42.830602023750544" lon="-2.490167040377855">
        <ele>582.20000000000005</ele>
        <time>2019-06-23T07:27:46Z</time>
      </trkpt>
      <trkpt lat="42.83050999045372" lon="-2.490017004311085">
        <ele>581.79999999999995</ele>
        <time>2019-06-23T07:27:48Z</time>
      </trkpt>
      <trkpt lat="42.830427009612322" lon="-2.48987602069974">
        <ele>581.60000000000002</ele>
        <time>2019-06-23T07:27:50Z</time>
      </trkpt>
      <trkpt lat="42.830389961600304" lon="-2.489811982959509">
        <ele>581.39999999999998</ele>
        <time>2019-06-23T07:27:51Z</time>
      </trkpt>
      <trkpt lat="42.830354003235698" lon="-2.48975096270442">
        <ele>581.39999999999998</ele>
        <time>2019-06-23T07:27:52Z</time>
      </trkpt>
      <trkpt lat="42.830288037657738" lon="-2.489643003791571">
        <ele>581.39999999999998</ele>
        <time>2019-06-23T07:27:54Z</time>
      </trkpt>
      <trkpt lat="42.830257024616003" lon="-2.489591035991907">
        <ele>581.39999999999998</ele>
        <time>2019-06-23T07:27:55Z</time>
      </trkpt>
      <trkpt lat="42.83022802323103" lon="-2.489538984373212">
        <ele>581.39999999999998</ele>
        <time>2019-06-23T07:27:56Z</time>
      </trkpt>
      <trkpt lat="42.830198016017675" lon="-2.489487016573548">
        <ele>581.39999999999998</ele>
        <time>2019-06-23T07:27:57Z</time>
      </trkpt>
      <trkpt lat="42.830167002975941" lon="-2.489438988268375">
        <ele>581.39999999999998</ele>
        <time>2019-06-23T07:27:58Z</time>
      </trkpt>
      <trkpt lat="42.830107994377613" lon="-2.489346032962203">
        <ele>581.60000000000002</ele>
        <time>2019-06-23T07:28:00Z</time>
      </trkpt>
      <trkpt lat="42.83007899299264" lon="-2.489295993000269">
        <ele>582</ele>
        <time>2019-06-23T07:28:01Z</time>
      </trkpt>
      <trkpt lat="42.830052003264427" lon="-2.489245031028986">
        <ele>582.20000000000005</ele>
        <time>2019-06-23T07:28:02Z</time>
      </trkpt>
      <trkpt lat="42.830024007707834" lon="-2.489192979410291">
        <ele>582.60000000000002</ele>
        <time>2019-06-23T07:28:03Z</time>
      </trkpt>
      <trkpt lat="42.829995006322861" lon="-2.489144029095769">
        <ele>583.20000000000005</ele>
        <time>2019-06-23T07:28:04Z</time>
      </trkpt>
      <trkpt lat="42.829934991896152" lon="-2.489048978313804">
        <ele>583.79999999999995</ele>
        <time>2019-06-23T07:28:06Z</time>
      </trkpt>
      <trkpt lat="42.829874977469444" lon="-2.488946970552206">
        <ele>584.79999999999995</ele>
        <time>2019-06-23T07:28:08Z</time>
      </trkpt>
      <trkpt lat="42.829815968871117" lon="-2.488844962790608">
        <ele>585.79999999999995</ele>
        <time>2019-06-23T07:28:10Z</time>
      </trkpt>
      <trkpt lat="42.82975603826344" lon="-2.488748989999294">
        <ele>587</ele>
        <time>2019-06-23T07:28:12Z</time>
      </trkpt>
      <trkpt lat="42.829697029665112" lon="-2.488648993894458">
        <ele>587.79999999999995</ele>
        <time>2019-06-23T07:28:14Z</time>
      </trkpt>
      <trkpt lat="42.829668028280139" lon="-2.488598031923175">
        <ele>588</ele>
        <time>2019-06-23T07:28:15Z</time>
      </trkpt>
      <trkpt lat="42.829638021066785" lon="-2.488548997789621">
        <ele>588.20000000000005</ele>
        <time>2019-06-23T07:28:16Z</time>
      </trkpt>
      <trkpt lat="42.829608013853431" lon="-2.488499041646719">
        <ele>588.39999999999998</ele>
        <time>2019-06-23T07:28:17Z</time>
      </trkpt>
      <trkpt lat="42.829575994983315" lon="-2.488452019169927">
        <ele>588.39999999999998</ele>
        <time>2019-06-23T07:28:18Z</time>
      </trkpt>
      <trkpt lat="42.829512041062117" lon="-2.488346993923187">
        <ele>589</ele>
        <time>2019-06-23T07:28:20Z</time>
      </trkpt>
      <trkpt lat="42.829449009150267" lon="-2.488240040838718">
        <ele>589.20000000000005</ele>
        <time>2019-06-23T07:28:22Z</time>
      </trkpt>
      <trkpt lat="42.829386983066797" lon="-2.488133003935218">
        <ele>589.60000000000002</ele>
        <time>2019-06-23T07:28:24Z</time>
      </trkpt>
      <trkpt lat="42.829324034973979" lon="-2.488024039193988">
        <ele>590.60000000000002</ele>
        <time>2019-06-23T07:28:26Z</time>
      </trkpt>
      <trkpt lat="42.829258991405368" lon="-2.487914990633726">
        <ele>591.60000000000002</ele>
        <time>2019-06-23T07:28:28Z</time>
      </trkpt>
      <trkpt lat="42.829194031655788" lon="-2.487806025892496">
        <ele>592</ele>
        <time>2019-06-23T07:28:30Z</time>
      </trkpt>
      <trkpt lat="42.829126976430416" lon="-2.487698988988996">
        <ele>592.20000000000005</ele>
        <time>2019-06-23T07:28:32Z</time>
      </trkpt>
      <trkpt lat="42.829062016680837" lon="-2.487590024247766">
        <ele>592.39999999999998</ele>
        <time>2019-06-23T07:28:34Z</time>
      </trkpt>
      <trkpt lat="42.829028991982341" lon="-2.48753503896296">
        <ele>592.39999999999998</ele>
        <time>2019-06-23T07:28:35Z</time>
      </trkpt>
      <trkpt lat="42.828995967283845" lon="-2.487479969859123">
        <ele>592.60000000000002</ele>
        <time>2019-06-23T07:28:36Z</time>
      </trkpt>
      <trkpt lat="42.828931007534266" lon="-2.487368993461132">
        <ele>593</ele>
        <time>2019-06-23T07:28:38Z</time>
      </trkpt>
      <trkpt lat="42.828864036127925" lon="-2.487259022891522">
        <ele>593.39999999999998</ele>
        <time>2019-06-23T07:28:40Z</time>
      </trkpt>
      <trkpt lat="42.828798992559314" lon="-2.487148968502879">
        <ele>593.79999999999995</ele>
        <time>2019-06-23T07:28:42Z</time>
      </trkpt>
      <trkpt lat="42.828732021152973" lon="-2.487037992104888">
        <ele>594.20000000000005</ele>
        <time>2019-06-23T07:28:44Z</time>
      </trkpt>
      <trkpt lat="42.828665971755981" lon="-2.486926009878516">
        <ele>594.39999999999998</ele>
        <time>2019-06-23T07:28:46Z</time>
      </trkpt>
      <trkpt lat="42.828599000349641" lon="-2.486813021823764">
        <ele>594.39999999999998</ele>
        <time>2019-06-23T07:28:48Z</time>
      </trkpt>
      <trkpt lat="42.828564969822764" lon="-2.486757030710578">
        <ele>594.60000000000002</ele>
        <time>2019-06-23T07:28:49Z</time>
      </trkpt>
      <trkpt lat="42.8285320289433" lon="-2.486701039597392">
        <ele>594.60000000000002</ele>
        <time>2019-06-23T07:28:50Z</time>
      </trkpt>
      <trkpt lat="42.828497998416424" lon="-2.486643958836794">
        <ele>594.60000000000002</ele>
        <time>2019-06-23T07:28:51Z</time>
      </trkpt>
      <trkpt lat="42.828464973717928" lon="-2.486587967723608">
        <ele>594.60000000000002</ele>
        <time>2019-06-23T07:28:52Z</time>
      </trkpt>
      <trkpt lat="42.828396996483207" lon="-2.486475985497236">
        <ele>594.79999999999995</ele>
        <time>2019-06-23T07:28:54Z</time>
      </trkpt>
      <trkpt lat="42.828329019248486" lon="-2.486364003270865">
        <ele>595</ele>
        <time>2019-06-23T07:28:56Z</time>
      </trkpt>
      <trkpt lat="42.828260958194733" lon="-2.486252021044493">
        <ele>595.20000000000005</ele>
        <time>2019-06-23T07:28:58Z</time>
      </trkpt>
      <trkpt lat="42.828193986788392" lon="-2.48613903298974">
        <ele>595.39999999999998</ele>
        <time>2019-06-23T07:29:00Z</time>
      </trkpt>
      <trkpt lat="42.828126009553671" lon="-2.486025961115956">
        <ele>595.60000000000002</ele>
        <time>2019-06-23T07:29:02Z</time>
      </trkpt>
      <trkpt lat="42.828091979026794" lon="-2.48596896417439">
        <ele>595.60000000000002</ele>
        <time>2019-06-23T07:29:03Z</time>
      </trkpt>
      <trkpt lat="42.82805803231895" lon="-2.485910961404443">
        <ele>595.79999999999995</ele>
        <time>2019-06-23T07:29:04Z</time>
      </trkpt>
      <trkpt lat="42.827989971265197" lon="-2.48579797334969">
        <ele>596</ele>
        <time>2019-06-23T07:29:06Z</time>
      </trkpt>
      <trkpt lat="42.827922999858856" lon="-2.485683979466558">
        <ele>596</ele>
        <time>2019-06-23T07:29:08Z</time>
      </trkpt>
      <trkpt lat="42.827858040109277" lon="-2.485570991411805">
        <ele>596.20000000000005</ele>
        <time>2019-06-23T07:29:10Z</time>
      </trkpt>
      <trkpt lat="42.827790984883904" lon="-2.485460015013814">
        <ele>596.20000000000005</ele>
        <time>2019-06-23T07:29:12Z</time>
      </trkpt>
      <trkpt lat="42.827727030962706" lon="-2.485349038615823">
        <ele>596.39999999999998</ele>
        <time>2019-06-23T07:29:14Z</time>
      </trkpt>
      <trkpt lat="42.82769400626421" lon="-2.485293969511986">
        <ele>596.39999999999998</ele>
        <time>2019-06-23T07:29:15Z</time>
      </trkpt>
      <trkpt lat="42.827661987394094" lon="-2.485239990055561">
        <ele>596.79999999999995</ele>
        <time>2019-06-23T07:29:16Z</time>
      </trkpt>
      <trkpt lat="42.827598033472896" lon="-2.485131025314331">
        <ele>596.79999999999995</ele>
        <time>2019-06-23T07:29:18Z</time>
      </trkpt>
      <trkpt lat="42.827532989904284" lon="-2.485021976754069">
        <ele>596.79999999999995</ele>
        <time>2019-06-23T07:29:20Z</time>
      </trkpt>
      <trkpt lat="42.827468030154705" lon="-2.48491401784122">
        <ele>596.79999999999995</ele>
        <time>2019-06-23T07:29:22Z</time>
      </trkpt>
      <trkpt lat="42.827401980757713" lon="-2.484803963452578">
        <ele>597.20000000000005</ele>
        <time>2019-06-23T07:29:24Z</time>
      </trkpt>
      <trkpt lat="42.827369039878249" lon="-2.484746966511011">
        <ele>597.79999999999995</ele>
        <time>2019-06-23T07:29:25Z</time>
      </trkpt>
      <trkpt lat="42.827335009351373" lon="-2.484691981226206">
        <ele>598</ele>
        <time>2019-06-23T07:29:26Z</time>
      </trkpt>
      <trkpt lat="42.827301984652877" lon="-2.484634984284639">
        <ele>598.20000000000005</ele>
        <time>2019-06-23T07:29:27Z</time>
      </trkpt>
      <trkpt lat="42.827268959954381" lon="-2.484577987343073">
        <ele>598.39999999999998</ele>
        <time>2019-06-23T07:29:28Z</time>
      </trkpt>
      <trkpt lat="42.82720098271966" lon="-2.484464999288321">
        <ele>598.60000000000002</ele>
        <time>2019-06-23T07:29:30Z</time>
      </trkpt>
      <trkpt lat="42.8271350171417" lon="-2.484349999576807">
        <ele>598.79999999999995</ele>
        <time>2019-06-23T07:29:32Z</time>
      </trkpt>
      <trkpt lat="42.827100986614823" lon="-2.484294008463621">
        <ele>599</ele>
        <time>2019-06-23T07:29:33Z</time>
      </trkpt>
      <trkpt lat="42.827066034078598" lon="-2.484238017350435">
        <ele>599.39999999999998</ele>
        <time>2019-06-23T07:29:34Z</time>
      </trkpt>
      <trkpt lat="42.826998978853226" lon="-2.484123017638922">
        <ele>599.79999999999995</ele>
        <time>2019-06-23T07:29:36Z</time>
      </trkpt>
      <trkpt lat="42.826929995790124" lon="-2.484008017927408">
        <ele>600.20000000000005</ele>
        <time>2019-06-23T07:29:38Z</time>
      </trkpt>
      <trkpt lat="42.826896971091628" lon="-2.483950015157461">
        <ele>600.39999999999998</ele>
        <time>2019-06-23T07:29:39Z</time>
      </trkpt>
      <trkpt lat="42.826863024383783" lon="-2.483891006559134">
        <ele>600.39999999999998</ele>
        <time>2019-06-23T07:29:40Z</time>
      </trkpt>
      <trkpt lat="42.826793035492301" lon="-2.483771983534098">
        <ele>600.79999999999995</ele>
        <time>2019-06-23T07:29:42Z</time>
      </trkpt>
      <trkpt lat="42.826722040772438" lon="-2.483652960509062">
        <ele>600.79999999999995</ele>
        <time>2019-06-23T07:29:44Z</time>
      </trkpt>
      <trkpt lat="42.826651968061924" lon="-2.483534021303058">
        <ele>600.79999999999995</ele>
        <time>2019-06-23T07:29:46Z</time>
      </trkpt>
      <trkpt lat="42.826582984998822" lon="-2.483412986621261">
        <ele>601</ele>
        <time>2019-06-23T07:29:48Z</time>
      </trkpt>
      <trkpt lat="42.82651400193572" lon="-2.483294969424605">
        <ele>601.39999999999998</ele>
        <time>2019-06-23T07:29:50Z</time>
      </trkpt>
      <trkpt lat="42.826478965580463" lon="-2.483235960826278">
        <ele>601.39999999999998</ele>
        <time>2019-06-23T07:29:51Z</time>
      </trkpt>
      <trkpt lat="42.826445018872619" lon="-2.483177036046982">
        <ele>601.60000000000002</ele>
        <time>2019-06-23T07:29:52Z</time>
      </trkpt>
      <trkpt lat="42.826376035809517" lon="-2.483061030507088">
        <ele>601.60000000000002</ele>
        <time>2019-06-23T07:29:54Z</time>
      </trkpt>
      <trkpt lat="42.826307974755764" lon="-2.482945024967194">
        <ele>601.60000000000002</ele>
        <time>2019-06-23T07:29:56Z</time>
      </trkpt>
      <trkpt lat="42.826239997521043" lon="-2.482828013598919">
        <ele>601.60000000000002</ele>
        <time>2019-06-23T07:29:58Z</time>
      </trkpt>
      <trkpt lat="42.826172020286322" lon="-2.482713013887405">
        <ele>601.79999999999995</ele>
        <time>2019-06-23T07:30:00Z</time>
      </trkpt>
      <trkpt lat="42.826103959232569" lon="-2.482597008347511">
        <ele>601.79999999999995</ele>
        <time>2019-06-23T07:30:02Z</time>
      </trkpt>
      <trkpt lat="42.826070012524724" lon="-2.482537999749184">
        <ele>602.20000000000005</ele>
        <time>2019-06-23T07:30:03Z</time>
      </trkpt>
      <trkpt lat="42.826036987826228" lon="-2.482479996979237">
        <ele>602.20000000000005</ele>
        <time>2019-06-23T07:30:04Z</time>
      </trkpt>
      <trkpt lat="42.825969010591507" lon="-2.482363991439343">
        <ele>602.39999999999998</ele>
        <time>2019-06-23T07:30:06Z</time>
      </trkpt>
      <trkpt lat="42.825901033356786" lon="-2.48224999755621">
        <ele>602.79999999999995</ele>
        <time>2019-06-23T07:30:08Z</time>
      </trkpt>
      <trkpt lat="42.825832972303033" lon="-2.482133992016316">
        <ele>603</ele>
        <time>2019-06-23T07:30:10Z</time>
      </trkpt>
      <trkpt lat="42.825763989239931" lon="-2.482019998133183">
        <ele>603.39999999999998</ele>
        <time>2019-06-23T07:30:12Z</time>
      </trkpt>
      <trkpt lat="42.82569601200521" lon="-2.48190600425005">
        <ele>603.60000000000002</ele>
        <time>2019-06-23T07:30:14Z</time>
      </trkpt>
      <trkpt lat="42.825629040598869" lon="-2.481791004538536">
        <ele>603.60000000000002</ele>
        <time>2019-06-23T07:30:16Z</time>
      </trkpt>
      <trkpt lat="42.825561985373497" lon="-2.481676004827023">
        <ele>603.79999999999995</ele>
        <time>2019-06-23T07:30:18Z</time>
      </trkpt>
      <trkpt lat="42.825496019795537" lon="-2.48156201094389">
        <ele>603.60000000000002</ele>
        <time>2019-06-23T07:30:20Z</time>
      </trkpt>
      <trkpt lat="42.825427958741784" lon="-2.481449022889137">
        <ele>603.79999999999995</ele>
        <time>2019-06-23T07:30:22Z</time>
      </trkpt>
      <trkpt lat="42.825359981507063" lon="-2.481336034834385">
        <ele>604</ele>
        <time>2019-06-23T07:30:24Z</time>
      </trkpt>
      <trkpt lat="42.825293010100722" lon="-2.481222040951252">
        <ele>604.20000000000005</ele>
        <time>2019-06-23T07:30:26Z</time>
      </trkpt>
      <trkpt lat="42.825226960703731" lon="-2.481108969077468">
        <ele>604.60000000000002</ele>
        <time>2019-06-23T07:30:28Z</time>
      </trkpt>
      <trkpt lat="42.825160995125771" lon="-2.480995981022716">
        <ele>604.79999999999995</ele>
        <time>2019-06-23T07:30:30Z</time>
      </trkpt>
      <trkpt lat="42.825096035376191" lon="-2.480883998796344">
        <ele>605.20000000000005</ele>
        <time>2019-06-23T07:30:32Z</time>
      </trkpt>
      <trkpt lat="42.825029985979199" lon="-2.480773022398353">
        <ele>605.39999999999998</ele>
        <time>2019-06-23T07:30:34Z</time>
      </trkpt>
      <trkpt lat="42.824963014572859" lon="-2.4806600343436">
        <ele>605.60000000000002</ele>
        <time>2019-06-23T07:30:36Z</time>
      </trkpt>
      <trkpt lat="42.824895037338138" lon="-2.480546962469816">
        <ele>606</ele>
        <time>2019-06-23T07:30:38Z</time>
      </trkpt>
      <trkpt lat="42.824826976284385" lon="-2.480434980243444">
        <ele>606.20000000000005</ele>
        <time>2019-06-23T07:30:40Z</time>
      </trkpt>
      <trkpt lat="42.824794035404921" lon="-2.480377983301878">
        <ele>606.39999999999998</ele>
        <time>2019-06-23T07:30:41Z</time>
      </trkpt>
      <trkpt lat="42.824761010706425" lon="-2.480319980531931">
        <ele>606.79999999999995</ele>
        <time>2019-06-23T07:30:42Z</time>
      </trkpt>
      <trkpt lat="42.824693033471704" lon="-2.480204980820417">
        <ele>606.60000000000002</ele>
        <time>2019-06-23T07:30:44Z</time>
      </trkpt>
      <trkpt lat="42.82462396658957" lon="-2.480086963623762">
        <ele>607</ele>
        <time>2019-06-23T07:30:46Z</time>
      </trkpt>
      <trkpt lat="42.824553977698088" lon="-2.479968024417758">
        <ele>607.39999999999998</ele>
        <time>2019-06-23T07:30:48Z</time>
      </trkpt>
      <trkpt lat="42.824484994634986" lon="-2.479850007221103">
        <ele>607.39999999999998</ele>
        <time>2019-06-23T07:30:50Z</time>
      </trkpt>
      <trkpt lat="42.824450964108109" lon="-2.479789992794395">
        <ele>607.60000000000002</ele>
        <time>2019-06-23T07:30:51Z</time>
      </trkpt>
      <trkpt lat="42.824416011571884" lon="-2.479730984196067">
        <ele>607.60000000000002</ele>
        <time>2019-06-23T07:30:52Z</time>
      </trkpt>
      <trkpt lat="42.82434300519526" lon="-2.479613972827792">
        <ele>608</ele>
        <time>2019-06-23T07:30:54Z</time>
      </trkpt>
      <trkpt lat="42.824306963011622" lon="-2.479554964229465">
        <ele>608</ele>
        <time>2019-06-23T07:30:55Z</time>
      </trkpt>
      <trkpt lat="42.824271004647017" lon="-2.479496039450169">
        <ele>608.20000000000005</ele>
        <time>2019-06-23T07:30:56Z</time>
      </trkpt>
      <trkpt lat="42.824195986613631" lon="-2.479380033910275">
        <ele>608.39999999999998</ele>
        <time>2019-06-23T07:30:58Z</time>
      </trkpt>
      <trkpt lat="42.824119962751865" lon="-2.479268973693252">
        <ele>608.60000000000002</ele>
        <time>2019-06-23T07:31:00Z</time>
      </trkpt>
      <trkpt lat="42.824041005223989" lon="-2.479162020608783">
        <ele>608.79999999999995</ele>
        <time>2019-06-23T07:31:02Z</time>
      </trkpt>
      <trkpt lat="42.824001023545861" lon="-2.479109968990088">
        <ele>608.79999999999995</ele>
        <time>2019-06-23T07:31:03Z</time>
      </trkpt>
      <trkpt lat="42.823960036039352" lon="-2.479060012847185">
        <ele>609</ele>
        <time>2019-06-23T07:31:04Z</time>
      </trkpt>
      <trkpt lat="42.823876971378922" lon="-2.47896303422749">
        <ele>609</ele>
        <time>2019-06-23T07:31:06Z</time>
      </trkpt>
      <trkpt lat="42.823790973052382" lon="-2.478871000930667">
        <ele>609.20000000000005</ele>
        <time>2019-06-23T07:31:08Z</time>
      </trkpt>
      <trkpt lat="42.823703968897462" lon="-2.478781985118985">
        <ele>609.60000000000002</ele>
        <time>2019-06-23T07:31:10Z</time>
      </trkpt>
      <trkpt lat="42.823615036904812" lon="-2.478694980964065">
        <ele>609.79999999999995</ele>
        <time>2019-06-23T07:31:12Z</time>
      </trkpt>
      <trkpt lat="42.823570026084781" lon="-2.478650975972414">
        <ele>609.79999999999995</ele>
        <time>2019-06-23T07:31:13Z</time>
      </trkpt>
      <trkpt lat="42.823524009436369" lon="-2.478606970980763">
        <ele>610</ele>
        <time>2019-06-23T07:31:14Z</time>
      </trkpt>
      <trkpt lat="42.823432981967926" lon="-2.478522984310985">
        <ele>610</ele>
        <time>2019-06-23T07:31:16Z</time>
      </trkpt>
      <trkpt lat="42.823341032490134" lon="-2.478442015126348">
        <ele>610.20000000000005</ele>
        <time>2019-06-23T07:31:18Z</time>
      </trkpt>
      <trkpt lat="42.82324799336493" lon="-2.478365991264582">
        <ele>610.60000000000002</ele>
        <time>2019-06-23T07:31:20Z</time>
      </trkpt>
      <trkpt lat="42.823200970888138" lon="-2.478329027071595">
        <ele>610.79999999999995</ele>
        <time>2019-06-23T07:31:21Z</time>
      </trkpt>
      <trkpt lat="42.823154032230377" lon="-2.478292984887958">
        <ele>611</ele>
        <time>2019-06-23T07:31:22Z</time>
      </trkpt>
      <trkpt lat="42.823059987276793" lon="-2.478222995996475">
        <ele>611.39999999999998</ele>
        <time>2019-06-23T07:31:24Z</time>
      </trkpt>
      <trkpt lat="42.82296602614224" lon="-2.478153007104993">
        <ele>611.60000000000002</ele>
        <time>2019-06-23T07:31:26Z</time>
      </trkpt>
      <trkpt lat="42.822870975360274" lon="-2.478086035698652">
        <ele>611.79999999999995</ele>
        <time>2019-06-23T07:31:28Z</time>
      </trkpt>
      <trkpt lat="42.822777014225721" lon="-2.478017974644899">
        <ele>612</ele>
        <time>2019-06-23T07:31:30Z</time>
      </trkpt>
      <trkpt lat="42.822681963443756" lon="-2.477951003238559">
        <ele>612.39999999999998</ele>
        <time>2019-06-23T07:31:32Z</time>
      </trkpt>
      <trkpt lat="42.822588002309203" lon="-2.477881014347076">
        <ele>612.79999999999995</ele>
        <time>2019-06-23T07:31:34Z</time>
      </trkpt>
      <trkpt lat="42.82249404117465" lon="-2.477811025455594">
        <ele>613</ele>
        <time>2019-06-23T07:31:36Z</time>
      </trkpt>
      <trkpt lat="42.822399996221066" lon="-2.477743970230222">
        <ele>613.20000000000005</ele>
        <time>2019-06-23T07:31:38Z</time>
      </trkpt>
      <trkpt lat="42.822305029258132" lon="-2.47767498716712">
        <ele>613.60000000000002</ele>
        <time>2019-06-23T07:31:40Z</time>
      </trkpt>
      <trkpt lat="42.822210984304547" lon="-2.477604998275638">
        <ele>614</ele>
        <time>2019-06-23T07:31:42Z</time>
      </trkpt>
      <trkpt lat="42.822118028998375" lon="-2.477537021040916">
        <ele>614.20000000000005</ele>
        <time>2019-06-23T07:31:44Z</time>
      </trkpt>
      <trkpt lat="42.82202398404479" lon="-2.477468037977815">
        <ele>614.39999999999998</ele>
        <time>2019-06-23T07:31:46Z</time>
      </trkpt>
      <trkpt lat="42.821931028738618" lon="-2.477398971095681">
        <ele>614.60000000000002</ele>
        <time>2019-06-23T07:31:48Z</time>
      </trkpt>
      <trkpt lat="42.821835977956653" lon="-2.477329988032579">
        <ele>614.60000000000002</ele>
        <time>2019-06-23T07:31:50Z</time>
      </trkpt>
      <trkpt lat="42.821740005165339" lon="-2.477262010797858">
        <ele>615</ele>
        <time>2019-06-23T07:31:52Z</time>
      </trkpt>
      <trkpt lat="42.821644032374024" lon="-2.477195961400867">
        <ele>615.39999999999998</ele>
        <time>2019-06-23T07:31:54Z</time>
      </trkpt>
      <trkpt lat="42.821547975763679" lon="-2.477126978337765">
        <ele>616</ele>
        <time>2019-06-23T07:31:56Z</time>
      </trkpt>
      <trkpt lat="42.821452002972364" lon="-2.477056989446282">
        <ele>616.39999999999998</ele>
        <time>2019-06-23T07:31:58Z</time>
      </trkpt>
      <trkpt lat="42.821357036009431" lon="-2.476988006383181">
        <ele>616.60000000000002</ele>
        <time>2019-06-23T07:32:00Z</time>
      </trkpt>
      <trkpt lat="42.821261985227466" lon="-2.476918017491698">
        <ele>617</ele>
        <time>2019-06-23T07:32:02Z</time>
      </trkpt>
      <trkpt lat="42.821168024092913" lon="-2.476847022771835">
        <ele>617</ele>
        <time>2019-06-23T07:32:04Z</time>
      </trkpt>
      <trkpt lat="42.82107800245285" lon="-2.47677099891007">
        <ele>617.20000000000005</ele>
        <time>2019-06-23T07:32:06Z</time>
      </trkpt>
      <trkpt lat="42.82099099829793" lon="-2.476692041382194">
        <ele>617.39999999999998</ele>
        <time>2019-06-23T07:32:08Z</time>
      </trkpt>
      <trkpt lat="42.820907011628151" lon="-2.476605959236622">
        <ele>617.60000000000002</ele>
        <time>2019-06-23T07:32:10Z</time>
      </trkpt>
      <trkpt lat="42.820866024121642" lon="-2.476561032235622">
        <ele>617.79999999999995</ele>
        <time>2019-06-23T07:32:11Z</time>
      </trkpt>
      <trkpt lat="42.820825958624482" lon="-2.476511998102069">
        <ele>617.79999999999995</ele>
        <time>2019-06-23T07:32:12Z</time>
      </trkpt>
      <trkpt lat="42.820751024410129" lon="-2.47640797868371">
        <ele>618</ele>
        <time>2019-06-23T07:32:14Z</time>
      </trkpt>
      <trkpt lat="42.820678018033504" lon="-2.476300019770861">
        <ele>618.20000000000005</ele>
        <time>2019-06-23T07:32:16Z</time>
      </trkpt>
      <trkpt lat="42.820608029142022" lon="-2.476186025887728">
        <ele>618.79999999999995</ele>
        <time>2019-06-23T07:32:18Z</time>
      </trkpt>
      <trkpt lat="42.820575004443526" lon="-2.47612601146102">
        <ele>618.79999999999995</ele>
        <time>2019-06-23T07:32:19Z</time>
      </trkpt>
      <trkpt lat="42.820543991401792" lon="-2.47606297954917">
        <ele>618.79999999999995</ele>
        <time>2019-06-23T07:32:20Z</time>
      </trkpt>
      <trkpt lat="42.820485988631845" lon="-2.475932976230979">
        <ele>619.39999999999998</ele>
        <time>2019-06-23T07:32:22Z</time>
      </trkpt>
      <trkpt lat="42.82043200917542" lon="-2.475798027589917">
        <ele>620</ele>
        <time>2019-06-23T07:32:24Z</time>
      </trkpt>
      <trkpt lat="42.820407031103969" lon="-2.475729966536164">
        <ele>620.20000000000005</ele>
        <time>2019-06-23T07:32:25Z</time>
      </trkpt>
      <trkpt lat="42.820383980870247" lon="-2.475658971816301">
        <ele>620.39999999999998</ele>
        <time>2019-06-23T07:32:26Z</time>
      </trkpt>
      <trkpt lat="42.820342993363738" lon="-2.475512037053704">
        <ele>620.60000000000002</ele>
        <time>2019-06-23T07:32:28Z</time>
      </trkpt>
      <trkpt lat="42.820307034999132" lon="-2.475358983501792">
        <ele>620.79999999999995</ele>
        <time>2019-06-23T07:32:30Z</time>
      </trkpt>
      <trkpt lat="42.820279039442539" lon="-2.475201990455389">
        <ele>620.79999999999995</ele>
        <time>2019-06-23T07:32:32Z</time>
      </trkpt>
      <trkpt lat="42.820258000865579" lon="-2.475041979923844">
        <ele>620.79999999999995</ele>
        <time>2019-06-23T07:32:34Z</time>
      </trkpt>
      <trkpt lat="42.820246014744043" lon="-2.474876018241048">
        <ele>620.79999999999995</ele>
        <time>2019-06-23T07:32:36Z</time>
      </trkpt>
      <trkpt lat="42.82023997977376" lon="-2.474705027416349">
        <ele>620.79999999999995</ele>
        <time>2019-06-23T07:32:38Z</time>
      </trkpt>
      <trkpt lat="42.82023997977376" lon="-2.474618023261428">
        <ele>620.60000000000002</ele>
        <time>2019-06-23T07:32:39Z</time>
      </trkpt>
      <trkpt lat="42.82024098560214" lon="-2.474530013278127">
        <ele>620.79999999999995</ele>
        <time>2019-06-23T07:32:40Z</time>
      </trkpt>
      <trkpt lat="42.820249032229185" lon="-2.474348964169622">
        <ele>620.60000000000002</ele>
        <time>2019-06-23T07:32:42Z</time>
      </trkpt>
      <trkpt lat="42.820262024179101" lon="-2.474161041900516">
        <ele>620.60000000000002</ele>
        <time>2019-06-23T07:32:44Z</time>
      </trkpt>
      <trkpt lat="42.820270992815495" lon="-2.474063979461789">
        <ele>620.60000000000002</ele>
        <time>2019-06-23T07:32:45Z</time>
      </trkpt>
      <trkpt lat="42.820280967280269" lon="-2.473965995013714">
        <ele>620.39999999999998</ele>
        <time>2019-06-23T07:32:46Z</time>
      </trkpt>
      <trkpt lat="42.820289013907313" lon="-2.473868010565639">
        <ele>620.39999999999998</ele>
        <time>2019-06-23T07:32:47Z</time>
      </trkpt>
      <trkpt lat="42.820297982543707" lon="-2.473769020289183">
        <ele>620.39999999999998</ele>
        <time>2019-06-23T07:32:48Z</time>
      </trkpt>
      <trkpt lat="42.820316003635526" lon="-2.473571039736271">
        <ele>620.20000000000005</ele>
        <time>2019-06-23T07:32:50Z</time>
      </trkpt>
      <trkpt lat="42.820323966443539" lon="-2.473471965640783">
        <ele>619.79999999999995</ele>
        <time>2019-06-23T07:32:51Z</time>
      </trkpt>
      <trkpt lat="42.820333018898964" lon="-2.473372975364327">
        <ele>619.60000000000002</ele>
        <time>2019-06-23T07:32:52Z</time>
      </trkpt>
      <trkpt lat="42.82034701667726" lon="-2.473177006468177">
        <ele>618.60000000000002</ele>
        <time>2019-06-23T07:32:54Z</time>
      </trkpt>
      <trkpt lat="42.820357996970415" lon="-2.472983971238136">
        <ele>618</ele>
        <time>2019-06-23T07:32:56Z</time>
      </trkpt>
      <trkpt lat="42.820363026112318" lon="-2.472795965149999">
        <ele>617.79999999999995</ele>
        <time>2019-06-23T07:32:58Z</time>
      </trkpt>
      <trkpt lat="42.820362020283937" lon="-2.472703009843826">
        <ele>617.60000000000002</ele>
        <time>2019-06-23T07:32:59Z</time>
      </trkpt>
      <trkpt lat="42.820357996970415" lon="-2.472611982375383">
        <ele>617.60000000000002</ele>
        <time>2019-06-23T07:33:00Z</time>
      </trkpt>
      <trkpt lat="42.820345005020499" lon="-2.472434034571052">
        <ele>617.60000000000002</ele>
        <time>2019-06-23T07:33:02Z</time>
      </trkpt>
      <trkpt lat="42.820324972271919" lon="-2.472262037917972">
        <ele>617.39999999999998</ele>
        <time>2019-06-23T07:33:04Z</time>
      </trkpt>
      <trkpt lat="42.820311980322003" lon="-2.472176961600781">
        <ele>617.60000000000002</ele>
        <time>2019-06-23T07:33:05Z</time>
      </trkpt>
      <trkpt lat="42.820296976715326" lon="-2.472091969102621">
        <ele>617.60000000000002</ele>
        <time>2019-06-23T07:33:06Z</time>
      </trkpt>
      <trkpt lat="42.820263030007482" lon="-2.471926007419825">
        <ele>617.60000000000002</ele>
        <time>2019-06-23T07:33:08Z</time>
      </trkpt>
      <trkpt lat="42.820219025015831" lon="-2.471763985231519">
        <ele>617.60000000000002</ele>
        <time>2019-06-23T07:33:10Z</time>
      </trkpt>
      <trkpt lat="42.820164039731026" lon="-2.471610009670258">
        <ele>617.79999999999995</ele>
        <time>2019-06-23T07:33:12Z</time>
      </trkpt>
      <trkpt lat="42.820101007819176" lon="-2.471458967775106">
        <ele>618.20000000000005</ele>
        <time>2019-06-23T07:33:14Z</time>
      </trkpt>
      <trkpt lat="42.820034958422184" lon="-2.471313960850239">
        <ele>618</ele>
        <time>2019-06-23T07:33:16Z</time>
      </trkpt>
      <trkpt lat="42.819963963702321" lon="-2.471173983067274">
        <ele>618.20000000000005</ele>
        <time>2019-06-23T07:33:18Z</time>
      </trkpt>
      <trkpt lat="42.819894980639219" lon="-2.47103501111269">
        <ele>618.39999999999998</ele>
        <time>2019-06-23T07:33:20Z</time>
      </trkpt>
      <trkpt lat="42.819862039759755" lon="-2.470964016392827">
        <ele>618.20000000000005</ele>
        <time>2019-06-23T07:33:21Z</time>
      </trkpt>
      <trkpt lat="42.81983002088964" lon="-2.470893021672964">
        <ele>618.39999999999998</ele>
        <time>2019-06-23T07:33:22Z</time>
      </trkpt>
      <trkpt lat="42.81976799480617" lon="-2.470750026404858">
        <ele>618.39999999999998</ele>
        <time>2019-06-23T07:33:24Z</time>
      </trkpt>
      <trkpt lat="42.819709992036223" lon="-2.470603007823229">
        <ele>618.39999999999998</ele>
        <time>2019-06-23T07:33:26Z</time>
      </trkpt>
      <trkpt lat="42.819683002308011" lon="-2.470526983961463">
        <ele>618.39999999999998</ele>
        <time>2019-06-23T07:33:27Z</time>
      </trkpt>
      <trkpt lat="42.819656012579799" lon="-2.470450038090348">
        <ele>618.39999999999998</ele>
        <time>2019-06-23T07:33:28Z</time>
      </trkpt>
      <trkpt lat="42.819604966789484" lon="-2.470292039215565">
        <ele>618.60000000000002</ele>
        <time>2019-06-23T07:33:30Z</time>
      </trkpt>
      <trkpt lat="42.819579988718033" lon="-2.470210986211896">
        <ele>618.60000000000002</ele>
        <time>2019-06-23T07:33:31Z</time>
      </trkpt>
      <trkpt lat="42.819557022303343" lon="-2.470128005370498">
        <ele>618.79999999999995</ele>
        <time>2019-06-23T07:33:32Z</time>
      </trkpt>
      <trkpt lat="42.819514023140073" lon="-2.46995902620256">
        <ele>619</ele>
        <time>2019-06-23T07:33:34Z</time>
      </trkpt>
      <trkpt lat="42.819474041461945" lon="-2.469785017892718">
        <ele>619</ele>
        <time>2019-06-23T07:33:36Z</time>
      </trkpt>
      <trkpt lat="42.819454008713365" lon="-2.469696002081037">
        <ele>619</ele>
        <time>2019-06-23T07:33:37Z</time>
      </trkpt>
      <trkpt lat="42.819434981793165" lon="-2.469605980440974">
        <ele>619</ele>
        <time>2019-06-23T07:33:38Z</time>
      </trkpt>
      <trkpt lat="42.819392988458276" lon="-2.46942300349474">
        <ele>619</ele>
        <time>2019-06-23T07:33:40Z</time>
      </trkpt>
      <trkpt lat="42.819350995123386" lon="-2.469236003234983">
        <ele>618.79999999999995</ele>
        <time>2019-06-23T07:33:42Z</time>
      </trkpt>
      <trkpt lat="42.819305984303355" lon="-2.469045985490084">
        <ele>619</ele>
        <time>2019-06-23T07:33:44Z</time>
      </trkpt>
      <trkpt lat="42.819263990968466" lon="-2.468851022422314">
        <ele>618.39999999999998</ele>
        <time>2019-06-23T07:33:46Z</time>
      </trkpt>
      <trkpt lat="42.819243036210537" lon="-2.468752032145858">
        <ele>618.20000000000005</ele>
        <time>2019-06-23T07:33:47Z</time>
      </trkpt>
      <trkpt lat="42.819220991805196" lon="-2.468653963878751">
        <ele>618.20000000000005</ele>
        <time>2019-06-23T07:33:48Z</time>
      </trkpt>
      <trkpt lat="42.819177992641926" lon="-2.46845698915422">
        <ele>618.20000000000005</ele>
        <time>2019-06-23T07:33:50Z</time>
      </trkpt>
      <trkpt lat="42.819139016792178" lon="-2.468264037743211">
        <ele>617.79999999999995</ele>
        <time>2019-06-23T07:33:52Z</time>
      </trkpt>
      <trkpt lat="42.819098029285669" lon="-2.468078965321183">
        <ele>617.60000000000002</ele>
        <time>2019-06-23T07:33:54Z</time>
      </trkpt>
      <trkpt lat="42.819059975445271" lon="-2.46789900586009">
        <ele>617.39999999999998</ele>
        <time>2019-06-23T07:33:56Z</time>
      </trkpt>
      <trkpt lat="42.819042038172483" lon="-2.46781300753355">
        <ele>617.39999999999998</ele>
        <time>2019-06-23T07:33:57Z</time>
      </trkpt>
      <trkpt lat="42.819024017080665" lon="-2.46772700920701">
        <ele>617.60000000000002</ele>
        <time>2019-06-23T07:33:58Z</time>
      </trkpt>
      <trkpt lat="42.818986969068646" lon="-2.467558030039072">
        <ele>617.39999999999998</ele>
        <time>2019-06-23T07:34:00Z</time>
      </trkpt>
      <trkpt lat="42.818953022360802" lon="-2.467390978708863">
        <ele>617.39999999999998</ele>
        <time>2019-06-23T07:34:02Z</time>
      </trkpt>
      <trkpt lat="42.818918991833925" lon="-2.467229040339589">
        <ele>617.20000000000005</ele>
        <time>2019-06-23T07:34:04Z</time>
      </trkpt>
      <trkpt lat="42.8188840392977" lon="-2.467069029808044">
        <ele>617.20000000000005</ele>
        <time>2019-06-23T07:34:06Z</time>
      </trkpt>
      <trkpt lat="42.818850008770823" lon="-2.4669090192765">
        <ele>617.39999999999998</ele>
        <time>2019-06-23T07:34:08Z</time>
      </trkpt>
      <trkpt lat="42.818831987679005" lon="-2.466828972101212">
        <ele>617.39999999999998</ele>
        <time>2019-06-23T07:34:09Z</time>
      </trkpt>
      <trkpt lat="42.818814972415566" lon="-2.466749008744955">
        <ele>617.60000000000002</ele>
        <time>2019-06-23T07:34:10Z</time>
      </trkpt>
      <trkpt lat="42.818781025707722" lon="-2.46658799238503">
        <ele>617.39999999999998</ele>
        <time>2019-06-23T07:34:12Z</time>
      </trkpt>
      <trkpt lat="42.818749006837606" lon="-2.466430999338627">
        <ele>617.60000000000002</ele>
        <time>2019-06-23T07:34:14Z</time>
      </trkpt>
      <trkpt lat="42.818716987967491" lon="-2.466276017948985">
        <ele>617.79999999999995</ele>
        <time>2019-06-23T07:34:16Z</time>
      </trkpt>
      <trkpt lat="42.818683963268995" lon="-2.466122964397073">
        <ele>618</ele>
        <time>2019-06-23T07:34:18Z</time>
      </trkpt>
      <trkpt lat="42.818652028217912" lon="-2.465969994664192">
        <ele>618</ele>
        <time>2019-06-23T07:34:20Z</time>
      </trkpt>
      <trkpt lat="42.818617997691035" lon="-2.465817024931312">
        <ele>618.20000000000005</ele>
        <time>2019-06-23T07:34:22Z</time>
      </trkpt>
      <trkpt lat="42.81858597882092" lon="-2.465662965551019">
        <ele>618.60000000000002</ele>
        <time>2019-06-23T07:34:24Z</time>
      </trkpt>
      <trkpt lat="42.818553959950805" lon="-2.465509995818138">
        <ele>618.60000000000002</ele>
        <time>2019-06-23T07:34:26Z</time>
      </trkpt>
      <trkpt lat="42.818522024899721" lon="-2.465356020256877">
        <ele>619</ele>
        <time>2019-06-23T07:34:28Z</time>
      </trkpt>
      <trkpt lat="42.818506015464664" lon="-2.465278990566731">
        <ele>619.20000000000005</ele>
        <time>2019-06-23T07:34:29Z</time>
      </trkpt>
      <trkpt lat="42.818491011857986" lon="-2.465202966704965">
        <ele>619.20000000000005</ele>
        <time>2019-06-23T07:34:30Z</time>
      </trkpt>
      <trkpt lat="42.818457987159491" lon="-2.465048991143704">
        <ele>619.39999999999998</ele>
        <time>2019-06-23T07:34:32Z</time>
      </trkpt>
      <trkpt lat="42.818425968289375" lon="-2.464896021410823">
        <ele>619.60000000000002</ele>
        <time>2019-06-23T07:34:34Z</time>
      </trkpt>
      <trkpt lat="42.818394033238292" lon="-2.46474196203053">
        <ele>619.79999999999995</ele>
        <time>2019-06-23T07:34:36Z</time>
      </trkpt>
      <trkpt lat="42.818377017974854" lon="-2.464665016159415">
        <ele>619.79999999999995</ele>
        <time>2019-06-23T07:34:37Z</time>
      </trkpt>
      <trkpt lat="42.818361008539796" lon="-2.464587986469269">
        <ele>620.20000000000005</ele>
        <time>2019-06-23T07:34:38Z</time>
      </trkpt>
      <trkpt lat="42.818328989669681" lon="-2.464434010908008">
        <ele>620.39999999999998</ele>
        <time>2019-06-23T07:34:40Z</time>
      </trkpt>
      <trkpt lat="42.818296970799565" lon="-2.464279029518366">
        <ele>620.79999999999995</ele>
        <time>2019-06-23T07:34:42Z</time>
      </trkpt>
      <trkpt lat="42.818264029920101" lon="-2.464122036471963">
        <ele>621</ele>
        <time>2019-06-23T07:34:44Z</time>
      </trkpt>
      <trkpt lat="42.818246008828282" lon="-2.464044000953436">
        <ele>621.20000000000005</ele>
        <time>2019-06-23T07:34:45Z</time>
      </trkpt>
      <trkpt lat="42.818228993564844" lon="-2.463965965434909">
        <ele>621.39999999999998</ele>
        <time>2019-06-23T07:34:46Z</time>
      </trkpt>
      <trkpt lat="42.818212984129786" lon="-2.463887007907033">
        <ele>621.79999999999995</ele>
        <time>2019-06-23T07:34:47Z</time>
      </trkpt>
      <trkpt lat="42.818196974694729" lon="-2.463807966560125">
        <ele>622</ele>
        <time>2019-06-23T07:34:48Z</time>
      </trkpt>
      <trkpt lat="42.818165039643645" lon="-2.463650973513722">
        <ele>622.20000000000005</ele>
        <time>2019-06-23T07:34:50Z</time>
      </trkpt>
      <trkpt lat="42.81813302077353" lon="-2.46349398046732">
        <ele>622.39999999999998</ele>
        <time>2019-06-23T07:34:52Z</time>
      </trkpt>
      <trkpt lat="42.818099996075034" lon="-2.463335981592536">
        <ele>622.60000000000002</ele>
        <time>2019-06-23T07:34:54Z</time>
      </trkpt>
      <trkpt lat="42.818067977204919" lon="-2.463178988546133">
        <ele>622.60000000000002</ele>
        <time>2019-06-23T07:34:56Z</time>
      </trkpt>
      <trkpt lat="42.818035036325455" lon="-2.46302199549973">
        <ele>622.60000000000002</ele>
        <time>2019-06-23T07:34:58Z</time>
      </trkpt>
      <trkpt lat="42.818003017455339" lon="-2.462866008281708">
        <ele>622.79999999999995</ele>
        <time>2019-06-23T07:35:00Z</time>
      </trkpt>
      <trkpt lat="42.817969992756844" lon="-2.462711026892066">
        <ele>622.60000000000002</ele>
        <time>2019-06-23T07:35:02Z</time>
      </trkpt>
      <trkpt lat="42.817936968058348" lon="-2.462555039674044">
        <ele>622.79999999999995</ele>
        <time>2019-06-23T07:35:04Z</time>
      </trkpt>
      <trkpt lat="42.817905033007264" lon="-2.46239896863699">
        <ele>623</ele>
        <time>2019-06-23T07:35:06Z</time>
      </trkpt>
      <trkpt lat="42.817873014137149" lon="-2.462243987247348">
        <ele>623.20000000000005</ele>
        <time>2019-06-23T07:35:08Z</time>
      </trkpt>
      <trkpt lat="42.817839989438653" lon="-2.462091017514467">
        <ele>623.20000000000005</ele>
        <time>2019-06-23T07:35:10Z</time>
      </trkpt>
      <trkpt lat="42.817823980003595" lon="-2.462017005309463">
        <ele>623.20000000000005</ele>
        <time>2019-06-23T07:35:11Z</time>
      </trkpt>
      <trkpt lat="42.817809982225299" lon="-2.461945004761219">
        <ele>623.39999999999998</ele>
        <time>2019-06-23T07:35:12Z</time>
      </trkpt>
      <trkpt lat="42.817780980840325" lon="-2.461804021149874">
        <ele>624</ele>
        <time>2019-06-23T07:35:14Z</time>
      </trkpt>
      <trkpt lat="42.817751979455352" lon="-2.461669994518161">
        <ele>624.20000000000005</ele>
        <time>2019-06-23T07:35:16Z</time>
      </trkpt>
      <trkpt lat="42.817736975848675" lon="-2.461606040596962">
        <ele>624.39999999999998</ele>
        <time>2019-06-23T07:35:17Z</time>
      </trkpt>
      <trkpt lat="42.817724989727139" lon="-2.461543008685112">
        <ele>624.39999999999998</ele>
        <time>2019-06-23T07:35:18Z</time>
      </trkpt>
      <trkpt lat="42.81770302914083" lon="-2.461418034508824">
        <ele>625</ele>
        <time>2019-06-23T07:35:20Z</time>
      </trkpt>
      <trkpt lat="42.817676961421967" lon="-2.461293982341886">
        <ele>625.60000000000002</ele>
        <time>2019-06-23T07:35:22Z</time>
      </trkpt>
      <trkpt lat="42.817651983350515" lon="-2.461163979023695">
        <ele>625.79999999999995</ele>
        <time>2019-06-23T07:35:24Z</time>
      </trkpt>
      <trkpt lat="42.817636979743838" lon="-2.461098013445735">
        <ele>626.20000000000005</ele>
        <time>2019-06-23T07:35:25Z</time>
      </trkpt>
      <trkpt lat="42.817622981965542" lon="-2.461030958220363">
        <ele>626.20000000000005</ele>
        <time>2019-06-23T07:35:26Z</time>
      </trkpt>
      <trkpt lat="42.81759699806571" lon="-2.460891986265779">
        <ele>626.79999999999995</ele>
        <time>2019-06-23T07:35:28Z</time>
      </trkpt>
      <trkpt lat="42.817570008337498" lon="-2.460752008482814">
        <ele>627.79999999999995</ele>
        <time>2019-06-23T07:35:30Z</time>
      </trkpt>
      <trkpt lat="42.817542012780905" lon="-2.46061303652823">
        <ele>628.39999999999998</ele>
        <time>2019-06-23T07:35:32Z</time>
      </trkpt>
      <trkpt lat="42.817513011395931" lon="-2.460473980754614">
        <ele>628.79999999999995</ele>
        <time>2019-06-23T07:35:34Z</time>
      </trkpt>
      <trkpt lat="42.817498007789254" lon="-2.46040198020637">
        <ele>629</ele>
        <time>2019-06-23T07:35:35Z</time>
      </trkpt>
      <trkpt lat="42.817484010010958" lon="-2.460327968001366">
        <ele>629</ele>
        <time>2019-06-23T07:35:36Z</time>
      </trkpt>
      <trkpt lat="42.817452996969223" lon="-2.460177009925246">
        <ele>629.39999999999998</ele>
        <time>2019-06-23T07:35:38Z</time>
      </trkpt>
      <trkpt lat="42.817419972270727" lon="-2.460018005222082">
        <ele>629.20000000000005</ele>
        <time>2019-06-23T07:35:40Z</time>
      </trkpt>
      <trkpt lat="42.817386025562882" lon="-2.459852965548635">
        <ele>629.20000000000005</ele>
        <time>2019-06-23T07:35:42Z</time>
      </trkpt>
      <trkpt lat="42.817368004471064" lon="-2.459769984707236">
        <ele>629.20000000000005</ele>
        <time>2019-06-23T07:35:43Z</time>
      </trkpt>
      <trkpt lat="42.817350989207625" lon="-2.459688009694219">
        <ele>629.20000000000005</ele>
        <time>2019-06-23T07:35:44Z</time>
      </trkpt>
      <trkpt lat="42.81731796450913" lon="-2.459525987505913">
        <ele>629.39999999999998</ele>
        <time>2019-06-23T07:35:46Z</time>
      </trkpt>
      <trkpt lat="42.817286029458046" lon="-2.459372011944652">
        <ele>629.20000000000005</ele>
        <time>2019-06-23T07:35:48Z</time>
      </trkpt>
      <trkpt lat="42.817254010587931" lon="-2.459222981706262">
        <ele>629.20000000000005</ele>
        <time>2019-06-23T07:35:50Z</time>
      </trkpt>
      <trkpt lat="42.817222997546196" lon="-2.459076968953013">
        <ele>629</ele>
        <time>2019-06-23T07:35:52Z</time>
      </trkpt>
      <trkpt lat="42.8172089997679" lon="-2.459006980061531">
        <ele>629.20000000000005</ele>
        <time>2019-06-23T07:35:53Z</time>
      </trkpt>
      <trkpt lat="42.817192990332842" lon="-2.458940008655191">
        <ele>629.20000000000005</ele>
        <time>2019-06-23T07:35:54Z</time>
      </trkpt>
      <trkpt lat="42.817168012261391" lon="-2.458814028650522">
        <ele>629.20000000000005</ele>
        <time>2019-06-23T07:35:56Z</time>
      </trkpt>
      <trkpt lat="42.817156026139855" lon="-2.458750996738672">
        <ele>629.20000000000005</ele>
        <time>2019-06-23T07:35:57Z</time>
      </trkpt>
      <trkpt lat="42.817141022533178" lon="-2.458691988140345">
        <ele>629.39999999999998</ele>
        <time>2019-06-23T07:35:58Z</time>
      </trkpt>
      <trkpt lat="42.817126018926501" lon="-2.458633985370398">
        <ele>629.39999999999998</ele>
        <time>2019-06-23T07:35:59Z</time>
      </trkpt>
      <trkpt lat="42.817112021148205" lon="-2.458573970943689">
        <ele>629.39999999999998</ele>
        <time>2019-06-23T07:36:00Z</time>
      </trkpt>
      <trkpt lat="42.81710104085505" lon="-2.458511022850871">
        <ele>629.39999999999998</ele>
        <time>2019-06-23T07:36:01Z</time>
      </trkpt>
      <trkpt lat="42.817089976742864" lon="-2.458447990939021">
        <ele>629.79999999999995</ele>
        <time>2019-06-23T07:36:02Z</time>
      </trkpt>
      <trkpt lat="42.817063992843032" lon="-2.458326034247875">
        <ele>630.39999999999998</ele>
        <time>2019-06-23T07:36:04Z</time>
      </trkpt>
      <trkpt lat="42.817048989236355" lon="-2.458266019821167">
        <ele>630.60000000000002</ele>
        <time>2019-06-23T07:36:05Z</time>
      </trkpt>
      <trkpt lat="42.817033985629678" lon="-2.458203993737698">
        <ele>631.20000000000005</ele>
        <time>2019-06-23T07:36:06Z</time>
      </trkpt>
      <trkpt lat="42.817009007558227" lon="-2.45807901956141">
        <ele>631.79999999999995</ele>
        <time>2019-06-23T07:36:08Z</time>
      </trkpt>
      <trkpt lat="42.816992998123169" lon="-2.458013975992799">
        <ele>632</ele>
        <time>2019-06-23T07:36:09Z</time>
      </trkpt>
      <trkpt lat="42.816976988688111" lon="-2.457947004586458">
        <ele>632.39999999999998</ele>
        <time>2019-06-23T07:36:10Z</time>
      </trkpt>
      <trkpt lat="42.816948993131518" lon="-2.457812977954745">
        <ele>633.20000000000005</ele>
        <time>2019-06-23T07:36:12Z</time>
      </trkpt>
      <trkpt lat="42.816933989524841" lon="-2.457745000720024">
        <ele>633.79999999999995</ele>
        <time>2019-06-23T07:36:13Z</time>
      </trkpt>
      <trkpt lat="42.816917980089784" lon="-2.457678029313684">
        <ele>634</ele>
        <time>2019-06-23T07:36:14Z</time>
      </trkpt>
      <trkpt lat="42.81688503921032" lon="-2.45754299685359">
        <ele>634.39999999999998</ele>
        <time>2019-06-23T07:36:16Z</time>
      </trkpt>
      <trkpt lat="42.816855031996965" lon="-2.457407964393497">
        <ele>635.20000000000005</ele>
        <time>2019-06-23T07:36:18Z</time>
      </trkpt>
      <trkpt lat="42.816827036440372" lon="-2.457271004095674">
        <ele>635.60000000000002</ele>
        <time>2019-06-23T07:36:20Z</time>
      </trkpt>
      <trkpt lat="42.816799962893128" lon="-2.457132032141089">
        <ele>635.79999999999995</ele>
        <time>2019-06-23T07:36:22Z</time>
      </trkpt>
      <trkpt lat="42.816785965114832" lon="-2.457061959430575">
        <ele>635.79999999999995</ele>
        <time>2019-06-23T07:36:23Z</time>
      </trkpt>
      <trkpt lat="42.816771967336535" lon="-2.456992976367474">
        <ele>635.79999999999995</ele>
        <time>2019-06-23T07:36:24Z</time>
      </trkpt>
      <trkpt lat="42.816744977608323" lon="-2.456852998584509">
        <ele>635.79999999999995</ele>
        <time>2019-06-23T07:36:26Z</time>
      </trkpt>
      <trkpt lat="42.816719999536872" lon="-2.456714026629925">
        <ele>635.79999999999995</ele>
        <time>2019-06-23T07:36:28Z</time>
      </trkpt>
      <trkpt lat="42.816710025072098" lon="-2.456644037738442">
        <ele>636.20000000000005</ele>
        <time>2019-06-23T07:36:29Z</time>
      </trkpt>
      <trkpt lat="42.816700972616673" lon="-2.45657698251307">
        <ele>636</ele>
        <time>2019-06-23T07:36:30Z</time>
      </trkpt>
      <trkpt lat="42.816687980666757" lon="-2.456449996680021">
        <ele>636</ele>
        <time>2019-06-23T07:36:32Z</time>
      </trkpt>
      <trkpt lat="42.816679012030363" lon="-2.456386964768171">
        <ele>636.20000000000005</ele>
        <time>2019-06-23T07:36:33Z</time>
      </trkpt>
      <trkpt lat="42.816669959574938" lon="-2.456324016675353">
        <ele>636.39999999999998</ele>
        <time>2019-06-23T07:36:34Z</time>
      </trkpt>
      <trkpt lat="42.816655961796641" lon="-2.456196025013924">
        <ele>636.79999999999995</ele>
        <time>2019-06-23T07:36:36Z</time>
      </trkpt>
      <trkpt lat="42.816643975675106" lon="-2.456070967018604">
        <ele>637.20000000000005</ele>
        <time>2019-06-23T07:36:38Z</time>
      </trkpt>
      <trkpt lat="42.816637018695474" lon="-2.456007013097405">
        <ele>637.60000000000002</ele>
        <time>2019-06-23T07:36:39Z</time>
      </trkpt>
      <trkpt lat="42.816628972068429" lon="-2.455942975357175">
        <ele>638</ele>
        <time>2019-06-23T07:36:40Z</time>
      </trkpt>
      <trkpt lat="42.816614974290133" lon="-2.455809032544494">
        <ele>638.60000000000002</ele>
        <time>2019-06-23T07:36:42Z</time>
      </trkpt>
      <trkpt lat="42.816606005653739" lon="-2.455740971490741">
        <ele>638.79999999999995</ele>
        <time>2019-06-23T07:36:43Z</time>
      </trkpt>
      <trkpt lat="42.816597959026694" lon="-2.45567299425602">
        <ele>639</ele>
        <time>2019-06-23T07:36:44Z</time>
      </trkpt>
      <trkpt lat="42.816583961248398" lon="-2.455537961795926">
        <ele>639.39999999999998</ele>
        <time>2019-06-23T07:36:46Z</time>
      </trkpt>
      <trkpt lat="42.816569041460752" lon="-2.455404018983245">
        <ele>639.79999999999995</ele>
        <time>2019-06-23T07:36:48Z</time>
      </trkpt>
      <trkpt lat="42.816554037854075" lon="-2.455269992351532">
        <ele>640.60000000000002</ele>
        <time>2019-06-23T07:36:50Z</time>
      </trkpt>
      <trkpt lat="42.816538028419018" lon="-2.45513797737658">
        <ele>641</ele>
        <time>2019-06-23T07:36:52Z</time>
      </trkpt>
      <trkpt lat="42.816530987620354" lon="-2.455073017627001">
        <ele>641.39999999999998</ele>
        <time>2019-06-23T07:36:53Z</time>
      </trkpt>
      <trkpt lat="42.816524030640721" lon="-2.455006968230009">
        <ele>641.39999999999998</ele>
        <time>2019-06-23T07:36:54Z</time>
      </trkpt>
      <trkpt lat="42.816511038690805" lon="-2.454875037074089">
        <ele>641.79999999999995</ele>
        <time>2019-06-23T07:36:56Z</time>
      </trkpt>
      <trkpt lat="42.816497040912509" lon="-2.454743022099137">
        <ele>642</ele>
        <time>2019-06-23T07:36:58Z</time>
      </trkpt>
      <trkpt lat="42.816483965143561" lon="-2.454611007124186">
        <ele>642.39999999999998</ele>
        <time>2019-06-23T07:37:00Z</time>
      </trkpt>
      <trkpt lat="42.816477008163929" lon="-2.454545041546226">
        <ele>642.60000000000002</ele>
        <time>2019-06-23T07:37:01Z</time>
      </trkpt>
      <trkpt lat="42.816468961536884" lon="-2.454478992149234">
        <ele>642.60000000000002</ele>
        <time>2019-06-23T07:37:02Z</time>
      </trkpt>
      <trkpt lat="42.816453035920858" lon="-2.454344965517521">
        <ele>642.79999999999995</ele>
        <time>2019-06-23T07:37:04Z</time>
      </trkpt>
      <trkpt lat="42.816439038142562" lon="-2.454208005219698">
        <ele>643</ele>
        <time>2019-06-23T07:37:06Z</time>
      </trkpt>
      <trkpt lat="42.816423028707504" lon="-2.454069033265114">
        <ele>643.20000000000005</ele>
        <time>2019-06-23T07:37:08Z</time>
      </trkpt>
      <trkpt lat="42.816406013444066" lon="-2.453927965834737">
        <ele>643.39999999999998</ele>
        <time>2019-06-23T07:37:10Z</time>
      </trkpt>
      <trkpt lat="42.816391009837389" lon="-2.45378396473825">
        <ele>643.39999999999998</ele>
        <time>2019-06-23T07:37:12Z</time>
      </trkpt>
      <trkpt lat="42.816376006230712" lon="-2.453639041632414">
        <ele>643.60000000000002</ele>
        <time>2019-06-23T07:37:14Z</time>
      </trkpt>
      <trkpt lat="42.816359996795654" lon="-2.453495962545276">
        <ele>643.79999999999995</ele>
        <time>2019-06-23T07:37:16Z</time>
      </trkpt>
      <trkpt lat="42.816343987360597" lon="-2.45335497893393">
        <ele>644</ele>
        <time>2019-06-23T07:37:18Z</time>
      </trkpt>
      <trkpt lat="42.816327977925539" lon="-2.453216006979346">
        <ele>644</ele>
        <time>2019-06-23T07:37:20Z</time>
      </trkpt>
      <trkpt lat="42.816311968490481" lon="-2.453077035024762">
        <ele>644</ele>
        <time>2019-06-23T07:37:22Z</time>
      </trkpt>
      <trkpt lat="42.816296964883804" lon="-2.452938985079527">
        <ele>644</ele>
        <time>2019-06-23T07:37:24Z</time>
      </trkpt>
      <trkpt lat="42.816282967105508" lon="-2.452802024781704">
        <ele>644</ele>
        <time>2019-06-23T07:37:26Z</time>
      </trkpt>
      <trkpt lat="42.816267963498831" lon="-2.45266598649323">
        <ele>644.20000000000005</ele>
        <time>2019-06-23T07:37:28Z</time>
      </trkpt>
      <trkpt lat="42.816252959892154" lon="-2.452531959861517">
        <ele>644.39999999999998</ele>
        <time>2019-06-23T07:37:30Z</time>
      </trkpt>
      <trkpt lat="42.816246002912521" lon="-2.452464988455176">
        <ele>644.60000000000002</ele>
        <time>2019-06-23T07:37:31Z</time>
      </trkpt>
      <trkpt lat="42.816239967942238" lon="-2.452398017048836">
        <ele>644.79999999999995</ele>
        <time>2019-06-23T07:37:32Z</time>
      </trkpt>
      <trkpt lat="42.816232005134225" lon="-2.452330039814115">
        <ele>645.39999999999998</ele>
        <time>2019-06-23T07:37:33Z</time>
      </trkpt>
      <trkpt lat="42.81622395850718" lon="-2.452262984588742">
        <ele>645.60000000000002</ele>
        <time>2019-06-23T07:37:34Z</time>
      </trkpt>
      <trkpt lat="42.816209038719535" lon="-2.4521270301193">
        <ele>646.20000000000005</ele>
        <time>2019-06-23T07:37:36Z</time>
      </trkpt>
      <trkpt lat="42.81620099209249" lon="-2.452058969065547">
        <ele>646.20000000000005</ele>
        <time>2019-06-23T07:37:37Z</time>
      </trkpt>
      <trkpt lat="42.816193029284477" lon="-2.451989986002445">
        <ele>646.60000000000002</ele>
        <time>2019-06-23T07:37:38Z</time>
      </trkpt>
      <trkpt lat="42.81617701984942" lon="-2.451855037361383">
        <ele>646.79999999999995</ele>
        <time>2019-06-23T07:37:40Z</time>
      </trkpt>
      <trkpt lat="42.816168973222375" lon="-2.451786976307631">
        <ele>647</ele>
        <time>2019-06-23T07:37:41Z</time>
      </trkpt>
      <trkpt lat="42.816162016242743" lon="-2.45172000490129">
        <ele>647</ele>
        <time>2019-06-23T07:37:42Z</time>
      </trkpt>
      <trkpt lat="42.816147012636065" lon="-2.451587989926338">
        <ele>647.39999999999998</ele>
        <time>2019-06-23T07:37:44Z</time>
      </trkpt>
      <trkpt lat="42.816140977665782" lon="-2.451522024348378">
        <ele>647.79999999999995</ele>
        <time>2019-06-23T07:37:45Z</time>
      </trkpt>
      <trkpt lat="42.816133014857769" lon="-2.451455974951387">
        <ele>648.20000000000005</ele>
        <time>2019-06-23T07:37:46Z</time>
      </trkpt>
      <trkpt lat="42.816118011251092" lon="-2.451323959976435">
        <ele>648.79999999999995</ele>
        <time>2019-06-23T07:37:48Z</time>
      </trkpt>
      <trkpt lat="42.816104013472795" lon="-2.451193034648895">
        <ele>649</ele>
        <time>2019-06-23T07:37:50Z</time>
      </trkpt>
      <trkpt lat="42.816089009866118" lon="-2.451062025502324">
        <ele>649.60000000000002</ele>
        <time>2019-06-23T07:37:52Z</time>
      </trkpt>
      <trkpt lat="42.816076017916203" lon="-2.450926993042231">
        <ele>649.79999999999995</ele>
        <time>2019-06-23T07:37:54Z</time>
      </trkpt>
      <trkpt lat="42.816068977117538" lon="-2.45086002163589">
        <ele>650.20000000000005</ele>
        <time>2019-06-23T07:37:55Z</time>
      </trkpt>
      <trkpt lat="42.816060008481145" lon="-2.450792966410518">
        <ele>650.20000000000005</ele>
        <time>2019-06-23T07:37:56Z</time>
      </trkpt>
      <trkpt lat="42.816045004874468" lon="-2.450659023597837">
        <ele>650.39999999999998</ele>
        <time>2019-06-23T07:37:58Z</time>
      </trkpt>
      <trkpt lat="42.816030001267791" lon="-2.450524996966124">
        <ele>651</ele>
        <time>2019-06-23T07:38:00Z</time>
      </trkpt>
      <trkpt lat="42.816013991832733" lon="-2.450393987819552">
        <ele>651</ele>
        <time>2019-06-23T07:38:02Z</time>
      </trkpt>
      <trkpt lat="42.815998988226056" lon="-2.450262978672981">
        <ele>651.60000000000002</ele>
        <time>2019-06-23T07:38:04Z</time>
      </trkpt>
      <trkpt lat="42.81598499044776" lon="-2.45013196952641">
        <ele>651.79999999999995</ele>
        <time>2019-06-23T07:38:06Z</time>
      </trkpt>
      <trkpt lat="42.815968981012702" lon="-2.44999903254211">
        <ele>652.20000000000005</ele>
        <time>2019-06-23T07:38:08Z</time>
      </trkpt>
      <trkpt lat="42.815951965749264" lon="-2.449866011738777">
        <ele>652.60000000000002</ele>
        <time>2019-06-23T07:38:10Z</time>
      </trkpt>
      <trkpt lat="42.815936040133238" lon="-2.449731985107064">
        <ele>653.20000000000005</ele>
        <time>2019-06-23T07:38:12Z</time>
      </trkpt>
      <trkpt lat="42.815921036526561" lon="-2.449597958475351">
        <ele>653.39999999999998</ele>
        <time>2019-06-23T07:38:14Z</time>
      </trkpt>
      <trkpt lat="42.815905027091503" lon="-2.449460998177528">
        <ele>653.60000000000002</ele>
        <time>2019-06-23T07:38:16Z</time>
      </trkpt>
      <trkpt lat="42.815892035141587" lon="-2.449322026222944">
        <ele>653.79999999999995</ele>
        <time>2019-06-23T07:38:18Z</time>
      </trkpt>
      <trkpt lat="42.815883988514543" lon="-2.449252037331462">
        <ele>654</ele>
        <time>2019-06-23T07:38:19Z</time>
      </trkpt>
      <trkpt lat="42.81587602570653" lon="-2.449182970449328">
        <ele>654</ele>
        <time>2019-06-23T07:38:20Z</time>
      </trkpt>
      <trkpt lat="42.815868984907866" lon="-2.449112981557846">
        <ele>654.20000000000005</ele>
        <time>2019-06-23T07:38:21Z</time>
      </trkpt>
      <trkpt lat="42.815861022099853" lon="-2.449042992666364">
        <ele>654.39999999999998</ele>
        <time>2019-06-23T07:38:22Z</time>
      </trkpt>
      <trkpt lat="42.815844006836414" lon="-2.448902009055018">
        <ele>655</ele>
        <time>2019-06-23T07:38:24Z</time>
      </trkpt>
      <trkpt lat="42.815826991572976" lon="-2.448762031272054">
        <ele>655.20000000000005</ele>
        <time>2019-06-23T07:38:26Z</time>
      </trkpt>
      <trkpt lat="42.815809976309538" lon="-2.448621969670057">
        <ele>655.39999999999998</ele>
        <time>2019-06-23T07:38:28Z</time>
      </trkpt>
      <trkpt lat="42.81579396687448" lon="-2.448478974401951">
        <ele>655.79999999999995</ele>
        <time>2019-06-23T07:38:30Z</time>
      </trkpt>
      <trkpt lat="42.815778041258454" lon="-2.448337990790606">
        <ele>656</ele>
        <time>2019-06-23T07:38:32Z</time>
      </trkpt>
      <trkpt lat="42.815761025995016" lon="-2.448200024664402">
        <ele>656</ele>
        <time>2019-06-23T07:38:34Z</time>
      </trkpt>
      <trkpt lat="42.815753985196352" lon="-2.448131963610649">
        <ele>656.20000000000005</ele>
        <time>2019-06-23T07:38:35Z</time>
      </trkpt>
      <trkpt lat="42.8157480340451" lon="-2.448063986375928">
        <ele>656.39999999999998</ele>
        <time>2019-06-23T07:38:36Z</time>
      </trkpt>
      <trkpt lat="42.815732024610043" lon="-2.447929959744215">
        <ele>656.60000000000002</ele>
        <time>2019-06-23T07:38:38Z</time>
      </trkpt>
      <trkpt lat="42.815715009346604" lon="-2.447797022759914">
        <ele>656.79999999999995</ele>
        <time>2019-06-23T07:38:40Z</time>
      </trkpt>
      <trkpt lat="42.815700005739927" lon="-2.447661990299821">
        <ele>656.79999999999995</ele>
        <time>2019-06-23T07:38:42Z</time>
      </trkpt>
      <trkpt lat="42.815686007961631" lon="-2.44753098115325">
        <ele>657</ele>
        <time>2019-06-23T07:38:44Z</time>
      </trkpt>
      <trkpt lat="42.815678967162967" lon="-2.447469038888812">
        <ele>657.20000000000005</ele>
        <time>2019-06-23T07:38:45Z</time>
      </trkpt>
      <trkpt lat="42.815671004354954" lon="-2.447408018633723">
        <ele>657.39999999999998</ele>
        <time>2019-06-23T07:38:46Z</time>
      </trkpt>
      <trkpt lat="42.815658012405038" lon="-2.447284972295165">
        <ele>658</ele>
        <time>2019-06-23T07:38:48Z</time>
      </trkpt>
      <trkpt lat="42.8156409971416" lon="-2.447161003947258">
        <ele>658.60000000000002</ele>
        <time>2019-06-23T07:38:50Z</time>
      </trkpt>
      <trkpt lat="42.815634040161967" lon="-2.447096966207027">
        <ele>658.60000000000002</ele>
        <time>2019-06-23T07:38:51Z</time>
      </trkpt>
      <trkpt lat="42.815630016848445" lon="-2.447033012285829">
        <ele>658.79999999999995</ele>
        <time>2019-06-23T07:38:52Z</time>
      </trkpt>
      <trkpt lat="42.815616019070148" lon="-2.446900997310877">
        <ele>659.20000000000005</ele>
        <time>2019-06-23T07:38:54Z</time>
      </trkpt>
      <trkpt lat="42.815603027120233" lon="-2.446764959022403">
        <ele>660.20000000000005</ele>
        <time>2019-06-23T07:38:56Z</time>
      </trkpt>
      <trkpt lat="42.815588023513556" lon="-2.446626992896199">
        <ele>660.60000000000002</ele>
        <time>2019-06-23T07:38:58Z</time>
      </trkpt>
      <trkpt lat="42.815580982714891" lon="-2.446558009833098">
        <ele>661</ele>
        <time>2019-06-23T07:38:59Z</time>
      </trkpt>
      <trkpt lat="42.815574025735259" lon="-2.446489026769996">
        <ele>661.20000000000005</ele>
        <time>2019-06-23T07:39:00Z</time>
      </trkpt>
      <trkpt lat="42.815560027956963" lon="-2.44635097682476">
        <ele>661.79999999999995</ele>
        <time>2019-06-23T07:39:02Z</time>
      </trkpt>
      <trkpt lat="42.815544018521905" lon="-2.446216028183699">
        <ele>662.20000000000005</ele>
        <time>2019-06-23T07:39:04Z</time>
      </trkpt>
      <trkpt lat="42.815528009086847" lon="-2.446078984066844">
        <ele>662.20000000000005</ele>
        <time>2019-06-23T07:39:06Z</time>
      </trkpt>
      <trkpt lat="42.815510993823409" lon="-2.445942023769021">
        <ele>662.39999999999998</ele>
        <time>2019-06-23T07:39:08Z</time>
      </trkpt>
      <trkpt lat="42.815494984388351" lon="-2.445801040157676">
        <ele>662.39999999999998</ele>
        <time>2019-06-23T07:39:10Z</time>
      </trkpt>
      <trkpt lat="42.815487021580338" lon="-2.445730967447162">
        <ele>662.60000000000002</ele>
        <time>2019-06-23T07:39:11Z</time>
      </trkpt>
      <trkpt lat="42.815478974953294" lon="-2.445658966898918">
        <ele>662.39999999999998</ele>
        <time>2019-06-23T07:39:12Z</time>
      </trkpt>
      <trkpt lat="42.815462965518236" lon="-2.445516977459192">
        <ele>663</ele>
        <time>2019-06-23T07:39:14Z</time>
      </trkpt>
      <trkpt lat="42.815447961911559" lon="-2.445372976362705">
        <ele>663.20000000000005</ele>
        <time>2019-06-23T07:39:16Z</time>
      </trkpt>
      <trkpt lat="42.815432036295533" lon="-2.445229981094599">
        <ele>663.39999999999998</ele>
        <time>2019-06-23T07:39:18Z</time>
      </trkpt>
      <trkpt lat="42.815418038517237" lon="-2.445090003311634">
        <ele>663.79999999999995</ele>
        <time>2019-06-23T07:39:20Z</time>
      </trkpt>
      <trkpt lat="42.815402029082179" lon="-2.444949019700289">
        <ele>664</ele>
        <time>2019-06-23T07:39:22Z</time>
      </trkpt>
      <trkpt lat="42.815394988283515" lon="-2.444878024980426">
        <ele>664</ele>
        <time>2019-06-23T07:39:23Z</time>
      </trkpt>
      <trkpt lat="42.815388031303883" lon="-2.444808958098292">
        <ele>664</ele>
        <time>2019-06-23T07:39:24Z</time>
      </trkpt>
      <trkpt lat="42.815375961363316" lon="-2.444669986143708">
        <ele>664.20000000000005</ele>
        <time>2019-06-23T07:39:26Z</time>
      </trkpt>
      <trkpt lat="42.81536104157567" lon="-2.444532020017505">
        <ele>664.20000000000005</ele>
        <time>2019-06-23T07:39:28Z</time>
      </trkpt>
      <trkpt lat="42.815354000777006" lon="-2.444463036954403">
        <ele>664.20000000000005</ele>
        <time>2019-06-23T07:39:29Z</time>
      </trkpt>
      <trkpt lat="42.815346959978342" lon="-2.44439497590065">
        <ele>664.20000000000005</ele>
        <time>2019-06-23T07:39:30Z</time>
      </trkpt>
      <trkpt lat="42.815332040190697" lon="-2.444254998117685">
        <ele>664.39999999999998</ele>
        <time>2019-06-23T07:39:32Z</time>
      </trkpt>
      <trkpt lat="42.815317958593369" lon="-2.444110997021198">
        <ele>664.60000000000002</ele>
        <time>2019-06-23T07:39:34Z</time>
      </trkpt>
      <trkpt lat="42.815300021320581" lon="-2.443962972611189">
        <ele>664.79999999999995</ele>
        <time>2019-06-23T07:39:36Z</time>
      </trkpt>
      <trkpt lat="42.815282000228763" lon="-2.44381201453507">
        <ele>665.20000000000005</ele>
        <time>2019-06-23T07:39:38Z</time>
      </trkpt>
      <trkpt lat="42.815263979136944" lon="-2.443660972639918">
        <ele>665.39999999999998</ele>
        <time>2019-06-23T07:39:40Z</time>
      </trkpt>
      <trkpt lat="42.815246963873506" lon="-2.443510014563799">
        <ele>665.39999999999998</ele>
        <time>2019-06-23T07:39:42Z</time>
      </trkpt>
      <trkpt lat="42.81523103825748" lon="-2.44336299598217">
        <ele>665.60000000000002</ele>
        <time>2019-06-23T07:39:44Z</time>
      </trkpt>
      <trkpt lat="42.815216034650803" lon="-2.443220000714064">
        <ele>665.60000000000002</ele>
        <time>2019-06-23T07:39:46Z</time>
      </trkpt>
      <trkpt lat="42.815205976366997" lon="-2.44314800016582">
        <ele>665.60000000000002</ele>
        <time>2019-06-23T07:39:47Z</time>
      </trkpt>
      <trkpt lat="42.815198013558984" lon="-2.443075999617577">
        <ele>665.79999999999995</ele>
        <time>2019-06-23T07:39:48Z</time>
      </trkpt>
      <trkpt lat="42.815180998295546" lon="-2.44293300434947">
        <ele>665.79999999999995</ele>
        <time>2019-06-23T07:39:50Z</time>
      </trkpt>
      <trkpt lat="42.815157026052475" lon="-2.442794032394886">
        <ele>665.79999999999995</ele>
        <time>2019-06-23T07:39:52Z</time>
      </trkpt>
      <trkpt lat="42.815120983868837" lon="-2.442666040733457">
        <ele>666</ele>
        <time>2019-06-23T07:39:54Z</time>
      </trkpt>
      <trkpt lat="42.815101034939289" lon="-2.442604014649987">
        <ele>666</ele>
        <time>2019-06-23T07:39:55Z</time>
      </trkpt>
      <trkpt lat="42.815079996362329" lon="-2.442541988566518">
        <ele>666.20000000000005</ele>
        <time>2019-06-23T07:39:56Z</time>
      </trkpt>
      <trkpt lat="42.815031968057156" lon="-2.442420031875372">
        <ele>666.39999999999998</ele>
        <time>2019-06-23T07:39:58Z</time>
      </trkpt>
      <trkpt lat="42.814977988600731" lon="-2.442298997193575">
        <ele>666.60000000000002</ele>
        <time>2019-06-23T07:40:00Z</time>
      </trkpt>
      <trkpt lat="42.814918980002403" lon="-2.44218097999692">
        <ele>666.79999999999995</ele>
        <time>2019-06-23T07:40:02Z</time>
      </trkpt>
      <trkpt lat="42.814855026081204" lon="-2.442063968628645">
        <ele>667.20000000000005</ele>
        <time>2019-06-23T07:40:04Z</time>
      </trkpt>
      <trkpt lat="42.814794005826116" lon="-2.441956009715796">
        <ele>668</ele>
        <time>2019-06-23T07:40:06Z</time>
      </trkpt>
      <trkpt lat="42.814728962257504" lon="-2.441855007782579">
        <ele>668</ele>
        <time>2019-06-23T07:40:08Z</time>
      </trkpt>
      <trkpt lat="42.814668025821447" lon="-2.44175098836422">
        <ele>668.39999999999998</ele>
        <time>2019-06-23T07:40:10Z</time>
      </trkpt>
      <trkpt lat="42.81460901722312" lon="-2.44164596311748">
        <ele>668.60000000000002</ele>
        <time>2019-06-23T07:40:12Z</time>
      </trkpt>
      <trkpt lat="42.814580015838146" lon="-2.441597012802959">
        <ele>668.60000000000002</ele>
        <time>2019-06-23T07:40:13Z</time>
      </trkpt>
      <trkpt lat="42.814552020281553" lon="-2.441545967012644">
        <ele>668.60000000000002</ele>
        <time>2019-06-23T07:40:14Z</time>
      </trkpt>
      <trkpt lat="42.814501980319619" lon="-2.441433984786272">
        <ele>669.20000000000005</ele>
        <time>2019-06-23T07:40:16Z</time>
      </trkpt>
      <trkpt lat="42.814457975327969" lon="-2.441311022266746">
        <ele>669.79999999999995</ele>
        <time>2019-06-23T07:40:18Z</time>
      </trkpt>
      <trkpt lat="42.81443702057004" lon="-2.441247990354896">
        <ele>670</ele>
        <time>2019-06-23T07:40:19Z</time>
      </trkpt>
      <trkpt lat="42.81441698782146" lon="-2.441184036433697">
        <ele>670</ele>
        <time>2019-06-23T07:40:20Z</time>
      </trkpt>
      <trkpt lat="42.81437398865819" lon="-2.441045986488462">
        <ele>670.39999999999998</ele>
        <time>2019-06-23T07:40:22Z</time>
      </trkpt>
      <trkpt lat="42.814325960353017" lon="-2.440887987613678">
        <ele>670.60000000000002</ele>
        <time>2019-06-23T07:40:24Z</time>
      </trkpt>
      <trkpt lat="42.814298970624804" lon="-2.44080500677228">
        <ele>670.79999999999995</ele>
        <time>2019-06-23T07:40:25Z</time>
      </trkpt>
      <trkpt lat="42.814270975068212" lon="-2.440716996788979">
        <ele>670.79999999999995</ele>
        <time>2019-06-23T07:40:26Z</time>
      </trkpt>
      <trkpt lat="42.814209032803774" lon="-2.440528990700841">
        <ele>670.79999999999995</ele>
        <time>2019-06-23T07:40:28Z</time>
      </trkpt>
      <trkpt lat="42.81413996592164" lon="-2.440328998491168">
        <ele>670.79999999999995</ele>
        <time>2019-06-23T07:40:30Z</time>
      </trkpt>
      <trkpt lat="42.814107025042176" lon="-2.440227996557951">
        <ele>670.79999999999995</ele>
        <time>2019-06-23T07:40:31Z</time>
      </trkpt>
      <trkpt lat="42.814076012000442" lon="-2.440129006281495">
        <ele>670.79999999999995</ele>
        <time>2019-06-23T07:40:32Z</time>
      </trkpt>
      <trkpt lat="42.814020020887256" lon="-2.439933037385345">
        <ele>670.39999999999998</ele>
        <time>2019-06-23T07:40:34Z</time>
      </trkpt>
      <trkpt lat="42.813980039209127" lon="-2.439740002155304">
        <ele>670</ele>
        <time>2019-06-23T07:40:36Z</time>
      </trkpt>
      <trkpt lat="42.813966041430831" lon="-2.43964402936399">
        <ele>669.60000000000002</ele>
        <time>2019-06-23T07:40:37Z</time>
      </trkpt>
      <trkpt lat="42.813953971490264" lon="-2.439549984410405">
        <ele>669</ele>
        <time>2019-06-23T07:40:38Z</time>
      </trkpt>
      <trkpt lat="42.813935028389096" lon="-2.439364995807409">
        <ele>668.60000000000002</ele>
        <time>2019-06-23T07:40:40Z</time>
      </trkpt>
      <trkpt lat="42.813928993418813" lon="-2.439272962510586">
        <ele>668.39999999999998</ele>
        <time>2019-06-23T07:40:41Z</time>
      </trkpt>
      <trkpt lat="42.813922958448529" lon="-2.439183024689555">
        <ele>668.20000000000005</ele>
        <time>2019-06-23T07:40:42Z</time>
      </trkpt>
      <trkpt lat="42.813918013125658" lon="-2.439000969752669">
        <ele>668.39999999999998</ele>
        <time>2019-06-23T07:40:44Z</time>
      </trkpt>
      <trkpt lat="42.813931005075574" lon="-2.438825033605099">
        <ele>668.20000000000005</ele>
        <time>2019-06-23T07:40:46Z</time>
      </trkpt>
      <trkpt lat="42.813956988975406" lon="-2.438656976446509">
        <ele>668.39999999999998</ele>
        <time>2019-06-23T07:40:48Z</time>
      </trkpt>
      <trkpt lat="42.813971992582083" lon="-2.438579024747014">
        <ele>668.20000000000005</ele>
        <time>2019-06-23T07:40:49Z</time>
      </trkpt>
      <trkpt lat="42.81398800201714" lon="-2.438501995056868">
        <ele>668.39999999999998</ele>
        <time>2019-06-23T07:40:50Z</time>
      </trkpt>
      <trkpt lat="42.814027983695269" lon="-2.438349025323987">
        <ele>668.79999999999995</ele>
        <time>2019-06-23T07:40:52Z</time>
      </trkpt>
      <trkpt lat="42.814078023657203" lon="-2.438199995085597">
        <ele>669</ele>
        <time>2019-06-23T07:40:54Z</time>
      </trkpt>
      <trkpt lat="42.814128985628486" lon="-2.438052976503968">
        <ele>669.39999999999998</ele>
        <time>2019-06-23T07:40:56Z</time>
      </trkpt>
      <trkpt lat="42.81418296508491" lon="-2.437905035912991">
        <ele>670</ele>
        <time>2019-06-23T07:40:58Z</time>
      </trkpt>
      <trkpt lat="42.814236022531986" lon="-2.437760028988123">
        <ele>670.20000000000005</ele>
        <time>2019-06-23T07:41:00Z</time>
      </trkpt>
      <trkpt lat="42.814263012260199" lon="-2.43768903426826">
        <ele>670.39999999999998</ele>
        <time>2019-06-23T07:41:01Z</time>
      </trkpt>
      <trkpt lat="42.814291007816792" lon="-2.437617033720017">
        <ele>670.60000000000002</ele>
        <time>2019-06-23T07:41:02Z</time>
      </trkpt>
      <trkpt lat="42.814319003373384" lon="-2.437544027343392">
        <ele>670.60000000000002</ele>
        <time>2019-06-23T07:41:03Z</time>
      </trkpt>
      <trkpt lat="42.814348004758358" lon="-2.437470015138388">
        <ele>670.60000000000002</ele>
        <time>2019-06-23T07:41:04Z</time>
      </trkpt>
      <trkpt lat="42.814377006143332" lon="-2.437394997105002">
        <ele>670.60000000000002</ele>
        <time>2019-06-23T07:41:05Z</time>
      </trkpt>
      <trkpt lat="42.814405001699924" lon="-2.437319979071617">
        <ele>670.79999999999995</ele>
        <time>2019-06-23T07:41:06Z</time>
      </trkpt>
      <trkpt lat="42.81446099281311" lon="-2.437170026823878">
        <ele>670.79999999999995</ele>
        <time>2019-06-23T07:41:08Z</time>
      </trkpt>
      <trkpt lat="42.814489994198084" lon="-2.437096014618874">
        <ele>670.79999999999995</ele>
        <time>2019-06-23T07:41:09Z</time>
      </trkpt>
      <trkpt lat="42.814520001411438" lon="-2.437022002413869">
        <ele>670.79999999999995</ele>
        <time>2019-06-23T07:41:10Z</time>
      </trkpt>
      <trkpt lat="42.814575992524624" lon="-2.43687397800386">
        <ele>670.79999999999995</ele>
        <time>2019-06-23T07:41:12Z</time>
      </trkpt>
      <trkpt lat="42.81463198363781" lon="-2.436726959422231">
        <ele>670.79999999999995</ele>
        <time>2019-06-23T07:41:14Z</time>
      </trkpt>
      <trkpt lat="42.814687974750996" lon="-2.436582036316395">
        <ele>671</ele>
        <time>2019-06-23T07:41:16Z</time>
      </trkpt>
      <trkpt lat="42.814742038026452" lon="-2.436437029391527">
        <ele>671.20000000000005</ele>
        <time>2019-06-23T07:41:18Z</time>
      </trkpt>
      <trkpt lat="42.814798029139638" lon="-2.436290010809898">
        <ele>671.39999999999998</ele>
        <time>2019-06-23T07:41:20Z</time>
      </trkpt>
      <trkpt lat="42.814857037737966" lon="-2.436136035248637">
        <ele>671.20000000000005</ele>
        <time>2019-06-23T07:41:22Z</time>
      </trkpt>
      <trkpt lat="42.814918980002403" lon="-2.435975018888712">
        <ele>671.39999999999998</ele>
        <time>2019-06-23T07:41:24Z</time>
      </trkpt>
      <trkpt lat="42.814981006085873" lon="-2.435812996700406">
        <ele>671.20000000000005</ele>
        <time>2019-06-23T07:41:26Z</time>
      </trkpt>
      <trkpt lat="42.815045965835452" lon="-2.435648962855339">
        <ele>671</ele>
        <time>2019-06-23T07:41:28Z</time>
      </trkpt>
      <trkpt lat="42.815111009404063" lon="-2.435488030314446">
        <ele>671</ele>
        <time>2019-06-23T07:41:30Z</time>
      </trkpt>
      <trkpt lat="42.815173035487533" lon="-2.435330031439662">
        <ele>670.79999999999995</ele>
        <time>2019-06-23T07:41:32Z</time>
      </trkpt>
      <trkpt lat="42.81523103825748" lon="-2.43517697788775">
        <ele>670.79999999999995</ele>
        <time>2019-06-23T07:41:34Z</time>
      </trkpt>
      <trkpt lat="42.815287029370666" lon="-2.435031970962882">
        <ele>671</ele>
        <time>2019-06-23T07:41:36Z</time>
      </trkpt>
      <trkpt lat="42.815342014655471" lon="-2.434892999008298">
        <ele>671</ele>
        <time>2019-06-23T07:41:38Z</time>
      </trkpt>
      <trkpt lat="42.815367998555303" lon="-2.434823010116816">
        <ele>671</ele>
        <time>2019-06-23T07:41:39Z</time>
      </trkpt>
      <trkpt lat="42.815394988283515" lon="-2.434754027053714">
        <ele>671</ele>
        <time>2019-06-23T07:41:40Z</time>
      </trkpt>
      <trkpt lat="42.81544603407383" lon="-2.434612959623337">
        <ele>671</ele>
        <time>2019-06-23T07:41:42Z</time>
      </trkpt>
      <trkpt lat="42.815493978559971" lon="-2.43446602486074">
        <ele>671.39999999999998</ele>
        <time>2019-06-23T07:41:44Z</time>
      </trkpt>
      <trkpt lat="42.815544018521905" lon="-2.43431699462235">
        <ele>671.79999999999995</ele>
        <time>2019-06-23T07:41:46Z</time>
      </trkpt>
      <trkpt lat="42.815571008250117" lon="-2.434240970760584">
        <ele>671.79999999999995</ele>
        <time>2019-06-23T07:41:47Z</time>
      </trkpt>
      <trkpt lat="42.815595986321568" lon="-2.434163019061089">
        <ele>672.20000000000005</ele>
        <time>2019-06-23T07:41:48Z</time>
      </trkpt>
      <trkpt lat="42.815645020455122" lon="-2.434002002701163">
        <ele>672.39999999999998</ele>
        <time>2019-06-23T07:41:50Z</time>
      </trkpt>
      <trkpt lat="42.815694976598024" lon="-2.433835035189986">
        <ele>672.39999999999998</ele>
        <time>2019-06-23T07:41:52Z</time>
      </trkpt>
      <trkpt lat="42.815749039873481" lon="-2.433662032708526">
        <ele>672.60000000000002</ele>
        <time>2019-06-23T07:41:54Z</time>
      </trkpt>
      <trkpt lat="42.815776029601693" lon="-2.433576034381986">
        <ele>672.39999999999998</ele>
        <time>2019-06-23T07:41:55Z</time>
      </trkpt>
      <trkpt lat="42.815803019329906" lon="-2.433490036055446">
        <ele>672.60000000000002</ele>
        <time>2019-06-23T07:41:56Z</time>
      </trkpt>
      <trkpt lat="42.815831014886498" lon="-2.433404037728906">
        <ele>672.60000000000002</ele>
        <time>2019-06-23T07:41:57Z</time>
      </trkpt>
      <trkpt lat="42.815859010443091" lon="-2.433317033573985">
        <ele>672.60000000000002</ele>
        <time>2019-06-23T07:41:58Z</time>
      </trkpt>
      <trkpt lat="42.815916007384658" lon="-2.433142019435763">
        <ele>672.39999999999998</ele>
        <time>2019-06-23T07:42:00Z</time>
      </trkpt>
      <trkpt lat="42.815973004326224" lon="-2.432968011125922">
        <ele>672</ele>
        <time>2019-06-23T07:42:02Z</time>
      </trkpt>
      <trkpt lat="42.81602899543941" lon="-2.43279199115932">
        <ele>672</ele>
        <time>2019-06-23T07:42:04Z</time>
      </trkpt>
      <trkpt lat="42.816084986552596" lon="-2.432616977021098">
        <ele>671.60000000000002</ele>
        <time>2019-06-23T07:42:06Z</time>
      </trkpt>
      <trkpt lat="42.816142989322543" lon="-2.432435005903244">
        <ele>671.39999999999998</ele>
        <time>2019-06-23T07:42:08Z</time>
      </trkpt>
      <trkpt lat="42.816172996535897" lon="-2.432342972606421">
        <ele>671.20000000000005</ele>
        <time>2019-06-23T07:42:09Z</time>
      </trkpt>
      <trkpt lat="42.816201997920871" lon="-2.432250017300248">
        <ele>671.20000000000005</ele>
        <time>2019-06-23T07:42:10Z</time>
      </trkpt>
      <trkpt lat="42.816260000690818" lon="-2.432065028697252">
        <ele>671</ele>
        <time>2019-06-23T07:42:12Z</time>
      </trkpt>
      <trkpt lat="42.816290007904172" lon="-2.431972995400429">
        <ele>670.79999999999995</ele>
        <time>2019-06-23T07:42:13Z</time>
      </trkpt>
      <trkpt lat="42.816319009289145" lon="-2.431880962103605">
        <ele>670.79999999999995</ele>
        <time>2019-06-23T07:42:14Z</time>
      </trkpt>
      <trkpt lat="42.816370977088809" lon="-2.431698990985751">
        <ele>670.60000000000002</ele>
        <time>2019-06-23T07:42:16Z</time>
      </trkpt>
      <trkpt lat="42.816425962373614" lon="-2.43152498267591">
        <ele>670.39999999999998</ele>
        <time>2019-06-23T07:42:18Z</time>
      </trkpt>
      <trkpt lat="42.816482037305832" lon="-2.431358015164733">
        <ele>670.20000000000005</ele>
        <time>2019-06-23T07:42:20Z</time>
      </trkpt>
      <trkpt lat="42.816540040075779" lon="-2.431202027946711">
        <ele>670.39999999999998</ele>
        <time>2019-06-23T07:42:22Z</time>
      </trkpt>
      <trkpt lat="42.816600976511836" lon="-2.43105199187994">
        <ele>670.39999999999998</ele>
        <time>2019-06-23T07:42:24Z</time>
      </trkpt>
      <trkpt lat="42.816671971231699" lon="-2.430907990783453">
        <ele>670.39999999999998</ele>
        <time>2019-06-23T07:42:26Z</time>
      </trkpt>
      <trkpt lat="42.81675897538662" lon="-2.430762983858585">
        <ele>670.60000000000002</ele>
        <time>2019-06-23T07:42:28Z</time>
      </trkpt>
      <trkpt lat="42.816811027005315" lon="-2.430689977481961">
        <ele>670.60000000000002</ele>
        <time>2019-06-23T07:42:29Z</time>
      </trkpt>
      <trkpt lat="42.81686500646174" lon="-2.430616971105337">
        <ele>670.60000000000002</ele>
        <time>2019-06-23T07:42:30Z</time>
      </trkpt>
      <trkpt lat="42.816924015060067" lon="-2.430542958900333">
        <ele>670.60000000000002</ele>
        <time>2019-06-23T07:42:31Z</time>
      </trkpt>
      <trkpt lat="42.816985035315156" lon="-2.430468024685979">
        <ele>670.79999999999995</ele>
        <time>2019-06-23T07:42:32Z</time>
      </trkpt>
      <trkpt lat="42.817106992006302" lon="-2.430313965305686">
        <ele>670.60000000000002</ele>
        <time>2019-06-23T07:42:34Z</time>
      </trkpt>
      <trkpt lat="42.81723196618259" lon="-2.430164013057947">
        <ele>670.79999999999995</ele>
        <time>2019-06-23T07:42:36Z</time>
      </trkpt>
      <trkpt lat="42.817353000864387" lon="-2.430013976991177">
        <ele>670.39999999999998</ele>
        <time>2019-06-23T07:42:38Z</time>
      </trkpt>
      <trkpt lat="42.817462971433997" lon="-2.429855978116393">
        <ele>668.79999999999995</ele>
        <time>2019-06-23T07:42:40Z</time>
      </trkpt>
      <trkpt lat="42.81755399890244" lon="-2.429682975634933">
        <ele>668.20000000000005</ele>
        <time>2019-06-23T07:42:42Z</time>
      </trkpt>
      <trkpt lat="42.817630022764206" lon="-2.429495975375176">
        <ele>667.79999999999995</ele>
        <time>2019-06-23T07:42:44Z</time>
      </trkpt>
      <trkpt lat="42.817692970857024" lon="-2.429295983165503">
        <ele>667.39999999999998</ele>
        <time>2019-06-23T07:42:46Z</time>
      </trkpt>
      <trkpt lat="42.81772599555552" lon="-2.429192969575524">
        <ele>667.20000000000005</ele>
        <time>2019-06-23T07:42:47Z</time>
      </trkpt>
      <trkpt lat="42.817760026082397" lon="-2.429088028147817">
        <ele>667</ele>
        <time>2019-06-23T07:42:48Z</time>
      </trkpt>
      <trkpt lat="42.817793972790241" lon="-2.428981997072697">
        <ele>666.79999999999995</ele>
        <time>2019-06-23T07:42:49Z</time>
      </trkpt>
      <trkpt lat="42.817829009145498" lon="-2.428874038159847">
        <ele>666.60000000000002</ele>
        <time>2019-06-23T07:42:50Z</time>
      </trkpt>
      <trkpt lat="42.817898998036981" lon="-2.428658036515117">
        <ele>666.60000000000002</ele>
        <time>2019-06-23T07:42:52Z</time>
      </trkpt>
      <trkpt lat="42.817966975271702" lon="-2.428447986021638">
        <ele>666.60000000000002</ele>
        <time>2019-06-23T07:42:54Z</time>
      </trkpt>
      <trkpt lat="42.817998994141817" lon="-2.428343966603279">
        <ele>666.60000000000002</ele>
        <time>2019-06-23T07:42:55Z</time>
      </trkpt>
      <trkpt lat="42.818032018840313" lon="-2.428241036832333">
        <ele>666.20000000000005</ele>
        <time>2019-06-23T07:42:56Z</time>
      </trkpt>
      <trkpt lat="42.818093961104751" lon="-2.428039032965899">
        <ele>665.39999999999998</ele>
        <time>2019-06-23T07:42:58Z</time>
      </trkpt>
      <trkpt lat="42.818160010501742" lon="-2.427843986079097">
        <ele>664.79999999999995</ele>
        <time>2019-06-23T07:43:00Z</time>
      </trkpt>
      <trkpt lat="42.818199992179871" lon="-2.427754970267415">
        <ele>664.60000000000002</ele>
        <time>2019-06-23T07:43:01Z</time>
      </trkpt>
      <trkpt lat="42.818251037970185" lon="-2.427674001082778">
        <ele>664.39999999999998</ele>
        <time>2019-06-23T07:43:02Z</time>
      </trkpt>
      <trkpt lat="42.818311974406242" lon="-2.427608035504818">
        <ele>664.39999999999998</ele>
        <time>2019-06-23T07:43:03Z</time>
      </trkpt>
      <trkpt lat="42.818382969126105" lon="-2.427557995542884">
        <ele>664.20000000000005</ele>
        <time>2019-06-23T07:43:04Z</time>
      </trkpt>
      <trkpt lat="42.81845698133111" lon="-2.427517008036375">
        <ele>664.20000000000005</ele>
        <time>2019-06-23T07:43:05Z</time>
      </trkpt>
      <trkpt lat="42.818531999364495" lon="-2.427479038015008">
        <ele>664.20000000000005</ele>
        <time>2019-06-23T07:43:06Z</time>
      </trkpt>
      <trkpt lat="42.818685974925756" lon="-2.427402008324862">
        <ele>664</ele>
        <time>2019-06-23T07:43:08Z</time>
      </trkpt>
      <trkpt lat="42.81884104013443" lon="-2.427325984463096">
        <ele>664</ele>
        <time>2019-06-23T07:43:10Z</time>
      </trkpt>
      <trkpt lat="42.818999961018562" lon="-2.427251972258091">
        <ele>663.60000000000002</ele>
        <time>2019-06-23T07:43:12Z</time>
      </trkpt>
      <trkpt lat="42.819080008193851" lon="-2.427214002236724">
        <ele>663.39999999999998</ele>
        <time>2019-06-23T07:43:13Z</time>
      </trkpt>
      <trkpt lat="42.819160977378488" lon="-2.427174020558596">
        <ele>663</ele>
        <time>2019-06-23T07:43:14Z</time>
      </trkpt>
      <trkpt lat="42.819325011223555" lon="-2.427090033888817">
        <ele>662.60000000000002</ele>
        <time>2019-06-23T07:43:16Z</time>
      </trkpt>
      <trkpt lat="42.819407992064953" lon="-2.427050974220038">
        <ele>662.39999999999998</ele>
        <time>2019-06-23T07:43:17Z</time>
      </trkpt>
      <trkpt lat="42.819490972906351" lon="-2.42701199837029">
        <ele>662</ele>
        <time>2019-06-23T07:43:18Z</time>
      </trkpt>
      <trkpt lat="42.819655006751418" lon="-2.426931029185653">
        <ele>661.20000000000005</ele>
        <time>2019-06-23T07:43:20Z</time>
      </trkpt>
      <trkpt lat="42.819734970107675" lon="-2.426890963688493">
        <ele>660.79999999999995</ele>
        <time>2019-06-23T07:43:21Z</time>
      </trkpt>
      <trkpt lat="42.819815017282963" lon="-2.426853999495506">
        <ele>660.60000000000002</ele>
        <time>2019-06-23T07:43:22Z</time>
      </trkpt>
      <trkpt lat="42.819969998672605" lon="-2.426781998947263">
        <ele>660.39999999999998</ele>
        <time>2019-06-23T07:43:24Z</time>
      </trkpt>
      <trkpt lat="42.820120034739375" lon="-2.426709998399019">
        <ele>660.20000000000005</ele>
        <time>2019-06-23T07:43:26Z</time>
      </trkpt>
      <trkpt lat="42.820265963673592" lon="-2.426639003679156">
        <ele>660.20000000000005</ele>
        <time>2019-06-23T07:43:28Z</time>
      </trkpt>
      <trkpt lat="42.820336958393455" lon="-2.42660203948617">
        <ele>660</ele>
        <time>2019-06-23T07:43:29Z</time>
      </trkpt>
      <trkpt lat="42.820407031103969" lon="-2.426567003130913">
        <ele>660</ele>
        <time>2019-06-23T07:43:30Z</time>
      </trkpt>
      <trkpt lat="42.82054097391665" lon="-2.426501959562302">
        <ele>660</ele>
        <time>2019-06-23T07:43:32Z</time>
      </trkpt>
      <trkpt lat="42.820668965578079" lon="-2.426436999812722">
        <ele>659.79999999999995</ele>
        <time>2019-06-23T07:43:34Z</time>
      </trkpt>
      <trkpt lat="42.820791006088257" lon="-2.426360975950956">
        <ele>660</ele>
        <time>2019-06-23T07:43:36Z</time>
      </trkpt>
      <trkpt lat="42.820849008858204" lon="-2.426317976787686">
        <ele>660</ele>
        <time>2019-06-23T07:43:37Z</time>
      </trkpt>
      <trkpt lat="42.820903994143009" lon="-2.426270032301545">
        <ele>660</ele>
        <time>2019-06-23T07:43:38Z</time>
      </trkpt>
      <trkpt lat="42.821000972762704" lon="-2.426162995398045">
        <ele>660</ele>
        <time>2019-06-23T07:43:40Z</time>
      </trkpt>
      <trkpt lat="42.821075990796089" lon="-2.426043972373009">
        <ele>660</ele>
        <time>2019-06-23T07:43:42Z</time>
      </trkpt>
      <trkpt lat="42.821107003837824" lon="-2.42598001845181">
        <ele>660.20000000000005</ele>
        <time>2019-06-23T07:43:43Z</time>
      </trkpt>
      <trkpt lat="42.821137011051178" lon="-2.425913969054818">
        <ele>660.60000000000002</ele>
        <time>2019-06-23T07:43:44Z</time>
      </trkpt>
      <trkpt lat="42.821196019649506" lon="-2.425781032070518">
        <ele>661.20000000000005</ele>
        <time>2019-06-23T07:43:46Z</time>
      </trkpt>
      <trkpt lat="42.821257961913943" lon="-2.425643987953663">
        <ele>661.39999999999998</ele>
        <time>2019-06-23T07:43:48Z</time>
      </trkpt>
      <trkpt lat="42.821288974955678" lon="-2.425573999062181">
        <ele>661.60000000000002</ele>
        <time>2019-06-23T07:43:49Z</time>
      </trkpt>
      <trkpt lat="42.821318982169032" lon="-2.425501998513937">
        <ele>661.79999999999995</ele>
        <time>2019-06-23T07:43:50Z</time>
      </trkpt>
      <trkpt lat="42.821381008252501" lon="-2.425353974103928">
        <ele>662.20000000000005</ele>
        <time>2019-06-23T07:43:52Z</time>
      </trkpt>
      <trkpt lat="42.821443034335971" lon="-2.425201004371047">
        <ele>662.20000000000005</ele>
        <time>2019-06-23T07:43:54Z</time>
      </trkpt>
      <trkpt lat="42.82150698825717" lon="-2.425048034638166">
        <ele>662.20000000000005</ele>
        <time>2019-06-23T07:43:56Z</time>
      </trkpt>
      <trkpt lat="42.82157395966351" lon="-2.424890035763383">
        <ele>662.20000000000005</ele>
        <time>2019-06-23T07:43:58Z</time>
      </trkpt>
      <trkpt lat="42.821608996018767" lon="-2.424812000244856">
        <ele>662.20000000000005</ele>
        <time>2019-06-23T07:43:59Z</time>
      </trkpt>
      <trkpt lat="42.821645960211754" lon="-2.42473597638309">
        <ele>662.20000000000005</ele>
        <time>2019-06-23T07:44:00Z</time>
      </trkpt>
      <trkpt lat="42.821723995730281" lon="-2.424585018306971">
        <ele>662</ele>
        <time>2019-06-23T07:44:02Z</time>
      </trkpt>
      <trkpt lat="42.821803037077188" lon="-2.424441017210484">
        <ele>662</ele>
        <time>2019-06-23T07:44:04Z</time>
      </trkpt>
      <trkpt lat="42.821887023746967" lon="-2.424293998628855">
        <ele>662.20000000000005</ele>
        <time>2019-06-23T07:44:06Z</time>
      </trkpt>
      <trkpt lat="42.821929017081857" lon="-2.424220992252231">
        <ele>662</ele>
        <time>2019-06-23T07:44:07Z</time>
      </trkpt>
      <trkpt lat="42.821971010416746" lon="-2.424148991703987">
        <ele>661.79999999999995</ele>
        <time>2019-06-23T07:44:08Z</time>
      </trkpt>
      <trkpt lat="42.822057008743286" lon="-2.424008008092642">
        <ele>661.60000000000002</ele>
        <time>2019-06-23T07:44:10Z</time>
      </trkpt>
      <trkpt lat="42.822100007906556" lon="-2.42393801920116">
        <ele>661.39999999999998</ele>
        <time>2019-06-23T07:44:11Z</time>
      </trkpt>
      <trkpt lat="42.822139989584684" lon="-2.423870963975787">
        <ele>661.60000000000002</ele>
        <time>2019-06-23T07:44:12Z</time>
      </trkpt>
      <trkpt lat="42.822207966819406" lon="-2.423738026991487">
        <ele>661.39999999999998</ele>
        <time>2019-06-23T07:44:14Z</time>
      </trkpt>
      <trkpt lat="42.82223797403276" lon="-2.423673989251256">
        <ele>661.60000000000002</ele>
        <time>2019-06-23T07:44:15Z</time>
      </trkpt>
      <trkpt lat="42.822264963760972" lon="-2.423610035330057">
        <ele>661.39999999999998</ele>
        <time>2019-06-23T07:44:16Z</time>
      </trkpt>
      <trkpt lat="42.822317015379667" lon="-2.423482965677977">
        <ele>661.60000000000002</ele>
        <time>2019-06-23T07:44:18Z</time>
      </trkpt>
      <trkpt lat="42.822337970137596" lon="-2.423417000100017">
        <ele>662</ele>
        <time>2019-06-23T07:44:19Z</time>
      </trkpt>
      <trkpt lat="42.822354985401034" lon="-2.423350028693676">
        <ele>662.20000000000005</ele>
        <time>2019-06-23T07:44:20Z</time>
      </trkpt>
      <trkpt lat="42.822379041463137" lon="-2.423211978748441">
        <ele>662.60000000000002</ele>
        <time>2019-06-23T07:44:22Z</time>
      </trkpt>
      <trkpt lat="42.822383986786008" lon="-2.423138972371817">
        <ele>663</ele>
        <time>2019-06-23T07:44:23Z</time>
      </trkpt>
      <trkpt lat="42.82238700427115" lon="-2.423061020672321">
        <ele>663.39999999999998</ele>
        <time>2019-06-23T07:44:24Z</time>
      </trkpt>
      <trkpt lat="42.82238801009953" lon="-2.422978039830923">
        <ele>663.79999999999995</ele>
        <time>2019-06-23T07:44:25Z</time>
      </trkpt>
      <trkpt lat="42.82238801009953" lon="-2.422890029847622">
        <ele>663.79999999999995</ele>
        <time>2019-06-23T07:44:26Z</time>
      </trkpt>
      <trkpt lat="42.822378035634756" lon="-2.422699006274343">
        <ele>664.60000000000002</ele>
        <time>2019-06-23T07:44:28Z</time>
      </trkpt>
      <trkpt lat="42.822364959865808" lon="-2.422489961609244">
        <ele>664.79999999999995</ele>
        <time>2019-06-23T07:44:30Z</time>
      </trkpt>
      <trkpt lat="42.822370994836092" lon="-2.42226499132812">
        <ele>665</ele>
        <time>2019-06-23T07:44:32Z</time>
      </trkpt>
      <trkpt lat="42.82241097651422" lon="-2.422029040753841">
        <ele>664.79999999999995</ele>
        <time>2019-06-23T07:44:34Z</time>
      </trkpt>
      <trkpt lat="42.822487000375986" lon="-2.421797029674053">
        <ele>664.39999999999998</ele>
        <time>2019-06-23T07:44:36Z</time>
      </trkpt>
      <trkpt lat="42.822580961510539" lon="-2.421571975573897">
        <ele>663.60000000000002</ele>
        <time>2019-06-23T07:44:38Z</time>
      </trkpt>
      <trkpt lat="42.822691015899181" lon="-2.421353040263057">
        <ele>662.79999999999995</ele>
        <time>2019-06-23T07:44:40Z</time>
      </trkpt>
      <trkpt lat="42.822825964540243" lon="-2.421151958405972">
        <ele>661.79999999999995</ele>
        <time>2019-06-23T07:44:42Z</time>
      </trkpt>
      <trkpt lat="42.822995027527213" lon="-2.420982979238033">
        <ele>660.60000000000002</ele>
        <time>2019-06-23T07:44:44Z</time>
      </trkpt>
      <trkpt lat="42.823091000318527" lon="-2.420915002003312">
        <ele>660</ele>
        <time>2019-06-23T07:44:45Z</time>
      </trkpt>
      <trkpt lat="42.823192002251744" lon="-2.420853981748223">
        <ele>659.39999999999998</ele>
        <time>2019-06-23T07:44:46Z</time>
      </trkpt>
      <trkpt lat="42.823294010013342" lon="-2.420793967321515">
        <ele>658.79999999999995</ele>
        <time>2019-06-23T07:44:47Z</time>
      </trkpt>
      <trkpt lat="42.823398029431701" lon="-2.420735964551568">
        <ele>658.20000000000005</ele>
        <time>2019-06-23T07:44:48Z</time>
      </trkpt>
      <trkpt lat="42.823605984449387" lon="-2.42063102312386">
        <ele>656.79999999999995</ele>
        <time>2019-06-23T07:44:50Z</time>
      </trkpt>
      <trkpt lat="42.823708998039365" lon="-2.420578971505165">
        <ele>656.20000000000005</ele>
        <time>2019-06-23T07:44:51Z</time>
      </trkpt>
      <trkpt lat="42.823809999972582" lon="-2.420527003705502">
        <ele>655.79999999999995</ele>
        <time>2019-06-23T07:44:52Z</time>
      </trkpt>
      <trkpt lat="42.823909996077418" lon="-2.420475035905838">
        <ele>655.20000000000005</ele>
        <time>2019-06-23T07:44:53Z</time>
      </trkpt>
      <trkpt lat="42.824007980525494" lon="-2.420423990115523">
        <ele>654.20000000000005</ele>
        <time>2019-06-23T07:44:54Z</time>
      </trkpt>
      <trkpt lat="42.824200009927154" lon="-2.42032902315259">
        <ele>652.20000000000005</ele>
        <time>2019-06-23T07:44:56Z</time>
      </trkpt>
      <trkpt lat="42.824383992701769" lon="-2.420241013169289">
        <ele>650.20000000000005</ele>
        <time>2019-06-23T07:44:58Z</time>
      </trkpt>
      <trkpt lat="42.824555989354849" lon="-2.420147974044085">
        <ele>649.39999999999998</ele>
        <time>2019-06-23T07:45:00Z</time>
      </trkpt>
      <trkpt lat="42.824720023199916" lon="-2.420058958232403">
        <ele>648.60000000000002</ele>
        <time>2019-06-23T07:45:02Z</time>
      </trkpt>
      <trkpt lat="42.824875004589558" lon="-2.419968014582992">
        <ele>647.79999999999995</ele>
        <time>2019-06-23T07:45:04Z</time>
      </trkpt>
      <trkpt lat="42.825025962665677" lon="-2.419865000993013">
        <ele>647.60000000000002</ele>
        <time>2019-06-23T07:45:06Z</time>
      </trkpt>
      <trkpt lat="42.825173987075686" lon="-2.419755030423403">
        <ele>647.39999999999998</ele>
        <time>2019-06-23T07:45:08Z</time>
      </trkpt>
      <trkpt lat="42.825323017314076" lon="-2.41964103654027">
        <ele>647.20000000000005</ele>
        <time>2019-06-23T07:45:10Z</time>
      </trkpt>
      <trkpt lat="42.825397029519081" lon="-2.419584039598703">
        <ele>647</ele>
        <time>2019-06-23T07:45:11Z</time>
      </trkpt>
      <trkpt lat="42.825472969561815" lon="-2.419530982151628">
        <ele>647.20000000000005</ele>
        <time>2019-06-23T07:45:12Z</time>
      </trkpt>
      <trkpt lat="42.825551005080342" lon="-2.419484965503216">
        <ele>647.20000000000005</ele>
        <time>2019-06-23T07:45:13Z</time>
      </trkpt>
      <trkpt lat="42.825630968436599" lon="-2.419448001310229">
        <ele>647.20000000000005</ele>
        <time>2019-06-23T07:45:14Z</time>
      </trkpt>
      <trkpt lat="42.825790978968143" lon="-2.419386981055141">
        <ele>647</ele>
        <time>2019-06-23T07:45:16Z</time>
      </trkpt>
      <trkpt lat="42.825871026143432" lon="-2.419359991326928">
        <ele>647</ele>
        <time>2019-06-23T07:45:17Z</time>
      </trkpt>
      <trkpt lat="42.825950989499688" lon="-2.419337024912238">
        <ele>647</ele>
        <time>2019-06-23T07:45:18Z</time>
      </trkpt>
      <trkpt lat="42.826109994202852" lon="-2.419293019920588">
        <ele>646.60000000000002</ele>
        <time>2019-06-23T07:45:20Z</time>
      </trkpt>
      <trkpt lat="42.826261958107352" lon="-2.419250020757318">
        <ele>646</ele>
        <time>2019-06-23T07:45:22Z</time>
      </trkpt>
      <trkpt lat="42.826408976688981" lon="-2.419210961088538">
        <ele>646</ele>
        <time>2019-06-23T07:45:24Z</time>
      </trkpt>
      <trkpt lat="42.826481983065605" lon="-2.419193023815751">
        <ele>646</ele>
        <time>2019-06-23T07:45:25Z</time>
      </trkpt>
      <trkpt lat="42.826551971957088" lon="-2.419172991067171">
        <ele>646</ele>
        <time>2019-06-23T07:45:26Z</time>
      </trkpt>
      <trkpt lat="42.826621038839221" lon="-2.419152036309242">
        <ele>645.79999999999995</ele>
        <time>2019-06-23T07:45:27Z</time>
      </trkpt>
      <trkpt lat="42.826690021902323" lon="-2.419130997732282">
        <ele>646</ele>
        <time>2019-06-23T07:45:28Z</time>
      </trkpt>
      <trkpt lat="42.826825976371765" lon="-2.419082969427109">
        <ele>645.79999999999995</ele>
        <time>2019-06-23T07:45:30Z</time>
      </trkpt>
      <trkpt lat="42.826891019940376" lon="-2.419051034376025">
        <ele>646</ele>
        <time>2019-06-23T07:45:31Z</time>
      </trkpt>
      <trkpt lat="42.826953968033195" lon="-2.419009963050485">
        <ele>646</ele>
        <time>2019-06-23T07:45:32Z</time>
      </trkpt>
      <trkpt lat="42.82707299105823" lon="-2.418902004137635">
        <ele>646.20000000000005</ele>
        <time>2019-06-23T07:45:34Z</time>
      </trkpt>
      <trkpt lat="42.827131999656558" lon="-2.418840983882546">
        <ele>646</ele>
        <time>2019-06-23T07:45:35Z</time>
      </trkpt>
      <trkpt lat="42.827196037396789" lon="-2.418775018304586">
        <ele>646</ele>
        <time>2019-06-23T07:45:36Z</time>
      </trkpt>
      <trkpt lat="42.827257979661226" lon="-2.418706035241485">
        <ele>646.20000000000005</ele>
        <time>2019-06-23T07:45:37Z</time>
      </trkpt>
      <trkpt lat="42.827317994087934" lon="-2.41863202303648">
        <ele>646.39999999999998</ele>
        <time>2019-06-23T07:45:38Z</time>
      </trkpt>
      <trkpt lat="42.827441962435842" lon="-2.418478969484568">
        <ele>646.20000000000005</ele>
        <time>2019-06-23T07:45:40Z</time>
      </trkpt>
      <trkpt lat="42.827564002946019" lon="-2.418327005580068">
        <ele>646.20000000000005</ele>
        <time>2019-06-23T07:45:42Z</time>
      </trkpt>
      <trkpt lat="42.827687971293926" lon="-2.418174035847187">
        <ele>646.20000000000005</ele>
        <time>2019-06-23T07:45:44Z</time>
      </trkpt>
      <trkpt lat="42.827751003205776" lon="-2.418097006157041">
        <ele>645.79999999999995</ele>
        <time>2019-06-23T07:45:45Z</time>
      </trkpt>
      <trkpt lat="42.827812023460865" lon="-2.418017964810133">
        <ele>645.60000000000002</ele>
        <time>2019-06-23T07:45:46Z</time>
      </trkpt>
      <trkpt lat="42.827933980152011" lon="-2.417858960106969">
        <ele>644.60000000000002</ele>
        <time>2019-06-23T07:45:48Z</time>
      </trkpt>
      <trkpt lat="42.828055014833808" lon="-2.417695010080934">
        <ele>644.20000000000005</ele>
        <time>2019-06-23T07:45:50Z</time>
      </trkpt>
      <trkpt lat="42.828117040917277" lon="-2.417612029239535">
        <ele>644</ele>
        <time>2019-06-23T07:45:51Z</time>
      </trkpt>
      <trkpt lat="42.828178983181715" lon="-2.417530976235867">
        <ele>643.79999999999995</ele>
        <time>2019-06-23T07:45:52Z</time>
      </trkpt>
      <trkpt lat="42.828242015093565" lon="-2.41745000705123">
        <ele>643.60000000000002</ele>
        <time>2019-06-23T07:45:53Z</time>
      </trkpt>
      <trkpt lat="42.828304041177034" lon="-2.41736501455307">
        <ele>643.20000000000005</ele>
        <time>2019-06-23T07:45:54Z</time>
      </trkpt>
      <trkpt lat="42.828366989269853" lon="-2.417277004569769">
        <ele>643</ele>
        <time>2019-06-23T07:45:55Z</time>
      </trkpt>
      <trkpt lat="42.828432032838464" lon="-2.417187988758087">
        <ele>642.79999999999995</ele>
        <time>2019-06-23T07:45:56Z</time>
      </trkpt>
      <trkpt lat="42.828567987307906" lon="-2.417008029296994">
        <ele>642.39999999999998</ele>
        <time>2019-06-23T07:45:58Z</time>
      </trkpt>
      <trkpt lat="42.828636970371008" lon="-2.41691499017179">
        <ele>641.60000000000002</ele>
        <time>2019-06-23T07:45:59Z</time>
      </trkpt>
      <trkpt lat="42.82870695926249" lon="-2.416820023208857">
        <ele>641.20000000000005</ele>
        <time>2019-06-23T07:46:00Z</time>
      </trkpt>
      <trkpt lat="42.828778959810734" lon="-2.416721032932401">
        <ele>640.60000000000002</ele>
        <time>2019-06-23T07:46:01Z</time>
      </trkpt>
      <trkpt lat="42.828851966187358" lon="-2.416621958836913">
        <ele>640.20000000000005</ele>
        <time>2019-06-23T07:46:02Z</time>
      </trkpt>
      <trkpt lat="42.828926984220743" lon="-2.416521962732077">
        <ele>639.79999999999995</ele>
        <time>2019-06-23T07:46:03Z</time>
      </trkpt>
      <trkpt lat="42.82900401391089" lon="-2.416420038789511">
        <ele>639.39999999999998</ele>
        <time>2019-06-23T07:46:04Z</time>
      </trkpt>
      <trkpt lat="42.829157989472151" lon="-2.416217029094696">
        <ele>638.20000000000005</ele>
        <time>2019-06-23T07:46:06Z</time>
      </trkpt>
      <trkpt lat="42.829319005832076" lon="-2.416019970551133">
        <ele>637</ele>
        <time>2019-06-23T07:46:08Z</time>
      </trkpt>
      <trkpt lat="42.829401986673474" lon="-2.415928021073341">
        <ele>636.60000000000002</ele>
        <time>2019-06-23T07:46:09Z</time>
      </trkpt>
      <trkpt lat="42.829487985000014" lon="-2.415842022746801">
        <ele>636.39999999999998</ele>
        <time>2019-06-23T07:46:10Z</time>
      </trkpt>
      <trkpt lat="42.829575994983315" lon="-2.415764993056655">
        <ele>636.20000000000005</ele>
        <time>2019-06-23T07:46:11Z</time>
      </trkpt>
      <trkpt lat="42.829666016623378" lon="-2.415698021650314">
        <ele>635.39999999999998</ele>
        <time>2019-06-23T07:46:12Z</time>
      </trkpt>
      <trkpt lat="42.829756960272789" lon="-2.415642030537128">
        <ele>634.60000000000002</ele>
        <time>2019-06-23T07:46:13Z</time>
      </trkpt>
      <trkpt lat="42.829847987741232" lon="-2.415597019717097">
        <ele>634.39999999999998</ele>
        <time>2019-06-23T07:46:14Z</time>
      </trkpt>
      <trkpt lat="42.830031970515847" lon="-2.415530970320106">
        <ele>633</ele>
        <time>2019-06-23T07:46:16Z</time>
      </trkpt>
      <trkpt lat="42.830125009641051" lon="-2.415505992248654">
        <ele>632.39999999999998</ele>
        <time>2019-06-23T07:46:17Z</time>
      </trkpt>
      <trkpt lat="42.830218970775604" lon="-2.415486965328455">
        <ele>632</ele>
        <time>2019-06-23T07:46:18Z</time>
      </trkpt>
      <trkpt lat="42.830409994348884" lon="-2.415461987257004">
        <ele>631.39999999999998</ele>
        <time>2019-06-23T07:46:20Z</time>
      </trkpt>
      <trkpt lat="42.830603029578924" lon="-2.415438015013933">
        <ele>631.20000000000005</ele>
        <time>2019-06-23T07:46:22Z</time>
      </trkpt>
      <trkpt lat="42.830699002370238" lon="-2.415425023064017">
        <ele>630.79999999999995</ele>
        <time>2019-06-23T07:46:23Z</time>
      </trkpt>
      <trkpt lat="42.830795980989933" lon="-2.415411025285721">
        <ele>630.79999999999995</ele>
        <time>2019-06-23T07:46:24Z</time>
      </trkpt>
      <trkpt lat="42.830990022048354" lon="-2.415364002808929">
        <ele>630.39999999999998</ele>
        <time>2019-06-23T07:46:26Z</time>
      </trkpt>
      <trkpt lat="42.831085994839668" lon="-2.415326032787561">
        <ele>630.20000000000005</ele>
        <time>2019-06-23T07:46:27Z</time>
      </trkpt>
      <trkpt lat="42.831178028136492" lon="-2.415271969512105">
        <ele>630.20000000000005</ele>
        <time>2019-06-23T07:46:28Z</time>
      </trkpt>
      <trkpt lat="42.831265032291412" lon="-2.415202986449003">
        <ele>630</ele>
        <time>2019-06-23T07:46:29Z</time>
      </trkpt>
      <trkpt lat="42.831346001476049" lon="-2.415120005607605">
        <ele>630</ele>
        <time>2019-06-23T07:46:30Z</time>
      </trkpt>
      <trkpt lat="42.831415990367532" lon="-2.41502302698791">
        <ele>629.60000000000002</ele>
        <time>2019-06-23T07:46:31Z</time>
      </trkpt>
      <trkpt lat="42.831477010622621" lon="-2.41491699591279">
        <ele>629</ele>
        <time>2019-06-23T07:46:32Z</time>
      </trkpt>
      <trkpt lat="42.831528978422284" lon="-2.414805013686419">
        <ele>628.60000000000002</ele>
        <time>2019-06-23T07:46:33Z</time>
      </trkpt>
      <trkpt lat="42.831571977585554" lon="-2.414690013974905">
        <ele>628.20000000000005</ele>
        <time>2019-06-23T07:46:34Z</time>
      </trkpt>
      <trkpt lat="42.831610031425953" lon="-2.41457300260663">
        <ele>628</ele>
        <time>2019-06-23T07:46:35Z</time>
      </trkpt>
      <trkpt lat="42.831645989790559" lon="-2.414456997066736">
        <ele>627.60000000000002</ele>
        <time>2019-06-23T07:46:36Z</time>
      </trkpt>
      <trkpt lat="42.831714972853661" lon="-2.41422800347209">
        <ele>626.79999999999995</ele>
        <time>2019-06-23T07:46:38Z</time>
      </trkpt>
      <trkpt lat="42.831786973401904" lon="-2.414002027362585">
        <ele>625.60000000000002</ele>
        <time>2019-06-23T07:46:40Z</time>
      </trkpt>
      <trkpt lat="42.831823015585542" lon="-2.413887027651072">
        <ele>625.20000000000005</ele>
        <time>2019-06-23T07:46:41Z</time>
      </trkpt>
      <trkpt lat="42.831857968121767" lon="-2.413772027939558">
        <ele>624.79999999999995</ele>
        <time>2019-06-23T07:46:42Z</time>
      </trkpt>
      <trkpt lat="42.831925023347139" lon="-2.413539011031389">
        <ele>624.60000000000002</ele>
        <time>2019-06-23T07:46:44Z</time>
      </trkpt>
      <trkpt lat="42.831957964226604" lon="-2.413423005491495">
        <ele>624.60000000000002</ele>
        <time>2019-06-23T07:46:45Z</time>
      </trkpt>
      <trkpt lat="42.831989983096719" lon="-2.41330599412322">
        <ele>624.39999999999998</ele>
        <time>2019-06-23T07:46:46Z</time>
      </trkpt>
      <trkpt lat="42.832046980038285" lon="-2.413069037720561">
        <ele>624.20000000000005</ele>
        <time>2019-06-23T07:46:48Z</time>
      </trkpt>
      <trkpt lat="42.832069024443626" lon="-2.412949008867145">
        <ele>624</ele>
        <time>2019-06-23T07:46:49Z</time>
      </trkpt>
      <trkpt lat="42.832085033878684" lon="-2.412825962528586">
        <ele>623.79999999999995</ele>
        <time>2019-06-23T07:46:50Z</time>
      </trkpt>
      <trkpt lat="42.832113029435277" lon="-2.412576014176011">
        <ele>623.79999999999995</ele>
        <time>2019-06-23T07:46:52Z</time>
      </trkpt>
      <trkpt lat="42.83214102499187" lon="-2.412320030853152">
        <ele>623.20000000000005</ele>
        <time>2019-06-23T07:46:54Z</time>
      </trkpt>
      <trkpt lat="42.832154016941786" lon="-2.412192039191723">
        <ele>623</ele>
        <time>2019-06-23T07:46:55Z</time>
      </trkpt>
      <trkpt lat="42.832169020548463" lon="-2.412062035873532">
        <ele>623</ele>
        <time>2019-06-23T07:46:56Z</time>
      </trkpt>
      <trkpt lat="42.832196010276675" lon="-2.411799011752009">
        <ele>622.39999999999998</ele>
        <time>2019-06-23T07:46:58Z</time>
      </trkpt>
      <trkpt lat="42.832204978913069" lon="-2.411663979291916">
        <ele>622.20000000000005</ele>
        <time>2019-06-23T07:46:59Z</time>
      </trkpt>
      <trkpt lat="42.832212019711733" lon="-2.411526013165712">
        <ele>622</ele>
        <time>2019-06-23T07:47:00Z</time>
      </trkpt>
      <trkpt lat="42.832216965034604" lon="-2.411384023725987">
        <ele>621.79999999999995</ele>
        <time>2019-06-23T07:47:01Z</time>
      </trkpt>
      <trkpt lat="42.832218976691365" lon="-2.411235999315977">
        <ele>621.60000000000002</ele>
        <time>2019-06-23T07:47:02Z</time>
      </trkpt>
      <trkpt lat="42.832220988348126" lon="-2.411083029583097">
        <ele>621.20000000000005</ele>
        <time>2019-06-23T07:47:03Z</time>
      </trkpt>
      <trkpt lat="42.832224005833268" lon="-2.410924024879932">
        <ele>620.79999999999995</ele>
        <time>2019-06-23T07:47:04Z</time>
      </trkpt>
      <trkpt lat="42.83222702331841" lon="-2.410764014348388">
        <ele>620.39999999999998</ele>
        <time>2019-06-23T07:47:05Z</time>
      </trkpt>
      <trkpt lat="42.832229034975171" lon="-2.410601992160082">
        <ele>620</ele>
        <time>2019-06-23T07:47:06Z</time>
      </trkpt>
      <trkpt lat="42.832230962812901" lon="-2.410439969971776">
        <ele>619.79999999999995</ele>
        <time>2019-06-23T07:47:07Z</time>
      </trkpt>
      <trkpt lat="42.832232974469662" lon="-2.410277025774121">
        <ele>619.60000000000002</ele>
        <time>2019-06-23T07:47:08Z</time>
      </trkpt>
      <trkpt lat="42.832245966419578" lon="-2.410115003585815">
        <ele>618.79999999999995</ele>
        <time>2019-06-23T07:47:09Z</time>
      </trkpt>
      <trkpt lat="42.832283014431596" lon="-2.409958010539413">
        <ele>617.79999999999995</ele>
        <time>2019-06-23T07:47:10Z</time>
      </trkpt>
      <trkpt lat="42.832345962524414" lon="-2.409818032756448">
        <ele>617</ele>
        <time>2019-06-23T07:47:11Z</time>
      </trkpt>
      <trkpt lat="42.832430033013225" lon="-2.409700015559793">
        <ele>616</ele>
        <time>2019-06-23T07:47:12Z</time>
      </trkpt>
      <trkpt lat="42.832521982491016" lon="-2.409599013626576">
        <ele>615</ele>
        <time>2019-06-23T07:47:13Z</time>
      </trkpt>
      <trkpt lat="42.832617033272982" lon="-2.409504968672991">
        <ele>612.60000000000002</ele>
        <time>2019-06-23T07:47:14Z</time>
      </trkpt>
      <trkpt lat="42.832805039361119" lon="-2.409322997555137">
        <ele>611.39999999999998</ele>
        <time>2019-06-23T07:47:16Z</time>
      </trkpt>
      <trkpt lat="42.832982987165451" lon="-2.409134991466999">
        <ele>610.79999999999995</ele>
        <time>2019-06-23T07:47:18Z</time>
      </trkpt>
      <trkpt lat="42.833154983818531" lon="-2.408937010914087">
        <ele>609.20000000000005</ele>
        <time>2019-06-23T07:47:20Z</time>
      </trkpt>
      <trkpt lat="42.833319017663598" lon="-2.408727966248989">
        <ele>608.39999999999998</ele>
        <time>2019-06-23T07:47:22Z</time>
      </trkpt>
      <trkpt lat="42.833468969911337" lon="-2.408504001796246">
        <ele>608</ele>
        <time>2019-06-23T07:47:24Z</time>
      </trkpt>
      <trkpt lat="42.833610037341714" lon="-2.408261010423303">
        <ele>607.60000000000002</ele>
        <time>2019-06-23T07:47:26Z</time>
      </trkpt>
      <trkpt lat="42.833680026233196" lon="-2.408134024590254">
        <ele>607.20000000000005</ele>
        <time>2019-06-23T07:47:27Z</time>
      </trkpt>
      <trkpt lat="42.833750015124679" lon="-2.408004021272063">
        <ele>606.39999999999998</ele>
        <time>2019-06-23T07:47:28Z</time>
      </trkpt>
      <trkpt lat="42.833820004016161" lon="-2.407872006297112">
        <ele>605.79999999999995</ele>
        <time>2019-06-23T07:47:29Z</time>
      </trkpt>
      <trkpt lat="42.833888987079263" lon="-2.407737979665399">
        <ele>605.39999999999998</ele>
        <time>2019-06-23T07:47:30Z</time>
      </trkpt>
      <trkpt lat="42.834027959033847" lon="-2.407469004392624">
        <ele>604.60000000000002</ele>
        <time>2019-06-23T07:47:32Z</time>
      </trkpt>
      <trkpt lat="42.834098031744361" lon="-2.407335983589292">
        <ele>604</ele>
        <time>2019-06-23T07:47:33Z</time>
      </trkpt>
      <trkpt lat="42.834167014807463" lon="-2.40720396861434">
        <ele>603.60000000000002</ele>
        <time>2019-06-23T07:47:34Z</time>
      </trkpt>
      <trkpt lat="42.834237003698945" lon="-2.407071031630039">
        <ele>603</ele>
        <time>2019-06-23T07:47:35Z</time>
      </trkpt>
      <trkpt lat="42.834304980933666" lon="-2.406938010826707">
        <ele>602.39999999999998</ele>
        <time>2019-06-23T07:47:36Z</time>
      </trkpt>
      <trkpt lat="42.83444101922214" lon="-2.406673980876803">
        <ele>600.39999999999998</ele>
        <time>2019-06-23T07:47:38Z</time>
      </trkpt>
      <trkpt lat="42.834575967863202" lon="-2.406416991725564">
        <ele>599.39999999999998</ele>
        <time>2019-06-23T07:47:40Z</time>
      </trkpt>
      <trkpt lat="42.834708988666534" lon="-2.406166959553957">
        <ele>598.39999999999998</ele>
        <time>2019-06-23T07:47:42Z</time>
      </trkpt>
      <trkpt lat="42.834773026406765" lon="-2.406045002862811">
        <ele>597.79999999999995</ele>
        <time>2019-06-23T07:47:43Z</time>
      </trkpt>
      <trkpt lat="42.834834968671203" lon="-2.405924974009395">
        <ele>597.60000000000002</ele>
        <time>2019-06-23T07:47:44Z</time>
      </trkpt>
      <trkpt lat="42.83495700918138" lon="-2.405693968757987">
        <ele>596.79999999999995</ele>
        <time>2019-06-23T07:47:46Z</time>
      </trkpt>
      <trkpt lat="42.835082989186049" lon="-2.405482996255159">
        <ele>596.39999999999998</ele>
        <time>2019-06-23T07:47:48Z</time>
      </trkpt>
      <trkpt lat="42.83514903858304" lon="-2.405388029292226">
        <ele>596</ele>
        <time>2019-06-23T07:47:49Z</time>
      </trkpt>
      <trkpt lat="42.835215004161" lon="-2.405295995995402">
        <ele>596.20000000000005</ele>
        <time>2019-06-23T07:47:50Z</time>
      </trkpt>
      <trkpt lat="42.835345007479191" lon="-2.405120981857181">
        <ele>596</ele>
        <time>2019-06-23T07:47:52Z</time>
      </trkpt>
      <trkpt lat="42.835467969998717" lon="-2.404946973547339">
        <ele>595.79999999999995</ele>
        <time>2019-06-23T07:47:54Z</time>
      </trkpt>
      <trkpt lat="42.835528990253806" lon="-2.404862986877561">
        <ele>595.79999999999995</ele>
        <time>2019-06-23T07:47:55Z</time>
      </trkpt>
      <trkpt lat="42.835593027994037" lon="-2.404783023521304">
        <ele>595.79999999999995</ele>
        <time>2019-06-23T07:47:56Z</time>
      </trkpt>
      <trkpt lat="42.835654970258474" lon="-2.404703982174397">
        <ele>595.60000000000002</ele>
        <time>2019-06-23T07:47:57Z</time>
      </trkpt>
      <trkpt lat="42.835715990513563" lon="-2.404627036303282">
        <ele>595.60000000000002</ele>
        <time>2019-06-23T07:47:58Z</time>
      </trkpt>
      <trkpt lat="42.835831996053457" lon="-2.404472976922989">
        <ele>595.79999999999995</ele>
        <time>2019-06-23T07:48:00Z</time>
      </trkpt>
      <trkpt lat="42.83594598993659" lon="-2.40432201884687">
        <ele>595.79999999999995</ele>
        <time>2019-06-23T07:48:02Z</time>
      </trkpt>
      <trkpt lat="42.836060989648104" lon="-2.40417298860848">
        <ele>596</ele>
        <time>2019-06-23T07:48:04Z</time>
      </trkpt>
      <trkpt lat="42.836118992418051" lon="-2.404098976403475">
        <ele>596</ele>
        <time>2019-06-23T07:48:05Z</time>
      </trkpt>
      <trkpt lat="42.836176995187998" lon="-2.40402496419847">
        <ele>596</ele>
        <time>2019-06-23T07:48:06Z</time>
      </trkpt>
      <trkpt lat="42.836291994899511" lon="-2.403874006122351">
        <ele>596.20000000000005</ele>
        <time>2019-06-23T07:48:08Z</time>
      </trkpt>
      <trkpt lat="42.836409006267786" lon="-2.403725981712341">
        <ele>596</ele>
        <time>2019-06-23T07:48:10Z</time>
      </trkpt>
      <trkpt lat="42.836529035121202" lon="-2.403575023636222">
        <ele>596</ele>
        <time>2019-06-23T07:48:12Z</time>
      </trkpt>
      <trkpt lat="42.836645962670445" lon="-2.4034190364182">
        <ele>596</ele>
        <time>2019-06-23T07:48:14Z</time>
      </trkpt>
      <trkpt lat="42.836704971268773" lon="-2.403341000899673">
        <ele>596</ele>
        <time>2019-06-23T07:48:15Z</time>
      </trkpt>
      <trkpt lat="42.836764985695481" lon="-2.403263971209526">
        <ele>596</ele>
        <time>2019-06-23T07:48:16Z</time>
      </trkpt>
      <trkpt lat="42.836885014548898" lon="-2.403112007305026">
        <ele>596</ele>
        <time>2019-06-23T07:48:18Z</time>
      </trkpt>
      <trkpt lat="42.837004037573934" lon="-2.402957025915384">
        <ele>595.39999999999998</ele>
        <time>2019-06-23T07:48:20Z</time>
      </trkpt>
      <trkpt lat="42.837122976779938" lon="-2.402801038697362">
        <ele>595.20000000000005</ele>
        <time>2019-06-23T07:48:22Z</time>
      </trkpt>
      <trkpt lat="42.837243005633354" lon="-2.402643961831927">
        <ele>594.79999999999995</ele>
        <time>2019-06-23T07:48:24Z</time>
      </trkpt>
      <trkpt lat="42.837364040315151" lon="-2.402485040947795">
        <ele>594.79999999999995</ele>
        <time>2019-06-23T07:48:26Z</time>
      </trkpt>
      <trkpt lat="42.837487002834678" lon="-2.40232796408236">
        <ele>594.39999999999998</ele>
        <time>2019-06-23T07:48:28Z</time>
      </trkpt>
      <trkpt lat="42.837610971182585" lon="-2.402167031541467">
        <ele>594.39999999999998</ele>
        <time>2019-06-23T07:48:30Z</time>
      </trkpt>
      <trkpt lat="42.837735023349524" lon="-2.402007021009922">
        <ele>594.20000000000005</ele>
        <time>2019-06-23T07:48:32Z</time>
      </trkpt>
      <trkpt lat="42.837858991697431" lon="-2.401847010478377">
        <ele>594.20000000000005</ele>
        <time>2019-06-23T07:48:34Z</time>
      </trkpt>
      <trkpt lat="42.837982038035989" lon="-2.401683982461691">
        <ele>594</ele>
        <time>2019-06-23T07:48:36Z</time>
      </trkpt>
      <trkpt lat="42.838103994727135" lon="-2.401521960273385">
        <ele>594</ele>
        <time>2019-06-23T07:48:38Z</time>
      </trkpt>
      <trkpt lat="42.838227963075042" lon="-2.40135901607573">
        <ele>593.60000000000002</ele>
        <time>2019-06-23T07:48:40Z</time>
      </trkpt>
      <trkpt lat="42.8383510094136" lon="-2.401194982230663">
        <ele>593.60000000000002</ele>
        <time>2019-06-23T07:48:42Z</time>
      </trkpt>
      <trkpt lat="42.838474977761507" lon="-2.401029020547867">
        <ele>593.39999999999998</ele>
        <time>2019-06-23T07:48:44Z</time>
      </trkpt>
      <trkpt lat="42.838601041585207" lon="-2.400862975046039">
        <ele>593.20000000000005</ele>
        <time>2019-06-23T07:48:46Z</time>
      </trkpt>
      <trkpt lat="42.838729033246636" lon="-2.400697013363242">
        <ele>593</ele>
        <time>2019-06-23T07:48:48Z</time>
      </trkpt>
      <trkpt lat="42.838857024908066" lon="-2.40052199922502">
        <ele>592.79999999999995</ele>
        <time>2019-06-23T07:48:50Z</time>
      </trkpt>
      <trkpt lat="42.838972024619579" lon="-2.400330975651741">
        <ele>592.79999999999995</ele>
        <time>2019-06-23T07:48:52Z</time>
      </trkpt>
      <trkpt lat="42.839080989360809" lon="-2.400132995098829">
        <ele>592.39999999999998</ele>
        <time>2019-06-23T07:48:54Z</time>
      </trkpt>
      <trkpt lat="42.83918802626431" lon="-2.399937026202679">
        <ele>592.20000000000005</ele>
        <time>2019-06-23T07:48:56Z</time>
      </trkpt>
      <trkpt lat="42.839294979348779" lon="-2.399743990972638">
        <ele>591.79999999999995</ele>
        <time>2019-06-23T07:48:58Z</time>
      </trkpt>
      <trkpt lat="42.839396987110376" lon="-2.399548022076488">
        <ele>591.39999999999998</ele>
        <time>2019-06-23T07:49:00Z</time>
      </trkpt>
      <trkpt lat="42.839501006528735" lon="-2.399350041523576">
        <ele>591.39999999999998</ele>
        <time>2019-06-23T07:49:02Z</time>
      </trkpt>
      <trkpt lat="42.839606031775475" lon="-2.399153988808394">
        <ele>591.20000000000005</ele>
        <time>2019-06-23T07:49:04Z</time>
      </trkpt>
      <trkpt lat="42.839657999575138" lon="-2.399056004360318">
        <ele>591.20000000000005</ele>
        <time>2019-06-23T07:49:05Z</time>
      </trkpt>
      <trkpt lat="42.839710973203182" lon="-2.398958019912243">
        <ele>591.20000000000005</ele>
        <time>2019-06-23T07:49:06Z</time>
      </trkpt>
      <trkpt lat="42.83981298096478" lon="-2.39875802770257">
        <ele>591</ele>
        <time>2019-06-23T07:49:08Z</time>
      </trkpt>
      <trkpt lat="42.839918006211519" lon="-2.398558035492897">
        <ele>591</ele>
        <time>2019-06-23T07:49:10Z</time>
      </trkpt>
      <trkpt lat="42.840022025629878" lon="-2.398361982777715">
        <ele>590.79999999999995</ele>
        <time>2019-06-23T07:49:12Z</time>
      </trkpt>
      <trkpt lat="42.840124033391476" lon="-2.398164002224803">
        <ele>590.39999999999998</ele>
        <time>2019-06-23T07:49:14Z</time>
      </trkpt>
      <trkpt lat="42.840227968990803" lon="-2.397969961166382">
        <ele>590.20000000000005</ele>
        <time>2019-06-23T07:49:16Z</time>
      </trkpt>
      <trkpt lat="42.840330982580781" lon="-2.397776003926992">
        <ele>590.20000000000005</ele>
        <time>2019-06-23T07:49:18Z</time>
      </trkpt>
      <trkpt lat="42.840432990342379" lon="-2.397581962868571">
        <ele>590</ele>
        <time>2019-06-23T07:49:20Z</time>
      </trkpt>
      <trkpt lat="42.840532986447215" lon="-2.39738498814404">
        <ele>590</ele>
        <time>2019-06-23T07:49:22Z</time>
      </trkpt>
      <trkpt lat="42.84062803722918" lon="-2.397181978449225">
        <ele>589.79999999999995</ele>
        <time>2019-06-23T07:49:24Z</time>
      </trkpt>
      <trkpt lat="42.84067103639245" lon="-2.397077959030867">
        <ele>589.79999999999995</ele>
        <time>2019-06-23T07:49:25Z</time>
      </trkpt>
      <trkpt lat="42.84071302972734" lon="-2.396971005946398">
        <ele>589.60000000000002</ele>
        <time>2019-06-23T07:49:26Z</time>
      </trkpt>
      <trkpt lat="42.840784024447203" lon="-2.396748969331384">
        <ele>589.39999999999998</ele>
        <time>2019-06-23T07:49:28Z</time>
      </trkpt>
      <trkpt lat="42.840835992246866" lon="-2.396517964079976">
        <ele>589.20000000000005</ele>
        <time>2019-06-23T07:49:30Z</time>
      </trkpt>
      <trkpt lat="42.840873962268233" lon="-2.396284025162458">
        <ele>588.60000000000002</ele>
        <time>2019-06-23T07:49:32Z</time>
      </trkpt>
      <trkpt lat="42.840902963653207" lon="-2.396048996597529">
        <ele>588.20000000000005</ele>
        <time>2019-06-23T07:49:34Z</time>
      </trkpt>
      <trkpt lat="42.840924002230167" lon="-2.395817991346121">
        <ele>587.79999999999995</ele>
        <time>2019-06-23T07:49:36Z</time>
      </trkpt>
      <trkpt lat="42.840943029150367" lon="-2.395594026893377">
        <ele>587.39999999999998</ele>
        <time>2019-06-23T07:49:38Z</time>
      </trkpt>
      <trkpt lat="42.840959960594773" lon="-2.395378025248647">
        <ele>587.20000000000005</ele>
        <time>2019-06-23T07:49:40Z</time>
      </trkpt>
      <trkpt lat="42.840976975858212" lon="-2.395175015553832">
        <ele>587.20000000000005</ele>
        <time>2019-06-23T07:49:42Z</time>
      </trkpt>
      <trkpt lat="42.840986028313637" lon="-2.395079964771867">
        <ele>587.39999999999998</ele>
        <time>2019-06-23T07:49:43Z</time>
      </trkpt>
      <trkpt lat="42.84099499695003" lon="-2.394989021122456">
        <ele>587.20000000000005</ele>
        <time>2019-06-23T07:49:44Z</time>
      </trkpt>
      <trkpt lat="42.841012012213469" lon="-2.394819958135486">
        <ele>587.20000000000005</ele>
        <time>2019-06-23T07:49:46Z</time>
      </trkpt>
      <trkpt lat="42.841028021648526" lon="-2.394664976745844">
        <ele>587.60000000000002</ele>
        <time>2019-06-23T07:49:48Z</time>
      </trkpt>
      <trkpt lat="42.84103699028492" lon="-2.394590964540839">
        <ele>587.60000000000002</ele>
        <time>2019-06-23T07:49:49Z</time>
      </trkpt>
      <trkpt lat="42.841045958921313" lon="-2.394517958164215">
        <ele>587.79999999999995</ele>
        <time>2019-06-23T07:49:50Z</time>
      </trkpt>
      <trkpt lat="42.841054005548358" lon="-2.394445035606623">
        <ele>588</ele>
        <time>2019-06-23T07:49:51Z</time>
      </trkpt>
      <trkpt lat="42.84106096252799" lon="-2.394373035058379">
        <ele>588.60000000000002</ele>
        <time>2019-06-23T07:49:52Z</time>
      </trkpt>
      <trkpt lat="42.84107998944819" lon="-2.394228028133512">
        <ele>589.20000000000005</ele>
        <time>2019-06-23T07:49:54Z</time>
      </trkpt>
      <trkpt lat="42.84110002219677" lon="-2.394084027037025">
        <ele>590</ele>
        <time>2019-06-23T07:49:56Z</time>
      </trkpt>
      <trkpt lat="42.841118965297937" lon="-2.393934996798635">
        <ele>590.60000000000002</ele>
        <time>2019-06-23T07:49:58Z</time>
      </trkpt>
      <trkpt lat="42.841145033016801" lon="-2.393780015408993">
        <ele>591.60000000000002</ele>
        <time>2019-06-23T07:50:00Z</time>
      </trkpt>
      <trkpt lat="42.84116598777473" lon="-2.39362402819097">
        <ele>592.20000000000005</ele>
        <time>2019-06-23T07:50:02Z</time>
      </trkpt>
      <trkpt lat="42.841190965846181" lon="-2.393470974639058">
        <ele>592.39999999999998</ele>
        <time>2019-06-23T07:50:04Z</time>
      </trkpt>
      <trkpt lat="42.841203035786748" lon="-2.393393022939563">
        <ele>592.39999999999998</ele>
        <time>2019-06-23T07:50:05Z</time>
      </trkpt>
      <trkpt lat="42.841215021908283" lon="-2.393315993249416">
        <ele>592.79999999999995</ele>
        <time>2019-06-23T07:50:06Z</time>
      </trkpt>
      <trkpt lat="42.841239999979734" lon="-2.393156988546252">
        <ele>593</ele>
        <time>2019-06-23T07:50:08Z</time>
      </trkpt>
      <trkpt lat="42.841266989707947" lon="-2.392991026863456">
        <ele>593.60000000000002</ele>
        <time>2019-06-23T07:50:10Z</time>
      </trkpt>
      <trkpt lat="42.841296996921301" lon="-2.392819030210376">
        <ele>593.79999999999995</ele>
        <time>2019-06-23T07:50:12Z</time>
      </trkpt>
      <trkpt lat="42.841313006356359" lon="-2.392730014398694">
        <ele>593.60000000000002</ele>
        <time>2019-06-23T07:50:13Z</time>
      </trkpt>
      <trkpt lat="42.841330021619797" lon="-2.392639992758632">
        <ele>593.79999999999995</ele>
        <time>2019-06-23T07:50:14Z</time>
      </trkpt>
      <trkpt lat="42.841365979984403" lon="-2.392452992498875">
        <ele>593.79999999999995</ele>
        <time>2019-06-23T07:50:16Z</time>
      </trkpt>
      <trkpt lat="42.841406967490911" lon="-2.392259035259485">
        <ele>593.60000000000002</ele>
        <time>2019-06-23T07:50:18Z</time>
      </trkpt>
      <trkpt lat="42.841449966654181" lon="-2.392058037221432">
        <ele>593.39999999999998</ele>
        <time>2019-06-23T07:50:20Z</time>
      </trkpt>
      <trkpt lat="42.841494977474213" lon="-2.391852010041475">
        <ele>593.39999999999998</ele>
        <time>2019-06-23T07:50:22Z</time>
      </trkpt>
      <trkpt lat="42.841539988294244" lon="-2.391639025881887">
        <ele>593</ele>
        <time>2019-06-23T07:50:24Z</time>
      </trkpt>
      <trkpt lat="42.841587010771036" lon="-2.391422018408775">
        <ele>592.79999999999995</ele>
        <time>2019-06-23T07:50:26Z</time>
      </trkpt>
      <trkpt lat="42.8416389785707" lon="-2.391201993450522">
        <ele>592.60000000000002</ele>
        <time>2019-06-23T07:50:28Z</time>
      </trkpt>
      <trkpt lat="42.841691030189395" lon="-2.39097903482616">
        <ele>591.79999999999995</ele>
        <time>2019-06-23T07:50:30Z</time>
      </trkpt>
      <trkpt lat="42.841718019917607" lon="-2.390866968780756">
        <ele>591.60000000000002</ele>
        <time>2019-06-23T07:50:31Z</time>
      </trkpt>
      <trkpt lat="42.841744003817439" lon="-2.390754986554384">
        <ele>591.60000000000002</ele>
        <time>2019-06-23T07:50:32Z</time>
      </trkpt>
      <trkpt lat="42.841798989102244" lon="-2.390533033758402">
        <ele>591</ele>
        <time>2019-06-23T07:50:34Z</time>
      </trkpt>
      <trkpt lat="42.841851962730289" lon="-2.390317032113671">
        <ele>590.79999999999995</ele>
        <time>2019-06-23T07:50:36Z</time>
      </trkpt>
      <trkpt lat="42.841903008520603" lon="-2.390104969963431">
        <ele>590.39999999999998</ele>
        <time>2019-06-23T07:50:38Z</time>
      </trkpt>
      <trkpt lat="42.841953970491886" lon="-2.389895003288984">
        <ele>590.20000000000005</ele>
        <time>2019-06-23T07:50:40Z</time>
      </trkpt>
      <trkpt lat="42.842007027938962" lon="-2.389687970280647">
        <ele>589.79999999999995</ele>
        <time>2019-06-23T07:50:42Z</time>
      </trkpt>
      <trkpt lat="42.842060001567006" lon="-2.389484038576484">
        <ele>589.60000000000002</ele>
        <time>2019-06-23T07:50:44Z</time>
      </trkpt>
      <trkpt lat="42.842087997123599" lon="-2.389383036643267">
        <ele>589.39999999999998</ele>
        <time>2019-06-23T07:50:45Z</time>
      </trkpt>
      <trkpt lat="42.842115992680192" lon="-2.38928304053843">
        <ele>589.39999999999998</ele>
        <time>2019-06-23T07:50:46Z</time>
      </trkpt>
      <trkpt lat="42.842169972136617" lon="-2.389082964509726">
        <ele>589.39999999999998</ele>
        <time>2019-06-23T07:50:48Z</time>
      </trkpt>
      <trkpt lat="42.842225041240454" lon="-2.388883978128433">
        <ele>589.39999999999998</ele>
        <time>2019-06-23T07:50:50Z</time>
      </trkpt>
      <trkpt lat="42.842280026525259" lon="-2.388685997575522">
        <ele>589.60000000000002</ele>
        <time>2019-06-23T07:50:52Z</time>
      </trkpt>
      <trkpt lat="42.842307016253471" lon="-2.388588013127446">
        <ele>589.60000000000002</ele>
        <time>2019-06-23T07:50:53Z</time>
      </trkpt>
      <trkpt lat="42.842335011810064" lon="-2.388490028679371">
        <ele>589.79999999999995</ele>
        <time>2019-06-23T07:50:54Z</time>
      </trkpt>
      <trkpt lat="42.84239100292325" lon="-2.38829598762095">
        <ele>589.79999999999995</ele>
        <time>2019-06-23T07:50:56Z</time>
      </trkpt>
      <trkpt lat="42.842446994036436" lon="-2.38810395821929">
        <ele>589.79999999999995</ele>
        <time>2019-06-23T07:50:58Z</time>
      </trkpt>
      <trkpt lat="42.842502985149622" lon="-2.387914024293423">
        <ele>590</ele>
        <time>2019-06-23T07:51:00Z</time>
      </trkpt>
      <trkpt lat="42.842560987919569" lon="-2.387725012376905">
        <ele>590.60000000000002</ele>
        <time>2019-06-23T07:51:02Z</time>
      </trkpt>
      <trkpt lat="42.842618990689516" lon="-2.387534994632006">
        <ele>590.79999999999995</ele>
        <time>2019-06-23T07:51:04Z</time>
      </trkpt>
      <trkpt lat="42.84264799207449" lon="-2.387442039325833">
        <ele>591</ele>
        <time>2019-06-23T07:51:05Z</time>
      </trkpt>
      <trkpt lat="42.842676993459463" lon="-2.387347994372249">
        <ele>591.20000000000005</ele>
        <time>2019-06-23T07:51:06Z</time>
      </trkpt>
      <trkpt lat="42.842736002057791" lon="-2.387161999940872">
        <ele>591.39999999999998</ele>
        <time>2019-06-23T07:51:08Z</time>
      </trkpt>
      <trkpt lat="42.842765003442764" lon="-2.387069966644049">
        <ele>591.20000000000005</ele>
        <time>2019-06-23T07:51:09Z</time>
      </trkpt>
      <trkpt lat="42.842796016484499" lon="-2.386979022994638">
        <ele>591.39999999999998</ele>
        <time>2019-06-23T07:51:10Z</time>
      </trkpt>
      <trkpt lat="42.842826023697853" lon="-2.386887995526195">
        <ele>591.39999999999998</ele>
        <time>2019-06-23T07:51:11Z</time>
      </trkpt>
      <trkpt lat="42.842857036739588" lon="-2.386795962229371">
        <ele>591.39999999999998</ele>
        <time>2019-06-23T07:51:12Z</time>
      </trkpt>
      <trkpt lat="42.842917973175645" lon="-2.386614996939898">
        <ele>591.39999999999998</ele>
        <time>2019-06-23T07:51:14Z</time>
      </trkpt>
      <trkpt lat="42.842979999259114" lon="-2.386434031650424">
        <ele>591.39999999999998</ele>
        <time>2019-06-23T07:51:16Z</time>
      </trkpt>
      <trkpt lat="42.84301201812923" lon="-2.386344010010362">
        <ele>591.39999999999998</ele>
        <time>2019-06-23T07:51:17Z</time>
      </trkpt>
      <trkpt lat="42.843043031170964" lon="-2.386253988370299">
        <ele>591.60000000000002</ele>
        <time>2019-06-23T07:51:18Z</time>
      </trkpt>
      <trkpt lat="42.843073960393667" lon="-2.386164972558618">
        <ele>591.39999999999998</ele>
        <time>2019-06-23T07:51:19Z</time>
      </trkpt>
      <trkpt lat="42.843105979263783" lon="-2.386075034737587">
        <ele>591.60000000000002</ele>
        <time>2019-06-23T07:51:20Z</time>
      </trkpt>
      <trkpt lat="42.843172028660774" lon="-2.385894991457462">
        <ele>592</ele>
        <time>2019-06-23T07:51:22Z</time>
      </trkpt>
      <trkpt lat="42.843239000067115" lon="-2.385715031996369">
        <ele>592.20000000000005</ele>
        <time>2019-06-23T07:51:24Z</time>
      </trkpt>
      <trkpt lat="42.843305971473455" lon="-2.385534988716245">
        <ele>592</ele>
        <time>2019-06-23T07:51:26Z</time>
      </trkpt>
      <trkpt lat="42.843373026698828" lon="-2.385356035083532">
        <ele>592.20000000000005</ele>
        <time>2019-06-23T07:51:28Z</time>
      </trkpt>
      <trkpt lat="42.843406973406672" lon="-2.385267019271851">
        <ele>592</ele>
        <time>2019-06-23T07:51:29Z</time>
      </trkpt>
      <trkpt lat="42.843441003933549" lon="-2.385178003460169">
        <ele>592.20000000000005</ele>
        <time>2019-06-23T07:51:30Z</time>
      </trkpt>
      <trkpt lat="42.843476040288806" lon="-2.385088987648487">
        <ele>592</ele>
        <time>2019-06-23T07:51:31Z</time>
      </trkpt>
      <trkpt lat="42.843511998653412" lon="-2.384998966008425">
        <ele>592</ele>
        <time>2019-06-23T07:51:32Z</time>
      </trkpt>
      <trkpt lat="42.843583999201655" lon="-2.384818000718951">
        <ele>592.20000000000005</ele>
        <time>2019-06-23T07:51:34Z</time>
      </trkpt>
      <trkpt lat="42.843657005578279" lon="-2.384637035429478">
        <ele>592.20000000000005</ele>
        <time>2019-06-23T07:51:36Z</time>
      </trkpt>
      <trkpt lat="42.843692963942885" lon="-2.384546007961035">
        <ele>592</ele>
        <time>2019-06-23T07:51:37Z</time>
      </trkpt>
      <trkpt lat="42.843729006126523" lon="-2.384454980492592">
        <ele>592</ele>
        <time>2019-06-23T07:51:38Z</time>
      </trkpt>
      <trkpt lat="42.843764964491129" lon="-2.38436495885253">
        <ele>592</ele>
        <time>2019-06-23T07:51:39Z</time>
      </trkpt>
      <trkpt lat="42.843803018331528" lon="-2.384275021031499">
        <ele>592</ele>
        <time>2019-06-23T07:51:40Z</time>
      </trkpt>
      <trkpt lat="42.843878958374262" lon="-2.384093971922994">
        <ele>591.79999999999995</ele>
        <time>2019-06-23T07:51:42Z</time>
      </trkpt>
      <trkpt lat="42.843918018043041" lon="-2.384002022445202">
        <ele>591.79999999999995</ele>
        <time>2019-06-23T07:51:43Z</time>
      </trkpt>
      <trkpt lat="42.843955988064408" lon="-2.383909989148378">
        <ele>591.79999999999995</ele>
        <time>2019-06-23T07:51:44Z</time>
      </trkpt>
      <trkpt lat="42.844033017754555" lon="-2.383727012202144">
        <ele>591.60000000000002</ele>
        <time>2019-06-23T07:51:46Z</time>
      </trkpt>
      <trkpt lat="42.844070987775922" lon="-2.38363497890532">
        <ele>591.39999999999998</ele>
        <time>2019-06-23T07:51:47Z</time>
      </trkpt>
      <trkpt lat="42.84410803578794" lon="-2.383543029427528">
        <ele>591.60000000000002</ele>
        <time>2019-06-23T07:51:48Z</time>
      </trkpt>
      <trkpt lat="42.844180958345532" lon="-2.383359968662262">
        <ele>591.60000000000002</ele>
        <time>2019-06-23T07:51:50Z</time>
      </trkpt>
      <trkpt lat="42.844219012185931" lon="-2.383269025012851">
        <ele>591.39999999999998</ele>
        <time>2019-06-23T07:51:51Z</time>
      </trkpt>
      <trkpt lat="42.844255976378918" lon="-2.383179003372788">
        <ele>591.20000000000005</ele>
        <time>2019-06-23T07:51:52Z</time>
      </trkpt>
      <trkpt lat="42.844328982755542" lon="-2.382998960092664">
        <ele>591</ele>
        <time>2019-06-23T07:51:54Z</time>
      </trkpt>
      <trkpt lat="42.844401989132166" lon="-2.382822018116713">
        <ele>590.79999999999995</ele>
        <time>2019-06-23T07:51:56Z</time>
      </trkpt>
      <trkpt lat="42.84447499550879" lon="-2.38264599815011">
        <ele>590.79999999999995</ele>
        <time>2019-06-23T07:51:58Z</time>
      </trkpt>
      <trkpt lat="42.844545990228653" lon="-2.382470984011889">
        <ele>590.60000000000002</ele>
        <time>2019-06-23T07:52:00Z</time>
      </trkpt>
      <trkpt lat="42.844616984948516" lon="-2.382298987358809">
        <ele>590.79999999999995</ele>
        <time>2019-06-23T07:52:02Z</time>
      </trkpt>
      <trkpt lat="42.844687979668379" lon="-2.38212900236249">
        <ele>590.79999999999995</ele>
        <time>2019-06-23T07:52:04Z</time>
      </trkpt>
      <trkpt lat="42.844756962731481" lon="-2.381963962689042">
        <ele>590.79999999999995</ele>
        <time>2019-06-23T07:52:06Z</time>
      </trkpt>
      <trkpt lat="42.844825023785233" lon="-2.38180504180491">
        <ele>591</ele>
        <time>2019-06-23T07:52:08Z</time>
      </trkpt>
      <trkpt lat="42.844889983534813" lon="-2.381653999909759">
        <ele>591</ele>
        <time>2019-06-23T07:52:10Z</time>
      </trkpt>
      <trkpt lat="42.844914039596915" lon="-2.381589962169528">
        <ele>591.20000000000005</ele>
        <time>2019-06-23T07:52:11Z</time>
      </trkpt>
      <trkpt lat="42.844929965212941" lon="-2.381543023511767">
        <ele>591.20000000000005</ele>
        <time>2019-06-23T07:52:12Z</time>
      </trkpt>
      <trkpt lat="42.844940023496747" lon="-2.381511004641652">
        <ele>591.20000000000005</ele>
        <time>2019-06-23T07:52:13Z</time>
      </trkpt>
      <trkpt lat="42.844945974647999" lon="-2.381497006863356">
        <ele>591.39999999999998</ele>
        <time>2019-06-23T07:52:14Z</time>
      </trkpt>
      <trkpt lat="42.844944968819618" lon="-2.381498012691736">
        <ele>591.79999999999995</ele>
        <time>2019-06-23T07:52:16Z</time>
      </trkpt>
      <trkpt lat="42.844961984083056" lon="-2.381461970508099">
        <ele>594</ele>
        <time>2019-06-23T07:52:43Z</time>
      </trkpt>
      <trkpt lat="42.84496801905334" lon="-2.381435986608267">
        <ele>593.79999999999995</ele>
        <time>2019-06-23T07:52:44Z</time>
      </trkpt>
      <trkpt lat="42.844987967982888" lon="-2.381354011595249">
        <ele>593.60000000000002</ele>
        <time>2019-06-23T07:52:46Z</time>
      </trkpt>
      <trkpt lat="42.844998026266694" lon="-2.381301037967205">
        <ele>593.79999999999995</ele>
        <time>2019-06-23T07:52:47Z</time>
      </trkpt>
      <trkpt lat="42.845005989074707" lon="-2.381242029368877">
        <ele>593.79999999999995</ele>
        <time>2019-06-23T07:52:48Z</time>
      </trkpt>
      <trkpt lat="42.845015963539481" lon="-2.381109008565545">
        <ele>593.79999999999995</ele>
        <time>2019-06-23T07:52:50Z</time>
      </trkpt>
      <trkpt lat="42.845014035701752" lon="-2.380972970277071">
        <ele>593.79999999999995</ele>
        <time>2019-06-23T07:52:52Z</time>
      </trkpt>
      <trkpt lat="42.845004983246326" lon="-2.38090599887073">
        <ele>593.79999999999995</ele>
        <time>2019-06-23T07:52:53Z</time>
      </trkpt>
      <trkpt lat="42.844994002953172" lon="-2.380838021636009">
        <ele>593.79999999999995</ele>
        <time>2019-06-23T07:52:54Z</time>
      </trkpt>
      <trkpt lat="42.844965001568198" lon="-2.380701983347535">
        <ele>593.60000000000002</ele>
        <time>2019-06-23T07:52:56Z</time>
      </trkpt>
      <trkpt lat="42.844932982698083" lon="-2.380567034706473">
        <ele>593.39999999999998</ele>
        <time>2019-06-23T07:52:58Z</time>
      </trkpt>
      <trkpt lat="42.844914039596915" lon="-2.380499979481101">
        <ele>593.20000000000005</ele>
        <time>2019-06-23T07:52:59Z</time>
      </trkpt>
      <trkpt lat="42.844898030161858" lon="-2.38043300807476">
        <ele>593.39999999999998</ele>
        <time>2019-06-23T07:53:00Z</time>
      </trkpt>
      <trkpt lat="42.844867017120123" lon="-2.380294958129525">
        <ele>593.39999999999998</ele>
        <time>2019-06-23T07:53:02Z</time>
      </trkpt>
      <trkpt lat="42.844840027391911" lon="-2.380154980346561">
        <ele>593.20000000000005</ele>
        <time>2019-06-23T07:53:04Z</time>
      </trkpt>
      <trkpt lat="42.844823012128472" lon="-2.380012990906835">
        <ele>593.20000000000005</ele>
        <time>2019-06-23T07:53:06Z</time>
      </trkpt>
      <trkpt lat="42.844816977158189" lon="-2.379869995638728">
        <ele>593.39999999999998</ele>
        <time>2019-06-23T07:53:08Z</time>
      </trkpt>
      <trkpt lat="42.844826029613614" lon="-2.379725994542241">
        <ele>593.79999999999995</ele>
        <time>2019-06-23T07:53:10Z</time>
      </trkpt>
      <trkpt lat="42.844848996028304" lon="-2.379582999274135">
        <ele>594</ele>
        <time>2019-06-23T07:53:12Z</time>
      </trkpt>
      <trkpt lat="42.844867017120123" lon="-2.379513010382652">
        <ele>594.20000000000005</ele>
        <time>2019-06-23T07:53:13Z</time>
      </trkpt>
      <trkpt lat="42.844886966049671" lon="-2.379445033147931">
        <ele>594.39999999999998</ele>
        <time>2019-06-23T07:53:14Z</time>
      </trkpt>
      <trkpt lat="42.844936000183225" lon="-2.379313018172979">
        <ele>594.60000000000002</ele>
        <time>2019-06-23T07:53:16Z</time>
      </trkpt>
      <trkpt lat="42.84499098546803" lon="-2.379186032339931">
        <ele>594.79999999999995</ele>
        <time>2019-06-23T07:53:18Z</time>
      </trkpt>
      <trkpt lat="42.845019986853004" lon="-2.379123000428081">
        <ele>594.79999999999995</ele>
        <time>2019-06-23T07:53:19Z</time>
      </trkpt>
      <trkpt lat="42.845048988237977" lon="-2.379059968516231">
        <ele>595</ele>
        <time>2019-06-23T07:53:20Z</time>
      </trkpt>
      <trkpt lat="42.845106991007924" lon="-2.378932982683182">
        <ele>595</ele>
        <time>2019-06-23T07:53:22Z</time>
      </trkpt>
      <trkpt lat="42.845164993777871" lon="-2.378808008506894">
        <ele>595.20000000000005</ele>
        <time>2019-06-23T07:53:24Z</time>
      </trkpt>
      <trkpt lat="42.845222996547818" lon="-2.378688985481858">
        <ele>595.20000000000005</ele>
        <time>2019-06-23T07:53:26Z</time>
      </trkpt>
      <trkpt lat="42.845257027074695" lon="-2.378639029338956">
        <ele>595.39999999999998</ele>
        <time>2019-06-23T07:53:27Z</time>
      </trkpt>
      <trkpt lat="42.845292985439301" lon="-2.37860600464046">
        <ele>595.20000000000005</ele>
        <time>2019-06-23T07:53:28Z</time>
      </trkpt>
      <trkpt lat="42.845323998481035" lon="-2.37858303822577">
        <ele>595.39999999999998</ele>
        <time>2019-06-23T07:53:30Z</time>
      </trkpt>
      <trkpt lat="42.845331039279699" lon="-2.378578009083867">
        <ele>595.39999999999998</ele>
        <time>2019-06-23T07:53:31Z</time>
      </trkpt>
      <trkpt lat="42.845347970724106" lon="-2.378574991598725">
        <ele>595.39999999999998</ele>
        <time>2019-06-23T07:53:32Z</time>
      </trkpt>
      <trkpt lat="42.845399016514421" lon="-2.378602987155318">
        <ele>595.60000000000002</ele>
        <time>2019-06-23T07:53:34Z</time>
      </trkpt>
      <trkpt lat="42.845427012071013" lon="-2.378640035167337">
        <ele>595.79999999999995</ele>
        <time>2019-06-23T07:53:35Z</time>
      </trkpt>
      <trkpt lat="42.845458025112748" lon="-2.378685967996717">
        <ele>596</ele>
        <time>2019-06-23T07:53:36Z</time>
      </trkpt>
      <trkpt lat="42.845518961548805" lon="-2.378799039870501">
        <ele>596</ele>
        <time>2019-06-23T07:53:38Z</time>
      </trkpt>
      <trkpt lat="42.845581993460655" lon="-2.378923008218408">
        <ele>596.20000000000005</ele>
        <time>2019-06-23T07:53:40Z</time>
      </trkpt>
      <trkpt lat="42.845646031200886" lon="-2.379050999879837">
        <ele>596.20000000000005</ele>
        <time>2019-06-23T07:53:42Z</time>
      </trkpt>
      <trkpt lat="42.845715014263988" lon="-2.379182009026408">
        <ele>596.20000000000005</ele>
        <time>2019-06-23T07:53:44Z</time>
      </trkpt>
      <trkpt lat="42.84578600898385" lon="-2.379316035658121">
        <ele>596.39999999999998</ele>
        <time>2019-06-23T07:53:46Z</time>
      </trkpt>
      <trkpt lat="42.845858009532094" lon="-2.379450984299183">
        <ele>596.39999999999998</ele>
        <time>2019-06-23T07:53:48Z</time>
      </trkpt>
      <trkpt lat="42.845929004251957" lon="-2.379586016759276">
        <ele>596.60000000000002</ele>
        <time>2019-06-23T07:53:50Z</time>
      </trkpt>
      <trkpt lat="42.8460010048002" lon="-2.379721971228719">
        <ele>596.79999999999995</ele>
        <time>2019-06-23T07:53:52Z</time>
      </trkpt>
      <trkpt lat="42.846077028661966" lon="-2.379854992032051">
        <ele>596.60000000000002</ele>
        <time>2019-06-23T07:53:54Z</time>
      </trkpt>
      <trkpt lat="42.846155986189842" lon="-2.379989018663764">
        <ele>596.79999999999995</ele>
        <time>2019-06-23T07:53:56Z</time>
      </trkpt>
      <trkpt lat="42.846196973696351" lon="-2.380055990070105">
        <ele>596.79999999999995</ele>
        <time>2019-06-23T07:53:57Z</time>
      </trkpt>
      <trkpt lat="42.84623896703124" lon="-2.380122039467096">
        <ele>596.79999999999995</ele>
        <time>2019-06-23T07:53:58Z</time>
      </trkpt>
      <trkpt lat="42.84632203169167" lon="-2.380254976451397">
        <ele>596.79999999999995</ele>
        <time>2019-06-23T07:54:00Z</time>
      </trkpt>
      <trkpt lat="42.84640702418983" lon="-2.380387997254729">
        <ele>596.79999999999995</ele>
        <time>2019-06-23T07:54:02Z</time>
      </trkpt>
      <trkpt lat="42.84649696201086" lon="-2.380521018058062">
        <ele>596.60000000000002</ele>
        <time>2019-06-23T07:54:04Z</time>
      </trkpt>
      <trkpt lat="42.846590001136065" lon="-2.380654038861394">
        <ele>596.39999999999998</ele>
        <time>2019-06-23T07:54:06Z</time>
      </trkpt>
      <trkpt lat="42.84668798558414" lon="-2.380788987502456">
        <ele>596.39999999999998</ele>
        <time>2019-06-23T07:54:08Z</time>
      </trkpt>
      <trkpt lat="42.846738025546074" lon="-2.380857970565558">
        <ele>596.39999999999998</ele>
        <time>2019-06-23T07:54:09Z</time>
      </trkpt>
      <trkpt lat="42.846789993345737" lon="-2.380927037447691">
        <ele>596.39999999999998</ele>
        <time>2019-06-23T07:54:10Z</time>
      </trkpt>
      <trkpt lat="42.846842966973782" lon="-2.380997026339173">
        <ele>596.39999999999998</ele>
        <time>2019-06-23T07:54:11Z</time>
      </trkpt>
      <trkpt lat="42.846896024420857" lon="-2.381067015230656">
        <ele>596.39999999999998</ele>
        <time>2019-06-23T07:54:12Z</time>
      </trkpt>
      <trkpt lat="42.847008006647229" lon="-2.38120699301362">
        <ele>596.39999999999998</ele>
        <time>2019-06-23T07:54:14Z</time>
      </trkpt>
      <trkpt lat="42.847125018015504" lon="-2.381350994110107">
        <ele>596.20000000000005</ele>
        <time>2019-06-23T07:54:16Z</time>
      </trkpt>
      <trkpt lat="42.847186038270593" lon="-2.381426012143493">
        <ele>596</ele>
        <time>2019-06-23T07:54:17Z</time>
      </trkpt>
      <trkpt lat="42.84724697470665" lon="-2.381500024348497">
        <ele>596</ele>
        <time>2019-06-23T07:54:18Z</time>
      </trkpt>
      <trkpt lat="42.847374966368079" lon="-2.381645031273365">
        <ele>595.60000000000002</ele>
        <time>2019-06-23T07:54:20Z</time>
      </trkpt>
      <trkpt lat="42.847445961087942" lon="-2.381703034043312">
        <ele>595.39999999999998</ele>
        <time>2019-06-23T07:54:21Z</time>
      </trkpt>
      <trkpt lat="42.847520979121327" lon="-2.381733041256666">
        <ele>595</ele>
        <time>2019-06-23T07:54:22Z</time>
      </trkpt>
      <trkpt lat="42.847600020468235" lon="-2.381733041256666">
        <ele>595</ele>
        <time>2019-06-23T07:54:23Z</time>
      </trkpt>
      <trkpt lat="42.847679983824492" lon="-2.381717031821609">
        <ele>594.79999999999995</ele>
        <time>2019-06-23T07:54:24Z</time>
      </trkpt>
      <trkpt lat="42.847759025171399" lon="-2.381705967709422">
        <ele>594.39999999999998</ele>
        <time>2019-06-23T07:54:25Z</time>
      </trkpt>
      <trkpt lat="42.847833959385753" lon="-2.381709991022945">
        <ele>593.79999999999995</ele>
        <time>2019-06-23T07:54:26Z</time>
      </trkpt>
      <trkpt lat="42.847905037924647" lon="-2.381733041256666">
        <ele>593.39999999999998</ele>
        <time>2019-06-23T07:54:27Z</time>
      </trkpt>
      <trkpt lat="42.847971003502607" lon="-2.381774028763175">
        <ele>593</ele>
        <time>2019-06-23T07:54:28Z</time>
      </trkpt>
      <trkpt lat="42.848025988787413" lon="-2.381835971027613">
        <ele>593</ele>
        <time>2019-06-23T07:54:29Z</time>
      </trkpt>
      <trkpt lat="42.848070999607444" lon="-2.381913000717759">
        <ele>593</ele>
        <time>2019-06-23T07:54:30Z</time>
      </trkpt>
      <trkpt lat="42.848103018477559" lon="-2.381997993215919">
        <ele>592.79999999999995</ele>
        <time>2019-06-23T07:54:31Z</time>
      </trkpt>
      <trkpt lat="42.84812799654901" lon="-2.382088014855981">
        <ele>592.79999999999995</ele>
        <time>2019-06-23T07:54:32Z</time>
      </trkpt>
      <trkpt lat="42.848178958520293" lon="-2.382266968488693">
        <ele>592.39999999999998</ele>
        <time>2019-06-23T07:54:34Z</time>
      </trkpt>
      <trkpt lat="42.848247019574046" lon="-2.382428990676999">
        <ele>592.39999999999998</ele>
        <time>2019-06-23T07:54:36Z</time>
      </trkpt>
      <trkpt lat="42.848337963223457" lon="-2.382551031187177">
        <ele>592.39999999999998</ele>
        <time>2019-06-23T07:54:38Z</time>
      </trkpt>
      <trkpt lat="42.848390014842153" lon="-2.382597969844937">
        <ele>592.60000000000002</ele>
        <time>2019-06-23T07:54:39Z</time>
      </trkpt>
      <trkpt lat="42.848439970985055" lon="-2.382642980664969">
        <ele>592.39999999999998</ele>
        <time>2019-06-23T07:54:40Z</time>
      </trkpt>
      <trkpt lat="42.848544996231794" lon="-2.382721016183496">
        <ele>592.60000000000002</ele>
        <time>2019-06-23T07:54:42Z</time>
      </trkpt>
      <trkpt lat="42.848648009821773" lon="-2.38279796205461">
        <ele>592.79999999999995</ele>
        <time>2019-06-23T07:54:44Z</time>
      </trkpt>
      <trkpt lat="42.848753035068512" lon="-2.382873985916376">
        <ele>593</ele>
        <time>2019-06-23T07:54:46Z</time>
      </trkpt>
      <trkpt lat="42.848807014524937" lon="-2.382910028100014">
        <ele>593.20000000000005</ele>
        <time>2019-06-23T07:54:47Z</time>
      </trkpt>
      <trkpt lat="42.848860993981361" lon="-2.382947998121381">
        <ele>593.39999999999998</ele>
        <time>2019-06-23T07:54:48Z</time>
      </trkpt>
      <trkpt lat="42.848972976207733" lon="-2.38303198479116">
        <ele>593.79999999999995</ele>
        <time>2019-06-23T07:54:50Z</time>
      </trkpt>
      <trkpt lat="42.849084958434105" lon="-2.38311898894608">
        <ele>594.39999999999998</ele>
        <time>2019-06-23T07:54:52Z</time>
      </trkpt>
      <trkpt lat="42.849141033366323" lon="-2.383162993937731">
        <ele>594.60000000000002</ele>
        <time>2019-06-23T07:54:53Z</time>
      </trkpt>
      <trkpt lat="42.849197024479508" lon="-2.383209010586143">
        <ele>595</ele>
        <time>2019-06-23T07:54:54Z</time>
      </trkpt>
      <trkpt lat="42.8493080008775" lon="-2.383306995034218">
        <ele>595.20000000000005</ele>
        <time>2019-06-23T07:54:56Z</time>
      </trkpt>
      <trkpt lat="42.849420988932252" lon="-2.383406991139054">
        <ele>595.60000000000002</ele>
        <time>2019-06-23T07:54:58Z</time>
      </trkpt>
      <trkpt lat="42.849530959501863" lon="-2.383517967537046">
        <ele>595.79999999999995</ele>
        <time>2019-06-23T07:55:00Z</time>
      </trkpt>
      <trkpt lat="42.849641013890505" lon="-2.383642019703984">
        <ele>595.79999999999995</ele>
        <time>2019-06-23T07:55:02Z</time>
      </trkpt>
      <trkpt lat="42.849747966974974" lon="-2.38378300331533">
        <ele>596</ele>
        <time>2019-06-23T07:55:04Z</time>
      </trkpt>
      <trkpt lat="42.849851986393332" lon="-2.383946031332016">
        <ele>595.79999999999995</ele>
        <time>2019-06-23T07:55:06Z</time>
      </trkpt>
      <trkpt lat="42.849901020526886" lon="-2.384035969153047">
        <ele>595.79999999999995</ele>
        <time>2019-06-23T07:55:07Z</time>
      </trkpt>
      <trkpt lat="42.849948965013027" lon="-2.384132025763392">
        <ele>595.79999999999995</ele>
        <time>2019-06-23T07:55:08Z</time>
      </trkpt>
      <trkpt lat="42.850032029673457" lon="-2.384345009922981">
        <ele>595.60000000000002</ele>
        <time>2019-06-23T07:55:10Z</time>
      </trkpt>
      <trkpt lat="42.850067988038063" lon="-2.384462021291256">
        <ele>595.39999999999998</ele>
        <time>2019-06-23T07:55:11Z</time>
      </trkpt>
      <trkpt lat="42.850099001079798" lon="-2.384583977982402">
        <ele>595.39999999999998</ele>
        <time>2019-06-23T07:55:12Z</time>
      </trkpt>
      <trkpt lat="42.85012498497963" lon="-2.384711969643831">
        <ele>595.20000000000005</ele>
        <time>2019-06-23T07:55:13Z</time>
      </trkpt>
      <trkpt lat="42.850144011899829" lon="-2.384844990447164">
        <ele>594.79999999999995</ele>
        <time>2019-06-23T07:55:14Z</time>
      </trkpt>
      <trkpt lat="42.850155998021364" lon="-2.384982034564018">
        <ele>594.60000000000002</ele>
        <time>2019-06-23T07:55:15Z</time>
      </trkpt>
      <trkpt lat="42.850160021334887" lon="-2.385120000690222">
        <ele>594.39999999999998</ele>
        <time>2019-06-23T07:55:16Z</time>
      </trkpt>
      <trkpt lat="42.850155998021364" lon="-2.385256960988045">
        <ele>593.79999999999995</ele>
        <time>2019-06-23T07:55:17Z</time>
      </trkpt>
      <trkpt lat="42.850144011899829" lon="-2.385394005104899">
        <ele>593</ele>
        <time>2019-06-23T07:55:18Z</time>
      </trkpt>
      <trkpt lat="42.850123979151249" lon="-2.385527025908232">
        <ele>592.39999999999998</ele>
        <time>2019-06-23T07:55:19Z</time>
      </trkpt>
      <trkpt lat="42.850099001079798" lon="-2.385656023398042">
        <ele>591.60000000000002</ele>
        <time>2019-06-23T07:55:20Z</time>
      </trkpt>
      <trkpt lat="42.850036974996328" lon="-2.385895997285843">
        <ele>590.20000000000005</ele>
        <time>2019-06-23T07:55:22Z</time>
      </trkpt>
      <trkpt lat="42.849971009418368" lon="-2.386114010587335">
        <ele>588.79999999999995</ele>
        <time>2019-06-23T07:55:24Z</time>
      </trkpt>
      <trkpt lat="42.849907977506518" lon="-2.386305034160614">
        <ele>588.39999999999998</ele>
        <time>2019-06-23T07:55:26Z</time>
      </trkpt>
      <trkpt lat="42.849848968908191" lon="-2.386476024985313">
        <ele>588.20000000000005</ele>
        <time>2019-06-23T07:55:28Z</time>
      </trkpt>
      <trkpt lat="42.849821979179978" lon="-2.386557999998331">
        <ele>588.20000000000005</ele>
        <time>2019-06-23T07:55:29Z</time>
      </trkpt>
      <trkpt lat="42.849795995280147" lon="-2.386637963354588">
        <ele>588.20000000000005</ele>
        <time>2019-06-23T07:55:30Z</time>
      </trkpt>
      <trkpt lat="42.849746961146593" lon="-2.3867910169065">
        <ele>588.20000000000005</ele>
        <time>2019-06-23T07:55:32Z</time>
      </trkpt>
      <trkpt lat="42.849702034145594" lon="-2.386932000517845">
        <ele>588.39999999999998</ele>
        <time>2019-06-23T07:55:34Z</time>
      </trkpt>
      <trkpt lat="42.849682001397014" lon="-2.386999977752566">
        <ele>588.39999999999998</ele>
        <time>2019-06-23T07:55:35Z</time>
      </trkpt>
      <trkpt lat="42.849664986133575" lon="-2.387068038806319">
        <ele>589.39999999999998</ele>
        <time>2019-06-23T07:55:36Z</time>
      </trkpt>
      <trkpt lat="42.849658029153943" lon="-2.387134004384279">
        <ele>589.60000000000002</ele>
        <time>2019-06-23T07:55:37Z</time>
      </trkpt>
      <trkpt lat="42.849661968648434" lon="-2.387197958305478">
        <ele>590</ele>
        <time>2019-06-23T07:55:38Z</time>
      </trkpt>
      <trkpt lat="42.84967496059835" lon="-2.387263001874089">
        <ele>590</ele>
        <time>2019-06-23T07:55:39Z</time>
      </trkpt>
      <trkpt lat="42.849692981690168" lon="-2.387332990765572">
        <ele>590.39999999999998</ele>
        <time>2019-06-23T07:55:40Z</time>
      </trkpt>
      <trkpt lat="42.849717037752271" lon="-2.387399962171912">
        <ele>590.60000000000002</ele>
        <time>2019-06-23T07:55:41Z</time>
      </trkpt>
      <trkpt lat="42.849752996116877" lon="-2.387456959113479">
        <ele>591.20000000000005</ele>
        <time>2019-06-23T07:55:42Z</time>
      </trkpt>
      <trkpt lat="42.849798006936908" lon="-2.387503981590271">
        <ele>591.60000000000002</ele>
        <time>2019-06-23T07:55:43Z</time>
      </trkpt>
      <trkpt lat="42.849850980564952" lon="-2.387546980753541">
        <ele>592.39999999999998</ele>
        <time>2019-06-23T07:55:44Z</time>
      </trkpt>
      <trkpt lat="42.849965980276465" lon="-2.387627027928829">
        <ele>592.79999999999995</ele>
        <time>2019-06-23T07:55:46Z</time>
      </trkpt>
      <trkpt lat="42.850091038271785" lon="-2.387720989063382">
        <ele>593</ele>
        <time>2019-06-23T07:55:48Z</time>
      </trkpt>
      <trkpt lat="42.850160021334887" lon="-2.387769017368555">
        <ele>592.79999999999995</ele>
        <time>2019-06-23T07:55:49Z</time>
      </trkpt>
      <trkpt lat="42.850231016054749" lon="-2.387818973511457">
        <ele>593</ele>
        <time>2019-06-23T07:55:50Z</time>
      </trkpt>
      <trkpt lat="42.850374011322856" lon="-2.387919975444675">
        <ele>592.79999999999995</ele>
        <time>2019-06-23T07:55:52Z</time>
      </trkpt>
      <trkpt lat="42.850521029904485" lon="-2.388021983206272">
        <ele>593</ele>
        <time>2019-06-23T07:55:54Z</time>
      </trkpt>
      <trkpt lat="42.850594036281109" lon="-2.388071017339826">
        <ele>593</ele>
        <time>2019-06-23T07:55:55Z</time>
      </trkpt>
      <trkpt lat="42.850666958838701" lon="-2.388118961825967">
        <ele>592.79999999999995</ele>
        <time>2019-06-23T07:55:56Z</time>
      </trkpt>
      <trkpt lat="42.850815989077091" lon="-2.388205965980887">
        <ele>591.60000000000002</ele>
        <time>2019-06-23T07:55:58Z</time>
      </trkpt>
      <trkpt lat="42.850969964638352" lon="-2.38827402703464">
        <ele>590.20000000000005</ele>
        <time>2019-06-23T07:56:00Z</time>
      </trkpt>
      <trkpt lat="42.851048000156879" lon="-2.388305962085724">
        <ele>589.39999999999998</ele>
        <time>2019-06-23T07:56:01Z</time>
      </trkpt>
      <trkpt lat="42.851127041503787" lon="-2.388335969299078">
        <ele>588.79999999999995</ele>
        <time>2019-06-23T07:56:02Z</time>
      </trkpt>
      <trkpt lat="42.851281017065048" lon="-2.388397995382547">
        <ele>587.79999999999995</ele>
        <time>2019-06-23T07:56:04Z</time>
      </trkpt>
      <trkpt lat="42.851432980969548" lon="-2.388464966788888">
        <ele>587.60000000000002</ele>
        <time>2019-06-23T07:56:06Z</time>
      </trkpt>
      <trkpt lat="42.851581005379558" lon="-2.388526992872357">
        <ele>587.39999999999998</ele>
        <time>2019-06-23T07:56:08Z</time>
      </trkpt>
      <trkpt lat="42.851654011756182" lon="-2.388552976772189">
        <ele>587.39999999999998</ele>
        <time>2019-06-23T07:56:09Z</time>
      </trkpt>
      <trkpt lat="42.851729029789567" lon="-2.388577032834292">
        <ele>587.39999999999998</ele>
        <time>2019-06-23T07:56:10Z</time>
      </trkpt>
      <trkpt lat="42.851803964003921" lon="-2.388602010905743">
        <ele>587.39999999999998</ele>
        <time>2019-06-23T07:56:11Z</time>
      </trkpt>
      <trkpt lat="42.851877976208925" lon="-2.388629000633955">
        <ele>587</ele>
        <time>2019-06-23T07:56:12Z</time>
      </trkpt>
      <trkpt lat="42.852030023932457" lon="-2.388676023110747">
        <ele>586.79999999999995</ele>
        <time>2019-06-23T07:56:14Z</time>
      </trkpt>
      <trkpt lat="42.852186011150479" lon="-2.388702007010579">
        <ele>586</ele>
        <time>2019-06-23T07:56:16Z</time>
      </trkpt>
      <trkpt lat="42.852344010025263" lon="-2.388705024495721">
        <ele>585.60000000000002</ele>
        <time>2019-06-23T07:56:18Z</time>
      </trkpt>
      <trkpt lat="42.852423973381519" lon="-2.388697983697057">
        <ele>585.60000000000002</ele>
        <time>2019-06-23T07:56:19Z</time>
      </trkpt>
      <trkpt lat="42.852505026385188" lon="-2.388691026717424">
        <ele>585.60000000000002</ele>
        <time>2019-06-23T07:56:20Z</time>
      </trkpt>
      <trkpt lat="42.852667970582843" lon="-2.388685997575522">
        <ele>585.39999999999998</ele>
        <time>2019-06-23T07:56:22Z</time>
      </trkpt>
      <trkpt lat="42.852829992771149" lon="-2.388693960383534">
        <ele>585.20000000000005</ele>
        <time>2019-06-23T07:56:24Z</time>
      </trkpt>
      <trkpt lat="42.852991009131074" lon="-2.388720028102398">
        <ele>585</ele>
        <time>2019-06-23T07:56:26Z</time>
      </trkpt>
      <trkpt lat="42.853140039369464" lon="-2.388764033094049">
        <ele>584.60000000000002</ele>
        <time>2019-06-23T07:56:28Z</time>
      </trkpt>
      <trkpt lat="42.853290997445583" lon="-2.388806026428938">
        <ele>584.60000000000002</ele>
        <time>2019-06-23T07:56:30Z</time>
      </trkpt>
      <trkpt lat="42.853443967178464" lon="-2.388851037248969">
        <ele>584.20000000000005</ele>
        <time>2019-06-23T07:56:32Z</time>
      </trkpt>
      <trkpt lat="42.853595009073615" lon="-2.388894036412239">
        <ele>584</ele>
        <time>2019-06-23T07:56:34Z</time>
      </trkpt>
      <trkpt lat="42.853670027107" lon="-2.388915996998549">
        <ele>583.79999999999995</ele>
        <time>2019-06-23T07:56:35Z</time>
      </trkpt>
      <trkpt lat="42.853745967149734" lon="-2.388937035575509">
        <ele>583.60000000000002</ele>
        <time>2019-06-23T07:56:36Z</time>
      </trkpt>
      <trkpt lat="42.853901032358408" lon="-2.388982968404889">
        <ele>583.60000000000002</ele>
        <time>2019-06-23T07:56:38Z</time>
      </trkpt>
      <trkpt lat="42.854055007919669" lon="-2.38902697339654">
        <ele>583.39999999999998</ele>
        <time>2019-06-23T07:56:40Z</time>
      </trkpt>
      <trkpt lat="42.854206971824169" lon="-2.38907097838819">
        <ele>583.39999999999998</ele>
        <time>2019-06-23T07:56:42Z</time>
      </trkpt>
      <trkpt lat="42.854359019547701" lon="-2.389121018350124">
        <ele>583.39999999999998</ele>
        <time>2019-06-23T07:56:44Z</time>
      </trkpt>
      <trkpt lat="42.854434037581086" lon="-2.38915303722024">
        <ele>583.20000000000005</ele>
        <time>2019-06-23T07:56:45Z</time>
      </trkpt>
      <trkpt lat="42.854507965967059" lon="-2.389188995584846">
        <ele>583.39999999999998</ele>
        <time>2019-06-23T07:56:46Z</time>
      </trkpt>
      <trkpt lat="42.854664959013462" lon="-2.389283962547779">
        <ele>583.20000000000005</ele>
        <time>2019-06-23T07:56:48Z</time>
      </trkpt>
      <trkpt lat="42.854818012565374" lon="-2.389404997229576">
        <ele>583</ele>
        <time>2019-06-23T07:56:50Z</time>
      </trkpt>
      <trkpt lat="42.854891018941998" lon="-2.38945797085762">
        <ele>583</ele>
        <time>2019-06-23T07:56:51Z</time>
      </trkpt>
      <trkpt lat="42.854967964813113" lon="-2.389485966414213">
        <ele>582.79999999999995</ele>
        <time>2019-06-23T07:56:52Z</time>
      </trkpt>
      <trkpt lat="42.855051029473543" lon="-2.389483032748103">
        <ele>583</ele>
        <time>2019-06-23T07:56:53Z</time>
      </trkpt>
      <trkpt lat="42.855134010314941" lon="-2.38945503719151">
        <ele>582.60000000000002</ele>
        <time>2019-06-23T07:56:54Z</time>
      </trkpt>
      <trkpt lat="42.855215985327959" lon="-2.389408014714718">
        <ele>582</ele>
        <time>2019-06-23T07:56:55Z</time>
      </trkpt>
      <trkpt lat="42.855297960340977" lon="-2.389344982802868">
        <ele>581.60000000000002</ele>
        <time>2019-06-23T07:56:56Z</time>
      </trkpt>
      <trkpt lat="42.855377001687884" lon="-2.389273988083005">
        <ele>581.20000000000005</ele>
        <time>2019-06-23T07:56:57Z</time>
      </trkpt>
      <trkpt lat="42.85545302554965" lon="-2.389199975878">
        <ele>580.20000000000005</ele>
        <time>2019-06-23T07:56:58Z</time>
      </trkpt>
      <trkpt lat="42.855527959764004" lon="-2.389127975329757">
        <ele>579.79999999999995</ele>
        <time>2019-06-23T07:56:59Z</time>
      </trkpt>
      <trkpt lat="42.855599960312247" lon="-2.389057986438274">
        <ele>579.39999999999998</ele>
        <time>2019-06-23T07:57:00Z</time>
      </trkpt>
      <trkpt lat="42.855740021914244" lon="-2.388923037797213">
        <ele>578.39999999999998</ele>
        <time>2019-06-23T07:57:02Z</time>
      </trkpt>
      <trkpt lat="42.855873964726925" lon="-2.388793034479022">
        <ele>578</ele>
        <time>2019-06-23T07:57:04Z</time>
      </trkpt>
      <trkpt lat="42.856003968045115" lon="-2.388667976483703">
        <ele>577</ele>
        <time>2019-06-23T07:57:06Z</time>
      </trkpt>
      <trkpt lat="42.856130031868815" lon="-2.388548031449318">
        <ele>576.60000000000002</ele>
        <time>2019-06-23T07:57:08Z</time>
      </trkpt>
      <trkpt lat="42.856190968304873" lon="-2.38848902285099">
        <ele>576.60000000000002</ele>
        <time>2019-06-23T07:57:09Z</time>
      </trkpt>
      <trkpt lat="42.8562499769032" lon="-2.388430014252663">
        <ele>576.39999999999998</ele>
        <time>2019-06-23T07:57:10Z</time>
      </trkpt>
      <trkpt lat="42.856309991329908" lon="-2.388371005654335">
        <ele>576.39999999999998</ele>
        <time>2019-06-23T07:57:11Z</time>
      </trkpt>
      <trkpt lat="42.856368999928236" lon="-2.388315014541149">
        <ele>576.39999999999998</ele>
        <time>2019-06-23T07:57:12Z</time>
      </trkpt>
      <trkpt lat="42.856480982154608" lon="-2.388205965980887">
        <ele>576.39999999999998</ele>
        <time>2019-06-23T07:57:14Z</time>
      </trkpt>
      <trkpt lat="42.856586007401347" lon="-2.38810395821929">
        <ele>576.39999999999998</ele>
        <time>2019-06-23T07:57:16Z</time>
      </trkpt>
      <trkpt lat="42.856684997677803" lon="-2.388004967942834">
        <ele>576.39999999999998</ele>
        <time>2019-06-23T07:57:18Z</time>
      </trkpt>
      <trkpt lat="42.856783987954259" lon="-2.387913018465042">
        <ele>576.79999999999995</ele>
        <time>2019-06-23T07:57:20Z</time>
      </trkpt>
      <trkpt lat="42.856835033744574" lon="-2.38786700181663">
        <ele>577.20000000000005</ele>
        <time>2019-06-23T07:57:21Z</time>
      </trkpt>
      <trkpt lat="42.856888007372618" lon="-2.387820985168219">
        <ele>577.39999999999998</ele>
        <time>2019-06-23T07:57:22Z</time>
      </trkpt>
      <trkpt lat="42.856994038447738" lon="-2.387728029862046">
        <ele>577.79999999999995</ele>
        <time>2019-06-23T07:57:24Z</time>
      </trkpt>
      <trkpt lat="42.857099985703826" lon="-2.38763096742332">
        <ele>578.39999999999998</ele>
        <time>2019-06-23T07:57:26Z</time>
      </trkpt>
      <trkpt lat="42.857210040092468" lon="-2.387532982975245">
        <ele>579</ele>
        <time>2019-06-23T07:57:28Z</time>
      </trkpt>
      <trkpt lat="42.857323028147221" lon="-2.387434998527169">
        <ele>579.20000000000005</ele>
        <time>2019-06-23T07:57:30Z</time>
      </trkpt>
      <trkpt lat="42.857435010373592" lon="-2.387332990765572">
        <ele>579.39999999999998</ele>
        <time>2019-06-23T07:57:32Z</time>
      </trkpt>
      <trkpt lat="42.857550010085106" lon="-2.387227965518832">
        <ele>579.39999999999998</ele>
        <time>2019-06-23T07:57:34Z</time>
      </trkpt>
      <trkpt lat="42.857665009796619" lon="-2.387130986899138">
        <ele>579.60000000000002</ele>
        <time>2019-06-23T07:57:36Z</time>
      </trkpt>
      <trkpt lat="42.857784032821655" lon="-2.387045994400978">
        <ele>579.60000000000002</ele>
        <time>2019-06-23T07:57:38Z</time>
      </trkpt>
      <trkpt lat="42.857909006997943" lon="-2.386977011337876">
        <ele>579.60000000000002</ele>
        <time>2019-06-23T07:57:40Z</time>
      </trkpt>
      <trkpt lat="42.858035992830992" lon="-2.386925965547562">
        <ele>579.60000000000002</ele>
        <time>2019-06-23T07:57:42Z</time>
      </trkpt>
      <trkpt lat="42.858101036399603" lon="-2.386906016618013">
        <ele>579.79999999999995</ele>
        <time>2019-06-23T07:57:43Z</time>
      </trkpt>
      <trkpt lat="42.858164990320802" lon="-2.386889001354575">
        <ele>579.60000000000002</ele>
        <time>2019-06-23T07:57:44Z</time>
      </trkpt>
      <trkpt lat="42.858291976153851" lon="-2.386852959170938">
        <ele>579.60000000000002</ele>
        <time>2019-06-23T07:57:46Z</time>
      </trkpt>
      <trkpt lat="42.858412005007267" lon="-2.386817000806332">
        <ele>579.79999999999995</ele>
        <time>2019-06-23T07:57:48Z</time>
      </trkpt>
      <trkpt lat="42.858531028032303" lon="-2.386779030784965">
        <ele>580</ele>
        <time>2019-06-23T07:57:50Z</time>
      </trkpt>
      <trkpt lat="42.858646027743816" lon="-2.386741982772946">
        <ele>580.20000000000005</ele>
        <time>2019-06-23T07:57:52Z</time>
      </trkpt>
      <trkpt lat="42.858703024685383" lon="-2.386724967509508">
        <ele>580</ele>
        <time>2019-06-23T07:57:53Z</time>
      </trkpt>
      <trkpt lat="42.858760021626949" lon="-2.386707030236721">
        <ele>580</ele>
        <time>2019-06-23T07:57:54Z</time>
      </trkpt>
      <trkpt lat="42.858872003853321" lon="-2.386672999709845">
        <ele>580.39999999999998</ele>
        <time>2019-06-23T07:57:56Z</time>
      </trkpt>
      <trkpt lat="42.858985997736454" lon="-2.386650033295155">
        <ele>580.79999999999995</ele>
        <time>2019-06-23T07:57:58Z</time>
      </trkpt>
      <trkpt lat="42.859045006334782" lon="-2.386639975011349">
        <ele>581</ele>
        <time>2019-06-23T07:57:59Z</time>
      </trkpt>
      <trkpt lat="42.85910502076149" lon="-2.386631006374955">
        <ele>581.20000000000005</ele>
        <time>2019-06-23T07:58:00Z</time>
      </trkpt>
      <trkpt lat="42.859166963025928" lon="-2.386622037738562">
        <ele>581.79999999999995</ele>
        <time>2019-06-23T07:58:01Z</time>
      </trkpt>
      <trkpt lat="42.859229994937778" lon="-2.386611979454756">
        <ele>582.20000000000005</ele>
        <time>2019-06-23T07:58:02Z</time>
      </trkpt>
      <trkpt lat="42.859357986599207" lon="-2.386592030525208">
        <ele>582.39999999999998</ele>
        <time>2019-06-23T07:58:04Z</time>
      </trkpt>
      <trkpt lat="42.859486984089017" lon="-2.386569986119866">
        <ele>582.60000000000002</ele>
        <time>2019-06-23T07:58:06Z</time>
      </trkpt>
      <trkpt lat="42.859618999063969" lon="-2.386550037190318">
        <ele>582.60000000000002</ele>
        <time>2019-06-23T07:58:08Z</time>
      </trkpt>
      <trkpt lat="42.859752019867301" lon="-2.386527992784977">
        <ele>582.79999999999995</ele>
        <time>2019-06-23T07:58:10Z</time>
      </trkpt>
      <trkpt lat="42.859885040670633" lon="-2.386506032198668">
        <ele>582.79999999999995</ele>
        <time>2019-06-23T07:58:12Z</time>
      </trkpt>
      <trkpt lat="42.860016971826553" lon="-2.386485999450088">
        <ele>582.60000000000002</ele>
        <time>2019-06-23T07:58:14Z</time>
      </trkpt>
      <trkpt lat="42.860148986801505" lon="-2.386468984186649">
        <ele>582.60000000000002</ele>
        <time>2019-06-23T07:58:16Z</time>
      </trkpt>
      <trkpt lat="42.860281001776457" lon="-2.386455992236733">
        <ele>582.60000000000002</ele>
        <time>2019-06-23T07:58:18Z</time>
      </trkpt>
      <trkpt lat="42.860414022579789" lon="-2.38644702360034">
        <ele>582.60000000000002</ele>
        <time>2019-06-23T07:58:20Z</time>
      </trkpt>
      <trkpt lat="42.860479988157749" lon="-2.386443000286818">
        <ele>582.79999999999995</ele>
        <time>2019-06-23T07:58:21Z</time>
      </trkpt>
      <trkpt lat="42.860546037554741" lon="-2.386438976973295">
        <ele>582.60000000000002</ele>
        <time>2019-06-23T07:58:22Z</time>
      </trkpt>
      <trkpt lat="42.860679980367422" lon="-2.386434031650424">
        <ele>582.79999999999995</ele>
        <time>2019-06-23T07:58:24Z</time>
      </trkpt>
      <trkpt lat="42.860815012827516" lon="-2.386433025822043">
        <ele>583</ele>
        <time>2019-06-23T07:58:26Z</time>
      </trkpt>
      <trkpt lat="42.860949039459229" lon="-2.386427996680141">
        <ele>583</ele>
        <time>2019-06-23T07:58:28Z</time>
      </trkpt>
      <trkpt lat="42.86108398810029" lon="-2.386422967538238">
        <ele>583</ele>
        <time>2019-06-23T07:58:30Z</time>
      </trkpt>
      <trkpt lat="42.861219020560384" lon="-2.386417016386986">
        <ele>583</ele>
        <time>2019-06-23T07:58:32Z</time>
      </trkpt>
      <trkpt lat="42.861354975029826" lon="-2.386412993073463">
        <ele>583</ele>
        <time>2019-06-23T07:58:34Z</time>
      </trkpt>
      <trkpt lat="42.8614910133183" lon="-2.386412993073463">
        <ele>583.20000000000005</ele>
        <time>2019-06-23T07:58:36Z</time>
      </trkpt>
      <trkpt lat="42.861625039950013" lon="-2.386416010558605">
        <ele>583.20000000000005</ele>
        <time>2019-06-23T07:58:38Z</time>
      </trkpt>
      <trkpt lat="42.861760994419456" lon="-2.386421039700508">
        <ele>583.20000000000005</ele>
        <time>2019-06-23T07:58:40Z</time>
      </trkpt>
      <trkpt lat="42.86189803853631" lon="-2.386429002508521">
        <ele>583.39999999999998</ele>
        <time>2019-06-23T07:58:42Z</time>
      </trkpt>
      <trkpt lat="42.862034998834133" lon="-2.386437971144915">
        <ele>583.39999999999998</ele>
        <time>2019-06-23T07:58:44Z</time>
      </trkpt>
      <trkpt lat="42.862171959131956" lon="-2.386446017771959">
        <ele>583.39999999999998</ele>
        <time>2019-06-23T07:58:46Z</time>
      </trkpt>
      <trkpt lat="42.862309003248811" lon="-2.386454986408353">
        <ele>583.60000000000002</ele>
        <time>2019-06-23T07:58:48Z</time>
      </trkpt>
      <trkpt lat="42.862445963546634" lon="-2.386462027207017">
        <ele>583.79999999999995</ele>
        <time>2019-06-23T07:58:50Z</time>
      </trkpt>
      <trkpt lat="42.862583007663488" lon="-2.386462027207017">
        <ele>584</ele>
        <time>2019-06-23T07:58:52Z</time>
      </trkpt>
      <trkpt lat="42.862718962132931" lon="-2.386443000286818">
        <ele>584</ele>
        <time>2019-06-23T07:58:54Z</time>
      </trkpt>
      <trkpt lat="42.862853994593024" lon="-2.386406036093831">
        <ele>584</ele>
        <time>2019-06-23T07:58:56Z</time>
      </trkpt>
      <trkpt lat="42.862980980426073" lon="-2.386347027495503">
        <ele>584.20000000000005</ele>
        <time>2019-06-23T07:58:58Z</time>
      </trkpt>
      <trkpt lat="42.863044012337923" lon="-2.386314002797008">
        <ele>584.20000000000005</ele>
        <time>2019-06-23T07:58:59Z</time>
      </trkpt>
      <trkpt lat="42.863106038421392" lon="-2.386280978098512">
        <ele>584.20000000000005</ele>
        <time>2019-06-23T07:59:00Z</time>
      </trkpt>
      <trkpt lat="42.8632300067693" lon="-2.38621199503541">
        <ele>584.39999999999998</ele>
        <time>2019-06-23T07:59:02Z</time>
      </trkpt>
      <trkpt lat="42.863352969288826" lon="-2.386142006143928">
        <ele>584.39999999999998</ele>
        <time>2019-06-23T07:59:04Z</time>
      </trkpt>
      <trkpt lat="42.863477021455765" lon="-2.386075034737587">
        <ele>584.39999999999998</ele>
        <time>2019-06-23T07:59:06Z</time>
      </trkpt>
      <trkpt lat="42.863598978146911" lon="-2.386005967855454">
        <ele>584.39999999999998</ele>
        <time>2019-06-23T07:59:08Z</time>
      </trkpt>
      <trkpt lat="42.863721018657088" lon="-2.385934973135591">
        <ele>584.20000000000005</ele>
        <time>2019-06-23T07:59:10Z</time>
      </trkpt>
      <trkpt lat="42.863781033083797" lon="-2.385901026427746">
        <ele>584.39999999999998</ele>
        <time>2019-06-23T07:59:11Z</time>
      </trkpt>
      <trkpt lat="42.863841969519854" lon="-2.385866995900869">
        <ele>584.39999999999998</ele>
        <time>2019-06-23T07:59:12Z</time>
      </trkpt>
      <trkpt lat="42.863964010030031" lon="-2.38580203615129">
        <ele>584.79999999999995</ele>
        <time>2019-06-23T07:59:14Z</time>
      </trkpt>
      <trkpt lat="42.864087978377938" lon="-2.385735986754298">
        <ele>585.20000000000005</ele>
        <time>2019-06-23T07:59:16Z</time>
      </trkpt>
      <trkpt lat="42.864212030544877" lon="-2.385669015347958">
        <ele>585.60000000000002</ele>
        <time>2019-06-23T07:59:18Z</time>
      </trkpt>
      <trkpt lat="42.864332981407642" lon="-2.385600032284856">
        <ele>585.79999999999995</ele>
        <time>2019-06-23T07:59:20Z</time>
      </trkpt>
      <trkpt lat="42.86445502191782" lon="-2.385530965402722">
        <ele>585.79999999999995</ele>
        <time>2019-06-23T07:59:22Z</time>
      </trkpt>
      <trkpt lat="42.864575972780585" lon="-2.385464999824762">
        <ele>586</ele>
        <time>2019-06-23T07:59:24Z</time>
      </trkpt>
      <trkpt lat="42.864697007462382" lon="-2.385399034246802">
        <ele>586.20000000000005</ele>
        <time>2019-06-23T07:59:26Z</time>
      </trkpt>
      <trkpt lat="42.864819969981909" lon="-2.385334996506572">
        <ele>586.20000000000005</ele>
        <time>2019-06-23T07:59:28Z</time>
      </trkpt>
      <trkpt lat="42.864941004663706" lon="-2.385271964594722">
        <ele>586.20000000000005</ele>
        <time>2019-06-23T07:59:30Z</time>
      </trkpt>
      <trkpt lat="42.865061033517122" lon="-2.385208010673523">
        <ele>586.39999999999998</ele>
        <time>2019-06-23T07:59:32Z</time>
      </trkpt>
      <trkpt lat="42.865179972723126" lon="-2.385145984590054">
        <ele>586.60000000000002</ele>
        <time>2019-06-23T07:59:34Z</time>
      </trkpt>
      <trkpt lat="42.865237975493073" lon="-2.385115977376699">
        <ele>586.60000000000002</ele>
        <time>2019-06-23T07:59:35Z</time>
      </trkpt>
      <trkpt lat="42.865293966606259" lon="-2.385083958506584">
        <ele>586.60000000000002</ele>
        <time>2019-06-23T07:59:36Z</time>
      </trkpt>
      <trkpt lat="42.865348029881716" lon="-2.385052023455501">
        <ele>586.79999999999995</ele>
        <time>2019-06-23T07:59:37Z</time>
      </trkpt>
      <trkpt lat="42.86540200933814" lon="-2.385020004585385">
        <ele>586.79999999999995</ele>
        <time>2019-06-23T07:59:38Z</time>
      </trkpt>
      <trkpt lat="42.865508962422609" lon="-2.384962001815438">
        <ele>587</ele>
        <time>2019-06-23T07:59:40Z</time>
      </trkpt>
      <trkpt lat="42.865611976012588" lon="-2.384907016530633">
        <ele>587.39999999999998</ele>
        <time>2019-06-23T07:59:42Z</time>
      </trkpt>
      <trkpt lat="42.865713983774185" lon="-2.384853959083557">
        <ele>587.79999999999995</ele>
        <time>2019-06-23T07:59:44Z</time>
      </trkpt>
      <trkpt lat="42.86581196822226" lon="-2.384796040132642">
        <ele>588.39999999999998</ele>
        <time>2019-06-23T07:59:46Z</time>
      </trkpt>
      <trkpt lat="42.865862008184195" lon="-2.384769972413778">
        <ele>589</ele>
        <time>2019-06-23T07:59:47Z</time>
      </trkpt>
      <trkpt lat="42.865910958498716" lon="-2.384746000170708">
        <ele>589</ele>
        <time>2019-06-23T07:59:48Z</time>
      </trkpt>
      <trkpt lat="42.866007015109062" lon="-2.384692020714283">
        <ele>589.20000000000005</ele>
        <time>2019-06-23T07:59:50Z</time>
      </trkpt>
      <trkpt lat="42.866100976243615" lon="-2.384636029601097">
        <ele>589.39999999999998</ele>
        <time>2019-06-23T07:59:52Z</time>
      </trkpt>
      <trkpt lat="42.866198038682342" lon="-2.384584983810782">
        <ele>589.60000000000002</ele>
        <time>2019-06-23T07:59:54Z</time>
      </trkpt>
      <trkpt lat="42.866291999816895" lon="-2.384533016011119">
        <ele>590.39999999999998</ele>
        <time>2019-06-23T07:59:56Z</time>
      </trkpt>
      <trkpt lat="42.866384033113718" lon="-2.384476019069552">
        <ele>591.20000000000005</ele>
        <time>2019-06-23T07:59:58Z</time>
      </trkpt>
      <trkpt lat="42.866479000076652" lon="-2.384422039613128">
        <ele>591.79999999999995</ele>
        <time>2019-06-23T08:00:00Z</time>
      </trkpt>
      <trkpt lat="42.866526022553444" lon="-2.384396977722645">
        <ele>592</ele>
        <time>2019-06-23T08:00:01Z</time>
      </trkpt>
      <trkpt lat="42.866575978696346" lon="-2.384373005479574">
        <ele>592.60000000000002</ele>
        <time>2019-06-23T08:00:02Z</time>
      </trkpt>
      <trkpt lat="42.866675974801183" lon="-2.38432003185153">
        <ele>593</ele>
        <time>2019-06-23T08:00:04Z</time>
      </trkpt>
      <trkpt lat="42.866779994219542" lon="-2.384266974404454">
        <ele>593.79999999999995</ele>
        <time>2019-06-23T08:00:06Z</time>
      </trkpt>
      <trkpt lat="42.866886025294662" lon="-2.384211989119649">
        <ele>594</ele>
        <time>2019-06-23T08:00:08Z</time>
      </trkpt>
      <trkpt lat="42.86699297837913" lon="-2.384153986349702">
        <ele>595</ele>
        <time>2019-06-23T08:00:10Z</time>
      </trkpt>
      <trkpt lat="42.867102026939392" lon="-2.384096989408135">
        <ele>595.20000000000005</ele>
        <time>2019-06-23T08:00:12Z</time>
      </trkpt>
      <trkpt lat="42.867208980023861" lon="-2.384038986638188">
        <ele>595.39999999999998</ele>
        <time>2019-06-23T08:00:14Z</time>
      </trkpt>
      <trkpt lat="42.8673140052706" lon="-2.383967991918325">
        <ele>595.39999999999998</ele>
        <time>2019-06-23T08:00:16Z</time>
      </trkpt>
      <trkpt lat="42.867403021082282" lon="-2.383867995813489">
        <ele>595.60000000000002</ele>
        <time>2019-06-23T08:00:18Z</time>
      </trkpt>
      <trkpt lat="42.867481978610158" lon="-2.383749978616834">
        <ele>595.60000000000002</ele>
        <time>2019-06-23T08:00:20Z</time>
      </trkpt>
      <trkpt lat="42.867555990815163" lon="-2.383627016097307">
        <ele>595.60000000000002</ele>
        <time>2019-06-23T08:00:22Z</time>
      </trkpt>
      <trkpt lat="42.867633020505309" lon="-2.383507993072271">
        <ele>595.79999999999995</ele>
        <time>2019-06-23T08:00:24Z</time>
      </trkpt>
      <trkpt lat="42.867711978033185" lon="-2.383392993360758">
        <ele>595.79999999999995</ele>
        <time>2019-06-23T08:00:26Z</time>
      </trkpt>
      <trkpt lat="42.867792025208473" lon="-2.383284028619528">
        <ele>595.79999999999995</ele>
        <time>2019-06-23T08:00:28Z</time>
      </trkpt>
      <trkpt lat="42.867882968857884" lon="-2.38318101502955">
        <ele>595.79999999999995</ele>
        <time>2019-06-23T08:00:30Z</time>
      </trkpt>
      <trkpt lat="42.867981037124991" lon="-2.383073978126049">
        <ele>596.20000000000005</ele>
        <time>2019-06-23T08:00:32Z</time>
      </trkpt>
      <trkpt lat="42.868031999096274" lon="-2.383016981184483">
        <ele>596.20000000000005</ele>
        <time>2019-06-23T08:00:33Z</time>
      </trkpt>
      <trkpt lat="42.868082961067557" lon="-2.382957972586155">
        <ele>596.20000000000005</ele>
        <time>2019-06-23T08:00:34Z</time>
      </trkpt>
      <trkpt lat="42.868191003799438" lon="-2.38283802755177">
        <ele>596.20000000000005</ele>
        <time>2019-06-23T08:00:36Z</time>
      </trkpt>
      <trkpt lat="42.868246994912624" lon="-2.382777007296681">
        <ele>596.20000000000005</ele>
        <time>2019-06-23T08:00:37Z</time>
      </trkpt>
      <trkpt lat="42.868303991854191" lon="-2.382712969556451">
        <ele>596.20000000000005</ele>
        <time>2019-06-23T08:00:38Z</time>
      </trkpt>
      <trkpt lat="42.868419997394085" lon="-2.38258196040988">
        <ele>596.20000000000005</ele>
        <time>2019-06-23T08:00:40Z</time>
      </trkpt>
      <trkpt lat="42.868480011820793" lon="-2.38251599483192">
        <ele>596.20000000000005</ele>
        <time>2019-06-23T08:00:41Z</time>
      </trkpt>
      <trkpt lat="42.868540026247501" lon="-2.382449023425579">
        <ele>596.20000000000005</ele>
        <time>2019-06-23T08:00:42Z</time>
      </trkpt>
      <trkpt lat="42.868663994595408" lon="-2.382310973480344">
        <ele>595.79999999999995</ele>
        <time>2019-06-23T08:00:44Z</time>
      </trkpt>
      <trkpt lat="42.868790980428457" lon="-2.382169989868999">
        <ele>595.20000000000005</ele>
        <time>2019-06-23T08:00:46Z</time>
      </trkpt>
      <trkpt lat="42.868919977918267" lon="-2.382025988772512">
        <ele>594.60000000000002</ele>
        <time>2019-06-23T08:00:48Z</time>
      </trkpt>
      <trkpt lat="42.869050987064838" lon="-2.381880981847644">
        <ele>594</ele>
        <time>2019-06-23T08:00:50Z</time>
      </trkpt>
      <trkpt lat="42.86911703646183" lon="-2.38180797547102">
        <ele>593.79999999999995</ele>
        <time>2019-06-23T08:00:51Z</time>
      </trkpt>
      <trkpt lat="42.86918300203979" lon="-2.381735974922776">
        <ele>593.60000000000002</ele>
        <time>2019-06-23T08:00:52Z</time>
      </trkpt>
      <trkpt lat="42.869313005357981" lon="-2.381594991311431">
        <ele>592.79999999999995</ele>
        <time>2019-06-23T08:00:54Z</time>
      </trkpt>
      <trkpt lat="42.86943999119103" lon="-2.381454007700086">
        <ele>592.20000000000005</ele>
        <time>2019-06-23T08:00:56Z</time>
      </trkpt>
      <trkpt lat="42.869565971195698" lon="-2.381316041573882">
        <ele>591.79999999999995</ele>
        <time>2019-06-23T08:00:58Z</time>
      </trkpt>
      <trkpt lat="42.869689017534256" lon="-2.381180003285408">
        <ele>591.39999999999998</ele>
        <time>2019-06-23T08:01:00Z</time>
      </trkpt>
      <trkpt lat="42.869749031960964" lon="-2.381113031879067">
        <ele>591.20000000000005</ele>
        <time>2019-06-23T08:01:01Z</time>
      </trkpt>
      <trkpt lat="42.869808962568641" lon="-2.381046982482076">
        <ele>591.20000000000005</ele>
        <time>2019-06-23T08:01:02Z</time>
      </trkpt>
      <trkpt lat="42.869925973936915" lon="-2.380917984992266">
        <ele>591</ele>
        <time>2019-06-23T08:01:04Z</time>
      </trkpt>
      <trkpt lat="42.869981965050101" lon="-2.380855036899447">
        <ele>591</ele>
        <time>2019-06-23T08:01:05Z</time>
      </trkpt>
      <trkpt lat="42.870037034153938" lon="-2.380794016644359">
        <ele>590.79999999999995</ele>
        <time>2019-06-23T08:01:06Z</time>
      </trkpt>
      <trkpt lat="42.870143987238407" lon="-2.380675999447703">
        <ele>591</ele>
        <time>2019-06-23T08:01:08Z</time>
      </trkpt>
      <trkpt lat="42.870245995000005" lon="-2.380563011392951">
        <ele>590.79999999999995</ele>
        <time>2019-06-23T08:01:10Z</time>
      </trkpt>
      <trkpt lat="42.870345991104841" lon="-2.38045203499496">
        <ele>591.39999999999998</ele>
        <time>2019-06-23T08:01:12Z</time>
      </trkpt>
      <trkpt lat="42.870446993038058" lon="-2.380342986434698">
        <ele>591.39999999999998</ele>
        <time>2019-06-23T08:01:14Z</time>
      </trkpt>
      <trkpt lat="42.870546989142895" lon="-2.380231004208326">
        <ele>592</ele>
        <time>2019-06-23T08:01:16Z</time>
      </trkpt>
      <trkpt lat="42.870597029104829" lon="-2.380176018923521">
        <ele>592</ele>
        <time>2019-06-23T08:01:17Z</time>
      </trkpt>
      <trkpt lat="42.870645979419351" lon="-2.380120027810335">
        <ele>592.39999999999998</ele>
        <time>2019-06-23T08:01:18Z</time>
      </trkpt>
      <trkpt lat="42.870744969695807" lon="-2.380010979250073">
        <ele>592.60000000000002</ele>
        <time>2019-06-23T08:01:20Z</time>
      </trkpt>
      <trkpt lat="42.870847983285785" lon="-2.379901008680463">
        <ele>593.20000000000005</ele>
        <time>2019-06-23T08:01:22Z</time>
      </trkpt>
      <trkpt lat="42.870959965512156" lon="-2.379779973998666">
        <ele>593.39999999999998</ele>
        <time>2019-06-23T08:01:24Z</time>
      </trkpt>
      <trkpt lat="42.871076976880431" lon="-2.379652988165617">
        <ele>593.39999999999998</ele>
        <time>2019-06-23T08:01:26Z</time>
      </trkpt>
      <trkpt lat="42.871202034875751" lon="-2.379523990675807">
        <ele>593.60000000000002</ele>
        <time>2019-06-23T08:01:28Z</time>
      </trkpt>
      <trkpt lat="42.87126699462533" lon="-2.379457019269466">
        <ele>593.60000000000002</ele>
        <time>2019-06-23T08:01:29Z</time>
      </trkpt>
      <trkpt lat="42.87133296020329" lon="-2.379387030377984">
        <ele>593.60000000000002</ele>
        <time>2019-06-23T08:01:30Z</time>
      </trkpt>
      <trkpt lat="42.871396997943521" lon="-2.379310000687838">
        <ele>593.60000000000002</ele>
        <time>2019-06-23T08:01:31Z</time>
      </trkpt>
      <trkpt lat="42.871449971571565" lon="-2.379217967391014">
        <ele>593.20000000000005</ele>
        <time>2019-06-23T08:01:32Z</time>
      </trkpt>
      <trkpt lat="42.871485007926822" lon="-2.379112020134926">
        <ele>592.79999999999995</ele>
        <time>2019-06-23T08:01:33Z</time>
      </trkpt>
      <trkpt lat="42.87150202319026" lon="-2.378998026251793">
        <ele>592.60000000000002</ele>
        <time>2019-06-23T08:01:34Z</time>
      </trkpt>
      <trkpt lat="42.871504034847021" lon="-2.378881014883518">
        <ele>592.39999999999998</ele>
        <time>2019-06-23T08:01:35Z</time>
      </trkpt>
      <trkpt lat="42.871494982391596" lon="-2.378764003515244">
        <ele>592.20000000000005</ele>
        <time>2019-06-23T08:01:36Z</time>
      </trkpt>
      <trkpt lat="42.871460029855371" lon="-2.378528974950314">
        <ele>591.60000000000002</ele>
        <time>2019-06-23T08:01:38Z</time>
      </trkpt>
      <trkpt lat="42.871442008763552" lon="-2.378407018259168">
        <ele>591.20000000000005</ele>
        <time>2019-06-23T08:01:39Z</time>
      </trkpt>
      <trkpt lat="42.871423987671733" lon="-2.378281960263848">
        <ele>590.79999999999995</ele>
        <time>2019-06-23T08:01:40Z</time>
      </trkpt>
      <trkpt lat="42.871388029307127" lon="-2.378024971112609">
        <ele>590.39999999999998</ele>
        <time>2019-06-23T08:01:42Z</time>
      </trkpt>
      <trkpt lat="42.871370008215308" lon="-2.377893039956689">
        <ele>590.39999999999998</ele>
        <time>2019-06-23T08:01:43Z</time>
      </trkpt>
      <trkpt lat="42.871366990730166" lon="-2.377761024981737">
        <ele>590.20000000000005</ele>
        <time>2019-06-23T08:01:44Z</time>
      </trkpt>
      <trkpt lat="42.871388029307127" lon="-2.377634039148688">
        <ele>590.20000000000005</ele>
        <time>2019-06-23T08:01:45Z</time>
      </trkpt>
      <trkpt lat="42.871435973793268" lon="-2.377520967274904">
        <ele>590</ele>
        <time>2019-06-23T08:01:46Z</time>
      </trkpt>
      <trkpt lat="42.871505040675402" lon="-2.377428011968732">
        <ele>589.79999999999995</ele>
        <time>2019-06-23T08:01:47Z</time>
      </trkpt>
      <trkpt lat="42.871591039001942" lon="-2.377360034734011">
        <ele>589</ele>
        <time>2019-06-23T08:01:48Z</time>
      </trkpt>
      <trkpt lat="42.871686005964875" lon="-2.37731896340847">
        <ele>588.39999999999998</ele>
        <time>2019-06-23T08:01:49Z</time>
      </trkpt>
      <trkpt lat="42.871783990412951" lon="-2.377297002822161">
        <ele>587.39999999999998</ele>
        <time>2019-06-23T08:01:50Z</time>
      </trkpt>
      <trkpt lat="42.871979037299752" lon="-2.377289040014148">
        <ele>586.39999999999998</ele>
        <time>2019-06-23T08:01:52Z</time>
      </trkpt>
      <trkpt lat="42.872075010091066" lon="-2.377292979508638">
        <ele>585.60000000000002</ele>
        <time>2019-06-23T08:01:53Z</time>
      </trkpt>
      <trkpt lat="42.872171988710761" lon="-2.377297002822161">
        <ele>585</ele>
        <time>2019-06-23T08:01:54Z</time>
      </trkpt>
      <trkpt lat="42.872371980920434" lon="-2.377284010872245">
        <ele>584.39999999999998</ele>
        <time>2019-06-23T08:01:56Z</time>
      </trkpt>
      <trkpt lat="42.872478011995554" lon="-2.377261966466904">
        <ele>584.20000000000005</ele>
        <time>2019-06-23T08:01:57Z</time>
      </trkpt>
      <trkpt lat="42.872585970908403" lon="-2.377233970910311">
        <ele>584.20000000000005</ele>
        <time>2019-06-23T08:01:58Z</time>
      </trkpt>
      <trkpt lat="42.872698036953807" lon="-2.377201030030847">
        <ele>584.20000000000005</ele>
        <time>2019-06-23T08:01:59Z</time>
      </trkpt>
      <trkpt lat="42.872811025008559" lon="-2.37716599367559">
        <ele>584</ele>
        <time>2019-06-23T08:02:00Z</time>
      </trkpt>
      <trkpt lat="42.872923007234931" lon="-2.377131041139364">
        <ele>584</ele>
        <time>2019-06-23T08:02:01Z</time>
      </trkpt>
      <trkpt lat="42.873031971976161" lon="-2.377094998955727">
        <ele>584</ele>
        <time>2019-06-23T08:02:02Z</time>
      </trkpt>
      <trkpt lat="42.87324202246964" lon="-2.377027021721005">
        <ele>583.79999999999995</ele>
        <time>2019-06-23T08:02:04Z</time>
      </trkpt>
      <trkpt lat="42.873341012746096" lon="-2.37699399702251">
        <ele>583</ele>
        <time>2019-06-23T08:02:05Z</time>
      </trkpt>
      <trkpt lat="42.873435979709029" lon="-2.376961978152394">
        <ele>582.39999999999998</ele>
        <time>2019-06-23T08:02:06Z</time>
      </trkpt>
      <trkpt lat="42.873607976362109" lon="-2.376901041716337">
        <ele>580.79999999999995</ele>
        <time>2019-06-23T08:02:08Z</time>
      </trkpt>
      <trkpt lat="42.873682994395494" lon="-2.376871034502983">
        <ele>580</ele>
        <time>2019-06-23T08:02:09Z</time>
      </trkpt>
      <trkpt lat="42.873752983286977" lon="-2.376838009804487">
        <ele>580</ele>
        <time>2019-06-23T08:02:10Z</time>
      </trkpt>
      <trkpt lat="42.873816015198827" lon="-2.37680196762085">
        <ele>579.79999999999995</ele>
        <time>2019-06-23T08:02:11Z</time>
      </trkpt>
      <trkpt lat="42.873869994655252" lon="-2.37675997428596">
        <ele>579.79999999999995</ele>
        <time>2019-06-23T08:02:12Z</time>
      </trkpt>
      <trkpt lat="42.873917017132044" lon="-2.3767130356282">
        <ele>579.79999999999995</ele>
        <time>2019-06-23T08:02:13Z</time>
      </trkpt>
      <trkpt lat="42.873958004638553" lon="-2.376664001494646">
        <ele>579.79999999999995</ele>
        <time>2019-06-23T08:02:14Z</time>
      </trkpt>
      <trkpt lat="42.87399597465992" lon="-2.376613961532712">
        <ele>579.79999999999995</ele>
        <time>2019-06-23T08:02:15Z</time>
      </trkpt>
      <trkpt lat="42.874030005186796" lon="-2.376557970419526">
        <ele>579.60000000000002</ele>
        <time>2019-06-23T08:02:16Z</time>
      </trkpt>
      <trkpt lat="42.874093037098646" lon="-2.376441964879632">
        <ele>580.60000000000002</ele>
        <time>2019-06-23T08:02:18Z</time>
      </trkpt>
      <trkpt lat="42.874164031818509" lon="-2.376331994310021">
        <ele>582</ele>
        <time>2019-06-23T08:02:20Z</time>
      </trkpt>
      <trkpt lat="42.874203007668257" lon="-2.376280026510358">
        <ele>583.20000000000005</ele>
        <time>2019-06-23T08:02:21Z</time>
      </trkpt>
      <trkpt lat="42.874249024316669" lon="-2.376235015690327">
        <ele>583.60000000000002</ele>
        <time>2019-06-23T08:02:22Z</time>
      </trkpt>
      <trkpt lat="42.874300992116332" lon="-2.37620098516345">
        <ele>584.20000000000005</ele>
        <time>2019-06-23T08:02:23Z</time>
      </trkpt>
      <trkpt lat="42.874362012371421" lon="-2.376184975728393">
        <ele>584.60000000000002</ele>
        <time>2019-06-23T08:02:24Z</time>
      </trkpt>
      <trkpt lat="42.874426972121" lon="-2.376192016527057">
        <ele>584.79999999999995</ele>
        <time>2019-06-23T08:02:25Z</time>
      </trkpt>
      <trkpt lat="42.874491009861231" lon="-2.376211965456605">
        <ele>585</ele>
        <time>2019-06-23T08:02:26Z</time>
      </trkpt>
      <trkpt lat="42.874558987095952" lon="-2.376226969063282">
        <ele>585.20000000000005</ele>
        <time>2019-06-23T08:02:27Z</time>
      </trkpt>
      <trkpt lat="42.874624030664563" lon="-2.37622101791203">
        <ele>585.39999999999998</ele>
        <time>2019-06-23T08:02:28Z</time>
      </trkpt>
      <trkpt lat="42.874685972929001" lon="-2.376191010698676">
        <ele>585.39999999999998</ele>
        <time>2019-06-23T08:02:29Z</time>
      </trkpt>
      <trkpt lat="42.874739030376077" lon="-2.376143988221884">
        <ele>585.39999999999998</ele>
        <time>2019-06-23T08:02:30Z</time>
      </trkpt>
      <trkpt lat="42.874783035367727" lon="-2.376087997108698">
        <ele>585.60000000000002</ele>
        <time>2019-06-23T08:02:31Z</time>
      </trkpt>
      <trkpt lat="42.874819999560714" lon="-2.37602798268199">
        <ele>585.39999999999998</ele>
        <time>2019-06-23T08:02:32Z</time>
      </trkpt>
      <trkpt lat="42.874887976795435" lon="-2.375910971313715">
        <ele>585.79999999999995</ele>
        <time>2019-06-23T08:02:34Z</time>
      </trkpt>
      <trkpt lat="42.874929970130324" lon="-2.375851040706039">
        <ele>586</ele>
        <time>2019-06-23T08:02:35Z</time>
      </trkpt>
      <trkpt lat="42.8749830275774" lon="-2.375793037936091">
        <ele>586</ele>
        <time>2019-06-23T08:02:36Z</time>
      </trkpt>
      <trkpt lat="42.875040024518967" lon="-2.375735035166144">
        <ele>585.60000000000002</ele>
        <time>2019-06-23T08:02:37Z</time>
      </trkpt>
      <trkpt lat="42.875101966783404" lon="-2.375676026567817">
        <ele>585.60000000000002</ele>
        <time>2019-06-23T08:02:38Z</time>
      </trkpt>
      <trkpt lat="42.875244040042162" lon="-2.375543005764484">
        <ele>585.39999999999998</ele>
        <time>2019-06-23T08:02:40Z</time>
      </trkpt>
      <trkpt lat="42.875321991741657" lon="-2.375471005216241">
        <ele>585.20000000000005</ele>
        <time>2019-06-23T08:02:41Z</time>
      </trkpt>
      <trkpt lat="42.875403966754675" lon="-2.375397998839617">
        <ele>585.20000000000005</ele>
        <time>2019-06-23T08:02:42Z</time>
      </trkpt>
      <trkpt lat="42.875576969236135" lon="-2.375248968601227">
        <ele>585</ele>
        <time>2019-06-23T08:02:44Z</time>
      </trkpt>
      <trkpt lat="42.875752989202738" lon="-2.375098010525107">
        <ele>585</ele>
        <time>2019-06-23T08:02:46Z</time>
      </trkpt>
      <trkpt lat="42.875838987529278" lon="-2.375021986663342">
        <ele>584.60000000000002</ele>
        <time>2019-06-23T08:02:47Z</time>
      </trkpt>
      <trkpt lat="42.875924985855818" lon="-2.374946968629956">
        <ele>584</ele>
        <time>2019-06-23T08:02:48Z</time>
      </trkpt>
      <trkpt lat="42.876092037186027" lon="-2.374807996675372">
        <ele>580.60000000000002</ele>
        <time>2019-06-23T08:02:50Z</time>
      </trkpt>
      <trkpt lat="42.876173006370664" lon="-2.374740019440651">
        <ele>579.60000000000002</ele>
        <time>2019-06-23T08:02:51Z</time>
      </trkpt>
      <trkpt lat="42.876251041889191" lon="-2.374673970043659">
        <ele>579.20000000000005</ele>
        <time>2019-06-23T08:02:52Z</time>
      </trkpt>
      <trkpt lat="42.87640199996531" lon="-2.374543966725469">
        <ele>578.39999999999998</ele>
        <time>2019-06-23T08:02:54Z</time>
      </trkpt>
      <trkpt lat="42.876472994685173" lon="-2.374482024461031">
        <ele>577.60000000000002</ele>
        <time>2019-06-23T08:02:55Z</time>
      </trkpt>
      <trkpt lat="42.876543989405036" lon="-2.374421004205942">
        <ele>577.39999999999998</ele>
        <time>2019-06-23T08:02:56Z</time>
      </trkpt>
      <trkpt lat="42.876678016036749" lon="-2.374302987009287">
        <ele>577</ele>
        <time>2019-06-23T08:02:58Z</time>
      </trkpt>
      <trkpt lat="42.876808019354939" lon="-2.374192010611296">
        <ele>576.79999999999995</ele>
        <time>2019-06-23T08:03:00Z</time>
      </trkpt>
      <trkpt lat="42.876932993531227" lon="-2.374083967879415">
        <ele>576.79999999999995</ele>
        <time>2019-06-23T08:03:02Z</time>
      </trkpt>
      <trkpt lat="42.877055034041405" lon="-2.373977014794946">
        <ele>576.60000000000002</ele>
        <time>2019-06-23T08:03:04Z</time>
      </trkpt>
      <trkpt lat="42.877176990732551" lon="-2.373872995376587">
        <ele>576.79999999999995</ele>
        <time>2019-06-23T08:03:06Z</time>
      </trkpt>
      <trkpt lat="42.877297019585967" lon="-2.373772999271751">
        <ele>577</ele>
        <time>2019-06-23T08:03:08Z</time>
      </trkpt>
      <trkpt lat="42.8774110134691" lon="-2.373675014823675">
        <ele>577.39999999999998</ele>
        <time>2019-06-23T08:03:10Z</time>
      </trkpt>
      <trkpt lat="42.877467004582286" lon="-2.373626986518502">
        <ele>577.39999999999998</ele>
        <time>2019-06-23T08:03:11Z</time>
      </trkpt>
      <trkpt lat="42.877520984038711" lon="-2.373578958213329">
        <ele>577.60000000000002</ele>
        <time>2019-06-23T08:03:12Z</time>
      </trkpt>
      <trkpt lat="42.877622991800308" lon="-2.373492959886789">
        <ele>578</ele>
        <time>2019-06-23T08:03:14Z</time>
      </trkpt>
      <trkpt lat="42.87766900844872" lon="-2.373455995693803">
        <ele>578</ele>
        <time>2019-06-23T08:03:15Z</time>
      </trkpt>
      <trkpt lat="42.87771200761199" lon="-2.373419031500816">
        <ele>578</ele>
        <time>2019-06-23T08:03:16Z</time>
      </trkpt>
      <trkpt lat="42.877751989290118" lon="-2.373382989317179">
        <ele>578.20000000000005</ele>
        <time>2019-06-23T08:03:17Z</time>
      </trkpt>
      <trkpt lat="42.877792976796627" lon="-2.373348036780953">
        <ele>578.39999999999998</ele>
        <time>2019-06-23T08:03:18Z</time>
      </trkpt>
      <trkpt lat="42.877871012315154" lon="-2.373282993212342">
        <ele>578.79999999999995</ele>
        <time>2019-06-23T08:03:20Z</time>
      </trkpt>
      <trkpt lat="42.877939995378256" lon="-2.373209986835718">
        <ele>579.20000000000005</ele>
        <time>2019-06-23T08:03:22Z</time>
      </trkpt>
      <trkpt lat="42.877971008419991" lon="-2.373166987672448">
        <ele>579.39999999999998</ele>
        <time>2019-06-23T08:03:23Z</time>
      </trkpt>
      <trkpt lat="42.877995986491442" lon="-2.373118037357926">
        <ele>579.79999999999995</ele>
        <time>2019-06-23T08:03:24Z</time>
      </trkpt>
      <trkpt lat="42.878036973997951" lon="-2.373013012111187">
        <ele>580.79999999999995</ele>
        <time>2019-06-23T08:03:26Z</time>
      </trkpt>
      <trkpt lat="42.878049965947866" lon="-2.372957020998001">
        <ele>581.39999999999998</ele>
        <time>2019-06-23T08:03:27Z</time>
      </trkpt>
      <trkpt lat="42.878058012574911" lon="-2.372900024056435">
        <ele>582.20000000000005</ele>
        <time>2019-06-23T08:03:28Z</time>
      </trkpt>
      <trkpt lat="42.878061030060053" lon="-2.372841015458107">
        <ele>582.79999999999995</ele>
        <time>2019-06-23T08:03:29Z</time>
      </trkpt>
      <trkpt lat="42.878057006746531" lon="-2.372781001031399">
        <ele>583</ele>
        <time>2019-06-23T08:03:30Z</time>
      </trkpt>
      <trkpt lat="42.878048960119486" lon="-2.372722998261452">
        <ele>583.60000000000002</ele>
        <time>2019-06-23T08:03:31Z</time>
      </trkpt>
      <trkpt lat="42.878037979826331" lon="-2.372663989663124">
        <ele>584</ele>
        <time>2019-06-23T08:03:32Z</time>
      </trkpt>
      <trkpt lat="42.878023982048035" lon="-2.372603975236416">
        <ele>584.39999999999998</ele>
        <time>2019-06-23T08:03:33Z</time>
      </trkpt>
      <trkpt lat="42.878006966784596" lon="-2.372544966638088">
        <ele>584.60000000000002</ele>
        <time>2019-06-23T08:03:34Z</time>
      </trkpt>
      <trkpt lat="42.877988023683429" lon="-2.372486041858792">
        <ele>584.79999999999995</ele>
        <time>2019-06-23T08:03:35Z</time>
      </trkpt>
      <trkpt lat="42.877968996763229" lon="-2.372425021603704">
        <ele>585.39999999999998</ele>
        <time>2019-06-23T08:03:36Z</time>
      </trkpt>
      <trkpt lat="42.877931026741862" lon="-2.372303986921907">
        <ele>586.20000000000005</ele>
        <time>2019-06-23T08:03:38Z</time>
      </trkpt>
      <trkpt lat="42.877893978729844" lon="-2.372185969725251">
        <ele>586.79999999999995</ele>
        <time>2019-06-23T08:03:40Z</time>
      </trkpt>
      <trkpt lat="42.877858020365238" lon="-2.372066024690867">
        <ele>587</ele>
        <time>2019-06-23T08:03:42Z</time>
      </trkpt>
      <trkpt lat="42.87782097235322" lon="-2.37194599583745">
        <ele>587.20000000000005</ele>
        <time>2019-06-23T08:03:44Z</time>
      </trkpt>
      <trkpt lat="42.877785013988614" lon="-2.371824961155653">
        <ele>587.60000000000002</ele>
        <time>2019-06-23T08:03:46Z</time>
      </trkpt>
      <trkpt lat="42.877766992896795" lon="-2.371765030547977">
        <ele>587.79999999999995</ele>
        <time>2019-06-23T08:03:47Z</time>
      </trkpt>
      <trkpt lat="42.877748971804976" lon="-2.371705016121268">
        <ele>587.79999999999995</ele>
        <time>2019-06-23T08:03:48Z</time>
      </trkpt>
      <trkpt lat="42.877709995955229" lon="-2.37158096395433">
        <ele>588.39999999999998</ele>
        <time>2019-06-23T08:03:50Z</time>
      </trkpt>
      <trkpt lat="42.877670014277101" lon="-2.371453978121281">
        <ele>588.79999999999995</ele>
        <time>2019-06-23T08:03:52Z</time>
      </trkpt>
      <trkpt lat="42.87764897570014" lon="-2.371389018371701">
        <ele>589</ele>
        <time>2019-06-23T08:03:53Z</time>
      </trkpt>
      <trkpt lat="42.877628020942211" lon="-2.37132296897471">
        <ele>589.20000000000005</ele>
        <time>2019-06-23T08:03:54Z</time>
      </trkpt>
      <trkpt lat="42.877579992637038" lon="-2.371192965656519">
        <ele>589.20000000000005</ele>
        <time>2019-06-23T08:03:56Z</time>
      </trkpt>
      <trkpt lat="42.877524001523852" lon="-2.371070003136993">
        <ele>589.39999999999998</ele>
        <time>2019-06-23T08:03:58Z</time>
      </trkpt>
      <trkpt lat="42.877464992925525" lon="-2.370951985940337">
        <ele>589.39999999999998</ele>
        <time>2019-06-23T08:04:00Z</time>
      </trkpt>
      <trkpt lat="42.877404978498816" lon="-2.370840003713965">
        <ele>589.39999999999998</ele>
        <time>2019-06-23T08:04:02Z</time>
      </trkpt>
      <trkpt lat="42.877344964072108" lon="-2.370731038972735">
        <ele>589.60000000000002</ele>
        <time>2019-06-23T08:04:04Z</time>
      </trkpt>
      <trkpt lat="42.877314034849405" lon="-2.370676975697279">
        <ele>589.79999999999995</ele>
        <time>2019-06-23T08:04:05Z</time>
      </trkpt>
      <trkpt lat="42.877283021807671" lon="-2.370624002069235">
        <ele>589.79999999999995</ele>
        <time>2019-06-23T08:04:06Z</time>
      </trkpt>
      <trkpt lat="42.877220995724201" lon="-2.370514031499624">
        <ele>589.79999999999995</ele>
        <time>2019-06-23T08:04:08Z</time>
      </trkpt>
      <trkpt lat="42.877159975469112" lon="-2.370400037616491">
        <ele>590</ele>
        <time>2019-06-23T08:04:10Z</time>
      </trkpt>
      <trkpt lat="42.877098033204675" lon="-2.370286965742707">
        <ele>590</ele>
        <time>2019-06-23T08:04:12Z</time>
      </trkpt>
      <trkpt lat="42.877035001292825" lon="-2.370172971859574">
        <ele>590.39999999999998</ele>
        <time>2019-06-23T08:04:14Z</time>
      </trkpt>
      <trkpt lat="42.876973981037736" lon="-2.370055038481951">
        <ele>590.79999999999995</ele>
        <time>2019-06-23T08:04:16Z</time>
      </trkpt>
      <trkpt lat="42.876916984096169" lon="-2.369929980486631">
        <ele>590.79999999999995</ele>
        <time>2019-06-23T08:04:18Z</time>
      </trkpt>
      <trkpt lat="42.876871973276138" lon="-2.36979503184557">
        <ele>591</ele>
        <time>2019-06-23T08:04:20Z</time>
      </trkpt>
      <trkpt lat="42.876839032396674" lon="-2.369651030749083">
        <ele>591</ele>
        <time>2019-06-23T08:04:22Z</time>
      </trkpt>
      <trkpt lat="42.876815982162952" lon="-2.369498983025551">
        <ele>591</ele>
        <time>2019-06-23T08:04:24Z</time>
      </trkpt>
      <trkpt lat="42.876807013526559" lon="-2.369336038827896">
        <ele>590.79999999999995</ele>
        <time>2019-06-23T08:04:26Z</time>
      </trkpt>
      <trkpt lat="42.876798966899514" lon="-2.369167981669307">
        <ele>590.79999999999995</ele>
        <time>2019-06-23T08:04:28Z</time>
      </trkpt>
      <trkpt lat="42.876792009919882" lon="-2.368996990844607">
        <ele>590.60000000000002</ele>
        <time>2019-06-23T08:04:30Z</time>
      </trkpt>
      <trkpt lat="42.87678899243474" lon="-2.368911998346448">
        <ele>590.39999999999998</ele>
        <time>2019-06-23T08:04:31Z</time>
      </trkpt>
      <trkpt lat="42.876784969121218" lon="-2.368827005848289">
        <ele>590.20000000000005</ele>
        <time>2019-06-23T08:04:32Z</time>
      </trkpt>
      <trkpt lat="42.876778012141585" lon="-2.368655009195209">
        <ele>590</ele>
        <time>2019-06-23T08:04:34Z</time>
      </trkpt>
      <trkpt lat="42.876769965514541" lon="-2.368476977571845">
        <ele>589.79999999999995</ele>
        <time>2019-06-23T08:04:36Z</time>
      </trkpt>
      <trkpt lat="42.876764014363289" lon="-2.368289977312088">
        <ele>589.39999999999998</ele>
        <time>2019-06-23T08:04:38Z</time>
      </trkpt>
      <trkpt lat="42.876756973564625" lon="-2.368090990930796">
        <ele>589</ele>
        <time>2019-06-23T08:04:40Z</time>
      </trkpt>
      <trkpt lat="42.87674599327147" lon="-2.367882030084729">
        <ele>588.79999999999995</ele>
        <time>2019-06-23T08:04:42Z</time>
      </trkpt>
      <trkpt lat="42.876741969957948" lon="-2.367771975696087">
        <ele>588.79999999999995</ele>
        <time>2019-06-23T08:04:43Z</time>
      </trkpt>
      <trkpt lat="42.876737024635077" lon="-2.367657981812954">
        <ele>588.79999999999995</ele>
        <time>2019-06-23T08:04:44Z</time>
      </trkpt>
      <trkpt lat="42.876722021028399" lon="-2.367420019581914">
        <ele>588.39999999999998</ele>
        <time>2019-06-23T08:04:46Z</time>
      </trkpt>
      <trkpt lat="42.876691007986665" lon="-2.367178034037352">
        <ele>587.60000000000002</ele>
        <time>2019-06-23T08:04:48Z</time>
      </trkpt>
      <trkpt lat="42.876667035743594" lon="-2.367060016840696">
        <ele>587.39999999999998</ele>
        <time>2019-06-23T08:04:49Z</time>
      </trkpt>
      <trkpt lat="42.876641973853111" lon="-2.366941999644041">
        <ele>586.79999999999995</ele>
        <time>2019-06-23T08:04:50Z</time>
      </trkpt>
      <trkpt lat="42.876590006053448" lon="-2.366709988564253">
        <ele>586</ele>
        <time>2019-06-23T08:04:52Z</time>
      </trkpt>
      <trkpt lat="42.876535020768642" lon="-2.366479989141226">
        <ele>584.79999999999995</ele>
        <time>2019-06-23T08:04:54Z</time>
      </trkpt>
      <trkpt lat="42.876480035483837" lon="-2.366260970011354">
        <ele>583.39999999999998</ele>
        <time>2019-06-23T08:04:56Z</time>
      </trkpt>
      <trkpt lat="42.876428989693522" lon="-2.366046980023384">
        <ele>582.39999999999998</ele>
        <time>2019-06-23T08:04:58Z</time>
      </trkpt>
      <trkpt lat="42.87638096138835" lon="-2.365840030834079">
        <ele>582</ele>
        <time>2019-06-23T08:05:00Z</time>
      </trkpt>
      <trkpt lat="42.876333016902208" lon="-2.365635009482503">
        <ele>582</ele>
        <time>2019-06-23T08:05:02Z</time>
      </trkpt>
      <trkpt lat="42.876284988597035" lon="-2.365437028929591">
        <ele>582.20000000000005</ele>
        <time>2019-06-23T08:05:04Z</time>
      </trkpt>
      <trkpt lat="42.876238971948624" lon="-2.365246005356312">
        <ele>582</ele>
        <time>2019-06-23T08:05:06Z</time>
      </trkpt>
      <trkpt lat="42.876218017190695" lon="-2.365151960402727">
        <ele>582</ele>
        <time>2019-06-23T08:05:07Z</time>
      </trkpt>
      <trkpt lat="42.876195972785354" lon="-2.365057999268174">
        <ele>582</ele>
        <time>2019-06-23T08:05:08Z</time>
      </trkpt>
      <trkpt lat="42.876174012199044" lon="-2.36496496014297">
        <ele>582.20000000000005</ele>
        <time>2019-06-23T08:05:09Z</time>
      </trkpt>
      <trkpt lat="42.876152973622084" lon="-2.364872004836798">
        <ele>582.20000000000005</ele>
        <time>2019-06-23T08:05:10Z</time>
      </trkpt>
      <trkpt lat="42.876116009429097" lon="-2.364685004577041">
        <ele>582.39999999999998</ele>
        <time>2019-06-23T08:05:12Z</time>
      </trkpt>
      <trkpt lat="42.876104023307562" lon="-2.364589031785727">
        <ele>582.39999999999998</ele>
        <time>2019-06-23T08:05:13Z</time>
      </trkpt>
      <trkpt lat="42.87609999999404" lon="-2.36449096351862">
        <ele>582.60000000000002</ele>
        <time>2019-06-23T08:05:14Z</time>
      </trkpt>
      <trkpt lat="42.876106034964323" lon="-2.364391973242164">
        <ele>582.79999999999995</ele>
        <time>2019-06-23T08:05:15Z</time>
      </trkpt>
      <trkpt lat="42.876121960580349" lon="-2.364292982965708">
        <ele>582.79999999999995</ele>
        <time>2019-06-23T08:05:16Z</time>
      </trkpt>
      <trkpt lat="42.876146016642451" lon="-2.364197010174394">
        <ele>582.79999999999995</ele>
        <time>2019-06-23T08:05:17Z</time>
      </trkpt>
      <trkpt lat="42.876177029684186" lon="-2.364102965220809">
        <ele>582.79999999999995</ele>
        <time>2019-06-23T08:05:18Z</time>
      </trkpt>
      <trkpt lat="42.87624903023243" lon="-2.363924011588097">
        <ele>583</ele>
        <time>2019-06-23T08:05:20Z</time>
      </trkpt>
      <trkpt lat="42.876327987760305" lon="-2.363751009106636">
        <ele>583.20000000000005</ele>
        <time>2019-06-23T08:05:22Z</time>
      </trkpt>
      <trkpt lat="42.876409040763974" lon="-2.363582029938698">
        <ele>583.20000000000005</ele>
        <time>2019-06-23T08:05:24Z</time>
      </trkpt>
      <trkpt lat="42.876485986635089" lon="-2.363413972780109">
        <ele>583.20000000000005</ele>
        <time>2019-06-23T08:05:26Z</time>
      </trkpt>
      <trkpt lat="42.876566033810377" lon="-2.363253962248564">
        <ele>583.39999999999998</ele>
        <time>2019-06-23T08:05:28Z</time>
      </trkpt>
      <trkpt lat="42.876643985509872" lon="-2.363099986687303">
        <ele>583.39999999999998</ele>
        <time>2019-06-23T08:05:30Z</time>
      </trkpt>
      <trkpt lat="42.876682039350271" lon="-2.363024968653917">
        <ele>583.39999999999998</ele>
        <time>2019-06-23T08:05:31Z</time>
      </trkpt>
      <trkpt lat="42.876720009371638" lon="-2.362950034439564">
        <ele>583.60000000000002</ele>
        <time>2019-06-23T08:05:32Z</time>
      </trkpt>
      <trkpt lat="42.876794021576643" lon="-2.362803015857935">
        <ele>583.39999999999998</ele>
        <time>2019-06-23T08:05:34Z</time>
      </trkpt>
      <trkpt lat="42.876865016296506" lon="-2.362658008933067">
        <ele>583.60000000000002</ele>
        <time>2019-06-23T08:05:36Z</time>
      </trkpt>
      <trkpt lat="42.876930981874466" lon="-2.362519036978483">
        <ele>583.60000000000002</ele>
        <time>2019-06-23T08:05:38Z</time>
      </trkpt>
      <trkpt lat="42.876963000744581" lon="-2.36245097592473">
        <ele>583.60000000000002</ele>
        <time>2019-06-23T08:05:39Z</time>
      </trkpt>
      <trkpt lat="42.876994013786316" lon="-2.36238400451839">
        <ele>583.79999999999995</ele>
        <time>2019-06-23T08:05:40Z</time>
      </trkpt>
      <trkpt lat="42.877055034041405" lon="-2.362251989543438">
        <ele>583.79999999999995</ele>
        <time>2019-06-23T08:05:42Z</time>
      </trkpt>
      <trkpt lat="42.877114964649081" lon="-2.362121986225247">
        <ele>584</ele>
        <time>2019-06-23T08:05:44Z</time>
      </trkpt>
      <trkpt lat="42.87717598490417" lon="-2.361991982907057">
        <ele>584.39999999999998</ele>
        <time>2019-06-23T08:05:46Z</time>
      </trkpt>
      <trkpt lat="42.877234993502498" lon="-2.361862985417247">
        <ele>584.79999999999995</ele>
        <time>2019-06-23T08:05:48Z</time>
      </trkpt>
      <trkpt lat="42.877292996272445" lon="-2.361732982099056">
        <ele>585.20000000000005</ele>
        <time>2019-06-23T08:05:50Z</time>
      </trkpt>
      <trkpt lat="42.877348987385631" lon="-2.361603984609246">
        <ele>585.39999999999998</ele>
        <time>2019-06-23T08:05:52Z</time>
      </trkpt>
      <trkpt lat="42.877376982942224" lon="-2.361541958525777">
        <ele>585.39999999999998</ele>
        <time>2019-06-23T08:05:53Z</time>
      </trkpt>
      <trkpt lat="42.877403972670436" lon="-2.36148102208972">
        <ele>585.60000000000002</ele>
        <time>2019-06-23T08:05:54Z</time>
      </trkpt>
      <trkpt lat="42.877430962398648" lon="-2.361421007663012">
        <ele>585.60000000000002</ele>
        <time>2019-06-23T08:05:55Z</time>
      </trkpt>
      <trkpt lat="42.877457030117512" lon="-2.361360993236303">
        <ele>585.60000000000002</ele>
        <time>2019-06-23T08:05:56Z</time>
      </trkpt>
      <trkpt lat="42.877507992088795" lon="-2.361242976039648">
        <ele>585.79999999999995</ele>
        <time>2019-06-23T08:05:58Z</time>
      </trkpt>
      <trkpt lat="42.877559959888458" lon="-2.361127976328135">
        <ele>586</ele>
        <time>2019-06-23T08:06:00Z</time>
      </trkpt>
      <trkpt lat="42.877585021778941" lon="-2.361071985214949">
        <ele>586.20000000000005</ele>
        <time>2019-06-23T08:06:01Z</time>
      </trkpt>
      <trkpt lat="42.877608994022012" lon="-2.361014988273382">
        <ele>586.60000000000002</ele>
        <time>2019-06-23T08:06:02Z</time>
      </trkpt>
      <trkpt lat="42.877659033983946" lon="-2.36090200021863">
        <ele>587.60000000000002</ele>
        <time>2019-06-23T08:06:04Z</time>
      </trkpt>
      <trkpt lat="42.877707984298468" lon="-2.360787000507116">
        <ele>588.20000000000005</ele>
        <time>2019-06-23T08:06:06Z</time>
      </trkpt>
      <trkpt lat="42.877758024260402" lon="-2.360673006623983">
        <ele>588.79999999999995</ele>
        <time>2019-06-23T08:06:08Z</time>
      </trkpt>
      <trkpt lat="42.877808986231685" lon="-2.36055800691247">
        <ele>589.60000000000002</ele>
        <time>2019-06-23T08:06:10Z</time>
      </trkpt>
      <trkpt lat="42.877859026193619" lon="-2.360442001372576">
        <ele>590</ele>
        <time>2019-06-23T08:06:12Z</time>
      </trkpt>
      <trkpt lat="42.877885010093451" lon="-2.360383998602629">
        <ele>590.20000000000005</ele>
        <time>2019-06-23T08:06:13Z</time>
      </trkpt>
      <trkpt lat="42.877909988164902" lon="-2.360324990004301">
        <ele>590.39999999999998</ele>
        <time>2019-06-23T08:06:14Z</time>
      </trkpt>
      <trkpt lat="42.877934966236353" lon="-2.360266987234354">
        <ele>590.60000000000002</ele>
        <time>2019-06-23T08:06:15Z</time>
      </trkpt>
      <trkpt lat="42.877960028126836" lon="-2.360207978636026">
        <ele>590.60000000000002</ele>
        <time>2019-06-23T08:06:16Z</time>
      </trkpt>
      <trkpt lat="42.878010990098119" lon="-2.360091973096132">
        <ele>590.79999999999995</ele>
        <time>2019-06-23T08:06:18Z</time>
      </trkpt>
      <trkpt lat="42.878063041716814" lon="-2.359975967556238">
        <ele>590.79999999999995</ele>
        <time>2019-06-23T08:06:20Z</time>
      </trkpt>
      <trkpt lat="42.878114003688097" lon="-2.359859962016344">
        <ele>591.20000000000005</ele>
        <time>2019-06-23T08:06:22Z</time>
      </trkpt>
      <trkpt lat="42.878163959830999" lon="-2.359744962304831">
        <ele>591.79999999999995</ele>
        <time>2019-06-23T08:06:24Z</time>
      </trkpt>
      <trkpt lat="42.878189021721482" lon="-2.359687965363264">
        <ele>591.79999999999995</ele>
        <time>2019-06-23T08:06:25Z</time>
      </trkpt>
      <trkpt lat="42.878213999792933" lon="-2.359630968421698">
        <ele>592</ele>
        <time>2019-06-23T08:06:26Z</time>
      </trkpt>
      <trkpt lat="42.878264039754868" lon="-2.359516974538565">
        <ele>592.20000000000005</ele>
        <time>2019-06-23T08:06:28Z</time>
      </trkpt>
      <trkpt lat="42.878288011997938" lon="-2.359460983425379">
        <ele>592.39999999999998</ele>
        <time>2019-06-23T08:06:29Z</time>
      </trkpt>
      <trkpt lat="42.878310978412628" lon="-2.359404992312193">
        <ele>592.39999999999998</ele>
        <time>2019-06-23T08:06:30Z</time>
      </trkpt>
      <trkpt lat="42.878336040303111" lon="-2.359350007027388">
        <ele>592.60000000000002</ele>
        <time>2019-06-23T08:06:31Z</time>
      </trkpt>
      <trkpt lat="42.878362024202943" lon="-2.359296027570963">
        <ele>592.60000000000002</ele>
        <time>2019-06-23T08:06:32Z</time>
      </trkpt>
      <trkpt lat="42.878410974517465" lon="-2.359189996495843">
        <ele>593.39999999999998</ele>
        <time>2019-06-23T08:06:34Z</time>
      </trkpt>
      <trkpt lat="42.878434024751186" lon="-2.359134005382657">
        <ele>593.60000000000002</ele>
        <time>2019-06-23T08:06:35Z</time>
      </trkpt>
      <trkpt lat="42.878453973680735" lon="-2.359079020097852">
        <ele>594</ele>
        <time>2019-06-23T08:06:36Z</time>
      </trkpt>
      <trkpt lat="42.878490015864372" lon="-2.358976006507874">
        <ele>594.20000000000005</ele>
        <time>2019-06-23T08:06:38Z</time>
      </trkpt>
      <trkpt lat="42.878535026684403" lon="-2.358880033716559">
        <ele>595</ele>
        <time>2019-06-23T08:06:40Z</time>
      </trkpt>
      <trkpt lat="42.878554975613952" lon="-2.358833011239767">
        <ele>595.20000000000005</ele>
        <time>2019-06-23T08:06:41Z</time>
      </trkpt>
      <trkpt lat="42.878576014190912" lon="-2.358786994591355">
        <ele>595.20000000000005</ele>
        <time>2019-06-23T08:06:42Z</time>
      </trkpt>
      <trkpt lat="42.878617001697421" lon="-2.358697978779674">
        <ele>595.79999999999995</ele>
        <time>2019-06-23T08:06:44Z</time>
      </trkpt>
      <trkpt lat="42.878667963668704" lon="-2.358619021251798">
        <ele>596.20000000000005</ele>
        <time>2019-06-23T08:06:46Z</time>
      </trkpt>
      <trkpt lat="42.878727978095412" lon="-2.35853897407651">
        <ele>597</ele>
        <time>2019-06-23T08:06:48Z</time>
      </trkpt>
      <trkpt lat="42.878795033320785" lon="-2.358461022377014">
        <ele>597.79999999999995</ele>
        <time>2019-06-23T08:06:50Z</time>
      </trkpt>
      <trkpt lat="42.878871979191899" lon="-2.35838701017201">
        <ele>598.79999999999995</ele>
        <time>2019-06-23T08:06:52Z</time>
      </trkpt>
      <trkpt lat="42.87895898334682" lon="-2.35830201767385">
        <ele>599.79999999999995</ele>
        <time>2019-06-23T08:06:54Z</time>
      </trkpt>
      <trkpt lat="42.87900198251009" lon="-2.358246026560664">
        <ele>600</ele>
        <time>2019-06-23T08:06:55Z</time>
      </trkpt>
      <trkpt lat="42.87904598750174" lon="-2.358177965506911">
        <ele>600.39999999999998</ele>
        <time>2019-06-23T08:06:56Z</time>
      </trkpt>
      <trkpt lat="42.879092004150152" lon="-2.358100013807416">
        <ele>600.20000000000005</ele>
        <time>2019-06-23T08:06:57Z</time>
      </trkpt>
      <trkpt lat="42.879142966121435" lon="-2.358012003824115">
        <ele>600.39999999999998</ele>
        <time>2019-06-23T08:06:58Z</time>
      </trkpt>
      <trkpt lat="42.879198035225272" lon="-2.35791795887053">
        <ele>600.39999999999998</ele>
        <time>2019-06-23T08:06:59Z</time>
      </trkpt>
      <trkpt lat="42.87925997748971" lon="-2.357819974422455">
        <ele>600.39999999999998</ele>
        <time>2019-06-23T08:07:00Z</time>
      </trkpt>
      <trkpt lat="42.879327032715082" lon="-2.357718972489238">
        <ele>600.39999999999998</ele>
        <time>2019-06-23T08:07:01Z</time>
      </trkpt>
      <trkpt lat="42.879398027434945" lon="-2.35761595889926">
        <ele>600.39999999999998</ele>
        <time>2019-06-23T08:07:02Z</time>
      </trkpt>
      <trkpt lat="42.879544962197542" lon="-2.357402974739671">
        <ele>600</ele>
        <time>2019-06-23T08:07:04Z</time>
      </trkpt>
      <trkpt lat="42.879691980779171" lon="-2.35718596726656">
        <ele>598.79999999999995</ele>
        <time>2019-06-23T08:07:06Z</time>
      </trkpt>
      <trkpt lat="42.879832964390516" lon="-2.356976000592113">
        <ele>596</ele>
        <time>2019-06-23T08:07:08Z</time>
      </trkpt>
      <trkpt lat="42.879970008507371" lon="-2.356773996725678">
        <ele>593.79999999999995</ele>
        <time>2019-06-23T08:07:10Z</time>
      </trkpt>
      <trkpt lat="42.880099005997181" lon="-2.356577022001147">
        <ele>591.79999999999995</ele>
        <time>2019-06-23T08:07:12Z</time>
      </trkpt>
      <trkpt lat="42.88022599183023" lon="-2.356383986771107">
        <ele>590.20000000000005</ele>
        <time>2019-06-23T08:07:14Z</time>
      </trkpt>
      <trkpt lat="42.880353983491659" lon="-2.356198998168111">
        <ele>589</ele>
        <time>2019-06-23T08:07:16Z</time>
      </trkpt>
      <trkpt lat="42.88041802123189" lon="-2.356109982356429">
        <ele>589</ele>
        <time>2019-06-23T08:07:17Z</time>
      </trkpt>
      <trkpt lat="42.880481975153089" lon="-2.356022978201509">
        <ele>588.79999999999995</ele>
        <time>2019-06-23T08:07:18Z</time>
      </trkpt>
      <trkpt lat="42.88061298429966" lon="-2.355855004861951">
        <ele>588.79999999999995</ele>
        <time>2019-06-23T08:07:20Z</time>
      </trkpt>
      <trkpt lat="42.88074198178947" lon="-2.355685019865632">
        <ele>588.60000000000002</ele>
        <time>2019-06-23T08:07:22Z</time>
      </trkpt>
      <trkpt lat="42.880862010642886" lon="-2.35550899989903">
        <ele>588.60000000000002</ele>
        <time>2019-06-23T08:07:24Z</time>
      </trkpt>
      <trkpt lat="42.880918001756072" lon="-2.355418978258967">
        <ele>588.39999999999998</ele>
        <time>2019-06-23T08:07:25Z</time>
      </trkpt>
      <trkpt lat="42.880970975384116" lon="-2.355327028781176">
        <ele>588.39999999999998</ele>
        <time>2019-06-23T08:07:26Z</time>
      </trkpt>
      <trkpt lat="42.881076000630856" lon="-2.355142962187529">
        <ele>588.39999999999998</ele>
        <time>2019-06-23T08:07:28Z</time>
      </trkpt>
      <trkpt lat="42.881177002564073" lon="-2.354959985241294">
        <ele>588.60000000000002</ele>
        <time>2019-06-23T08:07:30Z</time>
      </trkpt>
      <trkpt lat="42.88127800449729" lon="-2.354782037436962">
        <ele>588.39999999999998</ele>
        <time>2019-06-23T08:07:32Z</time>
      </trkpt>
      <trkpt lat="42.881373977288604" lon="-2.354608029127121">
        <ele>588.39999999999998</ele>
        <time>2019-06-23T08:07:34Z</time>
      </trkpt>
      <trkpt lat="42.881467016413808" lon="-2.35443796031177">
        <ele>588.60000000000002</ele>
        <time>2019-06-23T08:07:36Z</time>
      </trkpt>
      <trkpt lat="42.88155703805387" lon="-2.354269986972213">
        <ele>588.79999999999995</ele>
        <time>2019-06-23T08:07:38Z</time>
      </trkpt>
      <trkpt lat="42.881643958389759" lon="-2.354104025289416">
        <ele>588.79999999999995</ele>
        <time>2019-06-23T08:07:40Z</time>
      </trkpt>
      <trkpt lat="42.881730040535331" lon="-2.353938985615969">
        <ele>588.60000000000002</ele>
        <time>2019-06-23T08:07:42Z</time>
      </trkpt>
      <trkpt lat="42.88181402720511" lon="-2.353774029761553">
        <ele>588.60000000000002</ele>
        <time>2019-06-23T08:07:44Z</time>
      </trkpt>
      <trkpt lat="42.881856020539999" lon="-2.353689959272742">
        <ele>588.79999999999995</ele>
        <time>2019-06-23T08:07:45Z</time>
      </trkpt>
      <trkpt lat="42.881898013874888" lon="-2.353607984259725">
        <ele>588.60000000000002</ele>
        <time>2019-06-23T08:07:46Z</time>
      </trkpt>
      <trkpt lat="42.881982000544667" lon="-2.353440010920167">
        <ele>588.79999999999995</ele>
        <time>2019-06-23T08:07:48Z</time>
      </trkpt>
      <trkpt lat="42.882024999707937" lon="-2.353357030078769">
        <ele>588.79999999999995</ele>
        <time>2019-06-23T08:07:49Z</time>
      </trkpt>
      <trkpt lat="42.882065987214446" lon="-2.3532759770751">
        <ele>588.79999999999995</ele>
        <time>2019-06-23T08:07:50Z</time>
      </trkpt>
      <trkpt lat="42.88213798776269" lon="-2.353113032877445">
        <ele>588.79999999999995</ele>
        <time>2019-06-23T08:07:52Z</time>
      </trkpt>
      <trkpt lat="42.882172018289566" lon="-2.353031979873776">
        <ele>589</ele>
        <time>2019-06-23T08:07:53Z</time>
      </trkpt>
      <trkpt lat="42.882205964997411" lon="-2.352951010689139">
        <ele>589</ele>
        <time>2019-06-23T08:07:54Z</time>
      </trkpt>
      <trkpt lat="42.882274026051164" lon="-2.352789994329214">
        <ele>589.20000000000005</ele>
        <time>2019-06-23T08:07:56Z</time>
      </trkpt>
      <trkpt lat="42.882343009114265" lon="-2.35263098962605">
        <ele>589.79999999999995</ele>
        <time>2019-06-23T08:07:58Z</time>
      </trkpt>
      <trkpt lat="42.882411992177367" lon="-2.352476008236408">
        <ele>590</ele>
        <time>2019-06-23T08:08:00Z</time>
      </trkpt>
      <trkpt lat="42.882480975240469" lon="-2.352318009361625">
        <ele>590</ele>
        <time>2019-06-23T08:08:02Z</time>
      </trkpt>
      <trkpt lat="42.882550964131951" lon="-2.352161016315222">
        <ele>590.20000000000005</ele>
        <time>2019-06-23T08:08:04Z</time>
      </trkpt>
      <trkpt lat="42.882586000487208" lon="-2.352082980796695">
        <ele>590.39999999999998</ele>
        <time>2019-06-23T08:08:05Z</time>
      </trkpt>
      <trkpt lat="42.882622964680195" lon="-2.35200603492558">
        <ele>590.39999999999998</ele>
        <time>2019-06-23T08:08:06Z</time>
      </trkpt>
      <trkpt lat="42.882693959400058" lon="-2.351850969716907">
        <ele>590.39999999999998</ele>
        <time>2019-06-23T08:08:08Z</time>
      </trkpt>
      <trkpt lat="42.882767971605062" lon="-2.351700011640787">
        <ele>590.39999999999998</ele>
        <time>2019-06-23T08:08:10Z</time>
      </trkpt>
      <trkpt lat="42.882845001295209" lon="-2.35155500471592">
        <ele>590.60000000000002</ele>
        <time>2019-06-23T08:08:12Z</time>
      </trkpt>
      <trkpt lat="42.882925970479846" lon="-2.351414021104574">
        <ele>590.60000000000002</ele>
        <time>2019-06-23T08:08:14Z</time>
      </trkpt>
      <trkpt lat="42.882967041805387" lon="-2.351344032213092">
        <ele>590.60000000000002</ele>
        <time>2019-06-23T08:08:15Z</time>
      </trkpt>
      <trkpt lat="42.883008029311895" lon="-2.351273959502578">
        <ele>590.79999999999995</ele>
        <time>2019-06-23T08:08:16Z</time>
      </trkpt>
      <trkpt lat="42.883090004324913" lon="-2.351133981719613">
        <ele>590.79999999999995</ele>
        <time>2019-06-23T08:08:18Z</time>
      </trkpt>
      <trkpt lat="42.88316996768117" lon="-2.350992998108268">
        <ele>590.79999999999995</ele>
        <time>2019-06-23T08:08:20Z</time>
      </trkpt>
      <trkpt lat="42.88321103900671" lon="-2.350923009216785">
        <ele>591</ele>
        <time>2019-06-23T08:08:21Z</time>
      </trkpt>
      <trkpt lat="42.883252026513219" lon="-2.350852014496923">
        <ele>591</ele>
        <time>2019-06-23T08:08:22Z</time>
      </trkpt>
      <trkpt lat="42.883334001526237" lon="-2.350709019228816">
        <ele>591.20000000000005</ele>
        <time>2019-06-23T08:08:24Z</time>
      </trkpt>
      <trkpt lat="42.883413964882493" lon="-2.350565018132329">
        <ele>591.39999999999998</ele>
        <time>2019-06-23T08:08:26Z</time>
      </trkpt>
      <trkpt lat="42.883494012057781" lon="-2.350421017035842">
        <ele>591.79999999999995</ele>
        <time>2019-06-23T08:08:28Z</time>
      </trkpt>
      <trkpt lat="42.883574981242418" lon="-2.350276010110974">
        <ele>592.20000000000005</ele>
        <time>2019-06-23T08:08:30Z</time>
      </trkpt>
      <trkpt lat="42.883653016760945" lon="-2.350128991529346">
        <ele>592.60000000000002</ele>
        <time>2019-06-23T08:08:32Z</time>
      </trkpt>
      <trkpt lat="42.883729040622711" lon="-2.349979961290956">
        <ele>592.79999999999995</ele>
        <time>2019-06-23T08:08:34Z</time>
      </trkpt>
      <trkpt lat="42.883803974837065" lon="-2.349833026528359">
        <ele>593</ele>
        <time>2019-06-23T08:08:36Z</time>
      </trkpt>
      <trkpt lat="42.883876981213689" lon="-2.34968701377511">
        <ele>593.20000000000005</ele>
        <time>2019-06-23T08:08:38Z</time>
      </trkpt>
      <trkpt lat="42.883951999247074" lon="-2.349541001021862">
        <ele>593.39999999999998</ele>
        <time>2019-06-23T08:08:40Z</time>
      </trkpt>
      <trkpt lat="42.884023999795318" lon="-2.349391970783472">
        <ele>593.60000000000002</ele>
        <time>2019-06-23T08:08:42Z</time>
      </trkpt>
      <trkpt lat="42.884096000343561" lon="-2.349237995222211">
        <ele>593.79999999999995</ele>
        <time>2019-06-23T08:08:44Z</time>
      </trkpt>
      <trkpt lat="42.884169006720185" lon="-2.349082008004189">
        <ele>593.79999999999995</ele>
        <time>2019-06-23T08:08:46Z</time>
      </trkpt>
      <trkpt lat="42.884244024753571" lon="-2.348921997472644">
        <ele>594</ele>
        <time>2019-06-23T08:08:48Z</time>
      </trkpt>
      <trkpt lat="42.884318036958575" lon="-2.348761986941099">
        <ele>594</ele>
        <time>2019-06-23T08:08:50Z</time>
      </trkpt>
      <trkpt lat="42.884391965344548" lon="-2.348599964752793">
        <ele>594</ele>
        <time>2019-06-23T08:08:52Z</time>
      </trkpt>
      <trkpt lat="42.884465977549553" lon="-2.348438026383519">
        <ele>594</ele>
        <time>2019-06-23T08:08:54Z</time>
      </trkpt>
      <trkpt lat="42.884543007239699" lon="-2.348284972831607">
        <ele>594</ele>
        <time>2019-06-23T08:08:56Z</time>
      </trkpt>
      <trkpt lat="42.884622970595956" lon="-2.34814097173512">
        <ele>594</ele>
        <time>2019-06-23T08:08:58Z</time>
      </trkpt>
      <trkpt lat="42.884705029428005" lon="-2.348007028922439">
        <ele>594</ele>
        <time>2019-06-23T08:09:00Z</time>
      </trkpt>
      <trkpt lat="42.884798990562558" lon="-2.347890017554164">
        <ele>594</ele>
        <time>2019-06-23T08:09:02Z</time>
      </trkpt>
      <trkpt lat="42.884903009980917" lon="-2.347793038934469">
        <ele>594.20000000000005</ele>
        <time>2019-06-23T08:09:04Z</time>
      </trkpt>
      <trkpt lat="42.885009041056037" lon="-2.347701005637646">
        <ele>594.20000000000005</ele>
        <time>2019-06-23T08:09:06Z</time>
      </trkpt>
      <trkpt lat="42.885116999968886" lon="-2.347609978169203">
        <ele>594.20000000000005</ele>
        <time>2019-06-23T08:09:08Z</time>
      </trkpt>
      <trkpt lat="42.885228982195258" lon="-2.347519034519792">
        <ele>594.60000000000002</ele>
        <time>2019-06-23T08:09:10Z</time>
      </trkpt>
      <trkpt lat="42.88534096442163" lon="-2.34743001870811">
        <ele>595.20000000000005</ele>
        <time>2019-06-23T08:09:12Z</time>
      </trkpt>
      <trkpt lat="42.885451018810272" lon="-2.347347959876061">
        <ele>595.60000000000002</ele>
        <time>2019-06-23T08:09:14Z</time>
      </trkpt>
      <trkpt lat="42.885550009086728" lon="-2.347257016226649">
        <ele>596.20000000000005</ele>
        <time>2019-06-23T08:09:16Z</time>
      </trkpt>
      <trkpt lat="42.885613963007927" lon="-2.347122989594936">
        <ele>596.39999999999998</ele>
        <time>2019-06-23T08:09:18Z</time>
      </trkpt>
      <trkpt lat="42.885631984099746" lon="-2.346959039568901">
        <ele>596.60000000000002</ele>
        <time>2019-06-23T08:09:20Z</time>
      </trkpt>
      <trkpt lat="42.885628966614604" lon="-2.346872035413981">
        <ele>596.60000000000002</ele>
        <time>2019-06-23T08:09:21Z</time>
      </trkpt>
      <trkpt lat="42.885625027120113" lon="-2.34678796492517">
        <ele>596.60000000000002</ele>
        <time>2019-06-23T08:09:22Z</time>
      </trkpt>
      <trkpt lat="42.885616980493069" lon="-2.346703978255391">
        <ele>596.79999999999995</ele>
        <time>2019-06-23T08:09:23Z</time>
      </trkpt>
      <trkpt lat="42.885607006028295" lon="-2.346622003242374">
        <ele>596.79999999999995</ele>
        <time>2019-06-23T08:09:24Z</time>
      </trkpt>
      <trkpt lat="42.885586973279715" lon="-2.346456041559577">
        <ele>596.79999999999995</ele>
        <time>2019-06-23T08:09:26Z</time>
      </trkpt>
      <trkpt lat="42.885570041835308" lon="-2.346285972744227">
        <ele>596.60000000000002</ele>
        <time>2019-06-23T08:09:28Z</time>
      </trkpt>
      <trkpt lat="42.885564006865025" lon="-2.346200980246067">
        <ele>596.60000000000002</ele>
        <time>2019-06-23T08:09:29Z</time>
      </trkpt>
      <trkpt lat="42.885555038228631" lon="-2.346114981919527">
        <ele>596.79999999999995</ele>
        <time>2019-06-23T08:09:30Z</time>
      </trkpt>
      <trkpt lat="42.885539028793573" lon="-2.345938961952925">
        <ele>596.79999999999995</ele>
        <time>2019-06-23T08:09:32Z</time>
      </trkpt>
      <trkpt lat="42.885526958853006" lon="-2.345761014148593">
        <ele>596.79999999999995</ele>
        <time>2019-06-23T08:09:34Z</time>
      </trkpt>
      <trkpt lat="42.885516984388232" lon="-2.345587005838752">
        <ele>597</ele>
        <time>2019-06-23T08:09:36Z</time>
      </trkpt>
      <trkpt lat="42.885509021580219" lon="-2.345430012792349">
        <ele>596.79999999999995</ele>
        <time>2019-06-23T08:09:38Z</time>
      </trkpt>
      <trkpt lat="42.885498041287065" lon="-2.345265978947282">
        <ele>597</ele>
        <time>2019-06-23T08:09:40Z</time>
      </trkpt>
      <trkpt lat="42.885488988831639" lon="-2.345100017264485">
        <ele>597</ele>
        <time>2019-06-23T08:09:42Z</time>
      </trkpt>
      <trkpt lat="42.885483959689736" lon="-2.345016030594707">
        <ele>597</ele>
        <time>2019-06-23T08:09:43Z</time>
      </trkpt>
      <trkpt lat="42.885478008538485" lon="-2.344931038096547">
        <ele>597</ele>
        <time>2019-06-23T08:09:44Z</time>
      </trkpt>
      <trkpt lat="42.88546702824533" lon="-2.344759963452816">
        <ele>597.20000000000005</ele>
        <time>2019-06-23T08:09:46Z</time>
      </trkpt>
      <trkpt lat="42.885457975789905" lon="-2.344589978456497">
        <ele>597.39999999999998</ele>
        <time>2019-06-23T08:09:48Z</time>
      </trkpt>
      <trkpt lat="42.885440960526466" lon="-2.344420999288559">
        <ele>597.60000000000002</ele>
        <time>2019-06-23T08:09:50Z</time>
      </trkpt>
      <trkpt lat="42.885416988283396" lon="-2.344254031777382">
        <ele>597.79999999999995</ele>
        <time>2019-06-23T08:09:52Z</time>
      </trkpt>
      <trkpt lat="42.885383041575551" lon="-2.344091003760696">
        <ele>598</ele>
        <time>2019-06-23T08:09:54Z</time>
      </trkpt>
      <trkpt lat="42.88533803075552" lon="-2.343935016542673">
        <ele>598.20000000000005</ele>
        <time>2019-06-23T08:09:56Z</time>
      </trkpt>
      <trkpt lat="42.885284973308444" lon="-2.343784980475903">
        <ele>598.20000000000005</ele>
        <time>2019-06-23T08:09:58Z</time>
      </trkpt>
      <trkpt lat="42.885228982195258" lon="-2.343639973551035">
        <ele>598.39999999999998</ele>
        <time>2019-06-23T08:10:00Z</time>
      </trkpt>
      <trkpt lat="42.885167961940169" lon="-2.343493038788438">
        <ele>598.39999999999998</ele>
        <time>2019-06-23T08:10:02Z</time>
      </trkpt>
      <trkpt lat="42.885107025504112" lon="-2.34334702603519">
        <ele>598.60000000000002</ele>
        <time>2019-06-23T08:10:04Z</time>
      </trkpt>
      <trkpt lat="42.885044999420643" lon="-2.3431979957968">
        <ele>599</ele>
        <time>2019-06-23T08:10:06Z</time>
      </trkpt>
      <trkpt lat="42.884985990822315" lon="-2.34304703772068">
        <ele>599.39999999999998</ele>
        <time>2019-06-23T08:10:08Z</time>
      </trkpt>
      <trkpt lat="42.884956989437342" lon="-2.342970008030534">
        <ele>599.39999999999998</ele>
        <time>2019-06-23T08:10:09Z</time>
      </trkpt>
      <trkpt lat="42.884926982223988" lon="-2.342893984168768">
        <ele>599.39999999999998</ele>
        <time>2019-06-23T08:10:10Z</time>
      </trkpt>
      <trkpt lat="42.884865961968899" lon="-2.34274503774941">
        <ele>599.60000000000002</ele>
        <time>2019-06-23T08:10:12Z</time>
      </trkpt>
      <trkpt lat="42.884809970855713" lon="-2.34259600751102">
        <ele>599.79999999999995</ele>
        <time>2019-06-23T08:10:14Z</time>
      </trkpt>
      <trkpt lat="42.884750040248036" lon="-2.34244697727263">
        <ele>599.79999999999995</ele>
        <time>2019-06-23T08:10:16Z</time>
      </trkpt>
      <trkpt lat="42.884687008336186" lon="-2.342299036681652">
        <ele>599.79999999999995</ele>
        <time>2019-06-23T08:10:18Z</time>
      </trkpt>
      <trkpt lat="42.884624982252717" lon="-2.342152018100023">
        <ele>600</ele>
        <time>2019-06-23T08:10:20Z</time>
      </trkpt>
      <trkpt lat="42.884562034159899" lon="-2.342006005346775">
        <ele>599.79999999999995</ele>
        <time>2019-06-23T08:10:22Z</time>
      </trkpt>
      <trkpt lat="42.884500008076429" lon="-2.341860998421907">
        <ele>599.79999999999995</ele>
        <time>2019-06-23T08:10:24Z</time>
      </trkpt>
      <trkpt lat="42.884436976164579" lon="-2.341721020638943">
        <ele>600</ele>
        <time>2019-06-23T08:10:26Z</time>
      </trkpt>
      <trkpt lat="42.884370004758239" lon="-2.341585988178849">
        <ele>600.20000000000005</ele>
        <time>2019-06-23T08:10:28Z</time>
      </trkpt>
      <trkpt lat="42.884293980896473" lon="-2.341452967375517">
        <ele>600.60000000000002</ele>
        <time>2019-06-23T08:10:30Z</time>
      </trkpt>
      <trkpt lat="42.884252993389964" lon="-2.341383984312415">
        <ele>600.39999999999998</ele>
        <time>2019-06-23T08:10:31Z</time>
      </trkpt>
      <trkpt lat="42.884211000055075" lon="-2.341312989592552">
        <ele>600.60000000000002</ele>
        <time>2019-06-23T08:10:32Z</time>
      </trkpt>
      <trkpt lat="42.884166995063424" lon="-2.341239983215928">
        <ele>600.60000000000002</ele>
        <time>2019-06-23T08:10:33Z</time>
      </trkpt>
      <trkpt lat="42.884121984243393" lon="-2.341164965182543">
        <ele>600.60000000000002</ele>
        <time>2019-06-23T08:10:34Z</time>
      </trkpt>
      <trkpt lat="42.884075967594981" lon="-2.341089025139809">
        <ele>600.60000000000002</ele>
        <time>2019-06-23T08:10:35Z</time>
      </trkpt>
      <trkpt lat="42.884030034765601" lon="-2.341010989621282">
        <ele>600.60000000000002</ele>
        <time>2019-06-23T08:10:36Z</time>
      </trkpt>
      <trkpt lat="42.883984018117189" lon="-2.340932032093406">
        <ele>600.60000000000002</ele>
        <time>2019-06-23T08:10:37Z</time>
      </trkpt>
      <trkpt lat="42.883936995640397" lon="-2.340855002403259">
        <ele>600.60000000000002</ele>
        <time>2019-06-23T08:10:38Z</time>
      </trkpt>
      <trkpt lat="42.883889973163605" lon="-2.340777972713113">
        <ele>600.39999999999998</ele>
        <time>2019-06-23T08:10:39Z</time>
      </trkpt>
      <trkpt lat="42.883842028677464" lon="-2.340700021013618">
        <ele>600.60000000000002</ele>
        <time>2019-06-23T08:10:40Z</time>
      </trkpt>
      <trkpt lat="42.883745972067118" lon="-2.340544033795595">
        <ele>600</ele>
        <time>2019-06-23T08:10:42Z</time>
      </trkpt>
      <trkpt lat="42.883649999275804" lon="-2.340387040749192">
        <ele>599.20000000000005</ele>
        <time>2019-06-23T08:10:44Z</time>
      </trkpt>
      <trkpt lat="42.883551008999348" lon="-2.340227030217648">
        <ele>598.79999999999995</ele>
        <time>2019-06-23T08:10:46Z</time>
      </trkpt>
      <trkpt lat="42.883454030379653" lon="-2.340064002200961">
        <ele>598.20000000000005</ele>
        <time>2019-06-23T08:10:48Z</time>
      </trkpt>
      <trkpt lat="42.883355962112546" lon="-2.339900974184275">
        <ele>598.20000000000005</ele>
        <time>2019-06-23T08:10:50Z</time>
      </trkpt>
      <trkpt lat="42.883307011798024" lon="-2.339820004999638">
        <ele>597.79999999999995</ele>
        <time>2019-06-23T08:10:51Z</time>
      </trkpt>
      <trkpt lat="42.88325596600771" lon="-2.339740041643381">
        <ele>597.79999999999995</ele>
        <time>2019-06-23T08:10:52Z</time>
      </trkpt>
      <trkpt lat="42.883157981559634" lon="-2.339579025283456">
        <ele>597.39999999999998</ele>
        <time>2019-06-23T08:10:54Z</time>
      </trkpt>
      <trkpt lat="42.883061002939939" lon="-2.339420020580292">
        <ele>597.20000000000005</ele>
        <time>2019-06-23T08:10:56Z</time>
      </trkpt>
      <trkpt lat="42.882965030148625" lon="-2.339261015877128">
        <ele>597.20000000000005</ele>
        <time>2019-06-23T08:10:58Z</time>
      </trkpt>
      <trkpt lat="42.882917001843452" lon="-2.339182980358601">
        <ele>597</ele>
        <time>2019-06-23T08:10:59Z</time>
      </trkpt>
      <trkpt lat="42.88286897353828" lon="-2.339107040315867">
        <ele>597</ele>
        <time>2019-06-23T08:11:00Z</time>
      </trkpt>
      <trkpt lat="42.882823040708899" lon="-2.33903001062572">
        <ele>596.79999999999995</ele>
        <time>2019-06-23T08:11:01Z</time>
      </trkpt>
      <trkpt lat="42.882777024060488" lon="-2.338953986763954">
        <ele>596.79999999999995</ele>
        <time>2019-06-23T08:11:02Z</time>
      </trkpt>
      <trkpt lat="42.882684990763664" lon="-2.338804034516215">
        <ele>596.39999999999998</ele>
        <time>2019-06-23T08:11:04Z</time>
      </trkpt>
      <trkpt lat="42.882592035457492" lon="-2.338656010106206">
        <ele>596.20000000000005</ele>
        <time>2019-06-23T08:11:06Z</time>
      </trkpt>
      <trkpt lat="42.882501007989049" lon="-2.338508991524577">
        <ele>596.20000000000005</ele>
        <time>2019-06-23T08:11:08Z</time>
      </trkpt>
      <trkpt lat="42.882410986348987" lon="-2.338360967114568">
        <ele>596</ele>
        <time>2019-06-23T08:11:10Z</time>
      </trkpt>
      <trkpt lat="42.882321970537305" lon="-2.338210009038448">
        <ele>595.60000000000002</ele>
        <time>2019-06-23T08:11:12Z</time>
      </trkpt>
      <trkpt lat="42.882237983867526" lon="-2.338054021820426">
        <ele>595.60000000000002</ele>
        <time>2019-06-23T08:11:14Z</time>
      </trkpt>
      <trkpt lat="42.88215902633965" lon="-2.33789199963212">
        <ele>595.60000000000002</ele>
        <time>2019-06-23T08:11:16Z</time>
      </trkpt>
      <trkpt lat="42.882089959457517" lon="-2.337722014635801">
        <ele>595.60000000000002</ele>
        <time>2019-06-23T08:11:18Z</time>
      </trkpt>
      <trkpt lat="42.882060036063194" lon="-2.3376340046525">
        <ele>595.60000000000002</ele>
        <time>2019-06-23T08:11:19Z</time>
      </trkpt>
      <trkpt lat="42.88203296251595" lon="-2.337540965527296">
        <ele>595.39999999999998</ele>
        <time>2019-06-23T08:11:20Z</time>
      </trkpt>
      <trkpt lat="42.882007984444499" lon="-2.337442981079221">
        <ele>595.60000000000002</ele>
        <time>2019-06-23T08:11:21Z</time>
      </trkpt>
      <trkpt lat="42.881985018029809" lon="-2.337340973317623">
        <ele>595.39999999999998</ele>
        <time>2019-06-23T08:11:22Z</time>
      </trkpt>
      <trkpt lat="42.881962973624468" lon="-2.337236031889916">
        <ele>595.20000000000005</ele>
        <time>2019-06-23T08:11:23Z</time>
      </trkpt>
      <trkpt lat="42.881940007209778" lon="-2.337128994986415">
        <ele>595.20000000000005</ele>
        <time>2019-06-23T08:11:24Z</time>
      </trkpt>
      <trkpt lat="42.881916034966707" lon="-2.337022041901946">
        <ele>595.20000000000005</ele>
        <time>2019-06-23T08:11:25Z</time>
      </trkpt>
      <trkpt lat="42.881890973076224" lon="-2.336913999170065">
        <ele>595.20000000000005</ele>
        <time>2019-06-23T08:11:26Z</time>
      </trkpt>
      <trkpt lat="42.881840011104941" lon="-2.336699003353715">
        <ele>595.20000000000005</ele>
        <time>2019-06-23T08:11:28Z</time>
      </trkpt>
      <trkpt lat="42.88179500028491" lon="-2.336486019194126">
        <ele>594.60000000000002</ele>
        <time>2019-06-23T08:11:30Z</time>
      </trkpt>
      <trkpt lat="42.881745966151357" lon="-2.336276974529028">
        <ele>593.79999999999995</ele>
        <time>2019-06-23T08:11:32Z</time>
      </trkpt>
      <trkpt lat="42.881717970594764" lon="-2.33617496676743">
        <ele>593.39999999999998</ele>
        <time>2019-06-23T08:11:33Z</time>
      </trkpt>
      <trkpt lat="42.881687041372061" lon="-2.336075976490974">
        <ele>593.20000000000005</ele>
        <time>2019-06-23T08:11:34Z</time>
      </trkpt>
      <trkpt lat="42.881616968661547" lon="-2.335885958746076">
        <ele>592.79999999999995</ele>
        <time>2019-06-23T08:11:36Z</time>
      </trkpt>
      <trkpt lat="42.88153700530529" lon="-2.335702981799841">
        <ele>592.60000000000002</ele>
        <time>2019-06-23T08:11:38Z</time>
      </trkpt>
      <trkpt lat="42.881495011970401" lon="-2.33561203815043">
        <ele>592.60000000000002</ele>
        <time>2019-06-23T08:11:39Z</time>
      </trkpt>
      <trkpt lat="42.881453018635511" lon="-2.335521010681987">
        <ele>592.60000000000002</ele>
        <time>2019-06-23T08:11:40Z</time>
      </trkpt>
      <trkpt lat="42.881368026137352" lon="-2.335337027907372">
        <ele>592.60000000000002</ele>
        <time>2019-06-23T08:11:42Z</time>
      </trkpt>
      <trkpt lat="42.881325026974082" lon="-2.335246000438929">
        <ele>592.39999999999998</ele>
        <time>2019-06-23T08:11:43Z</time>
      </trkpt>
      <trkpt lat="42.881280016154051" lon="-2.335153967142105">
        <ele>592.39999999999998</ele>
        <time>2019-06-23T08:11:44Z</time>
      </trkpt>
      <trkpt lat="42.881189994513988" lon="-2.334966966882348">
        <ele>592.39999999999998</ele>
        <time>2019-06-23T08:11:46Z</time>
      </trkpt>
      <trkpt lat="42.881145989522338" lon="-2.334871999919415">
        <ele>592.20000000000005</ele>
        <time>2019-06-23T08:11:47Z</time>
      </trkpt>
      <trkpt lat="42.881101984530687" lon="-2.3347760271281">
        <ele>592.20000000000005</ele>
        <time>2019-06-23T08:11:48Z</time>
      </trkpt>
      <trkpt lat="42.881060997024179" lon="-2.334677958860993">
        <ele>592.20000000000005</ele>
        <time>2019-06-23T08:11:49Z</time>
      </trkpt>
      <trkpt lat="42.881022021174431" lon="-2.334577962756157">
        <ele>592</ele>
        <time>2019-06-23T08:11:50Z</time>
      </trkpt>
      <trkpt lat="42.880945997312665" lon="-2.334376964718103">
        <ele>592</ele>
        <time>2019-06-23T08:11:52Z</time>
      </trkpt>
      <trkpt lat="42.880872990936041" lon="-2.33417596668005">
        <ele>591.79999999999995</ele>
        <time>2019-06-23T08:11:54Z</time>
      </trkpt>
      <trkpt lat="42.88080501370132" lon="-2.333973962813616">
        <ele>591.20000000000005</ele>
        <time>2019-06-23T08:11:56Z</time>
      </trkpt>
      <trkpt lat="42.880772994831204" lon="-2.33387203887105">
        <ele>591</ele>
        <time>2019-06-23T08:11:57Z</time>
      </trkpt>
      <trkpt lat="42.88074198178947" lon="-2.333771036937833">
        <ele>590.79999999999995</ele>
        <time>2019-06-23T08:11:58Z</time>
      </trkpt>
      <trkpt lat="42.880680039525032" lon="-2.333570960909128">
        <ele>590.60000000000002</ele>
        <time>2019-06-23T08:12:00Z</time>
      </trkpt>
      <trkpt lat="42.880619019269943" lon="-2.333370968699455">
        <ele>590.20000000000005</ele>
        <time>2019-06-23T08:12:02Z</time>
      </trkpt>
      <trkpt lat="42.880556993186474" lon="-2.333172988146544">
        <ele>590.20000000000005</ele>
        <time>2019-06-23T08:12:04Z</time>
      </trkpt>
      <trkpt lat="42.880493961274624" lon="-2.332978025078774">
        <ele>590.20000000000005</ele>
        <time>2019-06-23T08:12:06Z</time>
      </trkpt>
      <trkpt lat="42.880432019010186" lon="-2.332782978191972">
        <ele>590</ele>
        <time>2019-06-23T08:12:08Z</time>
      </trkpt>
      <trkpt lat="42.880368987098336" lon="-2.332588015124202">
        <ele>589.79999999999995</ele>
        <time>2019-06-23T08:12:10Z</time>
      </trkpt>
      <trkpt lat="42.880306039005518" lon="-2.332391040399671">
        <ele>589.39999999999998</ele>
        <time>2019-06-23T08:12:12Z</time>
      </trkpt>
      <trkpt lat="42.880244012922049" lon="-2.332193981856108">
        <ele>589.20000000000005</ele>
        <time>2019-06-23T08:12:14Z</time>
      </trkpt>
      <trkpt lat="42.880179975181818" lon="-2.331999018788338">
        <ele>589</ele>
        <time>2019-06-23T08:12:16Z</time>
      </trkpt>
      <trkpt lat="42.88011996075511" lon="-2.331806989386678">
        <ele>588.79999999999995</ele>
        <time>2019-06-23T08:12:18Z</time>
      </trkpt>
      <trkpt lat="42.880060030147433" lon="-2.331615965813398">
        <ele>588.60000000000002</ele>
        <time>2019-06-23T08:12:20Z</time>
      </trkpt>
      <trkpt lat="42.879998004063964" lon="-2.33142402023077">
        <ele>588.60000000000002</ele>
        <time>2019-06-23T08:12:22Z</time>
      </trkpt>
      <trkpt lat="42.879934972152114" lon="-2.33123199082911">
        <ele>588.60000000000002</ele>
        <time>2019-06-23T08:12:24Z</time>
      </trkpt>
      <trkpt lat="42.879873029887676" lon="-2.33103996142745">
        <ele>588.39999999999998</ele>
        <time>2019-06-23T08:12:26Z</time>
      </trkpt>
      <trkpt lat="42.879844028502703" lon="-2.330942982807756">
        <ele>588.39999999999998</ele>
        <time>2019-06-23T08:12:27Z</time>
      </trkpt>
      <trkpt lat="42.879814021289349" lon="-2.330846004188061">
        <ele>588.39999999999998</ele>
        <time>2019-06-23T08:12:28Z</time>
      </trkpt>
      <trkpt lat="42.87975400686264" lon="-2.330654980614781">
        <ele>588.39999999999998</ele>
        <time>2019-06-23T08:12:30Z</time>
      </trkpt>
      <trkpt lat="42.879723999649286" lon="-2.330561019480228">
        <ele>588.39999999999998</ele>
        <time>2019-06-23T08:12:31Z</time>
      </trkpt>
      <trkpt lat="42.879693992435932" lon="-2.330468986183405">
        <ele>588.39999999999998</ele>
        <time>2019-06-23T08:12:32Z</time>
      </trkpt>
      <trkpt lat="42.879636995494366" lon="-2.330294977873564">
        <ele>588.60000000000002</ele>
        <time>2019-06-23T08:12:34Z</time>
      </trkpt>
      <trkpt lat="42.879579998552799" lon="-2.330122981220484">
        <ele>588.79999999999995</ele>
        <time>2019-06-23T08:12:36Z</time>
      </trkpt>
      <trkpt lat="42.879525013267994" lon="-2.329950984567404">
        <ele>589</ele>
        <time>2019-06-23T08:12:38Z</time>
      </trkpt>
      <trkpt lat="42.879467010498047" lon="-2.329780999571085">
        <ele>589</ele>
        <time>2019-06-23T08:12:40Z</time>
      </trkpt>
      <trkpt lat="42.879412025213242" lon="-2.329609002918005">
        <ele>589.39999999999998</ele>
        <time>2019-06-23T08:12:42Z</time>
      </trkpt>
      <trkpt lat="42.879357039928436" lon="-2.329438012093306">
        <ele>589.79999999999995</ele>
        <time>2019-06-23T08:12:44Z</time>
      </trkpt>
      <trkpt lat="42.879330972209573" lon="-2.329347990453243">
        <ele>590</ele>
        <time>2019-06-23T08:12:45Z</time>
      </trkpt>
      <trkpt lat="42.87930398248136" lon="-2.329256040975452">
        <ele>590.20000000000005</ele>
        <time>2019-06-23T08:12:46Z</time>
      </trkpt>
      <trkpt lat="42.879244973883033" lon="-2.329067029058933">
        <ele>590.20000000000005</ele>
        <time>2019-06-23T08:12:48Z</time>
      </trkpt>
      <trkpt lat="42.879184959456325" lon="-2.328876005485654">
        <ele>590.39999999999998</ele>
        <time>2019-06-23T08:12:50Z</time>
      </trkpt>
      <trkpt lat="42.879128968343139" lon="-2.328683976083994">
        <ele>590.20000000000005</ele>
        <time>2019-06-23T08:12:52Z</time>
      </trkpt>
      <trkpt lat="42.879100972786546" lon="-2.32858800329268">
        <ele>590.20000000000005</ele>
        <time>2019-06-23T08:12:53Z</time>
      </trkpt>
      <trkpt lat="42.879073983058333" lon="-2.328493036329746">
        <ele>590.39999999999998</ele>
        <time>2019-06-23T08:12:54Z</time>
      </trkpt>
      <trkpt lat="42.879017991945148" lon="-2.328305030241609">
        <ele>589.60000000000002</ele>
        <time>2019-06-23T08:12:56Z</time>
      </trkpt>
      <trkpt lat="42.878962000831962" lon="-2.328117024153471">
        <ele>589.39999999999998</ele>
        <time>2019-06-23T08:12:58Z</time>
      </trkpt>
      <trkpt lat="42.878908021375537" lon="-2.327928012236953">
        <ele>589</ele>
        <time>2019-06-23T08:13:00Z</time>
      </trkpt>
      <trkpt lat="42.878881031647325" lon="-2.327832961454988">
        <ele>588.79999999999995</ele>
        <time>2019-06-23T08:13:01Z</time>
      </trkpt>
      <trkpt lat="42.878854963928461" lon="-2.327737994492054">
        <ele>588.79999999999995</ele>
        <time>2019-06-23T08:13:02Z</time>
      </trkpt>
      <trkpt lat="42.878797966986895" lon="-2.327552000060678">
        <ele>588.60000000000002</ele>
        <time>2019-06-23T08:13:04Z</time>
      </trkpt>
      <trkpt lat="42.878769971430302" lon="-2.327458960935473">
        <ele>588.60000000000002</ele>
        <time>2019-06-23T08:13:05Z</time>
      </trkpt>
      <trkpt lat="42.878740970045328" lon="-2.327364999800921">
        <ele>588.60000000000002</ele>
        <time>2019-06-23T08:13:06Z</time>
      </trkpt>
      <trkpt lat="42.878685984760523" lon="-2.327173976227641">
        <ele>588.39999999999998</ele>
        <time>2019-06-23T08:13:08Z</time>
      </trkpt>
      <trkpt lat="42.878632005304098" lon="-2.326983036473393">
        <ele>588.39999999999998</ele>
        <time>2019-06-23T08:13:10Z</time>
      </trkpt>
      <trkpt lat="42.878605015575886" lon="-2.326885974034667">
        <ele>588.60000000000002</ele>
        <time>2019-06-23T08:13:11Z</time>
      </trkpt>
      <trkpt lat="42.878577020019293" lon="-2.326790001243353">
        <ele>588.39999999999998</ele>
        <time>2019-06-23T08:13:12Z</time>
      </trkpt>
      <trkpt lat="42.878521028906107" lon="-2.326597971841693">
        <ele>588.20000000000005</ele>
        <time>2019-06-23T08:13:14Z</time>
      </trkpt>
      <trkpt lat="42.878468977287412" lon="-2.326404014602304">
        <ele>588</ele>
        <time>2019-06-23T08:13:16Z</time>
      </trkpt>
      <trkpt lat="42.878445005044341" lon="-2.326307035982609">
        <ele>588</ele>
        <time>2019-06-23T08:13:17Z</time>
      </trkpt>
      <trkpt lat="42.87842103280127" lon="-2.326209973543882">
        <ele>588</ele>
        <time>2019-06-23T08:13:18Z</time>
      </trkpt>
      <trkpt lat="42.878376021981239" lon="-2.326016016304493">
        <ele>587.60000000000002</ele>
        <time>2019-06-23T08:13:20Z</time>
      </trkpt>
      <trkpt lat="42.878333022817969" lon="-2.325819963589311">
        <ele>587.39999999999998</ele>
        <time>2019-06-23T08:13:22Z</time>
      </trkpt>
      <trkpt lat="42.87829203531146" lon="-2.325621983036399">
        <ele>587.20000000000005</ele>
        <time>2019-06-23T08:13:24Z</time>
      </trkpt>
      <trkpt lat="42.878252975642681" lon="-2.325421990826726">
        <ele>587</ele>
        <time>2019-06-23T08:13:26Z</time>
      </trkpt>
      <trkpt lat="42.878215005621314" lon="-2.325221998617053">
        <ele>586.79999999999995</ele>
        <time>2019-06-23T08:13:28Z</time>
      </trkpt>
      <trkpt lat="42.878195978701115" lon="-2.325120996683836">
        <ele>586.79999999999995</ele>
        <time>2019-06-23T08:13:29Z</time>
      </trkpt>
      <trkpt lat="42.878177035599947" lon="-2.325019994750619">
        <ele>587</ele>
        <time>2019-06-23T08:13:30Z</time>
      </trkpt>
      <trkpt lat="42.878140993416309" lon="-2.324818996712565">
        <ele>586.79999999999995</ele>
        <time>2019-06-23T08:13:32Z</time>
      </trkpt>
      <trkpt lat="42.87812196649611" lon="-2.324717994779348">
        <ele>586.60000000000002</ele>
        <time>2019-06-23T08:13:33Z</time>
      </trkpt>
      <trkpt lat="42.878103023394942" lon="-2.324617998674512">
        <ele>586.60000000000002</ele>
        <time>2019-06-23T08:13:34Z</time>
      </trkpt>
      <trkpt lat="42.878063963726163" lon="-2.32441901229322">
        <ele>586.60000000000002</ele>
        <time>2019-06-23T08:13:36Z</time>
      </trkpt>
      <trkpt lat="42.878023982048035" lon="-2.324217008426786">
        <ele>586.39999999999998</ele>
        <time>2019-06-23T08:13:38Z</time>
      </trkpt>
      <trkpt lat="42.877981988713145" lon="-2.32401299290359">
        <ele>586.20000000000005</ele>
        <time>2019-06-23T08:13:40Z</time>
      </trkpt>
      <trkpt lat="42.877941001206636" lon="-2.323806965723634">
        <ele>586</ele>
        <time>2019-06-23T08:13:42Z</time>
      </trkpt>
      <trkpt lat="42.877901019528508" lon="-2.323598004877567">
        <ele>585.79999999999995</ele>
        <time>2019-06-23T08:13:44Z</time>
      </trkpt>
      <trkpt lat="42.877880986779928" lon="-2.323492979630828">
        <ele>585.79999999999995</ele>
        <time>2019-06-23T08:13:45Z</time>
      </trkpt>
      <trkpt lat="42.87786103785038" lon="-2.32338803820312">
        <ele>585.79999999999995</ele>
        <time>2019-06-23T08:13:46Z</time>
      </trkpt>
      <trkpt lat="42.87782097235322" lon="-2.32317597605288">
        <ele>585.39999999999998</ele>
        <time>2019-06-23T08:13:48Z</time>
      </trkpt>
      <trkpt lat="42.877781996503472" lon="-2.322962991893292">
        <ele>585</ele>
        <time>2019-06-23T08:13:50Z</time>
      </trkpt>
      <trkpt lat="42.877761963754892" lon="-2.322856038808823">
        <ele>584.79999999999995</ele>
        <time>2019-06-23T08:13:51Z</time>
      </trkpt>
      <trkpt lat="42.877740003168583" lon="-2.322749001905322">
        <ele>584.60000000000002</ele>
        <time>2019-06-23T08:13:52Z</time>
      </trkpt>
      <trkpt lat="42.877718964591622" lon="-2.322640959173441">
        <ele>584.39999999999998</ele>
        <time>2019-06-23T08:13:53Z</time>
      </trkpt>
      <trkpt lat="42.877698009833694" lon="-2.322531994432211">
        <ele>584</ele>
        <time>2019-06-23T08:13:54Z</time>
      </trkpt>
      <trkpt lat="42.877654004842043" lon="-2.3223149869591">
        <ele>583.79999999999995</ele>
        <time>2019-06-23T08:13:56Z</time>
      </trkpt>
      <trkpt lat="42.877608994022012" lon="-2.322096973657608">
        <ele>583.79999999999995</ele>
        <time>2019-06-23T08:13:58Z</time>
      </trkpt>
      <trkpt lat="42.877588039264083" lon="-2.321987003087997">
        <ele>583.20000000000005</ele>
        <time>2019-06-23T08:13:59Z</time>
      </trkpt>
      <trkpt lat="42.877568006515503" lon="-2.321877032518387">
        <ele>582.79999999999995</ele>
        <time>2019-06-23T08:14:00Z</time>
      </trkpt>
      <trkpt lat="42.877525007352233" lon="-2.321660025045276">
        <ele>582</ele>
        <time>2019-06-23T08:14:02Z</time>
      </trkpt>
      <trkpt lat="42.877504974603653" lon="-2.321553993970156">
        <ele>581.60000000000002</ele>
        <time>2019-06-23T08:14:03Z</time>
      </trkpt>
      <trkpt lat="42.877484019845724" lon="-2.321449974551797">
        <ele>581.39999999999998</ele>
        <time>2019-06-23T08:14:04Z</time>
      </trkpt>
      <trkpt lat="42.877463987097144" lon="-2.321346960961819">
        <ele>581.20000000000005</ele>
        <time>2019-06-23T08:14:05Z</time>
      </trkpt>
      <trkpt lat="42.877443032339215" lon="-2.321244031190872">
        <ele>581.20000000000005</ele>
        <time>2019-06-23T08:14:06Z</time>
      </trkpt>
      <trkpt lat="42.877401961013675" lon="-2.321040015667677">
        <ele>581</ele>
        <time>2019-06-23T08:14:08Z</time>
      </trkpt>
      <trkpt lat="42.877359967678785" lon="-2.320837005972862">
        <ele>580.60000000000002</ele>
        <time>2019-06-23T08:14:10Z</time>
      </trkpt>
      <trkpt lat="42.877321997657418" lon="-2.320635002106428">
        <ele>580.20000000000005</ele>
        <time>2019-06-23T08:14:12Z</time>
      </trkpt>
      <trkpt lat="42.877303976565599" lon="-2.320532994344831">
        <ele>580.20000000000005</ele>
        <time>2019-06-23T08:14:13Z</time>
      </trkpt>
      <trkpt lat="42.877286039292812" lon="-2.320430986583233">
        <ele>580.20000000000005</ele>
        <time>2019-06-23T08:14:14Z</time>
      </trkpt>
      <trkpt lat="42.877269024029374" lon="-2.320327972993255">
        <ele>580.20000000000005</ele>
        <time>2019-06-23T08:14:15Z</time>
      </trkpt>
      <trkpt lat="42.877253014594316" lon="-2.320225965231657">
        <ele>580.20000000000005</ele>
        <time>2019-06-23T08:14:16Z</time>
      </trkpt>
      <trkpt lat="42.877224013209343" lon="-2.320020021870732">
        <ele>580</ele>
        <time>2019-06-23T08:14:18Z</time>
      </trkpt>
      <trkpt lat="42.87719601765275" lon="-2.319816006347537">
        <ele>580.20000000000005</ele>
        <time>2019-06-23T08:14:20Z</time>
      </trkpt>
      <trkpt lat="42.877170033752918" lon="-2.319612996652722">
        <ele>580</ele>
        <time>2019-06-23T08:14:22Z</time>
      </trkpt>
      <trkpt lat="42.877142960205674" lon="-2.319411998614669">
        <ele>579.79999999999995</ele>
        <time>2019-06-23T08:14:24Z</time>
      </trkpt>
      <trkpt lat="42.877130974084139" lon="-2.319313008338213">
        <ele>579.60000000000002</ele>
        <time>2019-06-23T08:14:25Z</time>
      </trkpt>
      <trkpt lat="42.877118987962604" lon="-2.319214018061757">
        <ele>579.60000000000002</ele>
        <time>2019-06-23T08:14:26Z</time>
      </trkpt>
      <trkpt lat="42.877096021547914" lon="-2.319021988660097">
        <ele>579.39999999999998</ele>
        <time>2019-06-23T08:14:28Z</time>
      </trkpt>
      <trkpt lat="42.877085041254759" lon="-2.318928027525544">
        <ele>579.60000000000002</ele>
        <time>2019-06-23T08:14:29Z</time>
      </trkpt>
      <trkpt lat="42.877073977142572" lon="-2.31883398257196">
        <ele>579.39999999999998</ele>
        <time>2019-06-23T08:14:30Z</time>
      </trkpt>
      <trkpt lat="42.877054028213024" lon="-2.318648993968964">
        <ele>579.39999999999998</ele>
        <time>2019-06-23T08:14:32Z</time>
      </trkpt>
      <trkpt lat="42.877032989636064" lon="-2.318464005365968">
        <ele>579.60000000000002</ele>
        <time>2019-06-23T08:14:34Z</time>
      </trkpt>
      <trkpt lat="42.87702402099967" lon="-2.318370966240764">
        <ele>579.39999999999998</ele>
        <time>2019-06-23T08:14:35Z</time>
      </trkpt>
      <trkpt lat="42.877013040706515" lon="-2.318278010934591">
        <ele>579.39999999999998</ele>
        <time>2019-06-23T08:14:36Z</time>
      </trkpt>
      <trkpt lat="42.876989990472794" lon="-2.318092016503215">
        <ele>579.60000000000002</ele>
        <time>2019-06-23T08:14:38Z</time>
      </trkpt>
      <trkpt lat="42.876968029886484" lon="-2.317905016243458">
        <ele>579.79999999999995</ele>
        <time>2019-06-23T08:14:40Z</time>
      </trkpt>
      <trkpt lat="42.876950008794665" lon="-2.317719021812081">
        <ele>579.79999999999995</ele>
        <time>2019-06-23T08:14:42Z</time>
      </trkpt>
      <trkpt lat="42.876931987702847" lon="-2.317535039037466">
        <ele>579.79999999999995</ele>
        <time>2019-06-23T08:14:44Z</time>
      </trkpt>
      <trkpt lat="42.876922013238072" lon="-2.317444011569023">
        <ele>579.79999999999995</ele>
        <time>2019-06-23T08:14:45Z</time>
      </trkpt>
      <trkpt lat="42.876911032944918" lon="-2.317353989928961">
        <ele>579.79999999999995</ele>
        <time>2019-06-23T08:14:46Z</time>
      </trkpt>
      <trkpt lat="42.87689502350986" lon="-2.317173024639487">
        <ele>579.79999999999995</ele>
        <time>2019-06-23T08:14:48Z</time>
      </trkpt>
      <trkpt lat="42.876882031559944" lon="-2.316988036036491">
        <ele>579.60000000000002</ele>
        <time>2019-06-23T08:14:50Z</time>
      </trkpt>
      <trkpt lat="42.876878008246422" lon="-2.316797012463212">
        <ele>579.79999999999995</ele>
        <time>2019-06-23T08:14:52Z</time>
      </trkpt>
      <trkpt lat="42.876883037388325" lon="-2.316701039671898">
        <ele>579.60000000000002</ele>
        <time>2019-06-23T08:14:53Z</time>
      </trkpt>
      <trkpt lat="42.876891000196338" lon="-2.316602971404791">
        <ele>579.60000000000002</ele>
        <time>2019-06-23T08:14:54Z</time>
      </trkpt>
      <trkpt lat="42.876913966611028" lon="-2.316400967538357">
        <ele>579.60000000000002</ele>
        <time>2019-06-23T08:14:56Z</time>
      </trkpt>
      <trkpt lat="42.876943973824382" lon="-2.31619200669229">
        <ele>579.60000000000002</ele>
        <time>2019-06-23T08:14:58Z</time>
      </trkpt>
      <trkpt lat="42.876974986866117" lon="-2.315982962027192">
        <ele>579.39999999999998</ele>
        <time>2019-06-23T08:15:00Z</time>
      </trkpt>
      <trkpt lat="42.876988984644413" lon="-2.315880032256246">
        <ele>579.20000000000005</ele>
        <time>2019-06-23T08:15:01Z</time>
      </trkpt>
      <trkpt lat="42.877001976594329" lon="-2.315780036151409">
        <ele>579</ele>
        <time>2019-06-23T08:15:02Z</time>
      </trkpt>
      <trkpt lat="42.877015974372625" lon="-2.31559001840651">
        <ele>578.60000000000002</ele>
        <time>2019-06-23T08:15:04Z</time>
      </trkpt>
      <trkpt lat="42.877021003514528" lon="-2.315423972904682">
        <ele>578.20000000000005</ele>
        <time>2019-06-23T08:15:06Z</time>
      </trkpt>
      <trkpt lat="42.877021003514528" lon="-2.315362030640245">
        <ele>578</ele>
        <time>2019-06-23T08:15:07Z</time>
      </trkpt>
      <trkpt lat="42.877022009342909" lon="-2.315322970971465">
        <ele>578</ele>
        <time>2019-06-23T08:15:08Z</time>
      </trkpt>
      <trkpt lat="42.877021003514528" lon="-2.315303022041917">
        <ele>578</ele>
        <time>2019-06-23T08:15:09Z</time>
      </trkpt>
      <trkpt lat="42.877016980201006" lon="-2.315295981243253">
        <ele>578</ele>
        <time>2019-06-23T08:15:10Z</time>
      </trkpt>
      <trkpt lat="42.877012034878135" lon="-2.315292963758111">
        <ele>578</ele>
        <time>2019-06-23T08:15:12Z</time>
      </trkpt>
      <trkpt lat="42.877001976594329" lon="-2.315287012606859">
        <ele>578</ele>
        <time>2019-06-23T08:15:13Z</time>
      </trkpt>
      <trkpt lat="42.876987978816032" lon="-2.31526899151504">
        <ele>577.79999999999995</ele>
        <time>2019-06-23T08:15:14Z</time>
      </trkpt>
      <trkpt lat="42.876980016008019" lon="-2.315237978473306">
        <ele>578</ele>
        <time>2019-06-23T08:15:15Z</time>
      </trkpt>
      <trkpt lat="42.876979010179639" lon="-2.315195985138416">
        <ele>578.60000000000002</ele>
        <time>2019-06-23T08:15:16Z</time>
      </trkpt>
      <trkpt lat="42.876987978816032" lon="-2.31509699486196">
        <ele>579.60000000000002</ele>
        <time>2019-06-23T08:15:18Z</time>
      </trkpt>
      <trkpt lat="42.876998959109187" lon="-2.314980989322066">
        <ele>579.79999999999995</ele>
        <time>2019-06-23T08:15:20Z</time>
      </trkpt>
      <trkpt lat="42.877004994079471" lon="-2.314917035400868">
        <ele>579.79999999999995</ele>
        <time>2019-06-23T08:15:21Z</time>
      </trkpt>
      <trkpt lat="42.877011029049754" lon="-2.314849980175495">
        <ele>579.79999999999995</ele>
        <time>2019-06-23T08:15:22Z</time>
      </trkpt>
      <trkpt lat="42.877016980201006" lon="-2.314780997112393">
        <ele>579.79999999999995</ele>
        <time>2019-06-23T08:15:23Z</time>
      </trkpt>
      <trkpt lat="42.877021003514528" lon="-2.31470899656415">
        <ele>579.79999999999995</ele>
        <time>2019-06-23T08:15:24Z</time>
      </trkpt>
      <trkpt lat="42.877027038484812" lon="-2.31455803848803">
        <ele>580</ele>
        <time>2019-06-23T08:15:26Z</time>
      </trkpt>
      <trkpt lat="42.877032989636064" lon="-2.314396016299725">
        <ele>580</ele>
        <time>2019-06-23T08:15:28Z</time>
      </trkpt>
      <trkpt lat="42.877029972150922" lon="-2.314225025475025">
        <ele>580</ele>
        <time>2019-06-23T08:15:30Z</time>
      </trkpt>
      <trkpt lat="42.877025026828051" lon="-2.314136009663343">
        <ele>580</ele>
        <time>2019-06-23T08:15:31Z</time>
      </trkpt>
      <trkpt lat="42.877014968544245" lon="-2.314045988023281">
        <ele>580</ele>
        <time>2019-06-23T08:15:32Z</time>
      </trkpt>
      <trkpt lat="42.876984039321542" lon="-2.313865022733808">
        <ele>579.79999999999995</ele>
        <time>2019-06-23T08:15:34Z</time>
      </trkpt>
      <trkpt lat="42.876939028501511" lon="-2.313679028302431">
        <ele>579.79999999999995</ele>
        <time>2019-06-23T08:15:36Z</time>
      </trkpt>
      <trkpt lat="42.876885971054435" lon="-2.313483981415629">
        <ele>579.60000000000002</ele>
        <time>2019-06-23T08:15:38Z</time>
      </trkpt>
      <trkpt lat="42.876829979941249" lon="-2.313284995034337">
        <ele>579.39999999999998</ele>
        <time>2019-06-23T08:15:40Z</time>
      </trkpt>
      <trkpt lat="42.876801984384656" lon="-2.313182987272739">
        <ele>579.20000000000005</ele>
        <time>2019-06-23T08:15:41Z</time>
      </trkpt>
      <trkpt lat="42.876772982999682" lon="-2.313080979511142">
        <ele>579</ele>
        <time>2019-06-23T08:15:42Z</time>
      </trkpt>
      <trkpt lat="42.876714980229735" lon="-2.312875036150217">
        <ele>579</ele>
        <time>2019-06-23T08:15:44Z</time>
      </trkpt>
      <trkpt lat="42.876658989116549" lon="-2.312670014798641">
        <ele>578.39999999999998</ele>
        <time>2019-06-23T08:15:46Z</time>
      </trkpt>
      <trkpt lat="42.876630993559957" lon="-2.312568007037044">
        <ele>578</ele>
        <time>2019-06-23T08:15:47Z</time>
      </trkpt>
      <trkpt lat="42.876602998003364" lon="-2.312467005103827">
        <ele>577.79999999999995</ele>
        <time>2019-06-23T08:15:48Z</time>
      </trkpt>
      <trkpt lat="42.876546001061797" lon="-2.312265001237392">
        <ele>577.39999999999998</ele>
        <time>2019-06-23T08:15:50Z</time>
      </trkpt>
      <trkpt lat="42.876490009948611" lon="-2.312062997370958">
        <ele>576.79999999999995</ele>
        <time>2019-06-23T08:15:52Z</time>
      </trkpt>
      <trkpt lat="42.876461008563638" lon="-2.311963001266122">
        <ele>576.79999999999995</ele>
        <time>2019-06-23T08:15:53Z</time>
      </trkpt>
      <trkpt lat="42.876432007178664" lon="-2.311863005161285">
        <ele>576.60000000000002</ele>
        <time>2019-06-23T08:15:54Z</time>
      </trkpt>
      <trkpt lat="42.876378027722239" lon="-2.311665024608374">
        <ele>576.20000000000005</ele>
        <time>2019-06-23T08:15:56Z</time>
      </trkpt>
      <trkpt lat="42.876351037994027" lon="-2.311567040160298">
        <ele>576</ele>
        <time>2019-06-23T08:15:57Z</time>
      </trkpt>
      <trkpt lat="42.876323964446783" lon="-2.311468971893191">
        <ele>576</ele>
        <time>2019-06-23T08:15:58Z</time>
      </trkpt>
      <trkpt lat="42.876298986375332" lon="-2.311370987445116">
        <ele>576</ele>
        <time>2019-06-23T08:15:59Z</time>
      </trkpt>
      <trkpt lat="42.876274008303881" lon="-2.311274008825421">
        <ele>576</ele>
        <time>2019-06-23T08:16:00Z</time>
      </trkpt>
      <trkpt lat="42.87624903023243" lon="-2.311177030205727">
        <ele>576</ele>
        <time>2019-06-23T08:16:01Z</time>
      </trkpt>
      <trkpt lat="42.876222962513566" lon="-2.311080973595381">
        <ele>576</ele>
        <time>2019-06-23T08:16:02Z</time>
      </trkpt>
      <trkpt lat="42.876197984442115" lon="-2.310985000804067">
        <ele>575.79999999999995</ele>
        <time>2019-06-23T08:16:03Z</time>
      </trkpt>
      <trkpt lat="42.876173006370664" lon="-2.310889028012753">
        <ele>575.60000000000002</ele>
        <time>2019-06-23T08:16:04Z</time>
      </trkpt>
      <trkpt lat="42.876127995550632" lon="-2.310693981125951">
        <ele>575.79999999999995</ele>
        <time>2019-06-23T08:16:06Z</time>
      </trkpt>
      <trkpt lat="42.876084996387362" lon="-2.31049700640142">
        <ele>575.60000000000002</ele>
        <time>2019-06-23T08:16:08Z</time>
      </trkpt>
      <trkpt lat="42.876044008880854" lon="-2.310298020020127">
        <ele>575.60000000000002</ele>
        <time>2019-06-23T08:16:10Z</time>
      </trkpt>
      <trkpt lat="42.876002015545964" lon="-2.310097021982074">
        <ele>575.60000000000002</ele>
        <time>2019-06-23T08:16:12Z</time>
      </trkpt>
      <trkpt lat="42.875979971140623" lon="-2.309997025877237">
        <ele>575.39999999999998</ele>
        <time>2019-06-23T08:16:13Z</time>
      </trkpt>
      <trkpt lat="42.875959016382694" lon="-2.309897029772401">
        <ele>575.60000000000002</ele>
        <time>2019-06-23T08:16:14Z</time>
      </trkpt>
      <trkpt lat="42.875914005562663" lon="-2.309697959572077">
        <ele>575.39999999999998</ele>
        <time>2019-06-23T08:16:16Z</time>
      </trkpt>
      <trkpt lat="42.875866983085871" lon="-2.309499979019165">
        <ele>575.39999999999998</ele>
        <time>2019-06-23T08:16:18Z</time>
      </trkpt>
      <trkpt lat="42.875818032771349" lon="-2.309297975152731">
        <ele>575.39999999999998</ele>
        <time>2019-06-23T08:16:20Z</time>
      </trkpt>
      <trkpt lat="42.875765981152654" lon="-2.309092031791806">
        <ele>575.39999999999998</ele>
        <time>2019-06-23T08:16:22Z</time>
      </trkpt>
      <trkpt lat="42.875709990039468" lon="-2.308884998783469">
        <ele>575.20000000000005</ele>
        <time>2019-06-23T08:16:24Z</time>
      </trkpt>
      <trkpt lat="42.875655004754663" lon="-2.308676959946752">
        <ele>575</ele>
        <time>2019-06-23T08:16:26Z</time>
      </trkpt>
      <trkpt lat="42.875602031126618" lon="-2.308472022414208">
        <ele>574.79999999999995</ele>
        <time>2019-06-23T08:16:28Z</time>
      </trkpt>
      <trkpt lat="42.875551991164684" lon="-2.308267001062632">
        <ele>574.79999999999995</ele>
        <time>2019-06-23T08:16:30Z</time>
      </trkpt>
      <trkpt lat="42.875504968687892" lon="-2.308064997196198">
        <ele>574.39999999999998</ele>
        <time>2019-06-23T08:16:32Z</time>
      </trkpt>
      <trkpt lat="42.875472027808428" lon="-2.307860981673002">
        <ele>574.20000000000005</ele>
        <time>2019-06-23T08:16:34Z</time>
      </trkpt>
      <trkpt lat="42.87545601837337" lon="-2.307653026655316">
        <ele>574</ele>
        <time>2019-06-23T08:16:36Z</time>
      </trkpt>
      <trkpt lat="42.875461969524622" lon="-2.307444987818599">
        <ele>573.79999999999995</ele>
        <time>2019-06-23T08:16:38Z</time>
      </trkpt>
      <trkpt lat="42.875474039465189" lon="-2.30734096840024">
        <ele>573.79999999999995</ele>
        <time>2019-06-23T08:16:39Z</time>
      </trkpt>
      <trkpt lat="42.875489965081215" lon="-2.307237032800913">
        <ele>573.79999999999995</ele>
        <time>2019-06-23T08:16:40Z</time>
      </trkpt>
      <trkpt lat="42.875531958416104" lon="-2.307026982307434">
        <ele>573.60000000000002</ele>
        <time>2019-06-23T08:16:42Z</time>
      </trkpt>
      <trkpt lat="42.875557020306587" lon="-2.306922040879726">
        <ele>573.60000000000002</ele>
        <time>2019-06-23T08:16:43Z</time>
      </trkpt>
      <trkpt lat="42.8755840100348" lon="-2.306817015632987">
        <ele>573.60000000000002</ele>
        <time>2019-06-23T08:16:44Z</time>
      </trkpt>
      <trkpt lat="42.875612005591393" lon="-2.306709978729487">
        <ele>573.60000000000002</ele>
        <time>2019-06-23T08:16:45Z</time>
      </trkpt>
      <trkpt lat="42.875638995319605" lon="-2.306602019816637">
        <ele>573.60000000000002</ele>
        <time>2019-06-23T08:16:46Z</time>
      </trkpt>
      <trkpt lat="42.87569398060441" lon="-2.306384006515145">
        <ele>573.60000000000002</ele>
        <time>2019-06-23T08:16:48Z</time>
      </trkpt>
      <trkpt lat="42.875745026394725" lon="-2.306162975728512">
        <ele>573.20000000000005</ele>
        <time>2019-06-23T08:16:50Z</time>
      </trkpt>
      <trkpt lat="42.875785008072853" lon="-2.30594202876091">
        <ele>572.60000000000002</ele>
        <time>2019-06-23T08:16:52Z</time>
      </trkpt>
      <trkpt lat="42.875801017507911" lon="-2.305831974372268">
        <ele>572.39999999999998</ele>
        <time>2019-06-23T08:16:53Z</time>
      </trkpt>
      <trkpt lat="42.875814009457827" lon="-2.305724015459418">
        <ele>572.20000000000005</ele>
        <time>2019-06-23T08:16:54Z</time>
      </trkpt>
      <trkpt lat="42.875832030549645" lon="-2.30551203712821">
        <ele>571.79999999999995</ele>
        <time>2019-06-23T08:16:56Z</time>
      </trkpt>
      <trkpt lat="42.875836975872517" lon="-2.305311039090157">
        <ele>571.60000000000002</ele>
        <time>2019-06-23T08:16:58Z</time>
      </trkpt>
      <trkpt lat="42.875836975872517" lon="-2.305214982479811">
        <ele>571.60000000000002</ele>
        <time>2019-06-23T08:16:59Z</time>
      </trkpt>
      <trkpt lat="42.875835970044136" lon="-2.305122027173638">
        <ele>571.60000000000002</ele>
        <time>2019-06-23T08:17:00Z</time>
      </trkpt>
      <trkpt lat="42.875832030549645" lon="-2.304942989721894">
        <ele>571.60000000000002</ele>
        <time>2019-06-23T08:17:02Z</time>
      </trkpt>
      <trkpt lat="42.875828007236123" lon="-2.304770993068814">
        <ele>571.60000000000002</ele>
        <time>2019-06-23T08:17:04Z</time>
      </trkpt>
      <trkpt lat="42.87582197226584" lon="-2.304603019729257">
        <ele>571.60000000000002</ele>
        <time>2019-06-23T08:17:06Z</time>
      </trkpt>
      <trkpt lat="42.875818032771349" lon="-2.304520038887858">
        <ele>571.79999999999995</ele>
        <time>2019-06-23T08:17:07Z</time>
      </trkpt>
      <trkpt lat="42.875814009457827" lon="-2.304435968399048">
        <ele>572</ele>
        <time>2019-06-23T08:17:08Z</time>
      </trkpt>
      <trkpt lat="42.875803029164672" lon="-2.304263971745968">
        <ele>572.39999999999998</ele>
        <time>2019-06-23T08:17:10Z</time>
      </trkpt>
      <trkpt lat="42.875789031386375" lon="-2.304086023941636">
        <ele>572.79999999999995</ele>
        <time>2019-06-23T08:17:12Z</time>
      </trkpt>
      <trkpt lat="42.87577603943646" lon="-2.30390103533864">
        <ele>572.79999999999995</ele>
        <time>2019-06-23T08:17:14Z</time>
      </trkpt>
      <trkpt lat="42.875767992809415" lon="-2.303804978728294">
        <ele>572.79999999999995</ele>
        <time>2019-06-23T08:17:15Z</time>
      </trkpt>
      <trkpt lat="42.875760030001402" lon="-2.3037080001086">
        <ele>572.79999999999995</ele>
        <time>2019-06-23T08:17:16Z</time>
      </trkpt>
      <trkpt lat="42.875738991424441" lon="-2.303508007898927">
        <ele>573</ele>
        <time>2019-06-23T08:17:18Z</time>
      </trkpt>
      <trkpt lat="42.875715019181371" lon="-2.30330097489059">
        <ele>573.20000000000005</ele>
        <time>2019-06-23T08:17:20Z</time>
      </trkpt>
      <trkpt lat="42.875690963119268" lon="-2.303088996559382">
        <ele>573</ele>
        <time>2019-06-23T08:17:22Z</time>
      </trkpt>
      <trkpt lat="42.875676965340972" lon="-2.302982965484262">
        <ele>572.79999999999995</ele>
        <time>2019-06-23T08:17:23Z</time>
      </trkpt>
      <trkpt lat="42.875662967562675" lon="-2.302876012399793">
        <ele>572.60000000000002</ele>
        <time>2019-06-23T08:17:24Z</time>
      </trkpt>
      <trkpt lat="42.875632960349321" lon="-2.302664034068584">
        <ele>572.20000000000005</ele>
        <time>2019-06-23T08:17:26Z</time>
      </trkpt>
      <trkpt lat="42.875600019469857" lon="-2.302452977746725">
        <ele>571.60000000000002</ele>
        <time>2019-06-23T08:17:28Z</time>
      </trkpt>
      <trkpt lat="42.875565988942981" lon="-2.302244016900659">
        <ele>571.39999999999998</ele>
        <time>2019-06-23T08:17:30Z</time>
      </trkpt>
      <trkpt lat="42.875529024749994" lon="-2.30203396640718">
        <ele>571</ele>
        <time>2019-06-23T08:17:32Z</time>
      </trkpt>
      <trkpt lat="42.875489965081215" lon="-2.301821988075972">
        <ele>570.79999999999995</ele>
        <time>2019-06-23T08:17:34Z</time>
      </trkpt>
      <trkpt lat="42.875470016151667" lon="-2.301715034991503">
        <ele>570.79999999999995</ele>
        <time>2019-06-23T08:17:35Z</time>
      </trkpt>
      <trkpt lat="42.875448977574706" lon="-2.301607998088002">
        <ele>570.79999999999995</ele>
        <time>2019-06-23T08:17:36Z</time>
      </trkpt>
      <trkpt lat="42.875403966754675" lon="-2.301395013928413">
        <ele>570.39999999999998</ele>
        <time>2019-06-23T08:17:38Z</time>
      </trkpt>
      <trkpt lat="42.875357028096914" lon="-2.301184041425586">
        <ele>570.20000000000005</ele>
        <time>2019-06-23T08:17:40Z</time>
      </trkpt>
      <trkpt lat="42.875308999791741" lon="-2.300977008417249">
        <ele>570</ele>
        <time>2019-06-23T08:17:42Z</time>
      </trkpt>
      <trkpt lat="42.875258959829807" lon="-2.300773998722434">
        <ele>569.79999999999995</ele>
        <time>2019-06-23T08:17:44Z</time>
      </trkpt>
      <trkpt lat="42.875206992030144" lon="-2.300576018169522">
        <ele>569.39999999999998</ele>
        <time>2019-06-23T08:17:46Z</time>
      </trkpt>
      <trkpt lat="42.875158041715622" lon="-2.30037703178823">
        <ele>569.20000000000005</ele>
        <time>2019-06-23T08:17:48Z</time>
      </trkpt>
      <trkpt lat="42.875108001753688" lon="-2.300177961587906">
        <ele>569.20000000000005</ele>
        <time>2019-06-23T08:17:50Z</time>
      </trkpt>
      <trkpt lat="42.875057961791754" lon="-2.299978975206614">
        <ele>569</ele>
        <time>2019-06-23T08:17:52Z</time>
      </trkpt>
      <trkpt lat="42.875011023133993" lon="-2.29977797716856">
        <ele>569</ele>
        <time>2019-06-23T08:17:54Z</time>
      </trkpt>
      <trkpt lat="42.874968023970723" lon="-2.299575973302126">
        <ele>569</ele>
        <time>2019-06-23T08:17:56Z</time>
      </trkpt>
      <trkpt lat="42.874923013150692" lon="-2.299372963607311">
        <ele>569</ele>
        <time>2019-06-23T08:17:58Z</time>
      </trkpt>
      <trkpt lat="42.874883031472564" lon="-2.299168026074767">
        <ele>568.79999999999995</ele>
        <time>2019-06-23T08:18:00Z</time>
      </trkpt>
      <trkpt lat="42.874845983460546" lon="-2.29896099306643">
        <ele>568.79999999999995</ele>
        <time>2019-06-23T08:18:02Z</time>
      </trkpt>
      <trkpt lat="42.874807007610798" lon="-2.298752032220364">
        <ele>568.79999999999995</ele>
        <time>2019-06-23T08:18:04Z</time>
      </trkpt>
      <trkpt lat="42.87476803176105" lon="-2.298540975898504">
        <ele>568.79999999999995</ele>
        <time>2019-06-23T08:18:06Z</time>
      </trkpt>
      <trkpt lat="42.874749004840851" lon="-2.298434022814035">
        <ele>568.60000000000002</ele>
        <time>2019-06-23T08:18:07Z</time>
      </trkpt>
      <trkpt lat="42.874729977920651" lon="-2.298324974253774">
        <ele>568.60000000000002</ele>
        <time>2019-06-23T08:18:08Z</time>
      </trkpt>
      <trkpt lat="42.874693013727665" lon="-2.298106038942933">
        <ele>568.20000000000005</ele>
        <time>2019-06-23T08:18:10Z</time>
      </trkpt>
      <trkpt lat="42.874656971544027" lon="-2.297887019813061">
        <ele>567.79999999999995</ele>
        <time>2019-06-23T08:18:12Z</time>
      </trkpt>
      <trkpt lat="42.874620007351041" lon="-2.29767101816833">
        <ele>567.20000000000005</ele>
        <time>2019-06-23T08:18:14Z</time>
      </trkpt>
      <trkpt lat="42.874582959339023" lon="-2.297459039837122">
        <ele>566.79999999999995</ele>
        <time>2019-06-23T08:18:16Z</time>
      </trkpt>
      <trkpt lat="42.874563010409474" lon="-2.297354014590383">
        <ele>566.79999999999995</ele>
        <time>2019-06-23T08:18:17Z</time>
      </trkpt>
      <trkpt lat="42.874543983489275" lon="-2.297249995172024">
        <ele>566.79999999999995</ele>
        <time>2019-06-23T08:18:18Z</time>
      </trkpt>
      <trkpt lat="42.874501990154386" lon="-2.297042962163687">
        <ele>566.60000000000002</ele>
        <time>2019-06-23T08:18:20Z</time>
      </trkpt>
      <trkpt lat="42.874456979334354" lon="-2.296838024631143">
        <ele>566.39999999999998</ele>
        <time>2019-06-23T08:18:22Z</time>
      </trkpt>
      <trkpt lat="42.874408029019833" lon="-2.296635014936328">
        <ele>566.39999999999998</ele>
        <time>2019-06-23T08:18:24Z</time>
      </trkpt>
      <trkpt lat="42.874355977401137" lon="-2.296435022726655">
        <ele>566.60000000000002</ele>
        <time>2019-06-23T08:18:26Z</time>
      </trkpt>
      <trkpt lat="42.874327981844544" lon="-2.296336032450199">
        <ele>566.39999999999998</ele>
        <time>2019-06-23T08:18:27Z</time>
      </trkpt>
      <trkpt lat="42.874300992116332" lon="-2.296237964183092">
        <ele>566.60000000000002</ele>
        <time>2019-06-23T08:18:28Z</time>
      </trkpt>
      <trkpt lat="42.874243995174766" lon="-2.296049036085606">
        <ele>566.60000000000002</ele>
        <time>2019-06-23T08:18:30Z</time>
      </trkpt>
      <trkpt lat="42.874184986576438" lon="-2.2958679869771">
        <ele>566.60000000000002</ele>
        <time>2019-06-23T08:18:32Z</time>
      </trkpt>
      <trkpt lat="42.87412497214973" lon="-2.295686015859246">
        <ele>566.60000000000002</ele>
        <time>2019-06-23T08:18:34Z</time>
      </trkpt>
      <trkpt lat="42.874094964936376" lon="-2.295595994219184">
        <ele>566.60000000000002</ele>
        <time>2019-06-23T08:18:35Z</time>
      </trkpt>
      <trkpt lat="42.874063029885292" lon="-2.295505972579122">
        <ele>566.60000000000002</ele>
        <time>2019-06-23T08:18:36Z</time>
      </trkpt>
      <trkpt lat="42.873997986316681" lon="-2.295325007289648">
        <ele>566.79999999999995</ele>
        <time>2019-06-23T08:18:38Z</time>
      </trkpt>
      <trkpt lat="42.873929003253579" lon="-2.295141024515033">
        <ele>566.79999999999995</ele>
        <time>2019-06-23T08:18:40Z</time>
      </trkpt>
      <trkpt lat="42.873861026018858" lon="-2.294953018426895">
        <ele>566.79999999999995</ele>
        <time>2019-06-23T08:18:42Z</time>
      </trkpt>
      <trkpt lat="42.873789025470614" lon="-2.294766018167138">
        <ele>566.79999999999995</ele>
        <time>2019-06-23T08:18:44Z</time>
      </trkpt>
      <trkpt lat="42.873751977458596" lon="-2.294672979041934">
        <ele>566.79999999999995</ele>
        <time>2019-06-23T08:18:45Z</time>
      </trkpt>
      <trkpt lat="42.873717024922371" lon="-2.294580023735762">
        <ele>566.60000000000002</ele>
        <time>2019-06-23T08:18:46Z</time>
      </trkpt>
      <trkpt lat="42.873648963868618" lon="-2.294392017647624">
        <ele>566.60000000000002</ele>
        <time>2019-06-23T08:18:48Z</time>
      </trkpt>
      <trkpt lat="42.873581992462277" lon="-2.294203005731106">
        <ele>566.39999999999998</ele>
        <time>2019-06-23T08:18:50Z</time>
      </trkpt>
      <trkpt lat="42.873519966378808" lon="-2.294007958844304">
        <ele>566.20000000000005</ele>
        <time>2019-06-23T08:18:52Z</time>
      </trkpt>
      <trkpt lat="42.873491970822215" lon="-2.293909974396229">
        <ele>566.20000000000005</ele>
        <time>2019-06-23T08:18:53Z</time>
      </trkpt>
      <trkpt lat="42.873466992750764" lon="-2.293810984119773">
        <ele>566</ele>
        <time>2019-06-23T08:18:54Z</time>
      </trkpt>
      <trkpt lat="42.873420976102352" lon="-2.2936109919101">
        <ele>566</ele>
        <time>2019-06-23T08:18:56Z</time>
      </trkpt>
      <trkpt lat="42.873382000252604" lon="-2.293405970558524">
        <ele>566</ele>
        <time>2019-06-23T08:18:58Z</time>
      </trkpt>
      <trkpt lat="42.873354004696012" lon="-2.293197009712458">
        <ele>565.79999999999995</ele>
        <time>2019-06-23T08:19:00Z</time>
      </trkpt>
      <trkpt lat="42.873332966119051" lon="-2.292986959218979">
        <ele>565.79999999999995</ele>
        <time>2019-06-23T08:19:02Z</time>
      </trkpt>
      <trkpt lat="42.873319974169135" lon="-2.292774980887771">
        <ele>565.79999999999995</ele>
        <time>2019-06-23T08:19:04Z</time>
      </trkpt>
      <trkpt lat="42.873309999704361" lon="-2.292563002556562">
        <ele>565.60000000000002</ele>
        <time>2019-06-23T08:19:06Z</time>
      </trkpt>
      <trkpt lat="42.873301031067967" lon="-2.292350018396974">
        <ele>565.60000000000002</ele>
        <time>2019-06-23T08:19:08Z</time>
      </trkpt>
      <trkpt lat="42.873291978612542" lon="-2.292140973731875">
        <ele>565.60000000000002</ele>
        <time>2019-06-23T08:19:10Z</time>
      </trkpt>
      <trkpt lat="42.873284015804529" lon="-2.291935030370951">
        <ele>565.60000000000002</ele>
        <time>2019-06-23T08:19:12Z</time>
      </trkpt>
      <trkpt lat="42.873274963349104" lon="-2.291730009019375">
        <ele>565.39999999999998</ele>
        <time>2019-06-23T08:19:14Z</time>
      </trkpt>
      <trkpt lat="42.87326599471271" lon="-2.291524987667799">
        <ele>565.39999999999998</ele>
        <time>2019-06-23T08:19:16Z</time>
      </trkpt>
      <trkpt lat="42.873256020247936" lon="-2.291316026821733">
        <ele>565.39999999999998</ele>
        <time>2019-06-23T08:19:18Z</time>
      </trkpt>
      <trkpt lat="42.873248979449272" lon="-2.291212007403374">
        <ele>565.39999999999998</ele>
        <time>2019-06-23T08:19:19Z</time>
      </trkpt>
      <trkpt lat="42.87324202246964" lon="-2.291106982156634">
        <ele>565.39999999999998</ele>
        <time>2019-06-23T08:19:20Z</time>
      </trkpt>
      <trkpt lat="42.87322299554944" lon="-2.290898021310568">
        <ele>565.39999999999998</ele>
        <time>2019-06-23T08:19:22Z</time>
      </trkpt>
      <trkpt lat="42.873198017477989" lon="-2.290687970817089">
        <ele>565.39999999999998</ele>
        <time>2019-06-23T08:19:24Z</time>
      </trkpt>
      <trkpt lat="42.873163986951113" lon="-2.290482027456164">
        <ele>565.39999999999998</ele>
        <time>2019-06-23T08:19:26Z</time>
      </trkpt>
      <trkpt lat="42.873145965859294" lon="-2.290380019694567">
        <ele>565.39999999999998</ele>
        <time>2019-06-23T08:19:27Z</time>
      </trkpt>
      <trkpt lat="42.873129034414887" lon="-2.29027901776135">
        <ele>565.39999999999998</ele>
        <time>2019-06-23T08:19:28Z</time>
      </trkpt>
      <trkpt lat="42.87309299223125" lon="-2.290079025551677">
        <ele>565.39999999999998</ele>
        <time>2019-06-23T08:19:30Z</time>
      </trkpt>
      <trkpt lat="42.873058039695024" lon="-2.289880039170384">
        <ele>565.39999999999998</ele>
        <time>2019-06-23T08:19:32Z</time>
      </trkpt>
      <trkpt lat="42.873025014996529" lon="-2.28967803530395">
        <ele>565.39999999999998</ele>
        <time>2019-06-23T08:19:34Z</time>
      </trkpt>
      <trkpt lat="42.872992996126413" lon="-2.289475025609136">
        <ele>565.60000000000002</ele>
        <time>2019-06-23T08:19:36Z</time>
      </trkpt>
      <trkpt lat="42.872961983084679" lon="-2.28927000425756">
        <ele>565.39999999999998</ele>
        <time>2019-06-23T08:19:38Z</time>
      </trkpt>
      <trkpt lat="42.872931975871325" lon="-2.289063977077603">
        <ele>565.39999999999998</ele>
        <time>2019-06-23T08:19:40Z</time>
      </trkpt>
      <trkpt lat="42.872904986143112" lon="-2.288857027888298">
        <ele>565.60000000000002</ele>
        <time>2019-06-23T08:19:42Z</time>
      </trkpt>
      <trkpt lat="42.87287900224328" lon="-2.288653012365103">
        <ele>565.60000000000002</ele>
        <time>2019-06-23T08:19:44Z</time>
      </trkpt>
      <trkpt lat="42.872852012515068" lon="-2.288448996841908">
        <ele>565.79999999999995</ele>
        <time>2019-06-23T08:19:46Z</time>
      </trkpt>
      <trkpt lat="42.872824016958475" lon="-2.288243975490332">
        <ele>565.79999999999995</ele>
        <time>2019-06-23T08:19:48Z</time>
      </trkpt>
      <trkpt lat="42.872794009745121" lon="-2.288037026301026">
        <ele>565.79999999999995</ele>
        <time>2019-06-23T08:19:50Z</time>
      </trkpt>
      <trkpt lat="42.872766014188528" lon="-2.287828987464309">
        <ele>566</ele>
        <time>2019-06-23T08:19:52Z</time>
      </trkpt>
      <trkpt lat="42.872739024460316" lon="-2.287622960284352">
        <ele>566</ele>
        <time>2019-06-23T08:19:54Z</time>
      </trkpt>
      <trkpt lat="42.872710023075342" lon="-2.287416011095047">
        <ele>566</ele>
        <time>2019-06-23T08:19:56Z</time>
      </trkpt>
      <trkpt lat="42.87268403917551" lon="-2.287209983915091">
        <ele>565.79999999999995</ele>
        <time>2019-06-23T08:19:58Z</time>
      </trkpt>
      <trkpt lat="42.872658977285028" lon="-2.287004962563515">
        <ele>566</ele>
        <time>2019-06-23T08:20:00Z</time>
      </trkpt>
      <trkpt lat="42.872650008648634" lon="-2.286903960630298">
        <ele>566</ele>
        <time>2019-06-23T08:20:01Z</time>
      </trkpt>
      <trkpt lat="42.872644979506731" lon="-2.286804970353842">
        <ele>566</ele>
        <time>2019-06-23T08:20:02Z</time>
      </trkpt>
      <trkpt lat="42.872646991163492" lon="-2.286612018942833">
        <ele>566.20000000000005</ele>
        <time>2019-06-23T08:20:04Z</time>
      </trkpt>
      <trkpt lat="42.872666018083692" lon="-2.286425018683076">
        <ele>566.20000000000005</ele>
        <time>2019-06-23T08:20:06Z</time>
      </trkpt>
      <trkpt lat="42.872698036953807" lon="-2.286243969574571">
        <ele>566</ele>
        <time>2019-06-23T08:20:08Z</time>
      </trkpt>
      <trkpt lat="42.87272703833878" lon="-2.286058980971575">
        <ele>566.20000000000005</ele>
        <time>2019-06-23T08:20:10Z</time>
      </trkpt>
      <trkpt lat="42.872732989490032" lon="-2.285964014008641">
        <ele>566.20000000000005</ele>
        <time>2019-06-23T08:20:11Z</time>
      </trkpt>
      <trkpt lat="42.87272896617651" lon="-2.285868041217327">
        <ele>566.20000000000005</ele>
        <time>2019-06-23T08:20:12Z</time>
      </trkpt>
      <trkpt lat="42.872696025297046" lon="-2.285676011815667">
        <ele>566.20000000000005</ele>
        <time>2019-06-23T08:20:14Z</time>
      </trkpt>
      <trkpt lat="42.872638022527099" lon="-2.285491023212671">
        <ele>566.20000000000005</ele>
        <time>2019-06-23T08:20:16Z</time>
      </trkpt>
      <trkpt lat="42.872609021142125" lon="-2.285394966602325">
        <ele>566.20000000000005</ele>
        <time>2019-06-23T08:20:17Z</time>
      </trkpt>
      <trkpt lat="42.872586976736784" lon="-2.285292036831379">
        <ele>566.20000000000005</ele>
        <time>2019-06-23T08:20:18Z</time>
      </trkpt>
      <trkpt lat="42.872573984786868" lon="-2.285186005756259">
        <ele>566.20000000000005</ele>
        <time>2019-06-23T08:20:19Z</time>
      </trkpt>
      <trkpt lat="42.872568033635616" lon="-2.285076035186648">
        <ele>566.20000000000005</ele>
        <time>2019-06-23T08:20:20Z</time>
      </trkpt>
      <trkpt lat="42.872564010322094" lon="-2.284861039370298">
        <ele>565.79999999999995</ele>
        <time>2019-06-23T08:20:22Z</time>
      </trkpt>
      <trkpt lat="42.87255797535181" lon="-2.2846519947052">
        <ele>565.39999999999998</ele>
        <time>2019-06-23T08:20:24Z</time>
      </trkpt>
      <trkpt lat="42.872529979795218" lon="-2.284452002495527">
        <ele>565</ele>
        <time>2019-06-23T08:20:26Z</time>
      </trkpt>
      <trkpt lat="42.872483041137457" lon="-2.284267013892531">
        <ele>565</ele>
        <time>2019-06-23T08:20:28Z</time>
      </trkpt>
      <trkpt lat="42.872457979246974" lon="-2.284174980595708">
        <ele>565</ele>
        <time>2019-06-23T08:20:29Z</time>
      </trkpt>
      <trkpt lat="42.872430989518762" lon="-2.284087976440787">
        <ele>564.79999999999995</ele>
        <time>2019-06-23T08:20:30Z</time>
      </trkpt>
      <trkpt lat="42.87238497287035" lon="-2.283911034464836">
        <ele>564.79999999999995</ele>
        <time>2019-06-23T08:20:32Z</time>
      </trkpt>
      <trkpt lat="42.872352031990886" lon="-2.283741971477866">
        <ele>565</ele>
        <time>2019-06-23T08:20:34Z</time>
      </trkpt>
      <trkpt lat="42.872328981757164" lon="-2.28357701562345">
        <ele>565.39999999999998</ele>
        <time>2019-06-23T08:20:36Z</time>
      </trkpt>
      <trkpt lat="42.872315989807248" lon="-2.283408958464861">
        <ele>565.60000000000002</ele>
        <time>2019-06-23T08:20:38Z</time>
      </trkpt>
      <trkpt lat="42.872310038655996" lon="-2.283237967640162">
        <ele>566</ele>
        <time>2019-06-23T08:20:40Z</time>
      </trkpt>
      <trkpt lat="42.872306015342474" lon="-2.28306395933032">
        <ele>566.39999999999998</ele>
        <time>2019-06-23T08:20:42Z</time>
      </trkpt>
      <trkpt lat="42.872300986200571" lon="-2.282886011525989">
        <ele>566.79999999999995</ele>
        <time>2019-06-23T08:20:44Z</time>
      </trkpt>
      <trkpt lat="42.8722960408777" lon="-2.282707979902625">
        <ele>567</ele>
        <time>2019-06-23T08:20:46Z</time>
      </trkpt>
      <trkpt lat="42.872289000079036" lon="-2.282530032098293">
        <ele>567.39999999999998</ele>
        <time>2019-06-23T08:20:48Z</time>
      </trkpt>
      <trkpt lat="42.8722770139575" lon="-2.28235300630331">
        <ele>567.39999999999998</ele>
        <time>2019-06-23T08:20:50Z</time>
      </trkpt>
      <trkpt lat="42.872263016179204" lon="-2.282177992165089">
        <ele>567.39999999999998</ele>
        <time>2019-06-23T08:20:52Z</time>
      </trkpt>
      <trkpt lat="42.872244995087385" lon="-2.282004989683628">
        <ele>567.39999999999998</ele>
        <time>2019-06-23T08:20:54Z</time>
      </trkpt>
      <trkpt lat="42.872225968167186" lon="-2.281833998858929">
        <ele>567.60000000000002</ele>
        <time>2019-06-23T08:20:56Z</time>
      </trkpt>
      <trkpt lat="42.872209036722779" lon="-2.281668037176132">
        <ele>567.39999999999998</ele>
        <time>2019-06-23T08:20:58Z</time>
      </trkpt>
      <trkpt lat="42.872194033116102" lon="-2.281510038301349">
        <ele>567.39999999999998</ele>
        <time>2019-06-23T08:21:00Z</time>
      </trkpt>
      <trkpt lat="42.872175006195903" lon="-2.281362013891339">
        <ele>567.60000000000002</ele>
        <time>2019-06-23T08:21:02Z</time>
      </trkpt>
      <trkpt lat="42.872156985104084" lon="-2.281216001138091">
        <ele>567.60000000000002</ele>
        <time>2019-06-23T08:21:04Z</time>
      </trkpt>
      <trkpt lat="42.872150028124452" lon="-2.281142994761467">
        <ele>567.60000000000002</ele>
        <time>2019-06-23T08:21:05Z</time>
      </trkpt>
      <trkpt lat="42.872142987325788" lon="-2.281070994213224">
        <ele>567.79999999999995</ele>
        <time>2019-06-23T08:21:06Z</time>
      </trkpt>
      <trkpt lat="42.872124966233969" lon="-2.280925987288356">
        <ele>567.79999999999995</ele>
        <time>2019-06-23T08:21:08Z</time>
      </trkpt>
      <trkpt lat="42.872109040617943" lon="-2.280777962878346">
        <ele>568.20000000000005</ele>
        <time>2019-06-23T08:21:10Z</time>
      </trkpt>
      <trkpt lat="42.872092025354505" lon="-2.280623987317085">
        <ele>568.79999999999995</ele>
        <time>2019-06-23T08:21:12Z</time>
      </trkpt>
      <trkpt lat="42.87208397872746" lon="-2.280547963455319">
        <ele>569</ele>
        <time>2019-06-23T08:21:13Z</time>
      </trkpt>
      <trkpt lat="42.872075010091066" lon="-2.280469005927444">
        <ele>569.39999999999998</ele>
        <time>2019-06-23T08:21:14Z</time>
      </trkpt>
      <trkpt lat="42.872056988999248" lon="-2.280305977910757">
        <ele>569.79999999999995</ele>
        <time>2019-06-23T08:21:16Z</time>
      </trkpt>
      <trkpt lat="42.872036034241319" lon="-2.280140016227961">
        <ele>570</ele>
        <time>2019-06-23T08:21:18Z</time>
      </trkpt>
      <trkpt lat="42.872013989835978" lon="-2.279969025403261">
        <ele>570.20000000000005</ele>
        <time>2019-06-23T08:21:20Z</time>
      </trkpt>
      <trkpt lat="42.871994040906429" lon="-2.279798034578562">
        <ele>570.20000000000005</ele>
        <time>2019-06-23T08:21:22Z</time>
      </trkpt>
      <trkpt lat="42.871982976794243" lon="-2.279711030423641">
        <ele>570.39999999999998</ele>
        <time>2019-06-23T08:21:23Z</time>
      </trkpt>
      <trkpt lat="42.871971996501088" lon="-2.27962302044034">
        <ele>570.39999999999998</ele>
        <time>2019-06-23T08:21:24Z</time>
      </trkpt>
      <trkpt lat="42.871947018429637" lon="-2.279447000473738">
        <ele>570.39999999999998</ele>
        <time>2019-06-23T08:21:26Z</time>
      </trkpt>
      <trkpt lat="42.871918017044663" lon="-2.279267963021994">
        <ele>570.39999999999998</ele>
        <time>2019-06-23T08:21:28Z</time>
      </trkpt>
      <trkpt lat="42.871888009831309" lon="-2.279089009389281">
        <ele>570.60000000000002</ele>
        <time>2019-06-23T08:21:30Z</time>
      </trkpt>
      <trkpt lat="42.871849033981562" lon="-2.278910977765918">
        <ele>570.39999999999998</ele>
        <time>2019-06-23T08:21:32Z</time>
      </trkpt>
      <trkpt lat="42.871826989576221" lon="-2.278821961954236">
        <ele>570.39999999999998</ele>
        <time>2019-06-23T08:21:33Z</time>
      </trkpt>
      <trkpt lat="42.871806034818292" lon="-2.278734035789967">
        <ele>570.39999999999998</ele>
        <time>2019-06-23T08:21:34Z</time>
      </trkpt>
      <trkpt lat="42.87176102399826" lon="-2.278556004166603">
        <ele>570.39999999999998</ele>
        <time>2019-06-23T08:21:36Z</time>
      </trkpt>
      <trkpt lat="42.871708972379565" lon="-2.278383001685143">
        <ele>570.39999999999998</ele>
        <time>2019-06-23T08:21:38Z</time>
      </trkpt>
      <trkpt lat="42.871652981266379" lon="-2.278213016688824">
        <ele>570.39999999999998</ele>
        <time>2019-06-23T08:21:40Z</time>
      </trkpt>
      <trkpt lat="42.871595984324813" lon="-2.278044959530234">
        <ele>570.39999999999998</ele>
        <time>2019-06-23T08:21:42Z</time>
      </trkpt>
      <trkpt lat="42.871538987383246" lon="-2.277872962877154">
        <ele>570.39999999999998</ele>
        <time>2019-06-23T08:21:44Z</time>
      </trkpt>
      <trkpt lat="42.871479978784919" lon="-2.277697026729584">
        <ele>570.39999999999998</ele>
        <time>2019-06-23T08:21:46Z</time>
      </trkpt>
      <trkpt lat="42.871419964358211" lon="-2.277512960135937">
        <ele>570.39999999999998</ele>
        <time>2019-06-23T08:21:48Z</time>
      </trkpt>
      <trkpt lat="42.871357016265392" lon="-2.277320008724928">
        <ele>570.20000000000005</ele>
        <time>2019-06-23T08:21:50Z</time>
      </trkpt>
      <trkpt lat="42.871324997395277" lon="-2.277221018448472">
        <ele>570.20000000000005</ele>
        <time>2019-06-23T08:21:51Z</time>
      </trkpt>
      <trkpt lat="42.871291972696781" lon="-2.277119010686874">
        <ele>570.20000000000005</ele>
        <time>2019-06-23T08:21:52Z</time>
      </trkpt>
      <trkpt lat="42.871228018775582" lon="-2.276905020698905">
        <ele>570.20000000000005</ele>
        <time>2019-06-23T08:21:54Z</time>
      </trkpt>
      <trkpt lat="42.871199017390609" lon="-2.276792032644153">
        <ele>570</ele>
        <time>2019-06-23T08:21:55Z</time>
      </trkpt>
      <trkpt lat="42.871170016005635" lon="-2.276675021275878">
        <ele>570</ele>
        <time>2019-06-23T08:21:56Z</time>
      </trkpt>
      <trkpt lat="42.871142020449042" lon="-2.276555998250842">
        <ele>570</ele>
        <time>2019-06-23T08:21:57Z</time>
      </trkpt>
      <trkpt lat="42.871116958558559" lon="-2.276434963569045">
        <ele>569.79999999999995</ele>
        <time>2019-06-23T08:21:58Z</time>
      </trkpt>
      <trkpt lat="42.87109499797225" lon="-2.276313006877899">
        <ele>569.39999999999998</ele>
        <time>2019-06-23T08:21:59Z</time>
      </trkpt>
      <trkpt lat="42.871075971052051" lon="-2.276189960539341">
        <ele>569.20000000000005</ele>
        <time>2019-06-23T08:22:00Z</time>
      </trkpt>
      <trkpt lat="42.871055016294122" lon="-2.275935988873243">
        <ele>568.20000000000005</ele>
        <time>2019-06-23T08:22:02Z</time>
      </trkpt>
      <trkpt lat="42.87105199880898" lon="-2.275807997211814">
        <ele>567.60000000000002</ele>
        <time>2019-06-23T08:22:03Z</time>
      </trkpt>
      <trkpt lat="42.871049987152219" lon="-2.275681011378765">
        <ele>566.60000000000002</ele>
        <time>2019-06-23T08:22:04Z</time>
      </trkpt>
      <trkpt lat="42.871053004637361" lon="-2.275555031374097">
        <ele>565.79999999999995</ele>
        <time>2019-06-23T08:22:05Z</time>
      </trkpt>
      <trkpt lat="42.871058033779263" lon="-2.275430979207158">
        <ele>565.39999999999998</ele>
        <time>2019-06-23T08:22:06Z</time>
      </trkpt>
      <trkpt lat="42.871073037385941" lon="-2.275188993662596">
        <ele>563.79999999999995</ele>
        <time>2019-06-23T08:22:08Z</time>
      </trkpt>
      <trkpt lat="42.871092986315489" lon="-2.274953965097666">
        <ele>562.79999999999995</ele>
        <time>2019-06-23T08:22:10Z</time>
      </trkpt>
      <trkpt lat="42.871116958558559" lon="-2.274726983159781">
        <ele>562</ele>
        <time>2019-06-23T08:22:12Z</time>
      </trkpt>
      <trkpt lat="42.871135985478759" lon="-2.274505030363798">
        <ele>560.60000000000002</ele>
        <time>2019-06-23T08:22:14Z</time>
      </trkpt>
      <trkpt lat="42.871156018227339" lon="-2.274289028719068">
        <ele>560.60000000000002</ele>
        <time>2019-06-23T08:22:16Z</time>
      </trkpt>
      <trkpt lat="42.871172027662396" lon="-2.274074032902718">
        <ele>560.39999999999998</ele>
        <time>2019-06-23T08:22:18Z</time>
      </trkpt>
      <trkpt lat="42.871177978813648" lon="-2.273966995999217">
        <ele>560.20000000000005</ele>
        <time>2019-06-23T08:22:19Z</time>
      </trkpt>
      <trkpt lat="42.871184013783932" lon="-2.273860964924097">
        <ele>560.39999999999998</ele>
        <time>2019-06-23T08:22:20Z</time>
      </trkpt>
      <trkpt lat="42.871193988248706" lon="-2.27365099824965">
        <ele>560.20000000000005</ele>
        <time>2019-06-23T08:22:22Z</time>
      </trkpt>
      <trkpt lat="42.87120102904737" lon="-2.273442959412932">
        <ele>560.39999999999998</ele>
        <time>2019-06-23T08:22:24Z</time>
      </trkpt>
      <trkpt lat="42.871203040704131" lon="-2.273340029641986">
        <ele>560</ele>
        <time>2019-06-23T08:22:25Z</time>
      </trkpt>
      <trkpt lat="42.871205974370241" lon="-2.273238021880388">
        <ele>560.20000000000005</ele>
        <time>2019-06-23T08:22:26Z</time>
      </trkpt>
      <trkpt lat="42.871207986027002" lon="-2.273036018013954">
        <ele>560.20000000000005</ele>
        <time>2019-06-23T08:22:28Z</time>
      </trkpt>
      <trkpt lat="42.871209997683764" lon="-2.272835019975901">
        <ele>560.20000000000005</ele>
        <time>2019-06-23T08:22:30Z</time>
      </trkpt>
      <trkpt lat="42.871212009340525" lon="-2.272635027766228">
        <ele>560.60000000000002</ele>
        <time>2019-06-23T08:22:32Z</time>
      </trkpt>
      <trkpt lat="42.87122399546206" lon="-2.272435035556555">
        <ele>560.60000000000002</ele>
        <time>2019-06-23T08:22:34Z</time>
      </trkpt>
      <trkpt lat="42.871235981583595" lon="-2.272335039451718">
        <ele>560.79999999999995</ele>
        <time>2019-06-23T08:22:35Z</time>
      </trkpt>
      <trkpt lat="42.871250985190272" lon="-2.272235965356231">
        <ele>560.60000000000002</ele>
        <time>2019-06-23T08:22:36Z</time>
      </trkpt>
      <trkpt lat="42.87128996104002" lon="-2.272036978974938">
        <ele>560.79999999999995</ele>
        <time>2019-06-23T08:22:38Z</time>
      </trkpt>
      <trkpt lat="42.871336983516812" lon="-2.271836986765266">
        <ele>560.79999999999995</ele>
        <time>2019-06-23T08:22:40Z</time>
      </trkpt>
      <trkpt lat="42.871387023478746" lon="-2.271633977070451">
        <ele>560.79999999999995</ele>
        <time>2019-06-23T08:22:42Z</time>
      </trkpt>
      <trkpt lat="42.871419964358211" lon="-2.271425016224384">
        <ele>561</ele>
        <time>2019-06-23T08:22:44Z</time>
      </trkpt>
      <trkpt lat="42.871424993500113" lon="-2.271317979320884">
        <ele>560.79999999999995</ele>
        <time>2019-06-23T08:22:45Z</time>
      </trkpt>
      <trkpt lat="42.871423987671733" lon="-2.271213037893176">
        <ele>560.79999999999995</ele>
        <time>2019-06-23T08:22:46Z</time>
      </trkpt>
      <trkpt lat="42.871417030692101" lon="-2.271003993228078">
        <ele>560.60000000000002</ele>
        <time>2019-06-23T08:22:48Z</time>
      </trkpt>
      <trkpt lat="42.871419964358211" lon="-2.270799977704883">
        <ele>559.60000000000002</ele>
        <time>2019-06-23T08:22:50Z</time>
      </trkpt>
      <trkpt lat="42.871442008763552" lon="-2.270604008808732">
        <ele>559</ele>
        <time>2019-06-23T08:22:52Z</time>
      </trkpt>
      <trkpt lat="42.871480984613299" lon="-2.270417008548975">
        <ele>558.79999999999995</ele>
        <time>2019-06-23T08:22:54Z</time>
      </trkpt>
      <trkpt lat="42.87152498960495" lon="-2.27023696526885">
        <ele>558.60000000000002</ele>
        <time>2019-06-23T08:22:56Z</time>
      </trkpt>
      <trkpt lat="42.871566982939839" lon="-2.270057005807757">
        <ele>558.60000000000002</ele>
        <time>2019-06-23T08:22:58Z</time>
      </trkpt>
      <trkpt lat="42.871585004031658" lon="-2.269963966682553">
        <ele>558.60000000000002</ele>
        <time>2019-06-23T08:22:59Z</time>
      </trkpt>
      <trkpt lat="42.871597995981574" lon="-2.26986899971962">
        <ele>558.60000000000002</ele>
        <time>2019-06-23T08:23:00Z</time>
      </trkpt>
      <trkpt lat="42.871606964617968" lon="-2.269773026928306">
        <ele>558.39999999999998</ele>
        <time>2019-06-23T08:23:01Z</time>
      </trkpt>
      <trkpt lat="42.871609982103109" lon="-2.269675964489579">
        <ele>558.60000000000002</ele>
        <time>2019-06-23T08:23:02Z</time>
      </trkpt>
      <trkpt lat="42.871609982103109" lon="-2.269477983936667">
        <ele>558.60000000000002</ele>
        <time>2019-06-23T08:23:04Z</time>
      </trkpt>
      <trkpt lat="42.871605036780238" lon="-2.269273968413472">
        <ele>558.79999999999995</ele>
        <time>2019-06-23T08:23:06Z</time>
      </trkpt>
      <trkpt lat="42.871599001809955" lon="-2.269064001739025">
        <ele>559</ele>
        <time>2019-06-23T08:23:08Z</time>
      </trkpt>
      <trkpt lat="42.871590033173561" lon="-2.268854035064578">
        <ele>559</ele>
        <time>2019-06-23T08:23:10Z</time>
      </trkpt>
      <trkpt lat="42.871571006253362" lon="-2.26864499039948">
        <ele>559</ele>
        <time>2019-06-23T08:23:12Z</time>
      </trkpt>
      <trkpt lat="42.871543010696769" lon="-2.268437035381794">
        <ele>559.20000000000005</ele>
        <time>2019-06-23T08:23:14Z</time>
      </trkpt>
      <trkpt lat="42.871507974341512" lon="-2.268234025686979">
        <ele>559.20000000000005</ele>
        <time>2019-06-23T08:23:16Z</time>
      </trkpt>
      <trkpt lat="42.871466986835003" lon="-2.268035039305687">
        <ele>559.20000000000005</ele>
        <time>2019-06-23T08:23:18Z</time>
      </trkpt>
      <trkpt lat="42.871441002935171" lon="-2.267937976866961">
        <ele>559.20000000000005</ele>
        <time>2019-06-23T08:23:19Z</time>
      </trkpt>
      <trkpt lat="42.871414013206959" lon="-2.267840998247266">
        <ele>559.20000000000005</ele>
        <time>2019-06-23T08:23:20Z</time>
      </trkpt>
      <trkpt lat="42.871358022093773" lon="-2.267647041007876">
        <ele>559.20000000000005</ele>
        <time>2019-06-23T08:23:22Z</time>
      </trkpt>
      <trkpt lat="42.871299013495445" lon="-2.267454005777836">
        <ele>559.20000000000005</ele>
        <time>2019-06-23T08:23:24Z</time>
      </trkpt>
      <trkpt lat="42.871238999068737" lon="-2.267260970547795">
        <ele>559.20000000000005</ele>
        <time>2019-06-23T08:23:26Z</time>
      </trkpt>
      <trkpt lat="42.871177978813648" lon="-2.267067013308406">
        <ele>559.20000000000005</ele>
        <time>2019-06-23T08:23:28Z</time>
      </trkpt>
      <trkpt lat="42.871114024892449" lon="-2.266872972249985">
        <ele>559</ele>
        <time>2019-06-23T08:23:30Z</time>
      </trkpt>
      <trkpt lat="42.871049987152219" lon="-2.266678009182215">
        <ele>559</ele>
        <time>2019-06-23T08:23:32Z</time>
      </trkpt>
      <trkpt lat="42.870982009917498" lon="-2.266482962295413">
        <ele>559</ele>
        <time>2019-06-23T08:23:34Z</time>
      </trkpt>
      <trkpt lat="42.870912021026015" lon="-2.266290010884404">
        <ele>558.79999999999995</ele>
        <time>2019-06-23T08:23:36Z</time>
      </trkpt>
      <trkpt lat="42.870841026306152" lon="-2.266098987311125">
        <ele>558.60000000000002</ele>
        <time>2019-06-23T08:23:38Z</time>
      </trkpt>
      <trkpt lat="42.87077103741467" lon="-2.265906035900116">
        <ele>558.60000000000002</ele>
        <time>2019-06-23T08:23:40Z</time>
      </trkpt>
      <trkpt lat="42.870706999674439" lon="-2.265710989013314">
        <ele>558.20000000000005</ele>
        <time>2019-06-23T08:23:42Z</time>
      </trkpt>
      <trkpt lat="42.870647991076112" lon="-2.265512002632022">
        <ele>558</ele>
        <time>2019-06-23T08:23:44Z</time>
      </trkpt>
      <trkpt lat="42.870596023276448" lon="-2.265312010422349">
        <ele>558</ele>
        <time>2019-06-23T08:23:46Z</time>
      </trkpt>
      <trkpt lat="42.870546989142895" lon="-2.265111012384296">
        <ele>557.79999999999995</ele>
        <time>2019-06-23T08:23:48Z</time>
      </trkpt>
      <trkpt lat="42.870498960837722" lon="-2.264913031831384">
        <ele>557.79999999999995</ele>
        <time>2019-06-23T08:23:50Z</time>
      </trkpt>
      <trkpt lat="42.870474988594651" lon="-2.264814041554928">
        <ele>557.79999999999995</ele>
        <time>2019-06-23T08:23:51Z</time>
      </trkpt>
      <trkpt lat="42.870453028008342" lon="-2.26471496745944">
        <ele>557.60000000000002</ele>
        <time>2019-06-23T08:23:52Z</time>
      </trkpt>
      <trkpt lat="42.870410028845072" lon="-2.26452000439167">
        <ele>557.60000000000002</ele>
        <time>2019-06-23T08:23:54Z</time>
      </trkpt>
      <trkpt lat="42.870389996096492" lon="-2.264423025771976">
        <ele>557.60000000000002</ele>
        <time>2019-06-23T08:23:55Z</time>
      </trkpt>
      <trkpt lat="42.870368035510182" lon="-2.264325963333249">
        <ele>557.39999999999998</ele>
        <time>2019-06-23T08:23:56Z</time>
      </trkpt>
      <trkpt lat="42.870345991104841" lon="-2.264229990541935">
        <ele>557.39999999999998</ele>
        <time>2019-06-23T08:23:57Z</time>
      </trkpt>
      <trkpt lat="42.870319001376629" lon="-2.264136029407382">
        <ele>557.39999999999998</ele>
        <time>2019-06-23T08:23:58Z</time>
      </trkpt>
      <trkpt lat="42.870281031355262" lon="-2.264048019424081">
        <ele>557.39999999999998</ele>
        <time>2019-06-23T08:23:59Z</time>
      </trkpt>
      <trkpt lat="42.870224034413695" lon="-2.263990016654134">
        <ele>557.20000000000005</ele>
        <time>2019-06-23T08:24:00Z</time>
      </trkpt>
      <trkpt lat="42.870153039693832" lon="-2.263969983905554">
        <ele>557.20000000000005</ele>
        <time>2019-06-23T08:24:01Z</time>
      </trkpt>
      <trkpt lat="42.870073998346925" lon="-2.263989010825753">
        <ele>557</ele>
        <time>2019-06-23T08:24:02Z</time>
      </trkpt>
      <trkpt lat="42.869917005300522" lon="-2.264065034687519">
        <ele>557</ele>
        <time>2019-06-23T08:24:04Z</time>
      </trkpt>
      <trkpt lat="42.869751965627074" lon="-2.264138041064143">
        <ele>556.79999999999995</ele>
        <time>2019-06-23T08:24:06Z</time>
      </trkpt>
      <trkpt lat="42.86958902142942" lon="-2.264209035784006">
        <ele>556.79999999999995</ele>
        <time>2019-06-23T08:24:08Z</time>
      </trkpt>
      <trkpt lat="42.869433034211397" lon="-2.264277013018727">
        <ele>556.79999999999995</ele>
        <time>2019-06-23T08:24:10Z</time>
      </trkpt>
      <trkpt lat="42.869286015629768" lon="-2.264342978596687">
        <ele>556.60000000000002</ele>
        <time>2019-06-23T08:24:12Z</time>
      </trkpt>
      <trkpt lat="42.869216026738286" lon="-2.264371979981661">
        <ele>556.79999999999995</ele>
        <time>2019-06-23T08:24:13Z</time>
      </trkpt>
      <trkpt lat="42.869149977341294" lon="-2.264397041872144">
        <ele>556.79999999999995</ele>
        <time>2019-06-23T08:24:14Z</time>
      </trkpt>
      <trkpt lat="42.86903103813529" lon="-2.264436017721891">
        <ele>556.60000000000002</ele>
        <time>2019-06-23T08:24:16Z</time>
      </trkpt>
      <trkpt lat="42.868929030373693" lon="-2.264471976086497">
        <ele>557.20000000000005</ele>
        <time>2019-06-23T08:24:18Z</time>
      </trkpt>
      <trkpt lat="42.868826016783714" lon="-2.264497959986329">
        <ele>557.79999999999995</ele>
        <time>2019-06-23T08:24:20Z</time>
      </trkpt>
      <trkpt lat="42.868729960173368" lon="-2.264523021876812">
        <ele>558</ele>
        <time>2019-06-23T08:24:22Z</time>
      </trkpt>
      <trkpt lat="42.868682015687227" lon="-2.264530984684825">
        <ele>558.60000000000002</ele>
        <time>2019-06-23T08:24:23Z</time>
      </trkpt>
      <trkpt lat="42.868633987382054" lon="-2.26453903131187">
        <ele>559</ele>
        <time>2019-06-23T08:24:24Z</time>
      </trkpt>
      <trkpt lat="42.868585959076881" lon="-2.264547999948263">
        <ele>559.60000000000002</ele>
        <time>2019-06-23T08:24:25Z</time>
      </trkpt>
      <trkpt lat="42.868539020419121" lon="-2.264560991898179">
        <ele>560.39999999999998</ele>
        <time>2019-06-23T08:24:26Z</time>
      </trkpt>
      <trkpt lat="42.868445981293917" lon="-2.264583958312869">
        <ele>561.20000000000005</ele>
        <time>2019-06-23T08:24:28Z</time>
      </trkpt>
      <trkpt lat="42.868351014330983" lon="-2.264595022425056">
        <ele>562.20000000000005</ele>
        <time>2019-06-23T08:24:30Z</time>
      </trkpt>
      <trkpt lat="42.86830198019743" lon="-2.264599967747927">
        <ele>562.39999999999998</ele>
        <time>2019-06-23T08:24:31Z</time>
      </trkpt>
      <trkpt lat="42.868253029882908" lon="-2.264607008546591">
        <ele>563</ele>
        <time>2019-06-23T08:24:32Z</time>
      </trkpt>
      <trkpt lat="42.868153033778071" lon="-2.26462796330452">
        <ele>563.79999999999995</ele>
        <time>2019-06-23T08:24:34Z</time>
      </trkpt>
      <trkpt lat="42.868100982159376" lon="-2.264640033245087">
        <ele>563.79999999999995</ele>
        <time>2019-06-23T08:24:35Z</time>
      </trkpt>
      <trkpt lat="42.868049014359713" lon="-2.264653025195003">
        <ele>564.20000000000005</ele>
        <time>2019-06-23T08:24:36Z</time>
      </trkpt>
      <trkpt lat="42.867941977456212" lon="-2.264681020751596">
        <ele>565</ele>
        <time>2019-06-23T08:24:38Z</time>
      </trkpt>
      <trkpt lat="42.867827983573079" lon="-2.264708010479808">
        <ele>565.60000000000002</ele>
        <time>2019-06-23T08:24:40Z</time>
      </trkpt>
      <trkpt lat="42.867709966376424" lon="-2.264730976894498">
        <ele>566.20000000000005</ele>
        <time>2019-06-23T08:24:42Z</time>
      </trkpt>
      <trkpt lat="42.867590021342039" lon="-2.264750003814697">
        <ele>566.60000000000002</ele>
        <time>2019-06-23T08:24:44Z</time>
      </trkpt>
      <trkpt lat="42.867467980831861" lon="-2.264770958572626">
        <ele>566.79999999999995</ele>
        <time>2019-06-23T08:24:46Z</time>
      </trkpt>
      <trkpt lat="42.867343006655574" lon="-2.264795014634728">
        <ele>566.60000000000002</ele>
        <time>2019-06-23T08:24:48Z</time>
      </trkpt>
      <trkpt lat="42.867277963086963" lon="-2.264804989099503">
        <ele>566.79999999999995</ele>
        <time>2019-06-23T08:24:49Z</time>
      </trkpt>
      <trkpt lat="42.867214009165764" lon="-2.264812029898167">
        <ele>566.79999999999995</ele>
        <time>2019-06-23T08:24:50Z</time>
      </trkpt>
      <trkpt lat="42.867084005847573" lon="-2.264823010191321">
        <ele>567</ele>
        <time>2019-06-23T08:24:52Z</time>
      </trkpt>
      <trkpt lat="42.866955008357763" lon="-2.264828961342573">
        <ele>567</ele>
        <time>2019-06-23T08:24:54Z</time>
      </trkpt>
      <trkpt lat="42.866822993382812" lon="-2.264834996312857">
        <ele>567</ele>
        <time>2019-06-23T08:24:56Z</time>
      </trkpt>
      <trkpt lat="42.866689972579479" lon="-2.26484295912087">
        <ele>566.79999999999995</ele>
        <time>2019-06-23T08:24:58Z</time>
      </trkpt>
      <trkpt lat="42.866563992574811" lon="-2.264855029061437">
        <ele>566.79999999999995</ele>
        <time>2019-06-23T08:25:00Z</time>
      </trkpt>
      <trkpt lat="42.866447987034917" lon="-2.26486399769783">
        <ele>566.79999999999995</ele>
        <time>2019-06-23T08:25:02Z</time>
      </trkpt>
      <trkpt lat="42.866330975666642" lon="-2.264859974384308">
        <ele>566.79999999999995</ele>
        <time>2019-06-23T08:25:04Z</time>
      </trkpt>
      <trkpt lat="42.866208013147116" lon="-2.264868021011353">
        <ele>566.79999999999995</ele>
        <time>2019-06-23T08:25:06Z</time>
      </trkpt>
      <trkpt lat="42.866082033142447" lon="-2.264902973547578">
        <ele>566.79999999999995</ele>
        <time>2019-06-23T08:25:08Z</time>
      </trkpt>
      <trkpt lat="42.866022018715739" lon="-2.26492996327579">
        <ele>566.79999999999995</ele>
        <time>2019-06-23T08:25:09Z</time>
      </trkpt>
      <trkpt lat="42.865964015945792" lon="-2.264960976317525">
        <ele>567</ele>
        <time>2019-06-23T08:25:10Z</time>
      </trkpt>
      <trkpt lat="42.86585496738553" lon="-2.265040017664433">
        <ele>567.20000000000005</ele>
        <time>2019-06-23T08:25:12Z</time>
      </trkpt>
      <trkpt lat="42.865760000422597" lon="-2.265135990455747">
        <ele>567</ele>
        <time>2019-06-23T08:25:14Z</time>
      </trkpt>
      <trkpt lat="42.865677019581199" lon="-2.265243027359247">
        <ele>567.20000000000005</ele>
        <time>2019-06-23T08:25:16Z</time>
      </trkpt>
      <trkpt lat="42.865608036518097" lon="-2.265360038727522">
        <ele>567.39999999999998</ele>
        <time>2019-06-23T08:25:18Z</time>
      </trkpt>
      <trkpt lat="42.865579035133123" lon="-2.26542198099196">
        <ele>567.39999999999998</ele>
        <time>2019-06-23T08:25:19Z</time>
      </trkpt>
      <trkpt lat="42.86555397324264" lon="-2.265484007075429">
        <ele>567.39999999999998</ele>
        <time>2019-06-23T08:25:20Z</time>
      </trkpt>
      <trkpt lat="42.865508962422609" lon="-2.265608981251717">
        <ele>567.60000000000002</ele>
        <time>2019-06-23T08:25:22Z</time>
      </trkpt>
      <trkpt lat="42.865479039028287" lon="-2.265737978741527">
        <ele>568.39999999999998</ele>
        <time>2019-06-23T08:25:24Z</time>
      </trkpt>
      <trkpt lat="42.865465963259339" lon="-2.26580603979528">
        <ele>568.60000000000002</ele>
        <time>2019-06-23T08:25:25Z</time>
      </trkpt>
      <trkpt lat="42.865454982966185" lon="-2.26587301120162">
        <ele>569</ele>
        <time>2019-06-23T08:25:26Z</time>
      </trkpt>
      <trkpt lat="42.865449031814933" lon="-2.265940988436341">
        <ele>569.20000000000005</ele>
        <time>2019-06-23T08:25:27Z</time>
      </trkpt>
      <trkpt lat="42.865449031814933" lon="-2.266008965671063">
        <ele>569.39999999999998</ele>
        <time>2019-06-23T08:25:28Z</time>
      </trkpt>
      <trkpt lat="42.865451965481043" lon="-2.266145003959537">
        <ele>570.20000000000005</ele>
        <time>2019-06-23T08:25:30Z</time>
      </trkpt>
      <trkpt lat="42.865465963259339" lon="-2.26627903059125">
        <ele>570.79999999999995</ele>
        <time>2019-06-23T08:25:32Z</time>
      </trkpt>
      <trkpt lat="42.865489013493061" lon="-2.26641096174717">
        <ele>571.20000000000005</ele>
        <time>2019-06-23T08:25:34Z</time>
      </trkpt>
      <trkpt lat="42.865512985736132" lon="-2.26653803139925">
        <ele>571.79999999999995</ele>
        <time>2019-06-23T08:25:36Z</time>
      </trkpt>
      <trkpt lat="42.865525977686048" lon="-2.266601985320449">
        <ele>571.79999999999995</ele>
        <time>2019-06-23T08:25:37Z</time>
      </trkpt>
      <trkpt lat="42.865539975464344" lon="-2.266666023060679">
        <ele>572</ele>
        <time>2019-06-23T08:25:38Z</time>
      </trkpt>
      <trkpt lat="42.86555296741426" lon="-2.266727965325117">
        <ele>572.39999999999998</ele>
        <time>2019-06-23T08:25:39Z</time>
      </trkpt>
      <trkpt lat="42.865565037354827" lon="-2.266790997236967">
        <ele>572.79999999999995</ele>
        <time>2019-06-23T08:25:40Z</time>
      </trkpt>
      <trkpt lat="42.865585992112756" lon="-2.266916977241635">
        <ele>573.20000000000005</ele>
        <time>2019-06-23T08:25:42Z</time>
      </trkpt>
      <trkpt lat="42.865605019032955" lon="-2.267043963074684">
        <ele>573.39999999999998</ele>
        <time>2019-06-23T08:25:44Z</time>
      </trkpt>
      <trkpt lat="42.86561599932611" lon="-2.267173966392875">
        <ele>574</ele>
        <time>2019-06-23T08:25:46Z</time>
      </trkpt>
      <trkpt lat="42.865618010982871" lon="-2.267241021618247">
        <ele>574.39999999999998</ele>
        <time>2019-06-23T08:25:47Z</time>
      </trkpt>
      <trkpt lat="42.86561599932611" lon="-2.267307993024588">
        <ele>574.79999999999995</ele>
        <time>2019-06-23T08:25:48Z</time>
      </trkpt>
      <trkpt lat="42.865609964355826" lon="-2.26744101382792">
        <ele>575.39999999999998</ele>
        <time>2019-06-23T08:25:50Z</time>
      </trkpt>
      <trkpt lat="42.865604013204575" lon="-2.267508991062641">
        <ele>576</ele>
        <time>2019-06-23T08:25:51Z</time>
      </trkpt>
      <trkpt lat="42.8655940387398" lon="-2.267576968297362">
        <ele>576.20000000000005</ele>
        <time>2019-06-23T08:25:52Z</time>
      </trkpt>
      <trkpt lat="42.865580040961504" lon="-2.267643017694354">
        <ele>576.60000000000002</ele>
        <time>2019-06-23T08:25:53Z</time>
      </trkpt>
      <trkpt lat="42.865565037354827" lon="-2.267708983272314">
        <ele>576.79999999999995</ele>
        <time>2019-06-23T08:25:54Z</time>
      </trkpt>
      <trkpt lat="42.865527989342809" lon="-2.267837980762124">
        <ele>577.39999999999998</ele>
        <time>2019-06-23T08:25:56Z</time>
      </trkpt>
      <trkpt lat="42.865482978522778" lon="-2.267961027100682">
        <ele>578</ele>
        <time>2019-06-23T08:25:58Z</time>
      </trkpt>
      <trkpt lat="42.865431010723114" lon="-2.268078038468957">
        <ele>578.60000000000002</ele>
        <time>2019-06-23T08:26:00Z</time>
      </trkpt>
      <trkpt lat="42.865369990468025" lon="-2.26819203235209">
        <ele>579</ele>
        <time>2019-06-23T08:26:02Z</time>
      </trkpt>
      <trkpt lat="42.865304024890065" lon="-2.268297979608178">
        <ele>579.60000000000002</ele>
        <time>2019-06-23T08:26:04Z</time>
      </trkpt>
      <trkpt lat="42.86522900685668" lon="-2.268395964056253">
        <ele>580.39999999999998</ele>
        <time>2019-06-23T08:26:06Z</time>
      </trkpt>
      <trkpt lat="42.865189025178552" lon="-2.268439969047904">
        <ele>580.39999999999998</ele>
        <time>2019-06-23T08:26:07Z</time>
      </trkpt>
      <trkpt lat="42.865146026015282" lon="-2.268482968211174">
        <ele>580.60000000000002</ele>
        <time>2019-06-23T08:26:08Z</time>
      </trkpt>
      <trkpt lat="42.865056004375219" lon="-2.268561003729701">
        <ele>580.79999999999995</ele>
        <time>2019-06-23T08:26:10Z</time>
      </trkpt>
      <trkpt lat="42.864961037412286" lon="-2.268626969307661">
        <ele>580.79999999999995</ele>
        <time>2019-06-23T08:26:12Z</time>
      </trkpt>
      <trkpt lat="42.864912003278732" lon="-2.268655970692635">
        <ele>581</ele>
        <time>2019-06-23T08:26:13Z</time>
      </trkpt>
      <trkpt lat="42.864860035479069" lon="-2.268682960420847">
        <ele>581</ele>
        <time>2019-06-23T08:26:14Z</time>
      </trkpt>
      <trkpt lat="42.864751992747188" lon="-2.2687319945544">
        <ele>581.20000000000005</ele>
        <time>2019-06-23T08:26:16Z</time>
      </trkpt>
      <trkpt lat="42.864639004692435" lon="-2.268777005374432">
        <ele>581</ele>
        <time>2019-06-23T08:26:18Z</time>
      </trkpt>
      <trkpt lat="42.864521993324161" lon="-2.268825033679605">
        <ele>581.20000000000005</ele>
        <time>2019-06-23T08:26:20Z</time>
      </trkpt>
      <trkpt lat="42.864402970299125" lon="-2.268883036449552">
        <ele>581.39999999999998</ele>
        <time>2019-06-23T08:26:22Z</time>
      </trkpt>
      <trkpt lat="42.864281013607979" lon="-2.268955036997795">
        <ele>581.39999999999998</ele>
        <time>2019-06-23T08:26:24Z</time>
      </trkpt>
      <trkpt lat="42.864220999181271" lon="-2.268998036161065">
        <ele>581.39999999999998</ele>
        <time>2019-06-23T08:26:25Z</time>
      </trkpt>
      <trkpt lat="42.864162996411324" lon="-2.269047992303968">
        <ele>581.39999999999998</ele>
        <time>2019-06-23T08:26:26Z</time>
      </trkpt>
      <trkpt lat="42.864053025841713" lon="-2.269163997843862">
        <ele>581.39999999999998</ele>
        <time>2019-06-23T08:26:28Z</time>
      </trkpt>
      <trkpt lat="42.863953029736876" lon="-2.269300036132336">
        <ele>581.39999999999998</ele>
        <time>2019-06-23T08:26:30Z</time>
      </trkpt>
      <trkpt lat="42.863908018916845" lon="-2.26937597617507">
        <ele>581.20000000000005</ele>
        <time>2019-06-23T08:26:31Z</time>
      </trkpt>
      <trkpt lat="42.863867031410336" lon="-2.269455017521977">
        <ele>580.79999999999995</ele>
        <time>2019-06-23T08:26:32Z</time>
      </trkpt>
      <trkpt lat="42.863799976184964" lon="-2.269623996689916">
        <ele>580.79999999999995</ele>
        <time>2019-06-23T08:26:34Z</time>
      </trkpt>
      <trkpt lat="42.863751025870442" lon="-2.269801022484899">
        <ele>580.39999999999998</ele>
        <time>2019-06-23T08:26:36Z</time>
      </trkpt>
      <trkpt lat="42.863719007000327" lon="-2.269981987774372">
        <ele>580.39999999999998</ele>
        <time>2019-06-23T08:26:38Z</time>
      </trkpt>
      <trkpt lat="42.863700985908508" lon="-2.270163958892226">
        <ele>580.39999999999998</ele>
        <time>2019-06-23T08:26:40Z</time>
      </trkpt>
      <trkpt lat="42.863696040585637" lon="-2.270252974703908">
        <ele>580.39999999999998</ele>
        <time>2019-06-23T08:26:41Z</time>
      </trkpt>
      <trkpt lat="42.863693023100495" lon="-2.270339978858829">
        <ele>580.20000000000005</ele>
        <time>2019-06-23T08:26:42Z</time>
      </trkpt>
      <trkpt lat="42.863692017272115" lon="-2.270426983013749">
        <ele>580.39999999999998</ele>
        <time>2019-06-23T08:26:43Z</time>
      </trkpt>
      <trkpt lat="42.863691011443734" lon="-2.270511975511909">
        <ele>580.20000000000005</ele>
        <time>2019-06-23T08:26:44Z</time>
      </trkpt>
      <trkpt lat="42.863690005615354" lon="-2.270683972164989">
        <ele>580.39999999999998</ele>
        <time>2019-06-23T08:26:46Z</time>
      </trkpt>
      <trkpt lat="42.863691011443734" lon="-2.270768964663148">
        <ele>580.60000000000002</ele>
        <time>2019-06-23T08:26:47Z</time>
      </trkpt>
      <trkpt lat="42.863692017272115" lon="-2.270853035151959">
        <ele>580.79999999999995</ele>
        <time>2019-06-23T08:26:48Z</time>
      </trkpt>
      <trkpt lat="42.863692017272115" lon="-2.271021008491516">
        <ele>581</ele>
        <time>2019-06-23T08:26:50Z</time>
      </trkpt>
      <trkpt lat="42.863690005615354" lon="-2.271103989332914">
        <ele>581</ele>
        <time>2019-06-23T08:26:51Z</time>
      </trkpt>
      <trkpt lat="42.863686988130212" lon="-2.271185964345932">
        <ele>581.39999999999998</ele>
        <time>2019-06-23T08:26:52Z</time>
      </trkpt>
      <trkpt lat="42.863685982301831" lon="-2.271267017349601">
        <ele>581.60000000000002</ele>
        <time>2019-06-23T08:26:53Z</time>
      </trkpt>
      <trkpt lat="42.863684976473451" lon="-2.271347986534238">
        <ele>581.79999999999995</ele>
        <time>2019-06-23T08:26:54Z</time>
      </trkpt>
      <trkpt lat="42.86368397064507" lon="-2.271509002894163">
        <ele>582</ele>
        <time>2019-06-23T08:26:56Z</time>
      </trkpt>
      <trkpt lat="42.86368397064507" lon="-2.27158896625042">
        <ele>582</ele>
        <time>2019-06-23T08:26:57Z</time>
      </trkpt>
      <trkpt lat="42.86368397064507" lon="-2.271668007597327">
        <ele>582.20000000000005</ele>
        <time>2019-06-23T08:26:58Z</time>
      </trkpt>
      <trkpt lat="42.863685982301831" lon="-2.271826006472111">
        <ele>582.79999999999995</ele>
        <time>2019-06-23T08:27:00Z</time>
      </trkpt>
      <trkpt lat="42.863686988130212" lon="-2.271984005346894">
        <ele>583</ele>
        <time>2019-06-23T08:27:02Z</time>
      </trkpt>
      <trkpt lat="42.863685982301831" lon="-2.272142004221678">
        <ele>583.60000000000002</ele>
        <time>2019-06-23T08:27:04Z</time>
      </trkpt>
      <trkpt lat="42.86368397064507" lon="-2.272298997268081">
        <ele>583.79999999999995</ele>
        <time>2019-06-23T08:27:06Z</time>
      </trkpt>
      <trkpt lat="42.863680031150579" lon="-2.272456996142864">
        <ele>584.39999999999998</ele>
        <time>2019-06-23T08:27:08Z</time>
      </trkpt>
      <trkpt lat="42.863678019493818" lon="-2.272614995017648">
        <ele>584.60000000000002</ele>
        <time>2019-06-23T08:27:10Z</time>
      </trkpt>
      <trkpt lat="42.863678019493818" lon="-2.272771988064051">
        <ele>585</ele>
        <time>2019-06-23T08:27:12Z</time>
      </trkpt>
      <trkpt lat="42.863678019493818" lon="-2.272851029410958">
        <ele>585.20000000000005</ele>
        <time>2019-06-23T08:27:13Z</time>
      </trkpt>
      <trkpt lat="42.863678019493818" lon="-2.272929986938834">
        <ele>585.39999999999998</ele>
        <time>2019-06-23T08:27:14Z</time>
      </trkpt>
      <trkpt lat="42.863677013665438" lon="-2.273089997470379">
        <ele>585.79999999999995</ele>
        <time>2019-06-23T08:27:16Z</time>
      </trkpt>
      <trkpt lat="42.863677013665438" lon="-2.273252019658685">
        <ele>586</ele>
        <time>2019-06-23T08:27:18Z</time>
      </trkpt>
      <trkpt lat="42.863676007837057" lon="-2.27341303601861">
        <ele>586.60000000000002</ele>
        <time>2019-06-23T08:27:20Z</time>
      </trkpt>
      <trkpt lat="42.863675002008677" lon="-2.273573968559504">
        <ele>587</ele>
        <time>2019-06-23T08:27:22Z</time>
      </trkpt>
      <trkpt lat="42.863671984523535" lon="-2.273733979091048">
        <ele>587.39999999999998</ele>
        <time>2019-06-23T08:27:24Z</time>
      </trkpt>
      <trkpt lat="42.863667961210012" lon="-2.273890972137451">
        <ele>587.60000000000002</ele>
        <time>2019-06-23T08:27:26Z</time>
      </trkpt>
      <trkpt lat="42.863665027543902" lon="-2.274046037346125">
        <ele>587.79999999999995</ele>
        <time>2019-06-23T08:27:28Z</time>
      </trkpt>
      <trkpt lat="42.863664021715522" lon="-2.274122983217239">
        <ele>588</ele>
        <time>2019-06-23T08:27:29Z</time>
      </trkpt>
      <trkpt lat="42.863662010058761" lon="-2.274201018735766">
        <ele>587.79999999999995</ele>
        <time>2019-06-23T08:27:30Z</time>
      </trkpt>
      <trkpt lat="42.863657986745238" lon="-2.274356000125408">
        <ele>588.20000000000005</ele>
        <time>2019-06-23T08:27:32Z</time>
      </trkpt>
      <trkpt lat="42.863656980916858" lon="-2.274509975686669">
        <ele>588.39999999999998</ele>
        <time>2019-06-23T08:27:34Z</time>
      </trkpt>
      <trkpt lat="42.863653963431716" lon="-2.274663029238582">
        <ele>588.79999999999995</ele>
        <time>2019-06-23T08:27:36Z</time>
      </trkpt>
      <trkpt lat="42.863651029765606" lon="-2.274817004799843">
        <ele>589.20000000000005</ele>
        <time>2019-06-23T08:27:38Z</time>
      </trkpt>
      <trkpt lat="42.863650023937225" lon="-2.274894034489989">
        <ele>589.39999999999998</ele>
        <time>2019-06-23T08:27:39Z</time>
      </trkpt>
      <trkpt lat="42.863648012280464" lon="-2.274970980361104">
        <ele>589.39999999999998</ele>
        <time>2019-06-23T08:27:40Z</time>
      </trkpt>
      <trkpt lat="42.863646000623703" lon="-2.275125039741397">
        <ele>589.79999999999995</ele>
        <time>2019-06-23T08:27:42Z</time>
      </trkpt>
      <trkpt lat="42.863643988966942" lon="-2.2752820327878">
        <ele>589.79999999999995</ele>
        <time>2019-06-23T08:27:44Z</time>
      </trkpt>
      <trkpt lat="42.863643988966942" lon="-2.275441037490964">
        <ele>590</ele>
        <time>2019-06-23T08:27:46Z</time>
      </trkpt>
      <trkpt lat="42.863641977310181" lon="-2.275600964203477">
        <ele>590.60000000000002</ele>
        <time>2019-06-23T08:27:48Z</time>
      </trkpt>
      <trkpt lat="42.863639965653419" lon="-2.275760974735022">
        <ele>591.20000000000005</ele>
        <time>2019-06-23T08:27:50Z</time>
      </trkpt>
      <trkpt lat="42.863638959825039" lon="-2.275840016081929">
        <ele>591.39999999999998</ele>
        <time>2019-06-23T08:27:51Z</time>
      </trkpt>
      <trkpt lat="42.863637031987309" lon="-2.275919979438186">
        <ele>591.60000000000002</ele>
        <time>2019-06-23T08:27:52Z</time>
      </trkpt>
      <trkpt lat="42.863637031987309" lon="-2.27607998996973">
        <ele>592.20000000000005</ele>
        <time>2019-06-23T08:27:54Z</time>
      </trkpt>
      <trkpt lat="42.863636026158929" lon="-2.276243017986417">
        <ele>592.39999999999998</ele>
        <time>2019-06-23T08:27:56Z</time>
      </trkpt>
      <trkpt lat="42.863634014502168" lon="-2.276408979669213">
        <ele>592.79999999999995</ele>
        <time>2019-06-23T08:27:58Z</time>
      </trkpt>
      <trkpt lat="42.863630997017026" lon="-2.276576030999422">
        <ele>592.79999999999995</ele>
        <time>2019-06-23T08:28:00Z</time>
      </trkpt>
      <trkpt lat="42.863629991188645" lon="-2.276660017669201">
        <ele>593</ele>
        <time>2019-06-23T08:28:01Z</time>
      </trkpt>
      <trkpt lat="42.863628985360265" lon="-2.276742998510599">
        <ele>593.20000000000005</ele>
        <time>2019-06-23T08:28:02Z</time>
      </trkpt>
      <trkpt lat="42.863627979531884" lon="-2.276908960193396">
        <ele>593.20000000000005</ele>
        <time>2019-06-23T08:28:04Z</time>
      </trkpt>
      <trkpt lat="42.863626973703504" lon="-2.277075005695224">
        <ele>593.39999999999998</ele>
        <time>2019-06-23T08:28:06Z</time>
      </trkpt>
      <trkpt lat="42.863625967875123" lon="-2.277158992365003">
        <ele>593.39999999999998</ele>
        <time>2019-06-23T08:28:07Z</time>
      </trkpt>
      <trkpt lat="42.863624962046742" lon="-2.277242979034782">
        <ele>593.20000000000005</ele>
        <time>2019-06-23T08:28:08Z</time>
      </trkpt>
      <trkpt lat="42.863621022552252" lon="-2.277413969859481">
        <ele>593.39999999999998</ele>
        <time>2019-06-23T08:28:10Z</time>
      </trkpt>
      <trkpt lat="42.863619010895491" lon="-2.277588983997703">
        <ele>593.60000000000002</ele>
        <time>2019-06-23T08:28:12Z</time>
      </trkpt>
      <trkpt lat="42.863621022552252" lon="-2.277765003964305">
        <ele>593.60000000000002</ele>
        <time>2019-06-23T08:28:14Z</time>
      </trkpt>
      <trkpt lat="42.863623034209013" lon="-2.277943035587668">
        <ele>593.79999999999995</ele>
        <time>2019-06-23T08:28:16Z</time>
      </trkpt>
      <trkpt lat="42.863624962046742" lon="-2.278121989220381">
        <ele>593.79999999999995</ele>
        <time>2019-06-23T08:28:18Z</time>
      </trkpt>
      <trkpt lat="42.863627979531884" lon="-2.278303960338235">
        <ele>594</ele>
        <time>2019-06-23T08:28:20Z</time>
      </trkpt>
      <trkpt lat="42.863630997017026" lon="-2.278395993635058">
        <ele>594</ele>
        <time>2019-06-23T08:28:21Z</time>
      </trkpt>
      <trkpt lat="42.863635020330548" lon="-2.278490038588643">
        <ele>594.20000000000005</ele>
        <time>2019-06-23T08:28:22Z</time>
      </trkpt>
      <trkpt lat="42.863639965653419" lon="-2.278680978342891">
        <ele>594.39999999999998</ele>
        <time>2019-06-23T08:28:24Z</time>
      </trkpt>
      <trkpt lat="42.863643988966942" lon="-2.278874013572931">
        <ele>594.39999999999998</ele>
        <time>2019-06-23T08:28:26Z</time>
      </trkpt>
      <trkpt lat="42.863647006452084" lon="-2.278973003849387">
        <ele>594.20000000000005</ele>
        <time>2019-06-23T08:28:27Z</time>
      </trkpt>
      <trkpt lat="42.863651029765606" lon="-2.279070988297463">
        <ele>594.20000000000005</ele>
        <time>2019-06-23T08:28:28Z</time>
      </trkpt>
      <trkpt lat="42.863653963431716" lon="-2.279170984402299">
        <ele>594.20000000000005</ele>
        <time>2019-06-23T08:28:29Z</time>
      </trkpt>
      <trkpt lat="42.863657986745238" lon="-2.279271986335516">
        <ele>594.20000000000005</ele>
        <time>2019-06-23T08:28:30Z</time>
      </trkpt>
      <trkpt lat="42.863663015887141" lon="-2.279478013515472">
        <ele>594.20000000000005</ele>
        <time>2019-06-23T08:28:32Z</time>
      </trkpt>
      <trkpt lat="42.863665027543902" lon="-2.279583038762212">
        <ele>594</ele>
        <time>2019-06-23T08:28:33Z</time>
      </trkpt>
      <trkpt lat="42.863667961210012" lon="-2.279689991846681">
        <ele>594</ele>
        <time>2019-06-23T08:28:34Z</time>
      </trkpt>
      <trkpt lat="42.863671984523535" lon="-2.279906999319792">
        <ele>593.60000000000002</ele>
        <time>2019-06-23T08:28:36Z</time>
      </trkpt>
      <trkpt lat="42.863675002008677" lon="-2.280129035934806">
        <ele>593</ele>
        <time>2019-06-23T08:28:38Z</time>
      </trkpt>
      <trkpt lat="42.863673996180296" lon="-2.280242023989558">
        <ele>592.79999999999995</ele>
        <time>2019-06-23T08:28:39Z</time>
      </trkpt>
      <trkpt lat="42.863673996180296" lon="-2.280356017872691">
        <ele>592.79999999999995</ele>
        <time>2019-06-23T08:28:40Z</time>
      </trkpt>
      <trkpt lat="42.863671984523535" lon="-2.280588028952479">
        <ele>592.39999999999998</ele>
        <time>2019-06-23T08:28:42Z</time>
      </trkpt>
      <trkpt lat="42.863666033372283" lon="-2.280822973698378">
        <ele>592.39999999999998</ele>
        <time>2019-06-23T08:28:44Z</time>
      </trkpt>
      <trkpt lat="42.863654969260097" lon="-2.281063031405211">
        <ele>592</ele>
        <time>2019-06-23T08:28:46Z</time>
      </trkpt>
      <trkpt lat="42.863646000623703" lon="-2.281306022778153">
        <ele>591.79999999999995</ele>
        <time>2019-06-23T08:28:48Z</time>
      </trkpt>
      <trkpt lat="42.863641977310181" lon="-2.281427979469299">
        <ele>591.79999999999995</ele>
        <time>2019-06-23T08:28:49Z</time>
      </trkpt>
      <trkpt lat="42.863637031987309" lon="-2.281550019979477">
        <ele>591.60000000000002</ele>
        <time>2019-06-23T08:28:50Z</time>
      </trkpt>
      <trkpt lat="42.863625967875123" lon="-2.281797034665942">
        <ele>591.39999999999998</ele>
        <time>2019-06-23T08:28:52Z</time>
      </trkpt>
      <trkpt lat="42.863613981753588" lon="-2.282045977190137">
        <ele>591.20000000000005</ele>
        <time>2019-06-23T08:28:54Z</time>
      </trkpt>
      <trkpt lat="42.863601995632052" lon="-2.282300032675266">
        <ele>590.60000000000002</ele>
        <time>2019-06-23T08:28:56Z</time>
      </trkpt>
      <trkpt lat="42.863590009510517" lon="-2.282558027654886">
        <ele>589.20000000000005</ele>
        <time>2019-06-23T08:28:58Z</time>
      </trkpt>
      <trkpt lat="42.863574000075459" lon="-2.282821973785758">
        <ele>588.60000000000002</ele>
        <time>2019-06-23T08:29:00Z</time>
      </trkpt>
      <trkpt lat="42.863557990640402" lon="-2.283089021220803">
        <ele>588.20000000000005</ele>
        <time>2019-06-23T08:29:02Z</time>
      </trkpt>
      <trkpt lat="42.863544998690486" lon="-2.283351961523294">
        <ele>588</ele>
        <time>2019-06-23T08:29:04Z</time>
      </trkpt>
      <trkpt lat="42.863533012568951" lon="-2.283611968159676">
        <ele>587.79999999999995</ele>
        <time>2019-06-23T08:29:06Z</time>
      </trkpt>
      <trkpt lat="42.863521026447415" lon="-2.283868035301566">
        <ele>587.39999999999998</ele>
        <time>2019-06-23T08:29:08Z</time>
      </trkpt>
      <trkpt lat="42.863508034497499" lon="-2.284122006967664">
        <ele>587</ele>
        <time>2019-06-23T08:29:10Z</time>
      </trkpt>
      <trkpt lat="42.863500993698835" lon="-2.284248992800713">
        <ele>586.60000000000002</ele>
        <time>2019-06-23T08:29:11Z</time>
      </trkpt>
      <trkpt lat="42.863494958728552" lon="-2.284377990290523">
        <ele>586.39999999999998</ele>
        <time>2019-06-23T08:29:12Z</time>
      </trkpt>
      <trkpt lat="42.863481966778636" lon="-2.284636991098523">
        <ele>586.20000000000005</ele>
        <time>2019-06-23T08:29:14Z</time>
      </trkpt>
      <trkpt lat="42.863475009799004" lon="-2.284769006073475">
        <ele>586.20000000000005</ele>
        <time>2019-06-23T08:29:15Z</time>
      </trkpt>
      <trkpt lat="42.86346796900034" lon="-2.284900015220046">
        <ele>586</ele>
        <time>2019-06-23T08:29:16Z</time>
      </trkpt>
      <trkpt lat="42.863452965393662" lon="-2.285162033513188">
        <ele>585.79999999999995</ele>
        <time>2019-06-23T08:29:18Z</time>
      </trkpt>
      <trkpt lat="42.863437961786985" lon="-2.285417011007667">
        <ele>585.79999999999995</ele>
        <time>2019-06-23T08:29:20Z</time>
      </trkpt>
      <trkpt lat="42.86342496983707" lon="-2.285662014037371">
        <ele>585.60000000000002</ele>
        <time>2019-06-23T08:29:22Z</time>
      </trkpt>
      <trkpt lat="42.863419018685818" lon="-2.285780031234026">
        <ele>585.60000000000002</ele>
        <time>2019-06-23T08:29:23Z</time>
      </trkpt>
      <trkpt lat="42.863412983715534" lon="-2.285893019288778">
        <ele>585.60000000000002</ele>
        <time>2019-06-23T08:29:24Z</time>
      </trkpt>
      <trkpt lat="42.86340300925076" lon="-2.286104997619987">
        <ele>585.60000000000002</ele>
        <time>2019-06-23T08:29:26Z</time>
      </trkpt>
      <trkpt lat="42.863391023129225" lon="-2.286296021193266">
        <ele>585.79999999999995</ele>
        <time>2019-06-23T08:29:28Z</time>
      </trkpt>
      <trkpt lat="42.863379959017038" lon="-2.286467012017965">
        <ele>585.79999999999995</ele>
        <time>2019-06-23T08:29:30Z</time>
      </trkpt>
      <trkpt lat="42.863373002037406" lon="-2.286615958437324">
        <ele>586</ele>
        <time>2019-06-23T08:29:32Z</time>
      </trkpt>
      <trkpt lat="42.863370990380645" lon="-2.286684019491077">
        <ele>586</ele>
        <time>2019-06-23T08:29:33Z</time>
      </trkpt>
      <trkpt lat="42.863369984552264" lon="-2.286751996725798">
        <ele>586.39999999999998</ele>
        <time>2019-06-23T08:29:34Z</time>
      </trkpt>
      <trkpt lat="42.863369984552264" lon="-2.286819973960519">
        <ele>586.79999999999995</ele>
        <time>2019-06-23T08:29:35Z</time>
      </trkpt>
      <trkpt lat="42.863368978723884" lon="-2.28688501752913">
        <ele>587.60000000000002</ele>
        <time>2019-06-23T08:29:36Z</time>
      </trkpt>
      <trkpt lat="42.863373002037406" lon="-2.287012003362179">
        <ele>588.60000000000002</ele>
        <time>2019-06-23T08:29:38Z</time>
      </trkpt>
      <trkpt lat="42.863379959017038" lon="-2.287137983366847">
        <ele>589.60000000000002</ele>
        <time>2019-06-23T08:29:40Z</time>
      </trkpt>
      <trkpt lat="42.863389011472464" lon="-2.287262035533786">
        <ele>590.60000000000002</ele>
        <time>2019-06-23T08:29:42Z</time>
      </trkpt>
      <trkpt lat="42.863395968452096" lon="-2.287324983626604">
        <ele>591</ele>
        <time>2019-06-23T08:29:43Z</time>
      </trkpt>
      <trkpt lat="42.863405020907521" lon="-2.287386003881693">
        <ele>591.79999999999995</ele>
        <time>2019-06-23T08:29:44Z</time>
      </trkpt>
      <trkpt lat="42.863422958180308" lon="-2.287508966401219">
        <ele>592.60000000000002</ele>
        <time>2019-06-23T08:29:46Z</time>
      </trkpt>
      <trkpt lat="42.863440979272127" lon="-2.287634024396539">
        <ele>593</ele>
        <time>2019-06-23T08:29:48Z</time>
      </trkpt>
      <trkpt lat="42.863457994535565" lon="-2.287758998572826">
        <ele>593.79999999999995</ele>
        <time>2019-06-23T08:29:50Z</time>
      </trkpt>
      <trkpt lat="42.863466963171959" lon="-2.287821024656296">
        <ele>594.20000000000005</ele>
        <time>2019-06-23T08:29:51Z</time>
      </trkpt>
      <trkpt lat="42.863476015627384" lon="-2.287886990234256">
        <ele>594.39999999999998</ele>
        <time>2019-06-23T08:29:52Z</time>
      </trkpt>
      <trkpt lat="42.863484984263778" lon="-2.287953039631248">
        <ele>595</ele>
        <time>2019-06-23T08:29:53Z</time>
      </trkpt>
      <trkpt lat="42.863492025062442" lon="-2.288019005209208">
        <ele>595.20000000000005</ele>
        <time>2019-06-23T08:29:54Z</time>
      </trkpt>
      <trkpt lat="42.863506022840738" lon="-2.288149008527398">
        <ele>596</ele>
        <time>2019-06-23T08:29:56Z</time>
      </trkpt>
      <trkpt lat="42.863513985648751" lon="-2.288280017673969">
        <ele>596.79999999999995</ele>
        <time>2019-06-23T08:29:58Z</time>
      </trkpt>
      <trkpt lat="42.863517003133893" lon="-2.28841102682054">
        <ele>597.39999999999998</ele>
        <time>2019-06-23T08:30:00Z</time>
      </trkpt>
      <trkpt lat="42.863518008962274" lon="-2.288543963804841">
        <ele>598</ele>
        <time>2019-06-23T08:30:02Z</time>
      </trkpt>
      <trkpt lat="42.863509962335229" lon="-2.288678996264935">
        <ele>598.60000000000002</ele>
        <time>2019-06-23T08:30:04Z</time>
      </trkpt>
      <trkpt lat="42.863496970385313" lon="-2.288817968219519">
        <ele>599</ele>
        <time>2019-06-23T08:30:06Z</time>
      </trkpt>
      <trkpt lat="42.863479033112526" lon="-2.288959035649896">
        <ele>599.39999999999998</ele>
        <time>2019-06-23T08:30:08Z</time>
      </trkpt>
      <trkpt lat="42.863457994535565" lon="-2.289103036746383">
        <ele>599.60000000000002</ele>
        <time>2019-06-23T08:30:10Z</time>
      </trkpt>
      <trkpt lat="42.863445002585649" lon="-2.289174031466246">
        <ele>599.79999999999995</ele>
        <time>2019-06-23T08:30:11Z</time>
      </trkpt>
      <trkpt lat="42.863432010635734" lon="-2.289246032014489">
        <ele>599.79999999999995</ele>
        <time>2019-06-23T08:30:12Z</time>
      </trkpt>
      <trkpt lat="42.863404015079141" lon="-2.289393972605467">
        <ele>600.39999999999998</ele>
        <time>2019-06-23T08:30:14Z</time>
      </trkpt>
      <trkpt lat="42.863373002037406" lon="-2.28954803198576">
        <ele>600.39999999999998</ele>
        <time>2019-06-23T08:30:16Z</time>
      </trkpt>
      <trkpt lat="42.863356992602348" lon="-2.289627995342016">
        <ele>600.39999999999998</ele>
        <time>2019-06-23T08:30:17Z</time>
      </trkpt>
      <trkpt lat="42.863342994824052" lon="-2.289708964526653">
        <ele>600.60000000000002</ele>
        <time>2019-06-23T08:30:18Z</time>
      </trkpt>
      <trkpt lat="42.86331701092422" lon="-2.289875010028482">
        <ele>600.60000000000002</ele>
        <time>2019-06-23T08:30:20Z</time>
      </trkpt>
      <trkpt lat="42.86329697817564" lon="-2.290050024166703">
        <ele>600.60000000000002</ele>
        <time>2019-06-23T08:30:22Z</time>
      </trkpt>
      <trkpt lat="42.863287003710866" lon="-2.29023702442646">
        <ele>600.60000000000002</ele>
        <time>2019-06-23T08:30:24Z</time>
      </trkpt>
      <trkpt lat="42.863288009539247" lon="-2.290432993322611">
        <ele>600.79999999999995</ele>
        <time>2019-06-23T08:30:26Z</time>
      </trkpt>
      <trkpt lat="42.863292032852769" lon="-2.290531983599067">
        <ele>600.79999999999995</ele>
        <time>2019-06-23T08:30:27Z</time>
      </trkpt>
      <trkpt lat="42.863298989832401" lon="-2.290632985532284">
        <ele>600.79999999999995</ele>
        <time>2019-06-23T08:30:28Z</time>
      </trkpt>
      <trkpt lat="42.863330002874136" lon="-2.290840018540621">
        <ele>600.60000000000002</ele>
        <time>2019-06-23T08:30:30Z</time>
      </trkpt>
      <trkpt lat="42.863351963460445" lon="-2.290945965796709">
        <ele>600.79999999999995</ele>
        <time>2019-06-23T08:30:31Z</time>
      </trkpt>
      <trkpt lat="42.863378031179309" lon="-2.29105400852859">
        <ele>600.60000000000002</ele>
        <time>2019-06-23T08:30:32Z</time>
      </trkpt>
      <trkpt lat="42.863409966230392" lon="-2.291163979098201">
        <ele>600.60000000000002</ele>
        <time>2019-06-23T08:30:33Z</time>
      </trkpt>
      <trkpt lat="42.86344600841403" lon="-2.291274033486843">
        <ele>600.20000000000005</ele>
        <time>2019-06-23T08:30:34Z</time>
      </trkpt>
      <trkpt lat="42.8634890075773" lon="-2.291382998228073">
        <ele>600</ele>
        <time>2019-06-23T08:30:35Z</time>
      </trkpt>
      <trkpt lat="42.863537035882473" lon="-2.291491962969303">
        <ele>599.79999999999995</ele>
        <time>2019-06-23T08:30:36Z</time>
      </trkpt>
      <trkpt lat="42.863652035593987" lon="-2.291706036776304">
        <ele>599.20000000000005</ele>
        <time>2019-06-23T08:30:38Z</time>
      </trkpt>
      <trkpt lat="42.863718001171947" lon="-2.29180796071887">
        <ele>598.79999999999995</ele>
        <time>2019-06-23T08:30:39Z</time>
      </trkpt>
      <trkpt lat="42.863788995891809" lon="-2.291907034814358">
        <ele>598.39999999999998</ele>
        <time>2019-06-23T08:30:40Z</time>
      </trkpt>
      <trkpt lat="42.863945988938212" lon="-2.292089005932212">
        <ele>597.20000000000005</ele>
        <time>2019-06-23T08:30:42Z</time>
      </trkpt>
      <trkpt lat="42.864115973934531" lon="-2.292254967615008">
        <ele>596.60000000000002</ele>
        <time>2019-06-23T08:30:44Z</time>
      </trkpt>
      <trkpt lat="42.864291993901134" lon="-2.292413972318173">
        <ele>595.79999999999995</ele>
        <time>2019-06-23T08:30:46Z</time>
      </trkpt>
      <trkpt lat="42.864380003884435" lon="-2.29249301366508">
        <ele>595</ele>
        <time>2019-06-23T08:30:47Z</time>
      </trkpt>
      <trkpt lat="42.864467008039355" lon="-2.292574988678098">
        <ele>594.20000000000005</ele>
        <time>2019-06-23T08:30:48Z</time>
      </trkpt>
      <trkpt lat="42.864634981378913" lon="-2.292747991159558">
        <ele>592.79999999999995</ele>
        <time>2019-06-23T08:30:50Z</time>
      </trkpt>
      <trkpt lat="42.864714022725821" lon="-2.292841030284762">
        <ele>592.20000000000005</ele>
        <time>2019-06-23T08:30:51Z</time>
      </trkpt>
      <trkpt lat="42.864787029102445" lon="-2.292938008904457">
        <ele>591.60000000000002</ele>
        <time>2019-06-23T08:30:52Z</time>
      </trkpt>
      <trkpt lat="42.864917032420635" lon="-2.293147975578904">
        <ele>590.20000000000005</ele>
        <time>2019-06-23T08:30:54Z</time>
      </trkpt>
      <trkpt lat="42.865027002990246" lon="-2.293372023850679">
        <ele>589.39999999999998</ele>
        <time>2019-06-23T08:30:56Z</time>
      </trkpt>
      <trkpt lat="42.865116018801928" lon="-2.293608980253339">
        <ele>588.60000000000002</ele>
        <time>2019-06-23T08:30:58Z</time>
      </trkpt>
      <trkpt lat="42.865181984379888" lon="-2.293852977454662">
        <ele>588.39999999999998</ele>
        <time>2019-06-23T08:31:00Z</time>
      </trkpt>
      <trkpt lat="42.86520604044199" lon="-2.293978035449982">
        <ele>588.20000000000005</ele>
        <time>2019-06-23T08:31:01Z</time>
      </trkpt>
      <trkpt lat="42.865222971886396" lon="-2.294103009626269">
        <ele>588.20000000000005</ele>
        <time>2019-06-23T08:31:02Z</time>
      </trkpt>
      <trkpt lat="42.865244010463357" lon="-2.294353041797876">
        <ele>588.20000000000005</ele>
        <time>2019-06-23T08:31:04Z</time>
      </trkpt>
      <trkpt lat="42.86524903960526" lon="-2.294477010145783">
        <ele>588.20000000000005</ele>
        <time>2019-06-23T08:31:05Z</time>
      </trkpt>
      <trkpt lat="42.86525197327137" lon="-2.29459997266531">
        <ele>588</ele>
        <time>2019-06-23T08:31:06Z</time>
      </trkpt>
      <trkpt lat="42.865253984928131" lon="-2.294840030372143">
        <ele>588.20000000000005</ele>
        <time>2019-06-23T08:31:08Z</time>
      </trkpt>
      <trkpt lat="42.865255996584892" lon="-2.295069023966789">
        <ele>588.39999999999998</ele>
        <time>2019-06-23T08:31:10Z</time>
      </trkpt>
      <trkpt lat="42.865254990756512" lon="-2.29528795927763">
        <ele>588.39999999999998</ele>
        <time>2019-06-23T08:31:12Z</time>
      </trkpt>
      <trkpt lat="42.865253984928131" lon="-2.29539499618113">
        <ele>588.60000000000002</ele>
        <time>2019-06-23T08:31:13Z</time>
      </trkpt>
      <trkpt lat="42.865252979099751" lon="-2.29550002142787">
        <ele>588.60000000000002</ele>
        <time>2019-06-23T08:31:14Z</time>
      </trkpt>
      <trkpt lat="42.865250967442989" lon="-2.295704958960414">
        <ele>588.79999999999995</ele>
        <time>2019-06-23T08:31:16Z</time>
      </trkpt>
      <trkpt lat="42.865248033776879" lon="-2.295906040817499">
        <ele>589.60000000000002</ele>
        <time>2019-06-23T08:31:18Z</time>
      </trkpt>
      <trkpt lat="42.865246022120118" lon="-2.296105027198792">
        <ele>590</ele>
        <time>2019-06-23T08:31:20Z</time>
      </trkpt>
      <trkpt lat="42.865247027948499" lon="-2.296300996094942">
        <ele>590.60000000000002</ele>
        <time>2019-06-23T08:31:22Z</time>
      </trkpt>
      <trkpt lat="42.86524903960526" lon="-2.296399986371398">
        <ele>591</ele>
        <time>2019-06-23T08:31:23Z</time>
      </trkpt>
      <trkpt lat="42.865253984928131" lon="-2.296498976647854">
        <ele>591.39999999999998</ele>
        <time>2019-06-23T08:31:24Z</time>
      </trkpt>
      <trkpt lat="42.865271000191569" lon="-2.296697041019797">
        <ele>591.79999999999995</ele>
        <time>2019-06-23T08:31:26Z</time>
      </trkpt>
      <trkpt lat="42.865301007404923" lon="-2.296890998259187">
        <ele>592.20000000000005</ele>
        <time>2019-06-23T08:31:28Z</time>
      </trkpt>
      <trkpt lat="42.865320034325123" lon="-2.296987976878882">
        <ele>592.60000000000002</ele>
        <time>2019-06-23T08:31:29Z</time>
      </trkpt>
      <trkpt lat="42.865340989083052" lon="-2.297083027660847">
        <ele>592.60000000000002</ele>
        <time>2019-06-23T08:31:30Z</time>
      </trkpt>
      <trkpt lat="42.865365967154503" lon="-2.297175982967019">
        <ele>592.79999999999995</ele>
        <time>2019-06-23T08:31:31Z</time>
      </trkpt>
      <trkpt lat="42.865393040701747" lon="-2.297267010435462">
        <ele>593</ele>
        <time>2019-06-23T08:31:32Z</time>
      </trkpt>
      <trkpt lat="42.865455988794565" lon="-2.297445964068174">
        <ele>593.20000000000005</ele>
        <time>2019-06-23T08:31:34Z</time>
      </trkpt>
      <trkpt lat="42.865490019321442" lon="-2.297533974051476">
        <ele>593.20000000000005</ele>
        <time>2019-06-23T08:31:35Z</time>
      </trkpt>
      <trkpt lat="42.865526983514428" lon="-2.297622989863157">
        <ele>593.39999999999998</ele>
        <time>2019-06-23T08:31:36Z</time>
      </trkpt>
      <trkpt lat="42.865602001547813" lon="-2.29779900982976">
        <ele>593.79999999999995</ele>
        <time>2019-06-23T08:31:38Z</time>
      </trkpt>
      <trkpt lat="42.865678025409579" lon="-2.297977963462472">
        <ele>594</ele>
        <time>2019-06-23T08:31:40Z</time>
      </trkpt>
      <trkpt lat="42.865714989602566" lon="-2.298067985102534">
        <ele>594</ele>
        <time>2019-06-23T08:31:41Z</time>
      </trkpt>
      <trkpt lat="42.865751031786203" lon="-2.298160018399358">
        <ele>594.20000000000005</ele>
        <time>2019-06-23T08:31:42Z</time>
      </trkpt>
      <trkpt lat="42.865815991535783" lon="-2.298348024487495">
        <ele>594.20000000000005</ele>
        <time>2019-06-23T08:31:44Z</time>
      </trkpt>
      <trkpt lat="42.865843987092376" lon="-2.29844399727881">
        <ele>594.20000000000005</ele>
        <time>2019-06-23T08:31:45Z</time>
      </trkpt>
      <trkpt lat="42.865869970992208" lon="-2.298541981726885">
        <ele>594.60000000000002</ele>
        <time>2019-06-23T08:31:46Z</time>
      </trkpt>
      <trkpt lat="42.865912970155478" lon="-2.29874599725008">
        <ele>594.79999999999995</ele>
        <time>2019-06-23T08:31:48Z</time>
      </trkpt>
      <trkpt lat="42.865945994853973" lon="-2.298958981409669">
        <ele>594.79999999999995</ele>
        <time>2019-06-23T08:31:50Z</time>
      </trkpt>
      <trkpt lat="42.865967033430934" lon="-2.299182023853064">
        <ele>594.60000000000002</ele>
        <time>2019-06-23T08:31:52Z</time>
      </trkpt>
      <trkpt lat="42.865978013724089" lon="-2.299413029104471">
        <ele>594.60000000000002</ele>
        <time>2019-06-23T08:31:54Z</time>
      </trkpt>
      <trkpt lat="42.86598002538085" lon="-2.299657026305795">
        <ele>594.60000000000002</ele>
        <time>2019-06-23T08:31:56Z</time>
      </trkpt>
      <trkpt lat="42.865978013724089" lon="-2.299907980486751">
        <ele>594.20000000000005</ele>
        <time>2019-06-23T08:31:58Z</time>
      </trkpt>
      <trkpt lat="42.865971978753805" lon="-2.300159018486738">
        <ele>594.20000000000005</ele>
        <time>2019-06-23T08:32:00Z</time>
      </trkpt>
      <trkpt lat="42.865968039259315" lon="-2.300413995981216">
        <ele>593.60000000000002</ele>
        <time>2019-06-23T08:32:02Z</time>
      </trkpt>
      <trkpt lat="42.865966027602553" lon="-2.300543999299407">
        <ele>593.60000000000002</ele>
        <time>2019-06-23T08:32:03Z</time>
      </trkpt>
      <trkpt lat="42.865963010117412" lon="-2.300675008445978">
        <ele>593</ele>
        <time>2019-06-23T08:32:04Z</time>
      </trkpt>
      <trkpt lat="42.86595999263227" lon="-2.30080702342093">
        <ele>592.60000000000002</ele>
        <time>2019-06-23T08:32:05Z</time>
      </trkpt>
      <trkpt lat="42.865956975147128" lon="-2.300940966233611">
        <ele>592.39999999999998</ele>
        <time>2019-06-23T08:32:06Z</time>
      </trkpt>
      <trkpt lat="42.865951023995876" lon="-2.301210025325418">
        <ele>592.20000000000005</ele>
        <time>2019-06-23T08:32:08Z</time>
      </trkpt>
      <trkpt lat="42.865948006510735" lon="-2.30134597979486">
        <ele>592</ele>
        <time>2019-06-23T08:32:09Z</time>
      </trkpt>
      <trkpt lat="42.865943983197212" lon="-2.301482018083334">
        <ele>591.60000000000002</ele>
        <time>2019-06-23T08:32:10Z</time>
      </trkpt>
      <trkpt lat="42.86594096571207" lon="-2.301616966724396">
        <ele>591.60000000000002</ele>
        <time>2019-06-23T08:32:11Z</time>
      </trkpt>
      <trkpt lat="42.865939037874341" lon="-2.30175300501287">
        <ele>591.20000000000005</ele>
        <time>2019-06-23T08:32:12Z</time>
      </trkpt>
      <trkpt lat="42.865934008732438" lon="-2.302023991942406">
        <ele>590.79999999999995</ele>
        <time>2019-06-23T08:32:14Z</time>
      </trkpt>
      <trkpt lat="42.865926967933774" lon="-2.302296990528703">
        <ele>590.39999999999998</ele>
        <time>2019-06-23T08:32:16Z</time>
      </trkpt>
      <trkpt lat="42.865920010954142" lon="-2.302574012428522">
        <ele>589.60000000000002</ele>
        <time>2019-06-23T08:32:18Z</time>
      </trkpt>
      <trkpt lat="42.865914981812239" lon="-2.302853967994452">
        <ele>588.39999999999998</ele>
        <time>2019-06-23T08:32:20Z</time>
      </trkpt>
      <trkpt lat="42.865911964327097" lon="-2.302993023768067">
        <ele>588</ele>
        <time>2019-06-23T08:32:21Z</time>
      </trkpt>
      <trkpt lat="42.865909030660987" lon="-2.303131995722652">
        <ele>587.60000000000002</ele>
        <time>2019-06-23T08:32:22Z</time>
      </trkpt>
      <trkpt lat="42.865906013175845" lon="-2.303270967677236">
        <ele>587.39999999999998</ele>
        <time>2019-06-23T08:32:23Z</time>
      </trkpt>
      <trkpt lat="42.865902995690703" lon="-2.30340801179409">
        <ele>587.39999999999998</ele>
        <time>2019-06-23T08:32:24Z</time>
      </trkpt>
      <trkpt lat="42.865899978205562" lon="-2.303545977920294">
        <ele>587.20000000000005</ele>
        <time>2019-06-23T08:32:25Z</time>
      </trkpt>
      <trkpt lat="42.8658979665488" lon="-2.303684027865529">
        <ele>587.39999999999998</ele>
        <time>2019-06-23T08:32:26Z</time>
      </trkpt>
      <trkpt lat="42.865893021225929" lon="-2.303960965946317">
        <ele>586.79999999999995</ele>
        <time>2019-06-23T08:32:28Z</time>
      </trkpt>
      <trkpt lat="42.865886986255646" lon="-2.304238993674517">
        <ele>586.39999999999998</ele>
        <time>2019-06-23T08:32:30Z</time>
      </trkpt>
      <trkpt lat="42.865883968770504" lon="-2.304377965629101">
        <ele>586.20000000000005</ele>
        <time>2019-06-23T08:32:31Z</time>
      </trkpt>
      <trkpt lat="42.865881035104394" lon="-2.304517021402717">
        <ele>586.20000000000005</ele>
        <time>2019-06-23T08:32:32Z</time>
      </trkpt>
      <trkpt lat="42.86587500013411" lon="-2.304794965311885">
        <ele>586</ele>
        <time>2019-06-23T08:32:34Z</time>
      </trkpt>
      <trkpt lat="42.865869970992208" lon="-2.305069975554943">
        <ele>585.79999999999995</ele>
        <time>2019-06-23T08:32:36Z</time>
      </trkpt>
      <trkpt lat="42.865864019840956" lon="-2.30533903464675">
        <ele>585.39999999999998</ele>
        <time>2019-06-23T08:32:38Z</time>
      </trkpt>
      <trkpt lat="42.865857984870672" lon="-2.30560096912086">
        <ele>585.20000000000005</ele>
        <time>2019-06-23T08:32:40Z</time>
      </trkpt>
      <trkpt lat="42.86585203371942" lon="-2.305857036262751">
        <ele>585.20000000000005</ele>
        <time>2019-06-23T08:32:42Z</time>
      </trkpt>
      <trkpt lat="42.865849016234279" lon="-2.305983016267419">
        <ele>585</ele>
        <time>2019-06-23T08:32:43Z</time>
      </trkpt>
      <trkpt lat="42.865847004577518" lon="-2.306107990443707">
        <ele>584.79999999999995</ele>
        <time>2019-06-23T08:32:44Z</time>
      </trkpt>
      <trkpt lat="42.865841975435615" lon="-2.306356010958552">
        <ele>584.79999999999995</ele>
        <time>2019-06-23T08:32:46Z</time>
      </trkpt>
      <trkpt lat="42.865835018455982" lon="-2.306601013988257">
        <ele>585</ele>
        <time>2019-06-23T08:32:48Z</time>
      </trkpt>
      <trkpt lat="42.865829989314079" lon="-2.306844005361199">
        <ele>585.20000000000005</ele>
        <time>2019-06-23T08:32:50Z</time>
      </trkpt>
      <trkpt lat="42.865824038162827" lon="-2.307084985077381">
        <ele>585</ele>
        <time>2019-06-23T08:32:52Z</time>
      </trkpt>
      <trkpt lat="42.865818003192544" lon="-2.307323031127453">
        <ele>585.20000000000005</ele>
        <time>2019-06-23T08:32:54Z</time>
      </trkpt>
      <trkpt lat="42.865815991535783" lon="-2.307440964505076">
        <ele>585.20000000000005</ele>
        <time>2019-06-23T08:32:55Z</time>
      </trkpt>
      <trkpt lat="42.865812974050641" lon="-2.307557975873351">
        <ele>585.39999999999998</ele>
        <time>2019-06-23T08:32:56Z</time>
      </trkpt>
      <trkpt lat="42.86580903455615" lon="-2.307786969467998">
        <ele>585.60000000000002</ele>
        <time>2019-06-23T08:32:58Z</time>
      </trkpt>
      <trkpt lat="42.865806017071009" lon="-2.307899035513401">
        <ele>585.79999999999995</ele>
        <time>2019-06-23T08:32:59Z</time>
      </trkpt>
      <trkpt lat="42.865802999585867" lon="-2.308009006083012">
        <ele>585.60000000000002</ele>
        <time>2019-06-23T08:33:00Z</time>
      </trkpt>
      <trkpt lat="42.865797970443964" lon="-2.308224001899362">
        <ele>585.60000000000002</ele>
        <time>2019-06-23T08:33:02Z</time>
      </trkpt>
      <trkpt lat="42.865795036777854" lon="-2.308329027146101">
        <ele>585.79999999999995</ele>
        <time>2019-06-23T08:33:03Z</time>
      </trkpt>
      <trkpt lat="42.865792019292712" lon="-2.308432962745428">
        <ele>586</ele>
        <time>2019-06-23T08:33:04Z</time>
      </trkpt>
      <trkpt lat="42.86578799597919" lon="-2.308634966611862">
        <ele>586.20000000000005</ele>
        <time>2019-06-23T08:33:06Z</time>
      </trkpt>
      <trkpt lat="42.865783972665668" lon="-2.308828001841903">
        <ele>586.60000000000002</ele>
        <time>2019-06-23T08:33:08Z</time>
      </trkpt>
      <trkpt lat="42.865780033171177" lon="-2.30901500210166">
        <ele>586.79999999999995</ele>
        <time>2019-06-23T08:33:10Z</time>
      </trkpt>
      <trkpt lat="42.865778021514416" lon="-2.309106029570103">
        <ele>587.20000000000005</ele>
        <time>2019-06-23T08:33:11Z</time>
      </trkpt>
      <trkpt lat="42.865776009857655" lon="-2.309196973219514">
        <ele>587.60000000000002</ele>
        <time>2019-06-23T08:33:12Z</time>
      </trkpt>
      <trkpt lat="42.865771986544132" lon="-2.309375004842877">
        <ele>588</ele>
        <time>2019-06-23T08:33:14Z</time>
      </trkpt>
      <trkpt lat="42.865767041221261" lon="-2.309553036466241">
        <ele>588.39999999999998</ele>
        <time>2019-06-23T08:33:16Z</time>
      </trkpt>
      <trkpt lat="42.865764023736119" lon="-2.309729978442192">
        <ele>589</ele>
        <time>2019-06-23T08:33:18Z</time>
      </trkpt>
      <trkpt lat="42.865762012079358" lon="-2.309818994253874">
        <ele>589.20000000000005</ele>
        <time>2019-06-23T08:33:19Z</time>
      </trkpt>
      <trkpt lat="42.865758994594216" lon="-2.309907004237175">
        <ele>589.60000000000002</ele>
        <time>2019-06-23T08:33:20Z</time>
      </trkpt>
      <trkpt lat="42.865752959623933" lon="-2.310080006718636">
        <ele>589.79999999999995</ele>
        <time>2019-06-23T08:33:22Z</time>
      </trkpt>
      <trkpt lat="42.865751031786203" lon="-2.310163993388414">
        <ele>590.39999999999998</ele>
        <time>2019-06-23T08:33:23Z</time>
      </trkpt>
      <trkpt lat="42.865749020129442" lon="-2.310247980058193">
        <ele>590.60000000000002</ele>
        <time>2019-06-23T08:33:24Z</time>
      </trkpt>
      <trkpt lat="42.865743990987539" lon="-2.310416037216783">
        <ele>591</ele>
        <time>2019-06-23T08:33:26Z</time>
      </trkpt>
      <trkpt lat="42.865739967674017" lon="-2.310581998899579">
        <ele>591.39999999999998</ele>
        <time>2019-06-23T08:33:28Z</time>
      </trkpt>
      <trkpt lat="42.865737034007907" lon="-2.310747038573027">
        <ele>592.39999999999998</ele>
        <time>2019-06-23T08:33:30Z</time>
      </trkpt>
      <trkpt lat="42.865734016522765" lon="-2.310829013586044">
        <ele>592.60000000000002</ele>
        <time>2019-06-23T08:33:31Z</time>
      </trkpt>
      <trkpt lat="42.865732004866004" lon="-2.310911994427443">
        <ele>593</ele>
        <time>2019-06-23T08:33:32Z</time>
      </trkpt>
      <trkpt lat="42.865730999037623" lon="-2.31099396944046">
        <ele>593.20000000000005</ele>
        <time>2019-06-23T08:33:33Z</time>
      </trkpt>
      <trkpt lat="42.865729993209243" lon="-2.31107602827251">
        <ele>593.20000000000005</ele>
        <time>2019-06-23T08:33:34Z</time>
      </trkpt>
      <trkpt lat="42.865727981552482" lon="-2.311159009113908">
        <ele>593.39999999999998</ele>
        <time>2019-06-23T08:33:35Z</time>
      </trkpt>
      <trkpt lat="42.86572496406734" lon="-2.311240984126926">
        <ele>593.60000000000002</ele>
        <time>2019-06-23T08:33:36Z</time>
      </trkpt>
      <trkpt lat="42.865720018744469" lon="-2.311402000486851">
        <ele>594</ele>
        <time>2019-06-23T08:33:38Z</time>
      </trkpt>
      <trkpt lat="42.865718007087708" lon="-2.311564022675157">
        <ele>594.60000000000002</ele>
        <time>2019-06-23T08:33:40Z</time>
      </trkpt>
      <trkpt lat="42.865714989602566" lon="-2.311645997688174">
        <ele>594.79999999999995</ele>
        <time>2019-06-23T08:33:41Z</time>
      </trkpt>
      <trkpt lat="42.865712977945805" lon="-2.311728978529573">
        <ele>595.20000000000005</ele>
        <time>2019-06-23T08:33:42Z</time>
      </trkpt>
      <trkpt lat="42.865709038451314" lon="-2.311892006546259">
        <ele>595.60000000000002</ele>
        <time>2019-06-23T08:33:44Z</time>
      </trkpt>
      <trkpt lat="42.865704009309411" lon="-2.312057968229055">
        <ele>596</ele>
        <time>2019-06-23T08:33:46Z</time>
      </trkpt>
      <trkpt lat="42.865699985995889" lon="-2.312222002074122">
        <ele>596.20000000000005</ele>
        <time>2019-06-23T08:33:48Z</time>
      </trkpt>
      <trkpt lat="42.865696968510747" lon="-2.31230397708714">
        <ele>596.79999999999995</ele>
        <time>2019-06-23T08:33:49Z</time>
      </trkpt>
      <trkpt lat="42.865692023187876" lon="-2.31238603591919">
        <ele>596.79999999999995</ele>
        <time>2019-06-23T08:33:50Z</time>
      </trkpt>
      <trkpt lat="42.865683976560831" lon="-2.312467005103827">
        <ele>597</ele>
        <time>2019-06-23T08:33:51Z</time>
      </trkpt>
      <trkpt lat="42.865675007924438" lon="-2.312547974288464">
        <ele>597.39999999999998</ele>
        <time>2019-06-23T08:33:52Z</time>
      </trkpt>
      <trkpt lat="42.865652963519096" lon="-2.312708990648389">
        <ele>598</ele>
        <time>2019-06-23T08:33:54Z</time>
      </trkpt>
      <trkpt lat="42.86563603207469" lon="-2.312877969816327">
        <ele>598.39999999999998</ele>
        <time>2019-06-23T08:33:56Z</time>
      </trkpt>
      <trkpt lat="42.865612981840968" lon="-2.313050972297788">
        <ele>598.79999999999995</ele>
        <time>2019-06-23T08:33:58Z</time>
      </trkpt>
      <trkpt lat="42.865598984062672" lon="-2.313135964795947">
        <ele>599.20000000000005</ele>
        <time>2019-06-23T08:33:59Z</time>
      </trkpt>
      <trkpt lat="42.865585992112756" lon="-2.313222968950868">
        <ele>599.60000000000002</ele>
        <time>2019-06-23T08:34:00Z</time>
      </trkpt>
      <trkpt lat="42.865559002384543" lon="-2.313396977260709">
        <ele>600</ele>
        <time>2019-06-23T08:34:02Z</time>
      </trkpt>
      <trkpt lat="42.86553100682795" lon="-2.313576014712453">
        <ele>600</ele>
        <time>2019-06-23T08:34:04Z</time>
      </trkpt>
      <trkpt lat="42.865503011271358" lon="-2.313764020800591">
        <ele>600.20000000000005</ele>
        <time>2019-06-23T08:34:06Z</time>
      </trkpt>
      <trkpt lat="42.865474009886384" lon="-2.313956972211599">
        <ele>600.20000000000005</ele>
        <time>2019-06-23T08:34:08Z</time>
      </trkpt>
      <trkpt lat="42.865459006279707" lon="-2.314055040478706">
        <ele>600.20000000000005</ele>
        <time>2019-06-23T08:34:09Z</time>
      </trkpt>
      <trkpt lat="42.86544500850141" lon="-2.314155036583543">
        <ele>600.20000000000005</ele>
        <time>2019-06-23T08:34:10Z</time>
      </trkpt>
      <trkpt lat="42.865415001288056" lon="-2.314357040449977">
        <ele>600.20000000000005</ele>
        <time>2019-06-23T08:34:12Z</time>
      </trkpt>
      <trkpt lat="42.865382982417941" lon="-2.314563989639282">
        <ele>600</ele>
        <time>2019-06-23T08:34:14Z</time>
      </trkpt>
      <trkpt lat="42.865352975204587" lon="-2.31477496214211">
        <ele>599.79999999999995</ele>
        <time>2019-06-23T08:34:16Z</time>
      </trkpt>
      <trkpt lat="42.865321962162852" lon="-2.314990041777492">
        <ele>599.39999999999998</ele>
        <time>2019-06-23T08:34:18Z</time>
      </trkpt>
      <trkpt lat="42.865306036546826" lon="-2.315098000690341">
        <ele>599.39999999999998</ele>
        <time>2019-06-23T08:34:19Z</time>
      </trkpt>
      <trkpt lat="42.865290027111769" lon="-2.315207971259952">
        <ele>599.20000000000005</ele>
        <time>2019-06-23T08:34:20Z</time>
      </trkpt>
      <trkpt lat="42.865258008241653" lon="-2.315429002046585">
        <ele>598.39999999999998</ele>
        <time>2019-06-23T08:34:22Z</time>
      </trkpt>
      <trkpt lat="42.865224983543158" lon="-2.315652966499329">
        <ele>598.20000000000005</ele>
        <time>2019-06-23T08:34:24Z</time>
      </trkpt>
      <trkpt lat="42.865191958844662" lon="-2.315880032256246">
        <ele>598</ele>
        <time>2019-06-23T08:34:26Z</time>
      </trkpt>
      <trkpt lat="42.865175027400255" lon="-2.315995031967759">
        <ele>597.79999999999995</ele>
        <time>2019-06-23T08:34:27Z</time>
      </trkpt>
      <trkpt lat="42.865158012136817" lon="-2.316111037507653">
        <ele>597.60000000000002</ele>
        <time>2019-06-23T08:34:28Z</time>
      </trkpt>
      <trkpt lat="42.865121969953179" lon="-2.31634296476841">
        <ele>597.39999999999998</ele>
        <time>2019-06-23T08:34:30Z</time>
      </trkpt>
      <trkpt lat="42.865088023245335" lon="-2.316575981676579">
        <ele>597</ele>
        <time>2019-06-23T08:34:32Z</time>
      </trkpt>
      <trkpt lat="42.865072013810277" lon="-2.316693998873234">
        <ele>596.79999999999995</ele>
        <time>2019-06-23T08:34:33Z</time>
      </trkpt>
      <trkpt lat="42.865056004375219" lon="-2.316812016069889">
        <ele>596.60000000000002</ele>
        <time>2019-06-23T08:34:34Z</time>
      </trkpt>
      <trkpt lat="42.86503697745502" lon="-2.316929027438164">
        <ele>596.39999999999998</ele>
        <time>2019-06-23T08:34:35Z</time>
      </trkpt>
      <trkpt lat="42.865018034353852" lon="-2.317046038806438">
        <ele>595.79999999999995</ele>
        <time>2019-06-23T08:34:36Z</time>
      </trkpt>
      <trkpt lat="42.864978974685073" lon="-2.317279977723956">
        <ele>595.20000000000005</ele>
        <time>2019-06-23T08:34:38Z</time>
      </trkpt>
      <trkpt lat="42.864957014098763" lon="-2.31739598326385">
        <ele>595.20000000000005</ele>
        <time>2019-06-23T08:34:39Z</time>
      </trkpt>
      <trkpt lat="42.864931030198932" lon="-2.317511988803744">
        <ele>595.20000000000005</ele>
        <time>2019-06-23T08:34:40Z</time>
      </trkpt>
      <trkpt lat="42.864902028813958" lon="-2.317627994343638">
        <ele>595</ele>
        <time>2019-06-23T08:34:41Z</time>
      </trkpt>
      <trkpt lat="42.864870009943843" lon="-2.317743999883533">
        <ele>594.60000000000002</ele>
        <time>2019-06-23T08:34:42Z</time>
      </trkpt>
      <trkpt lat="42.86479901522398" lon="-2.317971987649798">
        <ele>593.60000000000002</ele>
        <time>2019-06-23T08:34:44Z</time>
      </trkpt>
      <trkpt lat="42.864768002182245" lon="-2.318086987361312">
        <ele>593.39999999999998</ele>
        <time>2019-06-23T08:34:45Z</time>
      </trkpt>
      <trkpt lat="42.864743024110794" lon="-2.318207016214728">
        <ele>593.39999999999998</ele>
        <time>2019-06-23T08:34:46Z</time>
      </trkpt>
      <trkpt lat="42.864731959998608" lon="-2.318332996219397">
        <ele>593.20000000000005</ele>
        <time>2019-06-23T08:34:47Z</time>
      </trkpt>
      <trkpt lat="42.864741012454033" lon="-2.318458976224065">
        <ele>593.20000000000005</ele>
        <time>2019-06-23T08:34:48Z</time>
      </trkpt>
      <trkpt lat="42.864791974425316" lon="-2.318695010617375">
        <ele>592.39999999999998</ele>
        <time>2019-06-23T08:34:50Z</time>
      </trkpt>
      <trkpt lat="42.864784011617303" lon="-2.318935990333557">
        <ele>591.60000000000002</ele>
        <time>2019-06-23T08:34:52Z</time>
      </trkpt>
      <trkpt lat="42.864679992198944" lon="-2.319130031391978">
        <ele>591.39999999999998</ele>
        <time>2019-06-23T08:34:54Z</time>
      </trkpt>
      <trkpt lat="42.864513024687767" lon="-2.319192979484797">
        <ele>590.60000000000002</ele>
        <time>2019-06-23T08:34:56Z</time>
      </trkpt>
      <trkpt lat="42.864425014704466" lon="-2.319176970049739">
        <ele>590.39999999999998</ele>
        <time>2019-06-23T08:34:57Z</time>
      </trkpt>
      <trkpt lat="42.864343039691448" lon="-2.319150986149907">
        <ele>590.20000000000005</ele>
        <time>2019-06-23T08:34:58Z</time>
      </trkpt>
      <trkpt lat="42.864182023331523" lon="-2.319115027785301">
        <ele>590.20000000000005</ele>
        <time>2019-06-23T08:35:00Z</time>
      </trkpt>
      <trkpt lat="42.864035004749894" lon="-2.319175964221358">
        <ele>590</ele>
        <time>2019-06-23T08:35:02Z</time>
      </trkpt>
      <trkpt lat="42.863969039171934" lon="-2.319226004183292">
        <ele>590</ele>
        <time>2019-06-23T08:35:03Z</time>
      </trkpt>
      <trkpt lat="42.863903995603323" lon="-2.319277971982956">
        <ele>590.20000000000005</ele>
        <time>2019-06-23T08:35:04Z</time>
      </trkpt>
      <trkpt lat="42.863770974799991" lon="-2.319378973916173">
        <ele>590.39999999999998</ele>
        <time>2019-06-23T08:35:06Z</time>
      </trkpt>
      <trkpt lat="42.86370400339365" lon="-2.319425996392965">
        <ele>590.60000000000002</ele>
        <time>2019-06-23T08:35:07Z</time>
      </trkpt>
      <trkpt lat="42.863637031987309" lon="-2.319471007212997">
        <ele>590.79999999999995</ele>
        <time>2019-06-23T08:35:08Z</time>
      </trkpt>
      <trkpt lat="42.863500993698835" lon="-2.319554993882775">
        <ele>591.20000000000005</ele>
        <time>2019-06-23T08:35:10Z</time>
      </trkpt>
      <trkpt lat="42.863434022292495" lon="-2.319595981389284">
        <ele>591.39999999999998</ele>
        <time>2019-06-23T08:35:11Z</time>
      </trkpt>
      <trkpt lat="42.863366967067122" lon="-2.319636968895793">
        <ele>591.79999999999995</ele>
        <time>2019-06-23T08:35:12Z</time>
      </trkpt>
      <trkpt lat="42.863236041739583" lon="-2.319720033556223">
        <ele>592.20000000000005</ele>
        <time>2019-06-23T08:35:14Z</time>
      </trkpt>
      <trkpt lat="42.863107966259122" lon="-2.31980100274086">
        <ele>592.60000000000002</ele>
        <time>2019-06-23T08:35:16Z</time>
      </trkpt>
      <trkpt lat="42.862985003739595" lon="-2.319884989410639">
        <ele>592.79999999999995</ele>
        <time>2019-06-23T08:35:18Z</time>
      </trkpt>
      <trkpt lat="42.862864974886179" lon="-2.319976016879082">
        <ele>593.20000000000005</ele>
        <time>2019-06-23T08:35:20Z</time>
      </trkpt>
      <trkpt lat="42.862749975174665" lon="-2.320072995498776">
        <ele>593.39999999999998</ele>
        <time>2019-06-23T08:35:22Z</time>
      </trkpt>
      <trkpt lat="42.862640004605055" lon="-2.320180032402277">
        <ele>593.60000000000002</ele>
        <time>2019-06-23T08:35:24Z</time>
      </trkpt>
      <trkpt lat="42.862534979358315" lon="-2.32029402628541">
        <ele>594</ele>
        <time>2019-06-23T08:35:26Z</time>
      </trkpt>
      <trkpt lat="42.862485023215413" lon="-2.320354040712118">
        <ele>594</ele>
        <time>2019-06-23T08:35:27Z</time>
      </trkpt>
      <trkpt lat="42.86243598908186" lon="-2.320415982976556">
        <ele>594</ele>
        <time>2019-06-23T08:35:28Z</time>
      </trkpt>
      <trkpt lat="42.862342027947307" lon="-2.320543974637985">
        <ele>594.60000000000002</ele>
        <time>2019-06-23T08:35:30Z</time>
      </trkpt>
      <trkpt lat="42.862256029620767" lon="-2.320679007098079">
        <ele>594.79999999999995</ele>
        <time>2019-06-23T08:35:32Z</time>
      </trkpt>
      <trkpt lat="42.862175982445478" lon="-2.320819990709424">
        <ele>595</ele>
        <time>2019-06-23T08:35:34Z</time>
      </trkpt>
      <trkpt lat="42.862138012424111" lon="-2.320891991257668">
        <ele>595.39999999999998</ele>
        <time>2019-06-23T08:35:35Z</time>
      </trkpt>
      <trkpt lat="42.862100964412093" lon="-2.320964997634292">
        <ele>595.39999999999998</ele>
        <time>2019-06-23T08:35:36Z</time>
      </trkpt>
      <trkpt lat="42.862033993005753" lon="-2.321117967367172">
        <ele>595.79999999999995</ele>
        <time>2019-06-23T08:35:38Z</time>
      </trkpt>
      <trkpt lat="42.861974984407425" lon="-2.321275966241956">
        <ele>595.79999999999995</ele>
        <time>2019-06-23T08:35:40Z</time>
      </trkpt>
      <trkpt lat="42.861947994679213" lon="-2.321356013417244">
        <ele>595.79999999999995</ele>
        <time>2019-06-23T08:35:41Z</time>
      </trkpt>
      <trkpt lat="42.861922010779381" lon="-2.3214359767735">
        <ele>595.79999999999995</ele>
        <time>2019-06-23T08:35:42Z</time>
      </trkpt>
      <trkpt lat="42.861874988302588" lon="-2.321602022275329">
        <ele>596</ele>
        <time>2019-06-23T08:35:44Z</time>
      </trkpt>
      <trkpt lat="42.86183400079608" lon="-2.321769995614886">
        <ele>596.39999999999998</ele>
        <time>2019-06-23T08:35:46Z</time>
      </trkpt>
      <trkpt lat="42.861796030774713" lon="-2.321941992267966">
        <ele>596.39999999999998</ele>
        <time>2019-06-23T08:35:48Z</time>
      </trkpt>
      <trkpt lat="42.861778009682894" lon="-2.322028996422887">
        <ele>596.60000000000002</ele>
        <time>2019-06-23T08:35:49Z</time>
      </trkpt>
      <trkpt lat="42.861759988591075" lon="-2.322116000577807">
        <ele>596.79999999999995</ele>
        <time>2019-06-23T08:35:50Z</time>
      </trkpt>
      <trkpt lat="42.86172796972096" lon="-2.322294032201171">
        <ele>597</ele>
        <time>2019-06-23T08:35:52Z</time>
      </trkpt>
      <trkpt lat="42.861696034669876" lon="-2.322474997490645">
        <ele>596.79999999999995</ele>
        <time>2019-06-23T08:35:54Z</time>
      </trkpt>
      <trkpt lat="42.861664015799761" lon="-2.322656968608499">
        <ele>597</ele>
        <time>2019-06-23T08:35:56Z</time>
      </trkpt>
      <trkpt lat="42.861634008586407" lon="-2.322842041030526">
        <ele>597</ele>
        <time>2019-06-23T08:35:58Z</time>
      </trkpt>
      <trkpt lat="42.861604001373053" lon="-2.323028035461903">
        <ele>597.39999999999998</ele>
        <time>2019-06-23T08:36:00Z</time>
      </trkpt>
      <trkpt lat="42.861573994159698" lon="-2.323214029893279">
        <ele>597.39999999999998</ele>
        <time>2019-06-23T08:36:02Z</time>
      </trkpt>
      <trkpt lat="42.861544992774725" lon="-2.323404969647527">
        <ele>597.20000000000005</ele>
        <time>2019-06-23T08:36:04Z</time>
      </trkpt>
      <trkpt lat="42.861522026360035" lon="-2.323599010705948">
        <ele>597.20000000000005</ele>
        <time>2019-06-23T08:36:06Z</time>
      </trkpt>
      <trkpt lat="42.861495036631823" lon="-2.323792967945337">
        <ele>597.20000000000005</ele>
        <time>2019-06-23T08:36:08Z</time>
      </trkpt>
      <trkpt lat="42.861481038853526" lon="-2.323889024555683">
        <ele>597.20000000000005</ele>
        <time>2019-06-23T08:36:09Z</time>
      </trkpt>
      <trkpt lat="42.86146704107523" lon="-2.323983991518617">
        <ele>597</ele>
        <time>2019-06-23T08:36:10Z</time>
      </trkpt>
      <trkpt lat="42.861443990841508" lon="-2.324169985949993">
        <ele>596.79999999999995</ele>
        <time>2019-06-23T08:36:12Z</time>
      </trkpt>
      <trkpt lat="42.861433010548353" lon="-2.324262019246817">
        <ele>596.79999999999995</ele>
        <time>2019-06-23T08:36:13Z</time>
      </trkpt>
      <trkpt lat="42.861421024426818" lon="-2.324350029230118">
        <ele>596.60000000000002</ele>
        <time>2019-06-23T08:36:14Z</time>
      </trkpt>
      <trkpt lat="42.861397974193096" lon="-2.324524959549308">
        <ele>596.60000000000002</ele>
        <time>2019-06-23T08:36:16Z</time>
      </trkpt>
      <trkpt lat="42.861385988071561" lon="-2.324610035866499">
        <ele>596.79999999999995</ele>
        <time>2019-06-23T08:36:17Z</time>
      </trkpt>
      <trkpt lat="42.861374001950026" lon="-2.324694022536278">
        <ele>596.60000000000002</ele>
        <time>2019-06-23T08:36:18Z</time>
      </trkpt>
      <trkpt lat="42.861350029706955" lon="-2.324863001704216">
        <ele>596.79999999999995</ele>
        <time>2019-06-23T08:36:20Z</time>
      </trkpt>
      <trkpt lat="42.861324967816472" lon="-2.325037010014057">
        <ele>597.39999999999998</ele>
        <time>2019-06-23T08:36:22Z</time>
      </trkpt>
      <trkpt lat="42.861299989745021" lon="-2.325217975303531">
        <ele>598.20000000000005</ele>
        <time>2019-06-23T08:36:24Z</time>
      </trkpt>
      <trkpt lat="42.861271994188428" lon="-2.325403969734907">
        <ele>599</ele>
        <time>2019-06-23T08:36:26Z</time>
      </trkpt>
      <trkpt lat="42.861260008066893" lon="-2.325499020516872">
        <ele>599</ele>
        <time>2019-06-23T08:36:27Z</time>
      </trkpt>
      <trkpt lat="42.861247016116977" lon="-2.325594993308187">
        <ele>599.20000000000005</ele>
        <time>2019-06-23T08:36:28Z</time>
      </trkpt>
      <trkpt lat="42.861220026388764" lon="-2.325791968032718">
        <ele>599.39999999999998</ele>
        <time>2019-06-23T08:36:30Z</time>
      </trkpt>
      <trkpt lat="42.861193036660552" lon="-2.325991038233042">
        <ele>599.39999999999998</ele>
        <time>2019-06-23T08:36:32Z</time>
      </trkpt>
      <trkpt lat="42.861165041103959" lon="-2.326192958280444">
        <ele>599.20000000000005</ele>
        <time>2019-06-23T08:36:34Z</time>
      </trkpt>
      <trkpt lat="42.861134028062224" lon="-2.326396973803639">
        <ele>599.20000000000005</ele>
        <time>2019-06-23T08:36:36Z</time>
      </trkpt>
      <trkpt lat="42.861118018627167" lon="-2.326501999050379">
        <ele>599.39999999999998</ele>
        <time>2019-06-23T08:36:37Z</time>
      </trkpt>
      <trkpt lat="42.86110301502049" lon="-2.326606018468738">
        <ele>599</ele>
        <time>2019-06-23T08:36:38Z</time>
      </trkpt>
      <trkpt lat="42.861072001978755" lon="-2.326819002628326">
        <ele>598.79999999999995</ele>
        <time>2019-06-23T08:36:40Z</time>
      </trkpt>
      <trkpt lat="42.86103998310864" lon="-2.327037015929818">
        <ele>598.60000000000002</ele>
        <time>2019-06-23T08:36:42Z</time>
      </trkpt>
      <trkpt lat="42.861007964238524" lon="-2.327259974554181">
        <ele>598.20000000000005</ele>
        <time>2019-06-23T08:36:44Z</time>
      </trkpt>
      <trkpt lat="42.860976029187441" lon="-2.327486034482718">
        <ele>598.20000000000005</ele>
        <time>2019-06-23T08:36:46Z</time>
      </trkpt>
      <trkpt lat="42.860945016145706" lon="-2.327713016420603">
        <ele>598</ele>
        <time>2019-06-23T08:36:48Z</time>
      </trkpt>
      <trkpt lat="42.860930012539029" lon="-2.327826004475355">
        <ele>597.39999999999998</ele>
        <time>2019-06-23T08:36:49Z</time>
      </trkpt>
      <trkpt lat="42.860914003103971" lon="-2.327938992530108">
        <ele>597.39999999999998</ele>
        <time>2019-06-23T08:36:50Z</time>
      </trkpt>
      <trkpt lat="42.860880978405476" lon="-2.328163040801883">
        <ele>597</ele>
        <time>2019-06-23T08:36:52Z</time>
      </trkpt>
      <trkpt lat="42.860849965363741" lon="-2.328385999426246">
        <ele>597</ele>
        <time>2019-06-23T08:36:54Z</time>
      </trkpt>
      <trkpt lat="42.860818030312657" lon="-2.32860904186964">
        <ele>597</ele>
        <time>2019-06-23T08:36:56Z</time>
      </trkpt>
      <trkpt lat="42.860787017270923" lon="-2.328833006322384">
        <ele>596.79999999999995</ele>
        <time>2019-06-23T08:36:58Z</time>
      </trkpt>
      <trkpt lat="42.860771007835865" lon="-2.328943982720375">
        <ele>596.60000000000002</ele>
        <time>2019-06-23T08:36:59Z</time>
      </trkpt>
      <trkpt lat="42.860753992572427" lon="-2.329054959118366">
        <ele>596.60000000000002</ele>
        <time>2019-06-23T08:37:00Z</time>
      </trkpt>
      <trkpt lat="42.860721973702312" lon="-2.329275989905">
        <ele>596.39999999999998</ele>
        <time>2019-06-23T08:37:02Z</time>
      </trkpt>
      <trkpt lat="42.860690960660577" lon="-2.329495009034872">
        <ele>596.39999999999998</ele>
        <time>2019-06-23T08:37:04Z</time>
      </trkpt>
      <trkpt lat="42.860659025609493" lon="-2.329713022336364">
        <ele>596.60000000000002</ele>
        <time>2019-06-23T08:37:06Z</time>
      </trkpt>
      <trkpt lat="42.860628012567759" lon="-2.329927012324333">
        <ele>596.60000000000002</ele>
        <time>2019-06-23T08:37:08Z</time>
      </trkpt>
      <trkpt lat="42.860612003132701" lon="-2.330031031742692">
        <ele>596.60000000000002</ele>
        <time>2019-06-23T08:37:09Z</time>
      </trkpt>
      <trkpt lat="42.860596999526024" lon="-2.33013303950429">
        <ele>596.60000000000002</ele>
        <time>2019-06-23T08:37:10Z</time>
      </trkpt>
      <trkpt lat="42.86056799814105" lon="-2.330330014228821">
        <ele>596.79999999999995</ele>
        <time>2019-06-23T08:37:12Z</time>
      </trkpt>
      <trkpt lat="42.860554000362754" lon="-2.330422969534993">
        <ele>596.79999999999995</ele>
        <time>2019-06-23T08:37:13Z</time>
      </trkpt>
      <trkpt lat="42.860541008412838" lon="-2.330512991175056">
        <ele>596.79999999999995</ele>
        <time>2019-06-23T08:37:14Z</time>
      </trkpt>
      <trkpt lat="42.860516030341387" lon="-2.330683981999755">
        <ele>596.79999999999995</ele>
        <time>2019-06-23T08:37:16Z</time>
      </trkpt>
      <trkpt lat="42.860494991764426" lon="-2.330839969217777">
        <ele>597</ele>
        <time>2019-06-23T08:37:18Z</time>
      </trkpt>
      <trkpt lat="42.860475964844227" lon="-2.330985981971026">
        <ele>597</ele>
        <time>2019-06-23T08:37:20Z</time>
      </trkpt>
      <trkpt lat="42.860456015914679" lon="-2.331130988895893">
        <ele>597.60000000000002</ele>
        <time>2019-06-23T08:37:22Z</time>
      </trkpt>
      <trkpt lat="42.860445035621524" lon="-2.331200977787376">
        <ele>598.20000000000005</ele>
        <time>2019-06-23T08:37:23Z</time>
      </trkpt>
      <trkpt lat="42.860433971509337" lon="-2.331271972507238">
        <ele>598.79999999999995</ele>
        <time>2019-06-23T08:37:24Z</time>
      </trkpt>
      <trkpt lat="42.860414022579789" lon="-2.331413039937615">
        <ele>599.60000000000002</ele>
        <time>2019-06-23T08:37:26Z</time>
      </trkpt>
      <trkpt lat="42.860389966517687" lon="-2.331555029377341">
        <ele>600.20000000000005</ele>
        <time>2019-06-23T08:37:28Z</time>
      </trkpt>
      <trkpt lat="42.860370017588139" lon="-2.331699030473828">
        <ele>601</ele>
        <time>2019-06-23T08:37:30Z</time>
      </trkpt>
      <trkpt lat="42.860359959304333" lon="-2.331772036850452">
        <ele>601.20000000000005</ele>
        <time>2019-06-23T08:37:31Z</time>
      </trkpt>
      <trkpt lat="42.860347973182797" lon="-2.331847976893187">
        <ele>601.60000000000002</ele>
        <time>2019-06-23T08:37:32Z</time>
      </trkpt>
      <trkpt lat="42.860325006768107" lon="-2.331996001303196">
        <ele>601.79999999999995</ele>
        <time>2019-06-23T08:37:34Z</time>
      </trkpt>
      <trkpt lat="42.860302040353417" lon="-2.332146037369967">
        <ele>602.20000000000005</ele>
        <time>2019-06-23T08:37:36Z</time>
      </trkpt>
      <trkpt lat="42.860281001776457" lon="-2.332293977960944">
        <ele>602.60000000000002</ele>
        <time>2019-06-23T08:37:38Z</time>
      </trkpt>
      <trkpt lat="42.860258035361767" lon="-2.332444014027715">
        <ele>603</ele>
        <time>2019-06-23T08:37:40Z</time>
      </trkpt>
      <trkpt lat="42.860231967642903" lon="-2.332594972103834">
        <ele>603.20000000000005</ele>
        <time>2019-06-23T08:37:42Z</time>
      </trkpt>
      <trkpt lat="42.860212018713355" lon="-2.332751965150237">
        <ele>603.60000000000002</ele>
        <time>2019-06-23T08:37:44Z</time>
      </trkpt>
      <trkpt lat="42.860189974308014" lon="-2.332911975681782">
        <ele>603.60000000000002</ele>
        <time>2019-06-23T08:37:46Z</time>
      </trkpt>
      <trkpt lat="42.860167007893324" lon="-2.333075003698468">
        <ele>603.79999999999995</ele>
        <time>2019-06-23T08:37:48Z</time>
      </trkpt>
      <trkpt lat="42.860144041478634" lon="-2.333242977038026">
        <ele>603.79999999999995</ele>
        <time>2019-06-23T08:37:50Z</time>
      </trkpt>
      <trkpt lat="42.86011696793139" lon="-2.333420002833009">
        <ele>604</ele>
        <time>2019-06-23T08:37:52Z</time>
      </trkpt>
      <trkpt lat="42.860088972374797" lon="-2.333604991436005">
        <ele>603.79999999999995</ele>
        <time>2019-06-23T08:37:54Z</time>
      </trkpt>
      <trkpt lat="42.8600749745965" lon="-2.333701970055699">
        <ele>604</ele>
        <time>2019-06-23T08:37:55Z</time>
      </trkpt>
      <trkpt lat="42.860061982646585" lon="-2.333800960332155">
        <ele>603.79999999999995</ele>
        <time>2019-06-23T08:37:56Z</time>
      </trkpt>
      <trkpt lat="42.860034992918372" lon="-2.33400103636086">
        <ele>603.79999999999995</ele>
        <time>2019-06-23T08:37:58Z</time>
      </trkpt>
      <trkpt lat="42.860006997361779" lon="-2.334202034398913">
        <ele>603.79999999999995</ele>
        <time>2019-06-23T08:38:00Z</time>
      </trkpt>
      <trkpt lat="42.859979001805186" lon="-2.334401020780206">
        <ele>603.20000000000005</ele>
        <time>2019-06-23T08:38:02Z</time>
      </trkpt>
      <trkpt lat="42.859952012076974" lon="-2.334595983847976">
        <ele>602.79999999999995</ele>
        <time>2019-06-23T08:38:04Z</time>
      </trkpt>
      <trkpt lat="42.859940025955439" lon="-2.334692040458322">
        <ele>602.60000000000002</ele>
        <time>2019-06-23T08:38:05Z</time>
      </trkpt>
      <trkpt lat="42.859927034005523" lon="-2.334786001592875">
        <ele>602.60000000000002</ele>
        <time>2019-06-23T08:38:06Z</time>
      </trkpt>
      <trkpt lat="42.859899960458279" lon="-2.334974007681012">
        <ele>602.39999999999998</ele>
        <time>2019-06-23T08:38:08Z</time>
      </trkpt>
      <trkpt lat="42.859872970730066" lon="-2.33516201376915">
        <ele>602.60000000000002</ele>
        <time>2019-06-23T08:38:10Z</time>
      </trkpt>
      <trkpt lat="42.859845981001854" lon="-2.335344990715385">
        <ele>602.60000000000002</ele>
        <time>2019-06-23T08:38:12Z</time>
      </trkpt>
      <trkpt lat="42.859832989051938" lon="-2.335436018183827">
        <ele>602.60000000000002</ele>
        <time>2019-06-23T08:38:13Z</time>
      </trkpt>
      <trkpt lat="42.859819997102022" lon="-2.335525033995509">
        <ele>602.60000000000002</ele>
        <time>2019-06-23T08:38:14Z</time>
      </trkpt>
      <trkpt lat="42.859795019030571" lon="-2.335704993456602">
        <ele>602.79999999999995</ele>
        <time>2019-06-23T08:38:16Z</time>
      </trkpt>
      <trkpt lat="42.859783032909036" lon="-2.335795015096664">
        <ele>602.79999999999995</ele>
        <time>2019-06-23T08:38:17Z</time>
      </trkpt>
      <trkpt lat="42.859770962968469" lon="-2.335885036736727">
        <ele>602.79999999999995</ele>
        <time>2019-06-23T08:38:18Z</time>
      </trkpt>
      <trkpt lat="42.859744979068637" lon="-2.3360660020262">
        <ele>603</ele>
        <time>2019-06-23T08:38:20Z</time>
      </trkpt>
      <trkpt lat="42.859718995168805" lon="-2.336246967315674">
        <ele>603.60000000000002</ele>
        <time>2019-06-23T08:38:22Z</time>
      </trkpt>
      <trkpt lat="42.85970801487565" lon="-2.336336988955736">
        <ele>603.79999999999995</ele>
        <time>2019-06-23T08:38:23Z</time>
      </trkpt>
      <trkpt lat="42.859696028754115" lon="-2.336427010595799">
        <ele>604.20000000000005</ele>
        <time>2019-06-23T08:38:24Z</time>
      </trkpt>
      <trkpt lat="42.859671972692013" lon="-2.336606970056891">
        <ele>604.39999999999998</ele>
        <time>2019-06-23T08:38:26Z</time>
      </trkpt>
      <trkpt lat="42.859659986570477" lon="-2.336696991696954">
        <ele>604.60000000000002</ele>
        <time>2019-06-23T08:38:27Z</time>
      </trkpt>
      <trkpt lat="42.859648000448942" lon="-2.336786007508636">
        <ele>604.60000000000002</ele>
        <time>2019-06-23T08:38:28Z</time>
      </trkpt>
      <trkpt lat="42.859623022377491" lon="-2.336965966969729">
        <ele>604.79999999999995</ele>
        <time>2019-06-23T08:38:30Z</time>
      </trkpt>
      <trkpt lat="42.859597960487008" lon="-2.337147016078234">
        <ele>605.20000000000005</ele>
        <time>2019-06-23T08:38:32Z</time>
      </trkpt>
      <trkpt lat="42.859572982415557" lon="-2.337326975539327">
        <ele>605.60000000000002</ele>
        <time>2019-06-23T08:38:34Z</time>
      </trkpt>
      <trkpt lat="42.859546998515725" lon="-2.337507018819451">
        <ele>605.60000000000002</ele>
        <time>2019-06-23T08:38:36Z</time>
      </trkpt>
      <trkpt lat="42.859521014615893" lon="-2.337688989937306">
        <ele>606.39999999999998</ele>
        <time>2019-06-23T08:38:38Z</time>
      </trkpt>
      <trkpt lat="42.859495030716062" lon="-2.337870039045811">
        <ele>606.79999999999995</ele>
        <time>2019-06-23T08:38:40Z</time>
      </trkpt>
      <trkpt lat="42.859481032937765" lon="-2.337960982695222">
        <ele>607</ele>
        <time>2019-06-23T08:38:41Z</time>
      </trkpt>
      <trkpt lat="42.859468040987849" lon="-2.338052010163665">
        <ele>607.20000000000005</ele>
        <time>2019-06-23T08:38:42Z</time>
      </trkpt>
      <trkpt lat="42.859443984925747" lon="-2.338232975453138">
        <ele>607.60000000000002</ele>
        <time>2019-06-23T08:38:44Z</time>
      </trkpt>
      <trkpt lat="42.859421018511057" lon="-2.338413018733263">
        <ele>608</ele>
        <time>2019-06-23T08:38:46Z</time>
      </trkpt>
      <trkpt lat="42.859397968277335" lon="-2.338589038699865">
        <ele>608.20000000000005</ele>
        <time>2019-06-23T08:38:48Z</time>
      </trkpt>
      <trkpt lat="42.859372990205884" lon="-2.338763969019055">
        <ele>608.60000000000002</ele>
        <time>2019-06-23T08:38:50Z</time>
      </trkpt>
      <trkpt lat="42.859349017962813" lon="-2.338934959843755">
        <ele>608.60000000000002</ele>
        <time>2019-06-23T08:38:52Z</time>
      </trkpt>
      <trkpt lat="42.859336026012897" lon="-2.339019030332565">
        <ele>608.60000000000002</ele>
        <time>2019-06-23T08:38:53Z</time>
      </trkpt>
      <trkpt lat="42.859324039891362" lon="-2.339103017002344">
        <ele>608.79999999999995</ele>
        <time>2019-06-23T08:38:54Z</time>
      </trkpt>
      <trkpt lat="42.85929998382926" lon="-2.339271996170282">
        <ele>608.79999999999995</ele>
        <time>2019-06-23T08:38:56Z</time>
      </trkpt>
      <trkpt lat="42.85927802324295" lon="-2.339443992823362">
        <ele>609</ele>
        <time>2019-06-23T08:38:58Z</time>
      </trkpt>
      <trkpt lat="42.859253967180848" lon="-2.339615989476442">
        <ele>609.39999999999998</ele>
        <time>2019-06-23T08:39:00Z</time>
      </trkpt>
      <trkpt lat="42.859227983281016" lon="-2.339791003614664">
        <ele>609.79999999999995</ele>
        <time>2019-06-23T08:39:02Z</time>
      </trkpt>
      <trkpt lat="42.859203005209565" lon="-2.339968029409647">
        <ele>610.20000000000005</ele>
        <time>2019-06-23T08:39:04Z</time>
      </trkpt>
      <trkpt lat="42.859179032966495" lon="-2.340143965557218">
        <ele>610.60000000000002</ele>
        <time>2019-06-23T08:39:06Z</time>
      </trkpt>
      <trkpt lat="42.85915195941925" lon="-2.34031998552382">
        <ele>611</ele>
        <time>2019-06-23T08:39:08Z</time>
      </trkpt>
      <trkpt lat="42.859125975519419" lon="-2.340496005490422">
        <ele>611.20000000000005</ele>
        <time>2019-06-23T08:39:10Z</time>
      </trkpt>
      <trkpt lat="42.859103009104729" lon="-2.340674037113786">
        <ele>611.79999999999995</ele>
        <time>2019-06-23T08:39:12Z</time>
      </trkpt>
      <trkpt lat="42.859078031033278" lon="-2.340851984918118">
        <ele>612.39999999999998</ele>
        <time>2019-06-23T08:39:14Z</time>
      </trkpt>
      <trkpt lat="42.859065039083362" lon="-2.34094200655818">
        <ele>612.39999999999998</ele>
        <time>2019-06-23T08:39:15Z</time>
      </trkpt>
      <trkpt lat="42.859052969142795" lon="-2.341030016541481">
        <ele>612.79999999999995</ele>
        <time>2019-06-23T08:39:16Z</time>
      </trkpt>
      <trkpt lat="42.859026985242963" lon="-2.341206958517432">
        <ele>613</ele>
        <time>2019-06-23T08:39:18Z</time>
      </trkpt>
      <trkpt lat="42.859003012999892" lon="-2.341385995969176">
        <ele>613.39999999999998</ele>
        <time>2019-06-23T08:39:20Z</time>
      </trkpt>
      <trkpt lat="42.85897602327168" lon="-2.34156402759254">
        <ele>613.60000000000002</ele>
        <time>2019-06-23T08:39:22Z</time>
      </trkpt>
      <trkpt lat="42.858950039371848" lon="-2.341740969568491">
        <ele>613.79999999999995</ele>
        <time>2019-06-23T08:39:24Z</time>
      </trkpt>
      <trkpt lat="42.858926989138126" lon="-2.341917995363474">
        <ele>614</ele>
        <time>2019-06-23T08:39:26Z</time>
      </trkpt>
      <trkpt lat="42.858905028551817" lon="-2.342098038643599">
        <ele>614.20000000000005</ele>
        <time>2019-06-23T08:39:28Z</time>
      </trkpt>
      <trkpt lat="42.858878960832953" lon="-2.342281015589833">
        <ele>614.20000000000005</ele>
        <time>2019-06-23T08:39:30Z</time>
      </trkpt>
      <trkpt lat="42.858865968883038" lon="-2.342373970896006">
        <ele>614.39999999999998</ele>
        <time>2019-06-23T08:39:31Z</time>
      </trkpt>
      <trkpt lat="42.858853982761502" lon="-2.34246701002121">
        <ele>614.39999999999998</ele>
        <time>2019-06-23T08:39:32Z</time>
      </trkpt>
      <trkpt lat="42.858829004690051" lon="-2.342656021937728">
        <ele>614.60000000000002</ele>
        <time>2019-06-23T08:39:34Z</time>
      </trkpt>
      <trkpt lat="42.858802014961839" lon="-2.342847967520356">
        <ele>614.79999999999995</ele>
        <time>2019-06-23T08:39:36Z</time>
      </trkpt>
      <trkpt lat="42.858775025233626" lon="-2.343043014407158">
        <ele>614.79999999999995</ele>
        <time>2019-06-23T08:39:38Z</time>
      </trkpt>
      <trkpt lat="42.85876102745533" lon="-2.343139993026853">
        <ele>614.79999999999995</ele>
        <time>2019-06-23T08:39:39Z</time>
      </trkpt>
      <trkpt lat="42.858748035505414" lon="-2.343235965818167">
        <ele>614.79999999999995</ele>
        <time>2019-06-23T08:39:40Z</time>
      </trkpt>
      <trkpt lat="42.85872096195817" lon="-2.343424977734685">
        <ele>614.79999999999995</ele>
        <time>2019-06-23T08:39:42Z</time>
      </trkpt>
      <trkpt lat="42.858707970008254" lon="-2.343518016859889">
        <ele>614.79999999999995</ele>
        <time>2019-06-23T08:39:43Z</time>
      </trkpt>
      <trkpt lat="42.858695983886719" lon="-2.343608038499951">
        <ele>614.79999999999995</ele>
        <time>2019-06-23T08:39:44Z</time>
      </trkpt>
      <trkpt lat="42.858685003593564" lon="-2.34369495883584">
        <ele>614.79999999999995</ele>
        <time>2019-06-23T08:39:45Z</time>
      </trkpt>
      <trkpt lat="42.858674023300409" lon="-2.343780035153031">
        <ele>614.79999999999995</ele>
        <time>2019-06-23T08:39:46Z</time>
      </trkpt>
      <trkpt lat="42.858651978895068" lon="-2.343944991007447">
        <ele>614.79999999999995</ele>
        <time>2019-06-23T08:39:48Z</time>
      </trkpt>
      <trkpt lat="42.858627000823617" lon="-2.344107013195753">
        <ele>614.79999999999995</ele>
        <time>2019-06-23T08:39:50Z</time>
      </trkpt>
      <trkpt lat="42.858605040237308" lon="-2.344267023727298">
        <ele>614.79999999999995</ele>
        <time>2019-06-23T08:39:52Z</time>
      </trkpt>
      <trkpt lat="42.858594981953502" lon="-2.344346987083554">
        <ele>615.60000000000002</ele>
        <time>2019-06-23T08:39:53Z</time>
      </trkpt>
      <trkpt lat="42.858584001660347" lon="-2.344427034258843">
        <ele>615.79999999999995</ele>
        <time>2019-06-23T08:39:54Z</time>
      </trkpt>
      <trkpt lat="42.858559023588896" lon="-2.344586038962007">
        <ele>616.39999999999998</ele>
        <time>2019-06-23T08:39:56Z</time>
      </trkpt>
      <trkpt lat="42.858541002497077" lon="-2.344747977331281">
        <ele>617</ele>
        <time>2019-06-23T08:39:58Z</time>
      </trkpt>
      <trkpt lat="42.858516024425626" lon="-2.3449179623276">
        <ele>617.79999999999995</ele>
        <time>2019-06-23T08:40:00Z</time>
      </trkpt>
      <trkpt lat="42.85850303247571" lon="-2.345000021159649">
        <ele>618</ele>
        <time>2019-06-23T08:40:01Z</time>
      </trkpt>
      <trkpt lat="42.858490962535143" lon="-2.345086019486189">
        <ele>618.39999999999998</ele>
        <time>2019-06-23T08:40:02Z</time>
      </trkpt>
      <trkpt lat="42.858465984463692" lon="-2.345257010310888">
        <ele>619</ele>
        <time>2019-06-23T08:40:04Z</time>
      </trkpt>
      <trkpt lat="42.858452992513776" lon="-2.345343008637428">
        <ele>619.20000000000005</ele>
        <time>2019-06-23T08:40:05Z</time>
      </trkpt>
      <trkpt lat="42.858441006392241" lon="-2.345430012792349">
        <ele>619.39999999999998</ele>
        <time>2019-06-23T08:40:06Z</time>
      </trkpt>
      <trkpt lat="42.858415022492409" lon="-2.345608966425061">
        <ele>619.60000000000002</ele>
        <time>2019-06-23T08:40:08Z</time>
      </trkpt>
      <trkpt lat="42.858388032764196" lon="-2.345796972513199">
        <ele>619.79999999999995</ele>
        <time>2019-06-23T08:40:10Z</time>
      </trkpt>
      <trkpt lat="42.8583740349859" lon="-2.345895962789655">
        <ele>620</ele>
        <time>2019-06-23T08:40:11Z</time>
      </trkpt>
      <trkpt lat="42.858359031379223" lon="-2.345996964722872">
        <ele>620</ele>
        <time>2019-06-23T08:40:12Z</time>
      </trkpt>
      <trkpt lat="42.858326006680727" lon="-2.346207015216351">
        <ele>620.20000000000005</ele>
        <time>2019-06-23T08:40:14Z</time>
      </trkpt>
      <trkpt lat="42.858293987810612" lon="-2.346428968012333">
        <ele>620.20000000000005</ele>
        <time>2019-06-23T08:40:16Z</time>
      </trkpt>
      <trkpt lat="42.858276972547174" lon="-2.346542961895466">
        <ele>620.20000000000005</ele>
        <time>2019-06-23T08:40:17Z</time>
      </trkpt>
      <trkpt lat="42.858260041102767" lon="-2.346659973263741">
        <ele>620</ele>
        <time>2019-06-23T08:40:18Z</time>
      </trkpt>
      <trkpt lat="42.858222993090749" lon="-2.346901036798954">
        <ele>619.79999999999995</ele>
        <time>2019-06-23T08:40:20Z</time>
      </trkpt>
      <trkpt lat="42.858203966170549" lon="-2.347025005146861">
        <ele>619.60000000000002</ele>
        <time>2019-06-23T08:40:21Z</time>
      </trkpt>
      <trkpt lat="42.858184017241001" lon="-2.34715199097991">
        <ele>619.79999999999995</ele>
        <time>2019-06-23T08:40:22Z</time>
      </trkpt>
      <trkpt lat="42.858148980885744" lon="-2.347413003444672">
        <ele>619</ele>
        <time>2019-06-23T08:40:24Z</time>
      </trkpt>
      <trkpt lat="42.858130959793925" lon="-2.347546024248004">
        <ele>618.60000000000002</ele>
        <time>2019-06-23T08:40:25Z</time>
      </trkpt>
      <trkpt lat="42.858113022521138" lon="-2.347678961232305">
        <ele>618.20000000000005</ele>
        <time>2019-06-23T08:40:26Z</time>
      </trkpt>
      <trkpt lat="42.858093995600939" lon="-2.347810976207256">
        <ele>617.60000000000002</ele>
        <time>2019-06-23T08:40:27Z</time>
      </trkpt>
      <trkpt lat="42.858074968680739" lon="-2.347941985353828">
        <ele>617.20000000000005</ele>
        <time>2019-06-23T08:40:28Z</time>
      </trkpt>
      <trkpt lat="42.858039010316133" lon="-2.348199980333448">
        <ele>616.39999999999998</ele>
        <time>2019-06-23T08:40:30Z</time>
      </trkpt>
      <trkpt lat="42.858001040294766" lon="-2.348455041646957">
        <ele>615.79999999999995</ele>
        <time>2019-06-23T08:40:32Z</time>
      </trkpt>
      <trkpt lat="42.857963992282748" lon="-2.348710019141436">
        <ele>614.39999999999998</ele>
        <time>2019-06-23T08:40:34Z</time>
      </trkpt>
      <trkpt lat="42.857944965362549" lon="-2.348840022459626">
        <ele>614.39999999999998</ele>
        <time>2019-06-23T08:40:35Z</time>
      </trkpt>
      <trkpt lat="42.857925016433001" lon="-2.348970025777817">
        <ele>614.20000000000005</ele>
        <time>2019-06-23T08:40:36Z</time>
      </trkpt>
      <trkpt lat="42.857905989512801" lon="-2.349101034924388">
        <ele>614.20000000000005</ele>
        <time>2019-06-23T08:40:37Z</time>
      </trkpt>
      <trkpt lat="42.857886962592602" lon="-2.349232966080308">
        <ele>614</ele>
        <time>2019-06-23T08:40:38Z</time>
      </trkpt>
      <trkpt lat="42.857852010056376" lon="-2.349491966888309">
        <ele>613.60000000000002</ele>
        <time>2019-06-23T08:40:40Z</time>
      </trkpt>
      <trkpt lat="42.857814962044358" lon="-2.349740993231535">
        <ele>613.39999999999998</ele>
        <time>2019-06-23T08:40:42Z</time>
      </trkpt>
      <trkpt lat="42.857797024771571" lon="-2.349861022084951">
        <ele>613.20000000000005</ele>
        <time>2019-06-23T08:40:43Z</time>
      </trkpt>
      <trkpt lat="42.857780009508133" lon="-2.349977027624846">
        <ele>613.20000000000005</ele>
        <time>2019-06-23T08:40:44Z</time>
      </trkpt>
      <trkpt lat="42.857762994244695" lon="-2.350091021507978">
        <ele>613.20000000000005</ele>
        <time>2019-06-23T08:40:45Z</time>
      </trkpt>
      <trkpt lat="42.857747990638018" lon="-2.350198980420828">
        <ele>613.20000000000005</ele>
        <time>2019-06-23T08:40:46Z</time>
      </trkpt>
      <trkpt lat="42.857732987031341" lon="-2.350304005667567">
        <ele>613.20000000000005</ele>
        <time>2019-06-23T08:40:47Z</time>
      </trkpt>
      <trkpt lat="42.857718989253044" lon="-2.350404001772404">
        <ele>613.20000000000005</ele>
        <time>2019-06-23T08:40:48Z</time>
      </trkpt>
      <trkpt lat="42.857694011181593" lon="-2.35058999620378">
        <ele>613.20000000000005</ele>
        <time>2019-06-23T08:40:50Z</time>
      </trkpt>
      <trkpt lat="42.857682025060058" lon="-2.350680017843843">
        <ele>613.39999999999998</ele>
        <time>2019-06-23T08:40:51Z</time>
      </trkpt>
      <trkpt lat="42.857668027281761" lon="-2.350768027827144">
        <ele>613.39999999999998</ele>
        <time>2019-06-23T08:40:52Z</time>
      </trkpt>
      <trkpt lat="42.857641037553549" lon="-2.350942036136985">
        <ele>613.60000000000002</ele>
        <time>2019-06-23T08:40:54Z</time>
      </trkpt>
      <trkpt lat="42.857617987319827" lon="-2.351115038618445">
        <ele>614.20000000000005</ele>
        <time>2019-06-23T08:40:56Z</time>
      </trkpt>
      <trkpt lat="42.857592003419995" lon="-2.351287035271525">
        <ele>614.79999999999995</ele>
        <time>2019-06-23T08:40:58Z</time>
      </trkpt>
      <trkpt lat="42.857578005641699" lon="-2.351372027769685">
        <ele>615.39999999999998</ele>
        <time>2019-06-23T08:40:59Z</time>
      </trkpt>
      <trkpt lat="42.857565013691783" lon="-2.351459031924605">
        <ele>616</ele>
        <time>2019-06-23T08:41:00Z</time>
      </trkpt>
      <trkpt lat="42.857554033398628" lon="-2.351546036079526">
        <ele>616.20000000000005</ele>
        <time>2019-06-23T08:41:01Z</time>
      </trkpt>
      <trkpt lat="42.857542969286442" lon="-2.351633040234447">
        <ele>616.60000000000002</ele>
        <time>2019-06-23T08:41:02Z</time>
      </trkpt>
      <trkpt lat="42.85751698538661" lon="-2.351805036887527">
        <ele>617.20000000000005</ele>
        <time>2019-06-23T08:41:04Z</time>
      </trkpt>
      <trkpt lat="42.857503993436694" lon="-2.351891035214067">
        <ele>617.79999999999995</ele>
        <time>2019-06-23T08:41:05Z</time>
      </trkpt>
      <trkpt lat="42.857493013143539" lon="-2.351978039368987">
        <ele>618.20000000000005</ele>
        <time>2019-06-23T08:41:06Z</time>
      </trkpt>
      <trkpt lat="42.857470968738198" lon="-2.352151963859797">
        <ele>618.60000000000002</ele>
        <time>2019-06-23T08:41:08Z</time>
      </trkpt>
      <trkpt lat="42.857446996495128" lon="-2.352326977998018">
        <ele>619.20000000000005</ele>
        <time>2019-06-23T08:41:10Z</time>
      </trkpt>
      <trkpt lat="42.857421012595296" lon="-2.35250199213624">
        <ele>619.60000000000002</ele>
        <time>2019-06-23T08:41:12Z</time>
      </trkpt>
      <trkpt lat="42.857394022867084" lon="-2.352678012102842">
        <ele>620.79999999999995</ele>
        <time>2019-06-23T08:41:14Z</time>
      </trkpt>
      <trkpt lat="42.857366027310491" lon="-2.352856965735555">
        <ele>621.20000000000005</ele>
        <time>2019-06-23T08:41:16Z</time>
      </trkpt>
      <trkpt lat="42.857335014268756" lon="-2.353043965995312">
        <ele>621.60000000000002</ele>
        <time>2019-06-23T08:41:18Z</time>
      </trkpt>
      <trkpt lat="42.857306012883782" lon="-2.353244964033365">
        <ele>621.79999999999995</ele>
        <time>2019-06-23T08:41:20Z</time>
      </trkpt>
      <trkpt lat="42.857276005670428" lon="-2.353459037840366">
        <ele>621.79999999999995</ele>
        <time>2019-06-23T08:41:22Z</time>
      </trkpt>
      <trkpt lat="42.857259996235371" lon="-2.353570014238358">
        <ele>621.79999999999995</ele>
        <time>2019-06-23T08:41:23Z</time>
      </trkpt>
      <trkpt lat="42.857242980971932" lon="-2.353680990636349">
        <ele>621.79999999999995</ele>
        <time>2019-06-23T08:41:24Z</time>
      </trkpt>
      <trkpt lat="42.857208028435707" lon="-2.353904033079743">
        <ele>621.60000000000002</ele>
        <time>2019-06-23T08:41:26Z</time>
      </trkpt>
      <trkpt lat="42.85717299208045" lon="-2.354121040552855">
        <ele>621.60000000000002</ele>
        <time>2019-06-23T08:41:28Z</time>
      </trkpt>
      <trkpt lat="42.857137033715844" lon="-2.35432798974216">
        <ele>621</ele>
        <time>2019-06-23T08:41:30Z</time>
      </trkpt>
      <trkpt lat="42.857099985703826" lon="-2.354525970295072">
        <ele>620.39999999999998</ele>
        <time>2019-06-23T08:41:32Z</time>
      </trkpt>
      <trkpt lat="42.857063021510839" lon="-2.354717999696732">
        <ele>620.20000000000005</ele>
        <time>2019-06-23T08:41:34Z</time>
      </trkpt>
      <trkpt lat="42.857027985155582" lon="-2.35490701161325">
        <ele>620.20000000000005</ele>
        <time>2019-06-23T08:41:36Z</time>
      </trkpt>
      <trkpt lat="42.857009964063764" lon="-2.355000972747803">
        <ele>620.20000000000005</ele>
        <time>2019-06-23T08:41:37Z</time>
      </trkpt>
      <trkpt lat="42.856992026790977" lon="-2.355096023529768">
        <ele>620.20000000000005</ele>
        <time>2019-06-23T08:41:38Z</time>
      </trkpt>
      <trkpt lat="42.856954978778958" lon="-2.355285035446286">
        <ele>620</ele>
        <time>2019-06-23T08:41:40Z</time>
      </trkpt>
      <trkpt lat="42.856916002929211" lon="-2.355476981028915">
        <ele>620.20000000000005</ele>
        <time>2019-06-23T08:41:42Z</time>
      </trkpt>
      <trkpt lat="42.856875015422702" lon="-2.355672027915716">
        <ele>620.39999999999998</ele>
        <time>2019-06-23T08:41:44Z</time>
      </trkpt>
      <trkpt lat="42.856833022087812" lon="-2.355872020125389">
        <ele>620.39999999999998</ele>
        <time>2019-06-23T08:41:46Z</time>
      </trkpt>
      <trkpt lat="42.856812989339232" lon="-2.355975033715367">
        <ele>620.39999999999998</ele>
        <time>2019-06-23T08:41:47Z</time>
      </trkpt>
      <trkpt lat="42.856793040409684" lon="-2.356078969314694">
        <ele>620.60000000000002</ele>
        <time>2019-06-23T08:41:48Z</time>
      </trkpt>
      <trkpt lat="42.856750963255763" lon="-2.356292959302664">
        <ele>620.39999999999998</ele>
        <time>2019-06-23T08:41:50Z</time>
      </trkpt>
      <trkpt lat="42.856730008497834" lon="-2.356402007862926">
        <ele>620.20000000000005</ele>
        <time>2019-06-23T08:41:51Z</time>
      </trkpt>
      <trkpt lat="42.856707964092493" lon="-2.356511978432536">
        <ele>620.39999999999998</ele>
        <time>2019-06-23T08:41:52Z</time>
      </trkpt>
      <trkpt lat="42.856686003506184" lon="-2.356623960658908">
        <ele>620.39999999999998</ele>
        <time>2019-06-23T08:41:53Z</time>
      </trkpt>
      <trkpt lat="42.856663037091494" lon="-2.356737032532692">
        <ele>620</ele>
        <time>2019-06-23T08:41:54Z</time>
      </trkpt>
      <trkpt lat="42.856618026271462" lon="-2.356965020298958">
        <ele>619.79999999999995</ele>
        <time>2019-06-23T08:41:56Z</time>
      </trkpt>
      <trkpt lat="42.856568992137909" lon="-2.357203988358378">
        <ele>619.39999999999998</ele>
        <time>2019-06-23T08:41:58Z</time>
      </trkpt>
      <trkpt lat="42.856520963832736" lon="-2.357456032186747">
        <ele>618.60000000000002</ele>
        <time>2019-06-23T08:42:00Z</time>
      </trkpt>
      <trkpt lat="42.856494979932904" lon="-2.357587041333318">
        <ele>618</ele>
        <time>2019-06-23T08:42:01Z</time>
      </trkpt>
      <trkpt lat="42.856468996033072" lon="-2.357719978317618">
        <ele>617.20000000000005</ele>
        <time>2019-06-23T08:42:02Z</time>
      </trkpt>
      <trkpt lat="42.856414010748267" lon="-2.357994988560677">
        <ele>616.20000000000005</ele>
        <time>2019-06-23T08:42:04Z</time>
      </trkpt>
      <trkpt lat="42.856386015191674" lon="-2.358136978000403">
        <ele>615.60000000000002</ele>
        <time>2019-06-23T08:42:05Z</time>
      </trkpt>
      <trkpt lat="42.856357013806701" lon="-2.35828198492527">
        <ele>615</ele>
        <time>2019-06-23T08:42:06Z</time>
      </trkpt>
      <trkpt lat="42.856328012421727" lon="-2.35843000933528">
        <ele>614.60000000000002</ele>
        <time>2019-06-23T08:42:07Z</time>
      </trkpt>
      <trkpt lat="42.856295993551612" lon="-2.358579961583018">
        <ele>614.39999999999998</ele>
        <time>2019-06-23T08:42:08Z</time>
      </trkpt>
      <trkpt lat="42.856261041015387" lon="-2.35873200930655">
        <ele>613.79999999999995</ele>
        <time>2019-06-23T08:42:09Z</time>
      </trkpt>
      <trkpt lat="42.85622600466013" lon="-2.358885984867811">
        <ele>613.39999999999998</ele>
        <time>2019-06-23T08:42:10Z</time>
      </trkpt>
      <trkpt lat="42.856189962476492" lon="-2.359043983742595">
        <ele>612.60000000000002</ele>
        <time>2019-06-23T08:42:11Z</time>
      </trkpt>
      <trkpt lat="42.856150986626744" lon="-2.359203994274139">
        <ele>612</ele>
        <time>2019-06-23T08:42:12Z</time>
      </trkpt>
      <trkpt lat="42.856111004948616" lon="-2.359366016462445">
        <ele>611.60000000000002</ele>
        <time>2019-06-23T08:42:13Z</time>
      </trkpt>
      <trkpt lat="42.856069011613727" lon="-2.359528038650751">
        <ele>610.79999999999995</ele>
        <time>2019-06-23T08:42:14Z</time>
      </trkpt>
      <trkpt lat="42.856028024107218" lon="-2.359689977020025">
        <ele>610</ele>
        <time>2019-06-23T08:42:15Z</time>
      </trkpt>
      <trkpt lat="42.855985024943948" lon="-2.359850993379951">
        <ele>609.20000000000005</ele>
        <time>2019-06-23T08:42:16Z</time>
      </trkpt>
      <trkpt lat="42.855943031609058" lon="-2.360011003911495">
        <ele>608.20000000000005</ele>
        <time>2019-06-23T08:42:17Z</time>
      </trkpt>
      <trkpt lat="42.855900032445788" lon="-2.360169002786279">
        <ele>607.60000000000002</ele>
        <time>2019-06-23T08:42:18Z</time>
      </trkpt>
      <trkpt lat="42.855816967785358" lon="-2.360477037727833">
        <ele>605.60000000000002</ele>
        <time>2019-06-23T08:42:20Z</time>
      </trkpt>
      <trkpt lat="42.855737004429102" lon="-2.3607740085572">
        <ele>604</ele>
        <time>2019-06-23T08:42:22Z</time>
      </trkpt>
      <trkpt lat="42.855698028579354" lon="-2.360919015482068">
        <ele>603</ele>
        <time>2019-06-23T08:42:23Z</time>
      </trkpt>
      <trkpt lat="42.855658968910575" lon="-2.361063016578555">
        <ele>602.39999999999998</ele>
        <time>2019-06-23T08:42:24Z</time>
      </trkpt>
      <trkpt lat="42.85558202303946" lon="-2.361346995458007">
        <ele>601.39999999999998</ele>
        <time>2019-06-23T08:42:26Z</time>
      </trkpt>
      <trkpt lat="42.855505999177694" lon="-2.361627034842968">
        <ele>601</ele>
        <time>2019-06-23T08:42:28Z</time>
      </trkpt>
      <trkpt lat="42.85543198697269" lon="-2.361902967095375">
        <ele>600.60000000000002</ele>
        <time>2019-06-23T08:42:30Z</time>
      </trkpt>
      <trkpt lat="42.855394016951323" lon="-2.36204101704061">
        <ele>600.39999999999998</ele>
        <time>2019-06-23T08:42:31Z</time>
      </trkpt>
      <trkpt lat="42.855356968939304" lon="-2.362178983166814">
        <ele>600.39999999999998</ele>
        <time>2019-06-23T08:42:32Z</time>
      </trkpt>
      <trkpt lat="42.85528102889657" lon="-2.362456005066633">
        <ele>600</ele>
        <time>2019-06-23T08:42:34Z</time>
      </trkpt>
      <trkpt lat="42.855242975056171" lon="-2.362593971192837">
        <ele>599.79999999999995</ele>
        <time>2019-06-23T08:42:35Z</time>
      </trkpt>
      <trkpt lat="42.855206010863185" lon="-2.362731015309691">
        <ele>599.39999999999998</ele>
        <time>2019-06-23T08:42:36Z</time>
      </trkpt>
      <trkpt lat="42.855135016143322" lon="-2.363002002239227">
        <ele>599.20000000000005</ele>
        <time>2019-06-23T08:42:38Z</time>
      </trkpt>
      <trkpt lat="42.85506896674633" lon="-2.363258991390467">
        <ele>598.20000000000005</ele>
        <time>2019-06-23T08:42:40Z</time>
      </trkpt>
      <trkpt lat="42.85500300116837" lon="-2.363497959449887">
        <ele>597.39999999999998</ele>
        <time>2019-06-23T08:42:42Z</time>
      </trkpt>
      <trkpt lat="42.854942986741662" lon="-2.363702980801463">
        <ele>597.20000000000005</ele>
        <time>2019-06-23T08:42:44Z</time>
      </trkpt>
      <trkpt lat="42.85491599701345" lon="-2.363794008269906">
        <ele>597</ele>
        <time>2019-06-23T08:42:45Z</time>
      </trkpt>
      <trkpt lat="42.854892024770379" lon="-2.363880006596446">
        <ele>597</ele>
        <time>2019-06-23T08:42:46Z</time>
      </trkpt>
      <trkpt lat="42.854847013950348" lon="-2.36403901129961">
        <ele>597</ele>
        <time>2019-06-23T08:42:48Z</time>
      </trkpt>
      <trkpt lat="42.85481097176671" lon="-2.364194998517633">
        <ele>597</ele>
        <time>2019-06-23T08:42:50Z</time>
      </trkpt>
      <trkpt lat="42.854773001745343" lon="-2.364352997392416">
        <ele>596.79999999999995</ele>
        <time>2019-06-23T08:42:52Z</time>
      </trkpt>
      <trkpt lat="42.854731008410454" lon="-2.36451200209558">
        <ele>596.79999999999995</ele>
        <time>2019-06-23T08:42:54Z</time>
      </trkpt>
      <trkpt lat="42.854687003418803" lon="-2.364670000970364">
        <ele>596.79999999999995</ele>
        <time>2019-06-23T08:42:56Z</time>
      </trkpt>
      <trkpt lat="42.854644004255533" lon="-2.36483302898705">
        <ele>597.20000000000005</ele>
        <time>2019-06-23T08:42:58Z</time>
      </trkpt>
      <trkpt lat="42.854598993435502" lon="-2.364999996498227">
        <ele>597.79999999999995</ele>
        <time>2019-06-23T08:43:00Z</time>
      </trkpt>
      <trkpt lat="42.854549959301949" lon="-2.365166964009404">
        <ele>597.79999999999995</ele>
        <time>2019-06-23T08:43:02Z</time>
      </trkpt>
      <trkpt lat="42.854523975402117" lon="-2.365251034498215">
        <ele>598</ele>
        <time>2019-06-23T08:43:03Z</time>
      </trkpt>
      <trkpt lat="42.854495979845524" lon="-2.365335021167994">
        <ele>598</ele>
        <time>2019-06-23T08:43:04Z</time>
      </trkpt>
      <trkpt lat="42.854437977075577" lon="-2.365505006164312">
        <ele>598.60000000000002</ele>
        <time>2019-06-23T08:43:06Z</time>
      </trkpt>
      <trkpt lat="42.854375028982759" lon="-2.365680020302534">
        <ele>599</ele>
        <time>2019-06-23T08:43:08Z</time>
      </trkpt>
      <trkpt lat="42.854339992627501" lon="-2.365769958123565">
        <ele>599</ele>
        <time>2019-06-23T08:43:09Z</time>
      </trkpt>
      <trkpt lat="42.854304034262896" lon="-2.365860985592008">
        <ele>599.20000000000005</ele>
        <time>2019-06-23T08:43:10Z</time>
      </trkpt>
      <trkpt lat="42.854224992915988" lon="-2.366048991680145">
        <ele>599.39999999999998</ele>
        <time>2019-06-23T08:43:12Z</time>
      </trkpt>
      <trkpt lat="42.854136982932687" lon="-2.366240015253425">
        <ele>599.39999999999998</ele>
        <time>2019-06-23T08:43:14Z</time>
      </trkpt>
      <trkpt lat="42.854040004312992" lon="-2.366439001634717">
        <ele>599.39999999999998</ele>
        <time>2019-06-23T08:43:16Z</time>
      </trkpt>
      <trkpt lat="42.853936990723014" lon="-2.366652991622686">
        <ele>599.20000000000005</ele>
        <time>2019-06-23T08:43:18Z</time>
      </trkpt>
      <trkpt lat="42.853825008496642" lon="-2.366881985217333">
        <ele>599.20000000000005</ele>
        <time>2019-06-23T08:43:20Z</time>
      </trkpt>
      <trkpt lat="42.853767005726695" lon="-2.367002014070749">
        <ele>598.79999999999995</ele>
        <time>2019-06-23T08:43:21Z</time>
      </trkpt>
      <trkpt lat="42.853705985471606" lon="-2.367124976590276">
        <ele>598.60000000000002</ele>
        <time>2019-06-23T08:43:22Z</time>
      </trkpt>
      <trkpt lat="42.853643959388137" lon="-2.367250034585595">
        <ele>598.20000000000005</ele>
        <time>2019-06-23T08:43:23Z</time>
      </trkpt>
      <trkpt lat="42.853581011295319" lon="-2.367379032075405">
        <ele>597.60000000000002</ele>
        <time>2019-06-23T08:43:24Z</time>
      </trkpt>
      <trkpt lat="42.853453019633889" lon="-2.367639038711786">
        <ele>596.60000000000002</ele>
        <time>2019-06-23T08:43:26Z</time>
      </trkpt>
      <trkpt lat="42.853388981893659" lon="-2.367769964039326">
        <ele>595.79999999999995</ele>
        <time>2019-06-23T08:43:27Z</time>
      </trkpt>
      <trkpt lat="42.85332502797246" lon="-2.367899967357516">
        <ele>595</ele>
        <time>2019-06-23T08:43:28Z</time>
      </trkpt>
      <trkpt lat="42.85326199606061" lon="-2.368028964847326">
        <ele>594.60000000000002</ele>
        <time>2019-06-23T08:43:29Z</time>
      </trkpt>
      <trkpt lat="42.853200975805521" lon="-2.368157040327787">
        <ele>593.60000000000002</ele>
        <time>2019-06-23T08:43:30Z</time>
      </trkpt>
      <trkpt lat="42.853141967207193" lon="-2.368281008675695">
        <ele>592.60000000000002</ele>
        <time>2019-06-23T08:43:31Z</time>
      </trkpt>
      <trkpt lat="42.853083964437246" lon="-2.368401037529111">
        <ele>591.60000000000002</ele>
        <time>2019-06-23T08:43:32Z</time>
      </trkpt>
      <trkpt lat="42.85302797332406" lon="-2.368517965078354">
        <ele>590.20000000000005</ele>
        <time>2019-06-23T08:43:33Z</time>
      </trkpt>
      <trkpt lat="42.852972988039255" lon="-2.368631958961487">
        <ele>589.39999999999998</ele>
        <time>2019-06-23T08:43:34Z</time>
      </trkpt>
      <trkpt lat="42.852864023298025" lon="-2.368849972262979">
        <ele>588.20000000000005</ele>
        <time>2019-06-23T08:43:36Z</time>
      </trkpt>
      <trkpt lat="42.852758998051286" lon="-2.369061028584838">
        <ele>587.20000000000005</ele>
        <time>2019-06-23T08:43:38Z</time>
      </trkpt>
      <trkpt lat="42.852659001946449" lon="-2.369265966117382">
        <ele>586.79999999999995</ele>
        <time>2019-06-23T08:43:40Z</time>
      </trkpt>
      <trkpt lat="42.852562023326755" lon="-2.369465958327055">
        <ele>586.79999999999995</ele>
        <time>2019-06-23T08:43:42Z</time>
      </trkpt>
      <trkpt lat="42.852465966716409" lon="-2.369661005213857">
        <ele>586.60000000000002</ele>
        <time>2019-06-23T08:43:44Z</time>
      </trkpt>
      <trkpt lat="42.852419028058648" lon="-2.369756978005171">
        <ele>586.60000000000002</ele>
        <time>2019-06-23T08:43:45Z</time>
      </trkpt>
      <trkpt lat="42.852373011410236" lon="-2.369853034615517">
        <ele>586.60000000000002</ele>
        <time>2019-06-23T08:43:46Z</time>
      </trkpt>
      <trkpt lat="42.852281983941793" lon="-2.370040034875274">
        <ele>586.79999999999995</ele>
        <time>2019-06-23T08:43:48Z</time>
      </trkpt>
      <trkpt lat="42.852237978950143" lon="-2.370130978524685">
        <ele>586.79999999999995</ele>
        <time>2019-06-23T08:43:49Z</time>
      </trkpt>
      <trkpt lat="42.852192968130112" lon="-2.370219994336367">
        <ele>586.79999999999995</ele>
        <time>2019-06-23T08:43:50Z</time>
      </trkpt>
      <trkpt lat="42.852105963975191" lon="-2.370395008474588">
        <ele>586.79999999999995</ele>
        <time>2019-06-23T08:43:52Z</time>
      </trkpt>
      <trkpt lat="42.852020971477032" lon="-2.370568010956049">
        <ele>586.79999999999995</ele>
        <time>2019-06-23T08:43:54Z</time>
      </trkpt>
      <trkpt lat="42.851937990635633" lon="-2.370740007609129">
        <ele>586.79999999999995</ele>
        <time>2019-06-23T08:43:56Z</time>
      </trkpt>
      <trkpt lat="42.851854003965855" lon="-2.37091301009059">
        <ele>587</ele>
        <time>2019-06-23T08:43:58Z</time>
      </trkpt>
      <trkpt lat="42.851812010630965" lon="-2.370998002588749">
        <ele>587.20000000000005</ele>
        <time>2019-06-23T08:43:59Z</time>
      </trkpt>
      <trkpt lat="42.851770017296076" lon="-2.371082995086908">
        <ele>587.39999999999998</ele>
        <time>2019-06-23T08:44:00Z</time>
      </trkpt>
      <trkpt lat="42.851687036454678" lon="-2.371253985911608">
        <ele>587.39999999999998</ele>
        <time>2019-06-23T08:44:02Z</time>
      </trkpt>
      <trkpt lat="42.851605983451009" lon="-2.371423970907927">
        <ele>587.39999999999998</ele>
        <time>2019-06-23T08:44:04Z</time>
      </trkpt>
      <trkpt lat="42.851524008437991" lon="-2.371591022238135">
        <ele>587.39999999999998</ele>
        <time>2019-06-23T08:44:06Z</time>
      </trkpt>
      <trkpt lat="42.851443961262703" lon="-2.371756983920932">
        <ele>587.39999999999998</ele>
        <time>2019-06-23T08:44:08Z</time>
      </trkpt>
      <trkpt lat="42.851363997906446" lon="-2.371920011937618">
        <ele>587.39999999999998</ele>
        <time>2019-06-23T08:44:10Z</time>
      </trkpt>
      <trkpt lat="42.851282022893429" lon="-2.372083961963654">
        <ele>587.60000000000002</ele>
        <time>2019-06-23T08:44:12Z</time>
      </trkpt>
      <trkpt lat="42.851199964061379" lon="-2.372251013293862">
        <ele>587.60000000000002</ele>
        <time>2019-06-23T08:44:14Z</time>
      </trkpt>
      <trkpt lat="42.851115977391601" lon="-2.37241898663342">
        <ele>587.60000000000002</ele>
        <time>2019-06-23T08:44:16Z</time>
      </trkpt>
      <trkpt lat="42.851032996550202" lon="-2.3725909832865">
        <ele>587.60000000000002</ele>
        <time>2019-06-23T08:44:18Z</time>
      </trkpt>
      <trkpt lat="42.850948004052043" lon="-2.37276297993958">
        <ele>588</ele>
        <time>2019-06-23T08:44:20Z</time>
      </trkpt>
      <trkpt lat="42.850906010717154" lon="-2.372849984094501">
        <ele>588.20000000000005</ele>
        <time>2019-06-23T08:44:21Z</time>
      </trkpt>
      <trkpt lat="42.850864017382264" lon="-2.372935982421041">
        <ele>588.39999999999998</ele>
        <time>2019-06-23T08:44:22Z</time>
      </trkpt>
      <trkpt lat="42.850780030712485" lon="-2.373107979074121">
        <ele>588.39999999999998</ele>
        <time>2019-06-23T08:44:24Z</time>
      </trkpt>
      <trkpt lat="42.850694032385945" lon="-2.373279975727201">
        <ele>588.39999999999998</ele>
        <time>2019-06-23T08:44:26Z</time>
      </trkpt>
      <trkpt lat="42.850609039887786" lon="-2.373452978208661">
        <ele>588.39999999999998</ele>
        <time>2019-06-23T08:44:28Z</time>
      </trkpt>
      <trkpt lat="42.850523963570595" lon="-2.373626986518502">
        <ele>588.39999999999998</ele>
        <time>2019-06-23T08:44:30Z</time>
      </trkpt>
      <trkpt lat="42.850438971072435" lon="-2.373798983171582">
        <ele>588.39999999999998</ele>
        <time>2019-06-23T08:44:32Z</time>
      </trkpt>
      <trkpt lat="42.850395971909165" lon="-2.373882969841361">
        <ele>588.39999999999998</ele>
        <time>2019-06-23T08:44:33Z</time>
      </trkpt>
      <trkpt lat="42.850352972745895" lon="-2.373967040330172">
        <ele>588.39999999999998</ele>
        <time>2019-06-23T08:44:34Z</time>
      </trkpt>
      <trkpt lat="42.850266974419355" lon="-2.374133002012968">
        <ele>588.20000000000005</ele>
        <time>2019-06-23T08:44:36Z</time>
      </trkpt>
      <trkpt lat="42.850176030769944" lon="-2.374296030029655">
        <ele>588</ele>
        <time>2019-06-23T08:44:38Z</time>
      </trkpt>
      <trkpt lat="42.850079974159598" lon="-2.374454028904438">
        <ele>587.79999999999995</ele>
        <time>2019-06-23T08:44:40Z</time>
      </trkpt>
      <trkpt lat="42.850030018016696" lon="-2.374532986432314">
        <ele>587.60000000000002</ele>
        <time>2019-06-23T08:44:41Z</time>
      </trkpt>
      <trkpt lat="42.849980983883142" lon="-2.374611021950841">
        <ele>587.60000000000002</ele>
        <time>2019-06-23T08:44:42Z</time>
      </trkpt>
      <trkpt lat="42.849878976121545" lon="-2.374762985855341">
        <ele>587.60000000000002</ele>
        <time>2019-06-23T08:44:44Z</time>
      </trkpt>
      <trkpt lat="42.849770011380315" lon="-2.374908998608589">
        <ele>587.60000000000002</ele>
        <time>2019-06-23T08:44:46Z</time>
      </trkpt>
      <trkpt lat="42.849660962820053" lon="-2.375055011361837">
        <ele>587.39999999999998</ele>
        <time>2019-06-23T08:44:48Z</time>
      </trkpt>
      <trkpt lat="42.849550992250443" lon="-2.375198006629944">
        <ele>587.39999999999998</ele>
        <time>2019-06-23T08:44:50Z</time>
      </trkpt>
      <trkpt lat="42.849439010024071" lon="-2.375338990241289">
        <ele>587.20000000000005</ele>
        <time>2019-06-23T08:44:52Z</time>
      </trkpt>
      <trkpt lat="42.84932903945446" lon="-2.375478968024254">
        <ele>587</ele>
        <time>2019-06-23T08:44:54Z</time>
      </trkpt>
      <trkpt lat="42.849216973409057" lon="-2.375616012141109">
        <ele>587</ele>
        <time>2019-06-23T08:44:56Z</time>
      </trkpt>
      <trkpt lat="42.849104991182685" lon="-2.37575096078217">
        <ele>587</ele>
        <time>2019-06-23T08:44:58Z</time>
      </trkpt>
      <trkpt lat="42.848996026441455" lon="-2.375890016555786">
        <ele>587</ele>
        <time>2019-06-23T08:45:00Z</time>
      </trkpt>
      <trkpt lat="42.848885972052813" lon="-2.37602898851037">
        <ele>587</ele>
        <time>2019-06-23T08:45:02Z</time>
      </trkpt>
      <trkpt lat="42.848777007311583" lon="-2.376167038455606">
        <ele>587</ele>
        <time>2019-06-23T08:45:04Z</time>
      </trkpt>
      <trkpt lat="42.848666030913591" lon="-2.376302992925048">
        <ele>587</ele>
        <time>2019-06-23T08:45:06Z</time>
      </trkpt>
      <trkpt lat="42.848555976524949" lon="-2.376439031213522">
        <ele>587.20000000000005</ele>
        <time>2019-06-23T08:45:08Z</time>
      </trkpt>
      <trkpt lat="42.848446005955338" lon="-2.376573979854584">
        <ele>587.39999999999998</ele>
        <time>2019-06-23T08:45:10Z</time>
      </trkpt>
      <trkpt lat="42.848334023728967" lon="-2.376703983172774">
        <ele>587.39999999999998</ele>
        <time>2019-06-23T08:45:12Z</time>
      </trkpt>
      <trkpt lat="42.848278032615781" lon="-2.376767015084624">
        <ele>587.60000000000002</ele>
        <time>2019-06-23T08:45:13Z</time>
      </trkpt>
      <trkpt lat="42.848221035674214" lon="-2.376827029511333">
        <ele>587.60000000000002</ele>
        <time>2019-06-23T08:45:14Z</time>
      </trkpt>
      <trkpt lat="42.848102012649179" lon="-2.376939011737704">
        <ele>588</ele>
        <time>2019-06-23T08:45:16Z</time>
      </trkpt>
      <trkpt lat="42.847974020987749" lon="-2.377035990357399">
        <ele>588.20000000000005</ele>
        <time>2019-06-23T08:45:18Z</time>
      </trkpt>
      <trkpt lat="42.847907971590757" lon="-2.377077983692288">
        <ele>588.20000000000005</ele>
        <time>2019-06-23T08:45:19Z</time>
      </trkpt>
      <trkpt lat="42.847841000184417" lon="-2.377116959542036">
        <ele>588.20000000000005</ele>
        <time>2019-06-23T08:45:20Z</time>
      </trkpt>
      <trkpt lat="42.847702028229833" lon="-2.377179991453886">
        <ele>588.39999999999998</ele>
        <time>2019-06-23T08:45:22Z</time>
      </trkpt>
      <trkpt lat="42.847557021304965" lon="-2.377219973132014">
        <ele>588.60000000000002</ele>
        <time>2019-06-23T08:45:24Z</time>
      </trkpt>
      <trkpt lat="42.847408996894956" lon="-2.377234976738691">
        <ele>588.60000000000002</ele>
        <time>2019-06-23T08:45:26Z</time>
      </trkpt>
      <trkpt lat="42.847259966656566" lon="-2.377228019759059">
        <ele>588.60000000000002</ele>
        <time>2019-06-23T08:45:28Z</time>
      </trkpt>
      <trkpt lat="42.847186960279942" lon="-2.377217039465904">
        <ele>588.60000000000002</ele>
        <time>2019-06-23T08:45:29Z</time>
      </trkpt>
      <trkpt lat="42.847113031893969" lon="-2.377202035859227">
        <ele>588.79999999999995</ele>
        <time>2019-06-23T08:45:30Z</time>
      </trkpt>
      <trkpt lat="42.84696701914072" lon="-2.377159958705306">
        <ele>589</ele>
        <time>2019-06-23T08:45:32Z</time>
      </trkpt>
      <trkpt lat="42.846822012215853" lon="-2.377107990905643">
        <ele>589.20000000000005</ele>
        <time>2019-06-23T08:45:34Z</time>
      </trkpt>
      <trkpt lat="42.846749005839229" lon="-2.37708100117743">
        <ele>589</ele>
        <time>2019-06-23T08:45:35Z</time>
      </trkpt>
      <trkpt lat="42.846677005290985" lon="-2.377053005620837">
        <ele>589</ele>
        <time>2019-06-23T08:45:36Z</time>
      </trkpt>
      <trkpt lat="42.846533004194498" lon="-2.377001959830523">
        <ele>589.20000000000005</ele>
        <time>2019-06-23T08:45:38Z</time>
      </trkpt>
      <trkpt lat="42.846385985612869" lon="-2.376966001465917">
        <ele>589.39999999999998</ele>
        <time>2019-06-23T08:45:40Z</time>
      </trkpt>
      <trkpt lat="42.84623896703124" lon="-2.376947980374098">
        <ele>589.60000000000002</ele>
        <time>2019-06-23T08:45:42Z</time>
      </trkpt>
      <trkpt lat="42.846093960106373" lon="-2.376946974545717">
        <ele>589.79999999999995</ele>
        <time>2019-06-23T08:45:44Z</time>
      </trkpt>
      <trkpt lat="42.84602296538651" lon="-2.376957032829523">
        <ele>590</ele>
        <time>2019-06-23T08:45:45Z</time>
      </trkpt>
      <trkpt lat="42.845953982323408" lon="-2.376978993415833">
        <ele>590</ele>
        <time>2019-06-23T08:45:46Z</time>
      </trkpt>
      <trkpt lat="42.845889022573829" lon="-2.377010006457567">
        <ele>590</ele>
        <time>2019-06-23T08:45:47Z</time>
      </trkpt>
      <trkpt lat="42.845826996490359" lon="-2.377048982307315">
        <ele>590.20000000000005</ele>
        <time>2019-06-23T08:45:48Z</time>
      </trkpt>
      <trkpt lat="42.845710990950465" lon="-2.377142021432519">
        <ele>590.20000000000005</ele>
        <time>2019-06-23T08:45:50Z</time>
      </trkpt>
      <trkpt lat="42.845658017322421" lon="-2.377196000888944">
        <ele>590.39999999999998</ele>
        <time>2019-06-23T08:45:51Z</time>
      </trkpt>
      <trkpt lat="42.845607977360487" lon="-2.377255009487271">
        <ele>590.60000000000002</ele>
        <time>2019-06-23T08:45:52Z</time>
      </trkpt>
      <trkpt lat="42.845519967377186" lon="-2.377387024462223">
        <ele>590.79999999999995</ele>
        <time>2019-06-23T08:45:54Z</time>
      </trkpt>
      <trkpt lat="42.845481997355819" lon="-2.377458019182086">
        <ele>591</ele>
        <time>2019-06-23T08:45:55Z</time>
      </trkpt>
      <trkpt lat="42.845449978485703" lon="-2.37753395922482">
        <ele>591</ele>
        <time>2019-06-23T08:45:56Z</time>
      </trkpt>
      <trkpt lat="42.845419971272349" lon="-2.377611994743347">
        <ele>591.39999999999998</ele>
        <time>2019-06-23T08:45:57Z</time>
      </trkpt>
      <trkpt lat="42.845393987372518" lon="-2.377691958099604">
        <ele>591.39999999999998</ele>
        <time>2019-06-23T08:45:58Z</time>
      </trkpt>
      <trkpt lat="42.845374038442969" lon="-2.377775022760034">
        <ele>591.79999999999995</ele>
        <time>2019-06-23T08:45:59Z</time>
      </trkpt>
      <trkpt lat="42.845358029007912" lon="-2.377858003601432">
        <ele>592</ele>
        <time>2019-06-23T08:46:00Z</time>
      </trkpt>
      <trkpt lat="42.845337996259332" lon="-2.37802698276937">
        <ele>592.39999999999998</ele>
        <time>2019-06-23T08:46:02Z</time>
      </trkpt>
      <trkpt lat="42.845337996259332" lon="-2.378199985250831">
        <ele>593</ele>
        <time>2019-06-23T08:46:04Z</time>
      </trkpt>
      <trkpt lat="42.845356017351151" lon="-2.378367958590388">
        <ele>593.39999999999998</ele>
        <time>2019-06-23T08:46:06Z</time>
      </trkpt>
      <trkpt lat="42.845373032614589" lon="-2.378443982452154">
        <ele>593.79999999999995</ele>
        <time>2019-06-23T08:46:07Z</time>
      </trkpt>
      <trkpt lat="42.845392981544137" lon="-2.378511037677527">
        <ele>594.20000000000005</ele>
        <time>2019-06-23T08:46:08Z</time>
      </trkpt>
      <trkpt lat="42.845432963222265" lon="-2.378636011853814">
        <ele>594.39999999999998</ele>
        <time>2019-06-23T08:46:10Z</time>
      </trkpt>
      <trkpt lat="42.845477974042296" lon="-2.378770960494876">
        <ele>595</ele>
        <time>2019-06-23T08:46:12Z</time>
      </trkpt>
      <trkpt lat="42.845545029267669" lon="-2.378899035975337">
        <ele>595.20000000000005</ele>
        <time>2019-06-23T08:46:14Z</time>
      </trkpt>
      <trkpt lat="42.845615018159151" lon="-2.37903599627316">
        <ele>595.60000000000002</ele>
        <time>2019-06-23T08:46:16Z</time>
      </trkpt>
      <trkpt lat="42.845653994008899" lon="-2.379107996821404">
        <ele>595.60000000000002</ele>
        <time>2019-06-23T08:46:17Z</time>
      </trkpt>
      <trkpt lat="42.845693975687027" lon="-2.379178991541266">
        <ele>595.60000000000002</ele>
        <time>2019-06-23T08:46:18Z</time>
      </trkpt>
      <trkpt lat="42.845772011205554" lon="-2.379322992637754">
        <ele>595.79999999999995</ele>
        <time>2019-06-23T08:46:20Z</time>
      </trkpt>
      <trkpt lat="42.845849962905049" lon="-2.379467999562621">
        <ele>595.79999999999995</ele>
        <time>2019-06-23T08:46:22Z</time>
      </trkpt>
      <trkpt lat="42.845929004251957" lon="-2.379610994830728">
        <ele>596</ele>
        <time>2019-06-23T08:46:24Z</time>
      </trkpt>
      <trkpt lat="42.846007039770484" lon="-2.379754995927215">
        <ele>596</ele>
        <time>2019-06-23T08:46:26Z</time>
      </trkpt>
      <trkpt lat="42.846048027276993" lon="-2.379826996475458">
        <ele>596</ele>
        <time>2019-06-23T08:46:27Z</time>
      </trkpt>
      <trkpt lat="42.846089014783502" lon="-2.379898997023702">
        <ele>596</ele>
        <time>2019-06-23T08:46:28Z</time>
      </trkpt>
      <trkpt lat="42.84617300145328" lon="-2.380041992291808">
        <ele>596.20000000000005</ele>
        <time>2019-06-23T08:46:30Z</time>
      </trkpt>
      <trkpt lat="42.846261011436582" lon="-2.380180964246392">
        <ele>596.20000000000005</ele>
        <time>2019-06-23T08:46:32Z</time>
      </trkpt>
      <trkpt lat="42.846350027248263" lon="-2.380318008363247">
        <ele>596.20000000000005</ele>
        <time>2019-06-23T08:46:34Z</time>
      </trkpt>
      <trkpt lat="42.846440970897675" lon="-2.380455974489451">
        <ele>596.39999999999998</ele>
        <time>2019-06-23T08:46:36Z</time>
      </trkpt>
      <trkpt lat="42.846487993374467" lon="-2.380525041371584">
        <ele>596.39999999999998</ele>
        <time>2019-06-23T08:46:37Z</time>
      </trkpt>
      <trkpt lat="42.846535015851259" lon="-2.380594024434686">
        <ele>596.39999999999998</ele>
        <time>2019-06-23T08:46:38Z</time>
      </trkpt>
      <trkpt lat="42.846633000299335" lon="-2.380730984732509">
        <ele>596.20000000000005</ele>
        <time>2019-06-23T08:46:40Z</time>
      </trkpt>
      <trkpt lat="42.846736013889313" lon="-2.380867023020983">
        <ele>596.39999999999998</ele>
        <time>2019-06-23T08:46:42Z</time>
      </trkpt>
      <trkpt lat="42.846841961145401" lon="-2.381003983318806">
        <ele>596.20000000000005</ele>
        <time>2019-06-23T08:46:44Z</time>
      </trkpt>
      <trkpt lat="42.846896024420857" lon="-2.381074978038669">
        <ele>596.20000000000005</ele>
        <time>2019-06-23T08:46:45Z</time>
      </trkpt>
      <trkpt lat="42.846952015534043" lon="-2.381145972758532">
        <ele>596.20000000000005</ele>
        <time>2019-06-23T08:46:46Z</time>
      </trkpt>
      <trkpt lat="42.847069026902318" lon="-2.381289973855019">
        <ele>596</ele>
        <time>2019-06-23T08:46:48Z</time>
      </trkpt>
      <trkpt lat="42.847190983593464" lon="-2.381439004093409">
        <ele>595.79999999999995</ele>
        <time>2019-06-23T08:46:50Z</time>
      </trkpt>
      <trkpt lat="42.847255021333694" lon="-2.381515027955174">
        <ele>595.79999999999995</ele>
        <time>2019-06-23T08:46:51Z</time>
      </trkpt>
      <trkpt lat="42.847320986911654" lon="-2.381589962169528">
        <ele>595.60000000000002</ele>
        <time>2019-06-23T08:46:52Z</time>
      </trkpt>
      <trkpt lat="42.847392987459898" lon="-2.381658023223281">
        <ele>595</ele>
        <time>2019-06-23T08:46:53Z</time>
      </trkpt>
      <trkpt lat="42.847472028806806" lon="-2.381709991022945">
        <ele>595</ele>
        <time>2019-06-23T08:46:54Z</time>
      </trkpt>
      <trkpt lat="42.847557021304965" lon="-2.381732035428286">
        <ele>594.79999999999995</ele>
        <time>2019-06-23T08:46:55Z</time>
      </trkpt>
      <trkpt lat="42.847642013803124" lon="-2.381726000458002">
        <ele>594.79999999999995</ele>
        <time>2019-06-23T08:46:56Z</time>
      </trkpt>
      <trkpt lat="42.847800012677908" lon="-2.381708985194564">
        <ele>594.20000000000005</ele>
        <time>2019-06-23T08:46:58Z</time>
      </trkpt>
      <trkpt lat="42.84795499406755" lon="-2.38176598213613">
        <ele>593.20000000000005</ele>
        <time>2019-06-23T08:47:00Z</time>
      </trkpt>
      <trkpt lat="42.848072005435824" lon="-2.381911994889379">
        <ele>592.60000000000002</ele>
        <time>2019-06-23T08:47:02Z</time>
      </trkpt>
      <trkpt lat="42.848110981285572" lon="-2.382006961852312">
        <ele>592.39999999999998</ele>
        <time>2019-06-23T08:47:03Z</time>
      </trkpt>
      <trkpt lat="42.848140988498926" lon="-2.38210896961391">
        <ele>592.39999999999998</ele>
        <time>2019-06-23T08:47:04Z</time>
      </trkpt>
      <trkpt lat="42.848201002925634" lon="-2.382311979308724">
        <ele>592.39999999999998</ele>
        <time>2019-06-23T08:47:06Z</time>
      </trkpt>
      <trkpt lat="42.848239978775382" lon="-2.382405018433929">
        <ele>592.20000000000005</ele>
        <time>2019-06-23T08:47:07Z</time>
      </trkpt>
      <trkpt lat="42.848290018737316" lon="-2.382483975961804">
        <ele>592.39999999999998</ele>
        <time>2019-06-23T08:47:08Z</time>
      </trkpt>
      <trkpt lat="42.848346009850502" lon="-2.382550025358796">
        <ele>592.39999999999998</ele>
        <time>2019-06-23T08:47:09Z</time>
      </trkpt>
      <trkpt lat="42.84840602427721" lon="-2.382604004815221">
        <ele>592.20000000000005</ele>
        <time>2019-06-23T08:47:10Z</time>
      </trkpt>
      <trkpt lat="42.848526975139976" lon="-2.382699977606535">
        <ele>592.39999999999998</ele>
        <time>2019-06-23T08:47:12Z</time>
      </trkpt>
      <trkpt lat="42.848644992336631" lon="-2.382792010903359">
        <ele>592.39999999999998</ele>
        <time>2019-06-23T08:47:14Z</time>
      </trkpt>
      <trkpt lat="42.848767032846808" lon="-2.38288002088666">
        <ele>592.60000000000002</ele>
        <time>2019-06-23T08:47:16Z</time>
      </trkpt>
      <trkpt lat="42.848886977881193" lon="-2.382969036698341">
        <ele>592.79999999999995</ele>
        <time>2019-06-23T08:47:18Z</time>
      </trkpt>
      <trkpt lat="42.849011030048132" lon="-2.383061992004514">
        <ele>593.79999999999995</ele>
        <time>2019-06-23T08:47:20Z</time>
      </trkpt>
      <trkpt lat="42.849132986739278" lon="-2.383159976452589">
        <ele>594.39999999999998</ele>
        <time>2019-06-23T08:47:22Z</time>
      </trkpt>
      <trkpt lat="42.849257960915565" lon="-2.383260978385806">
        <ele>594.79999999999995</ele>
        <time>2019-06-23T08:47:24Z</time>
      </trkpt>
      <trkpt lat="42.849383018910885" lon="-2.383370026946068">
        <ele>595.39999999999998</ele>
        <time>2019-06-23T08:47:26Z</time>
      </trkpt>
      <trkpt lat="42.849504975602031" lon="-2.383490977808833">
        <ele>595.79999999999995</ele>
        <time>2019-06-23T08:47:28Z</time>
      </trkpt>
      <trkpt lat="42.84956599585712" lon="-2.383557027205825">
        <ele>596</ele>
        <time>2019-06-23T08:47:29Z</time>
      </trkpt>
      <trkpt lat="42.849626010283828" lon="-2.383627016097307">
        <ele>596</ele>
        <time>2019-06-23T08:47:30Z</time>
      </trkpt>
      <trkpt lat="42.849746039137244" lon="-2.383776968345046">
        <ele>596</ele>
        <time>2019-06-23T08:47:32Z</time>
      </trkpt>
      <trkpt lat="42.849856009706855" lon="-2.383951982483268">
        <ele>596</ele>
        <time>2019-06-23T08:47:34Z</time>
      </trkpt>
      <trkpt lat="42.849907977506518" lon="-2.384046027436853">
        <ele>596</ele>
        <time>2019-06-23T08:47:35Z</time>
      </trkpt>
      <trkpt lat="42.849958017468452" lon="-2.38414803519845">
        <ele>596</ele>
        <time>2019-06-23T08:47:36Z</time>
      </trkpt>
      <trkpt lat="42.850042004138231" lon="-2.384377028793097">
        <ele>596</ele>
        <time>2019-06-23T08:47:38Z</time>
      </trkpt>
      <trkpt lat="42.850077962502837" lon="-2.384502002969384">
        <ele>595.79999999999995</ele>
        <time>2019-06-23T08:47:39Z</time>
      </trkpt>
      <trkpt lat="42.850107969716191" lon="-2.384634017944336">
        <ele>595.60000000000002</ele>
        <time>2019-06-23T08:47:40Z</time>
      </trkpt>
      <trkpt lat="42.850131019949913" lon="-2.38477298989892">
        <ele>595</ele>
        <time>2019-06-23T08:47:41Z</time>
      </trkpt>
      <trkpt lat="42.850147029384971" lon="-2.384915985167027">
        <ele>594.79999999999995</ele>
        <time>2019-06-23T08:47:42Z</time>
      </trkpt>
      <trkpt lat="42.850153986364603" lon="-2.385212033987045">
        <ele>593.79999999999995</ele>
        <time>2019-06-23T08:47:44Z</time>
      </trkpt>
      <trkpt lat="42.85012498497963" lon="-2.385505987331271">
        <ele>592.79999999999995</ele>
        <time>2019-06-23T08:47:46Z</time>
      </trkpt>
      <trkpt lat="42.850068993866444" lon="-2.38578200340271">
        <ele>592.20000000000005</ele>
        <time>2019-06-23T08:47:48Z</time>
      </trkpt>
      <trkpt lat="42.850000010803342" lon="-2.386033041402698">
        <ele>591.20000000000005</ele>
        <time>2019-06-23T08:47:50Z</time>
      </trkpt>
      <trkpt lat="42.849925998598337" lon="-2.386258011683822">
        <ele>590.20000000000005</ele>
        <time>2019-06-23T08:47:52Z</time>
      </trkpt>
      <trkpt lat="42.849858021363616" lon="-2.386464038863778">
        <ele>589.79999999999995</ele>
        <time>2019-06-23T08:47:54Z</time>
      </trkpt>
      <trkpt lat="42.849827008321881" lon="-2.386561017483473">
        <ele>589.60000000000002</ele>
        <time>2019-06-23T08:47:55Z</time>
      </trkpt>
      <trkpt lat="42.849795995280147" lon="-2.386653972789645">
        <ele>589.60000000000002</ele>
        <time>2019-06-23T08:47:56Z</time>
      </trkpt>
      <trkpt lat="42.84973899833858" lon="-2.386830998584628">
        <ele>589.60000000000002</ele>
        <time>2019-06-23T08:47:58Z</time>
      </trkpt>
      <trkpt lat="42.849687030538917" lon="-2.386993020772934">
        <ele>589.60000000000002</ele>
        <time>2019-06-23T08:48:00Z</time>
      </trkpt>
      <trkpt lat="42.849665991961956" lon="-2.387068960815668">
        <ele>589.60000000000002</ele>
        <time>2019-06-23T08:48:01Z</time>
      </trkpt>
      <trkpt lat="42.849654005840421" lon="-2.387139033526182">
        <ele>589.60000000000002</ele>
        <time>2019-06-23T08:48:02Z</time>
      </trkpt>
      <trkpt lat="42.849649982526898" lon="-2.387201981619">
        <ele>590.20000000000005</ele>
        <time>2019-06-23T08:48:03Z</time>
      </trkpt>
      <trkpt lat="42.849650988355279" lon="-2.387271970510483">
        <ele>590.60000000000002</ele>
        <time>2019-06-23T08:48:04Z</time>
      </trkpt>
      <trkpt lat="42.849641013890505" lon="-2.387342965230346">
        <ele>590.60000000000002</ele>
        <time>2019-06-23T08:48:05Z</time>
      </trkpt>
      <trkpt lat="42.849617041647434" lon="-2.387412032112479">
        <ele>591</ele>
        <time>2019-06-23T08:48:06Z</time>
      </trkpt>
      <trkpt lat="42.849559960886836" lon="-2.38754304125905">
        <ele>591.79999999999995</ele>
        <time>2019-06-23T08:48:08Z</time>
      </trkpt>
      <trkpt lat="42.849536994472146" lon="-2.387616969645023">
        <ele>592.39999999999998</ele>
        <time>2019-06-23T08:48:09Z</time>
      </trkpt>
      <trkpt lat="42.849518973380327" lon="-2.38769399933517">
        <ele>592.60000000000002</ele>
        <time>2019-06-23T08:48:10Z</time>
      </trkpt>
      <trkpt lat="42.849486032500863" lon="-2.38784696906805">
        <ele>593.20000000000005</ele>
        <time>2019-06-23T08:48:12Z</time>
      </trkpt>
      <trkpt lat="42.84945803694427" lon="-2.38801502622664">
        <ele>593.39999999999998</ele>
        <time>2019-06-23T08:48:14Z</time>
      </trkpt>
      <trkpt lat="42.849429035559297" lon="-2.3881880287081">
        <ele>593.60000000000002</ele>
        <time>2019-06-23T08:48:16Z</time>
      </trkpt>
      <trkpt lat="42.849401040002704" lon="-2.388358013704419">
        <ele>593.60000000000002</ele>
        <time>2019-06-23T08:48:18Z</time>
      </trkpt>
      <trkpt lat="42.849375978112221" lon="-2.388530010357499">
        <ele>593.39999999999998</ele>
        <time>2019-06-23T08:48:20Z</time>
      </trkpt>
      <trkpt lat="42.849358040839434" lon="-2.38870301283896">
        <ele>593.39999999999998</ele>
        <time>2019-06-23T08:48:22Z</time>
      </trkpt>
      <trkpt lat="42.849345970898867" lon="-2.388882972300053">
        <ele>593.39999999999998</ele>
        <time>2019-06-23T08:48:24Z</time>
      </trkpt>
      <trkpt lat="42.849337002262473" lon="-2.389079025015235">
        <ele>593.39999999999998</ele>
        <time>2019-06-23T08:48:26Z</time>
      </trkpt>
      <trkpt lat="42.84932803362608" lon="-2.389185978099704">
        <ele>593.20000000000005</ele>
        <time>2019-06-23T08:48:27Z</time>
      </trkpt>
      <trkpt lat="42.849315041676164" lon="-2.389287985861301">
        <ele>593.20000000000005</ele>
        <time>2019-06-23T08:48:28Z</time>
      </trkpt>
      <trkpt lat="42.849304983392358" lon="-2.389395022764802">
        <ele>593</ele>
        <time>2019-06-23T08:48:29Z</time>
      </trkpt>
      <trkpt lat="42.849295008927584" lon="-2.389508010819554">
        <ele>593</ele>
        <time>2019-06-23T08:48:30Z</time>
      </trkpt>
      <trkpt lat="42.849275982007384" lon="-2.389751002192497">
        <ele>592.60000000000002</ele>
        <time>2019-06-23T08:48:32Z</time>
      </trkpt>
      <trkpt lat="42.849255027249455" lon="-2.390002962201834">
        <ele>592.39999999999998</ele>
        <time>2019-06-23T08:48:34Z</time>
      </trkpt>
      <trkpt lat="42.849234994500875" lon="-2.390261041000485">
        <ele>592</ele>
        <time>2019-06-23T08:48:36Z</time>
      </trkpt>
      <trkpt lat="42.849224014207721" lon="-2.390390960499644">
        <ele>591.39999999999998</ele>
        <time>2019-06-23T08:48:37Z</time>
      </trkpt>
      <trkpt lat="42.849213033914566" lon="-2.390520963817835">
        <ele>591</ele>
        <time>2019-06-23T08:48:38Z</time>
      </trkpt>
      <trkpt lat="42.849189983680844" lon="-2.390778036788106">
        <ele>591</ele>
        <time>2019-06-23T08:48:40Z</time>
      </trkpt>
      <trkpt lat="42.849169028922915" lon="-2.391033014282584">
        <ele>590</ele>
        <time>2019-06-23T08:48:42Z</time>
      </trkpt>
      <trkpt lat="42.849147990345955" lon="-2.391282040625811">
        <ele>589.20000000000005</ele>
        <time>2019-06-23T08:48:44Z</time>
      </trkpt>
      <trkpt lat="42.849138015881181" lon="-2.391403997316957">
        <ele>588.79999999999995</ele>
        <time>2019-06-23T08:48:45Z</time>
      </trkpt>
      <trkpt lat="42.849128963425756" lon="-2.391524026170373">
        <ele>588.20000000000005</ele>
        <time>2019-06-23T08:48:46Z</time>
      </trkpt>
      <trkpt lat="42.84911697730422" lon="-2.391640031710267">
        <ele>588</ele>
        <time>2019-06-23T08:48:47Z</time>
      </trkpt>
      <trkpt lat="42.849103985354304" lon="-2.391755031421781">
        <ele>587.79999999999995</ele>
        <time>2019-06-23T08:48:48Z</time>
      </trkpt>
      <trkpt lat="42.849085964262486" lon="-2.391976984217763">
        <ele>587.39999999999998</ele>
        <time>2019-06-23T08:48:50Z</time>
      </trkpt>
      <trkpt lat="42.84907003864646" lon="-2.392192985862494">
        <ele>587.39999999999998</ele>
        <time>2019-06-23T08:48:52Z</time>
      </trkpt>
      <trkpt lat="42.849053023383021" lon="-2.392401024699211">
        <ele>587.39999999999998</ele>
        <time>2019-06-23T08:48:54Z</time>
      </trkpt>
      <trkpt lat="42.849044976755977" lon="-2.392500014975667">
        <ele>587.39999999999998</ele>
        <time>2019-06-23T08:48:55Z</time>
      </trkpt>
      <trkpt lat="42.849035002291203" lon="-2.392590036615729">
        <ele>587.39999999999998</ele>
        <time>2019-06-23T08:48:56Z</time>
      </trkpt>
      <trkpt lat="42.849025027826428" lon="-2.392726996913552">
        <ele>587.60000000000002</ele>
        <time>2019-06-23T08:48:58Z</time>
      </trkpt>
      <trkpt lat="42.849019998684525" lon="-2.392817018553615">
        <ele>587.60000000000002</ele>
        <time>2019-06-23T08:49:00Z</time>
      </trkpt>
      <trkpt lat="42.849003989249468" lon="-2.392849959433079">
        <ele>587.60000000000002</ele>
        <time>2019-06-23T08:49:01Z</time>
      </trkpt>
      <trkpt lat="42.848976999521255" lon="-2.39287200383842">
        <ele>587.60000000000002</ele>
        <time>2019-06-23T08:49:02Z</time>
      </trkpt>
      <trkpt lat="42.84894498065114" lon="-2.392878038808703">
        <ele>587.79999999999995</ele>
        <time>2019-06-23T08:49:03Z</time>
      </trkpt>
      <trkpt lat="42.848908016458154" lon="-2.39287200383842">
        <ele>587.79999999999995</ele>
        <time>2019-06-23T08:49:04Z</time>
      </trkpt>
      <trkpt lat="42.848867028951645" lon="-2.392864963039756">
        <ele>587.79999999999995</ele>
        <time>2019-06-23T08:49:05Z</time>
      </trkpt>
      <trkpt lat="42.848824029788375" lon="-2.392860017716885">
        <ele>587.79999999999995</ele>
        <time>2019-06-23T08:49:06Z</time>
      </trkpt>
      <trkpt lat="42.848727973178029" lon="-2.392848031595349">
        <ele>588</ele>
        <time>2019-06-23T08:49:08Z</time>
      </trkpt>
      <trkpt lat="42.848624959588051" lon="-2.392834033817053">
        <ele>587.60000000000002</ele>
        <time>2019-06-23T08:49:10Z</time>
      </trkpt>
      <trkpt lat="42.848522029817104" lon="-2.392816012725234">
        <ele>587.79999999999995</ele>
        <time>2019-06-23T08:49:12Z</time>
      </trkpt>
      <trkpt lat="42.848469978198409" lon="-2.392810983583331">
        <ele>588</ele>
        <time>2019-06-23T08:49:13Z</time>
      </trkpt>
      <trkpt lat="42.848419016227126" lon="-2.392801009118557">
        <ele>587.79999999999995</ele>
        <time>2019-06-23T08:49:14Z</time>
      </trkpt>
      <trkpt lat="42.848311979323626" lon="-2.392778964713216">
        <ele>588</ele>
        <time>2019-06-23T08:49:16Z</time>
      </trkpt>
      <trkpt lat="42.848257999867201" lon="-2.392766978591681">
        <ele>587.79999999999995</ele>
        <time>2019-06-23T08:49:17Z</time>
      </trkpt>
      <trkpt lat="42.848207959905267" lon="-2.392753986641765">
        <ele>588</ele>
        <time>2019-06-23T08:49:18Z</time>
      </trkpt>
      <trkpt lat="42.848162027075887" lon="-2.392748035490513">
        <ele>588</ele>
        <time>2019-06-23T08:49:19Z</time>
      </trkpt>
      <trkpt lat="42.848117016255856" lon="-2.392737977206707">
        <ele>587.79999999999995</ele>
        <time>2019-06-23T08:49:20Z</time>
      </trkpt>
      <trkpt lat="42.848039986565709" lon="-2.392772007733584">
        <ele>588</ele>
        <time>2019-06-23T08:49:22Z</time>
      </trkpt>
      <trkpt lat="42.848030012100935" lon="-2.392818024381995">
        <ele>588</ele>
        <time>2019-06-23T08:49:23Z</time>
      </trkpt>
      <trkpt lat="42.848026994615793" lon="-2.392864041030407">
        <ele>588.20000000000005</ele>
        <time>2019-06-23T08:49:24Z</time>
      </trkpt>
      <trkpt lat="42.84801903180778" lon="-2.392968982458115">
        <ele>588.79999999999995</ele>
        <time>2019-06-23T08:49:26Z</time>
      </trkpt>
      <trkpt lat="42.848003022372723" lon="-2.393089011311531">
        <ele>589.20000000000005</ele>
        <time>2019-06-23T08:49:28Z</time>
      </trkpt>
      <trkpt lat="42.847995981574059" lon="-2.393153971061111">
        <ele>589.20000000000005</ele>
        <time>2019-06-23T08:49:29Z</time>
      </trkpt>
      <trkpt lat="42.847988018766046" lon="-2.393222032114863">
        <ele>589.20000000000005</ele>
        <time>2019-06-23T08:49:30Z</time>
      </trkpt>
      <trkpt lat="42.847967986017466" lon="-2.39336502738297">
        <ele>589.39999999999998</ele>
        <time>2019-06-23T08:49:32Z</time>
      </trkpt>
      <trkpt lat="42.847942002117634" lon="-2.393511962145567">
        <ele>589.39999999999998</ele>
        <time>2019-06-23T08:49:34Z</time>
      </trkpt>
      <trkpt lat="42.847916018217802" lon="-2.393655041232705">
        <ele>589.39999999999998</ele>
        <time>2019-06-23T08:49:36Z</time>
      </trkpt>
      <trkpt lat="42.84788902848959" lon="-2.393804993480444">
        <ele>589.39999999999998</ele>
        <time>2019-06-23T08:49:38Z</time>
      </trkpt>
      <trkpt lat="42.847858015447855" lon="-2.393957963213325">
        <ele>589.39999999999998</ele>
        <time>2019-06-23T08:49:40Z</time>
      </trkpt>
      <trkpt lat="42.847842006012797" lon="-2.394037004560232">
        <ele>589.20000000000005</ele>
        <time>2019-06-23T08:49:41Z</time>
      </trkpt>
      <trkpt lat="42.847824990749359" lon="-2.394117973744869">
        <ele>589.39999999999998</ele>
        <time>2019-06-23T08:49:42Z</time>
      </trkpt>
      <trkpt lat="42.84780696965754" lon="-2.394191985949874">
        <ele>589.39999999999998</ele>
        <time>2019-06-23T08:49:43Z</time>
      </trkpt>
      <trkpt lat="42.847791966050863" lon="-2.394259963184595">
        <ele>589.20000000000005</ele>
        <time>2019-06-23T08:49:44Z</time>
      </trkpt>
      <trkpt lat="42.847777968272567" lon="-2.394325006753206">
        <ele>589</ele>
        <time>2019-06-23T08:49:45Z</time>
      </trkpt>
      <trkpt lat="42.847761958837509" lon="-2.394379992038012">
        <ele>589.20000000000005</ele>
        <time>2019-06-23T08:49:46Z</time>
      </trkpt>
      <trkpt lat="42.8477399982512" lon="-2.39441997371614">
        <ele>589</ele>
        <time>2019-06-23T08:49:47Z</time>
      </trkpt>
      <trkpt lat="42.847716026008129" lon="-2.394444029778242">
        <ele>588.79999999999995</ele>
        <time>2019-06-23T08:49:48Z</time>
      </trkpt>
      <trkpt lat="42.847662968561053" lon="-2.394460961222649">
        <ele>588.39999999999998</ele>
        <time>2019-06-23T08:49:50Z</time>
      </trkpt>
      <trkpt lat="42.847638996317983" lon="-2.394469007849693">
        <ele>588.20000000000005</ele>
        <time>2019-06-23T08:49:51Z</time>
      </trkpt>
      <trkpt lat="42.847618041560054" lon="-2.394476970657706">
        <ele>588.20000000000005</ele>
        <time>2019-06-23T08:49:52Z</time>
      </trkpt>
      <trkpt lat="42.847605971619487" lon="-2.394492980092764">
        <ele>588</ele>
        <time>2019-06-23T08:49:53Z</time>
      </trkpt>
      <trkpt lat="42.847600020468235" lon="-2.394507983699441">
        <ele>588</ele>
        <time>2019-06-23T08:49:54Z</time>
      </trkpt>
      <trkpt lat="42.84759197384119" lon="-2.394518963992596">
        <ele>588</ele>
        <time>2019-06-23T08:49:55Z</time>
      </trkpt>
      <trkpt lat="42.847581999376416" lon="-2.394520975649357">
        <ele>588</ele>
        <time>2019-06-23T08:49:56Z</time>
      </trkpt>
      <trkpt lat="42.847573030740023" lon="-2.394514018669725">
        <ele>587.79999999999995</ele>
        <time>2019-06-23T08:49:58Z</time>
      </trkpt>
      <trkpt lat="42.847574036568403" lon="-2.394515024498105">
        <ele>587.79999999999995</ele>
        <time>2019-06-23T08:49:59Z</time>
      </trkpt>
      <trkpt lat="42.847979972139001" lon="-2.395072001963854">
        <ele>592.39999999999998</ele>
        <time>2019-06-23T09:14:08Z</time>
      </trkpt>
      <trkpt lat="42.848177030682564" lon="-2.395153976976872">
        <ele>592.39999999999998</ele>
        <time>2019-06-23T09:14:12Z</time>
      </trkpt>
      <trkpt lat="42.848274009302258" lon="-2.395193958655">
        <ele>592.39999999999998</ele>
        <time>2019-06-23T09:14:14Z</time>
      </trkpt>
      <trkpt lat="42.848322037607431" lon="-2.395211979746819">
        <ele>592.39999999999998</ele>
        <time>2019-06-23T09:14:15Z</time>
      </trkpt>
      <trkpt lat="42.848371993750334" lon="-2.395226983353496">
        <ele>592.39999999999998</ele>
        <time>2019-06-23T09:14:16Z</time>
      </trkpt>
      <trkpt lat="42.848420022055507" lon="-2.395246010273695">
        <ele>592.39999999999998</ele>
        <time>2019-06-23T09:14:17Z</time>
      </trkpt>
      <trkpt lat="42.848469978198409" lon="-2.395265037193894">
        <ele>592.39999999999998</ele>
        <time>2019-06-23T09:14:18Z</time>
      </trkpt>
      <trkpt lat="42.848520018160343" lon="-2.395286997780204">
        <ele>592.39999999999998</ele>
        <time>2019-06-23T09:14:19Z</time>
      </trkpt>
      <trkpt lat="42.848569974303246" lon="-2.395307030528784">
        <ele>592.39999999999998</ele>
        <time>2019-06-23T09:14:20Z</time>
      </trkpt>
      <trkpt lat="42.848656978458166" lon="-2.395353969186544">
        <ele>592.39999999999998</ele>
        <time>2019-06-23T09:14:22Z</time>
      </trkpt>
      <trkpt lat="42.848690003156662" lon="-2.395371990278363">
        <ele>592.20000000000005</ele>
        <time>2019-06-23T09:14:23Z</time>
      </trkpt>
      <trkpt lat="42.848719004541636" lon="-2.39538598805666">
        <ele>592.20000000000005</ele>
        <time>2019-06-23T09:14:24Z</time>
      </trkpt>
      <trkpt lat="42.848768038675189" lon="-2.395452037453651">
        <ele>592.20000000000005</ele>
        <time>2019-06-23T09:14:26Z</time>
      </trkpt>
      <trkpt lat="42.848776001483202" lon="-2.395506016910076">
        <ele>592.39999999999998</ele>
        <time>2019-06-23T09:14:27Z</time>
      </trkpt>
      <trkpt lat="42.848777007311583" lon="-2.395565025508404">
        <ele>592.20000000000005</ele>
        <time>2019-06-23T09:14:28Z</time>
      </trkpt>
      <trkpt lat="42.848768960684538" lon="-2.395697040483356">
        <ele>592.39999999999998</ele>
        <time>2019-06-23T09:14:30Z</time>
      </trkpt>
      <trkpt lat="42.848756974563003" lon="-2.395845986902714">
        <ele>592</ele>
        <time>2019-06-23T09:14:32Z</time>
      </trkpt>
      <trkpt lat="42.848745994269848" lon="-2.395999962463975">
        <ele>591.79999999999995</ele>
        <time>2019-06-23T09:14:34Z</time>
      </trkpt>
      <trkpt lat="42.848735013976693" lon="-2.396158967167139">
        <ele>591.60000000000002</ele>
        <time>2019-06-23T09:14:36Z</time>
      </trkpt>
      <trkpt lat="42.848722022026777" lon="-2.396318977698684">
        <ele>591.60000000000002</ele>
        <time>2019-06-23T09:14:38Z</time>
      </trkpt>
      <trkpt lat="42.848708024248481" lon="-2.396479994058609">
        <ele>591.39999999999998</ele>
        <time>2019-06-23T09:14:40Z</time>
      </trkpt>
      <trkpt lat="42.848695032298565" lon="-2.396640004590154">
        <ele>591.39999999999998</ele>
        <time>2019-06-23T09:14:42Z</time>
      </trkpt>
      <trkpt lat="42.848682962357998" lon="-2.396796997636557">
        <ele>591.39999999999998</ele>
        <time>2019-06-23T09:14:44Z</time>
      </trkpt>
      <trkpt lat="42.848667958751321" lon="-2.396951979026198">
        <ele>591.39999999999998</ele>
        <time>2019-06-23T09:14:46Z</time>
      </trkpt>
      <trkpt lat="42.848653960973024" lon="-2.397108972072601">
        <ele>591.39999999999998</ele>
        <time>2019-06-23T09:14:48Z</time>
      </trkpt>
      <trkpt lat="42.848638035356998" lon="-2.397264959290624">
        <ele>591.39999999999998</ele>
        <time>2019-06-23T09:14:50Z</time>
      </trkpt>
      <trkpt lat="42.848627977073193" lon="-2.397419018670917">
        <ele>591.39999999999998</ele>
        <time>2019-06-23T09:14:52Z</time>
      </trkpt>
      <trkpt lat="42.848622025921941" lon="-2.397494036704302">
        <ele>591.60000000000002</ele>
        <time>2019-06-23T09:14:53Z</time>
      </trkpt>
      <trkpt lat="42.848614985123277" lon="-2.397569976747036">
        <ele>591.60000000000002</ele>
        <time>2019-06-23T09:14:54Z</time>
      </trkpt>
      <trkpt lat="42.8485999815166" lon="-2.397722024470568">
        <ele>591.79999999999995</ele>
        <time>2019-06-23T09:14:56Z</time>
      </trkpt>
      <trkpt lat="42.848585983738303" lon="-2.397874994203448">
        <ele>592</ele>
        <time>2019-06-23T09:14:58Z</time>
      </trkpt>
      <trkpt lat="42.848571985960007" lon="-2.39802896976471">
        <ele>592.20000000000005</ele>
        <time>2019-06-23T09:15:00Z</time>
      </trkpt>
      <trkpt lat="42.848567962646484" lon="-2.398105999454856">
        <ele>592.39999999999998</ele>
        <time>2019-06-23T09:15:01Z</time>
      </trkpt>
      <trkpt lat="42.848581038415432" lon="-2.39817900583148">
        <ele>592.39999999999998</ele>
        <time>2019-06-23T09:15:02Z</time>
      </trkpt>
      <trkpt lat="42.848616996780038" lon="-2.398231979459524">
        <ele>592.39999999999998</ele>
        <time>2019-06-23T09:15:03Z</time>
      </trkpt>
      <trkpt lat="42.848665025085211" lon="-2.398257041350007">
        <ele>592.60000000000002</ele>
        <time>2019-06-23T09:15:04Z</time>
      </trkpt>
      <trkpt lat="42.848715987056494" lon="-2.39826500415802">
        <ele>592.39999999999998</ele>
        <time>2019-06-23T09:15:05Z</time>
      </trkpt>
      <trkpt lat="42.84877197816968" lon="-2.39826500415802">
        <ele>592.60000000000002</ele>
        <time>2019-06-23T09:15:06Z</time>
      </trkpt>
      <trkpt lat="42.848893012851477" lon="-2.398260980844498">
        <ele>592.60000000000002</ele>
        <time>2019-06-23T09:15:08Z</time>
      </trkpt>
      <trkpt lat="42.849017987027764" lon="-2.398256035521627">
        <ele>592.79999999999995</ele>
        <time>2019-06-23T09:15:10Z</time>
      </trkpt>
      <trkpt lat="42.849084036424756" lon="-2.398256035521627">
        <ele>592.60000000000002</ele>
        <time>2019-06-23T09:15:11Z</time>
      </trkpt>
      <trkpt lat="42.849155031144619" lon="-2.398252012208104">
        <ele>592.79999999999995</ele>
        <time>2019-06-23T09:15:12Z</time>
      </trkpt>
      <trkpt lat="42.849302971735597" lon="-2.39824497140944">
        <ele>592.60000000000002</ele>
        <time>2019-06-23T09:15:14Z</time>
      </trkpt>
      <trkpt lat="42.849381007254124" lon="-2.398246983066201">
        <ele>592.79999999999995</ele>
        <time>2019-06-23T09:15:15Z</time>
      </trkpt>
      <trkpt lat="42.849461976438761" lon="-2.398248994722962">
        <ele>592.60000000000002</ele>
        <time>2019-06-23T09:15:16Z</time>
      </trkpt>
      <trkpt lat="42.849628021940589" lon="-2.398248994722962">
        <ele>592.39999999999998</ele>
        <time>2019-06-23T09:15:18Z</time>
      </trkpt>
      <trkpt lat="42.849714020267129" lon="-2.39824203774333">
        <ele>592.20000000000005</ele>
        <time>2019-06-23T09:15:19Z</time>
      </trkpt>
      <trkpt lat="42.84980203025043" lon="-2.398227034136653">
        <ele>592</ele>
        <time>2019-06-23T09:15:20Z</time>
      </trkpt>
      <trkpt lat="42.84997302107513" lon="-2.398151010274887">
        <ele>591</ele>
        <time>2019-06-23T09:15:22Z</time>
      </trkpt>
      <trkpt lat="42.850132025778294" lon="-2.398027963936329">
        <ele>590.39999999999998</ele>
        <time>2019-06-23T09:15:24Z</time>
      </trkpt>
      <trkpt lat="42.850286001339555" lon="-2.397889997810125">
        <ele>589.79999999999995</ele>
        <time>2019-06-23T09:15:26Z</time>
      </trkpt>
      <trkpt lat="42.850363031029701" lon="-2.397822020575404">
        <ele>589.60000000000002</ele>
        <time>2019-06-23T09:15:27Z</time>
      </trkpt>
      <trkpt lat="42.850440982729197" lon="-2.397754965350032">
        <ele>589</ele>
        <time>2019-06-23T09:15:28Z</time>
      </trkpt>
      <trkpt lat="42.850592024624348" lon="-2.39761901088059">
        <ele>588</ele>
        <time>2019-06-23T09:15:30Z</time>
      </trkpt>
      <trkpt lat="42.850738959386945" lon="-2.39749101921916">
        <ele>587.20000000000005</ele>
        <time>2019-06-23T09:15:32Z</time>
      </trkpt>
      <trkpt lat="42.850868962705135" lon="-2.397379036992788">
        <ele>586.79999999999995</ele>
        <time>2019-06-23T09:15:34Z</time>
      </trkpt>
      <trkpt lat="42.850968036800623" lon="-2.397292032837868">
        <ele>586.39999999999998</ele>
        <time>2019-06-23T09:15:36Z</time>
      </trkpt>
      <trkpt lat="42.851035008206964" lon="-2.39723302423954">
        <ele>586.39999999999998</ele>
        <time>2019-06-23T09:15:38Z</time>
      </trkpt>
      <trkpt lat="42.851067027077079" lon="-2.397205028682947">
        <ele>586.20000000000005</ele>
        <time>2019-06-23T09:15:40Z</time>
      </trkpt>
      <trkpt lat="42.851069960743189" lon="-2.397202011197805">
        <ele>586.39999999999998</ele>
        <time>2019-06-23T09:15:41Z</time>
      </trkpt>
      <trkpt lat="42.851069960743189" lon="-2.397202011197805">
        <ele>586.20000000000005</ele>
        <time>2019-06-23T09:15:42Z</time>
      </trkpt>
      <trkpt lat="42.851104997098446" lon="-2.397196982055903">
        <ele>586.60000000000002</ele>
        <time>2019-06-23T09:17:06Z</time>
      </trkpt>
      <trkpt lat="42.851120000705123" lon="-2.397182984277606">
        <ele>586.60000000000002</ele>
        <time>2019-06-23T09:17:07Z</time>
      </trkpt>
      <trkpt lat="42.8511350043118" lon="-2.397164041176438">
        <ele>586.39999999999998</ele>
        <time>2019-06-23T09:17:08Z</time>
      </trkpt>
      <trkpt lat="42.851181020960212" lon="-2.39712598733604">
        <ele>586.39999999999998</ele>
        <time>2019-06-23T09:17:10Z</time>
      </trkpt>
      <trkpt lat="42.85124396905303" lon="-2.397075025364757">
        <ele>586.39999999999998</ele>
        <time>2019-06-23T09:17:12Z</time>
      </trkpt>
      <trkpt lat="42.851315969601274" lon="-2.397012999281287">
        <ele>586.60000000000002</ele>
        <time>2019-06-23T09:17:14Z</time>
      </trkpt>
      <trkpt lat="42.851395010948181" lon="-2.396946027874947">
        <ele>586.39999999999998</ele>
        <time>2019-06-23T09:17:16Z</time>
      </trkpt>
      <trkpt lat="42.851480003446341" lon="-2.396873021498323">
        <ele>586.20000000000005</ele>
        <time>2019-06-23T09:17:18Z</time>
      </trkpt>
      <trkpt lat="42.851525014266372" lon="-2.396833961829543">
        <ele>586.39999999999998</ele>
        <time>2019-06-23T09:17:19Z</time>
      </trkpt>
      <trkpt lat="42.851570025086403" lon="-2.396793980151415">
        <ele>586.39999999999998</ele>
        <time>2019-06-23T09:17:20Z</time>
      </trkpt>
      <trkpt lat="42.851663986220956" lon="-2.396712005138397">
        <ele>586</ele>
        <time>2019-06-23T09:17:22Z</time>
      </trkpt>
      <trkpt lat="42.85175995901227" lon="-2.396626006811857">
        <ele>586</ele>
        <time>2019-06-23T09:17:24Z</time>
      </trkpt>
      <trkpt lat="42.851859033107758" lon="-2.396539002656937">
        <ele>585.79999999999995</ele>
        <time>2019-06-23T09:17:26Z</time>
      </trkpt>
      <trkpt lat="42.851959029212594" lon="-2.396450992673636">
        <ele>585.39999999999998</ele>
        <time>2019-06-23T09:17:28Z</time>
      </trkpt>
      <trkpt lat="42.852008985355496" lon="-2.396406987681985">
        <ele>585.20000000000005</ele>
        <time>2019-06-23T09:17:29Z</time>
      </trkpt>
      <trkpt lat="42.85205902531743" lon="-2.396362982690334">
        <ele>585</ele>
        <time>2019-06-23T09:17:30Z</time>
      </trkpt>
      <trkpt lat="42.852162038907409" lon="-2.396271033212543">
        <ele>585</ele>
        <time>2019-06-23T09:17:32Z</time>
      </trkpt>
      <trkpt lat="42.852264968678355" lon="-2.396182017400861">
        <ele>584.79999999999995</ele>
        <time>2019-06-23T09:17:34Z</time>
      </trkpt>
      <trkpt lat="42.852368988096714" lon="-2.396091995760799">
        <ele>584.79999999999995</ele>
        <time>2019-06-23T09:17:36Z</time>
      </trkpt>
      <trkpt lat="42.852469990029931" lon="-2.395999962463975">
        <ele>584.60000000000002</ele>
        <time>2019-06-23T09:17:38Z</time>
      </trkpt>
      <trkpt lat="42.852570991963148" lon="-2.395907007157803">
        <ele>584.39999999999998</ele>
        <time>2019-06-23T09:17:40Z</time>
      </trkpt>
      <trkpt lat="42.852667970582843" lon="-2.395803993567824">
        <ele>584.20000000000005</ele>
        <time>2019-06-23T09:17:42Z</time>
      </trkpt>
      <trkpt lat="42.852753968909383" lon="-2.395683964714408">
        <ele>584.20000000000005</ele>
        <time>2019-06-23T09:17:44Z</time>
      </trkpt>
      <trkpt lat="42.852820018306375" lon="-2.395543986931443">
        <ele>584.20000000000005</ele>
        <time>2019-06-23T09:17:46Z</time>
      </trkpt>
      <trkpt lat="42.852843990549445" lon="-2.395467963069677">
        <ele>584.20000000000005</ele>
        <time>2019-06-23T09:17:47Z</time>
      </trkpt>
      <trkpt lat="42.852858994156122" lon="-2.39538699388504">
        <ele>584.20000000000005</ele>
        <time>2019-06-23T09:17:48Z</time>
      </trkpt>
      <trkpt lat="42.852852959185839" lon="-2.39521399140358">
        <ele>584.20000000000005</ele>
        <time>2019-06-23T09:17:50Z</time>
      </trkpt>
      <trkpt lat="42.852824041619897" lon="-2.395035037770867">
        <ele>584.20000000000005</ele>
        <time>2019-06-23T09:17:52Z</time>
      </trkpt>
      <trkpt lat="42.852792022749782" lon="-2.394857006147504">
        <ele>584.20000000000005</ele>
        <time>2019-06-23T09:17:54Z</time>
      </trkpt>
      <trkpt lat="42.852761009708047" lon="-2.394680986180902">
        <ele>584</ele>
        <time>2019-06-23T09:17:56Z</time>
      </trkpt>
      <trkpt lat="42.852732008323073" lon="-2.394511001184583">
        <ele>584</ele>
        <time>2019-06-23T09:17:58Z</time>
      </trkpt>
      <trkpt lat="42.852728990837932" lon="-2.394431037828326">
        <ele>583.79999999999995</ele>
        <time>2019-06-23T09:17:59Z</time>
      </trkpt>
      <trkpt lat="42.852743994444609" lon="-2.394364988431335">
        <ele>583.60000000000002</ele>
        <time>2019-06-23T09:18:00Z</time>
      </trkpt>
      <trkpt lat="42.852778024971485" lon="-2.394320983439684">
        <ele>583.39999999999998</ele>
        <time>2019-06-23T09:18:01Z</time>
      </trkpt>
      <trkpt lat="42.852824963629246" lon="-2.394307991489768">
        <ele>583.20000000000005</ele>
        <time>2019-06-23T09:18:02Z</time>
      </trkpt>
      <trkpt lat="42.852878021076322" lon="-2.394322995096445">
        <ele>583.20000000000005</ele>
        <time>2019-06-23T09:18:03Z</time>
      </trkpt>
      <trkpt lat="42.852930994704366" lon="-2.394350990653038">
        <ele>583</ele>
        <time>2019-06-23T09:18:04Z</time>
      </trkpt>
      <trkpt lat="42.852980028837919" lon="-2.394390972331166">
        <ele>583</ele>
        <time>2019-06-23T09:18:05Z</time>
      </trkpt>
      <trkpt lat="42.853029984980822" lon="-2.394434977322817">
        <ele>582.79999999999995</ele>
        <time>2019-06-23T09:18:06Z</time>
      </trkpt>
      <trkpt lat="42.853081030771136" lon="-2.394481999799609">
        <ele>582.79999999999995</ele>
        <time>2019-06-23T09:18:07Z</time>
      </trkpt>
      <trkpt lat="42.8531329985708" lon="-2.394530028104782">
        <ele>583</ele>
        <time>2019-06-23T09:18:08Z</time>
      </trkpt>
      <trkpt lat="42.853238023817539" lon="-2.394630024209619">
        <ele>583</ele>
        <time>2019-06-23T09:18:10Z</time>
      </trkpt>
      <trkpt lat="42.853341959416866" lon="-2.394731026142836">
        <ele>583</ele>
        <time>2019-06-23T09:18:12Z</time>
      </trkpt>
      <trkpt lat="42.853444973006845" lon="-2.394831022247672">
        <ele>583</ele>
        <time>2019-06-23T09:18:14Z</time>
      </trkpt>
      <trkpt lat="42.853496018797159" lon="-2.394877960905433">
        <ele>583</ele>
        <time>2019-06-23T09:18:15Z</time>
      </trkpt>
      <trkpt lat="42.853531977161765" lon="-2.394920038059354">
        <ele>583</ele>
        <time>2019-06-23T09:18:16Z</time>
      </trkpt>
      <trkpt lat="42.853543041273952" lon="-2.394954990595579">
        <ele>583</ele>
        <time>2019-06-23T09:18:17Z</time>
      </trkpt>
      <trkpt lat="42.853531977161765" lon="-2.394967982545495">
        <ele>583.20000000000005</ele>
        <time>2019-06-23T09:18:18Z</time>
      </trkpt>
      <trkpt lat="42.853485038504004" lon="-2.394940992817283">
        <ele>583.60000000000002</ele>
        <time>2019-06-23T09:18:20Z</time>
      </trkpt>
      <trkpt lat="42.85341496579349" lon="-2.394888019189239">
        <ele>583.60000000000002</ele>
        <time>2019-06-23T09:18:22Z</time>
      </trkpt>
      <trkpt lat="42.853321004658937" lon="-2.394810989499092">
        <ele>583.60000000000002</ele>
        <time>2019-06-23T09:18:24Z</time>
      </trkpt>
      <trkpt lat="42.853271970525384" lon="-2.394766984507442">
        <ele>583.79999999999995</ele>
        <time>2019-06-23T09:18:25Z</time>
      </trkpt>
      <trkpt lat="42.853222014382482" lon="-2.394719962030649">
        <ele>583.79999999999995</ele>
        <time>2019-06-23T09:18:26Z</time>
      </trkpt>
      <trkpt lat="42.853169962763786" lon="-2.394672017544508">
        <ele>583.60000000000002</ele>
        <time>2019-06-23T09:18:27Z</time>
      </trkpt>
      <trkpt lat="42.853119000792503" lon="-2.394622983410955">
        <ele>583.60000000000002</ele>
        <time>2019-06-23T09:18:28Z</time>
      </trkpt>
      <trkpt lat="42.853015987202525" lon="-2.394530028104782">
        <ele>583.79999999999995</ele>
        <time>2019-06-23T09:18:30Z</time>
      </trkpt>
      <trkpt lat="42.852910961955786" lon="-2.394443023949862">
        <ele>583.60000000000002</ele>
        <time>2019-06-23T09:18:32Z</time>
      </trkpt>
      <trkpt lat="42.852806020528078" lon="-2.394348978996277">
        <ele>583.20000000000005</ele>
        <time>2019-06-23T09:18:34Z</time>
      </trkpt>
      <trkpt lat="42.852760003879666" lon="-2.39429198205471">
        <ele>583</ele>
        <time>2019-06-23T09:18:35Z</time>
      </trkpt>
      <trkpt lat="42.852719016373158" lon="-2.39422501064837">
        <ele>582.79999999999995</ele>
        <time>2019-06-23T09:18:36Z</time>
      </trkpt>
      <trkpt lat="42.852684985846281" lon="-2.394150998443365">
        <ele>582.60000000000002</ele>
        <time>2019-06-23T09:18:37Z</time>
      </trkpt>
      <trkpt lat="42.852657996118069" lon="-2.394072962924838">
        <ele>582.60000000000002</ele>
        <time>2019-06-23T09:18:38Z</time>
      </trkpt>
      <trkpt lat="42.852638969197869" lon="-2.39399098791182">
        <ele>582.39999999999998</ele>
        <time>2019-06-23T09:18:39Z</time>
      </trkpt>
      <trkpt lat="42.852631006389856" lon="-2.393905995413661">
        <ele>582.20000000000005</ele>
        <time>2019-06-23T09:18:40Z</time>
      </trkpt>
      <trkpt lat="42.852634023874998" lon="-2.393735004588962">
        <ele>582.20000000000005</ele>
        <time>2019-06-23T09:18:42Z</time>
      </trkpt>
      <trkpt lat="42.85263704136014" lon="-2.393649006262422">
        <ele>582.20000000000005</ele>
        <time>2019-06-23T09:18:43Z</time>
      </trkpt>
      <trkpt lat="42.85264098085463" lon="-2.393564013764262">
        <ele>582.20000000000005</ele>
        <time>2019-06-23T09:18:44Z</time>
      </trkpt>
      <trkpt lat="42.852652966976166" lon="-2.393395034596324">
        <ele>582.20000000000005</ele>
        <time>2019-06-23T09:18:46Z</time>
      </trkpt>
      <trkpt lat="42.852667970582843" lon="-2.393231000751257">
        <ele>582.20000000000005</ele>
        <time>2019-06-23T09:18:48Z</time>
      </trkpt>
      <trkpt lat="42.852675011381507" lon="-2.393151037395001">
        <ele>582.20000000000005</ele>
        <time>2019-06-23T09:18:49Z</time>
      </trkpt>
      <trkpt lat="42.852680962532759" lon="-2.393075013533235">
        <ele>582.20000000000005</ele>
        <time>2019-06-23T09:18:50Z</time>
      </trkpt>
      <trkpt lat="42.852689009159803" lon="-2.393002007156611">
        <ele>582.20000000000005</ele>
        <time>2019-06-23T09:18:51Z</time>
      </trkpt>
      <trkpt lat="42.852695966139436" lon="-2.392931012436748">
        <ele>582.20000000000005</ele>
        <time>2019-06-23T09:18:52Z</time>
      </trkpt>
      <trkpt lat="42.852708036080003" lon="-2.392792962491512">
        <ele>582.39999999999998</ele>
        <time>2019-06-23T09:18:54Z</time>
      </trkpt>
      <trkpt lat="42.852717004716396" lon="-2.392654996365309">
        <ele>582.60000000000002</ele>
        <time>2019-06-23T09:18:56Z</time>
      </trkpt>
      <trkpt lat="42.852728990837932" lon="-2.392516024410725">
        <ele>583.20000000000005</ele>
        <time>2019-06-23T09:18:58Z</time>
      </trkpt>
      <trkpt lat="42.852740976959467" lon="-2.392376968637109">
        <ele>584.20000000000005</ele>
        <time>2019-06-23T09:19:00Z</time>
      </trkpt>
      <trkpt lat="42.852752963081002" lon="-2.392232967540622">
        <ele>585.39999999999998</ele>
        <time>2019-06-23T09:19:02Z</time>
      </trkpt>
      <trkpt lat="42.852767966687679" lon="-2.392087960615754">
        <ele>585.60000000000002</ele>
        <time>2019-06-23T09:19:04Z</time>
      </trkpt>
      <trkpt lat="42.852780036628246" lon="-2.391940020024777">
        <ele>585.79999999999995</ele>
        <time>2019-06-23T09:19:06Z</time>
      </trkpt>
      <trkpt lat="42.852784981951118" lon="-2.391863996163011">
        <ele>586</ele>
        <time>2019-06-23T09:19:07Z</time>
      </trkpt>
      <trkpt lat="42.85278900526464" lon="-2.391790989786387">
        <ele>586</ele>
        <time>2019-06-23T09:19:08Z</time>
      </trkpt>
      <trkpt lat="42.852796968072653" lon="-2.391645982861519">
        <ele>586.20000000000005</ele>
        <time>2019-06-23T09:19:10Z</time>
      </trkpt>
      <trkpt lat="42.85281197167933" lon="-2.391504999250174">
        <ele>586.39999999999998</ele>
        <time>2019-06-23T09:19:12Z</time>
      </trkpt>
      <trkpt lat="42.852817000821233" lon="-2.391373990103602">
        <ele>586.60000000000002</ele>
        <time>2019-06-23T09:19:14Z</time>
      </trkpt>
      <trkpt lat="42.852820018306375" lon="-2.391313975676894">
        <ele>586.60000000000002</ele>
        <time>2019-06-23T09:19:15Z</time>
      </trkpt>
      <trkpt lat="42.852824041619897" lon="-2.391255972906947">
        <ele>586.79999999999995</ele>
        <time>2019-06-23T09:19:16Z</time>
      </trkpt>
      <trkpt lat="42.852835021913052" lon="-2.391140973195434">
        <ele>587</ele>
        <time>2019-06-23T09:19:18Z</time>
      </trkpt>
      <trkpt lat="42.852843990549445" lon="-2.391026979312301">
        <ele>587.20000000000005</ele>
        <time>2019-06-23T09:19:20Z</time>
      </trkpt>
      <trkpt lat="42.852841978892684" lon="-2.39091600291431">
        <ele>587.39999999999998</ele>
        <time>2019-06-23T09:19:22Z</time>
      </trkpt>
      <trkpt lat="42.852852959185839" lon="-2.390818018466234">
        <ele>588.39999999999998</ele>
        <time>2019-06-23T09:19:24Z</time>
      </trkpt>
      <trkpt lat="42.852901993319392" lon="-2.390752974897623">
        <ele>589.39999999999998</ele>
        <time>2019-06-23T09:19:26Z</time>
      </trkpt>
      <trkpt lat="42.852966031059623" lon="-2.390734031796455">
        <ele>590</ele>
        <time>2019-06-23T09:19:28Z</time>
      </trkpt>
      <trkpt lat="42.853008024394512" lon="-2.390739982947707">
        <ele>590.39999999999998</ele>
        <time>2019-06-23T09:19:29Z</time>
      </trkpt>
      <trkpt lat="42.853051023557782" lon="-2.390750041231513">
        <ele>591.20000000000005</ele>
        <time>2019-06-23T09:19:30Z</time>
      </trkpt>
      <trkpt lat="42.853095028549433" lon="-2.390760015696287">
        <ele>591.79999999999995</ele>
        <time>2019-06-23T09:19:31Z</time>
      </trkpt>
      <trkpt lat="42.853144984692335" lon="-2.390768984332681">
        <ele>592.39999999999998</ele>
        <time>2019-06-23T09:19:32Z</time>
      </trkpt>
      <trkpt lat="42.853255039080977" lon="-2.390793040394783">
        <ele>592.79999999999995</ele>
        <time>2019-06-23T09:19:34Z</time>
      </trkpt>
      <trkpt lat="42.853313041850924" lon="-2.390804020687938">
        <ele>592.79999999999995</ele>
        <time>2019-06-23T09:19:35Z</time>
      </trkpt>
      <trkpt lat="42.85337096080184" lon="-2.390811983495951">
        <ele>593</ele>
        <time>2019-06-23T09:19:36Z</time>
      </trkpt>
      <trkpt lat="42.853495012968779" lon="-2.390816006809473">
        <ele>593</ele>
        <time>2019-06-23T09:19:38Z</time>
      </trkpt>
      <trkpt lat="42.853625016286969" lon="-2.390797985717654">
        <ele>593</ele>
        <time>2019-06-23T09:19:40Z</time>
      </trkpt>
      <trkpt lat="42.853690981864929" lon="-2.390778036788106">
        <ele>592.79999999999995</ele>
        <time>2019-06-23T09:19:41Z</time>
      </trkpt>
      <trkpt lat="42.85375895909965" lon="-2.390754986554384">
        <ele>593</ele>
        <time>2019-06-23T09:19:42Z</time>
      </trkpt>
      <trkpt lat="42.853893991559744" lon="-2.390708969905973">
        <ele>592.79999999999995</ele>
        <time>2019-06-23T09:19:44Z</time>
      </trkpt>
      <trkpt lat="42.854029024019837" lon="-2.390649039298296">
        <ele>592.60000000000002</ele>
        <time>2019-06-23T09:19:46Z</time>
      </trkpt>
      <trkpt lat="42.854173025116324" lon="-2.390577960759401">
        <ele>592.39999999999998</ele>
        <time>2019-06-23T09:19:48Z</time>
      </trkpt>
      <trkpt lat="42.854241002351046" lon="-2.390542002394795">
        <ele>592.39999999999998</ele>
        <time>2019-06-23T09:19:49Z</time>
      </trkpt>
      <trkpt lat="42.854306967929006" lon="-2.390497997403145">
        <ele>592.20000000000005</ele>
        <time>2019-06-23T09:19:50Z</time>
      </trkpt>
      <trkpt lat="42.854438982903957" lon="-2.390381991863251">
        <ele>591.79999999999995</ele>
        <time>2019-06-23T09:19:52Z</time>
      </trkpt>
      <trkpt lat="42.854495979845524" lon="-2.390317032113671">
        <ele>591.60000000000002</ele>
        <time>2019-06-23T09:19:53Z</time>
      </trkpt>
      <trkpt lat="42.854549959301949" lon="-2.390247965231538">
        <ele>591.79999999999995</ele>
        <time>2019-06-23T09:19:54Z</time>
      </trkpt>
      <trkpt lat="42.854656996205449" lon="-2.390104969963431">
        <ele>591.39999999999998</ele>
        <time>2019-06-23T09:19:56Z</time>
      </trkpt>
      <trkpt lat="42.854710975661874" lon="-2.390027018263936">
        <ele>591</ele>
        <time>2019-06-23T09:19:57Z</time>
      </trkpt>
      <trkpt lat="42.85476503893733" lon="-2.389940014109016">
        <ele>590.79999999999995</ele>
        <time>2019-06-23T09:19:58Z</time>
      </trkpt>
      <trkpt lat="42.854813989251852" lon="-2.389844041317701">
        <ele>590.79999999999995</ele>
        <time>2019-06-23T09:19:59Z</time>
      </trkpt>
      <trkpt lat="42.854856988415122" lon="-2.389745973050594">
        <ele>590.39999999999998</ele>
        <time>2019-06-23T09:20:00Z</time>
      </trkpt>
      <trkpt lat="42.854905016720295" lon="-2.389656035229564">
        <ele>590</ele>
        <time>2019-06-23T09:20:01Z</time>
      </trkpt>
      <trkpt lat="42.854963019490242" lon="-2.389577999711037">
        <ele>589.79999999999995</ele>
        <time>2019-06-23T09:20:02Z</time>
      </trkpt>
      <trkpt lat="42.855027979239821" lon="-2.389513961970806">
        <ele>589</ele>
        <time>2019-06-23T09:20:03Z</time>
      </trkpt>
      <trkpt lat="42.855097968131304" lon="-2.389459982514381">
        <ele>588.79999999999995</ele>
        <time>2019-06-23T09:20:04Z</time>
      </trkpt>
      <trkpt lat="42.855248004198074" lon="-2.389352023601532">
        <ele>588.20000000000005</ele>
        <time>2019-06-23T09:20:06Z</time>
      </trkpt>
      <trkpt lat="42.855399968102574" lon="-2.389221014454961">
        <ele>586.79999999999995</ele>
        <time>2019-06-23T09:20:08Z</time>
      </trkpt>
      <trkpt lat="42.855545980855823" lon="-2.389080030843616">
        <ele>585.39999999999998</ele>
        <time>2019-06-23T09:20:10Z</time>
      </trkpt>
      <trkpt lat="42.855684030801058" lon="-2.388949021697044">
        <ele>584</ele>
        <time>2019-06-23T09:20:12Z</time>
      </trkpt>
      <trkpt lat="42.855749996379018" lon="-2.388885989785194">
        <ele>583.39999999999998</ele>
        <time>2019-06-23T09:20:13Z</time>
      </trkpt>
      <trkpt lat="42.855815961956978" lon="-2.388823963701725">
        <ele>583</ele>
        <time>2019-06-23T09:20:14Z</time>
      </trkpt>
      <trkpt lat="42.855944959446788" lon="-2.388699995353818">
        <ele>582.60000000000002</ele>
        <time>2019-06-23T09:20:16Z</time>
      </trkpt>
      <trkpt lat="42.856008997187018" lon="-2.38864098675549">
        <ele>582.60000000000002</ele>
        <time>2019-06-23T09:20:17Z</time>
      </trkpt>
      <trkpt lat="42.856072029098868" lon="-2.388581978157163">
        <ele>582.39999999999998</ele>
        <time>2019-06-23T09:20:18Z</time>
      </trkpt>
      <trkpt lat="42.856197003275156" lon="-2.38846798427403">
        <ele>582.39999999999998</ele>
        <time>2019-06-23T09:20:20Z</time>
      </trkpt>
      <trkpt lat="42.856318959966302" lon="-2.388353990390897">
        <ele>582.39999999999998</ele>
        <time>2019-06-23T09:20:22Z</time>
      </trkpt>
      <trkpt lat="42.85644200630486" lon="-2.388241002336144">
        <ele>582.60000000000002</ele>
        <time>2019-06-23T09:20:24Z</time>
      </trkpt>
      <trkpt lat="42.856558011844754" lon="-2.388133965432644">
        <ele>582.39999999999998</ele>
        <time>2019-06-23T09:20:26Z</time>
      </trkpt>
      <trkpt lat="42.856667982414365" lon="-2.388032963499427">
        <ele>582.60000000000002</ele>
        <time>2019-06-23T09:20:28Z</time>
      </trkpt>
      <trkpt lat="42.856776025146246" lon="-2.387935984879732">
        <ele>582.79999999999995</ele>
        <time>2019-06-23T09:20:30Z</time>
      </trkpt>
      <trkpt lat="42.856881972402334" lon="-2.387842023745179">
        <ele>583</ele>
        <time>2019-06-23T09:20:32Z</time>
      </trkpt>
      <trkpt lat="42.856934024021029" lon="-2.387793995440006">
        <ele>583.20000000000005</ele>
        <time>2019-06-23T09:20:33Z</time>
      </trkpt>
      <trkpt lat="42.856989009305835" lon="-2.387745967134833">
        <ele>583.39999999999998</ele>
        <time>2019-06-23T09:20:34Z</time>
      </trkpt>
      <trkpt lat="42.857099985703826" lon="-2.387648988515139">
        <ele>584.20000000000005</ele>
        <time>2019-06-23T09:20:36Z</time>
      </trkpt>
      <trkpt lat="42.857211967930198" lon="-2.387553015723825">
        <ele>584.39999999999998</ele>
        <time>2019-06-23T09:20:38Z</time>
      </trkpt>
      <trkpt lat="42.857320010662079" lon="-2.387454025447369">
        <ele>584.60000000000002</ele>
        <time>2019-06-23T09:20:40Z</time>
      </trkpt>
      <trkpt lat="42.857431992888451" lon="-2.387352017685771">
        <ele>584.79999999999995</ele>
        <time>2019-06-23T09:20:42Z</time>
      </trkpt>
      <trkpt lat="42.857488989830017" lon="-2.387299966067076">
        <ele>584.79999999999995</ele>
        <time>2019-06-23T09:20:43Z</time>
      </trkpt>
      <trkpt lat="42.857547998428345" lon="-2.387247998267412">
        <ele>585</ele>
        <time>2019-06-23T09:20:44Z</time>
      </trkpt>
      <trkpt lat="42.857667021453381" lon="-2.387150013819337">
        <ele>585</ele>
        <time>2019-06-23T09:20:46Z</time>
      </trkpt>
      <trkpt lat="42.857787972316146" lon="-2.387064015492797">
        <ele>585</ele>
        <time>2019-06-23T09:20:48Z</time>
      </trkpt>
      <trkpt lat="42.857851004227996" lon="-2.387027973309159">
        <ele>584.79999999999995</ele>
        <time>2019-06-23T09:20:49Z</time>
      </trkpt>
      <trkpt lat="42.857914958149195" lon="-2.386995032429695">
        <ele>585</ele>
        <time>2019-06-23T09:20:50Z</time>
      </trkpt>
      <trkpt lat="42.858046973124146" lon="-2.386943986639381">
        <ele>585</ele>
        <time>2019-06-23T09:20:52Z</time>
      </trkpt>
      <trkpt lat="42.858179993927479" lon="-2.386904004961252">
        <ele>585</ele>
        <time>2019-06-23T09:20:54Z</time>
      </trkpt>
      <trkpt lat="42.85831100307405" lon="-2.386862011626363">
        <ele>585.20000000000005</ele>
        <time>2019-06-23T09:20:56Z</time>
      </trkpt>
      <trkpt lat="42.858441006392241" lon="-2.386820018291473">
        <ele>585.39999999999998</ele>
        <time>2019-06-23T09:20:58Z</time>
      </trkpt>
      <trkpt lat="42.858567992225289" lon="-2.386781964451075">
        <ele>585.39999999999998</ele>
        <time>2019-06-23T09:21:00Z</time>
      </trkpt>
      <trkpt lat="42.858694978058338" lon="-2.386747011914849">
        <ele>585.79999999999995</ele>
        <time>2019-06-23T09:21:02Z</time>
      </trkpt>
      <trkpt lat="42.858819030225277" lon="-2.386710969731212">
        <ele>586.20000000000005</ele>
        <time>2019-06-23T09:21:04Z</time>
      </trkpt>
      <trkpt lat="42.858879966661334" lon="-2.386694038286805">
        <ele>586.20000000000005</ele>
        <time>2019-06-23T09:21:05Z</time>
      </trkpt>
      <trkpt lat="42.858940986916423" lon="-2.386678028851748">
        <ele>586.39999999999998</ele>
        <time>2019-06-23T09:21:06Z</time>
      </trkpt>
      <trkpt lat="42.859065039083362" lon="-2.386651039123535">
        <ele>586.60000000000002</ele>
        <time>2019-06-23T09:21:08Z</time>
      </trkpt>
      <trkpt lat="42.859196970239282" lon="-2.386628994718194">
        <ele>587.20000000000005</ele>
        <time>2019-06-23T09:21:10Z</time>
      </trkpt>
      <trkpt lat="42.859329991042614" lon="-2.386607034131885">
        <ele>587.60000000000002</ele>
        <time>2019-06-23T09:21:12Z</time>
      </trkpt>
      <trkpt lat="42.859396962448955" lon="-2.386594964191318">
        <ele>587.79999999999995</ele>
        <time>2019-06-23T09:21:13Z</time>
      </trkpt>
      <trkpt lat="42.859465023502707" lon="-2.386584989726543">
        <ele>587.79999999999995</ele>
        <time>2019-06-23T09:21:14Z</time>
      </trkpt>
      <trkpt lat="42.85960097797215" lon="-2.386564034968615">
        <ele>587.79999999999995</ele>
        <time>2019-06-23T09:21:16Z</time>
      </trkpt>
      <trkpt lat="42.859736010432243" lon="-2.386539978906512">
        <ele>587.79999999999995</ele>
        <time>2019-06-23T09:21:18Z</time>
      </trkpt>
      <trkpt lat="42.859870959073305" lon="-2.386518018320203">
        <ele>588.20000000000005</ele>
        <time>2019-06-23T09:21:20Z</time>
      </trkpt>
      <trkpt lat="42.86000800319016" lon="-2.386496979743242">
        <ele>588.20000000000005</ele>
        <time>2019-06-23T09:21:22Z</time>
      </trkpt>
      <trkpt lat="42.860143035650253" lon="-2.386476024985313">
        <ele>588.20000000000005</ele>
        <time>2019-06-23T09:21:24Z</time>
      </trkpt>
      <trkpt lat="42.860278990119696" lon="-2.386463033035398">
        <ele>588.20000000000005</ele>
        <time>2019-06-23T09:21:26Z</time>
      </trkpt>
      <trkpt lat="42.86041502840817" lon="-2.386452974751592">
        <ele>588.39999999999998</ele>
        <time>2019-06-23T09:21:28Z</time>
      </trkpt>
      <trkpt lat="42.860550982877612" lon="-2.38644702360034">
        <ele>588.39999999999998</ele>
        <time>2019-06-23T09:21:30Z</time>
      </trkpt>
      <trkpt lat="42.860687021166086" lon="-2.386443000286818">
        <ele>588.39999999999998</ele>
        <time>2019-06-23T09:21:32Z</time>
      </trkpt>
      <trkpt lat="42.860754998400807" lon="-2.386441994458437">
        <ele>588.60000000000002</ele>
        <time>2019-06-23T09:21:33Z</time>
      </trkpt>
      <trkpt lat="42.860822975635529" lon="-2.386439982801676">
        <ele>588.60000000000002</ele>
        <time>2019-06-23T09:21:34Z</time>
      </trkpt>
      <trkpt lat="42.860959013924003" lon="-2.386436965316534">
        <ele>588.79999999999995</ele>
        <time>2019-06-23T09:21:36Z</time>
      </trkpt>
      <trkpt lat="42.861095974221826" lon="-2.386431014165282">
        <ele>589</ele>
        <time>2019-06-23T09:21:38Z</time>
      </trkpt>
      <trkpt lat="42.861235029995441" lon="-2.38642699085176">
        <ele>589</ele>
        <time>2019-06-23T09:21:40Z</time>
      </trkpt>
      <trkpt lat="42.861369978636503" lon="-2.386422967538238">
        <ele>589.20000000000005</ele>
        <time>2019-06-23T09:21:42Z</time>
      </trkpt>
      <trkpt lat="42.861507022753358" lon="-2.386421039700508">
        <ele>589.20000000000005</ele>
        <time>2019-06-23T09:21:44Z</time>
      </trkpt>
      <trkpt lat="42.861574999988079" lon="-2.386421961709857">
        <ele>589.20000000000005</ele>
        <time>2019-06-23T09:21:45Z</time>
      </trkpt>
      <trkpt lat="42.861644988879561" lon="-2.386422967538238">
        <ele>589.20000000000005</ele>
        <time>2019-06-23T09:21:46Z</time>
      </trkpt>
      <trkpt lat="42.861783960834146" lon="-2.38642699085176">
        <ele>589.20000000000005</ele>
        <time>2019-06-23T09:21:48Z</time>
      </trkpt>
      <trkpt lat="42.861924022436142" lon="-2.386436965316534">
        <ele>589.20000000000005</ele>
        <time>2019-06-23T09:21:50Z</time>
      </trkpt>
      <trkpt lat="42.862064000219107" lon="-2.386446017771959">
        <ele>589.20000000000005</ele>
        <time>2019-06-23T09:21:52Z</time>
      </trkpt>
      <trkpt lat="42.862204983830452" lon="-2.386451968923211">
        <ele>589.20000000000005</ele>
        <time>2019-06-23T09:21:54Z</time>
      </trkpt>
      <trkpt lat="42.862348984926939" lon="-2.386461021378636">
        <ele>589.20000000000005</ele>
        <time>2019-06-23T09:21:56Z</time>
      </trkpt>
      <trkpt lat="42.862492986023426" lon="-2.386467978358269">
        <ele>589.20000000000005</ele>
        <time>2019-06-23T09:21:58Z</time>
      </trkpt>
      <trkpt lat="42.86256498657167" lon="-2.386466972529888">
        <ele>589.39999999999998</ele>
        <time>2019-06-23T09:21:59Z</time>
      </trkpt>
      <trkpt lat="42.862635981291533" lon="-2.386461021378636">
        <ele>589.39999999999998</ele>
        <time>2019-06-23T09:22:00Z</time>
      </trkpt>
      <trkpt lat="42.86277998238802" lon="-2.386427996680141">
        <ele>589.39999999999998</ele>
        <time>2019-06-23T09:22:02Z</time>
      </trkpt>
      <trkpt lat="42.862849971279502" lon="-2.386402012780309">
        <ele>589.39999999999998</ele>
        <time>2019-06-23T09:22:03Z</time>
      </trkpt>
      <trkpt lat="42.862919960170984" lon="-2.386370999738574">
        <ele>589.20000000000005</ele>
        <time>2019-06-23T09:22:04Z</time>
      </trkpt>
      <trkpt lat="42.862988021224737" lon="-2.386336969211698">
        <ele>589.39999999999998</ele>
        <time>2019-06-23T09:22:05Z</time>
      </trkpt>
      <trkpt lat="42.863054992631078" lon="-2.386302016675472">
        <ele>589.39999999999998</ele>
        <time>2019-06-23T09:22:06Z</time>
      </trkpt>
      <trkpt lat="42.86318801343441" lon="-2.386230016127229">
        <ele>589.60000000000002</ele>
        <time>2019-06-23T09:22:08Z</time>
      </trkpt>
      <trkpt lat="42.863321034237742" lon="-2.386157009750605">
        <ele>589.60000000000002</ele>
        <time>2019-06-23T09:22:10Z</time>
      </trkpt>
      <trkpt lat="42.863451037555933" lon="-2.386085009202361">
        <ele>589.79999999999995</ele>
        <time>2019-06-23T09:22:12Z</time>
      </trkpt>
      <trkpt lat="42.863581040874124" lon="-2.386013008654118">
        <ele>589.79999999999995</ele>
        <time>2019-06-23T09:22:14Z</time>
      </trkpt>
      <trkpt lat="42.863709032535553" lon="-2.385943019762635">
        <ele>590</ele>
        <time>2019-06-23T09:22:16Z</time>
      </trkpt>
      <trkpt lat="42.863836018368602" lon="-2.385870013386011">
        <ele>589.79999999999995</ele>
        <time>2019-06-23T09:22:18Z</time>
      </trkpt>
      <trkpt lat="42.86396199837327" lon="-2.385797007009387">
        <ele>590</ele>
        <time>2019-06-23T09:22:20Z</time>
      </trkpt>
      <trkpt lat="42.864026036113501" lon="-2.385760964825749">
        <ele>590.20000000000005</ele>
        <time>2019-06-23T09:22:21Z</time>
      </trkpt>
      <trkpt lat="42.864089990034699" lon="-2.385727018117905">
        <ele>590.20000000000005</ele>
        <time>2019-06-23T09:22:22Z</time>
      </trkpt>
      <trkpt lat="42.864217981696129" lon="-2.385659040883184">
        <ele>590.39999999999998</ele>
        <time>2019-06-23T09:22:24Z</time>
      </trkpt>
      <trkpt lat="42.864344967529178" lon="-2.38558997400105">
        <ele>590.60000000000002</ele>
        <time>2019-06-23T09:22:26Z</time>
      </trkpt>
      <trkpt lat="42.864409005269408" lon="-2.385557033121586">
        <ele>590.79999999999995</ele>
        <time>2019-06-23T09:22:27Z</time>
      </trkpt>
      <trkpt lat="42.864472959190607" lon="-2.385523002594709">
        <ele>590.79999999999995</ele>
        <time>2019-06-23T09:22:28Z</time>
      </trkpt>
      <trkpt lat="42.864598017185926" lon="-2.385455025359988">
        <ele>590.79999999999995</ele>
        <time>2019-06-23T09:22:30Z</time>
      </trkpt>
      <trkpt lat="42.864721985533834" lon="-2.385385958477855">
        <ele>591</ele>
        <time>2019-06-23T09:22:32Z</time>
      </trkpt>
      <trkpt lat="42.864845031872392" lon="-2.385317981243134">
        <ele>591.39999999999998</ele>
        <time>2019-06-23T09:22:34Z</time>
      </trkpt>
      <trkpt lat="42.864906974136829" lon="-2.385285962373018">
        <ele>591.79999999999995</ele>
        <time>2019-06-23T09:22:35Z</time>
      </trkpt>
      <trkpt lat="42.864967994391918" lon="-2.385253021493554">
        <ele>591.79999999999995</ele>
        <time>2019-06-23T09:22:36Z</time>
      </trkpt>
      <trkpt lat="42.865091040730476" lon="-2.385187977924943">
        <ele>592</ele>
        <time>2019-06-23T09:22:38Z</time>
      </trkpt>
      <trkpt lat="42.865212997421622" lon="-2.385123018175364">
        <ele>592.20000000000005</ele>
        <time>2019-06-23T09:22:40Z</time>
      </trkpt>
      <trkpt lat="42.865274017676711" lon="-2.385089993476868">
        <ele>592.39999999999998</ele>
        <time>2019-06-23T09:22:41Z</time>
      </trkpt>
      <trkpt lat="42.865334032103419" lon="-2.385055962949991">
        <ele>592.60000000000002</ele>
        <time>2019-06-23T09:22:42Z</time>
      </trkpt>
      <trkpt lat="42.865393962711096" lon="-2.385023022070527">
        <ele>592.60000000000002</ele>
        <time>2019-06-23T09:22:43Z</time>
      </trkpt>
      <trkpt lat="42.865452971309423" lon="-2.384989997372031">
        <ele>592.60000000000002</ele>
        <time>2019-06-23T09:22:44Z</time>
      </trkpt>
      <trkpt lat="42.865566965192556" lon="-2.384926965460181">
        <ele>593</ele>
        <time>2019-06-23T09:22:46Z</time>
      </trkpt>
      <trkpt lat="42.865623040124774" lon="-2.384896958246827">
        <ele>593</ele>
        <time>2019-06-23T09:22:47Z</time>
      </trkpt>
      <trkpt lat="42.865678025409579" lon="-2.384867034852505">
        <ele>593</ele>
        <time>2019-06-23T09:22:48Z</time>
      </trkpt>
      <trkpt lat="42.865784978494048" lon="-2.384807020425797">
        <ele>593.79999999999995</ele>
        <time>2019-06-23T09:22:50Z</time>
      </trkpt>
      <trkpt lat="42.865887992084026" lon="-2.384751029312611">
        <ele>594.39999999999998</ele>
        <time>2019-06-23T09:22:52Z</time>
      </trkpt>
      <trkpt lat="42.865984970703721" lon="-2.384693026542664">
        <ele>594.79999999999995</ele>
        <time>2019-06-23T09:22:54Z</time>
      </trkpt>
      <trkpt lat="42.866034004837275" lon="-2.38466301932931">
        <ele>595</ele>
        <time>2019-06-23T09:22:55Z</time>
      </trkpt>
      <trkpt lat="42.866083038970828" lon="-2.384636029601097">
        <ele>595.20000000000005</ele>
        <time>2019-06-23T09:22:56Z</time>
      </trkpt>
      <trkpt lat="42.86613198928535" lon="-2.384610967710614">
        <ele>595.60000000000002</ele>
        <time>2019-06-23T09:22:57Z</time>
      </trkpt>
      <trkpt lat="42.866182029247284" lon="-2.384584983810782">
        <ele>595.79999999999995</ele>
        <time>2019-06-23T09:22:58Z</time>
      </trkpt>
      <trkpt lat="42.866280013695359" lon="-2.384528992697597">
        <ele>596.60000000000002</ele>
        <time>2019-06-23T09:23:00Z</time>
      </trkpt>
      <trkpt lat="42.866375986486673" lon="-2.384476019069552">
        <ele>597</ele>
        <time>2019-06-23T09:23:02Z</time>
      </trkpt>
      <trkpt lat="42.866473970934749" lon="-2.384422039613128">
        <ele>597.39999999999998</ele>
        <time>2019-06-23T09:23:04Z</time>
      </trkpt>
      <trkpt lat="42.866572961211205" lon="-2.384366970509291">
        <ele>598.20000000000005</ele>
        <time>2019-06-23T09:23:06Z</time>
      </trkpt>
      <trkpt lat="42.866621995344758" lon="-2.38434199243784">
        <ele>598.39999999999998</ele>
        <time>2019-06-23T09:23:07Z</time>
      </trkpt>
      <trkpt lat="42.866673041135073" lon="-2.384316008538008">
        <ele>598.79999999999995</ele>
        <time>2019-06-23T09:23:08Z</time>
      </trkpt>
      <trkpt lat="42.866775970906019" lon="-2.384258005768061">
        <ele>599.20000000000005</ele>
        <time>2019-06-23T09:23:10Z</time>
      </trkpt>
      <trkpt lat="42.866885019466281" lon="-2.384202014654875">
        <ele>599.39999999999998</ele>
        <time>2019-06-23T09:23:12Z</time>
      </trkpt>
      <trkpt lat="42.866997001692653" lon="-2.384145017713308">
        <ele>600.20000000000005</ele>
        <time>2019-06-23T09:23:14Z</time>
      </trkpt>
      <trkpt lat="42.867108983919024" lon="-2.38408399745822">
        <ele>600.39999999999998</ele>
        <time>2019-06-23T09:23:16Z</time>
      </trkpt>
      <trkpt lat="42.867220966145396" lon="-2.384023983031511">
        <ele>600.60000000000002</ele>
        <time>2019-06-23T09:23:18Z</time>
      </trkpt>
      <trkpt lat="42.867332026362419" lon="-2.383963968604803">
        <ele>600.79999999999995</ele>
        <time>2019-06-23T09:23:20Z</time>
      </trkpt>
      <trkpt lat="42.86744199693203" lon="-2.383905965834856">
        <ele>600.79999999999995</ele>
        <time>2019-06-23T09:23:22Z</time>
      </trkpt>
      <trkpt lat="42.867496982216835" lon="-2.383875958621502">
        <ele>600.79999999999995</ele>
        <time>2019-06-23T09:23:23Z</time>
      </trkpt>
      <trkpt lat="42.86755096167326" lon="-2.38384603522718">
        <ele>600.79999999999995</ele>
        <time>2019-06-23T09:23:24Z</time>
      </trkpt>
      <trkpt lat="42.867660010233521" lon="-2.383789960294962">
        <ele>601</ele>
        <time>2019-06-23T09:23:26Z</time>
      </trkpt>
      <trkpt lat="42.86776696331799" lon="-2.383736986666918">
        <ele>600.79999999999995</ele>
        <time>2019-06-23T09:23:28Z</time>
      </trkpt>
      <trkpt lat="42.867874000221491" lon="-2.383687030524015">
        <ele>601</ele>
        <time>2019-06-23T09:23:30Z</time>
      </trkpt>
      <trkpt lat="42.867928985506296" lon="-2.383665991947055">
        <ele>601</ele>
        <time>2019-06-23T09:23:31Z</time>
      </trkpt>
      <trkpt lat="42.867984976619482" lon="-2.383645959198475">
        <ele>601</ele>
        <time>2019-06-23T09:23:32Z</time>
      </trkpt>
      <trkpt lat="42.868098970502615" lon="-2.383619975298643">
        <ele>601.39999999999998</ele>
        <time>2019-06-23T09:23:34Z</time>
      </trkpt>
      <trkpt lat="42.86821598187089" lon="-2.383604971691966">
        <ele>601.79999999999995</ele>
        <time>2019-06-23T09:23:36Z</time>
      </trkpt>
      <trkpt lat="42.868338022381067" lon="-2.383597008883953">
        <ele>602.20000000000005</ele>
        <time>2019-06-23T09:23:38Z</time>
      </trkpt>
      <trkpt lat="42.868399964645505" lon="-2.383593991398811">
        <ele>602.60000000000002</ele>
        <time>2019-06-23T09:23:39Z</time>
      </trkpt>
      <trkpt lat="42.868465008214116" lon="-2.38359097391367">
        <ele>602.79999999999995</ele>
        <time>2019-06-23T09:23:40Z</time>
      </trkpt>
      <trkpt lat="42.868596017360687" lon="-2.383587034419179">
        <ele>602.79999999999995</ele>
        <time>2019-06-23T09:23:42Z</time>
      </trkpt>
      <trkpt lat="42.86873297765851" lon="-2.383586028590798">
        <ele>603</ele>
        <time>2019-06-23T09:23:44Z</time>
      </trkpt>
      <trkpt lat="42.868874967098236" lon="-2.383586028590798">
        <ele>602.79999999999995</ele>
        <time>2019-06-23T09:23:46Z</time>
      </trkpt>
      <trkpt lat="42.869020979851484" lon="-2.383587034419179">
        <ele>603</ele>
        <time>2019-06-23T09:23:48Z</time>
      </trkpt>
      <trkpt lat="42.86909599788487" lon="-2.383588962256908">
        <ele>603</ele>
        <time>2019-06-23T09:23:49Z</time>
      </trkpt>
      <trkpt lat="42.869172021746635" lon="-2.38359197974205">
        <ele>602.79999999999995</ele>
        <time>2019-06-23T09:23:50Z</time>
      </trkpt>
      <trkpt lat="42.869324991479516" lon="-2.383599020540714">
        <ele>602</ele>
        <time>2019-06-23T09:23:52Z</time>
      </trkpt>
      <trkpt lat="42.86948399618268" lon="-2.383608995005488">
        <ele>601.39999999999998</ele>
        <time>2019-06-23T09:23:54Z</time>
      </trkpt>
      <trkpt lat="42.869649035856128" lon="-2.383622992783785">
        <ele>601</ele>
        <time>2019-06-23T09:23:56Z</time>
      </trkpt>
      <trkpt lat="42.869733022525907" lon="-2.383631961420178">
        <ele>600.39999999999998</ele>
        <time>2019-06-23T09:23:57Z</time>
      </trkpt>
      <trkpt lat="42.869818015024066" lon="-2.383639002218843">
        <ele>600.20000000000005</ele>
        <time>2019-06-23T09:23:58Z</time>
      </trkpt>
      <trkpt lat="42.869905019178987" lon="-2.383645959198475">
        <ele>600</ele>
        <time>2019-06-23T09:23:59Z</time>
      </trkpt>
      <trkpt lat="42.869993029162288" lon="-2.383651994168758">
        <ele>599.79999999999995</ele>
        <time>2019-06-23T09:24:00Z</time>
      </trkpt>
      <trkpt lat="42.870171982795" lon="-2.383663980290294">
        <ele>599.39999999999998</ele>
        <time>2019-06-23T09:24:02Z</time>
      </trkpt>
      <trkpt lat="42.870354959741235" lon="-2.383680995553732">
        <ele>598.60000000000002</ele>
        <time>2019-06-23T09:24:04Z</time>
      </trkpt>
      <trkpt lat="42.870449004694819" lon="-2.383688036352396">
        <ele>598.60000000000002</ele>
        <time>2019-06-23T09:24:05Z</time>
      </trkpt>
      <trkpt lat="42.870542965829372" lon="-2.383694993332028">
        <ele>598.20000000000005</ele>
        <time>2019-06-23T09:24:06Z</time>
      </trkpt>
      <trkpt lat="42.870732983574271" lon="-2.383709996938705">
        <ele>597.79999999999995</ele>
        <time>2019-06-23T09:24:08Z</time>
      </trkpt>
      <trkpt lat="42.870925012975931" lon="-2.383727012202144">
        <ele>597.39999999999998</ele>
        <time>2019-06-23T09:24:10Z</time>
      </trkpt>
      <trkpt lat="42.871118970215321" lon="-2.383770011365414">
        <ele>597</ele>
        <time>2019-06-23T09:24:12Z</time>
      </trkpt>
      <trkpt lat="42.871301025152206" lon="-2.38387000747025">
        <ele>596.60000000000002</ele>
        <time>2019-06-23T09:24:14Z</time>
      </trkpt>
      <trkpt lat="42.871384005993605" lon="-2.383939996361733">
        <ele>596.20000000000005</ele>
        <time>2019-06-23T09:24:15Z</time>
      </trkpt>
      <trkpt lat="42.871462041512132" lon="-2.384022977203131">
        <ele>596</ele>
        <time>2019-06-23T09:24:16Z</time>
      </trkpt>
      <trkpt lat="42.871534964069724" lon="-2.384114004671574">
        <ele>595</ele>
        <time>2019-06-23T09:24:17Z</time>
      </trkpt>
      <trkpt lat="42.871605958789587" lon="-2.384207965806127">
        <ele>594.60000000000002</ele>
        <time>2019-06-23T09:24:18Z</time>
      </trkpt>
      <trkpt lat="42.87167401984334" lon="-2.384306034073234">
        <ele>594.39999999999998</ele>
        <time>2019-06-23T09:24:19Z</time>
      </trkpt>
      <trkpt lat="42.871741997078061" lon="-2.38440603017807">
        <ele>594.20000000000005</ele>
        <time>2019-06-23T09:24:20Z</time>
      </trkpt>
      <trkpt lat="42.871879041194916" lon="-2.384607028216124">
        <ele>594</ele>
        <time>2019-06-23T09:24:22Z</time>
      </trkpt>
      <trkpt lat="42.871948024258018" lon="-2.38470702432096">
        <ele>594</ele>
        <time>2019-06-23T09:24:23Z</time>
      </trkpt>
      <trkpt lat="42.872017007321119" lon="-2.384807020425797">
        <ele>594</ele>
        <time>2019-06-23T09:24:24Z</time>
      </trkpt>
      <trkpt lat="42.872156985104084" lon="-2.385006006807089">
        <ele>593.79999999999995</ele>
        <time>2019-06-23T09:24:26Z</time>
      </trkpt>
      <trkpt lat="42.872296962887049" lon="-2.385208010673523">
        <ele>593.39999999999998</ele>
        <time>2019-06-23T09:24:28Z</time>
      </trkpt>
      <trkpt lat="42.872439958155155" lon="-2.385405991226435">
        <ele>593.20000000000005</ele>
        <time>2019-06-23T09:24:30Z</time>
      </trkpt>
      <trkpt lat="42.872516987845302" lon="-2.385500036180019">
        <ele>593</ele>
        <time>2019-06-23T09:24:31Z</time>
      </trkpt>
      <trkpt lat="42.872598962858319" lon="-2.38558704033494">
        <ele>592.79999999999995</ele>
        <time>2019-06-23T09:24:32Z</time>
      </trkpt>
      <trkpt lat="42.872684961184859" lon="-2.385668009519577">
        <ele>592.39999999999998</ele>
        <time>2019-06-23T09:24:33Z</time>
      </trkpt>
      <trkpt lat="42.872770959511399" lon="-2.385743027552962">
        <ele>592.20000000000005</ele>
        <time>2019-06-23T09:24:34Z</time>
      </trkpt>
      <trkpt lat="42.872945973649621" lon="-2.38588803447783">
        <ele>591.79999999999995</ele>
        <time>2019-06-23T09:24:36Z</time>
      </trkpt>
      <trkpt lat="42.873122999444604" lon="-2.386030023917556">
        <ele>591.60000000000002</ele>
        <time>2019-06-23T09:24:38Z</time>
      </trkpt>
      <trkpt lat="42.873212015256286" lon="-2.386096995323896">
        <ele>591.39999999999998</ele>
        <time>2019-06-23T09:24:39Z</time>
      </trkpt>
      <trkpt lat="42.873300025239587" lon="-2.386163966730237">
        <ele>591</ele>
        <time>2019-06-23T09:24:40Z</time>
      </trkpt>
      <trkpt lat="42.873476967215538" lon="-2.38629799336195">
        <ele>590.20000000000005</ele>
        <time>2019-06-23T09:24:42Z</time>
      </trkpt>
      <trkpt lat="42.87365198135376" lon="-2.386430008336902">
        <ele>590.20000000000005</ele>
        <time>2019-06-23T09:24:44Z</time>
      </trkpt>
      <trkpt lat="42.873739991337061" lon="-2.386493962258101">
        <ele>589.79999999999995</ele>
        <time>2019-06-23T09:24:45Z</time>
      </trkpt>
      <trkpt lat="42.873826995491982" lon="-2.38655598834157">
        <ele>589.79999999999995</ele>
        <time>2019-06-23T09:24:46Z</time>
      </trkpt>
      <trkpt lat="42.874002009630203" lon="-2.386680962517858">
        <ele>589.20000000000005</ele>
        <time>2019-06-23T09:24:48Z</time>
      </trkpt>
      <trkpt lat="42.874175012111664" lon="-2.386806020513177">
        <ele>588.79999999999995</ele>
        <time>2019-06-23T09:24:50Z</time>
      </trkpt>
      <trkpt lat="42.874346002936363" lon="-2.386930994689465">
        <ele>588.60000000000002</ele>
        <time>2019-06-23T09:24:52Z</time>
      </trkpt>
      <trkpt lat="42.874430995434523" lon="-2.386992014944553">
        <ele>588.39999999999998</ele>
        <time>2019-06-23T09:24:53Z</time>
      </trkpt>
      <trkpt lat="42.874515987932682" lon="-2.387052029371262">
        <ele>588.39999999999998</ele>
        <time>2019-06-23T09:24:54Z</time>
      </trkpt>
      <trkpt lat="42.87468203343451" lon="-2.387172980234027">
        <ele>588.20000000000005</ele>
        <time>2019-06-23T09:24:56Z</time>
      </trkpt>
      <trkpt lat="42.874764008447528" lon="-2.387231988832355">
        <ele>588.20000000000005</ele>
        <time>2019-06-23T09:24:57Z</time>
      </trkpt>
      <trkpt lat="42.874847995117307" lon="-2.38728697411716">
        <ele>588.20000000000005</ele>
        <time>2019-06-23T09:24:58Z</time>
      </trkpt>
      <trkpt lat="42.874932987615466" lon="-2.387335002422333">
        <ele>588.20000000000005</ele>
        <time>2019-06-23T09:24:59Z</time>
      </trkpt>
      <trkpt lat="42.875020997598767" lon="-2.387376995757222">
        <ele>588</ele>
        <time>2019-06-23T09:25:00Z</time>
      </trkpt>
      <trkpt lat="42.875201040878892" lon="-2.38745997659862">
        <ele>588</ele>
        <time>2019-06-23T09:25:02Z</time>
      </trkpt>
      <trkpt lat="42.875384017825127" lon="-2.38754203543067">
        <ele>587.79999999999995</ele>
        <time>2019-06-23T09:25:04Z</time>
      </trkpt>
      <trkpt lat="42.875571018084884" lon="-2.387625016272068">
        <ele>587.39999999999998</ele>
        <time>2019-06-23T09:25:06Z</time>
      </trkpt>
      <trkpt lat="42.875758018344641" lon="-2.387706991285086">
        <ele>587.39999999999998</ele>
        <time>2019-06-23T09:25:08Z</time>
      </trkpt>
      <trkpt lat="42.875849967822433" lon="-2.387746972963214">
        <ele>587.20000000000005</ele>
        <time>2019-06-23T09:25:09Z</time>
      </trkpt>
      <trkpt lat="42.875940995290875" lon="-2.387787038460374">
        <ele>587.20000000000005</ele>
        <time>2019-06-23T09:25:10Z</time>
      </trkpt>
      <trkpt lat="42.876031016930938" lon="-2.387826014310122">
        <ele>587.20000000000005</ele>
        <time>2019-06-23T09:25:11Z</time>
      </trkpt>
      <trkpt lat="42.876118021085858" lon="-2.387863984331489">
        <ele>586.79999999999995</ele>
        <time>2019-06-23T09:25:12Z</time>
      </trkpt>
      <trkpt lat="42.876288006082177" lon="-2.387939002364874">
        <ele>586.60000000000002</ele>
        <time>2019-06-23T09:25:14Z</time>
      </trkpt>
      <trkpt lat="42.876454973593354" lon="-2.388003040105104">
        <ele>586.39999999999998</ele>
        <time>2019-06-23T09:25:16Z</time>
      </trkpt>
      <trkpt lat="42.876624036580324" lon="-2.38803799264133">
        <ele>586.39999999999998</ele>
        <time>2019-06-23T09:25:18Z</time>
      </trkpt>
      <trkpt lat="42.876710034906864" lon="-2.388043021783233">
        <ele>586.20000000000005</ele>
        <time>2019-06-23T09:25:19Z</time>
      </trkpt>
      <trkpt lat="42.876797961071134" lon="-2.388042015954852">
        <ele>586.39999999999998</ele>
        <time>2019-06-23T09:25:20Z</time>
      </trkpt>
      <trkpt lat="42.876980016008019" lon="-2.388036986812949">
        <ele>586.39999999999998</ele>
        <time>2019-06-23T09:25:22Z</time>
      </trkpt>
      <trkpt lat="42.877162992954254" lon="-2.388030029833317">
        <ele>586</ele>
        <time>2019-06-23T09:25:24Z</time>
      </trkpt>
      <trkpt lat="42.877255026251078" lon="-2.388029024004936">
        <ele>586</ele>
        <time>2019-06-23T09:25:25Z</time>
      </trkpt>
      <trkpt lat="42.877346975728869" lon="-2.388029024004936">
        <ele>586</ele>
        <time>2019-06-23T09:25:26Z</time>
      </trkpt>
      <trkpt lat="42.877530036494136" lon="-2.388043021783233">
        <ele>585.79999999999995</ele>
        <time>2019-06-23T09:25:28Z</time>
      </trkpt>
      <trkpt lat="42.877715025097132" lon="-2.3880809918046">
        <ele>585.79999999999995</ele>
        <time>2019-06-23T09:25:30Z</time>
      </trkpt>
      <trkpt lat="42.877809992060065" lon="-2.388108987361193">
        <ele>585.79999999999995</ele>
        <time>2019-06-23T09:25:31Z</time>
      </trkpt>
      <trkpt lat="42.877905964851379" lon="-2.388140000402927">
        <ele>585.60000000000002</ele>
        <time>2019-06-23T09:25:32Z</time>
      </trkpt>
      <trkpt lat="42.878004033118486" lon="-2.388172019273043">
        <ele>585.60000000000002</ele>
        <time>2019-06-23T09:25:33Z</time>
      </trkpt>
      <trkpt lat="42.878103023394942" lon="-2.388204038143158">
        <ele>585.39999999999998</ele>
        <time>2019-06-23T09:25:34Z</time>
      </trkpt>
      <trkpt lat="42.878204025328159" lon="-2.388235973194242">
        <ele>585.39999999999998</ele>
        <time>2019-06-23T09:25:35Z</time>
      </trkpt>
      <trkpt lat="42.878307038918138" lon="-2.388268997892737">
        <ele>585.20000000000005</ele>
        <time>2019-06-23T09:25:36Z</time>
      </trkpt>
      <trkpt lat="42.878518011420965" lon="-2.38833898678422">
        <ele>584</ele>
        <time>2019-06-23T09:25:38Z</time>
      </trkpt>
      <trkpt lat="42.878624964505434" lon="-2.388375028967857">
        <ele>583.79999999999995</ele>
        <time>2019-06-23T09:25:39Z</time>
      </trkpt>
      <trkpt lat="42.878734013065696" lon="-2.388414004817605">
        <ele>583.39999999999998</ele>
        <time>2019-06-23T09:25:40Z</time>
      </trkpt>
      <trkpt lat="42.878952026367188" lon="-2.388492040336132">
        <ele>581.60000000000002</ele>
        <time>2019-06-23T09:25:42Z</time>
      </trkpt>
      <trkpt lat="42.879167022183537" lon="-2.388564040884376">
        <ele>580.20000000000005</ele>
        <time>2019-06-23T09:25:44Z</time>
      </trkpt>
      <trkpt lat="42.879372965544462" lon="-2.388634029775858">
        <ele>578.60000000000002</ele>
        <time>2019-06-23T09:25:46Z</time>
      </trkpt>
      <trkpt lat="42.879472961649299" lon="-2.388667976483703">
        <ele>578.20000000000005</ele>
        <time>2019-06-23T09:25:47Z</time>
      </trkpt>
      <trkpt lat="42.879573041573167" lon="-2.388701001182199">
        <ele>577.39999999999998</ele>
        <time>2019-06-23T09:25:48Z</time>
      </trkpt>
      <trkpt lat="42.879765992984176" lon="-2.388765960931778">
        <ele>576.60000000000002</ele>
        <time>2019-06-23T09:25:50Z</time>
      </trkpt>
      <trkpt lat="42.879953999072313" lon="-2.38883201032877">
        <ele>576.20000000000005</ele>
        <time>2019-06-23T09:25:52Z</time>
      </trkpt>
      <trkpt lat="42.88013999350369" lon="-2.388894036412239">
        <ele>576</ele>
        <time>2019-06-23T09:25:54Z</time>
      </trkpt>
      <trkpt lat="42.880325987935066" lon="-2.388954972848296">
        <ele>576</ele>
        <time>2019-06-23T09:25:56Z</time>
      </trkpt>
      <trkpt lat="42.880508964881301" lon="-2.389018004760146">
        <ele>576</ele>
        <time>2019-06-23T09:25:58Z</time>
      </trkpt>
      <trkpt lat="42.880694037303329" lon="-2.389080030843616">
        <ele>575.79999999999995</ele>
        <time>2019-06-23T09:26:00Z</time>
      </trkpt>
      <trkpt lat="42.88078598678112" lon="-2.38911003805697">
        <ele>575.79999999999995</ele>
        <time>2019-06-23T09:26:01Z</time>
      </trkpt>
      <trkpt lat="42.880877014249563" lon="-2.389140967279673">
        <ele>575.79999999999995</ele>
        <time>2019-06-23T09:26:02Z</time>
      </trkpt>
      <trkpt lat="42.880968041718006" lon="-2.389171980321407">
        <ele>575.79999999999995</ele>
        <time>2019-06-23T09:26:03Z</time>
      </trkpt>
      <trkpt lat="42.881058985367417" lon="-2.389202993363142">
        <ele>576</ele>
        <time>2019-06-23T09:26:04Z</time>
      </trkpt>
      <trkpt lat="42.88114900700748" lon="-2.389234006404877">
        <ele>575.79999999999995</ele>
        <time>2019-06-23T09:26:05Z</time>
      </trkpt>
      <trkpt lat="42.881240034475923" lon="-2.389265019446611">
        <ele>575.79999999999995</ele>
        <time>2019-06-23T09:26:06Z</time>
      </trkpt>
      <trkpt lat="42.881418988108635" lon="-2.38932796753943">
        <ele>575.60000000000002</ele>
        <time>2019-06-23T09:26:08Z</time>
      </trkpt>
      <trkpt lat="42.881596013903618" lon="-2.389389993622899">
        <ele>575.60000000000002</ele>
        <time>2019-06-23T09:26:10Z</time>
      </trkpt>
      <trkpt lat="42.88177203387022" lon="-2.389450008049607">
        <ele>575.60000000000002</ele>
        <time>2019-06-23T09:26:12Z</time>
      </trkpt>
      <trkpt lat="42.88185996003449" lon="-2.3894780036062">
        <ele>575.79999999999995</ele>
        <time>2019-06-23T09:26:13Z</time>
      </trkpt>
      <trkpt lat="42.88194595836103" lon="-2.389505999162793">
        <ele>575.60000000000002</ele>
        <time>2019-06-23T09:26:14Z</time>
      </trkpt>
      <trkpt lat="42.88211602717638" lon="-2.389566013589501">
        <ele>575.39999999999998</ele>
        <time>2019-06-23T09:26:16Z</time>
      </trkpt>
      <trkpt lat="42.88220101967454" lon="-2.389594009146094">
        <ele>575.60000000000002</ele>
        <time>2019-06-23T09:26:17Z</time>
      </trkpt>
      <trkpt lat="42.882284000515938" lon="-2.389620998874307">
        <ele>575.60000000000002</ele>
        <time>2019-06-23T09:26:18Z</time>
      </trkpt>
      <trkpt lat="42.882449962198734" lon="-2.389665003865957">
        <ele>575.60000000000002</ele>
        <time>2019-06-23T09:26:20Z</time>
      </trkpt>
      <trkpt lat="42.882533026859164" lon="-2.389677995815873">
        <ele>575.60000000000002</ele>
        <time>2019-06-23T09:26:21Z</time>
      </trkpt>
      <trkpt lat="42.882615001872182" lon="-2.389686964452267">
        <ele>575.60000000000002</ele>
        <time>2019-06-23T09:26:22Z</time>
      </trkpt>
      <trkpt lat="42.882774006575346" lon="-2.389695011079311">
        <ele>575.79999999999995</ele>
        <time>2019-06-23T09:26:24Z</time>
      </trkpt>
      <trkpt lat="42.882927982136607" lon="-2.389701968058944">
        <ele>576.39999999999998</ele>
        <time>2019-06-23T09:26:26Z</time>
      </trkpt>
      <trkpt lat="42.883078018203378" lon="-2.389700962230563">
        <ele>576.79999999999995</ele>
        <time>2019-06-23T09:26:28Z</time>
      </trkpt>
      <trkpt lat="42.883153036236763" lon="-2.389699034392834">
        <ele>577</ele>
        <time>2019-06-23T09:26:29Z</time>
      </trkpt>
      <trkpt lat="42.883225958794355" lon="-2.389697022736073">
        <ele>577</ele>
        <time>2019-06-23T09:26:30Z</time>
      </trkpt>
      <trkpt lat="42.883369959890842" lon="-2.38969199359417">
        <ele>577.20000000000005</ele>
        <time>2019-06-23T09:26:32Z</time>
      </trkpt>
      <trkpt lat="42.883511027321219" lon="-2.389686964452267">
        <ele>577.79999999999995</ele>
        <time>2019-06-23T09:26:34Z</time>
      </trkpt>
      <trkpt lat="42.883647987619042" lon="-2.389681013301015">
        <ele>578.20000000000005</ele>
        <time>2019-06-23T09:26:36Z</time>
      </trkpt>
      <trkpt lat="42.883716970682144" lon="-2.389681013301015">
        <ele>578.60000000000002</ele>
        <time>2019-06-23T09:26:37Z</time>
      </trkpt>
      <trkpt lat="42.883786037564278" lon="-2.389681013301015">
        <ele>579</ele>
        <time>2019-06-23T09:26:38Z</time>
      </trkpt>
      <trkpt lat="42.883854014798999" lon="-2.389684030786157">
        <ele>579.39999999999998</ele>
        <time>2019-06-23T09:26:39Z</time>
      </trkpt>
      <trkpt lat="42.883922997862101" lon="-2.389687970280647">
        <ele>579.60000000000002</ele>
        <time>2019-06-23T09:26:40Z</time>
      </trkpt>
      <trkpt lat="42.884062975645065" lon="-2.389700040221214">
        <ele>579.79999999999995</ele>
        <time>2019-06-23T09:26:42Z</time>
      </trkpt>
      <trkpt lat="42.884203037247062" lon="-2.389716971665621">
        <ele>580</ele>
        <time>2019-06-23T09:26:44Z</time>
      </trkpt>
      <trkpt lat="42.884343015030026" lon="-2.389740021899343">
        <ele>580</ele>
        <time>2019-06-23T09:26:46Z</time>
      </trkpt>
      <trkpt lat="42.884481986984611" lon="-2.389766005799174">
        <ele>580</ele>
        <time>2019-06-23T09:26:48Z</time>
      </trkpt>
      <trkpt lat="42.884619031101465" lon="-2.389794001355767">
        <ele>580.20000000000005</ele>
        <time>2019-06-23T09:26:50Z</time>
      </trkpt>
      <trkpt lat="42.884756997227669" lon="-2.389818979427218">
        <ele>580.20000000000005</ele>
        <time>2019-06-23T09:26:52Z</time>
      </trkpt>
      <trkpt lat="42.884893035516143" lon="-2.38984202966094">
        <ele>580.20000000000005</ele>
        <time>2019-06-23T09:26:54Z</time>
      </trkpt>
      <trkpt lat="42.885025972500443" lon="-2.389868013560772">
        <ele>580.20000000000005</ele>
        <time>2019-06-23T09:26:56Z</time>
      </trkpt>
      <trkpt lat="42.885158993303776" lon="-2.389897014945746">
        <ele>580.20000000000005</ele>
        <time>2019-06-23T09:26:58Z</time>
      </trkpt>
      <trkpt lat="42.885224958881736" lon="-2.389911012724042">
        <ele>580.39999999999998</ele>
        <time>2019-06-23T09:26:59Z</time>
      </trkpt>
      <trkpt lat="42.885292014107108" lon="-2.389924004673958">
        <ele>580.39999999999998</ele>
        <time>2019-06-23T09:27:00Z</time>
      </trkpt>
      <trkpt lat="42.885357979685068" lon="-2.389936996623874">
        <ele>580.60000000000002</ele>
        <time>2019-06-23T09:27:01Z</time>
      </trkpt>
      <trkpt lat="42.885423023253679" lon="-2.38995099440217">
        <ele>580.60000000000002</ele>
        <time>2019-06-23T09:27:02Z</time>
      </trkpt>
      <trkpt lat="42.88555302657187" lon="-2.389975972473621">
        <ele>580.60000000000002</ele>
        <time>2019-06-23T09:27:04Z</time>
      </trkpt>
      <trkpt lat="42.88568302989006" lon="-2.389999022707343">
        <ele>581</ele>
        <time>2019-06-23T09:27:06Z</time>
      </trkpt>
      <trkpt lat="42.88574798963964" lon="-2.390011008828878">
        <ele>581</ele>
        <time>2019-06-23T09:27:07Z</time>
      </trkpt>
      <trkpt lat="42.885813033208251" lon="-2.390025006607175">
        <ele>581.20000000000005</ele>
        <time>2019-06-23T09:27:08Z</time>
      </trkpt>
      <trkpt lat="42.885942030698061" lon="-2.390047973021865">
        <ele>581.60000000000002</ele>
        <time>2019-06-23T09:27:10Z</time>
      </trkpt>
      <trkpt lat="42.886072034016252" lon="-2.390074040740728">
        <ele>582.20000000000005</ele>
        <time>2019-06-23T09:27:12Z</time>
      </trkpt>
      <trkpt lat="42.88619801402092" lon="-2.390097007155418">
        <ele>582.39999999999998</ele>
        <time>2019-06-23T09:27:14Z</time>
      </trkpt>
      <trkpt lat="42.886323994025588" lon="-2.39012299105525">
        <ele>583</ele>
        <time>2019-06-23T09:27:16Z</time>
      </trkpt>
      <trkpt lat="42.886449974030256" lon="-2.390147969126701">
        <ele>583.39999999999998</ele>
        <time>2019-06-23T09:27:18Z</time>
      </trkpt>
      <trkpt lat="42.886574026197195" lon="-2.390171019360423">
        <ele>583.60000000000002</ele>
        <time>2019-06-23T09:27:20Z</time>
      </trkpt>
      <trkpt lat="42.886634962633252" lon="-2.39018501713872">
        <ele>583.79999999999995</ele>
        <time>2019-06-23T09:27:21Z</time>
      </trkpt>
      <trkpt lat="42.88669497705996" lon="-2.390198009088635">
        <ele>584.20000000000005</ele>
        <time>2019-06-23T09:27:22Z</time>
      </trkpt>
      <trkpt lat="42.886815005913377" lon="-2.390220975503326">
        <ele>584.60000000000002</ele>
        <time>2019-06-23T09:27:24Z</time>
      </trkpt>
      <trkpt lat="42.886935034766793" lon="-2.390241008251905">
        <ele>585</ele>
        <time>2019-06-23T09:27:26Z</time>
      </trkpt>
      <trkpt lat="42.886993959546089" lon="-2.390248971059918">
        <ele>585.39999999999998</ele>
        <time>2019-06-23T09:27:27Z</time>
      </trkpt>
      <trkpt lat="42.887053973972797" lon="-2.390252994373441">
        <ele>585.60000000000002</ele>
        <time>2019-06-23T09:27:28Z</time>
      </trkpt>
      <trkpt lat="42.887175008654594" lon="-2.390243019908667">
        <ele>585.79999999999995</ele>
        <time>2019-06-23T09:27:30Z</time>
      </trkpt>
      <trkpt lat="42.88729403167963" lon="-2.390214018523693">
        <ele>586</ele>
        <time>2019-06-23T09:27:32Z</time>
      </trkpt>
      <trkpt lat="42.887352034449577" lon="-2.390189962461591">
        <ele>586.39999999999998</ele>
        <time>2019-06-23T09:27:33Z</time>
      </trkpt>
      <trkpt lat="42.887410037219524" lon="-2.390162972733378">
        <ele>586.60000000000002</ele>
        <time>2019-06-23T09:27:34Z</time>
      </trkpt>
      <trkpt lat="42.887467034161091" lon="-2.390131959691644">
        <ele>586.79999999999995</ele>
        <time>2019-06-23T09:27:35Z</time>
      </trkpt>
      <trkpt lat="42.887522019445896" lon="-2.390098012983799">
        <ele>586.79999999999995</ele>
        <time>2019-06-23T09:27:36Z</time>
      </trkpt>
      <trkpt lat="42.887628972530365" lon="-2.390018971636891">
        <ele>587.20000000000005</ele>
        <time>2019-06-23T09:27:38Z</time>
      </trkpt>
      <trkpt lat="42.887733997777104" lon="-2.389934984967113">
        <ele>587.39999999999998</ele>
        <time>2019-06-23T09:27:40Z</time>
      </trkpt>
      <trkpt lat="42.887839023023844" lon="-2.389847980812192">
        <ele>587.79999999999995</ele>
        <time>2019-06-23T09:27:42Z</time>
      </trkpt>
      <trkpt lat="42.887944970279932" lon="-2.389760976657271">
        <ele>588.20000000000005</ele>
        <time>2019-06-23T09:27:44Z</time>
      </trkpt>
      <trkpt lat="42.887997021898627" lon="-2.38971596583724">
        <ele>588.20000000000005</ele>
        <time>2019-06-23T09:27:45Z</time>
      </trkpt>
      <trkpt lat="42.888048989698291" lon="-2.38967196084559">
        <ele>588.39999999999998</ele>
        <time>2019-06-23T09:27:46Z</time>
      </trkpt>
      <trkpt lat="42.888152003288269" lon="-2.38958596251905">
        <ele>588.39999999999998</ele>
        <time>2019-06-23T09:27:48Z</time>
      </trkpt>
      <trkpt lat="42.888256022706628" lon="-2.38950097002089">
        <ele>588.39999999999998</ele>
        <time>2019-06-23T09:27:50Z</time>
      </trkpt>
      <trkpt lat="42.888306984677911" lon="-2.38945797085762">
        <ele>588.60000000000002</ele>
        <time>2019-06-23T09:27:51Z</time>
      </trkpt>
      <trkpt lat="42.888359036296606" lon="-2.389416983351111">
        <ele>588.60000000000002</ele>
        <time>2019-06-23T09:27:52Z</time>
      </trkpt>
      <trkpt lat="42.888456014916301" lon="-2.389332996681333">
        <ele>588.79999999999995</ele>
        <time>2019-06-23T09:27:54Z</time>
      </trkpt>
      <trkpt lat="42.888551987707615" lon="-2.389253033325076">
        <ele>589</ele>
        <time>2019-06-23T09:27:56Z</time>
      </trkpt>
      <trkpt lat="42.8886460326612" lon="-2.389173991978169">
        <ele>589.39999999999998</ele>
        <time>2019-06-23T09:27:58Z</time>
      </trkpt>
      <trkpt lat="42.888738987967372" lon="-2.389096962288022">
        <ele>589.60000000000002</ele>
        <time>2019-06-23T09:28:00Z</time>
      </trkpt>
      <trkpt lat="42.888834038749337" lon="-2.389020016416907">
        <ele>590.39999999999998</ele>
        <time>2019-06-23T09:28:02Z</time>
      </trkpt>
      <trkpt lat="42.888931017369032" lon="-2.388939969241619">
        <ele>590.79999999999995</ele>
        <time>2019-06-23T09:28:04Z</time>
      </trkpt>
      <trkpt lat="42.88903595879674" lon="-2.388856988400221">
        <ele>591.60000000000002</ele>
        <time>2019-06-23T09:28:06Z</time>
      </trkpt>
      <trkpt lat="42.889149030670524" lon="-2.38876897841692">
        <ele>592.60000000000002</ele>
        <time>2019-06-23T09:28:08Z</time>
      </trkpt>
      <trkpt lat="42.889272999018431" lon="-2.388693038374186">
        <ele>593</ele>
        <time>2019-06-23T09:28:10Z</time>
      </trkpt>
      <trkpt lat="42.889341982081532" lon="-2.388663031160832">
        <ele>592.79999999999995</ele>
        <time>2019-06-23T09:28:11Z</time>
      </trkpt>
      <trkpt lat="42.889413982629776" lon="-2.388637969270349">
        <ele>593</ele>
        <time>2019-06-23T09:28:12Z</time>
      </trkpt>
      <trkpt lat="42.889489000663161" lon="-2.3886180203408">
        <ele>593</ele>
        <time>2019-06-23T09:28:13Z</time>
      </trkpt>
      <trkpt lat="42.889566030353308" lon="-2.388603016734123">
        <ele>593</ele>
        <time>2019-06-23T09:28:14Z</time>
      </trkpt>
      <trkpt lat="42.889727968722582" lon="-2.388580972328782">
        <ele>593</ele>
        <time>2019-06-23T09:28:16Z</time>
      </trkpt>
      <trkpt lat="42.889812039211392" lon="-2.388573009520769">
        <ele>593</ele>
        <time>2019-06-23T09:28:17Z</time>
      </trkpt>
      <trkpt lat="42.889897031709552" lon="-2.388565968722105">
        <ele>593</ele>
        <time>2019-06-23T09:28:18Z</time>
      </trkpt>
      <trkpt lat="42.889983030036092" lon="-2.388557000085712">
        <ele>592.39999999999998</ele>
        <time>2019-06-23T09:28:19Z</time>
      </trkpt>
      <trkpt lat="42.890071040019393" lon="-2.388547025620937">
        <ele>592.60000000000002</ele>
        <time>2019-06-23T09:28:20Z</time>
      </trkpt>
      <trkpt lat="42.890159972012043" lon="-2.388537973165512">
        <ele>592.20000000000005</ele>
        <time>2019-06-23T09:28:21Z</time>
      </trkpt>
      <trkpt lat="42.890250999480486" lon="-2.388527998700738">
        <ele>591.79999999999995</ele>
        <time>2019-06-23T09:28:22Z</time>
      </trkpt>
      <trkpt lat="42.890343032777309" lon="-2.388518024235964">
        <ele>591.39999999999998</ele>
        <time>2019-06-23T09:28:23Z</time>
      </trkpt>
      <trkpt lat="42.890435988083482" lon="-2.388507965952158">
        <ele>591.20000000000005</ele>
        <time>2019-06-23T09:28:24Z</time>
      </trkpt>
      <trkpt lat="42.890622988343239" lon="-2.388487011194229">
        <ele>590.39999999999998</ele>
        <time>2019-06-23T09:28:26Z</time>
      </trkpt>
      <trkpt lat="42.890718039125204" lon="-2.388475025072694">
        <ele>590</ele>
        <time>2019-06-23T09:28:27Z</time>
      </trkpt>
      <trkpt lat="42.890813006088138" lon="-2.388463038951159">
        <ele>589.60000000000002</ele>
        <time>2019-06-23T09:28:28Z</time>
      </trkpt>
      <trkpt lat="42.891005035489798" lon="-2.388439988717437">
        <ele>588.79999999999995</ele>
        <time>2019-06-23T09:28:30Z</time>
      </trkpt>
      <trkpt lat="42.891102014109492" lon="-2.388429008424282">
        <ele>588.60000000000002</ele>
        <time>2019-06-23T09:28:31Z</time>
      </trkpt>
      <trkpt lat="42.891198992729187" lon="-2.388420039787889">
        <ele>588.20000000000005</ele>
        <time>2019-06-23T09:28:32Z</time>
      </trkpt>
      <trkpt lat="42.891297983005643" lon="-2.388408975675702">
        <ele>587.79999999999995</ele>
        <time>2019-06-23T09:28:33Z</time>
      </trkpt>
      <trkpt lat="42.891395967453718" lon="-2.388396989554167">
        <ele>587.60000000000002</ele>
        <time>2019-06-23T09:28:34Z</time>
      </trkpt>
      <trkpt lat="42.891595037654042" lon="-2.388373017311096">
        <ele>586.39999999999998</ele>
        <time>2019-06-23T09:28:36Z</time>
      </trkpt>
      <trkpt lat="42.891795029863715" lon="-2.388348961248994">
        <ele>585.60000000000002</ele>
        <time>2019-06-23T09:28:38Z</time>
      </trkpt>
      <trkpt lat="42.891993010416627" lon="-2.388327000662684">
        <ele>584.79999999999995</ele>
        <time>2019-06-23T09:28:40Z</time>
      </trkpt>
      <trkpt lat="42.892188979312778" lon="-2.388305962085724">
        <ele>584.20000000000005</ele>
        <time>2019-06-23T09:28:42Z</time>
      </trkpt>
      <trkpt lat="42.892382014542818" lon="-2.388281989842653">
        <ele>583.60000000000002</ele>
        <time>2019-06-23T09:28:44Z</time>
      </trkpt>
      <trkpt lat="42.892476981505752" lon="-2.388272015377879">
        <ele>583.39999999999998</ele>
        <time>2019-06-23T09:28:45Z</time>
      </trkpt>
      <trkpt lat="42.892571026459336" lon="-2.388262040913105">
        <ele>583.39999999999998</ele>
        <time>2019-06-23T09:28:46Z</time>
      </trkpt>
      <trkpt lat="42.892755009233952" lon="-2.388243013992906">
        <ele>583.20000000000005</ele>
        <time>2019-06-23T09:28:48Z</time>
      </trkpt>
      <trkpt lat="42.892933040857315" lon="-2.388222981244326">
        <ele>583</ele>
        <time>2019-06-23T09:28:50Z</time>
      </trkpt>
      <trkpt lat="42.893105037510395" lon="-2.388203032314777">
        <ele>583</ele>
        <time>2019-06-23T09:28:52Z</time>
      </trkpt>
      <trkpt lat="42.893189024180174" lon="-2.388192974030972">
        <ele>583</ele>
        <time>2019-06-23T09:28:53Z</time>
      </trkpt>
      <trkpt lat="42.893270999193192" lon="-2.388184005394578">
        <ele>583</ele>
        <time>2019-06-23T09:28:54Z</time>
      </trkpt>
      <trkpt lat="42.893350962549448" lon="-2.388175036758184">
        <ele>583.20000000000005</ele>
        <time>2019-06-23T09:28:55Z</time>
      </trkpt>
      <trkpt lat="42.893430003896356" lon="-2.388165984302759">
        <ele>583.39999999999998</ele>
        <time>2019-06-23T09:28:56Z</time>
      </trkpt>
      <trkpt lat="42.893586996942759" lon="-2.388148969039321">
        <ele>583.60000000000002</ele>
        <time>2019-06-23T09:28:58Z</time>
      </trkpt>
      <trkpt lat="42.893739966675639" lon="-2.388132037594914">
        <ele>583.79999999999995</ele>
        <time>2019-06-23T09:29:00Z</time>
      </trkpt>
      <trkpt lat="42.893888996914029" lon="-2.388115022331476">
        <ele>584</ele>
        <time>2019-06-23T09:29:02Z</time>
      </trkpt>
      <trkpt lat="42.894036015495658" lon="-2.388099012896419">
        <ele>584.20000000000005</ele>
        <time>2019-06-23T09:29:04Z</time>
      </trkpt>
      <trkpt lat="42.894181022420526" lon="-2.388083003461361">
        <ele>584</ele>
        <time>2019-06-23T09:29:06Z</time>
      </trkpt>
      <trkpt lat="42.894327035173774" lon="-2.388066994026303">
        <ele>584.20000000000005</ele>
        <time>2019-06-23T09:29:08Z</time>
      </trkpt>
      <trkpt lat="42.89447003044188" lon="-2.388047967106104">
        <ele>584.20000000000005</ele>
        <time>2019-06-23T09:29:10Z</time>
      </trkpt>
      <trkpt lat="42.894614031538367" lon="-2.388031035661697">
        <ele>584.39999999999998</ele>
        <time>2019-06-23T09:29:12Z</time>
      </trkpt>
      <trkpt lat="42.894758032634854" lon="-2.38801502622664">
        <ele>584.60000000000002</ele>
        <time>2019-06-23T09:29:14Z</time>
      </trkpt>
      <trkpt lat="42.894902033731341" lon="-2.38799499347806">
        <ele>584.79999999999995</ele>
        <time>2019-06-23T09:29:16Z</time>
      </trkpt>
      <trkpt lat="42.895045028999448" lon="-2.387978984043002">
        <ele>585.20000000000005</ele>
        <time>2019-06-23T09:29:18Z</time>
      </trkpt>
      <trkpt lat="42.895186012610793" lon="-2.387963980436325">
        <ele>585.39999999999998</ele>
        <time>2019-06-23T09:29:20Z</time>
      </trkpt>
      <trkpt lat="42.895256001502275" lon="-2.387955011799932">
        <ele>585.39999999999998</ele>
        <time>2019-06-23T09:29:21Z</time>
      </trkpt>
      <trkpt lat="42.895324984565377" lon="-2.387945037335157">
        <ele>585.39999999999998</ele>
        <time>2019-06-23T09:29:22Z</time>
      </trkpt>
      <trkpt lat="42.895461022853851" lon="-2.3879290279001">
        <ele>585.60000000000002</ele>
        <time>2019-06-23T09:29:24Z</time>
      </trkpt>
      <trkpt lat="42.895526988431811" lon="-2.387921987101436">
        <ele>585.79999999999995</ele>
        <time>2019-06-23T09:29:25Z</time>
      </trkpt>
      <trkpt lat="42.895593959838152" lon="-2.387913018465042">
        <ele>585.79999999999995</ele>
        <time>2019-06-23T09:29:26Z</time>
      </trkpt>
      <trkpt lat="42.895725974813104" lon="-2.387899020686746">
        <ele>586</ele>
        <time>2019-06-23T09:29:28Z</time>
      </trkpt>
      <trkpt lat="42.895858995616436" lon="-2.38788602873683">
        <ele>586.60000000000002</ele>
        <time>2019-06-23T09:29:30Z</time>
      </trkpt>
      <trkpt lat="42.89599402807653" lon="-2.387869013473392">
        <ele>586.60000000000002</ele>
        <time>2019-06-23T09:29:32Z</time>
      </trkpt>
      <trkpt lat="42.896127970889211" lon="-2.387851998209953">
        <ele>586.60000000000002</ele>
        <time>2019-06-23T09:29:34Z</time>
      </trkpt>
      <trkpt lat="42.896260991692543" lon="-2.387835988774896">
        <ele>586.79999999999995</ele>
        <time>2019-06-23T09:29:36Z</time>
      </trkpt>
      <trkpt lat="42.896393006667495" lon="-2.387820985168219">
        <ele>586.79999999999995</ele>
        <time>2019-06-23T09:29:38Z</time>
      </trkpt>
      <trkpt lat="42.896525021642447" lon="-2.387808999046683">
        <ele>587</ele>
        <time>2019-06-23T09:29:40Z</time>
      </trkpt>
      <trkpt lat="42.896656030789018" lon="-2.387792989611626">
        <ele>587</ele>
        <time>2019-06-23T09:29:42Z</time>
      </trkpt>
      <trkpt lat="42.896787961944938" lon="-2.387777986004949">
        <ele>587.20000000000005</ele>
        <time>2019-06-23T09:29:44Z</time>
      </trkpt>
      <trkpt lat="42.896919976919889" lon="-2.387762982398272">
        <ele>587.39999999999998</ele>
        <time>2019-06-23T09:29:46Z</time>
      </trkpt>
      <trkpt lat="42.897050986066461" lon="-2.387746972963214">
        <ele>587.60000000000002</ele>
        <time>2019-06-23T09:29:48Z</time>
      </trkpt>
      <trkpt lat="42.897183001041412" lon="-2.387733981013298">
        <ele>587.79999999999995</ele>
        <time>2019-06-23T09:29:50Z</time>
      </trkpt>
      <trkpt lat="42.897314010187984" lon="-2.387718977406621">
        <ele>587.79999999999995</ele>
        <time>2019-06-23T09:29:52Z</time>
      </trkpt>
      <trkpt lat="42.897446025162935" lon="-2.387703973799944">
        <ele>588</ele>
        <time>2019-06-23T09:29:54Z</time>
      </trkpt>
      <trkpt lat="42.897577034309506" lon="-2.387686958536506">
        <ele>587.79999999999995</ele>
        <time>2019-06-23T09:29:56Z</time>
      </trkpt>
      <trkpt lat="42.897707037627697" lon="-2.38767203874886">
        <ele>588</ele>
        <time>2019-06-23T09:29:58Z</time>
      </trkpt>
      <trkpt lat="42.897837962955236" lon="-2.387658040970564">
        <ele>588.20000000000005</ele>
        <time>2019-06-23T09:30:00Z</time>
      </trkpt>
      <trkpt lat="42.897970983758569" lon="-2.387643959373236">
        <ele>588.20000000000005</ele>
        <time>2019-06-23T09:30:02Z</time>
      </trkpt>
      <trkpt lat="42.898104004561901" lon="-2.38762803375721">
        <ele>588.20000000000005</ele>
        <time>2019-06-23T09:30:04Z</time>
      </trkpt>
      <trkpt lat="42.898237025365233" lon="-2.387614035978913">
        <ele>588.39999999999998</ele>
        <time>2019-06-23T09:30:06Z</time>
      </trkpt>
      <trkpt lat="42.898369962349534" lon="-2.387599032372236">
        <ele>588.79999999999995</ele>
        <time>2019-06-23T09:30:08Z</time>
      </trkpt>
      <trkpt lat="42.898502983152866" lon="-2.387583022937179">
        <ele>589.20000000000005</ele>
        <time>2019-06-23T09:30:10Z</time>
      </trkpt>
      <trkpt lat="42.898569032549858" lon="-2.387575982138515">
        <ele>589.20000000000005</ele>
        <time>2019-06-23T09:30:11Z</time>
      </trkpt>
      <trkpt lat="42.898633992299438" lon="-2.387568019330502">
        <ele>589.39999999999998</ele>
        <time>2019-06-23T09:30:12Z</time>
      </trkpt>
      <trkpt lat="42.898766007274389" lon="-2.387553015723825">
        <ele>589.39999999999998</ele>
        <time>2019-06-23T09:30:14Z</time>
      </trkpt>
      <trkpt lat="42.89889701642096" lon="-2.387536000460386">
        <ele>589.60000000000002</ele>
        <time>2019-06-23T09:30:16Z</time>
      </trkpt>
      <trkpt lat="42.899027019739151" lon="-2.387520996853709">
        <ele>590</ele>
        <time>2019-06-23T09:30:18Z</time>
      </trkpt>
      <trkpt lat="42.899159034714103" lon="-2.387505993247032">
        <ele>590.20000000000005</ele>
        <time>2019-06-23T09:30:20Z</time>
      </trkpt>
      <trkpt lat="42.899289960041642" lon="-2.387489983811975">
        <ele>590.20000000000005</ele>
        <time>2019-06-23T09:30:22Z</time>
      </trkpt>
      <trkpt lat="42.899355003610253" lon="-2.387483026832342">
        <ele>590.39999999999998</ele>
        <time>2019-06-23T09:30:23Z</time>
      </trkpt>
      <trkpt lat="42.899419963359833" lon="-2.387474980205298">
        <ele>590.39999999999998</ele>
        <time>2019-06-23T09:30:24Z</time>
      </trkpt>
      <trkpt lat="42.899549966678023" lon="-2.387460982427001">
        <ele>590.39999999999998</ele>
        <time>2019-06-23T09:30:26Z</time>
      </trkpt>
      <trkpt lat="42.899678964167833" lon="-2.387445978820324">
        <ele>590.60000000000002</ele>
        <time>2019-06-23T09:30:28Z</time>
      </trkpt>
      <trkpt lat="42.899743001908064" lon="-2.387438016012311">
        <ele>590.60000000000002</ele>
        <time>2019-06-23T09:30:29Z</time>
      </trkpt>
      <trkpt lat="42.899808967486024" lon="-2.387429969385266">
        <ele>590.79999999999995</ele>
        <time>2019-06-23T09:30:30Z</time>
      </trkpt>
      <trkpt lat="42.899938970804214" lon="-2.387413959950209">
        <ele>591</ele>
        <time>2019-06-23T09:30:32Z</time>
      </trkpt>
      <trkpt lat="42.900004014372826" lon="-2.387407002970576">
        <ele>591</ele>
        <time>2019-06-23T09:30:33Z</time>
      </trkpt>
      <trkpt lat="42.900068974122405" lon="-2.387401973828673">
        <ele>591</ele>
        <time>2019-06-23T09:30:34Z</time>
      </trkpt>
      <trkpt lat="42.900134017691016" lon="-2.387395016849041">
        <ele>591.20000000000005</ele>
        <time>2019-06-23T09:30:35Z</time>
      </trkpt>
      <trkpt lat="42.900198977440596" lon="-2.387384958565235">
        <ele>591.39999999999998</ele>
        <time>2019-06-23T09:30:36Z</time>
      </trkpt>
      <trkpt lat="42.900328980758786" lon="-2.387370960786939">
        <ele>591.79999999999995</ele>
        <time>2019-06-23T09:30:38Z</time>
      </trkpt>
      <trkpt lat="42.900394024327397" lon="-2.387365009635687">
        <ele>591.79999999999995</ele>
        <time>2019-06-23T09:30:39Z</time>
      </trkpt>
      <trkpt lat="42.900458984076977" lon="-2.387356963008642">
        <ele>591.79999999999995</ele>
        <time>2019-06-23T09:30:40Z</time>
      </trkpt>
      <trkpt lat="42.900586975738406" lon="-2.387341959401965">
        <ele>592</ele>
        <time>2019-06-23T09:30:42Z</time>
      </trkpt>
      <trkpt lat="42.900713039562106" lon="-2.38732703961432">
        <ele>592.20000000000005</ele>
        <time>2019-06-23T09:30:44Z</time>
      </trkpt>
      <trkpt lat="42.900775987654924" lon="-2.387319998815656">
        <ele>592</ele>
        <time>2019-06-23T09:30:45Z</time>
      </trkpt>
      <trkpt lat="42.900839019566774" lon="-2.387313041836023">
        <ele>592</ele>
        <time>2019-06-23T09:30:46Z</time>
      </trkpt>
      <trkpt lat="42.900963993743062" lon="-2.387298960238695">
        <ele>592.20000000000005</ele>
        <time>2019-06-23T09:30:48Z</time>
      </trkpt>
      <trkpt lat="42.901027025654912" lon="-2.387289991602302">
        <ele>592.39999999999998</ele>
        <time>2019-06-23T09:30:49Z</time>
      </trkpt>
      <trkpt lat="42.901087962090969" lon="-2.387281022965908">
        <ele>592.60000000000002</ele>
        <time>2019-06-23T09:30:50Z</time>
      </trkpt>
      <trkpt lat="42.901203967630863" lon="-2.387261996045709">
        <ele>592.60000000000002</ele>
        <time>2019-06-23T09:30:52Z</time>
      </trkpt>
      <trkpt lat="42.901318967342377" lon="-2.387245986610651">
        <ele>593.20000000000005</ele>
        <time>2019-06-23T09:30:54Z</time>
      </trkpt>
      <trkpt lat="42.90143103338778" lon="-2.387230983003974">
        <ele>593.60000000000002</ele>
        <time>2019-06-23T09:30:56Z</time>
      </trkpt>
      <trkpt lat="42.901542009785771" lon="-2.387208016589284">
        <ele>594.20000000000005</ele>
        <time>2019-06-23T09:30:58Z</time>
      </trkpt>
      <trkpt lat="42.901598000898957" lon="-2.387193012982607">
        <ele>594.39999999999998</ele>
        <time>2019-06-23T09:30:59Z</time>
      </trkpt>
      <trkpt lat="42.901652986183763" lon="-2.38717901520431">
        <ele>594.60000000000002</ele>
        <time>2019-06-23T09:31:00Z</time>
      </trkpt>
      <trkpt lat="42.901707971468568" lon="-2.387160994112492">
        <ele>594.60000000000002</ele>
        <time>2019-06-23T09:31:01Z</time>
      </trkpt>
      <trkpt lat="42.901762034744024" lon="-2.387137021869421">
        <ele>595</ele>
        <time>2019-06-23T09:31:02Z</time>
      </trkpt>
      <trkpt lat="42.901877034455538" lon="-2.387082036584616">
        <ele>595.60000000000002</ele>
        <time>2019-06-23T09:31:04Z</time>
      </trkpt>
      <trkpt lat="42.901934031397104" lon="-2.387053035199642">
        <ele>596.20000000000005</ele>
        <time>2019-06-23T09:31:05Z</time>
      </trkpt>
      <trkpt lat="42.901992034167051" lon="-2.387023027986288">
        <ele>596.60000000000002</ele>
        <time>2019-06-23T09:31:06Z</time>
      </trkpt>
      <trkpt lat="42.902112985029817" lon="-2.38696401938796">
        <ele>597.39999999999998</ele>
        <time>2019-06-23T09:31:08Z</time>
      </trkpt>
      <trkpt lat="42.902237037196755" lon="-2.386897969990969">
        <ele>597.79999999999995</ele>
        <time>2019-06-23T09:31:10Z</time>
      </trkpt>
      <trkpt lat="42.902299985289574" lon="-2.386862011626363">
        <ele>597.79999999999995</ele>
        <time>2019-06-23T09:31:11Z</time>
      </trkpt>
      <trkpt lat="42.902364023029804" lon="-2.386827981099486">
        <ele>598</ele>
        <time>2019-06-23T09:31:12Z</time>
      </trkpt>
      <trkpt lat="42.902492014691234" lon="-2.386763021349907">
        <ele>598</ele>
        <time>2019-06-23T09:31:14Z</time>
      </trkpt>
      <trkpt lat="42.902616988867521" lon="-2.386692026630044">
        <ele>597.79999999999995</ele>
        <time>2019-06-23T09:31:16Z</time>
      </trkpt>
      <trkpt lat="42.902739029377699" lon="-2.386613991111517">
        <ele>597.79999999999995</ele>
        <time>2019-06-23T09:31:18Z</time>
      </trkpt>
      <trkpt lat="42.90285000577569" lon="-2.386524975299835">
        <ele>598</ele>
        <time>2019-06-23T09:31:20Z</time>
      </trkpt>
      <trkpt lat="42.902899961918592" lon="-2.386479964479804">
        <ele>597.79999999999995</ele>
        <time>2019-06-23T09:31:21Z</time>
      </trkpt>
      <trkpt lat="42.902947990223765" lon="-2.386435037478805">
        <ele>597.79999999999995</ele>
        <time>2019-06-23T09:31:22Z</time>
      </trkpt>
      <trkpt lat="42.903041029348969" lon="-2.386345015838742">
        <ele>598</ele>
        <time>2019-06-23T09:31:24Z</time>
      </trkpt>
      <trkpt lat="42.903086040169001" lon="-2.386303022503853">
        <ele>597.79999999999995</ele>
        <time>2019-06-23T09:31:25Z</time>
      </trkpt>
      <trkpt lat="42.90312803350389" lon="-2.386261029168963">
        <ele>598</ele>
        <time>2019-06-23T09:31:26Z</time>
      </trkpt>
      <trkpt lat="42.903170026838779" lon="-2.386218030005693">
        <ele>597.79999999999995</ele>
        <time>2019-06-23T09:31:27Z</time>
      </trkpt>
      <trkpt lat="42.903213026002049" lon="-2.386176036670804">
        <ele>598</ele>
        <time>2019-06-23T09:31:28Z</time>
      </trkpt>
      <trkpt lat="42.9032570309937" lon="-2.386136977002025">
        <ele>598.39999999999998</ele>
        <time>2019-06-23T09:31:29Z</time>
      </trkpt>
      <trkpt lat="42.90330003015697" lon="-2.386095989495516">
        <ele>598.79999999999995</ele>
        <time>2019-06-23T09:31:30Z</time>
      </trkpt>
      <trkpt lat="42.903385022655129" lon="-2.386015020310879">
        <ele>599.20000000000005</ele>
        <time>2019-06-23T09:31:32Z</time>
      </trkpt>
      <trkpt lat="42.903468003496528" lon="-2.38593396730721">
        <ele>600</ele>
        <time>2019-06-23T09:31:34Z</time>
      </trkpt>
      <trkpt lat="42.903509996831417" lon="-2.385895997285843">
        <ele>600.39999999999998</ele>
        <time>2019-06-23T09:31:35Z</time>
      </trkpt>
      <trkpt lat="42.903552995994687" lon="-2.385857021436095">
        <ele>600.60000000000002</ele>
        <time>2019-06-23T09:31:36Z</time>
      </trkpt>
      <trkpt lat="42.903638994321227" lon="-2.385778985917568">
        <ele>601.20000000000005</ele>
        <time>2019-06-23T09:31:38Z</time>
      </trkpt>
      <trkpt lat="42.903727004304528" lon="-2.385700028389692">
        <ele>601.60000000000002</ele>
        <time>2019-06-23T09:31:40Z</time>
      </trkpt>
      <trkpt lat="42.903818031772971" lon="-2.385618975386024">
        <ele>602.20000000000005</ele>
        <time>2019-06-23T09:31:42Z</time>
      </trkpt>
      <trkpt lat="42.903862958773971" lon="-2.385579999536276">
        <ele>602.60000000000002</ele>
        <time>2019-06-23T09:31:43Z</time>
      </trkpt>
      <trkpt lat="42.903907969594002" lon="-2.385540017858148">
        <ele>603</ele>
        <time>2019-06-23T09:31:44Z</time>
      </trkpt>
      <trkpt lat="42.904001008719206" lon="-2.385461982339621">
        <ele>603.39999999999998</ele>
        <time>2019-06-23T09:31:46Z</time>
      </trkpt>
      <trkpt lat="42.904092036187649" lon="-2.385383024811745">
        <ele>603.60000000000002</ele>
        <time>2019-06-23T09:31:48Z</time>
      </trkpt>
      <trkpt lat="42.904178034514189" lon="-2.385307000949979">
        <ele>603.79999999999995</ele>
        <time>2019-06-23T09:31:50Z</time>
      </trkpt>
      <trkpt lat="42.904253974556923" lon="-2.385242041200399">
        <ele>603.79999999999995</ele>
        <time>2019-06-23T09:31:52Z</time>
      </trkpt>
      <trkpt lat="42.904279036447406" lon="-2.385214967653155">
        <ele>603.79999999999995</ele>
        <time>2019-06-23T09:31:53Z</time>
      </trkpt>
      <trkpt lat="42.904298985376954" lon="-2.385193007066846">
        <ele>603.79999999999995</ele>
        <time>2019-06-23T09:31:54Z</time>
      </trkpt>
      <trkpt lat="42.904334021732211" lon="-2.385166017338634">
        <ele>604</ele>
        <time>2019-06-23T09:31:56Z</time>
      </trkpt>
      <trkpt lat="42.904358999803662" lon="-2.385166017338634">
        <ele>604</ele>
        <time>2019-06-23T09:31:57Z</time>
      </trkpt>
      <trkpt lat="42.904385989531875" lon="-2.38518001511693">
        <ele>604</ele>
        <time>2019-06-23T09:31:58Z</time>
      </trkpt>
      <trkpt lat="42.904413985088468" lon="-2.385207004845142">
        <ele>604</ele>
        <time>2019-06-23T09:31:59Z</time>
      </trkpt>
      <trkpt lat="42.90444097481668" lon="-2.385243969038129">
        <ele>604.20000000000005</ele>
        <time>2019-06-23T09:32:00Z</time>
      </trkpt>
      <trkpt lat="42.904494032263756" lon="-2.385338013991714">
        <ele>604.79999999999995</ele>
        <time>2019-06-23T09:32:02Z</time>
      </trkpt>
      <trkpt lat="42.904544994235039" lon="-2.385445972904563">
        <ele>605.20000000000005</ele>
        <time>2019-06-23T09:32:04Z</time>
      </trkpt>
      <trkpt lat="42.904595034196973" lon="-2.385562984272838">
        <ele>605.60000000000002</ele>
        <time>2019-06-23T09:32:06Z</time>
      </trkpt>
      <trkpt lat="42.904643984511495" lon="-2.385683013126254">
        <ele>605.79999999999995</ele>
        <time>2019-06-23T09:32:08Z</time>
      </trkpt>
      <trkpt lat="42.90469603613019" lon="-2.385811004787684">
        <ele>606</ele>
        <time>2019-06-23T09:32:10Z</time>
      </trkpt>
      <trkpt lat="42.904746998101473" lon="-2.38593396730721">
        <ele>606.20000000000005</ele>
        <time>2019-06-23T09:32:12Z</time>
      </trkpt>
      <trkpt lat="42.904797038063407" lon="-2.386055001989007">
        <ele>606.20000000000005</ele>
        <time>2019-06-23T09:32:14Z</time>
      </trkpt>
      <trkpt lat="42.904843976721168" lon="-2.386174025014043">
        <ele>606.60000000000002</ele>
        <time>2019-06-23T09:32:16Z</time>
      </trkpt>
      <trkpt lat="42.90486903861165" lon="-2.38623202778399">
        <ele>607</ele>
        <time>2019-06-23T09:32:17Z</time>
      </trkpt>
      <trkpt lat="42.904894016683102" lon="-2.386290030553937">
        <ele>607</ele>
        <time>2019-06-23T09:32:18Z</time>
      </trkpt>
      <trkpt lat="42.904941039159894" lon="-2.386407963931561">
        <ele>607.39999999999998</ele>
        <time>2019-06-23T09:32:20Z</time>
      </trkpt>
      <trkpt lat="42.904987977817655" lon="-2.386526986956596">
        <ele>607.60000000000002</ele>
        <time>2019-06-23T09:32:22Z</time>
      </trkpt>
      <trkpt lat="42.905037011951208" lon="-2.38664198666811">
        <ele>608.79999999999995</ele>
        <time>2019-06-23T09:32:24Z</time>
      </trkpt>
      <trkpt lat="42.905085040256381" lon="-2.386756986379623">
        <ele>609.20000000000005</ele>
        <time>2019-06-23T09:32:26Z</time>
      </trkpt>
      <trkpt lat="42.905109012499452" lon="-2.38681398332119">
        <ele>609.39999999999998</ele>
        <time>2019-06-23T09:32:27Z</time>
      </trkpt>
      <trkpt lat="42.905131978914142" lon="-2.386871986091137">
        <ele>609.60000000000002</ele>
        <time>2019-06-23T09:32:28Z</time>
      </trkpt>
      <trkpt lat="42.905156034976244" lon="-2.386929988861084">
        <ele>609.60000000000002</ele>
        <time>2019-06-23T09:32:29Z</time>
      </trkpt>
      <trkpt lat="42.905179001390934" lon="-2.386988997459412">
        <ele>610</ele>
        <time>2019-06-23T09:32:30Z</time>
      </trkpt>
      <trkpt lat="42.905201967805624" lon="-2.38704901188612">
        <ele>610.20000000000005</ele>
        <time>2019-06-23T09:32:31Z</time>
      </trkpt>
      <trkpt lat="42.905225018039346" lon="-2.387108020484448">
        <ele>610.60000000000002</ele>
        <time>2019-06-23T09:32:32Z</time>
      </trkpt>
      <trkpt lat="42.905248990282416" lon="-2.387169040739536">
        <ele>610.60000000000002</ele>
        <time>2019-06-23T09:32:33Z</time>
      </trkpt>
      <trkpt lat="42.905272962525487" lon="-2.387228971347213">
        <ele>611</ele>
        <time>2019-06-23T09:32:34Z</time>
      </trkpt>
      <trkpt lat="42.905296012759209" lon="-2.387289991602302">
        <ele>611.20000000000005</ele>
        <time>2019-06-23T09:32:35Z</time>
      </trkpt>
      <trkpt lat="42.905318979173899" lon="-2.387354029342532">
        <ele>611.60000000000002</ele>
        <time>2019-06-23T09:32:36Z</time>
      </trkpt>
      <trkpt lat="42.905360972508788" lon="-2.387486966326833">
        <ele>612.39999999999998</ele>
        <time>2019-06-23T09:32:38Z</time>
      </trkpt>
      <trkpt lat="42.905401038005948" lon="-2.38763096742332">
        <ele>613.39999999999998</ele>
        <time>2019-06-23T09:32:40Z</time>
      </trkpt>
      <trkpt lat="42.905419981107116" lon="-2.387705985456705">
        <ele>614</ele>
        <time>2019-06-23T09:32:41Z</time>
      </trkpt>
      <trkpt lat="42.905438002198935" lon="-2.387785026803613">
        <ele>614</ele>
        <time>2019-06-23T09:32:42Z</time>
      </trkpt>
      <trkpt lat="42.905474966391921" lon="-2.38795300014317">
        <ele>614.20000000000005</ele>
        <time>2019-06-23T09:32:44Z</time>
      </trkpt>
      <trkpt lat="42.905515031889081" lon="-2.388129020109773">
        <ele>614.20000000000005</ele>
        <time>2019-06-23T09:32:46Z</time>
      </trkpt>
      <trkpt lat="42.90555702522397" lon="-2.388318032026291">
        <ele>614.20000000000005</ele>
        <time>2019-06-23T09:32:48Z</time>
      </trkpt>
      <trkpt lat="42.90560002438724" lon="-2.388516012579203">
        <ele>614.20000000000005</ele>
        <time>2019-06-23T09:32:50Z</time>
      </trkpt>
      <trkpt lat="42.905645035207272" lon="-2.388721033930779">
        <ele>614.20000000000005</ele>
        <time>2019-06-23T09:32:52Z</time>
      </trkpt>
      <trkpt lat="42.905689962208271" lon="-2.388931000605226">
        <ele>613.79999999999995</ele>
        <time>2019-06-23T09:32:54Z</time>
      </trkpt>
      <trkpt lat="42.905713012441993" lon="-2.389037031680346">
        <ele>613.60000000000002</ele>
        <time>2019-06-23T09:32:55Z</time>
      </trkpt>
      <trkpt lat="42.905735978856683" lon="-2.389142978936434">
        <ele>613</ele>
        <time>2019-06-23T09:32:56Z</time>
      </trkpt>
      <trkpt lat="42.905785012990236" lon="-2.389356968924403">
        <ele>612.60000000000002</ele>
        <time>2019-06-23T09:32:58Z</time>
      </trkpt>
      <trkpt lat="42.905832035467029" lon="-2.389575988054276">
        <ele>612.20000000000005</ele>
        <time>2019-06-23T09:33:00Z</time>
      </trkpt>
      <trkpt lat="42.905878974124789" lon="-2.38979802466929">
        <ele>611.79999999999995</ele>
        <time>2019-06-23T09:33:02Z</time>
      </trkpt>
      <trkpt lat="42.905903030186892" lon="-2.389910006895661">
        <ele>611.60000000000002</ele>
        <time>2019-06-23T09:33:03Z</time>
      </trkpt>
      <trkpt lat="42.905928008258343" lon="-2.390021989122033">
        <ele>611.39999999999998</ele>
        <time>2019-06-23T09:33:04Z</time>
      </trkpt>
      <trkpt lat="42.905951980501413" lon="-2.390134977176786">
        <ele>611.39999999999998</ele>
        <time>2019-06-23T09:33:05Z</time>
      </trkpt>
      <trkpt lat="42.905976958572865" lon="-2.390248971059918">
        <ele>611.20000000000005</ele>
        <time>2019-06-23T09:33:06Z</time>
      </trkpt>
      <trkpt lat="42.90602901019156" lon="-2.390475030988455">
        <ele>611</ele>
        <time>2019-06-23T09:33:08Z</time>
      </trkpt>
      <trkpt lat="42.906078966334462" lon="-2.390703018754721">
        <ele>610.79999999999995</ele>
        <time>2019-06-23T09:33:10Z</time>
      </trkpt>
      <trkpt lat="42.906126994639635" lon="-2.390933018177748">
        <ele>610.79999999999995</ele>
        <time>2019-06-23T09:33:12Z</time>
      </trkpt>
      <trkpt lat="42.906176028773189" lon="-2.391161005944014">
        <ele>610.39999999999998</ele>
        <time>2019-06-23T09:33:14Z</time>
      </trkpt>
      <trkpt lat="42.90620201267302" lon="-2.391273993998766">
        <ele>610.20000000000005</ele>
        <time>2019-06-23T09:33:15Z</time>
      </trkpt>
      <trkpt lat="42.906227996572852" lon="-2.391385976225138">
        <ele>609.79999999999995</ele>
        <time>2019-06-23T09:33:16Z</time>
      </trkpt>
      <trkpt lat="42.906277030706406" lon="-2.391608012840152">
        <ele>609.39999999999998</ele>
        <time>2019-06-23T09:33:18Z</time>
      </trkpt>
      <trkpt lat="42.906322963535786" lon="-2.391828037798405">
        <ele>609.39999999999998</ele>
        <time>2019-06-23T09:33:20Z</time>
      </trkpt>
      <trkpt lat="42.906369986012578" lon="-2.392045967280865">
        <ele>609.20000000000005</ele>
        <time>2019-06-23T09:33:22Z</time>
      </trkpt>
      <trkpt lat="42.906419020146132" lon="-2.392262974753976">
        <ele>609.20000000000005</ele>
        <time>2019-06-23T09:33:24Z</time>
      </trkpt>
      <trkpt lat="42.906467970460653" lon="-2.392479982227087">
        <ele>609</ele>
        <time>2019-06-23T09:33:26Z</time>
      </trkpt>
      <trkpt lat="42.906514992937446" lon="-2.39270000718534">
        <ele>609</ele>
        <time>2019-06-23T09:33:28Z</time>
      </trkpt>
      <trkpt lat="42.906564027070999" lon="-2.392921959981322">
        <ele>609.20000000000005</ele>
        <time>2019-06-23T09:33:30Z</time>
      </trkpt>
      <trkpt lat="42.906613983213902" lon="-2.393146008253098">
        <ele>609.20000000000005</ele>
        <time>2019-06-23T09:33:32Z</time>
      </trkpt>
      <trkpt lat="42.906662011519074" lon="-2.393373996019363">
        <ele>609.39999999999998</ele>
        <time>2019-06-23T09:33:34Z</time>
      </trkpt>
      <trkpt lat="42.906710961833596" lon="-2.393601983785629">
        <ele>609.39999999999998</ele>
        <time>2019-06-23T09:33:36Z</time>
      </trkpt>
      <trkpt lat="42.90676100179553" lon="-2.393831983208656">
        <ele>609.39999999999998</ele>
        <time>2019-06-23T09:33:38Z</time>
      </trkpt>
      <trkpt lat="42.906811963766813" lon="-2.394067011773586">
        <ele>609.39999999999998</ele>
        <time>2019-06-23T09:33:40Z</time>
      </trkpt>
      <trkpt lat="42.906864015385509" lon="-2.394302962347865">
        <ele>609.20000000000005</ele>
        <time>2019-06-23T09:33:42Z</time>
      </trkpt>
      <trkpt lat="42.906915983185172" lon="-2.394540002569556">
        <ele>609.20000000000005</ele>
        <time>2019-06-23T09:33:44Z</time>
      </trkpt>
      <trkpt lat="42.906969040632248" lon="-2.394776958972216">
        <ele>608.39999999999998</ele>
        <time>2019-06-23T09:33:46Z</time>
      </trkpt>
      <trkpt lat="42.907023020088673" lon="-2.39501902833581">
        <ele>608</ele>
        <time>2019-06-23T09:33:48Z</time>
      </trkpt>
      <trkpt lat="42.907076999545097" lon="-2.395263025537133">
        <ele>607.79999999999995</ele>
        <time>2019-06-23T09:33:50Z</time>
      </trkpt>
      <trkpt lat="42.907126033678651" lon="-2.395510962232947">
        <ele>607.60000000000002</ele>
        <time>2019-06-23T09:33:52Z</time>
      </trkpt>
      <trkpt lat="42.90714698843658" lon="-2.395637026056647">
        <ele>607.60000000000002</ele>
        <time>2019-06-23T09:33:53Z</time>
      </trkpt>
      <trkpt lat="42.907164003700018" lon="-2.395765017718077">
        <ele>607.39999999999998</ele>
        <time>2019-06-23T09:33:54Z</time>
      </trkpt>
      <trkpt lat="42.907184958457947" lon="-2.396027036011219">
        <ele>607.39999999999998</ele>
        <time>2019-06-23T09:33:56Z</time>
      </trkpt>
      <trkpt lat="42.907199040055275" lon="-2.396291987970471">
        <ele>607.39999999999998</ele>
        <time>2019-06-23T09:33:58Z</time>
      </trkpt>
      <trkpt lat="42.907213037833571" lon="-2.396560041233897">
        <ele>607</ele>
        <time>2019-06-23T09:34:00Z</time>
      </trkpt>
      <trkpt lat="42.907219994813204" lon="-2.396694989874959">
        <ele>607</ele>
        <time>2019-06-23T09:34:01Z</time>
      </trkpt>
      <trkpt lat="42.907225023955107" lon="-2.396830022335053">
        <ele>607</ele>
        <time>2019-06-23T09:34:02Z</time>
      </trkpt>
      <trkpt lat="42.907239021733403" lon="-2.39710402674973">
        <ele>606.60000000000002</ele>
        <time>2019-06-23T09:34:04Z</time>
      </trkpt>
      <trkpt lat="42.907255031168461" lon="-2.397379959002137">
        <ele>606.39999999999998</ele>
        <time>2019-06-23T09:34:06Z</time>
      </trkpt>
      <trkpt lat="42.907268023118377" lon="-2.397657986730337">
        <ele>606</ele>
        <time>2019-06-23T09:34:08Z</time>
      </trkpt>
      <trkpt lat="42.907274980098009" lon="-2.397797964513302">
        <ele>606</ele>
        <time>2019-06-23T09:34:09Z</time>
      </trkpt>
      <trkpt lat="42.907282020896673" lon="-2.397938026115298">
        <ele>606</ele>
        <time>2019-06-23T09:34:10Z</time>
      </trkpt>
      <trkpt lat="42.907295012846589" lon="-2.398218987509608">
        <ele>605.60000000000002</ele>
        <time>2019-06-23T09:34:12Z</time>
      </trkpt>
      <trkpt lat="42.907311022281647" lon="-2.398499026894569">
        <ele>604.20000000000005</ele>
        <time>2019-06-23T09:34:14Z</time>
      </trkpt>
      <trkpt lat="42.907326025888324" lon="-2.398775964975357">
        <ele>603</ele>
        <time>2019-06-23T09:34:16Z</time>
      </trkpt>
      <trkpt lat="42.907341029495001" lon="-2.399054998531938">
        <ele>602.39999999999998</ele>
        <time>2019-06-23T09:34:18Z</time>
      </trkpt>
      <trkpt lat="42.907346980646253" lon="-2.399192964658141">
        <ele>602</ele>
        <time>2019-06-23T09:34:19Z</time>
      </trkpt>
      <trkpt lat="42.907354021444917" lon="-2.399331014603376">
        <ele>602</ele>
        <time>2019-06-23T09:34:20Z</time>
      </trkpt>
      <trkpt lat="42.907367013394833" lon="-2.399605019018054">
        <ele>601.39999999999998</ele>
        <time>2019-06-23T09:34:22Z</time>
      </trkpt>
      <trkpt lat="42.907380005344748" lon="-2.399871982634068">
        <ele>601</ele>
        <time>2019-06-23T09:34:24Z</time>
      </trkpt>
      <trkpt lat="42.907392997294664" lon="-2.400136012583971">
        <ele>600.20000000000005</ele>
        <time>2019-06-23T09:34:26Z</time>
      </trkpt>
      <trkpt lat="42.907409006729722" lon="-2.400398030877113">
        <ele>600</ele>
        <time>2019-06-23T09:34:28Z</time>
      </trkpt>
      <trkpt lat="42.907419987022877" lon="-2.400660971179605">
        <ele>600</ele>
        <time>2019-06-23T09:34:30Z</time>
      </trkpt>
      <trkpt lat="42.907429961487651" lon="-2.400922989472747">
        <ele>599.60000000000002</ele>
        <time>2019-06-23T09:34:32Z</time>
      </trkpt>
      <trkpt lat="42.907443037256598" lon="-2.401181990280747">
        <ele>599.20000000000005</ele>
        <time>2019-06-23T09:34:34Z</time>
      </trkpt>
      <trkpt lat="42.907455023378134" lon="-2.401443002745509">
        <ele>599.20000000000005</ele>
        <time>2019-06-23T09:34:36Z</time>
      </trkpt>
      <trkpt lat="42.90746801532805" lon="-2.40170200355351">
        <ele>599.20000000000005</ele>
        <time>2019-06-23T09:34:38Z</time>
      </trkpt>
      <trkpt lat="42.907481007277966" lon="-2.40195999853313">
        <ele>598.60000000000002</ele>
        <time>2019-06-23T09:34:40Z</time>
      </trkpt>
      <trkpt lat="42.907493999227881" lon="-2.402216987684369">
        <ele>598.39999999999998</ele>
        <time>2019-06-23T09:34:42Z</time>
      </trkpt>
      <trkpt lat="42.907506991177797" lon="-2.402473976835609">
        <ele>598.39999999999998</ele>
        <time>2019-06-23T09:34:44Z</time>
      </trkpt>
      <trkpt lat="42.907519983127713" lon="-2.402730965986848">
        <ele>598.20000000000005</ele>
        <time>2019-06-23T09:34:46Z</time>
      </trkpt>
      <trkpt lat="42.907530041411519" lon="-2.402986027300358">
        <ele>598.20000000000005</ele>
        <time>2019-06-23T09:34:48Z</time>
      </trkpt>
      <trkpt lat="42.907541021704674" lon="-2.403243016451597">
        <ele>598.20000000000005</ele>
        <time>2019-06-23T09:34:50Z</time>
      </trkpt>
      <trkpt lat="42.90755401365459" lon="-2.403501011431217">
        <ele>598</ele>
        <time>2019-06-23T09:34:52Z</time>
      </trkpt>
      <trkpt lat="42.907568011432886" lon="-2.403756994754076">
        <ele>597.79999999999995</ele>
        <time>2019-06-23T09:34:54Z</time>
      </trkpt>
      <trkpt lat="42.907579997554421" lon="-2.404012978076935">
        <ele>597.60000000000002</ele>
        <time>2019-06-23T09:34:56Z</time>
      </trkpt>
      <trkpt lat="42.907592989504337" lon="-2.404268961399794">
        <ele>597.79999999999995</ele>
        <time>2019-06-23T09:34:58Z</time>
      </trkpt>
      <trkpt lat="42.907605981454253" lon="-2.404526034370065">
        <ele>597.60000000000002</ele>
        <time>2019-06-23T09:35:00Z</time>
      </trkpt>
      <trkpt lat="42.90762098506093" lon="-2.404782017692924">
        <ele>597.39999999999998</ele>
        <time>2019-06-23T09:35:02Z</time>
      </trkpt>
      <trkpt lat="42.907633977010846" lon="-2.405038001015782">
        <ele>597.39999999999998</ele>
        <time>2019-06-23T09:35:04Z</time>
      </trkpt>
      <trkpt lat="42.907645963132381" lon="-2.405293984338641">
        <ele>597.39999999999998</ele>
        <time>2019-06-23T09:35:06Z</time>
      </trkpt>
      <trkpt lat="42.907653003931046" lon="-2.405422981828451">
        <ele>597.20000000000005</ele>
        <time>2019-06-23T09:35:07Z</time>
      </trkpt>
      <trkpt lat="42.907659038901329" lon="-2.405551979318261">
        <ele>597.20000000000005</ele>
        <time>2019-06-23T09:35:08Z</time>
      </trkpt>
      <trkpt lat="42.907672030851245" lon="-2.405808968469501">
        <ele>597.20000000000005</ele>
        <time>2019-06-23T09:35:10Z</time>
      </trkpt>
      <trkpt lat="42.907685022801161" lon="-2.406067969277501">
        <ele>597</ele>
        <time>2019-06-23T09:35:12Z</time>
      </trkpt>
      <trkpt lat="42.907699020579457" lon="-2.406326970085502">
        <ele>597</ele>
        <time>2019-06-23T09:35:14Z</time>
      </trkpt>
      <trkpt lat="42.90770597755909" lon="-2.406456973403692">
        <ele>597</ele>
        <time>2019-06-23T09:35:15Z</time>
      </trkpt>
      <trkpt lat="42.907713018357754" lon="-2.406587982550263">
        <ele>597</ele>
        <time>2019-06-23T09:35:16Z</time>
      </trkpt>
      <trkpt lat="42.907725004479289" lon="-2.406853018328548">
        <ele>597</ele>
        <time>2019-06-23T09:35:18Z</time>
      </trkpt>
      <trkpt lat="42.907737996429205" lon="-2.407119981944561">
        <ele>597</ele>
        <time>2019-06-23T09:35:20Z</time>
      </trkpt>
      <trkpt lat="42.907751994207501" lon="-2.407387029379606">
        <ele>597</ele>
        <time>2019-06-23T09:35:22Z</time>
      </trkpt>
      <trkpt lat="42.907762974500656" lon="-2.407651981338859">
        <ele>597</ele>
        <time>2019-06-23T09:35:24Z</time>
      </trkpt>
      <trkpt lat="42.90777001529932" lon="-2.40778299048543">
        <ele>597</ele>
        <time>2019-06-23T09:35:25Z</time>
      </trkpt>
      <trkpt lat="42.907775966450572" lon="-2.407915005460382">
        <ele>597</ele>
        <time>2019-06-23T09:35:26Z</time>
      </trkpt>
      <trkpt lat="42.907788958400488" lon="-2.408175012096763">
        <ele>596.79999999999995</ele>
        <time>2019-06-23T09:35:28Z</time>
      </trkpt>
      <trkpt lat="42.907802034169436" lon="-2.408430995419622">
        <ele>596.79999999999995</ele>
        <time>2019-06-23T09:35:30Z</time>
      </trkpt>
      <trkpt lat="42.907816031947732" lon="-2.408682033419609">
        <ele>596.60000000000002</ele>
        <time>2019-06-23T09:35:32Z</time>
      </trkpt>
      <trkpt lat="42.907830029726028" lon="-2.408929970115423">
        <ele>596.60000000000002</ele>
        <time>2019-06-23T09:35:34Z</time>
      </trkpt>
      <trkpt lat="42.907844027504325" lon="-2.409176984801889">
        <ele>596.79999999999995</ele>
        <time>2019-06-23T09:35:36Z</time>
      </trkpt>
      <trkpt lat="42.90785601362586" lon="-2.409418970346451">
        <ele>596.79999999999995</ele>
        <time>2019-06-23T09:35:38Z</time>
      </trkpt>
      <trkpt lat="42.907861964777112" lon="-2.409536987543106">
        <ele>597</ele>
        <time>2019-06-23T09:35:39Z</time>
      </trkpt>
      <trkpt lat="42.907869005575776" lon="-2.409652993083">
        <ele>597</ele>
        <time>2019-06-23T09:35:40Z</time>
      </trkpt>
      <trkpt lat="42.90787504054606" lon="-2.409766986966133">
        <ele>597</ele>
        <time>2019-06-23T09:35:41Z</time>
      </trkpt>
      <trkpt lat="42.907881997525692" lon="-2.409878969192505">
        <ele>597</ele>
        <time>2019-06-23T09:35:42Z</time>
      </trkpt>
      <trkpt lat="42.907894989475608" lon="-2.410095976665616">
        <ele>597</ele>
        <time>2019-06-23T09:35:44Z</time>
      </trkpt>
      <trkpt lat="42.907906975597143" lon="-2.410308960825205">
        <ele>597.39999999999998</ele>
        <time>2019-06-23T09:35:46Z</time>
      </trkpt>
      <trkpt lat="42.907914016395807" lon="-2.410413986071944">
        <ele>597.39999999999998</ele>
        <time>2019-06-23T09:35:47Z</time>
      </trkpt>
      <trkpt lat="42.90792197920382" lon="-2.410516999661923">
        <ele>597.79999999999995</ele>
        <time>2019-06-23T09:35:48Z</time>
      </trkpt>
      <trkpt lat="42.9079420119524" lon="-2.410717997699976">
        <ele>598.60000000000002</ele>
        <time>2019-06-23T09:35:50Z</time>
      </trkpt>
      <trkpt lat="42.907970007508993" lon="-2.410909021273255">
        <ele>599</ele>
        <time>2019-06-23T09:35:52Z</time>
      </trkpt>
      <trkpt lat="42.907987022772431" lon="-2.411003988236189">
        <ele>599.39999999999998</ele>
        <time>2019-06-23T09:35:53Z</time>
      </trkpt>
      <trkpt lat="42.908005965873599" lon="-2.411098033189774">
        <ele>599.60000000000002</ele>
        <time>2019-06-23T09:35:54Z</time>
      </trkpt>
      <trkpt lat="42.908025998622179" lon="-2.411191994324327">
        <ele>599.79999999999995</ele>
        <time>2019-06-23T09:35:55Z</time>
      </trkpt>
      <trkpt lat="42.90804703719914" lon="-2.411286039277911">
        <ele>600.39999999999998</ele>
        <time>2019-06-23T09:35:56Z</time>
      </trkpt>
      <trkpt lat="42.908090958371758" lon="-2.411477984860539">
        <ele>601.39999999999998</ele>
        <time>2019-06-23T09:35:58Z</time>
      </trkpt>
      <trkpt lat="42.908129012212157" lon="-2.411680994555354">
        <ele>601.60000000000002</ele>
        <time>2019-06-23T09:36:00Z</time>
      </trkpt>
      <trkpt lat="42.908164970576763" lon="-2.411890961229801">
        <ele>601.79999999999995</ele>
        <time>2019-06-23T09:36:02Z</time>
      </trkpt>
      <trkpt lat="42.908185003325343" lon="-2.411999003961682">
        <ele>602</ele>
        <time>2019-06-23T09:36:03Z</time>
      </trkpt>
      <trkpt lat="42.908205036073923" lon="-2.412108974531293">
        <ele>602</ele>
        <time>2019-06-23T09:36:04Z</time>
      </trkpt>
      <trkpt lat="42.908247029408813" lon="-2.412337968125939">
        <ele>601.79999999999995</ele>
        <time>2019-06-23T09:36:06Z</time>
      </trkpt>
      <trkpt lat="42.908268989995122" lon="-2.412455985322595">
        <ele>601.79999999999995</ele>
        <time>2019-06-23T09:36:07Z</time>
      </trkpt>
      <trkpt lat="42.908288016915321" lon="-2.412578025832772">
        <ele>601.79999999999995</ele>
        <time>2019-06-23T09:36:08Z</time>
      </trkpt>
      <trkpt lat="42.908297991380095" lon="-2.412706017494202">
        <ele>602</ele>
        <time>2019-06-23T09:36:09Z</time>
      </trkpt>
      <trkpt lat="42.908300003036857" lon="-2.412836020812392">
        <ele>601.79999999999995</ele>
        <time>2019-06-23T09:36:10Z</time>
      </trkpt>
      <trkpt lat="42.908288016915321" lon="-2.412970969453454">
        <ele>601.79999999999995</ele>
        <time>2019-06-23T09:36:11Z</time>
      </trkpt>
      <trkpt lat="42.90826597250998" lon="-2.413109019398689">
        <ele>601.60000000000002</ele>
        <time>2019-06-23T09:36:12Z</time>
      </trkpt>
      <trkpt lat="42.908249963074923" lon="-2.413252014666796">
        <ele>601.39999999999998</ele>
        <time>2019-06-23T09:36:13Z</time>
      </trkpt>
      <trkpt lat="42.908249963074923" lon="-2.413406996056438">
        <ele>601.39999999999998</ele>
        <time>2019-06-23T09:36:14Z</time>
      </trkpt>
      <trkpt lat="42.908267984166741" lon="-2.41356398910284">
        <ele>601</ele>
        <time>2019-06-23T09:36:15Z</time>
      </trkpt>
      <trkpt lat="42.908315006643534" lon="-2.41371301934123">
        <ele>600.39999999999998</ele>
        <time>2019-06-23T09:36:16Z</time>
      </trkpt>
      <trkpt lat="42.908390024676919" lon="-2.41384201683104">
        <ele>599.60000000000002</ele>
        <time>2019-06-23T09:36:17Z</time>
      </trkpt>
      <trkpt lat="42.908468982204795" lon="-2.413963973522186">
        <ele>599.39999999999998</ele>
        <time>2019-06-23T09:36:18Z</time>
      </trkpt>
      <trkpt lat="42.9085429944098" lon="-2.414090959355235">
        <ele>598.79999999999995</ele>
        <time>2019-06-23T09:36:19Z</time>
      </trkpt>
      <trkpt lat="42.90860703215003" lon="-2.414223980158567">
        <ele>598.20000000000005</ele>
        <time>2019-06-23T09:36:20Z</time>
      </trkpt>
      <trkpt lat="42.908666040748358" lon="-2.414362030103803">
        <ele>596.20000000000005</ele>
        <time>2019-06-23T09:36:21Z</time>
      </trkpt>
      <trkpt lat="42.908722031861544" lon="-2.414498990401626">
        <ele>594.79999999999995</ele>
        <time>2019-06-23T09:36:22Z</time>
      </trkpt>
      <trkpt lat="42.908775005489588" lon="-2.414637040346861">
        <ele>593.60000000000002</ele>
        <time>2019-06-23T09:36:23Z</time>
      </trkpt>
      <trkpt lat="42.908825967460871" lon="-2.414774000644684">
        <ele>592.60000000000002</ele>
        <time>2019-06-23T09:36:24Z</time>
      </trkpt>
      <trkpt lat="42.908920012414455" lon="-2.415043981745839">
        <ele>591.60000000000002</ele>
        <time>2019-06-23T09:36:26Z</time>
      </trkpt>
      <trkpt lat="42.908962005749345" lon="-2.415175996720791">
        <ele>591.60000000000002</ele>
        <time>2019-06-23T09:36:27Z</time>
      </trkpt>
      <trkpt lat="42.908997964113951" lon="-2.415309017524123">
        <ele>591</ele>
        <time>2019-06-23T09:36:28Z</time>
      </trkpt>
      <trkpt lat="42.909049009904265" lon="-2.415578998625279">
        <ele>591</ele>
        <time>2019-06-23T09:36:30Z</time>
      </trkpt>
      <trkpt lat="42.909060996025801" lon="-2.415715036913753">
        <ele>590.79999999999995</ele>
        <time>2019-06-23T09:36:31Z</time>
      </trkpt>
      <trkpt lat="42.909063007682562" lon="-2.415851997211576">
        <ele>590.60000000000002</ele>
        <time>2019-06-23T09:36:32Z</time>
      </trkpt>
      <trkpt lat="42.909060996025801" lon="-2.415984012186527">
        <ele>590.79999999999995</ele>
        <time>2019-06-23T09:36:33Z</time>
      </trkpt>
      <trkpt lat="42.909055966883898" lon="-2.41611703298986">
        <ele>590.60000000000002</ele>
        <time>2019-06-23T09:36:34Z</time>
      </trkpt>
      <trkpt lat="42.909040963277221" lon="-2.41637896746397">
        <ele>590.60000000000002</ele>
        <time>2019-06-23T09:36:36Z</time>
      </trkpt>
      <trkpt lat="42.909025959670544" lon="-2.416646014899015">
        <ele>590.60000000000002</ele>
        <time>2019-06-23T09:36:38Z</time>
      </trkpt>
      <trkpt lat="42.909026965498924" lon="-2.416780041530728">
        <ele>590.60000000000002</ele>
        <time>2019-06-23T09:36:39Z</time>
      </trkpt>
      <trkpt lat="42.909044986590743" lon="-2.416910966858268">
        <ele>590.60000000000002</ele>
        <time>2019-06-23T09:36:40Z</time>
      </trkpt>
      <trkpt lat="42.90907901711762" lon="-2.417038958519697">
        <ele>590.60000000000002</ele>
        <time>2019-06-23T09:36:41Z</time>
      </trkpt>
      <trkpt lat="42.90912201628089" lon="-2.417157981544733">
        <ele>590.60000000000002</ele>
        <time>2019-06-23T09:36:42Z</time>
      </trkpt>
      <trkpt lat="42.909170966595411" lon="-2.417269041761756">
        <ele>590.60000000000002</ele>
        <time>2019-06-23T09:36:43Z</time>
      </trkpt>
      <trkpt lat="42.909224024042487" lon="-2.417373983189464">
        <ele>590.79999999999995</ele>
        <time>2019-06-23T09:36:44Z</time>
      </trkpt>
      <trkpt lat="42.909276997670531" lon="-2.4174739792943">
        <ele>590.60000000000002</ele>
        <time>2019-06-23T09:36:45Z</time>
      </trkpt>
      <trkpt lat="42.909327959641814" lon="-2.417571963742375">
        <ele>591</ele>
        <time>2019-06-23T09:36:46Z</time>
      </trkpt>
      <trkpt lat="42.909428039565682" lon="-2.417763993144035">
        <ele>591.20000000000005</ele>
        <time>2019-06-23T09:36:48Z</time>
      </trkpt>
      <trkpt lat="42.909526024013758" lon="-2.417957028374076">
        <ele>591.39999999999998</ele>
        <time>2019-06-23T09:36:50Z</time>
      </trkpt>
      <trkpt lat="42.909623002633452" lon="-2.41815903224051">
        <ele>591.60000000000002</ele>
        <time>2019-06-23T09:36:52Z</time>
      </trkpt>
      <trkpt lat="42.90972501039505" lon="-2.418368998914957">
        <ele>592.20000000000005</ele>
        <time>2019-06-23T09:36:54Z</time>
      </trkpt>
      <trkpt lat="42.90983104147017" lon="-2.418585000559688">
        <ele>592.60000000000002</ele>
        <time>2019-06-23T09:36:56Z</time>
      </trkpt>
      <trkpt lat="42.909946041181684" lon="-2.418796978890896">
        <ele>592.60000000000002</ele>
        <time>2019-06-23T09:36:58Z</time>
      </trkpt>
      <trkpt lat="42.91000597178936" lon="-2.418900998309255">
        <ele>592.60000000000002</ele>
        <time>2019-06-23T09:36:59Z</time>
      </trkpt>
      <trkpt lat="42.910066992044449" lon="-2.419005017727613">
        <ele>592.60000000000002</ele>
        <time>2019-06-23T09:37:00Z</time>
      </trkpt>
      <trkpt lat="42.910194983705878" lon="-2.41921397857368">
        <ele>592.60000000000002</ele>
        <time>2019-06-23T09:37:02Z</time>
      </trkpt>
      <trkpt lat="42.910322975367308" lon="-2.419424029067159">
        <ele>592.60000000000002</ele>
        <time>2019-06-23T09:37:04Z</time>
      </trkpt>
      <trkpt lat="42.910450967028737" lon="-2.419637013226748">
        <ele>591.79999999999995</ele>
        <time>2019-06-23T09:37:06Z</time>
      </trkpt>
      <trkpt lat="42.910570995882154" lon="-2.419857038185">
        <ele>591.39999999999998</ele>
        <time>2019-06-23T09:37:08Z</time>
      </trkpt>
      <trkpt lat="42.910623969510198" lon="-2.419972959905863">
        <ele>591</ele>
        <time>2019-06-23T09:37:09Z</time>
      </trkpt>
      <trkpt lat="42.91067099198699" lon="-2.42009399458766">
        <ele>590.20000000000005</ele>
        <time>2019-06-23T09:37:10Z</time>
      </trkpt>
      <trkpt lat="42.910760007798672" lon="-2.420337991788983">
        <ele>589.79999999999995</ele>
        <time>2019-06-23T09:37:12Z</time>
      </trkpt>
      <trkpt lat="42.910845000296831" lon="-2.420576959848404">
        <ele>589.60000000000002</ele>
        <time>2019-06-23T09:37:14Z</time>
      </trkpt>
      <trkpt lat="42.910887999460101" lon="-2.420694977045059">
        <ele>589.39999999999998</ele>
        <time>2019-06-23T09:37:15Z</time>
      </trkpt>
      <trkpt lat="42.910929992794991" lon="-2.420812994241715">
        <ele>589.60000000000002</ele>
        <time>2019-06-23T09:37:16Z</time>
      </trkpt>
      <trkpt lat="42.911007022485137" lon="-2.421055985614657">
        <ele>589.60000000000002</ele>
        <time>2019-06-23T09:37:18Z</time>
      </trkpt>
      <trkpt lat="42.911070976406336" lon="-2.421307023614645">
        <ele>589.39999999999998</ele>
        <time>2019-06-23T09:37:20Z</time>
      </trkpt>
      <trkpt lat="42.911096960306168" lon="-2.421435015276074">
        <ele>589.39999999999998</ele>
        <time>2019-06-23T09:37:21Z</time>
      </trkpt>
      <trkpt lat="42.91112101636827" lon="-2.421565018594265">
        <ele>589.39999999999998</ele>
        <time>2019-06-23T09:37:22Z</time>
      </trkpt>
      <trkpt lat="42.911159992218018" lon="-2.421827958896756">
        <ele>589.39999999999998</ele>
        <time>2019-06-23T09:37:24Z</time>
      </trkpt>
      <trkpt lat="42.911199973896146" lon="-2.42209299467504">
        <ele>589.20000000000005</ele>
        <time>2019-06-23T09:37:26Z</time>
      </trkpt>
      <trkpt lat="42.911238027736545" lon="-2.422359958291054">
        <ele>589.20000000000005</ele>
        <time>2019-06-23T09:37:28Z</time>
      </trkpt>
      <trkpt lat="42.911278009414673" lon="-2.422627005726099">
        <ele>589</ele>
        <time>2019-06-23T09:37:30Z</time>
      </trkpt>
      <trkpt lat="42.911316985264421" lon="-2.422888018190861">
        <ele>587.79999999999995</ele>
        <time>2019-06-23T09:37:32Z</time>
      </trkpt>
      <trkpt lat="42.911361996084452" lon="-2.423142995685339">
        <ele>587.20000000000005</ele>
        <time>2019-06-23T09:37:34Z</time>
      </trkpt>
      <trkpt lat="42.911388985812664" lon="-2.423267969861627">
        <ele>587.20000000000005</ele>
        <time>2019-06-23T09:37:35Z</time>
      </trkpt>
      <trkpt lat="42.911416981369257" lon="-2.423391016200185">
        <ele>587</ele>
        <time>2019-06-23T09:37:36Z</time>
      </trkpt>
      <trkpt lat="42.911481019109488" lon="-2.423629984259605">
        <ele>587</ele>
        <time>2019-06-23T09:37:38Z</time>
      </trkpt>
      <trkpt lat="42.911550002172589" lon="-2.423868030309677">
        <ele>586.79999999999995</ele>
        <time>2019-06-23T09:37:40Z</time>
      </trkpt>
      <trkpt lat="42.911622002720833" lon="-2.424106998369098">
        <ele>586.60000000000002</ele>
        <time>2019-06-23T09:37:42Z</time>
      </trkpt>
      <trkpt lat="42.911657961085439" lon="-2.424228033050895">
        <ele>586.39999999999998</ele>
        <time>2019-06-23T09:37:43Z</time>
      </trkpt>
      <trkpt lat="42.911691991612315" lon="-2.42434797808528">
        <ele>586.20000000000005</ele>
        <time>2019-06-23T09:37:44Z</time>
      </trkpt>
      <trkpt lat="42.911727027967572" lon="-2.424470018595457">
        <ele>586.20000000000005</ele>
        <time>2019-06-23T09:37:45Z</time>
      </trkpt>
      <trkpt lat="42.911762986332178" lon="-2.424591975286603">
        <ele>586.20000000000005</ele>
        <time>2019-06-23T09:37:46Z</time>
      </trkpt>
      <trkpt lat="42.911835992708802" lon="-2.424839995801449">
        <ele>586.20000000000005</ele>
        <time>2019-06-23T09:37:48Z</time>
      </trkpt>
      <trkpt lat="42.911912016570568" lon="-2.425092961639166">
        <ele>586.20000000000005</ele>
        <time>2019-06-23T09:37:50Z</time>
      </trkpt>
      <trkpt lat="42.911950992420316" lon="-2.425220031291246">
        <ele>586.20000000000005</ele>
        <time>2019-06-23T09:37:51Z</time>
      </trkpt>
      <trkpt lat="42.911988962441683" lon="-2.425347017124295">
        <ele>586</ele>
        <time>2019-06-23T09:37:52Z</time>
      </trkpt>
      <trkpt lat="42.91206699796021" lon="-2.425600988790393">
        <ele>586</ele>
        <time>2019-06-23T09:37:54Z</time>
      </trkpt>
      <trkpt lat="42.912142015993595" lon="-2.425854038447142">
        <ele>585.60000000000002</ele>
        <time>2019-06-23T09:37:56Z</time>
      </trkpt>
      <trkpt lat="42.912218039855361" lon="-2.426102980971336">
        <ele>585.39999999999998</ele>
        <time>2019-06-23T09:37:58Z</time>
      </trkpt>
      <trkpt lat="42.912292974069715" lon="-2.426348989829421">
        <ele>585</ele>
        <time>2019-06-23T09:38:00Z</time>
      </trkpt>
      <trkpt lat="42.912329016253352" lon="-2.426472036167979">
        <ele>584.79999999999995</ele>
        <time>2019-06-23T09:38:01Z</time>
      </trkpt>
      <trkpt lat="42.912365980446339" lon="-2.426593992859125">
        <ele>584.60000000000002</ele>
        <time>2019-06-23T09:38:02Z</time>
      </trkpt>
      <trkpt lat="42.912439992651343" lon="-2.426838995888829">
        <ele>584.39999999999998</ele>
        <time>2019-06-23T09:38:04Z</time>
      </trkpt>
      <trkpt lat="42.912512999027967" lon="-2.427081987261772">
        <ele>584.20000000000005</ele>
        <time>2019-06-23T09:38:06Z</time>
      </trkpt>
      <trkpt lat="42.91258399374783" lon="-2.427324978634715">
        <ele>584</ele>
        <time>2019-06-23T09:38:08Z</time>
      </trkpt>
      <trkpt lat="42.912657000124454" lon="-2.427566964179277">
        <ele>583.79999999999995</ele>
        <time>2019-06-23T09:38:10Z</time>
      </trkpt>
      <trkpt lat="42.912730006501079" lon="-2.42780601605773">
        <ele>583.79999999999995</ele>
        <time>2019-06-23T09:38:12Z</time>
      </trkpt>
      <trkpt lat="42.912764959037304" lon="-2.427926966920495">
        <ele>583.60000000000002</ele>
        <time>2019-06-23T09:38:13Z</time>
      </trkpt>
      <trkpt lat="42.912801001220942" lon="-2.428045989945531">
        <ele>583.79999999999995</ele>
        <time>2019-06-23T09:38:14Z</time>
      </trkpt>
      <trkpt lat="42.912871995940804" lon="-2.428284035995603">
        <ele>584</ele>
        <time>2019-06-23T09:38:16Z</time>
      </trkpt>
      <trkpt lat="42.912942990660667" lon="-2.428520992398262">
        <ele>584</ele>
        <time>2019-06-23T09:38:18Z</time>
      </trkpt>
      <trkpt lat="42.912979032844305" lon="-2.428641021251679">
        <ele>583.79999999999995</ele>
        <time>2019-06-23T09:38:19Z</time>
      </trkpt>
      <trkpt lat="42.913014991208911" lon="-2.428761972114444">
        <ele>583.79999999999995</ele>
        <time>2019-06-23T09:38:20Z</time>
      </trkpt>
      <trkpt lat="42.913051033392549" lon="-2.428883006796241">
        <ele>583.79999999999995</ele>
        <time>2019-06-23T09:38:21Z</time>
      </trkpt>
      <trkpt lat="42.913087997585535" lon="-2.429006975144148">
        <ele>583.60000000000002</ele>
        <time>2019-06-23T09:38:22Z</time>
      </trkpt>
      <trkpt lat="42.913157986477017" lon="-2.429261030629277">
        <ele>583.39999999999998</ele>
        <time>2019-06-23T09:38:24Z</time>
      </trkpt>
      <trkpt lat="42.913194028660655" lon="-2.429389022290707">
        <ele>583.39999999999998</ele>
        <time>2019-06-23T09:38:25Z</time>
      </trkpt>
      <trkpt lat="42.913229987025261" lon="-2.429515002295375">
        <ele>583.39999999999998</ele>
        <time>2019-06-23T09:38:26Z</time>
      </trkpt>
      <trkpt lat="42.913302993401885" lon="-2.429764028638601">
        <ele>583.20000000000005</ele>
        <time>2019-06-23T09:38:28Z</time>
      </trkpt>
      <trkpt lat="42.913373988121748" lon="-2.430010037496686">
        <ele>583</ele>
        <time>2019-06-23T09:38:30Z</time>
      </trkpt>
      <trkpt lat="42.91344297118485" lon="-2.430253028869629">
        <ele>582.79999999999995</ele>
        <time>2019-06-23T09:38:32Z</time>
      </trkpt>
      <trkpt lat="42.913512038066983" lon="-2.430489985272288">
        <ele>582.39999999999998</ele>
        <time>2019-06-23T09:38:34Z</time>
      </trkpt>
      <trkpt lat="42.913575991988182" lon="-2.43072803132236">
        <ele>582.20000000000005</ele>
        <time>2019-06-23T09:38:36Z</time>
      </trkpt>
      <trkpt lat="42.913628965616226" lon="-2.430970016866922">
        <ele>581.79999999999995</ele>
        <time>2019-06-23T09:38:38Z</time>
      </trkpt>
      <trkpt lat="42.913644975051284" lon="-2.431092979386449">
        <ele>581.39999999999998</ele>
        <time>2019-06-23T09:38:39Z</time>
      </trkpt>
      <trkpt lat="42.913653021678329" lon="-2.431218959391117">
        <ele>581.39999999999998</ele>
        <time>2019-06-23T09:38:40Z</time>
      </trkpt>
      <trkpt lat="42.913652015849948" lon="-2.431474020704627">
        <ele>581.20000000000005</ele>
        <time>2019-06-23T09:38:42Z</time>
      </trkpt>
      <trkpt lat="42.913640029728413" lon="-2.431732015684247">
        <ele>581</ele>
        <time>2019-06-23T09:38:44Z</time>
      </trkpt>
      <trkpt lat="42.913625026121736" lon="-2.431994033977389">
        <ele>581</ele>
        <time>2019-06-23T09:38:46Z</time>
      </trkpt>
      <trkpt lat="42.913611028343439" lon="-2.432257980108261">
        <ele>581</ele>
        <time>2019-06-23T09:38:48Z</time>
      </trkpt>
      <trkpt lat="42.913596024736762" lon="-2.432526033371687">
        <ele>581</ele>
        <time>2019-06-23T09:38:50Z</time>
      </trkpt>
      <trkpt lat="42.913579009473324" lon="-2.432797020301223">
        <ele>581</ele>
        <time>2019-06-23T09:38:52Z</time>
      </trkpt>
      <trkpt lat="42.913564005866647" lon="-2.433069013059139">
        <ele>581</ele>
        <time>2019-06-23T09:38:54Z</time>
      </trkpt>
      <trkpt lat="42.91355000808835" lon="-2.433339999988675">
        <ele>580.79999999999995</ele>
        <time>2019-06-23T09:38:56Z</time>
      </trkpt>
      <trkpt lat="42.913542967289686" lon="-2.433476038277149">
        <ele>580.79999999999995</ele>
        <time>2019-06-23T09:38:57Z</time>
      </trkpt>
      <trkpt lat="42.913536010310054" lon="-2.433614004403353">
        <ele>580.79999999999995</ele>
        <time>2019-06-23T09:38:58Z</time>
      </trkpt>
      <trkpt lat="42.913521006703377" lon="-2.433892032131553">
        <ele>580.79999999999995</ele>
        <time>2019-06-23T09:39:00Z</time>
      </trkpt>
      <trkpt lat="42.91350700892508" lon="-2.434172993525863">
        <ele>580.79999999999995</ele>
        <time>2019-06-23T09:39:02Z</time>
      </trkpt>
      <trkpt lat="42.913498040288687" lon="-2.434311965480447">
        <ele>580.39999999999998</ele>
        <time>2019-06-23T09:39:03Z</time>
      </trkpt>
      <trkpt lat="42.913490999490023" lon="-2.434451021254063">
        <ele>580.39999999999998</ele>
        <time>2019-06-23T09:39:04Z</time>
      </trkpt>
      <trkpt lat="42.913474990054965" lon="-2.434727037325501">
        <ele>579.79999999999995</ele>
        <time>2019-06-23T09:39:06Z</time>
      </trkpt>
      <trkpt lat="42.913460992276669" lon="-2.434999030083418">
        <ele>579.20000000000005</ele>
        <time>2019-06-23T09:39:08Z</time>
      </trkpt>
      <trkpt lat="42.913445988669991" lon="-2.435269011184573">
        <ele>579</ele>
        <time>2019-06-23T09:39:10Z</time>
      </trkpt>
      <trkpt lat="42.913432996720076" lon="-2.435535974800587">
        <ele>578.60000000000002</ele>
        <time>2019-06-23T09:39:12Z</time>
      </trkpt>
      <trkpt lat="42.91342000477016" lon="-2.43580000475049">
        <ele>578.39999999999998</ele>
        <time>2019-06-23T09:39:14Z</time>
      </trkpt>
      <trkpt lat="42.913407012820244" lon="-2.436062023043633">
        <ele>578.20000000000005</ele>
        <time>2019-06-23T09:39:16Z</time>
      </trkpt>
      <trkpt lat="42.913393015041947" lon="-2.436323035508394">
        <ele>578.20000000000005</ele>
        <time>2019-06-23T09:39:18Z</time>
      </trkpt>
      <trkpt lat="42.913385974243283" lon="-2.436453038826585">
        <ele>578.20000000000005</ele>
        <time>2019-06-23T09:39:19Z</time>
      </trkpt>
      <trkpt lat="42.913379017263651" lon="-2.436582958325744">
        <ele>578</ele>
        <time>2019-06-23T09:39:20Z</time>
      </trkpt>
      <trkpt lat="42.913366025313735" lon="-2.436841959133744">
        <ele>578</ele>
        <time>2019-06-23T09:39:22Z</time>
      </trkpt>
      <trkpt lat="42.9133540391922" lon="-2.437100037932396">
        <ele>578</ele>
        <time>2019-06-23T09:39:24Z</time>
      </trkpt>
      <trkpt lat="42.913340963423252" lon="-2.437355015426874">
        <ele>577.79999999999995</ele>
        <time>2019-06-23T09:39:26Z</time>
      </trkpt>
      <trkpt lat="42.91333400644362" lon="-2.437479989603162">
        <ele>577.79999999999995</ele>
        <time>2019-06-23T09:39:27Z</time>
      </trkpt>
      <trkpt lat="42.913327971473336" lon="-2.43760496377945">
        <ele>577.60000000000002</ele>
        <time>2019-06-23T09:39:28Z</time>
      </trkpt>
      <trkpt lat="42.91331497952342" lon="-2.437852984294295">
        <ele>577.60000000000002</ele>
        <time>2019-06-23T09:39:30Z</time>
      </trkpt>
      <trkpt lat="42.913308022543788" lon="-2.437975024804473">
        <ele>577.60000000000002</ele>
        <time>2019-06-23T09:39:31Z</time>
      </trkpt>
      <trkpt lat="42.913300981745124" lon="-2.438094969838858">
        <ele>577.39999999999998</ele>
        <time>2019-06-23T09:39:32Z</time>
      </trkpt>
      <trkpt lat="42.913287989795208" lon="-2.438325975090265">
        <ele>577.39999999999998</ele>
        <time>2019-06-23T09:39:34Z</time>
      </trkpt>
      <trkpt lat="42.913277009502053" lon="-2.438550023362041">
        <ele>577.39999999999998</ele>
        <time>2019-06-23T09:39:36Z</time>
      </trkpt>
      <trkpt lat="42.91327097453177" lon="-2.43865798227489">
        <ele>577.39999999999998</ele>
        <time>2019-06-23T09:39:37Z</time>
      </trkpt>
      <trkpt lat="42.913265023380518" lon="-2.438766025006771">
        <ele>577.60000000000002</ele>
        <time>2019-06-23T09:39:38Z</time>
      </trkpt>
      <trkpt lat="42.913252031430602" lon="-2.438976997509599">
        <ele>577.60000000000002</ele>
        <time>2019-06-23T09:39:40Z</time>
      </trkpt>
      <trkpt lat="42.913236021995544" lon="-2.439188975840807">
        <ele>577.39999999999998</ele>
        <time>2019-06-23T09:39:42Z</time>
      </trkpt>
      <trkpt lat="42.913218000903726" lon="-2.439403971657157">
        <ele>577.60000000000002</ele>
        <time>2019-06-23T09:39:44Z</time>
      </trkpt>
      <trkpt lat="42.913197968155146" lon="-2.439618967473507">
        <ele>578</ele>
        <time>2019-06-23T09:39:46Z</time>
      </trkpt>
      <trkpt lat="42.913181958720088" lon="-2.439833041280508">
        <ele>578.39999999999998</ele>
        <time>2019-06-23T09:39:48Z</time>
      </trkpt>
      <trkpt lat="42.91316301561892" lon="-2.440048959106207">
        <ele>578.60000000000002</ele>
        <time>2019-06-23T09:39:50Z</time>
      </trkpt>
      <trkpt lat="42.913146000355482" lon="-2.440273007377982">
        <ele>578.60000000000002</ele>
        <time>2019-06-23T09:39:52Z</time>
      </trkpt>
      <trkpt lat="42.913124961778522" lon="-2.440506024286151">
        <ele>578.60000000000002</ele>
        <time>2019-06-23T09:39:54Z</time>
      </trkpt>
      <trkpt lat="42.913112975656986" lon="-2.440626975148916">
        <ele>578.60000000000002</ele>
        <time>2019-06-23T09:39:55Z</time>
      </trkpt>
      <trkpt lat="42.913101995363832" lon="-2.440752033144236">
        <ele>578.60000000000002</ele>
        <time>2019-06-23T09:39:56Z</time>
      </trkpt>
      <trkpt lat="42.913081040605903" lon="-2.441009022295475">
        <ele>578.60000000000002</ele>
        <time>2019-06-23T09:39:58Z</time>
      </trkpt>
      <trkpt lat="42.913069976493716" lon="-2.441141037270427">
        <ele>578.39999999999998</ele>
        <time>2019-06-23T09:39:59Z</time>
      </trkpt>
      <trkpt lat="42.913058996200562" lon="-2.441272968426347">
        <ele>578.39999999999998</ele>
        <time>2019-06-23T09:40:00Z</time>
      </trkpt>
      <trkpt lat="42.913036029785872" lon="-2.441540015861392">
        <ele>578.20000000000005</ele>
        <time>2019-06-23T09:40:02Z</time>
      </trkpt>
      <trkpt lat="42.913023959845304" lon="-2.441673958674073">
        <ele>578.20000000000005</ele>
        <time>2019-06-23T09:40:03Z</time>
      </trkpt>
      <trkpt lat="42.913010967895389" lon="-2.441808991134167">
        <ele>578</ele>
        <time>2019-06-23T09:40:04Z</time>
      </trkpt>
      <trkpt lat="42.91299001313746" lon="-2.442077966406941">
        <ele>577.39999999999998</ele>
        <time>2019-06-23T09:40:06Z</time>
      </trkpt>
      <trkpt lat="42.91296998038888" lon="-2.442345013841987">
        <ele>576.60000000000002</ele>
        <time>2019-06-23T09:40:08Z</time>
      </trkpt>
      <trkpt lat="42.912951037287712" lon="-2.442607032135129">
        <ele>576</ele>
        <time>2019-06-23T09:40:10Z</time>
      </trkpt>
      <trkpt lat="42.912937961518764" lon="-2.442870978266001">
        <ele>575.39999999999998</ele>
        <time>2019-06-23T09:40:12Z</time>
      </trkpt>
      <trkpt lat="42.912935027852654" lon="-2.443006010726094">
        <ele>575.39999999999998</ele>
        <time>2019-06-23T09:40:13Z</time>
      </trkpt>
      <trkpt lat="42.912934022024274" lon="-2.443140959367156">
        <ele>575</ele>
        <time>2019-06-23T09:40:14Z</time>
      </trkpt>
      <trkpt lat="42.912929998710752" lon="-2.443414041772485">
        <ele>574.60000000000002</ele>
        <time>2019-06-23T09:40:16Z</time>
      </trkpt>
      <trkpt lat="42.912931004539132" lon="-2.443688968196511">
        <ele>574.60000000000002</ele>
        <time>2019-06-23T09:40:18Z</time>
      </trkpt>
      <trkpt lat="42.912932010367513" lon="-2.443962972611189">
        <ele>574.39999999999998</ele>
        <time>2019-06-23T09:40:20Z</time>
      </trkpt>
      <trkpt lat="42.912932010367513" lon="-2.444100016728044">
        <ele>574</ele>
        <time>2019-06-23T09:40:21Z</time>
      </trkpt>
      <trkpt lat="42.912933016195893" lon="-2.444236977025867">
        <ele>573.60000000000002</ele>
        <time>2019-06-23T09:40:22Z</time>
      </trkpt>
      <trkpt lat="42.912934022024274" lon="-2.444512993097305">
        <ele>573.20000000000005</ele>
        <time>2019-06-23T09:40:24Z</time>
      </trkpt>
      <trkpt lat="42.912934022024274" lon="-2.444650959223509">
        <ele>573.20000000000005</ele>
        <time>2019-06-23T09:40:25Z</time>
      </trkpt>
      <trkpt lat="42.912935027852654" lon="-2.444792026653886">
        <ele>573</ele>
        <time>2019-06-23T09:40:26Z</time>
      </trkpt>
      <trkpt lat="42.912937961518764" lon="-2.445074999704957">
        <ele>572.60000000000002</ele>
        <time>2019-06-23T09:40:28Z</time>
      </trkpt>
      <trkpt lat="42.912955982610583" lon="-2.445357972756028">
        <ele>572.39999999999998</ele>
        <time>2019-06-23T09:40:30Z</time>
      </trkpt>
      <trkpt lat="42.91296998038888" lon="-2.445499962195754">
        <ele>572.20000000000005</ele>
        <time>2019-06-23T09:40:31Z</time>
      </trkpt>
      <trkpt lat="42.912983978167176" lon="-2.445641029626131">
        <ele>572</ele>
        <time>2019-06-23T09:40:32Z</time>
      </trkpt>
      <trkpt lat="42.912998981773853" lon="-2.445782013237476">
        <ele>572</ele>
        <time>2019-06-23T09:40:33Z</time>
      </trkpt>
      <trkpt lat="42.913014991208911" lon="-2.445924002677202">
        <ele>571.79999999999995</ele>
        <time>2019-06-23T09:40:34Z</time>
      </trkpt>
      <trkpt lat="42.913044998422265" lon="-2.446204964071512">
        <ele>571.39999999999998</ele>
        <time>2019-06-23T09:40:36Z</time>
      </trkpt>
      <trkpt lat="42.913076011464" lon="-2.446482991799712">
        <ele>570.79999999999995</ele>
        <time>2019-06-23T09:40:38Z</time>
      </trkpt>
      <trkpt lat="42.913106018677354" lon="-2.446754984557629">
        <ele>570.39999999999998</ele>
        <time>2019-06-23T09:40:40Z</time>
      </trkpt>
      <trkpt lat="42.913121022284031" lon="-2.446888005360961">
        <ele>570</ele>
        <time>2019-06-23T09:40:41Z</time>
      </trkpt>
      <trkpt lat="42.913134014233947" lon="-2.447019014507532">
        <ele>570</ele>
        <time>2019-06-23T09:40:42Z</time>
      </trkpt>
      <trkpt lat="42.913159998133779" lon="-2.447277009487152">
        <ele>569.60000000000002</ele>
        <time>2019-06-23T09:40:44Z</time>
      </trkpt>
      <trkpt lat="42.91318497620523" lon="-2.447529975324869">
        <ele>569.60000000000002</ele>
        <time>2019-06-23T09:40:46Z</time>
      </trkpt>
      <trkpt lat="42.913200985640287" lon="-2.447784030809999">
        <ele>569.39999999999998</ele>
        <time>2019-06-23T09:40:48Z</time>
      </trkpt>
      <trkpt lat="42.913214983418584" lon="-2.448038002476096">
        <ele>569.39999999999998</ele>
        <time>2019-06-23T09:40:50Z</time>
      </trkpt>
      <trkpt lat="42.91322898119688" lon="-2.448292979970574">
        <ele>569.39999999999998</ele>
        <time>2019-06-23T09:40:52Z</time>
      </trkpt>
      <trkpt lat="42.913241973146796" lon="-2.448547035455704">
        <ele>569.20000000000005</ele>
        <time>2019-06-23T09:40:54Z</time>
      </trkpt>
      <trkpt lat="42.913252031430602" lon="-2.448794972151518">
        <ele>569.20000000000005</ele>
        <time>2019-06-23T09:40:56Z</time>
      </trkpt>
      <trkpt lat="42.913256976753473" lon="-2.448916006833315">
        <ele>569</ele>
        <time>2019-06-23T09:40:57Z</time>
      </trkpt>
      <trkpt lat="42.913262005895376" lon="-2.449035029858351">
        <ele>569</ele>
        <time>2019-06-23T09:40:58Z</time>
      </trkpt>
      <trkpt lat="42.913266029208899" lon="-2.449152041226625">
        <ele>569</ele>
        <time>2019-06-23T09:40:59Z</time>
      </trkpt>
      <trkpt lat="42.91327097453177" lon="-2.449267962947488">
        <ele>569.20000000000005</ele>
        <time>2019-06-23T09:41:00Z</time>
      </trkpt>
      <trkpt lat="42.913283966481686" lon="-2.449496034532785">
        <ele>569</ele>
        <time>2019-06-23T09:41:02Z</time>
      </trkpt>
      <trkpt lat="42.913287989795208" lon="-2.449607010930777">
        <ele>569.20000000000005</ele>
        <time>2019-06-23T09:41:03Z</time>
      </trkpt>
      <trkpt lat="42.91329201310873" lon="-2.449717987328768">
        <ele>569</ele>
        <time>2019-06-23T09:41:04Z</time>
      </trkpt>
      <trkpt lat="42.913299975916743" lon="-2.449933988973498">
        <ele>569</ele>
        <time>2019-06-23T09:41:06Z</time>
      </trkpt>
      <trkpt lat="42.913306010887027" lon="-2.450038008391857">
        <ele>569</ele>
        <time>2019-06-23T09:41:07Z</time>
      </trkpt>
      <trkpt lat="42.91331104002893" lon="-2.450140016153455">
        <ele>569.20000000000005</ele>
        <time>2019-06-23T09:41:08Z</time>
      </trkpt>
      <trkpt lat="42.913319002836943" lon="-2.450340008363128">
        <ele>569.39999999999998</ele>
        <time>2019-06-23T09:41:10Z</time>
      </trkpt>
      <trkpt lat="42.913325959816575" lon="-2.450541006401181">
        <ele>570</ele>
        <time>2019-06-23T09:41:12Z</time>
      </trkpt>
      <trkpt lat="42.913329983130097" lon="-2.450642008334398">
        <ele>570.39999999999998</ele>
        <time>2019-06-23T09:41:13Z</time>
      </trkpt>
      <trkpt lat="42.913335012272" lon="-2.450745021924377">
        <ele>570.60000000000002</ele>
        <time>2019-06-23T09:41:14Z</time>
      </trkpt>
      <trkpt lat="42.913345992565155" lon="-2.450951971113682">
        <ele>571</ele>
        <time>2019-06-23T09:41:16Z</time>
      </trkpt>
      <trkpt lat="42.913354961201549" lon="-2.451164033263922">
        <ele>571.39999999999998</ele>
        <time>2019-06-23T09:41:18Z</time>
      </trkpt>
      <trkpt lat="42.913366025313735" lon="-2.451392021030188">
        <ele>571.79999999999995</ele>
        <time>2019-06-23T09:41:20Z</time>
      </trkpt>
      <trkpt lat="42.913381028920412" lon="-2.451635012403131">
        <ele>572.20000000000005</ele>
        <time>2019-06-23T09:41:22Z</time>
      </trkpt>
      <trkpt lat="42.91339703835547" lon="-2.451895019039512">
        <ele>572.20000000000005</ele>
        <time>2019-06-23T09:41:24Z</time>
      </trkpt>
      <trkpt lat="42.913406006991863" lon="-2.452028961852193">
        <ele>572.39999999999998</ele>
        <time>2019-06-23T09:41:25Z</time>
      </trkpt>
      <trkpt lat="42.913414975628257" lon="-2.452165000140667">
        <ele>572.20000000000005</ele>
        <time>2019-06-23T09:41:26Z</time>
      </trkpt>
      <trkpt lat="42.913430985063314" lon="-2.452437998726964">
        <ele>572.20000000000005</ele>
        <time>2019-06-23T09:41:28Z</time>
      </trkpt>
      <trkpt lat="42.913445988669991" lon="-2.452707979828119">
        <ele>571.60000000000002</ele>
        <time>2019-06-23T09:41:30Z</time>
      </trkpt>
      <trkpt lat="42.91346300393343" lon="-2.452973015606403">
        <ele>570.39999999999998</ele>
        <time>2019-06-23T09:41:32Z</time>
      </trkpt>
      <trkpt lat="42.913481025025249" lon="-2.453234028071165">
        <ele>569</ele>
        <time>2019-06-23T09:41:34Z</time>
      </trkpt>
      <trkpt lat="42.913494016975164" lon="-2.453491017222405">
        <ele>567.79999999999995</ele>
        <time>2019-06-23T09:41:36Z</time>
      </trkpt>
      <trkpt lat="42.913501979783177" lon="-2.453618003055453">
        <ele>567.39999999999998</ele>
        <time>2019-06-23T09:41:37Z</time>
      </trkpt>
      <trkpt lat="42.913510026410222" lon="-2.45374197140336">
        <ele>567.20000000000005</ele>
        <time>2019-06-23T09:41:38Z</time>
      </trkpt>
      <trkpt lat="42.913525030016899" lon="-2.453984040766954">
        <ele>567</ele>
        <time>2019-06-23T09:41:40Z</time>
      </trkpt>
      <trkpt lat="42.913541039451957" lon="-2.454220997169614">
        <ele>567</ele>
        <time>2019-06-23T09:41:42Z</time>
      </trkpt>
      <trkpt lat="42.913555037230253" lon="-2.454456025734544">
        <ele>567</ele>
        <time>2019-06-23T09:41:44Z</time>
      </trkpt>
      <trkpt lat="42.913570962846279" lon="-2.454690970480442">
        <ele>567</ele>
        <time>2019-06-23T09:41:46Z</time>
      </trkpt>
      <trkpt lat="42.913584960624576" lon="-2.454930022358894">
        <ele>567</ele>
        <time>2019-06-23T09:41:48Z</time>
      </trkpt>
      <trkpt lat="42.913599964231253" lon="-2.455174019560218">
        <ele>567.20000000000005</ele>
        <time>2019-06-23T09:41:50Z</time>
      </trkpt>
      <trkpt lat="42.913616979494691" lon="-2.455420028418303">
        <ele>567.20000000000005</ele>
        <time>2019-06-23T09:41:52Z</time>
      </trkpt>
      <trkpt lat="42.913632988929749" lon="-2.455669976770878">
        <ele>567.39999999999998</ele>
        <time>2019-06-23T09:41:54Z</time>
      </trkpt>
      <trkpt lat="42.913651010021567" lon="-2.455923026427627">
        <ele>567.39999999999998</ele>
        <time>2019-06-23T09:41:56Z</time>
      </trkpt>
      <trkpt lat="42.913669031113386" lon="-2.456173980608583">
        <ele>567.39999999999998</ele>
        <time>2019-06-23T09:41:58Z</time>
      </trkpt>
      <trkpt lat="42.913684034720063" lon="-2.45642401278019">
        <ele>567.39999999999998</ele>
        <time>2019-06-23T09:42:00Z</time>
      </trkpt>
      <trkpt lat="42.91369803249836" lon="-2.456674966961145">
        <ele>566.79999999999995</ele>
        <time>2019-06-23T09:42:02Z</time>
      </trkpt>
      <trkpt lat="42.913705995306373" lon="-2.456801030784845">
        <ele>566.79999999999995</ele>
        <time>2019-06-23T09:42:03Z</time>
      </trkpt>
      <trkpt lat="42.913713036105037" lon="-2.456927010789514">
        <ele>566.79999999999995</ele>
        <time>2019-06-23T09:42:04Z</time>
      </trkpt>
      <trkpt lat="42.913728039711714" lon="-2.45717796497047">
        <ele>566.60000000000002</ele>
        <time>2019-06-23T09:42:06Z</time>
      </trkpt>
      <trkpt lat="42.91374103166163" lon="-2.457429002970457">
        <ele>566.60000000000002</ele>
        <time>2019-06-23T09:42:08Z</time>
      </trkpt>
      <trkpt lat="42.913757963106036" lon="-2.457676017656922">
        <ele>566.39999999999998</ele>
        <time>2019-06-23T09:42:10Z</time>
      </trkpt>
      <trkpt lat="42.913774978369474" lon="-2.457915991544724">
        <ele>566.39999999999998</ele>
        <time>2019-06-23T09:42:12Z</time>
      </trkpt>
      <trkpt lat="42.913788976147771" lon="-2.458152025938034">
        <ele>566.39999999999998</ele>
        <time>2019-06-23T09:42:14Z</time>
      </trkpt>
      <trkpt lat="42.913796016946435" lon="-2.458269959315658">
        <ele>566.39999999999998</ele>
        <time>2019-06-23T09:42:15Z</time>
      </trkpt>
      <trkpt lat="42.913803979754448" lon="-2.458385964855552">
        <ele>566.20000000000005</ele>
        <time>2019-06-23T09:42:16Z</time>
      </trkpt>
      <trkpt lat="42.913811020553112" lon="-2.458502976223826">
        <ele>566.20000000000005</ele>
        <time>2019-06-23T09:42:17Z</time>
      </trkpt>
      <trkpt lat="42.913817977532744" lon="-2.458618981763721">
        <ele>566.39999999999998</ele>
        <time>2019-06-23T09:42:18Z</time>
      </trkpt>
      <trkpt lat="42.913824012503028" lon="-2.458734987303615">
        <ele>566.39999999999998</ele>
        <time>2019-06-23T09:42:19Z</time>
      </trkpt>
      <trkpt lat="42.91383096948266" lon="-2.458850992843509">
        <ele>566.60000000000002</ele>
        <time>2019-06-23T09:42:20Z</time>
      </trkpt>
      <trkpt lat="42.913843961432576" lon="-2.459086021408439">
        <ele>566.60000000000002</ele>
        <time>2019-06-23T09:42:22Z</time>
      </trkpt>
      <trkpt lat="42.913866005837917" lon="-2.459320966154337">
        <ele>566.60000000000002</ele>
        <time>2019-06-23T09:42:24Z</time>
      </trkpt>
      <trkpt lat="42.913905987516046" lon="-2.459554988890886">
        <ele>566.79999999999995</ele>
        <time>2019-06-23T09:42:26Z</time>
      </trkpt>
      <trkpt lat="42.91395996697247" lon="-2.459789011627436">
        <ele>567.20000000000005</ele>
        <time>2019-06-23T09:42:28Z</time>
      </trkpt>
      <trkpt lat="42.914015036076307" lon="-2.460024962201715">
        <ele>567.20000000000005</ele>
        <time>2019-06-23T09:42:30Z</time>
      </trkpt>
      <trkpt lat="42.914071027189493" lon="-2.460270971059799">
        <ele>567.39999999999998</ele>
        <time>2019-06-23T09:42:32Z</time>
      </trkpt>
      <trkpt lat="42.914098016917706" lon="-2.460397034883499">
        <ele>567.20000000000005</ele>
        <time>2019-06-23T09:42:33Z</time>
      </trkpt>
      <trkpt lat="42.914126012474298" lon="-2.460525026544929">
        <ele>567.20000000000005</ele>
        <time>2019-06-23T09:42:34Z</time>
      </trkpt>
      <trkpt lat="42.914188038557768" lon="-2.46078796684742">
        <ele>566.79999999999995</ele>
        <time>2019-06-23T09:42:36Z</time>
      </trkpt>
      <trkpt lat="42.914254004135728" lon="-2.461063982918859">
        <ele>566.60000000000002</ele>
        <time>2019-06-23T09:42:38Z</time>
      </trkpt>
      <trkpt lat="42.91432399302721" lon="-2.461349973455071">
        <ele>566.39999999999998</ele>
        <time>2019-06-23T09:42:40Z</time>
      </trkpt>
      <trkpt lat="42.91438995860517" lon="-2.461640993133187">
        <ele>566</ele>
        <time>2019-06-23T09:42:42Z</time>
      </trkpt>
      <trkpt lat="42.914457013830543" lon="-2.461932012811303">
        <ele>565.20000000000005</ele>
        <time>2019-06-23T09:42:44Z</time>
      </trkpt>
      <trkpt lat="42.914518034085631" lon="-2.462212974205613">
        <ele>564.20000000000005</ele>
        <time>2019-06-23T09:42:46Z</time>
      </trkpt>
      <trkpt lat="42.914546029642224" lon="-2.462347000837326">
        <ele>563.79999999999995</ele>
        <time>2019-06-23T09:42:47Z</time>
      </trkpt>
      <trkpt lat="42.914572013542056" lon="-2.462475998327136">
        <ele>563.39999999999998</ele>
        <time>2019-06-23T09:42:48Z</time>
      </trkpt>
      <trkpt lat="42.914596991613507" lon="-2.462598038837314">
        <ele>563.20000000000005</ele>
        <time>2019-06-23T09:42:49Z</time>
      </trkpt>
      <trkpt lat="42.914621969684958" lon="-2.462711026892066">
        <ele>563</ele>
        <time>2019-06-23T09:42:50Z</time>
      </trkpt>
      <trkpt lat="42.9146440140903" lon="-2.462816974148154">
        <ele>562.79999999999995</ele>
        <time>2019-06-23T09:42:51Z</time>
      </trkpt>
      <trkpt lat="42.914663963019848" lon="-2.4629130307585">
        <ele>562.79999999999995</ele>
        <time>2019-06-23T09:42:52Z</time>
      </trkpt>
      <trkpt lat="42.914694976061583" lon="-2.463105982169509">
        <ele>562.79999999999995</ele>
        <time>2019-06-23T09:42:54Z</time>
      </trkpt>
      <trkpt lat="42.914712997153401" lon="-2.463303040713072">
        <ele>562.79999999999995</ele>
        <time>2019-06-23T09:42:56Z</time>
      </trkpt>
      <trkpt lat="42.914728000760078" lon="-2.463508984073997">
        <ele>563.20000000000005</ele>
        <time>2019-06-23T09:42:58Z</time>
      </trkpt>
      <trkpt lat="42.914740992709994" lon="-2.46372900903225">
        <ele>564</ele>
        <time>2019-06-23T09:43:00Z</time>
      </trkpt>
      <trkpt lat="42.914759013801813" lon="-2.463973006233573">
        <ele>564.79999999999995</ele>
        <time>2019-06-23T09:43:02Z</time>
      </trkpt>
      <trkpt lat="42.914766976609826" lon="-2.464103009551764">
        <ele>564.79999999999995</ele>
        <time>2019-06-23T09:43:03Z</time>
      </trkpt>
      <trkpt lat="42.914778040722013" lon="-2.464235024526715">
        <ele>565</ele>
        <time>2019-06-23T09:43:04Z</time>
      </trkpt>
      <trkpt lat="42.914789021015167" lon="-2.464370978996158">
        <ele>565</ele>
        <time>2019-06-23T09:43:05Z</time>
      </trkpt>
      <trkpt lat="42.914800001308322" lon="-2.464510034769774">
        <ele>565</ele>
        <time>2019-06-23T09:43:06Z</time>
      </trkpt>
      <trkpt lat="42.914811987429857" lon="-2.464651018381119">
        <ele>565</ele>
        <time>2019-06-23T09:43:07Z</time>
      </trkpt>
      <trkpt lat="42.914823973551393" lon="-2.464794013649225">
        <ele>564.79999999999995</ele>
        <time>2019-06-23T09:43:08Z</time>
      </trkpt>
      <trkpt lat="42.914849035441875" lon="-2.465077992528677">
        <ele>564.60000000000002</ele>
        <time>2019-06-23T09:43:10Z</time>
      </trkpt>
      <trkpt lat="42.914870996028185" lon="-2.465359959751368">
        <ele>563.79999999999995</ele>
        <time>2019-06-23T09:43:12Z</time>
      </trkpt>
      <trkpt lat="42.914893962442875" lon="-2.465635975822806">
        <ele>562.60000000000002</ele>
        <time>2019-06-23T09:43:14Z</time>
      </trkpt>
      <trkpt lat="42.914917012676597" lon="-2.465907968580723">
        <ele>561.79999999999995</ele>
        <time>2019-06-23T09:43:16Z</time>
      </trkpt>
      <trkpt lat="42.914927992969751" lon="-2.466043001040816">
        <ele>561.60000000000002</ele>
        <time>2019-06-23T09:43:17Z</time>
      </trkpt>
      <trkpt lat="42.914937967434525" lon="-2.466177027672529">
        <ele>561.39999999999998</ele>
        <time>2019-06-23T09:43:18Z</time>
      </trkpt>
      <trkpt lat="42.914958000183105" lon="-2.466442985460162">
        <ele>561</ele>
        <time>2019-06-23T09:43:20Z</time>
      </trkpt>
      <trkpt lat="42.91496797464788" lon="-2.466571982949972">
        <ele>561.20000000000005</ele>
        <time>2019-06-23T09:43:21Z</time>
      </trkpt>
      <trkpt lat="42.914977027103305" lon="-2.466699974611402">
        <ele>560.79999999999995</ele>
        <time>2019-06-23T09:43:22Z</time>
      </trkpt>
      <trkpt lat="42.914997981861234" lon="-2.466947995126247">
        <ele>560.79999999999995</ele>
        <time>2019-06-23T09:43:24Z</time>
      </trkpt>
      <trkpt lat="42.915006028488278" lon="-2.467069029808044">
        <ele>560.60000000000002</ele>
        <time>2019-06-23T09:43:25Z</time>
      </trkpt>
      <trkpt lat="42.915016002953053" lon="-2.467186963185668">
        <ele>560.79999999999995</ele>
        <time>2019-06-23T09:43:26Z</time>
      </trkpt>
      <trkpt lat="42.915024971589446" lon="-2.467302968725562">
        <ele>560.79999999999995</ele>
        <time>2019-06-23T09:43:27Z</time>
      </trkpt>
      <trkpt lat="42.915034024044871" lon="-2.467418974265456">
        <ele>560.79999999999995</ele>
        <time>2019-06-23T09:43:28Z</time>
      </trkpt>
      <trkpt lat="42.915040981024504" lon="-2.467532968148589">
        <ele>560.79999999999995</ele>
        <time>2019-06-23T09:43:29Z</time>
      </trkpt>
      <trkpt lat="42.915049027651548" lon="-2.467646040022373">
        <ele>560.79999999999995</ele>
        <time>2019-06-23T09:43:30Z</time>
      </trkpt>
      <trkpt lat="42.915064031258225" lon="-2.467864975333214">
        <ele>560.79999999999995</ele>
        <time>2019-06-23T09:43:32Z</time>
      </trkpt>
      <trkpt lat="42.915069982409477" lon="-2.467975029721856">
        <ele>560.79999999999995</ele>
        <time>2019-06-23T09:43:33Z</time>
      </trkpt>
      <trkpt lat="42.915077023208141" lon="-2.468082988634706">
        <ele>560.79999999999995</ele>
        <time>2019-06-23T09:43:34Z</time>
      </trkpt>
      <trkpt lat="42.915082974359393" lon="-2.468190025538206">
        <ele>560.79999999999995</ele>
        <time>2019-06-23T09:43:35Z</time>
      </trkpt>
      <trkpt lat="42.915089009329677" lon="-2.468294966965914">
        <ele>561</ele>
        <time>2019-06-23T09:43:36Z</time>
      </trkpt>
      <trkpt lat="42.915105018764734" lon="-2.46849998831749">
        <ele>561.20000000000005</ele>
        <time>2019-06-23T09:43:38Z</time>
      </trkpt>
      <trkpt lat="42.915121028199792" lon="-2.468698974698782">
        <ele>561.60000000000002</ele>
        <time>2019-06-23T09:43:40Z</time>
      </trkpt>
      <trkpt lat="42.915131002664566" lon="-2.468795031309128">
        <ele>561.79999999999995</ele>
        <time>2019-06-23T09:43:41Z</time>
      </trkpt>
      <trkpt lat="42.915138965472579" lon="-2.468892009928823">
        <ele>562</ele>
        <time>2019-06-23T09:43:42Z</time>
      </trkpt>
      <trkpt lat="42.915145000442863" lon="-2.468987982720137">
        <ele>562.20000000000005</ele>
        <time>2019-06-23T09:43:43Z</time>
      </trkpt>
      <trkpt lat="42.915153969079256" lon="-2.469084039330483">
        <ele>562.60000000000002</ele>
        <time>2019-06-23T09:43:44Z</time>
      </trkpt>
      <trkpt lat="42.915179030969739" lon="-2.469279002398253">
        <ele>562.79999999999995</ele>
        <time>2019-06-23T09:43:46Z</time>
      </trkpt>
      <trkpt lat="42.915198979899287" lon="-2.469476982951164">
        <ele>563.20000000000005</ele>
        <time>2019-06-23T09:43:48Z</time>
      </trkpt>
      <trkpt lat="42.91522303596139" lon="-2.469685021787882">
        <ele>563.39999999999998</ele>
        <time>2019-06-23T09:43:50Z</time>
      </trkpt>
      <trkpt lat="42.915234016254544" lon="-2.469792980700731">
        <ele>563.60000000000002</ele>
        <time>2019-06-23T09:43:51Z</time>
      </trkpt>
      <trkpt lat="42.915243990719318" lon="-2.469899011775851">
        <ele>563.79999999999995</ele>
        <time>2019-06-23T09:43:52Z</time>
      </trkpt>
      <trkpt lat="42.915267962962389" lon="-2.470124987885356">
        <ele>564.20000000000005</ele>
        <time>2019-06-23T09:43:54Z</time>
      </trkpt>
      <trkpt lat="42.915279027074575" lon="-2.470241999253631">
        <ele>564</ele>
        <time>2019-06-23T09:43:55Z</time>
      </trkpt>
      <trkpt lat="42.915292019024491" lon="-2.470356998965144">
        <ele>564.20000000000005</ele>
        <time>2019-06-23T09:43:56Z</time>
      </trkpt>
      <trkpt lat="42.915301993489265" lon="-2.470474010333419">
        <ele>564.20000000000005</ele>
        <time>2019-06-23T09:43:57Z</time>
      </trkpt>
      <trkpt lat="42.915313979610801" lon="-2.470591021701694">
        <ele>564.20000000000005</ele>
        <time>2019-06-23T09:43:58Z</time>
      </trkpt>
      <trkpt lat="42.915337029844522" lon="-2.470834013074637">
        <ele>564.20000000000005</ele>
        <time>2019-06-23T09:44:00Z</time>
      </trkpt>
      <trkpt lat="42.915364019572735" lon="-2.471083039417863">
        <ele>564.20000000000005</ele>
        <time>2019-06-23T09:44:02Z</time>
      </trkpt>
      <trkpt lat="42.915392015129328" lon="-2.471330976113677">
        <ele>563.60000000000002</ele>
        <time>2019-06-23T09:44:04Z</time>
      </trkpt>
      <trkpt lat="42.915406012907624" lon="-2.471455028280616">
        <ele>563</ele>
        <time>2019-06-23T09:44:05Z</time>
      </trkpt>
      <trkpt lat="42.915420010685921" lon="-2.471580002456904">
        <ele>562.79999999999995</ele>
        <time>2019-06-23T09:44:06Z</time>
      </trkpt>
      <trkpt lat="42.915452029556036" lon="-2.47182902880013">
        <ele>562.20000000000005</ele>
        <time>2019-06-23T09:44:08Z</time>
      </trkpt>
      <trkpt lat="42.9154849704355" lon="-2.472083000466228">
        <ele>562.20000000000005</ele>
        <time>2019-06-23T09:44:10Z</time>
      </trkpt>
      <trkpt lat="42.915500979870558" lon="-2.47221702709794">
        <ele>562</ele>
        <time>2019-06-23T09:44:11Z</time>
      </trkpt>
      <trkpt lat="42.915516989305615" lon="-2.472351975739002">
        <ele>562</ele>
        <time>2019-06-23T09:44:12Z</time>
      </trkpt>
      <trkpt lat="42.915534004569054" lon="-2.472489019855857">
        <ele>562</ele>
        <time>2019-06-23T09:44:13Z</time>
      </trkpt>
      <trkpt lat="42.915551019832492" lon="-2.472624974325299">
        <ele>562</ele>
        <time>2019-06-23T09:44:14Z</time>
      </trkpt>
      <trkpt lat="42.915583038702607" lon="-2.47290400788188">
        <ele>561.79999999999995</ele>
        <time>2019-06-23T09:44:16Z</time>
      </trkpt>
      <trkpt lat="42.91561396792531" lon="-2.47318597510457">
        <ele>561.39999999999998</ele>
        <time>2019-06-23T09:44:18Z</time>
      </trkpt>
      <trkpt lat="42.915646992623806" lon="-2.473465008661151">
        <ele>560.60000000000002</ele>
        <time>2019-06-23T09:44:20Z</time>
      </trkpt>
      <trkpt lat="42.915661996230483" lon="-2.473601968958974">
        <ele>560.39999999999998</ele>
        <time>2019-06-23T09:44:21Z</time>
      </trkpt>
      <trkpt lat="42.91567699983716" lon="-2.473739013075829">
        <ele>559.79999999999995</ele>
        <time>2019-06-23T09:44:22Z</time>
      </trkpt>
      <trkpt lat="42.915710024535656" lon="-2.474013017490506">
        <ele>559</ele>
        <time>2019-06-23T09:44:24Z</time>
      </trkpt>
      <trkpt lat="42.91574296541512" lon="-2.474281992763281">
        <ele>558.39999999999998</ele>
        <time>2019-06-23T09:44:26Z</time>
      </trkpt>
      <trkpt lat="42.915759980678558" lon="-2.474416019394994">
        <ele>558</ele>
        <time>2019-06-23T09:44:27Z</time>
      </trkpt>
      <trkpt lat="42.915775990113616" lon="-2.474549962207675">
        <ele>557.79999999999995</ele>
        <time>2019-06-23T09:44:28Z</time>
      </trkpt>
      <trkpt lat="42.915810020640492" lon="-2.47481600381434">
        <ele>557.39999999999998</ele>
        <time>2019-06-23T09:44:30Z</time>
      </trkpt>
      <trkpt lat="42.915825024247169" lon="-2.474948018789291">
        <ele>557.39999999999998</ele>
        <time>2019-06-23T09:44:31Z</time>
      </trkpt>
      <trkpt lat="42.915841033682227" lon="-2.475079027935863">
        <ele>557.39999999999998</ele>
        <time>2019-06-23T09:44:32Z</time>
      </trkpt>
      <trkpt lat="42.915857965126634" lon="-2.475210037082434">
        <ele>557.39999999999998</ele>
        <time>2019-06-23T09:44:33Z</time>
      </trkpt>
      <trkpt lat="42.915873974561691" lon="-2.475340040400624">
        <ele>557.20000000000005</ele>
        <time>2019-06-23T09:44:34Z</time>
      </trkpt>
      <trkpt lat="42.915889983996749" lon="-2.475469037890434">
        <ele>557</ele>
        <time>2019-06-23T09:44:35Z</time>
      </trkpt>
      <trkpt lat="42.915906999260187" lon="-2.475598035380244">
        <ele>556.79999999999995</ele>
        <time>2019-06-23T09:44:36Z</time>
      </trkpt>
      <trkpt lat="42.915939018130302" lon="-2.475855024531484">
        <ele>556.60000000000002</ele>
        <time>2019-06-23T09:44:38Z</time>
      </trkpt>
      <trkpt lat="42.91595502756536" lon="-2.475984022021294">
        <ele>556.60000000000002</ele>
        <time>2019-06-23T09:44:39Z</time>
      </trkpt>
      <trkpt lat="42.915971037000418" lon="-2.476112013682723">
        <ele>556.60000000000002</ele>
        <time>2019-06-23T09:44:40Z</time>
      </trkpt>
      <trkpt lat="42.916002972051501" lon="-2.476367997005582">
        <ele>556.79999999999995</ele>
        <time>2019-06-23T09:44:42Z</time>
      </trkpt>
      <trkpt lat="42.916034990921617" lon="-2.476623980328441">
        <ele>556.60000000000002</ele>
        <time>2019-06-23T09:44:44Z</time>
      </trkpt>
      <trkpt lat="42.916068015620112" lon="-2.47687803581357">
        <ele>556.60000000000002</ele>
        <time>2019-06-23T09:44:46Z</time>
      </trkpt>
      <trkpt lat="42.916100034490228" lon="-2.477133013308048">
        <ele>556.79999999999995</ele>
        <time>2019-06-23T09:44:48Z</time>
      </trkpt>
      <trkpt lat="42.916114032268524" lon="-2.477258993312717">
        <ele>556.79999999999995</ele>
        <time>2019-06-23T09:44:49Z</time>
      </trkpt>
      <trkpt lat="42.916129035875201" lon="-2.477384973317385">
        <ele>556.79999999999995</ele>
        <time>2019-06-23T09:44:50Z</time>
      </trkpt>
      <trkpt lat="42.916159965097904" lon="-2.47763198800385">
        <ele>557</ele>
        <time>2019-06-23T09:44:52Z</time>
      </trkpt>
      <trkpt lat="42.916190978139639" lon="-2.477872967720032">
        <ele>557</ele>
        <time>2019-06-23T09:44:54Z</time>
      </trkpt>
      <trkpt lat="42.916204975917935" lon="-2.477991990745068">
        <ele>557</ele>
        <time>2019-06-23T09:44:55Z</time>
      </trkpt>
      <trkpt lat="42.916218973696232" lon="-2.478109002113342">
        <ele>557</ele>
        <time>2019-06-23T09:44:56Z</time>
      </trkpt>
      <trkpt lat="42.916233977302909" lon="-2.478226013481617">
        <ele>557.20000000000005</ele>
        <time>2019-06-23T09:44:57Z</time>
      </trkpt>
      <trkpt lat="42.916248980909586" lon="-2.478342019021511">
        <ele>557.20000000000005</ele>
        <time>2019-06-23T09:44:58Z</time>
      </trkpt>
      <trkpt lat="42.916276976466179" lon="-2.47857796959579">
        <ele>557</ele>
        <time>2019-06-23T09:45:00Z</time>
      </trkpt>
      <trkpt lat="42.916289968416095" lon="-2.478700010105968">
        <ele>557.20000000000005</ele>
        <time>2019-06-23T09:45:01Z</time>
      </trkpt>
      <trkpt lat="42.916305977851152" lon="-2.478824984282255">
        <ele>557.20000000000005</ele>
        <time>2019-06-23T09:45:02Z</time>
      </trkpt>
      <trkpt lat="42.91632198728621" lon="-2.478950964286923">
        <ele>557.20000000000005</ele>
        <time>2019-06-23T09:45:03Z</time>
      </trkpt>
      <trkpt lat="42.916337996721268" lon="-2.479079039767385">
        <ele>557.39999999999998</ele>
        <time>2019-06-23T09:45:04Z</time>
      </trkpt>
      <trkpt lat="42.916368003934622" lon="-2.479335023090243">
        <ele>557.60000000000002</ele>
        <time>2019-06-23T09:45:06Z</time>
      </trkpt>
      <trkpt lat="42.916397005319595" lon="-2.479595029726625">
        <ele>557.60000000000002</ele>
        <time>2019-06-23T09:45:08Z</time>
      </trkpt>
      <trkpt lat="42.916426006704569" lon="-2.479849001392722">
        <ele>557.60000000000002</ele>
        <time>2019-06-23T09:45:10Z</time>
      </trkpt>
      <trkpt lat="42.916455008089542" lon="-2.480096016079187">
        <ele>557.60000000000002</ele>
        <time>2019-06-23T09:45:12Z</time>
      </trkpt>
      <trkpt lat="42.916470011696219" lon="-2.480215039104223">
        <ele>557.39999999999998</ele>
        <time>2019-06-23T09:45:13Z</time>
      </trkpt>
      <trkpt lat="42.916485015302896" lon="-2.480331966653466">
        <ele>557.39999999999998</ele>
        <time>2019-06-23T09:45:14Z</time>
      </trkpt>
      <trkpt lat="42.916499013081193" lon="-2.48044696636498">
        <ele>557.60000000000002</ele>
        <time>2019-06-23T09:45:15Z</time>
      </trkpt>
      <trkpt lat="42.916510999202728" lon="-2.480559032410383">
        <ele>557.60000000000002</ele>
        <time>2019-06-23T09:45:16Z</time>
      </trkpt>
      <trkpt lat="42.916535977274179" lon="-2.480779979377985">
        <ele>557.39999999999998</ele>
        <time>2019-06-23T09:45:18Z</time>
      </trkpt>
      <trkpt lat="42.916561039164662" lon="-2.480989024043083">
        <ele>557.79999999999995</ele>
        <time>2019-06-23T09:45:20Z</time>
      </trkpt>
      <trkpt lat="42.916588028892875" lon="-2.481193961575627">
        <ele>557.79999999999995</ele>
        <time>2019-06-23T09:45:22Z</time>
      </trkpt>
      <trkpt lat="42.916617030277848" lon="-2.481397977098823">
        <ele>558.39999999999998</ele>
        <time>2019-06-23T09:45:24Z</time>
      </trkpt>
      <trkpt lat="42.916648965328932" lon="-2.481609033420682">
        <ele>559.20000000000005</ele>
        <time>2019-06-23T09:45:26Z</time>
      </trkpt>
      <trkpt lat="42.916682995855808" lon="-2.481832997873426">
        <ele>559.79999999999995</ele>
        <time>2019-06-23T09:45:28Z</time>
      </trkpt>
      <trkpt lat="42.916700011119246" lon="-2.48194900341332">
        <ele>560</ele>
        <time>2019-06-23T09:45:29Z</time>
      </trkpt>
      <trkpt lat="42.916718032211065" lon="-2.482068026438355">
        <ele>560.20000000000005</ele>
        <time>2019-06-23T09:45:30Z</time>
      </trkpt>
      <trkpt lat="42.916757008060813" lon="-2.48231302946806">
        <ele>560.39999999999998</ele>
        <time>2019-06-23T09:45:32Z</time>
      </trkpt>
      <trkpt lat="42.916796989738941" lon="-2.482562977820635">
        <ele>560.20000000000005</ele>
        <time>2019-06-23T09:45:34Z</time>
      </trkpt>
      <trkpt lat="42.91683797724545" lon="-2.482816027477384">
        <ele>560.20000000000005</ele>
        <time>2019-06-23T09:45:36Z</time>
      </trkpt>
      <trkpt lat="42.916879970580339" lon="-2.483068993315101">
        <ele>560</ele>
        <time>2019-06-23T09:45:38Z</time>
      </trkpt>
      <trkpt lat="42.916921963915229" lon="-2.483321037143469">
        <ele>559.39999999999998</ele>
        <time>2019-06-23T09:45:40Z</time>
      </trkpt>
      <trkpt lat="42.916960017755628" lon="-2.483569979667664">
        <ele>558.60000000000002</ele>
        <time>2019-06-23T09:45:42Z</time>
      </trkpt>
      <trkpt lat="42.916997987776995" lon="-2.483809031546116">
        <ele>557.79999999999995</ele>
        <time>2019-06-23T09:45:44Z</time>
      </trkpt>
      <trkpt lat="42.917035035789013" lon="-2.484042970463634">
        <ele>557.79999999999995</ele>
        <time>2019-06-23T09:45:46Z</time>
      </trkpt>
      <trkpt lat="42.917053978890181" lon="-2.484157970175147">
        <ele>557.79999999999995</ele>
        <time>2019-06-23T09:45:47Z</time>
      </trkpt>
      <trkpt lat="42.91707300581038" lon="-2.48427196405828">
        <ele>557.60000000000002</ele>
        <time>2019-06-23T09:45:48Z</time>
      </trkpt>
      <trkpt lat="42.917091026902199" lon="-2.484385035932064">
        <ele>557.60000000000002</ele>
        <time>2019-06-23T09:45:49Z</time>
      </trkpt>
      <trkpt lat="42.917107958346605" lon="-2.484498023986816">
        <ele>557.60000000000002</ele>
        <time>2019-06-23T09:45:50Z</time>
      </trkpt>
      <trkpt lat="42.917141988873482" lon="-2.48472198843956">
        <ele>557.60000000000002</ele>
        <time>2019-06-23T09:45:52Z</time>
      </trkpt>
      <trkpt lat="42.9171790368855" lon="-2.484944025054574">
        <ele>557.79999999999995</ele>
        <time>2019-06-23T09:45:54Z</time>
      </trkpt>
      <trkpt lat="42.917214995250106" lon="-2.485166983678937">
        <ele>558.20000000000005</ele>
        <time>2019-06-23T09:45:56Z</time>
      </trkpt>
      <trkpt lat="42.917233016341925" lon="-2.485277038067579">
        <ele>558.39999999999998</ele>
        <time>2019-06-23T09:45:57Z</time>
      </trkpt>
      <trkpt lat="42.917250031605363" lon="-2.485389020293951">
        <ele>558.39999999999998</ele>
        <time>2019-06-23T09:45:58Z</time>
      </trkpt>
      <trkpt lat="42.917285989969969" lon="-2.485610973089933">
        <ele>558.79999999999995</ele>
        <time>2019-06-23T09:46:00Z</time>
      </trkpt>
      <trkpt lat="42.917321026325226" lon="-2.485833009704948">
        <ele>559.20000000000005</ele>
        <time>2019-06-23T09:46:02Z</time>
      </trkpt>
      <trkpt lat="42.91735396720469" lon="-2.4860530346632">
        <ele>559.20000000000005</ele>
        <time>2019-06-23T09:46:04Z</time>
      </trkpt>
      <trkpt lat="42.917385986074805" lon="-2.48627096414566">
        <ele>559.39999999999998</ele>
        <time>2019-06-23T09:46:06Z</time>
      </trkpt>
      <trkpt lat="42.91741699911654" lon="-2.486486965790391">
        <ele>559.39999999999998</ele>
        <time>2019-06-23T09:46:08Z</time>
      </trkpt>
      <trkpt lat="42.917441977187991" lon="-2.486704979091883">
        <ele>559.79999999999995</ele>
        <time>2019-06-23T09:46:10Z</time>
      </trkpt>
      <trkpt lat="42.917455974966288" lon="-2.486923998221755">
        <ele>559.79999999999995</ele>
        <time>2019-06-23T09:46:12Z</time>
      </trkpt>
      <trkpt lat="42.917465027421713" lon="-2.487147962674499">
        <ele>560.20000000000005</ele>
        <time>2019-06-23T09:46:14Z</time>
      </trkpt>
      <trkpt lat="42.917469972744584" lon="-2.487378967925906">
        <ele>560.39999999999998</ele>
        <time>2019-06-23T09:46:16Z</time>
      </trkpt>
      <trkpt lat="42.917469972744584" lon="-2.4874949734658">
        <ele>560.39999999999998</ele>
        <time>2019-06-23T09:46:17Z</time>
      </trkpt>
      <trkpt lat="42.917469972744584" lon="-2.487610979005694">
        <ele>560.60000000000002</ele>
        <time>2019-06-23T09:46:18Z</time>
      </trkpt>
      <trkpt lat="42.917467039078474" lon="-2.487842990085483">
        <ele>560.39999999999998</ele>
        <time>2019-06-23T09:46:20Z</time>
      </trkpt>
      <trkpt lat="42.917463015764952" lon="-2.488077012822032">
        <ele>560.39999999999998</ele>
        <time>2019-06-23T09:46:22Z</time>
      </trkpt>
      <trkpt lat="42.917464021593332" lon="-2.488312963396311">
        <ele>560.20000000000005</ele>
        <time>2019-06-23T09:46:24Z</time>
      </trkpt>
      <trkpt lat="42.917464021593332" lon="-2.488431986421347">
        <ele>560.20000000000005</ele>
        <time>2019-06-23T09:46:25Z</time>
      </trkpt>
      <trkpt lat="42.917463015764952" lon="-2.488552015274763">
        <ele>560.20000000000005</ele>
        <time>2019-06-23T09:46:26Z</time>
      </trkpt>
      <trkpt lat="42.917461004108191" lon="-2.488673971965909">
        <ele>559.79999999999995</ele>
        <time>2019-06-23T09:46:27Z</time>
      </trkpt>
      <trkpt lat="42.91745999827981" lon="-2.488795006647706">
        <ele>559.39999999999998</ele>
        <time>2019-06-23T09:46:28Z</time>
      </trkpt>
      <trkpt lat="42.917457986623049" lon="-2.489036992192268">
        <ele>558.79999999999995</ele>
        <time>2019-06-23T09:46:30Z</time>
      </trkpt>
      <trkpt lat="42.917454969137907" lon="-2.489159032702446">
        <ele>558.39999999999998</ele>
        <time>2019-06-23T09:46:31Z</time>
      </trkpt>
      <trkpt lat="42.917452035471797" lon="-2.489279983565211">
        <ele>558.20000000000005</ele>
        <time>2019-06-23T09:46:32Z</time>
      </trkpt>
      <trkpt lat="42.917448012158275" lon="-2.489401018247008">
        <ele>558</ele>
        <time>2019-06-23T09:46:33Z</time>
      </trkpt>
      <trkpt lat="42.917444994673133" lon="-2.489521969109774">
        <ele>558</ele>
        <time>2019-06-23T09:46:34Z</time>
      </trkpt>
      <trkpt lat="42.917441977187991" lon="-2.489763032644987">
        <ele>557.60000000000002</ele>
        <time>2019-06-23T09:46:36Z</time>
      </trkpt>
      <trkpt lat="42.917440971359611" lon="-2.489883983507752">
        <ele>557.39999999999998</ele>
        <time>2019-06-23T09:46:37Z</time>
      </trkpt>
      <trkpt lat="42.917438959702849" lon="-2.490005018189549">
        <ele>557.20000000000005</ele>
        <time>2019-06-23T09:46:38Z</time>
      </trkpt>
      <trkpt lat="42.917435020208359" lon="-2.490247003734112">
        <ele>557.20000000000005</ele>
        <time>2019-06-23T09:46:40Z</time>
      </trkpt>
      <trkpt lat="42.917430996894836" lon="-2.490487983450294">
        <ele>557</ele>
        <time>2019-06-23T09:46:42Z</time>
      </trkpt>
      <trkpt lat="42.917427979409695" lon="-2.490730974823237">
        <ele>556.79999999999995</ele>
        <time>2019-06-23T09:46:44Z</time>
      </trkpt>
      <trkpt lat="42.917426973581314" lon="-2.490976983681321">
        <ele>556.79999999999995</ele>
        <time>2019-06-23T09:46:46Z</time>
      </trkpt>
      <trkpt lat="42.917426973581314" lon="-2.491099024191499">
        <ele>556.60000000000002</ele>
        <time>2019-06-23T09:46:47Z</time>
      </trkpt>
      <trkpt lat="42.917425967752934" lon="-2.491219975054264">
        <ele>556.39999999999998</ele>
        <time>2019-06-23T09:46:48Z</time>
      </trkpt>
      <trkpt lat="42.917421022430062" lon="-2.491461960598826">
        <ele>556.20000000000005</ele>
        <time>2019-06-23T09:46:50Z</time>
      </trkpt>
      <trkpt lat="42.917411969974637" lon="-2.491708975285292">
        <ele>556.39999999999998</ele>
        <time>2019-06-23T09:46:52Z</time>
      </trkpt>
      <trkpt lat="42.917408030480146" lon="-2.491954984143376">
        <ele>556.20000000000005</ele>
        <time>2019-06-23T09:46:54Z</time>
      </trkpt>
      <trkpt lat="42.917408030480146" lon="-2.492077024653554">
        <ele>556.20000000000005</ele>
        <time>2019-06-23T09:46:55Z</time>
      </trkpt>
      <trkpt lat="42.917408030480146" lon="-2.492195963859558">
        <ele>556.20000000000005</ele>
        <time>2019-06-23T09:46:56Z</time>
      </trkpt>
      <trkpt lat="42.917408030480146" lon="-2.492313981056213">
        <ele>556.20000000000005</ele>
        <time>2019-06-23T09:46:57Z</time>
      </trkpt>
      <trkpt lat="42.917408030480146" lon="-2.492429986596108">
        <ele>556.39999999999998</ele>
        <time>2019-06-23T09:46:58Z</time>
      </trkpt>
      <trkpt lat="42.917403001338243" lon="-2.492657974362373">
        <ele>556.60000000000002</ele>
        <time>2019-06-23T09:47:00Z</time>
      </trkpt>
      <trkpt lat="42.91739696636796" lon="-2.49288504011929">
        <ele>556.60000000000002</ele>
        <time>2019-06-23T09:47:02Z</time>
      </trkpt>
      <trkpt lat="42.91739403270185" lon="-2.492998028174043">
        <ele>556.79999999999995</ele>
        <time>2019-06-23T09:47:03Z</time>
      </trkpt>
      <trkpt lat="42.917393026873469" lon="-2.493111016228795">
        <ele>556.79999999999995</ele>
        <time>2019-06-23T09:47:04Z</time>
      </trkpt>
      <trkpt lat="42.917390009388328" lon="-2.493334980681539">
        <ele>556.60000000000002</ele>
        <time>2019-06-23T09:47:06Z</time>
      </trkpt>
      <trkpt lat="42.917383974418044" lon="-2.493561962619424">
        <ele>556.79999999999995</ele>
        <time>2019-06-23T09:47:08Z</time>
      </trkpt>
      <trkpt lat="42.917370982468128" lon="-2.493789028376341">
        <ele>557.20000000000005</ele>
        <time>2019-06-23T09:47:10Z</time>
      </trkpt>
      <trkpt lat="42.91735103353858" lon="-2.494013998657465">
        <ele>557.60000000000002</ele>
        <time>2019-06-23T09:47:12Z</time>
      </trkpt>
      <trkpt lat="42.917325971648097" lon="-2.494238968938589">
        <ele>557.60000000000002</ele>
        <time>2019-06-23T09:47:14Z</time>
      </trkpt>
      <trkpt lat="42.917306022718549" lon="-2.494465028867126">
        <ele>557.60000000000002</ele>
        <time>2019-06-23T09:47:16Z</time>
      </trkpt>
      <trkpt lat="42.917292024940252" lon="-2.49469100497663">
        <ele>557.79999999999995</ele>
        <time>2019-06-23T09:47:18Z</time>
      </trkpt>
      <trkpt lat="42.917289007455111" lon="-2.494803993031383">
        <ele>557.79999999999995</ele>
        <time>2019-06-23T09:47:19Z</time>
      </trkpt>
      <trkpt lat="42.917285989969969" lon="-2.494913963600993">
        <ele>557.79999999999995</ele>
        <time>2019-06-23T09:47:20Z</time>
      </trkpt>
      <trkpt lat="42.917264029383659" lon="-2.495131976902485">
        <ele>558</ele>
        <time>2019-06-23T09:47:22Z</time>
      </trkpt>
      <trkpt lat="42.917241984978318" lon="-2.495239013805986">
        <ele>558</ele>
        <time>2019-06-23T09:47:23Z</time>
      </trkpt>
      <trkpt lat="42.917219018563628" lon="-2.495344039052725">
        <ele>558</ele>
        <time>2019-06-23T09:47:24Z</time>
      </trkpt>
      <trkpt lat="42.917195968329906" lon="-2.495446968823671">
        <ele>558.20000000000005</ele>
        <time>2019-06-23T09:47:25Z</time>
      </trkpt>
      <trkpt lat="42.917173001915216" lon="-2.495548976585269">
        <ele>558.39999999999998</ele>
        <time>2019-06-23T09:47:26Z</time>
      </trkpt>
      <trkpt lat="42.917131008580327" lon="-2.495750980451703">
        <ele>558.39999999999998</ele>
        <time>2019-06-23T09:47:28Z</time>
      </trkpt>
      <trkpt lat="42.917102007195354" lon="-2.495949966832995">
        <ele>558.60000000000002</ele>
        <time>2019-06-23T09:47:30Z</time>
      </trkpt>
      <trkpt lat="42.917094966396689" lon="-2.496049962937832">
        <ele>558.79999999999995</ele>
        <time>2019-06-23T09:47:31Z</time>
      </trkpt>
      <trkpt lat="42.917099995538592" lon="-2.49614903703332">
        <ele>559</ele>
        <time>2019-06-23T09:47:32Z</time>
      </trkpt>
      <trkpt lat="42.917110975831747" lon="-2.496246015653014">
        <ele>559.20000000000005</ele>
        <time>2019-06-23T09:47:33Z</time>
      </trkpt>
      <trkpt lat="42.917123967781663" lon="-2.496336037293077">
        <ele>559.39999999999998</ele>
        <time>2019-06-23T09:47:34Z</time>
      </trkpt>
      <trkpt lat="42.917131008580327" lon="-2.496426980942488">
        <ele>559.20000000000005</ele>
        <time>2019-06-23T09:47:35Z</time>
      </trkpt>
      <trkpt lat="42.917132014408708" lon="-2.496519014239311">
        <ele>559.39999999999998</ele>
        <time>2019-06-23T09:47:36Z</time>
      </trkpt>
      <trkpt lat="42.917128996923566" lon="-2.496611969545484">
        <ele>559.60000000000002</ele>
        <time>2019-06-23T09:47:37Z</time>
      </trkpt>
      <trkpt lat="42.917121034115553" lon="-2.496704002842307">
        <ele>560</ele>
        <time>2019-06-23T09:47:38Z</time>
      </trkpt>
      <trkpt lat="42.917088009417057" lon="-2.496885973960161">
        <ele>560.79999999999995</ele>
        <time>2019-06-23T09:47:40Z</time>
      </trkpt>
      <trkpt lat="42.917067976668477" lon="-2.496974989771843">
        <ele>561.39999999999998</ele>
        <time>2019-06-23T09:47:41Z</time>
      </trkpt>
      <trkpt lat="42.917049033567309" lon="-2.497062999755144">
        <ele>561.60000000000002</ele>
        <time>2019-06-23T09:47:42Z</time>
      </trkpt>
      <trkpt lat="42.917008968070149" lon="-2.497233990579844">
        <ele>562.39999999999998</ele>
        <time>2019-06-23T09:47:44Z</time>
      </trkpt>
      <trkpt lat="42.916965968906879" lon="-2.497405987232924">
        <ele>562.79999999999995</ele>
        <time>2019-06-23T09:47:46Z</time>
      </trkpt>
      <trkpt lat="42.916921963915229" lon="-2.497577983886004">
        <ele>562.79999999999995</ele>
        <time>2019-06-23T09:47:48Z</time>
      </trkpt>
      <trkpt lat="42.916900003328919" lon="-2.497666999697685">
        <ele>562.79999999999995</ele>
        <time>2019-06-23T09:47:49Z</time>
      </trkpt>
      <trkpt lat="42.916878964751959" lon="-2.497756015509367">
        <ele>562.79999999999995</ele>
        <time>2019-06-23T09:47:50Z</time>
      </trkpt>
      <trkpt lat="42.916836971417069" lon="-2.497934969142079">
        <ele>562.79999999999995</ele>
        <time>2019-06-23T09:47:52Z</time>
      </trkpt>
      <trkpt lat="42.916793972253799" lon="-2.498115012422204">
        <ele>563</ele>
        <time>2019-06-23T09:47:54Z</time>
      </trkpt>
      <trkpt lat="42.91677201166749" lon="-2.498206039890647">
        <ele>563.20000000000005</ele>
        <time>2019-06-23T09:47:55Z</time>
      </trkpt>
      <trkpt lat="42.91675197891891" lon="-2.498296983540058">
        <ele>563.20000000000005</ele>
        <time>2019-06-23T09:47:56Z</time>
      </trkpt>
      <trkpt lat="42.916706968098879" lon="-2.498481972143054">
        <ele>563</ele>
        <time>2019-06-23T09:47:58Z</time>
      </trkpt>
      <trkpt lat="42.916660029441118" lon="-2.498674001544714">
        <ele>563.20000000000005</ele>
        <time>2019-06-23T09:48:00Z</time>
      </trkpt>
      <trkpt lat="42.916616024449468" lon="-2.498867958784103">
        <ele>563.20000000000005</ele>
        <time>2019-06-23T09:48:02Z</time>
      </trkpt>
      <trkpt lat="42.916571013629436" lon="-2.499060994014144">
        <ele>563.20000000000005</ele>
        <time>2019-06-23T09:48:04Z</time>
      </trkpt>
      <trkpt lat="42.916529020294547" lon="-2.499251011759043">
        <ele>563.39999999999998</ele>
        <time>2019-06-23T09:48:06Z</time>
      </trkpt>
      <trkpt lat="42.916507981717587" lon="-2.499343967065215">
        <ele>563.60000000000002</ele>
        <time>2019-06-23T09:48:07Z</time>
      </trkpt>
      <trkpt lat="42.916488032788038" lon="-2.499437006190419">
        <ele>563.60000000000002</ele>
        <time>2019-06-23T09:48:08Z</time>
      </trkpt>
      <trkpt lat="42.916444027796388" lon="-2.499621994793415">
        <ele>563.79999999999995</ele>
        <time>2019-06-23T09:48:10Z</time>
      </trkpt>
      <trkpt lat="42.916402034461498" lon="-2.499807989224792">
        <ele>564</ele>
        <time>2019-06-23T09:48:12Z</time>
      </trkpt>
      <trkpt lat="42.916360041126609" lon="-2.499995995312929">
        <ele>564.20000000000005</ele>
        <time>2019-06-23T09:48:14Z</time>
      </trkpt>
      <trkpt lat="42.916317963972688" lon="-2.500186013057828">
        <ele>564.79999999999995</ele>
        <time>2019-06-23T09:48:16Z</time>
      </trkpt>
      <trkpt lat="42.916273036971688" lon="-2.500377958640456">
        <ele>565</ele>
        <time>2019-06-23T09:48:18Z</time>
      </trkpt>
      <trkpt lat="42.916228026151657" lon="-2.500569988042116">
        <ele>565.20000000000005</ele>
        <time>2019-06-23T09:48:20Z</time>
      </trkpt>
      <trkpt lat="42.916184021160007" lon="-2.500757994130254">
        <ele>565.39999999999998</ele>
        <time>2019-06-23T09:48:22Z</time>
      </trkpt>
      <trkpt lat="42.916159965097904" lon="-2.500853966921568">
        <ele>565.39999999999998</ele>
        <time>2019-06-23T09:48:23Z</time>
      </trkpt>
      <trkpt lat="42.916139010339975" lon="-2.500949017703533">
        <ele>565.39999999999998</ele>
        <time>2019-06-23T09:48:24Z</time>
      </trkpt>
      <trkpt lat="42.916095005348325" lon="-2.501140041276813">
        <ele>565.39999999999998</ele>
        <time>2019-06-23T09:48:26Z</time>
      </trkpt>
      <trkpt lat="42.916053012013435" lon="-2.50132997520268">
        <ele>565.39999999999998</ele>
        <time>2019-06-23T09:48:28Z</time>
      </trkpt>
      <trkpt lat="42.916032979264855" lon="-2.501424020156264">
        <ele>565.39999999999998</ele>
        <time>2019-06-23T09:48:29Z</time>
      </trkpt>
      <trkpt lat="42.916012024506927" lon="-2.501517981290817">
        <ele>565.39999999999998</ele>
        <time>2019-06-23T09:48:30Z</time>
      </trkpt>
      <trkpt lat="42.915969025343657" lon="-2.501705987378955">
        <ele>565.60000000000002</ele>
        <time>2019-06-23T09:48:32Z</time>
      </trkpt>
      <trkpt lat="42.915926026180387" lon="-2.501893993467093">
        <ele>565.60000000000002</ele>
        <time>2019-06-23T09:48:34Z</time>
      </trkpt>
      <trkpt lat="42.915883027017117" lon="-2.50208099372685">
        <ele>565.60000000000002</ele>
        <time>2019-06-23T09:48:36Z</time>
      </trkpt>
      <trkpt lat="42.915840027853847" lon="-2.502268999814987">
        <ele>565.79999999999995</ele>
        <time>2019-06-23T09:48:38Z</time>
      </trkpt>
      <trkpt lat="42.915798034518957" lon="-2.502456000074744">
        <ele>566</ele>
        <time>2019-06-23T09:48:40Z</time>
      </trkpt>
      <trkpt lat="42.915756041184068" lon="-2.502643000334501">
        <ele>566.20000000000005</ele>
        <time>2019-06-23T09:48:42Z</time>
      </trkpt>
      <trkpt lat="42.915710024535656" lon="-2.502827988937497">
        <ele>566.20000000000005</ele>
        <time>2019-06-23T09:48:44Z</time>
      </trkpt>
      <trkpt lat="42.915668031200767" lon="-2.503012977540493">
        <ele>566.60000000000002</ele>
        <time>2019-06-23T09:48:46Z</time>
      </trkpt>
      <trkpt lat="42.915624026209116" lon="-2.503197966143489">
        <ele>566.60000000000002</ele>
        <time>2019-06-23T09:48:48Z</time>
      </trkpt>
      <trkpt lat="42.915580021217465" lon="-2.503381026908755">
        <ele>566.79999999999995</ele>
        <time>2019-06-23T09:48:50Z</time>
      </trkpt>
      <trkpt lat="42.915559988468885" lon="-2.503472976386547">
        <ele>567</ele>
        <time>2019-06-23T09:48:51Z</time>
      </trkpt>
      <trkpt lat="42.915540039539337" lon="-2.50356400385499">
        <ele>567.20000000000005</ele>
        <time>2019-06-23T09:48:52Z</time>
      </trkpt>
      <trkpt lat="42.915499974042177" lon="-2.503747986629605">
        <ele>567.79999999999995</ele>
        <time>2019-06-23T09:48:54Z</time>
      </trkpt>
      <trkpt lat="42.915454041212797" lon="-2.503929035738111">
        <ele>568.20000000000005</ele>
        <time>2019-06-23T09:48:56Z</time>
      </trkpt>
      <trkpt lat="42.915394026786089" lon="-2.504102038219571">
        <ele>568.60000000000002</ele>
        <time>2019-06-23T09:48:58Z</time>
      </trkpt>
      <trkpt lat="42.915339963510633" lon="-2.504273029044271">
        <ele>568.79999999999995</ele>
        <time>2019-06-23T09:49:00Z</time>
      </trkpt>
      <trkpt lat="42.915353961288929" lon="-2.504460029304028">
        <ele>569</ele>
        <time>2019-06-23T09:49:02Z</time>
      </trkpt>
      <trkpt lat="42.915445994585752" lon="-2.504607969895005">
        <ele>569.20000000000005</ele>
        <time>2019-06-23T09:49:04Z</time>
      </trkpt>
      <trkpt lat="42.915501985698938" lon="-2.504668990150094">
        <ele>569.20000000000005</ele>
        <time>2019-06-23T09:49:05Z</time>
      </trkpt>
      <trkpt lat="42.915559988468885" lon="-2.504725987091661">
        <ele>569.39999999999998</ele>
        <time>2019-06-23T09:49:06Z</time>
      </trkpt>
      <trkpt lat="42.915671970695257" lon="-2.504832018166781">
        <ele>569.39999999999998</ele>
        <time>2019-06-23T09:49:08Z</time>
      </trkpt>
      <trkpt lat="42.915780013427138" lon="-2.504934025928378">
        <ele>569.39999999999998</ele>
        <time>2019-06-23T09:49:10Z</time>
      </trkpt>
      <trkpt lat="42.915830975398421" lon="-2.504983982071281">
        <ele>569.39999999999998</ele>
        <time>2019-06-23T09:49:11Z</time>
      </trkpt>
      <trkpt lat="42.915881015360355" lon="-2.505032010376453">
        <ele>569.39999999999998</ele>
        <time>2019-06-23T09:49:12Z</time>
      </trkpt>
      <trkpt lat="42.915985034778714" lon="-2.505127983167768">
        <ele>570</ele>
        <time>2019-06-23T09:49:14Z</time>
      </trkpt>
      <trkpt lat="42.916035996749997" lon="-2.50517500564456">
        <ele>570.20000000000005</ele>
        <time>2019-06-23T09:49:15Z</time>
      </trkpt>
      <trkpt lat="42.91608695872128" lon="-2.505224039778113">
        <ele>570.60000000000002</ele>
        <time>2019-06-23T09:49:16Z</time>
      </trkpt>
      <trkpt lat="42.9161929897964" lon="-2.505321018397808">
        <ele>571.39999999999998</ele>
        <time>2019-06-23T09:49:18Z</time>
      </trkpt>
      <trkpt lat="42.916244035586715" lon="-2.505371980369091">
        <ele>571.60000000000002</ele>
        <time>2019-06-23T09:49:19Z</time>
      </trkpt>
      <trkpt lat="42.916296003386378" lon="-2.505421014502645">
        <ele>572</ele>
        <time>2019-06-23T09:49:20Z</time>
      </trkpt>
      <trkpt lat="42.916403962299228" lon="-2.50551899895072">
        <ele>572.79999999999995</ele>
        <time>2019-06-23T09:49:22Z</time>
      </trkpt>
      <trkpt lat="42.916513010859489" lon="-2.505622012540698">
        <ele>573.39999999999998</ele>
        <time>2019-06-23T09:49:24Z</time>
      </trkpt>
      <trkpt lat="42.916566990315914" lon="-2.505678003653884">
        <ele>574.20000000000005</ele>
        <time>2019-06-23T09:49:25Z</time>
      </trkpt>
      <trkpt lat="42.916621975600719" lon="-2.505732988938689">
        <ele>574.39999999999998</ele>
        <time>2019-06-23T09:49:26Z</time>
      </trkpt>
      <trkpt lat="42.916735969483852" lon="-2.50584103167057">
        <ele>575</ele>
        <time>2019-06-23T09:49:28Z</time>
      </trkpt>
      <trkpt lat="42.916851975023746" lon="-2.505956031382084">
        <ele>575.20000000000005</ele>
        <time>2019-06-23T09:49:30Z</time>
      </trkpt>
      <trkpt lat="42.916967980563641" lon="-2.506069019436836">
        <ele>575.60000000000002</ele>
        <time>2019-06-23T09:49:32Z</time>
      </trkpt>
      <trkpt lat="42.917085997760296" lon="-2.506181001663208">
        <ele>575.39999999999998</ele>
        <time>2019-06-23T09:49:34Z</time>
      </trkpt>
      <trkpt lat="42.917203009128571" lon="-2.50629298388958">
        <ele>575.60000000000002</ele>
        <time>2019-06-23T09:49:36Z</time>
      </trkpt>
      <trkpt lat="42.917322032153606" lon="-2.506408989429474">
        <ele>575.39999999999998</ele>
        <time>2019-06-23T09:49:38Z</time>
      </trkpt>
      <trkpt lat="42.917438037693501" lon="-2.506531029939652">
        <ele>575.60000000000002</ele>
        <time>2019-06-23T09:49:40Z</time>
      </trkpt>
      <trkpt lat="42.917550019919872" lon="-2.506654998287559">
        <ele>575.39999999999998</ele>
        <time>2019-06-23T09:49:42Z</time>
      </trkpt>
      <trkpt lat="42.917605005204678" lon="-2.506719036027789">
        <ele>575.39999999999998</ele>
        <time>2019-06-23T09:49:43Z</time>
      </trkpt>
      <trkpt lat="42.917657978832722" lon="-2.506785001605749">
        <ele>575.39999999999998</ele>
        <time>2019-06-23T09:49:44Z</time>
      </trkpt>
      <trkpt lat="42.917709024623036" lon="-2.50685297884047">
        <ele>575.20000000000005</ele>
        <time>2019-06-23T09:49:45Z</time>
      </trkpt>
      <trkpt lat="42.917758980765939" lon="-2.506921961903572">
        <ele>575.20000000000005</ele>
        <time>2019-06-23T09:49:46Z</time>
      </trkpt>
      <trkpt lat="42.917855959385633" lon="-2.507063029333949">
        <ele>575.20000000000005</ele>
        <time>2019-06-23T09:49:48Z</time>
      </trkpt>
      <trkpt lat="42.917948998510838" lon="-2.507208036258817">
        <ele>575.39999999999998</ele>
        <time>2019-06-23T09:49:50Z</time>
      </trkpt>
      <trkpt lat="42.917994009330869" lon="-2.50728196464479">
        <ele>575.20000000000005</ele>
        <time>2019-06-23T09:49:51Z</time>
      </trkpt>
      <trkpt lat="42.918038014322519" lon="-2.507357988506556">
        <ele>575.20000000000005</ele>
        <time>2019-06-23T09:49:52Z</time>
      </trkpt>
      <trkpt lat="42.918119989335537" lon="-2.507514981552959">
        <ele>575.39999999999998</ele>
        <time>2019-06-23T09:49:54Z</time>
      </trkpt>
      <trkpt lat="42.918200036510825" lon="-2.507677003741264">
        <ele>575.60000000000002</ele>
        <time>2019-06-23T09:49:56Z</time>
      </trkpt>
      <trkpt lat="42.918275976553559" lon="-2.507842965424061">
        <ele>575.79999999999995</ele>
        <time>2019-06-23T09:49:58Z</time>
      </trkpt>
      <trkpt lat="42.918343031778932" lon="-2.508017979562283">
        <ele>576.39999999999998</ele>
        <time>2019-06-23T09:50:00Z</time>
      </trkpt>
      <trkpt lat="42.918373038992286" lon="-2.508108001202345">
        <ele>576.60000000000002</ele>
        <time>2019-06-23T09:50:01Z</time>
      </trkpt>
      <trkpt lat="42.918401034548879" lon="-2.508198022842407">
        <ele>576.79999999999995</ele>
        <time>2019-06-23T09:50:02Z</time>
      </trkpt>
      <trkpt lat="42.918453002348542" lon="-2.508384017273784">
        <ele>577.20000000000005</ele>
        <time>2019-06-23T09:50:04Z</time>
      </trkpt>
      <trkpt lat="42.918476974591613" lon="-2.508476972579956">
        <ele>577.20000000000005</ele>
        <time>2019-06-23T09:50:05Z</time>
      </trkpt>
      <trkpt lat="42.918500024825335" lon="-2.508572023361921">
        <ele>577.20000000000005</ele>
        <time>2019-06-23T09:50:06Z</time>
      </trkpt>
      <trkpt lat="42.918536989018321" lon="-2.50876396894455">
        <ele>577.20000000000005</ele>
        <time>2019-06-23T09:50:08Z</time>
      </trkpt>
      <trkpt lat="42.91855601593852" lon="-2.508860025554895">
        <ele>577.39999999999998</ele>
        <time>2019-06-23T09:50:09Z</time>
      </trkpt>
      <trkpt lat="42.918571019545197" lon="-2.50895599834621">
        <ele>577.60000000000002</ele>
        <time>2019-06-23T09:50:10Z</time>
      </trkpt>
      <trkpt lat="42.918601026758552" lon="-2.50915196724236">
        <ele>578</ele>
        <time>2019-06-23T09:50:12Z</time>
      </trkpt>
      <trkpt lat="42.918616030365229" lon="-2.509251041337848">
        <ele>578</ele>
        <time>2019-06-23T09:50:13Z</time>
      </trkpt>
      <trkpt lat="42.918632039800286" lon="-2.509348019957542">
        <ele>578.20000000000005</ele>
        <time>2019-06-23T09:50:14Z</time>
      </trkpt>
      <trkpt lat="42.918661963194609" lon="-2.509542983025312">
        <ele>578.39999999999998</ele>
        <time>2019-06-23T09:50:16Z</time>
      </trkpt>
      <trkpt lat="42.918689958751202" lon="-2.509739035740495">
        <ele>578.39999999999998</ele>
        <time>2019-06-23T09:50:18Z</time>
      </trkpt>
      <trkpt lat="42.918718960136175" lon="-2.509938022121787">
        <ele>578.39999999999998</ele>
        <time>2019-06-23T09:50:20Z</time>
      </trkpt>
      <trkpt lat="42.918748967349529" lon="-2.510141031816602">
        <ele>578.60000000000002</ele>
        <time>2019-06-23T09:50:22Z</time>
      </trkpt>
      <trkpt lat="42.918763970956206" lon="-2.510245973244309">
        <ele>578.39999999999998</ele>
        <time>2019-06-23T09:50:23Z</time>
      </trkpt>
      <trkpt lat="42.918778974562883" lon="-2.51035301014781">
        <ele>578.60000000000002</ele>
        <time>2019-06-23T09:50:24Z</time>
      </trkpt>
      <trkpt lat="42.918810993432999" lon="-2.510563982650638">
        <ele>578.39999999999998</ele>
        <time>2019-06-23T09:50:26Z</time>
      </trkpt>
      <trkpt lat="42.918842006474733" lon="-2.510776966810226">
        <ele>578.39999999999998</ele>
        <time>2019-06-23T09:50:28Z</time>
      </trkpt>
      <trkpt lat="42.918876959010959" lon="-2.510992968454957">
        <ele>578.20000000000005</ele>
        <time>2019-06-23T09:50:30Z</time>
      </trkpt>
      <trkpt lat="42.918911995366216" lon="-2.511217016726732">
        <ele>578.20000000000005</ele>
        <time>2019-06-23T09:50:32Z</time>
      </trkpt>
      <trkpt lat="42.918945020064712" lon="-2.511441987007856">
        <ele>578</ele>
        <time>2019-06-23T09:50:34Z</time>
      </trkpt>
      <trkpt lat="42.918977038934827" lon="-2.511655976995826">
        <ele>578</ele>
        <time>2019-06-23T09:50:36Z</time>
      </trkpt>
      <trkpt lat="42.91900796815753" lon="-2.511859992519021">
        <ele>578</ele>
        <time>2019-06-23T09:50:38Z</time>
      </trkpt>
      <trkpt lat="42.919021965935826" lon="-2.511959988623858">
        <ele>578</ele>
        <time>2019-06-23T09:50:39Z</time>
      </trkpt>
      <trkpt lat="42.919035963714123" lon="-2.512057973071933">
        <ele>578</ele>
        <time>2019-06-23T09:50:40Z</time>
      </trkpt>
      <trkpt lat="42.919049961492419" lon="-2.512156963348389">
        <ele>578</ele>
        <time>2019-06-23T09:50:41Z</time>
      </trkpt>
      <trkpt lat="42.919063959270716" lon="-2.512256037443876">
        <ele>578</ele>
        <time>2019-06-23T09:50:42Z</time>
      </trkpt>
      <trkpt lat="42.91909396648407" lon="-2.51245996914804">
        <ele>578</ele>
        <time>2019-06-23T09:50:44Z</time>
      </trkpt>
      <trkpt lat="42.919122967869043" lon="-2.512669013813138">
        <ele>578</ele>
        <time>2019-06-23T09:50:46Z</time>
      </trkpt>
      <trkpt lat="42.919140988960862" lon="-2.512884009629488">
        <ele>578.39999999999998</ele>
        <time>2019-06-23T09:50:48Z</time>
      </trkpt>
      <trkpt lat="42.919144006446004" lon="-2.512994986027479">
        <ele>578.60000000000002</ele>
        <time>2019-06-23T09:50:49Z</time>
      </trkpt>
      <trkpt lat="42.919144006446004" lon="-2.513107974082232">
        <ele>578.60000000000002</ele>
        <time>2019-06-23T09:50:50Z</time>
      </trkpt>
      <trkpt lat="42.91913503780961" lon="-2.513335961848497">
        <ele>578.60000000000002</ele>
        <time>2019-06-23T09:50:52Z</time>
      </trkpt>
      <trkpt lat="42.919122967869043" lon="-2.513449033722282">
        <ele>578.60000000000002</ele>
        <time>2019-06-23T09:50:53Z</time>
      </trkpt>
      <trkpt lat="42.919103018939495" lon="-2.513562021777034">
        <ele>578.60000000000002</ele>
        <time>2019-06-23T09:50:54Z</time>
      </trkpt>
      <trkpt lat="42.919047027826309" lon="-2.513781962916255">
        <ele>578.60000000000002</ele>
        <time>2019-06-23T09:50:56Z</time>
      </trkpt>
      <trkpt lat="42.919014003127813" lon="-2.513891011476517">
        <ele>578.39999999999998</ele>
        <time>2019-06-23T09:50:57Z</time>
      </trkpt>
      <trkpt lat="42.918977960944176" lon="-2.514002993702889">
        <ele>578.20000000000005</ele>
        <time>2019-06-23T09:50:58Z</time>
      </trkpt>
      <trkpt lat="42.918936973437667" lon="-2.514120005071163">
        <ele>578</ele>
        <time>2019-06-23T09:50:59Z</time>
      </trkpt>
      <trkpt lat="42.918895985931158" lon="-2.514244979247451">
        <ele>577.60000000000002</ele>
        <time>2019-06-23T09:51:00Z</time>
      </trkpt>
      <trkpt lat="42.918860027566552" lon="-2.514382023364306">
        <ele>577.39999999999998</ele>
        <time>2019-06-23T09:51:01Z</time>
      </trkpt>
      <trkpt lat="42.918831026181579" lon="-2.514528036117554">
        <ele>577.39999999999998</ele>
        <time>2019-06-23T09:51:02Z</time>
      </trkpt>
      <trkpt lat="42.918817028403282" lon="-2.514683017507196">
        <ele>577.20000000000005</ele>
        <time>2019-06-23T09:51:03Z</time>
      </trkpt>
      <trkpt lat="42.918821973726153" lon="-2.51484202221036">
        <ele>577</ele>
        <time>2019-06-23T09:51:04Z</time>
      </trkpt>
      <trkpt lat="42.918834965676069" lon="-2.515004966408014">
        <ele>577</ele>
        <time>2019-06-23T09:51:05Z</time>
      </trkpt>
      <trkpt lat="42.918851980939507" lon="-2.515173023566604">
        <ele>576.60000000000002</ele>
        <time>2019-06-23T09:51:06Z</time>
      </trkpt>
      <trkpt lat="42.918865978717804" lon="-2.515344014391303">
        <ele>576.20000000000005</ele>
        <time>2019-06-23T09:51:07Z</time>
      </trkpt>
      <trkpt lat="42.918882993981242" lon="-2.515521962195635">
        <ele>575.60000000000002</ele>
        <time>2019-06-23T09:51:08Z</time>
      </trkpt>
      <trkpt lat="42.918902020901442" lon="-2.515705022960901">
        <ele>574.60000000000002</ele>
        <time>2019-06-23T09:51:09Z</time>
      </trkpt>
      <trkpt lat="42.918920964002609" lon="-2.515893029049039">
        <ele>573.60000000000002</ele>
        <time>2019-06-23T09:51:10Z</time>
      </trkpt>
      <trkpt lat="42.918937979266047" lon="-2.516083968803287">
        <ele>572</ele>
        <time>2019-06-23T09:51:11Z</time>
      </trkpt>
      <trkpt lat="42.918953988701105" lon="-2.516280021518469">
        <ele>571</ele>
        <time>2019-06-23T09:51:12Z</time>
      </trkpt>
      <trkpt lat="42.918968992307782" lon="-2.516480013728142">
        <ele>570.39999999999998</ele>
        <time>2019-06-23T09:51:13Z</time>
      </trkpt>
      <trkpt lat="42.918981984257698" lon="-2.516683023422957">
        <ele>569.39999999999998</ele>
        <time>2019-06-23T09:51:14Z</time>
      </trkpt>
      <trkpt lat="42.919004028663039" lon="-2.517101028934121">
        <ele>566</ele>
        <time>2019-06-23T09:51:16Z</time>
      </trkpt>
      <trkpt lat="42.919019032269716" lon="-2.51752900891006">
        <ele>563.60000000000002</ele>
        <time>2019-06-23T09:51:18Z</time>
      </trkpt>
      <trkpt lat="42.919033030048013" lon="-2.517953971400857">
        <ele>560.39999999999998</ele>
        <time>2019-06-23T09:51:20Z</time>
      </trkpt>
      <trkpt lat="42.919039987027645" lon="-2.518158992752433">
        <ele>558.60000000000002</ele>
        <time>2019-06-23T09:51:21Z</time>
      </trkpt>
      <trkpt lat="42.919047027826309" lon="-2.518357979133725">
        <ele>556.79999999999995</ele>
        <time>2019-06-23T09:51:22Z</time>
      </trkpt>
      <trkpt lat="42.919060019776225" lon="-2.518734997138381">
        <ele>554.79999999999995</ele>
        <time>2019-06-23T09:51:24Z</time>
      </trkpt>
      <trkpt lat="42.91907200589776" lon="-2.519086031243205">
        <ele>552.60000000000002</ele>
        <time>2019-06-23T09:51:26Z</time>
      </trkpt>
      <trkpt lat="42.919082986190915" lon="-2.519418960437179">
        <ele>551.39999999999998</ele>
        <time>2019-06-23T09:51:28Z</time>
      </trkpt>
      <trkpt lat="42.919090026989579" lon="-2.519578970968723">
        <ele>551.20000000000005</ele>
        <time>2019-06-23T09:51:29Z</time>
      </trkpt>
      <trkpt lat="42.919095978140831" lon="-2.519734036177397">
        <ele>551.20000000000005</ele>
        <time>2019-06-23T09:51:30Z</time>
      </trkpt>
      <trkpt lat="42.919104024767876" lon="-2.520030001178384">
        <ele>551</ele>
        <time>2019-06-23T09:51:32Z</time>
      </trkpt>
      <trkpt lat="42.919118022546172" lon="-2.520315991714597">
        <ele>551</ele>
        <time>2019-06-23T09:51:34Z</time>
      </trkpt>
      <trkpt lat="42.919126991182566" lon="-2.520603993907571">
        <ele>551</ele>
        <time>2019-06-23T09:51:36Z</time>
      </trkpt>
      <trkpt lat="42.919132020324469" lon="-2.5209029763937">
        <ele>551.20000000000005</ele>
        <time>2019-06-23T09:51:38Z</time>
      </trkpt>
      <trkpt lat="42.919135959818959" lon="-2.521057035773993">
        <ele>551</ele>
        <time>2019-06-23T09:51:39Z</time>
      </trkpt>
      <trkpt lat="42.919141994789243" lon="-2.521213022992015">
        <ele>551.20000000000005</ele>
        <time>2019-06-23T09:51:40Z</time>
      </trkpt>
      <trkpt lat="42.919150963425636" lon="-2.521523991599679">
        <ele>551.20000000000005</ele>
        <time>2019-06-23T09:51:42Z</time>
      </trkpt>
      <trkpt lat="42.919164961203933" lon="-2.521821968257427">
        <ele>551</ele>
        <time>2019-06-23T09:51:44Z</time>
      </trkpt>
      <trkpt lat="42.919175019487739" lon="-2.522092033177614">
        <ele>551.20000000000005</ele>
        <time>2019-06-23T09:51:46Z</time>
      </trkpt>
      <trkpt lat="42.919183988124132" lon="-2.522335024550557">
        <ele>551.60000000000002</ele>
        <time>2019-06-23T09:51:48Z</time>
      </trkpt>
      <trkpt lat="42.919193962588906" lon="-2.52255798317492">
        <ele>551.60000000000002</ele>
        <time>2019-06-23T09:51:50Z</time>
      </trkpt>
      <trkpt lat="42.919197985902429" lon="-2.52266401425004">
        <ele>551.60000000000002</ele>
        <time>2019-06-23T09:51:51Z</time>
      </trkpt>
      <trkpt lat="42.919205026701093" lon="-2.522767027840018">
        <ele>551.39999999999998</ele>
        <time>2019-06-23T09:51:52Z</time>
      </trkpt>
      <trkpt lat="42.919218018651009" lon="-2.522979006171227">
        <ele>551.60000000000002</ele>
        <time>2019-06-23T09:51:54Z</time>
      </trkpt>
      <trkpt lat="42.919224975630641" lon="-2.52320003695786">
        <ele>552.60000000000002</ele>
        <time>2019-06-23T09:51:56Z</time>
      </trkpt>
      <trkpt lat="42.919235033914447" lon="-2.5234379991889">
        <ele>554.39999999999998</ele>
        <time>2019-06-23T09:51:58Z</time>
      </trkpt>
      <trkpt lat="42.91924299672246" lon="-2.523670010268688">
        <ele>555.39999999999998</ele>
        <time>2019-06-23T09:52:00Z</time>
      </trkpt>
      <trkpt lat="42.919249031692743" lon="-2.523900009691715">
        <ele>555.79999999999995</ele>
        <time>2019-06-23T09:52:02Z</time>
      </trkpt>
      <trkpt lat="42.919253977015615" lon="-2.524012997746468">
        <ele>556</ele>
        <time>2019-06-23T09:52:03Z</time>
      </trkpt>
      <trkpt lat="42.919255988672376" lon="-2.524121962487698">
        <ele>555.79999999999995</ele>
        <time>2019-06-23T09:52:04Z</time>
      </trkpt>
      <trkpt lat="42.919259006157517" lon="-2.524228999391198">
        <ele>556</ele>
        <time>2019-06-23T09:52:05Z</time>
      </trkpt>
      <trkpt lat="42.91926302947104" lon="-2.524334024637938">
        <ele>556.20000000000005</ele>
        <time>2019-06-23T09:52:06Z</time>
      </trkpt>
      <trkpt lat="42.919270992279053" lon="-2.524556983262301">
        <ele>556.39999999999998</ele>
        <time>2019-06-23T09:52:08Z</time>
      </trkpt>
      <trkpt lat="42.919277027249336" lon="-2.524670977145433">
        <ele>556.39999999999998</ele>
        <time>2019-06-23T09:52:09Z</time>
      </trkpt>
      <trkpt lat="42.919283984228969" lon="-2.52479100599885">
        <ele>556.60000000000002</ele>
        <time>2019-06-23T09:52:10Z</time>
      </trkpt>
      <trkpt lat="42.919293958693743" lon="-2.525043971836567">
        <ele>556.39999999999998</ele>
        <time>2019-06-23T09:52:12Z</time>
      </trkpt>
      <trkpt lat="42.919296976178885" lon="-2.525173975154758">
        <ele>556.39999999999998</ele>
        <time>2019-06-23T09:52:13Z</time>
      </trkpt>
      <trkpt lat="42.919299993664026" lon="-2.52530699595809">
        <ele>556.20000000000005</ele>
        <time>2019-06-23T09:52:14Z</time>
      </trkpt>
      <trkpt lat="42.919300999492407" lon="-2.525443034246564">
        <ele>556</ele>
        <time>2019-06-23T09:52:15Z</time>
      </trkpt>
      <trkpt lat="42.919303011149168" lon="-2.525582006201148">
        <ele>556</ele>
        <time>2019-06-23T09:52:16Z</time>
      </trkpt>
      <trkpt lat="42.919303011149168" lon="-2.52586699090898">
        <ele>556</ele>
        <time>2019-06-23T09:52:18Z</time>
      </trkpt>
      <trkpt lat="42.919305022805929" lon="-2.526011997833848">
        <ele>555.79999999999995</ele>
        <time>2019-06-23T09:52:19Z</time>
      </trkpt>
      <trkpt lat="42.91930602863431" lon="-2.526158010587096">
        <ele>555.79999999999995</ele>
        <time>2019-06-23T09:52:20Z</time>
      </trkpt>
      <trkpt lat="42.91930703446269" lon="-2.526452969759703">
        <ele>555</ele>
        <time>2019-06-23T09:52:22Z</time>
      </trkpt>
      <trkpt lat="42.919310973957181" lon="-2.52674600109458">
        <ele>553.79999999999995</ele>
        <time>2019-06-23T09:52:24Z</time>
      </trkpt>
      <trkpt lat="42.919313991442323" lon="-2.527035009115934">
        <ele>552.60000000000002</ele>
        <time>2019-06-23T09:52:26Z</time>
      </trkpt>
      <trkpt lat="42.919321032240987" lon="-2.527316976338625">
        <ele>552.20000000000005</ele>
        <time>2019-06-23T09:52:28Z</time>
      </trkpt>
      <trkpt lat="42.919327989220619" lon="-2.527591986581683">
        <ele>551.20000000000005</ele>
        <time>2019-06-23T09:52:30Z</time>
      </trkpt>
      <trkpt lat="42.919336035847664" lon="-2.527865990996361">
        <ele>551</ele>
        <time>2019-06-23T09:52:32Z</time>
      </trkpt>
      <trkpt lat="42.919338969513774" lon="-2.528004962950945">
        <ele>550.79999999999995</ele>
        <time>2019-06-23T09:52:33Z</time>
      </trkpt>
      <trkpt lat="42.919341986998916" lon="-2.528144018724561">
        <ele>551</ele>
        <time>2019-06-23T09:52:34Z</time>
      </trkpt>
      <trkpt lat="42.919348021969199" lon="-2.528418023139238">
        <ele>550.60000000000002</ele>
        <time>2019-06-23T09:52:36Z</time>
      </trkpt>
      <trkpt lat="42.919354978948832" lon="-2.528682975098491">
        <ele>550.60000000000002</ele>
        <time>2019-06-23T09:52:38Z</time>
      </trkpt>
      <trkpt lat="42.919361013919115" lon="-2.52893996424973">
        <ele>550.60000000000002</ele>
        <time>2019-06-23T09:52:40Z</time>
      </trkpt>
      <trkpt lat="42.91937300004065" lon="-2.529193013906479">
        <ele>550.79999999999995</ele>
        <time>2019-06-23T09:52:42Z</time>
      </trkpt>
      <trkpt lat="42.91939496062696" lon="-2.529438016936183">
        <ele>550.79999999999995</ele>
        <time>2019-06-23T09:52:44Z</time>
      </trkpt>
      <trkpt lat="42.919431002810597" lon="-2.529669022187591">
        <ele>550.79999999999995</ele>
        <time>2019-06-23T09:52:46Z</time>
      </trkpt>
      <trkpt lat="42.91947903111577" lon="-2.529891980811954">
        <ele>551.39999999999998</ele>
        <time>2019-06-23T09:52:48Z</time>
      </trkpt>
      <trkpt lat="42.919546002522111" lon="-2.530103037133813">
        <ele>552</ele>
        <time>2019-06-23T09:52:50Z</time>
      </trkpt>
      <trkpt lat="42.919585984200239" lon="-2.530202027410269">
        <ele>552.39999999999998</ele>
        <time>2019-06-23T09:52:51Z</time>
      </trkpt>
      <trkpt lat="42.919628983363509" lon="-2.530294982716441">
        <ele>552.60000000000002</ele>
        <time>2019-06-23T09:52:52Z</time>
      </trkpt>
      <trkpt lat="42.919721016660333" lon="-2.530471002683044">
        <ele>553.39999999999998</ele>
        <time>2019-06-23T09:52:54Z</time>
      </trkpt>
      <trkpt lat="42.919811038300395" lon="-2.530641993507743">
        <ele>554.39999999999998</ele>
        <time>2019-06-23T09:52:56Z</time>
      </trkpt>
      <trkpt lat="42.919855965301394" lon="-2.530726986005902">
        <ele>554.39999999999998</ele>
        <time>2019-06-23T09:52:57Z</time>
      </trkpt>
      <trkpt lat="42.919900976121426" lon="-2.530811978504062">
        <ele>554.60000000000002</ele>
        <time>2019-06-23T09:52:58Z</time>
      </trkpt>
      <trkpt lat="42.919989991933107" lon="-2.530981963500381">
        <ele>555</ele>
        <time>2019-06-23T09:53:00Z</time>
      </trkpt>
      <trkpt lat="42.920032991096377" lon="-2.53106402233243">
        <ele>555</ele>
        <time>2019-06-23T09:53:01Z</time>
      </trkpt>
      <trkpt lat="42.920075990259647" lon="-2.531143985688686">
        <ele>555.20000000000005</ele>
        <time>2019-06-23T09:53:02Z</time>
      </trkpt>
      <trkpt lat="42.920158971101046" lon="-2.531298967078328">
        <ele>555.79999999999995</ele>
        <time>2019-06-23T09:53:04Z</time>
      </trkpt>
      <trkpt lat="42.920199036598206" lon="-2.531375996768475">
        <ele>556</ele>
        <time>2019-06-23T09:53:05Z</time>
      </trkpt>
      <trkpt lat="42.920237006619573" lon="-2.53145101480186">
        <ele>556.20000000000005</ele>
        <time>2019-06-23T09:53:06Z</time>
      </trkpt>
      <trkpt lat="42.92027497664094" lon="-2.531523015350103">
        <ele>556.60000000000002</ele>
        <time>2019-06-23T09:53:07Z</time>
      </trkpt>
      <trkpt lat="42.920314036309719" lon="-2.531595015898347">
        <ele>556.79999999999995</ele>
        <time>2019-06-23T09:53:08Z</time>
      </trkpt>
      <trkpt lat="42.920386958867311" lon="-2.531735999509692">
        <ele>557.20000000000005</ele>
        <time>2019-06-23T09:53:10Z</time>
      </trkpt>
      <trkpt lat="42.920427024364471" lon="-2.531803976744413">
        <ele>557.39999999999998</ele>
        <time>2019-06-23T09:53:11Z</time>
      </trkpt>
      <trkpt lat="42.920464994385839" lon="-2.531872037798166">
        <ele>557.79999999999995</ele>
        <time>2019-06-23T09:53:12Z</time>
      </trkpt>
      <trkpt lat="42.92053297162056" lon="-2.532012015581131">
        <ele>558.39999999999998</ele>
        <time>2019-06-23T09:53:14Z</time>
      </trkpt>
      <trkpt lat="42.920604972168803" lon="-2.532150987535715">
        <ele>559.60000000000002</ele>
        <time>2019-06-23T09:53:16Z</time>
      </trkpt>
      <trkpt lat="42.920637996867299" lon="-2.532221982255578">
        <ele>559.79999999999995</ele>
        <time>2019-06-23T09:53:17Z</time>
      </trkpt>
      <trkpt lat="42.920673033222556" lon="-2.53229197114706">
        <ele>560</ele>
        <time>2019-06-23T09:53:18Z</time>
      </trkpt>
      <trkpt lat="42.920749979093671" lon="-2.532429015263915">
        <ele>560.79999999999995</ele>
        <time>2019-06-23T09:53:20Z</time>
      </trkpt>
      <trkpt lat="42.920820973813534" lon="-2.532573016360402">
        <ele>561.39999999999998</ele>
        <time>2019-06-23T09:53:22Z</time>
      </trkpt>
      <trkpt lat="42.920858021825552" lon="-2.532643005251885">
        <ele>561.79999999999995</ele>
        <time>2019-06-23T09:53:23Z</time>
      </trkpt>
      <trkpt lat="42.920892974361777" lon="-2.532711988314986">
        <ele>562</ele>
        <time>2019-06-23T09:53:24Z</time>
      </trkpt>
      <trkpt lat="42.920929016545415" lon="-2.532780971378088">
        <ele>562.39999999999998</ele>
        <time>2019-06-23T09:53:25Z</time>
      </trkpt>
      <trkpt lat="42.92096396908164" lon="-2.532850038260222">
        <ele>562.60000000000002</ele>
        <time>2019-06-23T09:53:26Z</time>
      </trkpt>
      <trkpt lat="42.921001017093658" lon="-2.532919021323323">
        <ele>563.20000000000005</ele>
        <time>2019-06-23T09:53:27Z</time>
      </trkpt>
      <trkpt lat="42.921034963801503" lon="-2.532988004386425">
        <ele>563.20000000000005</ele>
        <time>2019-06-23T09:53:28Z</time>
      </trkpt>
      <trkpt lat="42.921072011813521" lon="-2.533055981621146">
        <ele>563.39999999999998</ele>
        <time>2019-06-23T09:53:29Z</time>
      </trkpt>
      <trkpt lat="42.921109981834888" lon="-2.533122031018138">
        <ele>563.79999999999995</ele>
        <time>2019-06-23T09:53:30Z</time>
      </trkpt>
      <trkpt lat="42.921184999868274" lon="-2.533254968002439">
        <ele>564.39999999999998</ele>
        <time>2019-06-23T09:53:32Z</time>
      </trkpt>
      <trkpt lat="42.921257000416517" lon="-2.533393017947674">
        <ele>565.20000000000005</ele>
        <time>2019-06-23T09:53:34Z</time>
      </trkpt>
      <trkpt lat="42.921293964609504" lon="-2.533460995182395">
        <ele>565.79999999999995</ele>
        <time>2019-06-23T09:53:35Z</time>
      </trkpt>
      <trkpt lat="42.921325983479619" lon="-2.533531989902258">
        <ele>566.20000000000005</ele>
        <time>2019-06-23T09:53:36Z</time>
      </trkpt>
      <trkpt lat="42.92139102704823" lon="-2.533674985170364">
        <ele>566.60000000000002</ele>
        <time>2019-06-23T09:53:38Z</time>
      </trkpt>
      <trkpt lat="42.921424973756075" lon="-2.533746985718608">
        <ele>566.79999999999995</ele>
        <time>2019-06-23T09:53:39Z</time>
      </trkpt>
      <trkpt lat="42.92145699262619" lon="-2.533820997923613">
        <ele>567</ele>
        <time>2019-06-23T09:53:40Z</time>
      </trkpt>
      <trkpt lat="42.92151901870966" lon="-2.533974973484874">
        <ele>567.79999999999995</ele>
        <time>2019-06-23T09:53:42Z</time>
      </trkpt>
      <trkpt lat="42.921585990116" lon="-2.534133978188038">
        <ele>568.79999999999995</ele>
        <time>2019-06-23T09:53:44Z</time>
      </trkpt>
      <trkpt lat="42.921660002321005" lon="-2.534299017861486">
        <ele>569.39999999999998</ele>
        <time>2019-06-23T09:53:46Z</time>
      </trkpt>
      <trkpt lat="42.921698978170753" lon="-2.534387027844787">
        <ele>569.60000000000002</ele>
        <time>2019-06-23T09:53:47Z</time>
      </trkpt>
      <trkpt lat="42.921738037839532" lon="-2.534478977322578">
        <ele>569.60000000000002</ele>
        <time>2019-06-23T09:53:48Z</time>
      </trkpt>
      <trkpt lat="42.921776007860899" lon="-2.534575033932924">
        <ele>569.60000000000002</ele>
        <time>2019-06-23T09:53:49Z</time>
      </trkpt>
      <trkpt lat="42.921814983710647" lon="-2.534672012552619">
        <ele>569.60000000000002</ele>
        <time>2019-06-23T09:53:50Z</time>
      </trkpt>
      <trkpt lat="42.921896958723664" lon="-2.53486798144877">
        <ele>569.60000000000002</ele>
        <time>2019-06-23T09:53:52Z</time>
      </trkpt>
      <trkpt lat="42.921979017555714" lon="-2.535066967830062">
        <ele>569.79999999999995</ele>
        <time>2019-06-23T09:53:54Z</time>
      </trkpt>
      <trkpt lat="42.922065015882254" lon="-2.535271989181638">
        <ele>569</ele>
        <time>2019-06-23T09:53:56Z</time>
      </trkpt>
      <trkpt lat="42.922109020873904" lon="-2.535379026085138">
        <ele>568.60000000000002</ele>
        <time>2019-06-23T09:53:57Z</time>
      </trkpt>
      <trkpt lat="42.922152020037174" lon="-2.535487990826368">
        <ele>568.39999999999998</ele>
        <time>2019-06-23T09:53:58Z</time>
      </trkpt>
      <trkpt lat="42.922239024192095" lon="-2.535712039098144">
        <ele>567.79999999999995</ele>
        <time>2019-06-23T09:54:00Z</time>
      </trkpt>
      <trkpt lat="42.922282023355365" lon="-2.535818992182612">
        <ele>567.60000000000002</ele>
        <time>2019-06-23T09:54:01Z</time>
      </trkpt>
      <trkpt lat="42.922325022518635" lon="-2.535927034914494">
        <ele>567.39999999999998</ele>
        <time>2019-06-23T09:54:02Z</time>
      </trkpt>
      <trkpt lat="42.922414038330317" lon="-2.53613498993218">
        <ele>567</ele>
        <time>2019-06-23T09:54:04Z</time>
      </trkpt>
      <trkpt lat="42.922497019171715" lon="-2.536339005455375">
        <ele>566.20000000000005</ele>
        <time>2019-06-23T09:54:06Z</time>
      </trkpt>
      <trkpt lat="42.922538006678224" lon="-2.536442019045353">
        <ele>565.79999999999995</ele>
        <time>2019-06-23T09:54:07Z</time>
      </trkpt>
      <trkpt lat="42.922580000013113" lon="-2.53654302097857">
        <ele>565.60000000000002</ele>
        <time>2019-06-23T09:54:08Z</time>
      </trkpt>
      <trkpt lat="42.922659041360021" lon="-2.536747036501765">
        <ele>565.39999999999998</ele>
        <time>2019-06-23T09:54:10Z</time>
      </trkpt>
      <trkpt lat="42.922739004716277" lon="-2.536943005397916">
        <ele>565.39999999999998</ele>
        <time>2019-06-23T09:54:12Z</time>
      </trkpt>
      <trkpt lat="42.922818968072534" lon="-2.537137968465686">
        <ele>565.20000000000005</ele>
        <time>2019-06-23T09:54:14Z</time>
      </trkpt>
      <trkpt lat="42.922860961407423" lon="-2.537237964570522">
        <ele>565.20000000000005</ele>
        <time>2019-06-23T09:54:15Z</time>
      </trkpt>
      <trkpt lat="42.922904966399074" lon="-2.53733703866601">
        <ele>565.20000000000005</ele>
        <time>2019-06-23T09:54:16Z</time>
      </trkpt>
      <trkpt lat="42.922999011352658" lon="-2.537535019218922">
        <ele>565.20000000000005</ele>
        <time>2019-06-23T09:54:18Z</time>
      </trkpt>
      <trkpt lat="42.92308802716434" lon="-2.537740962579846">
        <ele>565.39999999999998</ele>
        <time>2019-06-23T09:54:20Z</time>
      </trkpt>
      <trkpt lat="42.923133037984371" lon="-2.537842970341444">
        <ele>565.20000000000005</ele>
        <time>2019-06-23T09:54:21Z</time>
      </trkpt>
      <trkpt lat="42.92317695915699" lon="-2.537943972274661">
        <ele>565.20000000000005</ele>
        <time>2019-06-23T09:54:22Z</time>
      </trkpt>
      <trkpt lat="42.923265974968672" lon="-2.538147987797856">
        <ele>565.20000000000005</ele>
        <time>2019-06-23T09:54:24Z</time>
      </trkpt>
      <trkpt lat="42.923351973295212" lon="-2.538358960300684">
        <ele>565</ele>
        <time>2019-06-23T09:54:26Z</time>
      </trkpt>
      <trkpt lat="42.923437971621752" lon="-2.538574961945415">
        <ele>565.20000000000005</ele>
        <time>2019-06-23T09:54:28Z</time>
      </trkpt>
      <trkpt lat="42.923520030453801" lon="-2.538795992732048">
        <ele>564.79999999999995</ele>
        <time>2019-06-23T09:54:30Z</time>
      </trkpt>
      <trkpt lat="42.923560012131929" lon="-2.53890797495842">
        <ele>564.60000000000002</ele>
        <time>2019-06-23T09:54:31Z</time>
      </trkpt>
      <trkpt lat="42.923600999638438" lon="-2.539021968841553">
        <ele>564.60000000000002</ele>
        <time>2019-06-23T09:54:32Z</time>
      </trkpt>
      <trkpt lat="42.923680962994695" lon="-2.539254985749722">
        <ele>564.20000000000005</ele>
        <time>2019-06-23T09:54:34Z</time>
      </trkpt>
      <trkpt lat="42.923761010169983" lon="-2.539491020143032">
        <ele>563.79999999999995</ele>
        <time>2019-06-23T09:54:36Z</time>
      </trkpt>
      <trkpt lat="42.92384197935462" lon="-2.539727976545692">
        <ele>563.60000000000002</ele>
        <time>2019-06-23T09:54:38Z</time>
      </trkpt>
      <trkpt lat="42.923923032358289" lon="-2.539973985403776">
        <ele>562.79999999999995</ele>
        <time>2019-06-23T09:54:40Z</time>
      </trkpt>
      <trkpt lat="42.924001989886165" lon="-2.540228040888906">
        <ele>562.20000000000005</ele>
        <time>2019-06-23T09:54:42Z</time>
      </trkpt>
      <trkpt lat="42.924039959907532" lon="-2.540357960388064">
        <ele>561</ele>
        <time>2019-06-23T09:54:43Z</time>
      </trkpt>
      <trkpt lat="42.92407700791955" lon="-2.540490981191397">
        <ele>560.79999999999995</ele>
        <time>2019-06-23T09:54:44Z</time>
      </trkpt>
      <trkpt lat="42.924154959619045" lon="-2.540758028626442">
        <ele>560.39999999999998</ele>
        <time>2019-06-23T09:54:46Z</time>
      </trkpt>
      <trkpt lat="42.924197036772966" lon="-2.540889959782362">
        <ele>560.39999999999998</ele>
        <time>2019-06-23T09:54:47Z</time>
      </trkpt>
      <trkpt lat="42.924241041764617" lon="-2.541021974757314">
        <ele>560</ele>
        <time>2019-06-23T09:54:48Z</time>
      </trkpt>
      <trkpt lat="42.924336008727551" lon="-2.541281981393695">
        <ele>559.20000000000005</ele>
        <time>2019-06-23T09:54:50Z</time>
      </trkpt>
      <trkpt lat="42.924446985125542" lon="-2.541526984423399">
        <ele>558.20000000000005</ele>
        <time>2019-06-23T09:54:52Z</time>
      </trkpt>
      <trkpt lat="42.924510017037392" lon="-2.541643995791674">
        <ele>557.79999999999995</ele>
        <time>2019-06-23T09:54:53Z</time>
      </trkpt>
      <trkpt lat="42.924574976786971" lon="-2.541754972189665">
        <ele>557.39999999999998</ele>
        <time>2019-06-23T09:54:54Z</time>
      </trkpt>
      <trkpt lat="42.924715038388968" lon="-2.541967034339905">
        <ele>556.79999999999995</ele>
        <time>2019-06-23T09:54:56Z</time>
      </trkpt>
      <trkpt lat="42.924865996465087" lon="-2.542157974094153">
        <ele>556</ele>
        <time>2019-06-23T09:54:58Z</time>
      </trkpt>
      <trkpt lat="42.925027012825012" lon="-2.542328964918852">
        <ele>555.60000000000002</ele>
        <time>2019-06-23T09:55:00Z</time>
      </trkpt>
      <trkpt lat="42.925189035013318" lon="-2.542486041784287">
        <ele>555.39999999999998</ele>
        <time>2019-06-23T09:55:02Z</time>
      </trkpt>
      <trkpt lat="42.925350973382592" lon="-2.542639011517167">
        <ele>555.20000000000005</ele>
        <time>2019-06-23T09:55:04Z</time>
      </trkpt>
      <trkpt lat="42.925512995570898" lon="-2.542788041755557">
        <ele>555</ele>
        <time>2019-06-23T09:55:06Z</time>
      </trkpt>
      <trkpt lat="42.925675017759204" lon="-2.542933970689774">
        <ele>554.79999999999995</ele>
        <time>2019-06-23T09:55:08Z</time>
      </trkpt>
      <trkpt lat="42.925833016633987" lon="-2.543078977614641">
        <ele>554.79999999999995</ele>
        <time>2019-06-23T09:55:10Z</time>
      </trkpt>
      <trkpt lat="42.92599000968039" lon="-2.54322599619627">
        <ele>554.79999999999995</ele>
        <time>2019-06-23T09:55:12Z</time>
      </trkpt>
      <trkpt lat="42.926144991070032" lon="-2.543373014777899">
        <ele>554.79999999999995</ele>
        <time>2019-06-23T09:55:14Z</time>
      </trkpt>
      <trkpt lat="42.926299972459674" lon="-2.543518021702766">
        <ele>555</ele>
        <time>2019-06-23T09:55:16Z</time>
      </trkpt>
      <trkpt lat="42.926454031839967" lon="-2.543662022799254">
        <ele>555.20000000000005</ele>
        <time>2019-06-23T09:55:18Z</time>
      </trkpt>
      <trkpt lat="42.926607001572847" lon="-2.543807029724121">
        <ele>555.39999999999998</ele>
        <time>2019-06-23T09:55:20Z</time>
      </trkpt>
      <trkpt lat="42.926765000447631" lon="-2.543949019163847">
        <ele>555.39999999999998</ele>
        <time>2019-06-23T09:55:22Z</time>
      </trkpt>
      <trkpt lat="42.926921993494034" lon="-2.544095031917095">
        <ele>555.39999999999998</ele>
        <time>2019-06-23T09:55:24Z</time>
      </trkpt>
      <trkpt lat="42.927001034840941" lon="-2.544169966131449">
        <ele>555.39999999999998</ele>
        <time>2019-06-23T09:55:25Z</time>
      </trkpt>
      <trkpt lat="42.927080998197198" lon="-2.544243978336453">
        <ele>555.39999999999998</ele>
        <time>2019-06-23T09:55:26Z</time>
      </trkpt>
      <trkpt lat="42.927242014557123" lon="-2.544395020231605">
        <ele>555.39999999999998</ele>
        <time>2019-06-23T09:55:28Z</time>
      </trkpt>
      <trkpt lat="42.927404958754778" lon="-2.544547989964485">
        <ele>555.20000000000005</ele>
        <time>2019-06-23T09:55:30Z</time>
      </trkpt>
      <trkpt lat="42.927572010084987" lon="-2.544702971354127">
        <ele>555.20000000000005</ele>
        <time>2019-06-23T09:55:32Z</time>
      </trkpt>
      <trkpt lat="42.927740989252925" lon="-2.54486097022891">
        <ele>555</ele>
        <time>2019-06-23T09:55:34Z</time>
      </trkpt>
      <trkpt lat="42.927912985906005" lon="-2.545019974932075">
        <ele>554.79999999999995</ele>
        <time>2019-06-23T09:55:36Z</time>
      </trkpt>
      <trkpt lat="42.928085988387465" lon="-2.545179985463619">
        <ele>554.60000000000002</ele>
        <time>2019-06-23T09:55:38Z</time>
      </trkpt>
      <trkpt lat="42.928257985040545" lon="-2.545341001823545">
        <ele>554.39999999999998</ele>
        <time>2019-06-23T09:55:40Z</time>
      </trkpt>
      <trkpt lat="42.928426964208484" lon="-2.54550201818347">
        <ele>554.20000000000005</ele>
        <time>2019-06-23T09:55:42Z</time>
      </trkpt>
      <trkpt lat="42.928596027195454" lon="-2.545661022886634">
        <ele>554.20000000000005</ele>
        <time>2019-06-23T09:55:44Z</time>
      </trkpt>
      <trkpt lat="42.92876098304987" lon="-2.545816004276276">
        <ele>554.20000000000005</ele>
        <time>2019-06-23T09:55:46Z</time>
      </trkpt>
      <trkpt lat="42.928841030225158" lon="-2.545893033966422">
        <ele>554.20000000000005</ele>
        <time>2019-06-23T09:55:47Z</time>
      </trkpt>
      <trkpt lat="42.928919987753034" lon="-2.545968974009156">
        <ele>554.20000000000005</ele>
        <time>2019-06-23T09:55:48Z</time>
      </trkpt>
      <trkpt lat="42.929074969142675" lon="-2.546116998419166">
        <ele>554</ele>
        <time>2019-06-23T09:55:50Z</time>
      </trkpt>
      <trkpt lat="42.929223999381065" lon="-2.546258987858892">
        <ele>554.20000000000005</ele>
        <time>2019-06-23T09:55:52Z</time>
      </trkpt>
      <trkpt lat="42.929366994649172" lon="-2.546395026147366">
        <ele>554.20000000000005</ele>
        <time>2019-06-23T09:55:54Z</time>
      </trkpt>
      <trkpt lat="42.929507978260517" lon="-2.546524023637176">
        <ele>554.20000000000005</ele>
        <time>2019-06-23T09:55:56Z</time>
      </trkpt>
      <trkpt lat="42.929644016548991" lon="-2.546650003641844">
        <ele>554.39999999999998</ele>
        <time>2019-06-23T09:55:58Z</time>
      </trkpt>
      <trkpt lat="42.929777037352324" lon="-2.546774977818131">
        <ele>555</ele>
        <time>2019-06-23T09:56:00Z</time>
      </trkpt>
      <trkpt lat="42.929907962679863" lon="-2.54689902998507">
        <ele>555.60000000000002</ele>
        <time>2019-06-23T09:56:02Z</time>
      </trkpt>
      <trkpt lat="42.929973006248474" lon="-2.546959966421127">
        <ele>555.79999999999995</ele>
        <time>2019-06-23T09:56:03Z</time>
      </trkpt>
      <trkpt lat="42.930039977654815" lon="-2.547022998332977">
        <ele>556</ele>
        <time>2019-06-23T09:56:04Z</time>
      </trkpt>
      <trkpt lat="42.930170986801386" lon="-2.547148978337646">
        <ele>556.60000000000002</ele>
        <time>2019-06-23T09:56:06Z</time>
      </trkpt>
      <trkpt lat="42.930237958207726" lon="-2.547211004421115">
        <ele>557.20000000000005</ele>
        <time>2019-06-23T09:56:07Z</time>
      </trkpt>
      <trkpt lat="42.930304007604718" lon="-2.547273030504584">
        <ele>557.39999999999998</ele>
        <time>2019-06-23T09:56:08Z</time>
      </trkpt>
      <trkpt lat="42.930437028408051" lon="-2.547396998852491">
        <ele>557.79999999999995</ele>
        <time>2019-06-23T09:56:10Z</time>
      </trkpt>
      <trkpt lat="42.930569965392351" lon="-2.547520967200398">
        <ele>558.39999999999998</ele>
        <time>2019-06-23T09:56:12Z</time>
      </trkpt>
      <trkpt lat="42.930702986195683" lon="-2.547646025195718">
        <ele>559.20000000000005</ele>
        <time>2019-06-23T09:56:14Z</time>
      </trkpt>
      <trkpt lat="42.930837012827396" lon="-2.547767981886864">
        <ele>559.60000000000002</ele>
        <time>2019-06-23T09:56:16Z</time>
      </trkpt>
      <trkpt lat="42.930971039459109" lon="-2.547891028225422">
        <ele>559.79999999999995</ele>
        <time>2019-06-23T09:56:18Z</time>
      </trkpt>
      <trkpt lat="42.931106993928552" lon="-2.548013990744948">
        <ele>560</ele>
        <time>2019-06-23T09:56:20Z</time>
      </trkpt>
      <trkpt lat="42.931241020560265" lon="-2.548137959092856">
        <ele>560.20000000000005</ele>
        <time>2019-06-23T09:56:22Z</time>
      </trkpt>
      <trkpt lat="42.931307991966605" lon="-2.548199985176325">
        <ele>560.20000000000005</ele>
        <time>2019-06-23T09:56:23Z</time>
      </trkpt>
      <trkpt lat="42.931375969201326" lon="-2.548261005431414">
        <ele>560.20000000000005</ele>
        <time>2019-06-23T09:56:24Z</time>
      </trkpt>
      <trkpt lat="42.93151100166142" lon="-2.548384973779321">
        <ele>560.20000000000005</ele>
        <time>2019-06-23T09:56:26Z</time>
      </trkpt>
      <trkpt lat="42.931646034121513" lon="-2.548511037603021">
        <ele>560.39999999999998</ele>
        <time>2019-06-23T09:56:28Z</time>
      </trkpt>
      <trkpt lat="42.931714011356235" lon="-2.54857499152422">
        <ele>560.39999999999998</ele>
        <time>2019-06-23T09:56:29Z</time>
      </trkpt>
      <trkpt lat="42.931781988590956" lon="-2.54863902926445">
        <ele>560.39999999999998</ele>
        <time>2019-06-23T09:56:30Z</time>
      </trkpt>
      <trkpt lat="42.931916015222669" lon="-2.548769032582641">
        <ele>560.39999999999998</ele>
        <time>2019-06-23T09:56:32Z</time>
      </trkpt>
      <trkpt lat="42.932049036026001" lon="-2.548903981223702">
        <ele>560.60000000000002</ele>
        <time>2019-06-23T09:56:34Z</time>
      </trkpt>
      <trkpt lat="42.932181973010302" lon="-2.549043959006667">
        <ele>560.60000000000002</ele>
        <time>2019-06-23T09:56:36Z</time>
      </trkpt>
      <trkpt lat="42.932311976328492" lon="-2.549189971759915">
        <ele>560.60000000000002</ele>
        <time>2019-06-23T09:56:38Z</time>
      </trkpt>
      <trkpt lat="42.932438040152192" lon="-2.549345036968589">
        <ele>560.60000000000002</ele>
        <time>2019-06-23T09:56:40Z</time>
      </trkpt>
      <trkpt lat="42.932561002671719" lon="-2.549505969509482">
        <ele>560.60000000000002</ele>
        <time>2019-06-23T09:56:42Z</time>
      </trkpt>
      <trkpt lat="42.932680025696754" lon="-2.549677966162562">
        <ele>560.60000000000002</ele>
        <time>2019-06-23T09:56:44Z</time>
      </trkpt>
      <trkpt lat="42.932739034295082" lon="-2.549768993631005">
        <ele>560.39999999999998</ele>
        <time>2019-06-23T09:56:45Z</time>
      </trkpt>
      <trkpt lat="42.932797037065029" lon="-2.549861026927829">
        <ele>560.60000000000002</ele>
        <time>2019-06-23T09:56:46Z</time>
      </trkpt>
      <trkpt lat="42.932913964614272" lon="-2.550051966682077">
        <ele>560.60000000000002</ele>
        <time>2019-06-23T09:56:48Z</time>
      </trkpt>
      <trkpt lat="42.932971967384219" lon="-2.550150034949184">
        <ele>560.39999999999998</ele>
        <time>2019-06-23T09:56:49Z</time>
      </trkpt>
      <trkpt lat="42.933028964325786" lon="-2.550251958891749">
        <ele>560.39999999999998</ele>
        <time>2019-06-23T09:56:50Z</time>
      </trkpt>
      <trkpt lat="42.933143964037299" lon="-2.550459997728467">
        <ele>560.39999999999998</ele>
        <time>2019-06-23T09:56:52Z</time>
      </trkpt>
      <trkpt lat="42.933260975405574" lon="-2.550669964402914">
        <ele>560.20000000000005</ele>
        <time>2019-06-23T09:56:54Z</time>
      </trkpt>
      <trkpt lat="42.933377986773849" lon="-2.550884038209915">
        <ele>559.79999999999995</ele>
        <time>2019-06-23T09:56:56Z</time>
      </trkpt>
      <trkpt lat="42.933497009798884" lon="-2.551102973520756">
        <ele>559.20000000000005</ele>
        <time>2019-06-23T09:56:58Z</time>
      </trkpt>
      <trkpt lat="42.933558030053973" lon="-2.551213027909398">
        <ele>559</ele>
        <time>2019-06-23T09:56:59Z</time>
      </trkpt>
      <trkpt lat="42.933619972318411" lon="-2.551321992650628">
        <ele>558.79999999999995</ele>
        <time>2019-06-23T09:57:00Z</time>
      </trkpt>
      <trkpt lat="42.93374503031373" lon="-2.551544029265642">
        <ele>557.79999999999995</ele>
        <time>2019-06-23T09:57:02Z</time>
      </trkpt>
      <trkpt lat="42.933870004490018" lon="-2.551771011203528">
        <ele>557.20000000000005</ele>
        <time>2019-06-23T09:57:04Z</time>
      </trkpt>
      <trkpt lat="42.933996990323067" lon="-2.552000004798174">
        <ele>556.79999999999995</ele>
        <time>2019-06-23T09:57:06Z</time>
      </trkpt>
      <trkpt lat="42.934126993641257" lon="-2.552234027534723">
        <ele>556</ele>
        <time>2019-06-23T09:57:08Z</time>
      </trkpt>
      <trkpt lat="42.934192037209868" lon="-2.552352966740727">
        <ele>555.60000000000002</ele>
        <time>2019-06-23T09:57:09Z</time>
      </trkpt>
      <trkpt lat="42.934259008616209" lon="-2.552470983937383">
        <ele>555.20000000000005</ele>
        <time>2019-06-23T09:57:10Z</time>
      </trkpt>
      <trkpt lat="42.9343890119344" lon="-2.552711041644216">
        <ele>554.60000000000002</ele>
        <time>2019-06-23T09:57:12Z</time>
      </trkpt>
      <trkpt lat="42.93451901525259" lon="-2.552947998046875">
        <ele>553.39999999999998</ele>
        <time>2019-06-23T09:57:14Z</time>
      </trkpt>
      <trkpt lat="42.93458397500217" lon="-2.55306601524353">
        <ele>552.79999999999995</ele>
        <time>2019-06-23T09:57:15Z</time>
      </trkpt>
      <trkpt lat="42.9346480127424" lon="-2.553181014955044">
        <ele>552.20000000000005</ele>
        <time>2019-06-23T09:57:16Z</time>
      </trkpt>
      <trkpt lat="42.934772986918688" lon="-2.553406991064549">
        <ele>551</ele>
        <time>2019-06-23T09:57:18Z</time>
      </trkpt>
      <trkpt lat="42.934833001345396" lon="-2.55351897329092">
        <ele>550.79999999999995</ele>
        <time>2019-06-23T09:57:19Z</time>
      </trkpt>
      <trkpt lat="42.934892009943724" lon="-2.553628021851182">
        <ele>550.39999999999998</ele>
        <time>2019-06-23T09:57:20Z</time>
      </trkpt>
      <trkpt lat="42.935006003826857" lon="-2.553842011839151">
        <ele>550.20000000000005</ele>
        <time>2019-06-23T09:57:22Z</time>
      </trkpt>
      <trkpt lat="42.935117986053228" lon="-2.554048961028457">
        <ele>550.20000000000005</ele>
        <time>2019-06-23T09:57:24Z</time>
      </trkpt>
      <trkpt lat="42.93522896245122" lon="-2.554250964894891">
        <ele>550</ele>
        <time>2019-06-23T09:57:26Z</time>
      </trkpt>
      <trkpt lat="42.93533499352634" lon="-2.554449029266834">
        <ele>550.20000000000005</ele>
        <time>2019-06-23T09:57:28Z</time>
      </trkpt>
      <trkpt lat="42.935388972982764" lon="-2.55454701371491">
        <ele>550.20000000000005</ele>
        <time>2019-06-23T09:57:29Z</time>
      </trkpt>
      <trkpt lat="42.935440018773079" lon="-2.554646003991365">
        <ele>550.20000000000005</ele>
        <time>2019-06-23T09:57:30Z</time>
      </trkpt>
      <trkpt lat="42.935542026534677" lon="-2.554840967059135">
        <ele>550.20000000000005</ele>
        <time>2019-06-23T09:57:32Z</time>
      </trkpt>
      <trkpt lat="42.935591982677579" lon="-2.554940041154623">
        <ele>550.39999999999998</ele>
        <time>2019-06-23T09:57:33Z</time>
      </trkpt>
      <trkpt lat="42.935645040124655" lon="-2.555035008117557">
        <ele>550.20000000000005</ele>
        <time>2019-06-23T09:57:34Z</time>
      </trkpt>
      <trkpt lat="42.935745036229491" lon="-2.555226031690836">
        <ele>550.60000000000002</ele>
        <time>2019-06-23T09:57:36Z</time>
      </trkpt>
      <trkpt lat="42.935797004029155" lon="-2.555319992825389">
        <ele>550.39999999999998</ele>
        <time>2019-06-23T09:57:37Z</time>
      </trkpt>
      <trkpt lat="42.935846960172057" lon="-2.555414037778974">
        <ele>550.60000000000002</ele>
        <time>2019-06-23T09:57:38Z</time>
      </trkpt>
      <trkpt lat="42.935895994305611" lon="-2.555509004741907">
        <ele>550.60000000000002</ele>
        <time>2019-06-23T09:57:39Z</time>
      </trkpt>
      <trkpt lat="42.935945028439164" lon="-2.55560296587646">
        <ele>550.79999999999995</ele>
        <time>2019-06-23T09:57:40Z</time>
      </trkpt>
      <trkpt lat="42.936045024544001" lon="-2.555788038298488">
        <ele>551.20000000000005</ele>
        <time>2019-06-23T09:57:42Z</time>
      </trkpt>
      <trkpt lat="42.936145020648837" lon="-2.555973026901484">
        <ele>551.79999999999995</ele>
        <time>2019-06-23T09:57:44Z</time>
      </trkpt>
      <trkpt lat="42.936243005096912" lon="-2.556160027161241">
        <ele>551.79999999999995</ele>
        <time>2019-06-23T09:57:46Z</time>
      </trkpt>
      <trkpt lat="42.936339983716607" lon="-2.556343004107475">
        <ele>552</ele>
        <time>2019-06-23T09:57:48Z</time>
      </trkpt>
      <trkpt lat="42.936389017850161" lon="-2.556435037404299">
        <ele>552</ele>
        <time>2019-06-23T09:57:49Z</time>
      </trkpt>
      <trkpt lat="42.936437968164682" lon="-2.55652598105371">
        <ele>552.20000000000005</ele>
        <time>2019-06-23T09:57:50Z</time>
      </trkpt>
      <trkpt lat="42.936536036431789" lon="-2.556709041818976">
        <ele>552.20000000000005</ele>
        <time>2019-06-23T09:57:52Z</time>
      </trkpt>
      <trkpt lat="42.936634020879865" lon="-2.556889001280069">
        <ele>552.39999999999998</ele>
        <time>2019-06-23T09:57:54Z</time>
      </trkpt>
      <trkpt lat="42.936730999499559" lon="-2.557069966569543">
        <ele>552.60000000000002</ele>
        <time>2019-06-23T09:57:56Z</time>
      </trkpt>
      <trkpt lat="42.936826972290874" lon="-2.557250009849668">
        <ele>552.60000000000002</ele>
        <time>2019-06-23T09:57:58Z</time>
      </trkpt>
      <trkpt lat="42.936925040557981" lon="-2.557430975139141">
        <ele>552.79999999999995</ele>
        <time>2019-06-23T09:58:00Z</time>
      </trkpt>
      <trkpt lat="42.936973990872502" lon="-2.557522002607584">
        <ele>552.60000000000002</ele>
        <time>2019-06-23T09:58:01Z</time>
      </trkpt>
      <trkpt lat="42.937022019177675" lon="-2.557614035904408">
        <ele>552.60000000000002</ele>
        <time>2019-06-23T09:58:02Z</time>
      </trkpt>
      <trkpt lat="42.937120003625751" lon="-2.557797012850642">
        <ele>552.60000000000002</ele>
        <time>2019-06-23T09:58:04Z</time>
      </trkpt>
      <trkpt lat="42.937215976417065" lon="-2.557979989796877">
        <ele>552.60000000000002</ele>
        <time>2019-06-23T09:58:06Z</time>
      </trkpt>
      <trkpt lat="42.93731102719903" lon="-2.558161960914731">
        <ele>552.60000000000002</ele>
        <time>2019-06-23T09:58:08Z</time>
      </trkpt>
      <trkpt lat="42.937409011647105" lon="-2.558342004194856">
        <ele>552.79999999999995</ele>
        <time>2019-06-23T09:58:10Z</time>
      </trkpt>
      <trkpt lat="42.937506996095181" lon="-2.558520035818219">
        <ele>553</ele>
        <time>2019-06-23T09:58:12Z</time>
      </trkpt>
      <trkpt lat="42.937557036057115" lon="-2.558607961982489">
        <ele>553.20000000000005</ele>
        <time>2019-06-23T09:58:13Z</time>
      </trkpt>
      <trkpt lat="42.937606992200017" lon="-2.55869597196579">
        <ele>553.20000000000005</ele>
        <time>2019-06-23T09:58:14Z</time>
      </trkpt>
      <trkpt lat="42.937705982476473" lon="-2.558869980275631">
        <ele>553.20000000000005</ele>
        <time>2019-06-23T09:58:16Z</time>
      </trkpt>
      <trkpt lat="42.937803966924548" lon="-2.559046000242233">
        <ele>553.20000000000005</ele>
        <time>2019-06-23T09:58:18Z</time>
      </trkpt>
      <trkpt lat="42.937902035191655" lon="-2.559220008552074">
        <ele>553.20000000000005</ele>
        <time>2019-06-23T09:58:20Z</time>
      </trkpt>
      <trkpt lat="42.937997002154589" lon="-2.559390999376774">
        <ele>553.39999999999998</ele>
        <time>2019-06-23T09:58:22Z</time>
      </trkpt>
      <trkpt lat="42.938043018803" lon="-2.559475991874933">
        <ele>553.39999999999998</ele>
        <time>2019-06-23T09:58:23Z</time>
      </trkpt>
      <trkpt lat="42.938089035451412" lon="-2.559558972716332">
        <ele>553.39999999999998</ele>
        <time>2019-06-23T09:58:24Z</time>
      </trkpt>
      <trkpt lat="42.938134968280792" lon="-2.559642037376761">
        <ele>553.39999999999998</ele>
        <time>2019-06-23T09:58:25Z</time>
      </trkpt>
      <trkpt lat="42.938181990757585" lon="-2.559722000733018">
        <ele>553.60000000000002</ele>
        <time>2019-06-23T09:58:26Z</time>
      </trkpt>
      <trkpt lat="42.938266983255744" lon="-2.559882011264563">
        <ele>553.60000000000002</ele>
        <time>2019-06-23T09:58:28Z</time>
      </trkpt>
      <trkpt lat="42.938350969925523" lon="-2.560034980997443">
        <ele>554.20000000000005</ele>
        <time>2019-06-23T09:58:30Z</time>
      </trkpt>
      <trkpt lat="42.938434034585953" lon="-2.560185017064214">
        <ele>554.60000000000002</ele>
        <time>2019-06-23T09:58:32Z</time>
      </trkpt>
      <trkpt lat="42.938511986285448" lon="-2.560332035645843">
        <ele>554.79999999999995</ele>
        <time>2019-06-23T09:58:34Z</time>
      </trkpt>
      <trkpt lat="42.938549034297466" lon="-2.560403030365706">
        <ele>555</ele>
        <time>2019-06-23T09:58:35Z</time>
      </trkpt>
      <trkpt lat="42.938591027632356" lon="-2.560472013428807">
        <ele>555</ele>
        <time>2019-06-23T09:58:36Z</time>
      </trkpt>
      <trkpt lat="42.938673002645373" lon="-2.560610985383391">
        <ele>555.39999999999998</ele>
        <time>2019-06-23T09:58:38Z</time>
      </trkpt>
      <trkpt lat="42.938711978495121" lon="-2.560683991760016">
        <ele>555.39999999999998</ele>
        <time>2019-06-23T09:58:39Z</time>
      </trkpt>
      <trkpt lat="42.938751960173249" lon="-2.56075699813664">
        <ele>555.79999999999995</ele>
        <time>2019-06-23T09:58:40Z</time>
      </trkpt>
      <trkpt lat="42.938829995691776" lon="-2.56090703420341">
        <ele>556.60000000000002</ele>
        <time>2019-06-23T09:58:42Z</time>
      </trkpt>
      <trkpt lat="42.938909959048033" lon="-2.561052963137627">
        <ele>557.20000000000005</ele>
        <time>2019-06-23T09:58:44Z</time>
      </trkpt>
      <trkpt lat="42.938948012888432" lon="-2.561124041676521">
        <ele>557.60000000000002</ele>
        <time>2019-06-23T09:58:45Z</time>
      </trkpt>
      <trkpt lat="42.938985982909799" lon="-2.561196964234114">
        <ele>557.79999999999995</ele>
        <time>2019-06-23T09:58:46Z</time>
      </trkpt>
      <trkpt lat="42.939065024256706" lon="-2.561342976987362">
        <ele>558.60000000000002</ele>
        <time>2019-06-23T09:58:48Z</time>
      </trkpt>
      <trkpt lat="42.93913995847106" lon="-2.56148798391223">
        <ele>559</ele>
        <time>2019-06-23T09:58:50Z</time>
      </trkpt>
      <trkpt lat="42.939209025353193" lon="-2.561636008322239">
        <ele>559.60000000000002</ele>
        <time>2019-06-23T09:58:52Z</time>
      </trkpt>
      <trkpt lat="42.939248001202941" lon="-2.561708008870482">
        <ele>559.79999999999995</ele>
        <time>2019-06-23T09:58:53Z</time>
      </trkpt>
      <trkpt lat="42.939287982881069" lon="-2.561779003590345">
        <ele>559.79999999999995</ele>
        <time>2019-06-23T09:58:54Z</time>
      </trkpt>
      <trkpt lat="42.939361995086074" lon="-2.561921998858452">
        <ele>560.20000000000005</ele>
        <time>2019-06-23T09:58:56Z</time>
      </trkpt>
      <trkpt lat="42.939440030604601" lon="-2.562061976641417">
        <ele>560.79999999999995</ele>
        <time>2019-06-23T09:58:58Z</time>
      </trkpt>
      <trkpt lat="42.939523011445999" lon="-2.562202960252762">
        <ele>561</ele>
        <time>2019-06-23T09:59:00Z</time>
      </trkpt>
      <trkpt lat="42.939603980630636" lon="-2.56234796717763">
        <ele>561.39999999999998</ele>
        <time>2019-06-23T09:59:02Z</time>
      </trkpt>
      <trkpt lat="42.939684027805924" lon="-2.562489034608007">
        <ele>561.79999999999995</ele>
        <time>2019-06-23T09:59:04Z</time>
      </trkpt>
      <trkpt lat="42.939763991162181" lon="-2.562631024047732">
        <ele>562.39999999999998</ele>
        <time>2019-06-23T09:59:06Z</time>
      </trkpt>
      <trkpt lat="42.939844038337469" lon="-2.562772007659078">
        <ele>562.79999999999995</ele>
        <time>2019-06-23T09:59:08Z</time>
      </trkpt>
      <trkpt lat="42.939884020015597" lon="-2.562844008207321">
        <ele>562.79999999999995</ele>
        <time>2019-06-23T09:59:09Z</time>
      </trkpt>
      <trkpt lat="42.939924001693726" lon="-2.562917014583945">
        <ele>563.20000000000005</ele>
        <time>2019-06-23T09:59:10Z</time>
      </trkpt>
      <trkpt lat="42.940005976706743" lon="-2.563062021508813">
        <ele>563.79999999999995</ele>
        <time>2019-06-23T09:59:12Z</time>
      </trkpt>
      <trkpt lat="42.940091975033283" lon="-2.563209962099791">
        <ele>563.79999999999995</ele>
        <time>2019-06-23T09:59:14Z</time>
      </trkpt>
      <trkpt lat="42.940177973359823" lon="-2.563363015651703">
        <ele>564.39999999999998</ele>
        <time>2019-06-23T09:59:16Z</time>
      </trkpt>
      <trkpt lat="42.940261960029602" lon="-2.563516991212964">
        <ele>564.60000000000002</ele>
        <time>2019-06-23T09:59:18Z</time>
      </trkpt>
      <trkpt lat="42.940303031355143" lon="-2.563595026731491">
        <ele>564.79999999999995</ele>
        <time>2019-06-23T09:59:19Z</time>
      </trkpt>
      <trkpt lat="42.940346030518413" lon="-2.563672978430986">
        <ele>564.79999999999995</ele>
        <time>2019-06-23T09:59:20Z</time>
      </trkpt>
      <trkpt lat="42.940434040501714" lon="-2.563829971477389">
        <ele>564.79999999999995</ele>
        <time>2019-06-23T09:59:22Z</time>
      </trkpt>
      <trkpt lat="42.940522972494364" lon="-2.563991993665695">
        <ele>565</ele>
        <time>2019-06-23T09:59:24Z</time>
      </trkpt>
      <trkpt lat="42.940613999962807" lon="-2.564155021682382">
        <ele>565</ele>
        <time>2019-06-23T09:59:26Z</time>
      </trkpt>
      <trkpt lat="42.940707039088011" lon="-2.564322995021939">
        <ele>565.20000000000005</ele>
        <time>2019-06-23T09:59:28Z</time>
      </trkpt>
      <trkpt lat="42.940798988565803" lon="-2.564493985846639">
        <ele>565</ele>
        <time>2019-06-23T09:59:30Z</time>
      </trkpt>
      <trkpt lat="42.940894039347768" lon="-2.564666988328099">
        <ele>565</ele>
        <time>2019-06-23T09:59:32Z</time>
      </trkpt>
      <trkpt lat="42.940993029624224" lon="-2.564844014123082">
        <ele>564.79999999999995</ele>
        <time>2019-06-23T09:59:34Z</time>
      </trkpt>
      <trkpt lat="42.94109595939517" lon="-2.565025985240936">
        <ele>564.79999999999995</ele>
        <time>2019-06-23T09:59:36Z</time>
      </trkpt>
      <trkpt lat="42.941199978813529" lon="-2.565213991329074">
        <ele>564.79999999999995</ele>
        <time>2019-06-23T09:59:38Z</time>
      </trkpt>
      <trkpt lat="42.941305004060268" lon="-2.565407026559115">
        <ele>564.39999999999998</ele>
        <time>2019-06-23T09:59:40Z</time>
      </trkpt>
      <trkpt lat="42.94141598045826" lon="-2.565598972141743">
        <ele>564.20000000000005</ele>
        <time>2019-06-23T09:59:42Z</time>
      </trkpt>
      <trkpt lat="42.941526034846902" lon="-2.565796030685306">
        <ele>563.79999999999995</ele>
        <time>2019-06-23T09:59:44Z</time>
      </trkpt>
      <trkpt lat="42.941581020131707" lon="-2.565895020961762">
        <ele>563.79999999999995</ele>
        <time>2019-06-23T09:59:45Z</time>
      </trkpt>
      <trkpt lat="42.941637011244893" lon="-2.565995017066598">
        <ele>563.60000000000002</ele>
        <time>2019-06-23T09:59:46Z</time>
      </trkpt>
      <trkpt lat="42.941747987642884" lon="-2.566195009276271">
        <ele>563.39999999999998</ele>
        <time>2019-06-23T09:59:48Z</time>
      </trkpt>
      <trkpt lat="42.941859969869256" lon="-2.566399024799466">
        <ele>562.79999999999995</ele>
        <time>2019-06-23T09:59:50Z</time>
      </trkpt>
      <trkpt lat="42.941916966810822" lon="-2.566502038389444">
        <ele>562.79999999999995</ele>
        <time>2019-06-23T09:59:51Z</time>
      </trkpt>
      <trkpt lat="42.941973963752389" lon="-2.56660396233201">
        <ele>562.39999999999998</ele>
        <time>2019-06-23T09:59:52Z</time>
      </trkpt>
      <trkpt lat="42.942087035626173" lon="-2.566810995340347">
        <ele>562</ele>
        <time>2019-06-23T09:59:54Z</time>
      </trkpt>
      <trkpt lat="42.942201029509306" lon="-2.567019034177065">
        <ele>561.60000000000002</ele>
        <time>2019-06-23T09:59:56Z</time>
      </trkpt>
      <trkpt lat="42.942259032279253" lon="-2.567124981433153">
        <ele>561.39999999999998</ele>
        <time>2019-06-23T09:59:57Z</time>
      </trkpt>
      <trkpt lat="42.9423170350492" lon="-2.567229000851512">
        <ele>561</ele>
        <time>2019-06-23T09:59:58Z</time>
      </trkpt>
      <trkpt lat="42.942433962598443" lon="-2.567437961697578">
        <ele>560.60000000000002</ele>
        <time>2019-06-23T10:00:00Z</time>
      </trkpt>
      <trkpt lat="42.942550973966718" lon="-2.567651029676199">
        <ele>560.20000000000005</ele>
        <time>2019-06-23T10:00:02Z</time>
      </trkpt>
      <trkpt lat="42.942669996991754" lon="-2.567864013835788">
        <ele>560</ele>
        <time>2019-06-23T10:00:04Z</time>
      </trkpt>
      <trkpt lat="42.942789020016789" lon="-2.568076997995377">
        <ele>559.60000000000002</ele>
        <time>2019-06-23T10:00:06Z</time>
      </trkpt>
      <trkpt lat="42.942905025556684" lon="-2.568290987983346">
        <ele>559.20000000000005</ele>
        <time>2019-06-23T10:00:08Z</time>
      </trkpt>
      <trkpt lat="42.943022036924958" lon="-2.568502966314554">
        <ele>558.60000000000002</ele>
        <time>2019-06-23T10:00:10Z</time>
      </trkpt>
      <trkpt lat="42.943138964474201" lon="-2.568716034293175">
        <ele>558.20000000000005</ele>
        <time>2019-06-23T10:00:12Z</time>
      </trkpt>
      <trkpt lat="42.943253964185715" lon="-2.568929018452764">
        <ele>558</ele>
        <time>2019-06-23T10:00:14Z</time>
      </trkpt>
      <trkpt lat="42.943370975553989" lon="-2.569140996783972">
        <ele>557.79999999999995</ele>
        <time>2019-06-23T10:00:16Z</time>
      </trkpt>
      <trkpt lat="42.943485975265503" lon="-2.569351969286799">
        <ele>557.60000000000002</ele>
        <time>2019-06-23T10:00:18Z</time>
      </trkpt>
      <trkpt lat="42.943600974977016" lon="-2.569562019780278">
        <ele>557.60000000000002</ele>
        <time>2019-06-23T10:00:20Z</time>
      </trkpt>
      <trkpt lat="42.943657971918583" lon="-2.569666039198637">
        <ele>557.39999999999998</ele>
        <time>2019-06-23T10:00:21Z</time>
      </trkpt>
      <trkpt lat="42.94371597468853" lon="-2.569769974797964">
        <ele>557.39999999999998</ele>
        <time>2019-06-23T10:00:22Z</time>
      </trkpt>
      <trkpt lat="42.943828040733933" lon="-2.569978013634682">
        <ele>557.39999999999998</ele>
        <time>2019-06-23T10:00:24Z</time>
      </trkpt>
      <trkpt lat="42.943939017131925" lon="-2.570182029157877">
        <ele>557.39999999999998</ele>
        <time>2019-06-23T10:00:26Z</time>
      </trkpt>
      <trkpt lat="42.944046976044774" lon="-2.570387972518802">
        <ele>557.20000000000005</ele>
        <time>2019-06-23T10:00:28Z</time>
      </trkpt>
      <trkpt lat="42.944160969927907" lon="-2.570586958900094">
        <ele>557.20000000000005</ele>
        <time>2019-06-23T10:00:30Z</time>
      </trkpt>
      <trkpt lat="42.944217966869473" lon="-2.570687038823962">
        <ele>557.20000000000005</ele>
        <time>2019-06-23T10:00:31Z</time>
      </trkpt>
      <trkpt lat="42.944278987124562" lon="-2.570780999958515">
        <ele>557</ele>
        <time>2019-06-23T10:00:32Z</time>
      </trkpt>
      <trkpt lat="42.94440203346312" lon="-2.570969006046653">
        <ele>557</ele>
        <time>2019-06-23T10:00:34Z</time>
      </trkpt>
      <trkpt lat="42.944529019296169" lon="-2.571153994649649">
        <ele>557</ele>
        <time>2019-06-23T10:00:36Z</time>
      </trkpt>
      <trkpt lat="42.944590961560607" lon="-2.571246027946472">
        <ele>557.20000000000005</ele>
        <time>2019-06-23T10:00:37Z</time>
      </trkpt>
      <trkpt lat="42.944654999300838" lon="-2.571334037929773">
        <ele>557.20000000000005</ele>
        <time>2019-06-23T10:00:38Z</time>
      </trkpt>
      <trkpt lat="42.944787014275789" lon="-2.571504022926092">
        <ele>557.20000000000005</ele>
        <time>2019-06-23T10:00:40Z</time>
      </trkpt>
      <trkpt lat="42.944922968745232" lon="-2.571665961295366">
        <ele>557.20000000000005</ele>
        <time>2019-06-23T10:00:42Z</time>
      </trkpt>
      <trkpt lat="42.945061018690467" lon="-2.571819014847279">
        <ele>557.39999999999998</ele>
        <time>2019-06-23T10:00:44Z</time>
      </trkpt>
      <trkpt lat="42.945130001753569" lon="-2.571895038709045">
        <ele>557.60000000000002</ele>
        <time>2019-06-23T10:00:45Z</time>
      </trkpt>
      <trkpt lat="42.945199990645051" lon="-2.571970978751779">
        <ele>557.60000000000002</ele>
        <time>2019-06-23T10:00:46Z</time>
      </trkpt>
      <trkpt lat="42.945337034761906" lon="-2.57212596014142">
        <ele>557.60000000000002</ele>
        <time>2019-06-23T10:00:48Z</time>
      </trkpt>
      <trkpt lat="42.945472989231348" lon="-2.572275996208191">
        <ele>557.79999999999995</ele>
        <time>2019-06-23T10:00:50Z</time>
      </trkpt>
      <trkpt lat="42.945611039176583" lon="-2.572427960112691">
        <ele>557.79999999999995</ele>
        <time>2019-06-23T10:00:52Z</time>
      </trkpt>
      <trkpt lat="42.945679016411304" lon="-2.572507001459599">
        <ele>557.60000000000002</ele>
        <time>2019-06-23T10:00:53Z</time>
      </trkpt>
      <trkpt lat="42.945746993646026" lon="-2.572583025321364">
        <ele>557.79999999999995</ele>
        <time>2019-06-23T10:00:54Z</time>
      </trkpt>
      <trkpt lat="42.94588697142899" lon="-2.572734989225864">
        <ele>557.79999999999995</ele>
        <time>2019-06-23T10:00:56Z</time>
      </trkpt>
      <trkpt lat="42.946025021374226" lon="-2.572889970615506">
        <ele>558.20000000000005</ele>
        <time>2019-06-23T10:00:58Z</time>
      </trkpt>
      <trkpt lat="42.94616499915719" lon="-2.573043024167419">
        <ele>558</ele>
        <time>2019-06-23T10:01:00Z</time>
      </trkpt>
      <trkpt lat="42.946301959455013" lon="-2.573200017213821">
        <ele>558.20000000000005</ele>
        <time>2019-06-23T10:01:02Z</time>
      </trkpt>
      <trkpt lat="42.946439003571868" lon="-2.573353992775083">
        <ele>558.39999999999998</ele>
        <time>2019-06-23T10:01:04Z</time>
      </trkpt>
      <trkpt lat="42.9465720243752" lon="-2.57351802662015">
        <ele>558.20000000000005</ele>
        <time>2019-06-23T10:01:06Z</time>
      </trkpt>
      <trkpt lat="42.946638995781541" lon="-2.573596984148026">
        <ele>558.39999999999998</ele>
        <time>2019-06-23T10:01:07Z</time>
      </trkpt>
      <trkpt lat="42.946704961359501" lon="-2.573676025494933">
        <ele>558.39999999999998</ele>
        <time>2019-06-23T10:01:08Z</time>
      </trkpt>
      <trkpt lat="42.946772016584873" lon="-2.573761017993093">
        <ele>558.39999999999998</ele>
        <time>2019-06-23T10:01:09Z</time>
      </trkpt>
      <trkpt lat="42.946836976334453" lon="-2.573847016319633">
        <ele>558.39999999999998</ele>
        <time>2019-06-23T10:01:10Z</time>
      </trkpt>
      <trkpt lat="42.946963040158153" lon="-2.574024964123964">
        <ele>558.60000000000002</ele>
        <time>2019-06-23T10:01:12Z</time>
      </trkpt>
      <trkpt lat="42.947086002677679" lon="-2.574210958555341">
        <ele>558.39999999999998</ele>
        <time>2019-06-23T10:01:14Z</time>
      </trkpt>
      <trkpt lat="42.947208965197206" lon="-2.57440198212862">
        <ele>558.39999999999998</ele>
        <time>2019-06-23T10:01:16Z</time>
      </trkpt>
      <trkpt lat="42.94732597656548" lon="-2.574597029015422">
        <ele>558.39999999999998</ele>
        <time>2019-06-23T10:01:18Z</time>
      </trkpt>
      <trkpt lat="42.947439970448613" lon="-2.574800038710237">
        <ele>557.79999999999995</ele>
        <time>2019-06-23T10:01:20Z</time>
      </trkpt>
      <trkpt lat="42.947549019008875" lon="-2.575007993727922">
        <ele>557.39999999999998</ele>
        <time>2019-06-23T10:01:22Z</time>
      </trkpt>
      <trkpt lat="42.947653038427234" lon="-2.575226007029414">
        <ele>557.39999999999998</ele>
        <time>2019-06-23T10:01:24Z</time>
      </trkpt>
      <trkpt lat="42.9477549623698" lon="-2.575446031987667">
        <ele>557.20000000000005</ele>
        <time>2019-06-23T10:01:26Z</time>
      </trkpt>
      <trkpt lat="42.947856970131397" lon="-2.575672008097172">
        <ele>557</ele>
        <time>2019-06-23T10:01:28Z</time>
      </trkpt>
      <trkpt lat="42.947950009256601" lon="-2.57590401917696">
        <ele>556.60000000000002</ele>
        <time>2019-06-23T10:01:30Z</time>
      </trkpt>
      <trkpt lat="42.948038019239902" lon="-2.576137036085129">
        <ele>556.39999999999998</ele>
        <time>2019-06-23T10:01:32Z</time>
      </trkpt>
      <trkpt lat="42.948081018403172" lon="-2.576256981119514">
        <ele>556.39999999999998</ele>
        <time>2019-06-23T10:01:33Z</time>
      </trkpt>
      <trkpt lat="42.948123011738062" lon="-2.576376004144549">
        <ele>556</ele>
        <time>2019-06-23T10:01:34Z</time>
      </trkpt>
      <trkpt lat="42.948201969265938" lon="-2.576620001345873">
        <ele>556</ele>
        <time>2019-06-23T10:01:36Z</time>
      </trkpt>
      <trkpt lat="42.948280004784465" lon="-2.576866010203958">
        <ele>555.60000000000002</ele>
        <time>2019-06-23T10:01:38Z</time>
      </trkpt>
      <trkpt lat="42.948358962312341" lon="-2.577112019062042">
        <ele>555.39999999999998</ele>
        <time>2019-06-23T10:01:40Z</time>
      </trkpt>
      <trkpt lat="42.94844102114439" lon="-2.577357022091746">
        <ele>555.20000000000005</ele>
        <time>2019-06-23T10:01:42Z</time>
      </trkpt>
      <trkpt lat="42.948482008650899" lon="-2.577477972954512">
        <ele>555</ele>
        <time>2019-06-23T10:01:43Z</time>
      </trkpt>
      <trkpt lat="42.948521990329027" lon="-2.57760101929307">
        <ele>555</ele>
        <time>2019-06-23T10:01:44Z</time>
      </trkpt>
      <trkpt lat="42.948602037504315" lon="-2.577847028151155">
        <ele>554.79999999999995</ele>
        <time>2019-06-23T10:01:46Z</time>
      </trkpt>
      <trkpt lat="42.94867898337543" lon="-2.578091025352478">
        <ele>554.39999999999998</ele>
        <time>2019-06-23T10:01:48Z</time>
      </trkpt>
      <trkpt lat="42.948746960610151" lon="-2.578339967876673">
        <ele>554.39999999999998</ele>
        <time>2019-06-23T10:01:50Z</time>
      </trkpt>
      <trkpt lat="42.948804963380098" lon="-2.578592011705041">
        <ele>554.20000000000005</ele>
        <time>2019-06-23T10:01:52Z</time>
      </trkpt>
      <trkpt lat="42.948852991685271" lon="-2.578843971714377">
        <ele>554</ele>
        <time>2019-06-23T10:01:54Z</time>
      </trkpt>
      <trkpt lat="42.948886016383767" lon="-2.579099033027887">
        <ele>554</ele>
        <time>2019-06-23T10:01:56Z</time>
      </trkpt>
      <trkpt lat="42.948908982798457" lon="-2.579349987208843">
        <ele>554</ele>
        <time>2019-06-23T10:01:58Z</time>
      </trkpt>
      <trkpt lat="42.948924992233515" lon="-2.579597001895309">
        <ele>554</ele>
        <time>2019-06-23T10:02:00Z</time>
      </trkpt>
      <trkpt lat="42.948933960869908" lon="-2.579839993268251">
        <ele>554.20000000000005</ele>
        <time>2019-06-23T10:02:02Z</time>
      </trkpt>
      <trkpt lat="42.948943013325334" lon="-2.580074016004801">
        <ele>554.20000000000005</ele>
        <time>2019-06-23T10:02:04Z</time>
      </trkpt>
      <trkpt lat="42.948947958648205" lon="-2.580185998231173">
        <ele>554.20000000000005</ele>
        <time>2019-06-23T10:02:05Z</time>
      </trkpt>
      <trkpt lat="42.948952987790108" lon="-2.580296974629164">
        <ele>554.39999999999998</ele>
        <time>2019-06-23T10:02:06Z</time>
      </trkpt>
      <trkpt lat="42.948958016932011" lon="-2.580405017361045">
        <ele>554.60000000000002</ele>
        <time>2019-06-23T10:02:07Z</time>
      </trkpt>
      <trkpt lat="42.948965979740024" lon="-2.580511970445514">
        <ele>554.60000000000002</ele>
        <time>2019-06-23T10:02:08Z</time>
      </trkpt>
      <trkpt lat="42.948985006660223" lon="-2.580724032595754">
        <ele>554.79999999999995</ele>
        <time>2019-06-23T10:02:10Z</time>
      </trkpt>
      <trkpt lat="42.949011996388435" lon="-2.58093198761344">
        <ele>555</ele>
        <time>2019-06-23T10:02:12Z</time>
      </trkpt>
      <trkpt lat="42.949028005823493" lon="-2.581035001203418">
        <ele>555.20000000000005</ele>
        <time>2019-06-23T10:02:13Z</time>
      </trkpt>
      <trkpt lat="42.949046026915312" lon="-2.581136003136635">
        <ele>555.39999999999998</ele>
        <time>2019-06-23T10:02:14Z</time>
      </trkpt>
      <trkpt lat="42.949088020250201" lon="-2.581335995346308">
        <ele>555.79999999999995</ele>
        <time>2019-06-23T10:02:16Z</time>
      </trkpt>
      <trkpt lat="42.949138982221484" lon="-2.5815349817276">
        <ele>556</ele>
        <time>2019-06-23T10:02:18Z</time>
      </trkpt>
      <trkpt lat="42.949203019961715" lon="-2.581728016957641">
        <ele>556.60000000000002</ele>
        <time>2019-06-23T10:02:20Z</time>
      </trkpt>
      <trkpt lat="42.949272003024817" lon="-2.581922980025411">
        <ele>557</ele>
        <time>2019-06-23T10:02:22Z</time>
      </trkpt>
      <trkpt lat="42.949351966381073" lon="-2.582116015255451">
        <ele>557</ele>
        <time>2019-06-23T10:02:24Z</time>
      </trkpt>
      <trkpt lat="42.949446011334658" lon="-2.582304021343589">
        <ele>557.20000000000005</ele>
        <time>2019-06-23T10:02:26Z</time>
      </trkpt>
      <trkpt lat="42.949497979134321" lon="-2.582396976649761">
        <ele>557.39999999999998</ele>
        <time>2019-06-23T10:02:27Z</time>
      </trkpt>
      <trkpt lat="42.949552964419127" lon="-2.582489009946585">
        <ele>557.39999999999998</ele>
        <time>2019-06-23T10:02:28Z</time>
      </trkpt>
      <trkpt lat="42.949673999100924" lon="-2.582671986892819">
        <ele>557.20000000000005</ele>
        <time>2019-06-23T10:02:30Z</time>
      </trkpt>
      <trkpt lat="42.949809031561017" lon="-2.582854041829705">
        <ele>557.20000000000005</ele>
        <time>2019-06-23T10:02:32Z</time>
      </trkpt>
      <trkpt lat="42.949882037937641" lon="-2.582940962165594">
        <ele>557.20000000000005</ele>
        <time>2019-06-23T10:02:33Z</time>
      </trkpt>
      <trkpt lat="42.949958983808756" lon="-2.583026960492134">
        <ele>557.20000000000005</ele>
        <time>2019-06-23T10:02:34Z</time>
      </trkpt>
      <trkpt lat="42.950040036812425" lon="-2.583113964647055">
        <ele>557</ele>
        <time>2019-06-23T10:02:35Z</time>
      </trkpt>
      <trkpt lat="42.950123017653823" lon="-2.583199040964246">
        <ele>557</ele>
        <time>2019-06-23T10:02:36Z</time>
      </trkpt>
      <trkpt lat="42.950208010151982" lon="-2.583282021805644">
        <ele>556.79999999999995</ele>
        <time>2019-06-23T10:02:37Z</time>
      </trkpt>
      <trkpt lat="42.950295014306903" lon="-2.583366008475423">
        <ele>556.60000000000002</ele>
        <time>2019-06-23T10:02:38Z</time>
      </trkpt>
      <trkpt lat="42.950382018461823" lon="-2.583448989316821">
        <ele>556.39999999999998</ele>
        <time>2019-06-23T10:02:39Z</time>
      </trkpt>
      <trkpt lat="42.950469022616744" lon="-2.5835329759866">
        <ele>556</ele>
        <time>2019-06-23T10:02:40Z</time>
      </trkpt>
      <trkpt lat="42.950556026771665" lon="-2.583617968484759">
        <ele>555.39999999999998</ele>
        <time>2019-06-23T10:02:41Z</time>
      </trkpt>
      <trkpt lat="42.950643030926585" lon="-2.583702960982919">
        <ele>555</ele>
        <time>2019-06-23T10:02:42Z</time>
      </trkpt>
      <trkpt lat="42.950819972902536" lon="-2.583870012313128">
        <ele>553.79999999999995</ele>
        <time>2019-06-23T10:02:44Z</time>
      </trkpt>
      <trkpt lat="42.950996998697519" lon="-2.584033040329814">
        <ele>552</ele>
        <time>2019-06-23T10:02:46Z</time>
      </trkpt>
      <trkpt lat="42.951168995350599" lon="-2.584196990355849">
        <ele>551.20000000000005</ele>
        <time>2019-06-23T10:02:48Z</time>
      </trkpt>
      <trkpt lat="42.951254993677139" lon="-2.584277037531138">
        <ele>551</ele>
        <time>2019-06-23T10:02:49Z</time>
      </trkpt>
      <trkpt lat="42.951339986175299" lon="-2.584357000887394">
        <ele>550.60000000000002</ele>
        <time>2019-06-23T10:02:50Z</time>
      </trkpt>
      <trkpt lat="42.951506031677127" lon="-2.584512988105416">
        <ele>550</ele>
        <time>2019-06-23T10:02:52Z</time>
      </trkpt>
      <trkpt lat="42.95166696421802" lon="-2.584663024172187">
        <ele>550</ele>
        <time>2019-06-23T10:02:54Z</time>
      </trkpt>
      <trkpt lat="42.951821023598313" lon="-2.584808031097055">
        <ele>549.79999999999995</ele>
        <time>2019-06-23T10:02:56Z</time>
      </trkpt>
      <trkpt lat="42.951896041631699" lon="-2.584879025816917">
        <ele>549.60000000000002</ele>
        <time>2019-06-23T10:02:57Z</time>
      </trkpt>
      <trkpt lat="42.951969970017672" lon="-2.58495002053678">
        <ele>549.79999999999995</ele>
        <time>2019-06-23T10:02:58Z</time>
      </trkpt>
      <trkpt lat="42.952112965285778" lon="-2.585088992491365">
        <ele>550</ele>
        <time>2019-06-23T10:03:00Z</time>
      </trkpt>
      <trkpt lat="42.952182032167912" lon="-2.585155963897705">
        <ele>550</ele>
        <time>2019-06-23T10:03:01Z</time>
      </trkpt>
      <trkpt lat="42.952249003574252" lon="-2.585224024951458">
        <ele>550.20000000000005</ele>
        <time>2019-06-23T10:03:02Z</time>
      </trkpt>
      <trkpt lat="42.952376995235682" lon="-2.585362996906042">
        <ele>551</ele>
        <time>2019-06-23T10:03:04Z</time>
      </trkpt>
      <trkpt lat="42.952495012432337" lon="-2.585505992174149">
        <ele>551.79999999999995</ele>
        <time>2019-06-23T10:03:06Z</time>
      </trkpt>
      <trkpt lat="42.952602971345186" lon="-2.58565803989768">
        <ele>552.20000000000005</ele>
        <time>2019-06-23T10:03:08Z</time>
      </trkpt>
      <trkpt lat="42.95271897688508" lon="-2.585802963003516">
        <ele>552.39999999999998</ele>
        <time>2019-06-23T10:03:10Z</time>
      </trkpt>
      <trkpt lat="42.952828025445342" lon="-2.585960039868951">
        <ele>553</ele>
        <time>2019-06-23T10:03:12Z</time>
      </trkpt>
      <trkpt lat="42.952934978529811" lon="-2.586126001551747">
        <ele>553</ele>
        <time>2019-06-23T10:03:14Z</time>
      </trkpt>
      <trkpt lat="42.953041009604931" lon="-2.586299004033208">
        <ele>553.20000000000005</ele>
        <time>2019-06-23T10:03:16Z</time>
      </trkpt>
      <trkpt lat="42.9531479626894" lon="-2.586476029828191">
        <ele>553.20000000000005</ele>
        <time>2019-06-23T10:03:18Z</time>
      </trkpt>
      <trkpt lat="42.953258017078042" lon="-2.586652971804142">
        <ele>553</ele>
        <time>2019-06-23T10:03:20Z</time>
      </trkpt>
      <trkpt lat="42.953367987647653" lon="-2.586835026741028">
        <ele>553.20000000000005</ele>
        <time>2019-06-23T10:03:22Z</time>
      </trkpt>
      <trkpt lat="42.953477958217263" lon="-2.587016997858882">
        <ele>553.20000000000005</ele>
        <time>2019-06-23T10:03:24Z</time>
      </trkpt>
      <trkpt lat="42.953586000949144" lon="-2.587202992290258">
        <ele>553.20000000000005</ele>
        <time>2019-06-23T10:03:26Z</time>
      </trkpt>
      <trkpt lat="42.95364098623395" lon="-2.587297037243843">
        <ele>553</ele>
        <time>2019-06-23T10:03:27Z</time>
      </trkpt>
      <trkpt lat="42.953695971518755" lon="-2.587389992550015">
        <ele>552.79999999999995</ele>
        <time>2019-06-23T10:03:28Z</time>
      </trkpt>
      <trkpt lat="42.953807031735778" lon="-2.587577998638153">
        <ele>552.39999999999998</ele>
        <time>2019-06-23T10:03:30Z</time>
      </trkpt>
      <trkpt lat="42.953918008133769" lon="-2.587772039696574">
        <ele>552.39999999999998</ele>
        <time>2019-06-23T10:03:32Z</time>
      </trkpt>
      <trkpt lat="42.954030996188521" lon="-2.587962979450822">
        <ele>552.20000000000005</ele>
        <time>2019-06-23T10:03:34Z</time>
      </trkpt>
      <trkpt lat="42.954087993130088" lon="-2.588059036061168">
        <ele>552.20000000000005</ele>
        <time>2019-06-23T10:03:35Z</time>
      </trkpt>
      <trkpt lat="42.954145995900035" lon="-2.588154003024101">
        <ele>552.20000000000005</ele>
        <time>2019-06-23T10:03:36Z</time>
      </trkpt>
      <trkpt lat="42.954265018925071" lon="-2.588345026597381">
        <ele>551.79999999999995</ele>
        <time>2019-06-23T10:03:38Z</time>
      </trkpt>
      <trkpt lat="42.9543930105865" lon="-2.588534038513899">
        <ele>551.60000000000002</ele>
        <time>2019-06-23T10:03:40Z</time>
      </trkpt>
      <trkpt lat="42.95445897616446" lon="-2.588625987991691">
        <ele>551.39999999999998</ele>
        <time>2019-06-23T10:03:41Z</time>
      </trkpt>
      <trkpt lat="42.954527037218213" lon="-2.588717015460134">
        <ele>551.39999999999998</ele>
        <time>2019-06-23T10:03:42Z</time>
      </trkpt>
      <trkpt lat="42.9546710383147" lon="-2.588892029598355">
        <ele>551</ele>
        <time>2019-06-23T10:03:44Z</time>
      </trkpt>
      <trkpt lat="42.9548230022192" lon="-2.589053967967629">
        <ele>550.79999999999995</ele>
        <time>2019-06-23T10:03:46Z</time>
      </trkpt>
      <trkpt lat="42.954903971403837" lon="-2.589126974344254">
        <ele>550.79999999999995</ele>
        <time>2019-06-23T10:03:47Z</time>
      </trkpt>
      <trkpt lat="42.954984018579125" lon="-2.589196041226387">
        <ele>550.60000000000002</ele>
        <time>2019-06-23T10:03:48Z</time>
      </trkpt>
      <trkpt lat="42.955142017453909" lon="-2.589316992089152">
        <ele>550</ele>
        <time>2019-06-23T10:03:50Z</time>
      </trkpt>
      <trkpt lat="42.955298004671931" lon="-2.589425034821034">
        <ele>549.79999999999995</ele>
        <time>2019-06-23T10:03:52Z</time>
      </trkpt>
      <trkpt lat="42.955377968028188" lon="-2.589477002620697">
        <ele>549.60000000000002</ele>
        <time>2019-06-23T10:03:53Z</time>
      </trkpt>
      <trkpt lat="42.955454997718334" lon="-2.58952796459198">
        <ele>549.60000000000002</ele>
        <time>2019-06-23T10:03:54Z</time>
      </trkpt>
      <trkpt lat="42.955592041835189" lon="-2.589618992060423">
        <ele>549.39999999999998</ele>
        <time>2019-06-23T10:03:56Z</time>
      </trkpt>
      <trkpt lat="42.955649960786104" lon="-2.589658973738551">
        <ele>549.39999999999998</ele>
        <time>2019-06-23T10:03:57Z</time>
      </trkpt>
      <trkpt lat="42.955706035718322" lon="-2.58969996124506">
        <ele>549.39999999999998</ele>
        <time>2019-06-23T10:03:58Z</time>
      </trkpt>
      <trkpt lat="42.955821035429835" lon="-2.589782020077109">
        <ele>549.20000000000005</ele>
        <time>2019-06-23T10:04:00Z</time>
      </trkpt>
      <trkpt lat="42.955951038748026" lon="-2.589866006746888">
        <ele>549.20000000000005</ele>
        <time>2019-06-23T10:04:02Z</time>
      </trkpt>
      <trkpt lat="42.956095039844513" lon="-2.58995502255857">
        <ele>549.20000000000005</ele>
        <time>2019-06-23T10:04:04Z</time>
      </trkpt>
      <trkpt lat="42.956239962950349" lon="-2.590056024491787">
        <ele>549.20000000000005</ele>
        <time>2019-06-23T10:04:06Z</time>
      </trkpt>
      <trkpt lat="42.956311041489244" lon="-2.590105980634689">
        <ele>549.20000000000005</ele>
        <time>2019-06-23T10:04:07Z</time>
      </trkpt>
      <trkpt lat="42.956384969875216" lon="-2.590156020596623">
        <ele>549.20000000000005</ele>
        <time>2019-06-23T10:04:08Z</time>
      </trkpt>
      <trkpt lat="42.956534000113606" lon="-2.590251993387938">
        <ele>549.20000000000005</ele>
        <time>2019-06-23T10:04:10Z</time>
      </trkpt>
      <trkpt lat="42.956685964018106" lon="-2.590344026684761">
        <ele>549.20000000000005</ele>
        <time>2019-06-23T10:04:12Z</time>
      </trkpt>
      <trkpt lat="42.956834994256496" lon="-2.590437987819314">
        <ele>549.20000000000005</ele>
        <time>2019-06-23T10:04:14Z</time>
      </trkpt>
      <trkpt lat="42.956986036151648" lon="-2.590527003630996">
        <ele>549.39999999999998</ele>
        <time>2019-06-23T10:04:16Z</time>
      </trkpt>
      <trkpt lat="42.957139005884528" lon="-2.590607972815633">
        <ele>549.39999999999998</ele>
        <time>2019-06-23T10:04:18Z</time>
      </trkpt>
      <trkpt lat="42.957286024466157" lon="-2.590689025819302">
        <ele>549.20000000000005</ele>
        <time>2019-06-23T10:04:20Z</time>
      </trkpt>
      <trkpt lat="42.957359030842781" lon="-2.59072900749743">
        <ele>549.20000000000005</ele>
        <time>2019-06-23T10:04:21Z</time>
      </trkpt>
      <trkpt lat="42.957432959228754" lon="-2.590766977518797">
        <ele>549.39999999999998</ele>
        <time>2019-06-23T10:04:22Z</time>
      </trkpt>
      <trkpt lat="42.957506971433759" lon="-2.590805031359196">
        <ele>549.39999999999998</ele>
        <time>2019-06-23T10:04:23Z</time>
      </trkpt>
      <trkpt lat="42.957578971982002" lon="-2.590841995552182">
        <ele>549.39999999999998</ele>
        <time>2019-06-23T10:04:24Z</time>
      </trkpt>
      <trkpt lat="42.957719033583999" lon="-2.590913996100426">
        <ele>549.39999999999998</ele>
        <time>2019-06-23T10:04:26Z</time>
      </trkpt>
      <trkpt lat="42.957849958911538" lon="-2.590979961678386">
        <ele>549.60000000000002</ele>
        <time>2019-06-23T10:04:28Z</time>
      </trkpt>
      <trkpt lat="42.957911984995008" lon="-2.59100996889174">
        <ele>549.60000000000002</ele>
        <time>2019-06-23T10:04:29Z</time>
      </trkpt>
      <trkpt lat="42.957968981936574" lon="-2.591041987761855">
        <ele>549.60000000000002</ele>
        <time>2019-06-23T10:04:30Z</time>
      </trkpt>
      <trkpt lat="42.958063026890159" lon="-2.59109303355217">
        <ele>549.79999999999995</ele>
        <time>2019-06-23T10:04:32Z</time>
      </trkpt>
      <trkpt lat="42.958094961941242" lon="-2.591109964996576">
        <ele>549.79999999999995</ele>
        <time>2019-06-23T10:04:33Z</time>
      </trkpt>
      <trkpt lat="42.958123041316867" lon="-2.591123962774873">
        <ele>550</ele>
        <time>2019-06-23T10:04:34Z</time>
      </trkpt>
      <trkpt lat="42.958176014944911" lon="-2.591152964159846">
        <ele>550</ele>
        <time>2019-06-23T10:04:36Z</time>
      </trkpt>
      <trkpt lat="42.958209039643407" lon="-2.591190012171865">
        <ele>550.20000000000005</ele>
        <time>2019-06-23T10:04:38Z</time>
      </trkpt>
      <trkpt lat="42.958220019936562" lon="-2.591208033263683">
        <ele>550.39999999999998</ele>
        <time>2019-06-23T10:04:39Z</time>
      </trkpt>
      <trkpt lat="42.958225971087813" lon="-2.591218007728458">
        <ele>550.60000000000002</ele>
        <time>2019-06-23T10:04:40Z</time>
      </trkpt>
      <trkpt lat="42.958235023543239" lon="-2.591221025213599">
        <ele>550.79999999999995</ele>
        <time>2019-06-23T10:04:41Z</time>
      </trkpt>
      <trkpt lat="42.958246003836393" lon="-2.591227982193232">
        <ele>550.79999999999995</ele>
        <time>2019-06-23T10:04:42Z</time>
      </trkpt>
      <trkpt lat="42.958252960816026" lon="-2.591247009113431">
        <ele>551</ele>
        <time>2019-06-23T10:04:43Z</time>
      </trkpt>
      <trkpt lat="42.958250027149916" lon="-2.591276010498405">
        <ele>551.20000000000005</ele>
        <time>2019-06-23T10:04:44Z</time>
      </trkpt>
      <trkpt lat="42.958233011886477" lon="-2.591304006054997">
        <ele>551.39999999999998</ele>
        <time>2019-06-23T10:04:45Z</time>
      </trkpt>
      <trkpt lat="42.958205016329885" lon="-2.591334013268352">
        <ele>551.39999999999998</ele>
        <time>2019-06-23T10:04:46Z</time>
      </trkpt>
      <trkpt lat="42.958133015781641" lon="-2.591400984674692">
        <ele>551.60000000000002</ele>
        <time>2019-06-23T10:04:48Z</time>
      </trkpt>
      <trkpt lat="42.958092028275132" lon="-2.59143996052444">
        <ele>551.60000000000002</ele>
        <time>2019-06-23T10:04:49Z</time>
      </trkpt>
      <trkpt lat="42.958047017455101" lon="-2.591482037678361">
        <ele>551.39999999999998</ele>
        <time>2019-06-23T10:04:50Z</time>
      </trkpt>
      <trkpt lat="42.957999994978309" lon="-2.59152595885098">
        <ele>551.60000000000002</ele>
        <time>2019-06-23T10:04:51Z</time>
      </trkpt>
      <trkpt lat="42.957951966673136" lon="-2.591569041833282">
        <ele>551.60000000000002</ele>
        <time>2019-06-23T10:04:52Z</time>
      </trkpt>
      <trkpt lat="42.957849036902189" lon="-2.591666020452976">
        <ele>551.39999999999998</ele>
        <time>2019-06-23T10:04:54Z</time>
      </trkpt>
      <trkpt lat="42.95774501748383" lon="-2.591776996850967">
        <ele>551.39999999999998</ele>
        <time>2019-06-23T10:04:56Z</time>
      </trkpt>
      <trkpt lat="42.957696989178658" lon="-2.591842962428927">
        <ele>551.20000000000005</ele>
        <time>2019-06-23T10:04:57Z</time>
      </trkpt>
      <trkpt lat="42.957652984187007" lon="-2.591915968805552">
        <ele>551.20000000000005</ele>
        <time>2019-06-23T10:04:58Z</time>
      </trkpt>
      <trkpt lat="42.957580983638763" lon="-2.592072039842606">
        <ele>550.79999999999995</ele>
        <time>2019-06-23T10:05:00Z</time>
      </trkpt>
      <trkpt lat="42.95755198225379" lon="-2.592154014855623">
        <ele>550.60000000000002</ele>
        <time>2019-06-23T10:05:01Z</time>
      </trkpt>
      <trkpt lat="42.95753002166748" lon="-2.59223498404026">
        <ele>550.39999999999998</ele>
        <time>2019-06-23T10:05:02Z</time>
      </trkpt>
      <trkpt lat="42.957499008625746" lon="-2.592391977086663">
        <ele>550.60000000000002</ele>
        <time>2019-06-23T10:05:04Z</time>
      </trkpt>
      <trkpt lat="42.957474030554295" lon="-2.592541007325053">
        <ele>550.60000000000002</ele>
        <time>2019-06-23T10:05:06Z</time>
      </trkpt>
      <trkpt lat="42.957449974492192" lon="-2.592686014249921">
        <ele>550.39999999999998</ele>
        <time>2019-06-23T10:05:08Z</time>
      </trkpt>
      <trkpt lat="42.957430025562644" lon="-2.592829009518027">
        <ele>550.60000000000002</ele>
        <time>2019-06-23T10:05:10Z</time>
      </trkpt>
      <trkpt lat="42.957420973107219" lon="-2.592902015894651">
        <ele>550.79999999999995</ele>
        <time>2019-06-23T10:05:11Z</time>
      </trkpt>
      <trkpt lat="42.957409992814064" lon="-2.592973010614514">
        <ele>551</ele>
        <time>2019-06-23T10:05:12Z</time>
      </trkpt>
      <trkpt lat="42.957383003085852" lon="-2.593116005882621">
        <ele>551.79999999999995</ele>
        <time>2019-06-23T10:05:14Z</time>
      </trkpt>
      <trkpt lat="42.957361964508891" lon="-2.593255983665586">
        <ele>552.39999999999998</ele>
        <time>2019-06-23T10:05:16Z</time>
      </trkpt>
      <trkpt lat="42.95733698643744" lon="-2.593398978933692">
        <ele>553</ele>
        <time>2019-06-23T10:05:18Z</time>
      </trkpt>
      <trkpt lat="42.957312008365989" lon="-2.593542980030179">
        <ele>553.60000000000002</ele>
        <time>2019-06-23T10:05:20Z</time>
      </trkpt>
      <trkpt lat="42.957298010587692" lon="-2.593619003891945">
        <ele>554</ele>
        <time>2019-06-23T10:05:21Z</time>
      </trkpt>
      <trkpt lat="42.957280995324254" lon="-2.593692010268569">
        <ele>554.39999999999998</ele>
        <time>2019-06-23T10:05:22Z</time>
      </trkpt>
      <trkpt lat="42.957243025302887" lon="-2.593838023021817">
        <ele>554.79999999999995</ele>
        <time>2019-06-23T10:05:24Z</time>
      </trkpt>
      <trkpt lat="42.957197008654475" lon="-2.593975989148021">
        <ele>555.60000000000002</ele>
        <time>2019-06-23T10:05:26Z</time>
      </trkpt>
      <trkpt lat="42.957145962864161" lon="-2.594119990244508">
        <ele>556.39999999999998</ele>
        <time>2019-06-23T10:05:28Z</time>
      </trkpt>
      <trkpt lat="42.957091983407736" lon="-2.59427203796804">
        <ele>557.79999999999995</ele>
        <time>2019-06-23T10:05:30Z</time>
      </trkpt>
      <trkpt lat="42.957033980637789" lon="-2.594430958852172">
        <ele>558</ele>
        <time>2019-06-23T10:05:32Z</time>
      </trkpt>
      <trkpt lat="42.9569729603827" lon="-2.594593986868858">
        <ele>558.20000000000005</ele>
        <time>2019-06-23T10:05:34Z</time>
      </trkpt>
      <trkpt lat="42.956911018118262" lon="-2.594761038199067">
        <ele>558.20000000000005</ele>
        <time>2019-06-23T10:05:36Z</time>
      </trkpt>
      <trkpt lat="42.956848992034793" lon="-2.594926999881864">
        <ele>558.20000000000005</ele>
        <time>2019-06-23T10:05:38Z</time>
      </trkpt>
      <trkpt lat="42.956815967336297" lon="-2.595011992380023">
        <ele>558.20000000000005</ele>
        <time>2019-06-23T10:05:39Z</time>
      </trkpt>
      <trkpt lat="42.956783026456833" lon="-2.595098996534944">
        <ele>558.20000000000005</ele>
        <time>2019-06-23T10:05:40Z</time>
      </trkpt>
      <trkpt lat="42.956717982888222" lon="-2.595279961824417">
        <ele>557.79999999999995</ele>
        <time>2019-06-23T10:05:42Z</time>
      </trkpt>
      <trkpt lat="42.956647993996739" lon="-2.595465034246445">
        <ele>557.79999999999995</ele>
        <time>2019-06-23T10:05:44Z</time>
      </trkpt>
      <trkpt lat="42.956613041460514" lon="-2.595558995380998">
        <ele>557.60000000000002</ele>
        <time>2019-06-23T10:05:45Z</time>
      </trkpt>
      <trkpt lat="42.956578005105257" lon="-2.595654968172312">
        <ele>557.39999999999998</ele>
        <time>2019-06-23T10:05:46Z</time>
      </trkpt>
      <trkpt lat="42.956507010385394" lon="-2.595848003402352">
        <ele>557.20000000000005</ele>
        <time>2019-06-23T10:05:48Z</time>
      </trkpt>
      <trkpt lat="42.956432998180389" lon="-2.596044978126884">
        <ele>556.79999999999995</ele>
        <time>2019-06-23T10:05:50Z</time>
      </trkpt>
      <trkpt lat="42.956358985975385" lon="-2.596242036670446">
        <ele>556.39999999999998</ele>
        <time>2019-06-23T10:05:52Z</time>
      </trkpt>
      <trkpt lat="42.95628497377038" lon="-2.596442028880119">
        <ele>556</ele>
        <time>2019-06-23T10:05:54Z</time>
      </trkpt>
      <trkpt lat="42.956248009577394" lon="-2.596543030813336">
        <ele>555.79999999999995</ele>
        <time>2019-06-23T10:05:55Z</time>
      </trkpt>
      <trkpt lat="42.956210961565375" lon="-2.596644032746553">
        <ele>555.60000000000002</ele>
        <time>2019-06-23T10:05:56Z</time>
      </trkpt>
      <trkpt lat="42.956138039007783" lon="-2.596846036612988">
        <ele>555.20000000000005</ele>
        <time>2019-06-23T10:05:58Z</time>
      </trkpt>
      <trkpt lat="42.956065032631159" lon="-2.59704502299428">
        <ele>554.79999999999995</ele>
        <time>2019-06-23T10:06:00Z</time>
      </trkpt>
      <trkpt lat="42.955994959920645" lon="-2.597233029082418">
        <ele>554.79999999999995</ele>
        <time>2019-06-23T10:06:02Z</time>
      </trkpt>
      <trkpt lat="42.955931005999446" lon="-2.597407959401608">
        <ele>554.79999999999995</ele>
        <time>2019-06-23T10:06:04Z</time>
      </trkpt>
      <trkpt lat="42.955898987129331" lon="-2.597492029890418">
        <ele>555</ele>
        <time>2019-06-23T10:06:05Z</time>
      </trkpt>
      <trkpt lat="42.955867974087596" lon="-2.597574004903436">
        <ele>554.79999999999995</ele>
        <time>2019-06-23T10:06:06Z</time>
      </trkpt>
      <trkpt lat="42.955808965489268" lon="-2.597737032920122">
        <ele>554.79999999999995</ele>
        <time>2019-06-23T10:06:08Z</time>
      </trkpt>
      <trkpt lat="42.955751968547702" lon="-2.597896959632635">
        <ele>555.20000000000005</ele>
        <time>2019-06-23T10:06:10Z</time>
      </trkpt>
      <trkpt lat="42.955690026283264" lon="-2.598061999306083">
        <ele>556.20000000000005</ele>
        <time>2019-06-23T10:06:12Z</time>
      </trkpt>
      <trkpt lat="42.955655995756388" lon="-2.598151015117765">
        <ele>556.20000000000005</ele>
        <time>2019-06-23T10:06:13Z</time>
      </trkpt>
      <trkpt lat="42.955624982714653" lon="-2.598241036757827">
        <ele>556.39999999999998</ele>
        <time>2019-06-23T10:06:14Z</time>
      </trkpt>
      <trkpt lat="42.955557005479932" lon="-2.598431976512075">
        <ele>556.60000000000002</ele>
        <time>2019-06-23T10:06:16Z</time>
      </trkpt>
      <trkpt lat="42.955482993274927" lon="-2.598633980378509">
        <ele>556.60000000000002</ele>
        <time>2019-06-23T10:06:18Z</time>
      </trkpt>
      <trkpt lat="42.95540202409029" lon="-2.598841013386846">
        <ele>556.60000000000002</ele>
        <time>2019-06-23T10:06:20Z</time>
      </trkpt>
      <trkpt lat="42.955324994400144" lon="-2.599048968404532">
        <ele>556.60000000000002</ele>
        <time>2019-06-23T10:06:22Z</time>
      </trkpt>
      <trkpt lat="42.95525198802352" lon="-2.59925801306963">
        <ele>556</ele>
        <time>2019-06-23T10:06:24Z</time>
      </trkpt>
      <trkpt lat="42.955217035487294" lon="-2.599361026659608">
        <ele>555.60000000000002</ele>
        <time>2019-06-23T10:06:25Z</time>
      </trkpt>
      <trkpt lat="42.955183004960418" lon="-2.599460016936064">
        <ele>555.20000000000005</ele>
        <time>2019-06-23T10:06:26Z</time>
      </trkpt>
      <trkpt lat="42.955113016068935" lon="-2.599651962518692">
        <ele>554.60000000000002</ele>
        <time>2019-06-23T10:06:28Z</time>
      </trkpt>
      <trkpt lat="42.95507999137044" lon="-2.599741984158754">
        <ele>554.60000000000002</ele>
        <time>2019-06-23T10:06:29Z</time>
      </trkpt>
      <trkpt lat="42.955048978328705" lon="-2.599828988313675">
        <ele>554.60000000000002</ele>
        <time>2019-06-23T10:06:30Z</time>
      </trkpt>
      <trkpt lat="42.955019976943731" lon="-2.599909035488963">
        <ele>554.39999999999998</ele>
        <time>2019-06-23T10:06:31Z</time>
      </trkpt>
      <trkpt lat="42.9549939930439" lon="-2.599986987188458">
        <ele>554.39999999999998</ele>
        <time>2019-06-23T10:06:32Z</time>
      </trkpt>
      <trkpt lat="42.954944958910346" lon="-2.60013903491199">
        <ele>554.39999999999998</ele>
        <time>2019-06-23T10:06:34Z</time>
      </trkpt>
      <trkpt lat="42.954897014424205" lon="-2.60029099881649">
        <ele>554.79999999999995</ele>
        <time>2019-06-23T10:06:36Z</time>
      </trkpt>
      <trkpt lat="42.954868013039231" lon="-2.600362999364734">
        <ele>555</ele>
        <time>2019-06-23T10:06:37Z</time>
      </trkpt>
      <trkpt lat="42.9548420291394" lon="-2.60044002905488">
        <ele>555.20000000000005</ele>
        <time>2019-06-23T10:06:38Z</time>
      </trkpt>
      <trkpt lat="42.954786960035563" lon="-2.600597022101283">
        <ele>555.79999999999995</ele>
        <time>2019-06-23T10:06:40Z</time>
      </trkpt>
      <trkpt lat="42.954733986407518" lon="-2.600749991834164">
        <ele>556.79999999999995</ele>
        <time>2019-06-23T10:06:42Z</time>
      </trkpt>
      <trkpt lat="42.954712025821209" lon="-2.600829033181071">
        <ele>557</ele>
        <time>2019-06-23T10:06:43Z</time>
      </trkpt>
      <trkpt lat="42.954689981415868" lon="-2.60091301985085">
        <ele>557.20000000000005</ele>
        <time>2019-06-23T10:06:44Z</time>
      </trkpt>
      <trkpt lat="42.954667015001178" lon="-2.601078981533647">
        <ele>557.79999999999995</ele>
        <time>2019-06-23T10:06:46Z</time>
      </trkpt>
      <trkpt lat="42.95467296615243" lon="-2.601165985688567">
        <ele>558.20000000000005</ele>
        <time>2019-06-23T10:06:47Z</time>
      </trkpt>
      <trkpt lat="42.954687969759107" lon="-2.60125701315701">
        <ele>558.60000000000002</ele>
        <time>2019-06-23T10:06:48Z</time>
      </trkpt>
      <trkpt lat="42.954743960872293" lon="-2.601424986496568">
        <ele>559.39999999999998</ele>
        <time>2019-06-23T10:06:50Z</time>
      </trkpt>
      <trkpt lat="42.954782014712691" lon="-2.601510984823108">
        <ele>559.60000000000002</ele>
        <time>2019-06-23T10:06:51Z</time>
      </trkpt>
      <trkpt lat="42.954829037189484" lon="-2.601594971492887">
        <ele>559.79999999999995</ele>
        <time>2019-06-23T10:06:52Z</time>
      </trkpt>
      <trkpt lat="42.95488603413105" lon="-2.601676024496555">
        <ele>559.79999999999995</ele>
        <time>2019-06-23T10:06:53Z</time>
      </trkpt>
      <trkpt lat="42.954954011365771" lon="-2.601747019216418">
        <ele>559.79999999999995</ele>
        <time>2019-06-23T10:06:54Z</time>
      </trkpt>
      <trkpt lat="42.955028023570776" lon="-2.601811978965998">
        <ele>559.79999999999995</ele>
        <time>2019-06-23T10:06:55Z</time>
      </trkpt>
      <trkpt lat="42.955107986927032" lon="-2.601870987564325">
        <ele>559.79999999999995</ele>
        <time>2019-06-23T10:06:56Z</time>
      </trkpt>
      <trkpt lat="42.955193985253572" lon="-2.601923039183021">
        <ele>559.79999999999995</ele>
        <time>2019-06-23T10:06:57Z</time>
      </trkpt>
      <trkpt lat="42.955284006893635" lon="-2.601970983669162">
        <ele>559.79999999999995</ele>
        <time>2019-06-23T10:06:58Z</time>
      </trkpt>
      <trkpt lat="42.955376040190458" lon="-2.602017000317574">
        <ele>559.79999999999995</ele>
        <time>2019-06-23T10:06:59Z</time>
      </trkpt>
      <trkpt lat="42.955471007153392" lon="-2.602064022794366">
        <ele>559.79999999999995</ele>
        <time>2019-06-23T10:07:00Z</time>
      </trkpt>
      <trkpt lat="42.955569997429848" lon="-2.602108027786017">
        <ele>559.39999999999998</ele>
        <time>2019-06-23T10:07:01Z</time>
      </trkpt>
      <trkpt lat="42.955668987706304" lon="-2.602154966443777">
        <ele>559.20000000000005</ele>
        <time>2019-06-23T10:07:02Z</time>
      </trkpt>
      <trkpt lat="42.955864034593105" lon="-2.602251023054123">
        <ele>558.20000000000005</ele>
        <time>2019-06-23T10:07:04Z</time>
      </trkpt>
      <trkpt lat="42.956052962690592" lon="-2.602356970310211">
        <ele>557</ele>
        <time>2019-06-23T10:07:06Z</time>
      </trkpt>
      <trkpt lat="42.956137033179402" lon="-2.602423019707203">
        <ele>556.60000000000002</ele>
        <time>2019-06-23T10:07:07Z</time>
      </trkpt>
      <trkpt lat="42.956213979050517" lon="-2.602504994720221">
        <ele>556</ele>
        <time>2019-06-23T10:07:08Z</time>
      </trkpt>
      <trkpt lat="42.95628204010427" lon="-2.602600967511535">
        <ele>555.39999999999998</ele>
        <time>2019-06-23T10:07:09Z</time>
      </trkpt>
      <trkpt lat="42.956340964883566" lon="-2.602710016071796">
        <ele>554.39999999999998</ele>
        <time>2019-06-23T10:07:10Z</time>
      </trkpt>
      <trkpt lat="42.9563910048455" lon="-2.602834990248084">
        <ele>553.60000000000002</ele>
        <time>2019-06-23T10:07:11Z</time>
      </trkpt>
      <trkpt lat="42.956441966816783" lon="-2.602960970252752">
        <ele>553.20000000000005</ele>
        <time>2019-06-23T10:07:12Z</time>
      </trkpt>
      <trkpt lat="42.956493012607098" lon="-2.603092985227704">
        <ele>552.79999999999995</ele>
        <time>2019-06-23T10:07:13Z</time>
      </trkpt>
      <trkpt lat="42.95654296875" lon="-2.603227011859417">
        <ele>552.60000000000002</ele>
        <time>2019-06-23T10:07:14Z</time>
      </trkpt>
      <trkpt lat="42.95662896707654" lon="-2.603505961596966">
        <ele>552.20000000000005</ele>
        <time>2019-06-23T10:07:16Z</time>
      </trkpt>
      <trkpt lat="42.956653023138642" lon="-2.603649040684104">
        <ele>552.20000000000005</ele>
        <time>2019-06-23T10:07:17Z</time>
      </trkpt>
      <trkpt lat="42.956656962633133" lon="-2.603794969618321">
        <ele>552</ele>
        <time>2019-06-23T10:07:18Z</time>
      </trkpt>
      <trkpt lat="42.956644976511598" lon="-2.603936959058046">
        <ele>551.60000000000002</ele>
        <time>2019-06-23T10:07:19Z</time>
      </trkpt>
      <trkpt lat="42.956612035632133" lon="-2.604070985689759">
        <ele>551.20000000000005</ele>
        <time>2019-06-23T10:07:20Z</time>
      </trkpt>
      <trkpt lat="42.956566018983722" lon="-2.604195037856698">
        <ele>550.60000000000002</ele>
        <time>2019-06-23T10:07:21Z</time>
      </trkpt>
      <trkpt lat="42.956506004557014" lon="-2.604306014254689">
        <ele>550</ele>
        <time>2019-06-23T10:07:22Z</time>
      </trkpt>
      <trkpt lat="42.956435009837151" lon="-2.604402992874384">
        <ele>549.79999999999995</ele>
        <time>2019-06-23T10:07:23Z</time>
      </trkpt>
      <trkpt lat="42.956358985975385" lon="-2.604483962059021">
        <ele>549.39999999999998</ele>
        <time>2019-06-23T10:07:24Z</time>
      </trkpt>
      <trkpt lat="42.956213979050517" lon="-2.60463198646903">
        <ele>549.20000000000005</ele>
        <time>2019-06-23T10:07:26Z</time>
      </trkpt>
      <trkpt lat="42.956144995987415" lon="-2.604704992845655">
        <ele>549.20000000000005</ele>
        <time>2019-06-23T10:07:27Z</time>
      </trkpt>
      <trkpt lat="42.956080958247185" lon="-2.604776993393898">
        <ele>549.20000000000005</ele>
        <time>2019-06-23T10:07:28Z</time>
      </trkpt>
      <trkpt lat="42.956023961305618" lon="-2.604854023084045">
        <ele>549.39999999999998</ele>
        <time>2019-06-23T10:07:29Z</time>
      </trkpt>
      <trkpt lat="42.955977022647858" lon="-2.604935998097062">
        <ele>549.20000000000005</ele>
        <time>2019-06-23T10:07:30Z</time>
      </trkpt>
      <trkpt lat="42.955937962979078" lon="-2.605021996423602">
        <ele>549.39999999999998</ele>
        <time>2019-06-23T10:07:31Z</time>
      </trkpt>
      <trkpt lat="42.955906027927995" lon="-2.605111012235284">
        <ele>549.39999999999998</ele>
        <time>2019-06-23T10:07:32Z</time>
      </trkpt>
      <trkpt lat="42.955850958824158" lon="-2.60529700666666">
        <ele>549.60000000000002</ele>
        <time>2019-06-23T10:07:34Z</time>
      </trkpt>
      <trkpt lat="42.955793961882591" lon="-2.605504039674997">
        <ele>550.20000000000005</ele>
        <time>2019-06-23T10:07:36Z</time>
      </trkpt>
      <trkpt lat="42.955762026831508" lon="-2.605608981102705">
        <ele>550.79999999999995</ele>
        <time>2019-06-23T10:07:37Z</time>
      </trkpt>
      <trkpt lat="42.955727996304631" lon="-2.605714006349444">
        <ele>551.20000000000005</ele>
        <time>2019-06-23T10:07:38Z</time>
      </trkpt>
      <trkpt lat="42.955659013241529" lon="-2.605922967195511">
        <ele>551.60000000000002</ele>
        <time>2019-06-23T10:07:40Z</time>
      </trkpt>
      <trkpt lat="42.955568991601467" lon="-2.606122959405184">
        <ele>551.60000000000002</ele>
        <time>2019-06-23T10:07:42Z</time>
      </trkpt>
      <trkpt lat="42.955520041286945" lon="-2.606221027672291">
        <ele>551.79999999999995</ele>
        <time>2019-06-23T10:07:43Z</time>
      </trkpt>
      <trkpt lat="42.955473018810153" lon="-2.606324041262269">
        <ele>551.60000000000002</ele>
        <time>2019-06-23T10:07:44Z</time>
      </trkpt>
      <trkpt lat="42.9554239846766" lon="-2.606426971033216">
        <ele>551.79999999999995</ele>
        <time>2019-06-23T10:07:45Z</time>
      </trkpt>
      <trkpt lat="42.955376040190458" lon="-2.606529984623194">
        <ele>551.79999999999995</ele>
        <time>2019-06-23T10:07:46Z</time>
      </trkpt>
      <trkpt lat="42.95527302660048" lon="-2.606741040945053">
        <ele>551.60000000000002</ele>
        <time>2019-06-23T10:07:48Z</time>
      </trkpt>
      <trkpt lat="42.955219969153404" lon="-2.606846988201141">
        <ele>551.60000000000002</ele>
        <time>2019-06-23T10:07:49Z</time>
      </trkpt>
      <trkpt lat="42.95516598969698" lon="-2.606953019276261">
        <ele>551.60000000000002</ele>
        <time>2019-06-23T10:07:50Z</time>
      </trkpt>
      <trkpt lat="42.955044033005834" lon="-2.607147982344031">
        <ele>551</ele>
        <time>2019-06-23T10:07:52Z</time>
      </trkpt>
      <trkpt lat="42.9549749661237" lon="-2.607235992327333">
        <ele>550.79999999999995</ele>
        <time>2019-06-23T10:07:53Z</time>
      </trkpt>
      <trkpt lat="42.954897014424205" lon="-2.607304975390434">
        <ele>550.60000000000002</ele>
        <time>2019-06-23T10:07:54Z</time>
      </trkpt>
      <trkpt lat="42.954814033582807" lon="-2.607351997867227">
        <ele>550.39999999999998</ele>
        <time>2019-06-23T10:07:55Z</time>
      </trkpt>
      <trkpt lat="42.954729963093996" lon="-2.607388040050864">
        <ele>550.20000000000005</ele>
        <time>2019-06-23T10:07:56Z</time>
      </trkpt>
      <trkpt lat="42.954642958939075" lon="-2.60742299258709">
        <ele>550</ele>
        <time>2019-06-23T10:07:57Z</time>
      </trkpt>
      <trkpt lat="42.954556960612535" lon="-2.607456017285585">
        <ele>549.79999999999995</ele>
        <time>2019-06-23T10:07:58Z</time>
      </trkpt>
      <trkpt lat="42.954383036121726" lon="-2.607519971206784">
        <ele>549.60000000000002</ele>
        <time>2019-06-23T10:08:00Z</time>
      </trkpt>
      <trkpt lat="42.954213973134756" lon="-2.607584008947015">
        <ele>549.20000000000005</ele>
        <time>2019-06-23T10:08:02Z</time>
      </trkpt>
      <trkpt lat="42.954047005623579" lon="-2.607649974524975">
        <ele>549.39999999999998</ele>
        <time>2019-06-23T10:08:04Z</time>
      </trkpt>
      <trkpt lat="42.953883977606893" lon="-2.607714012265205">
        <ele>549.20000000000005</ele>
        <time>2019-06-23T10:08:06Z</time>
      </trkpt>
      <trkpt lat="42.953806025907397" lon="-2.607757011428475">
        <ele>549.39999999999998</ele>
        <time>2019-06-23T10:08:07Z</time>
      </trkpt>
      <trkpt lat="42.953732013702393" lon="-2.607806967571378">
        <ele>549.20000000000005</ele>
        <time>2019-06-23T10:08:08Z</time>
      </trkpt>
      <trkpt lat="42.953605027869344" lon="-2.607943005859852">
        <ele>549.39999999999998</ele>
        <time>2019-06-23T10:08:10Z</time>
      </trkpt>
      <trkpt lat="42.953502014279366" lon="-2.608109973371029">
        <ele>549.20000000000005</ele>
        <time>2019-06-23T10:08:12Z</time>
      </trkpt>
      <trkpt lat="42.953401012346148" lon="-2.608293034136295">
        <ele>549.39999999999998</ele>
        <time>2019-06-23T10:08:14Z</time>
      </trkpt>
      <trkpt lat="42.953349966555834" lon="-2.608383977785707">
        <ele>549.20000000000005</ele>
        <time>2019-06-23T10:08:15Z</time>
      </trkpt>
      <trkpt lat="42.953293975442648" lon="-2.608469976112247">
        <ele>549.20000000000005</ele>
        <time>2019-06-23T10:08:16Z</time>
      </trkpt>
      <trkpt lat="42.95323203317821" lon="-2.608548011630774">
        <ele>549.39999999999998</ele>
        <time>2019-06-23T10:08:17Z</time>
      </trkpt>
      <trkpt lat="42.953162966296077" lon="-2.608611965551972">
        <ele>549.20000000000005</ele>
        <time>2019-06-23T10:08:18Z</time>
      </trkpt>
      <trkpt lat="42.953087026253343" lon="-2.608659993857145">
        <ele>549.20000000000005</ele>
        <time>2019-06-23T10:08:19Z</time>
      </trkpt>
      <trkpt lat="42.953004967421293" lon="-2.608690001070499">
        <ele>549.20000000000005</ele>
        <time>2019-06-23T10:08:20Z</time>
      </trkpt>
      <trkpt lat="42.952921986579895" lon="-2.608703998848796">
        <ele>549.39999999999998</ele>
        <time>2019-06-23T10:08:21Z</time>
      </trkpt>
      <trkpt lat="42.952837999910116" lon="-2.608707016333938">
        <ele>549.39999999999998</ele>
        <time>2019-06-23T10:08:22Z</time>
      </trkpt>
      <trkpt lat="42.952676983550191" lon="-2.608688995242119">
        <ele>549.60000000000002</ele>
        <time>2019-06-23T10:08:24Z</time>
      </trkpt>
      <trkpt lat="42.952528037130833" lon="-2.608657982200384">
        <ele>549.39999999999998</ele>
        <time>2019-06-23T10:08:26Z</time>
      </trkpt>
      <trkpt lat="42.952457964420319" lon="-2.608644990250468">
        <ele>549.60000000000002</ele>
        <time>2019-06-23T10:08:27Z</time>
      </trkpt>
      <trkpt lat="42.952390993013978" lon="-2.608631998300552">
        <ele>549.60000000000002</ele>
        <time>2019-06-23T10:08:28Z</time>
      </trkpt>
      <trkpt lat="42.952326033264399" lon="-2.608616994693875">
        <ele>549.60000000000002</ele>
        <time>2019-06-23T10:08:29Z</time>
      </trkpt>
      <trkpt lat="42.952264007180929" lon="-2.608600985258818">
        <ele>549.60000000000002</ele>
        <time>2019-06-23T10:08:30Z</time>
      </trkpt>
      <trkpt lat="42.952146995812654" lon="-2.608576007187367">
        <ele>549.60000000000002</ele>
        <time>2019-06-23T10:08:32Z</time>
      </trkpt>
      <trkpt lat="42.952037025243044" lon="-2.608549017459154">
        <ele>550.20000000000005</ele>
        <time>2019-06-23T10:08:34Z</time>
      </trkpt>
      <trkpt lat="42.951929988339543" lon="-2.608514986932278">
        <ele>551.39999999999998</ele>
        <time>2019-06-23T10:08:36Z</time>
      </trkpt>
      <trkpt lat="42.951829992234707" lon="-2.608466036617756">
        <ele>552</ele>
        <time>2019-06-23T10:08:38Z</time>
      </trkpt>
      <trkpt lat="42.951780958101153" lon="-2.608437035232782">
        <ele>552.79999999999995</ele>
        <time>2019-06-23T10:08:39Z</time>
      </trkpt>
      <trkpt lat="42.951735025271773" lon="-2.608398981392384">
        <ele>553.20000000000005</ele>
        <time>2019-06-23T10:08:40Z</time>
      </trkpt>
      <trkpt lat="42.951647015288472" lon="-2.608313988894224">
        <ele>553.60000000000002</ele>
        <time>2019-06-23T10:08:42Z</time>
      </trkpt>
      <trkpt lat="42.951559005305171" lon="-2.608224973082542">
        <ele>554.39999999999998</ele>
        <time>2019-06-23T10:08:44Z</time>
      </trkpt>
      <trkpt lat="42.951476024463773" lon="-2.608133023604751">
        <ele>555.60000000000002</ele>
        <time>2019-06-23T10:08:46Z</time>
      </trkpt>
      <trkpt lat="42.951392037793994" lon="-2.608039984479547">
        <ele>556.60000000000002</ele>
        <time>2019-06-23T10:08:48Z</time>
      </trkpt>
      <trkpt lat="42.951308973133564" lon="-2.607948035001755">
        <ele>556.79999999999995</ele>
        <time>2019-06-23T10:08:50Z</time>
      </trkpt>
      <trkpt lat="42.951268991455436" lon="-2.607900006696582">
        <ele>556.79999999999995</ele>
        <time>2019-06-23T10:08:51Z</time>
      </trkpt>
      <trkpt lat="42.951226998120546" lon="-2.60785399004817">
        <ele>557</ele>
        <time>2019-06-23T10:08:52Z</time>
      </trkpt>
      <trkpt lat="42.951142005622387" lon="-2.607762040570378">
        <ele>557.60000000000002</ele>
        <time>2019-06-23T10:08:54Z</time>
      </trkpt>
      <trkpt lat="42.951058018952608" lon="-2.607669001445174">
        <ele>557.79999999999995</ele>
        <time>2019-06-23T10:08:56Z</time>
      </trkpt>
      <trkpt lat="42.951016025617719" lon="-2.607622984796763">
        <ele>558</ele>
        <time>2019-06-23T10:08:57Z</time>
      </trkpt>
      <trkpt lat="42.950973026454449" lon="-2.607577973976731">
        <ele>558</ele>
        <time>2019-06-23T10:08:58Z</time>
      </trkpt>
      <trkpt lat="42.95088903978467" lon="-2.60748703032732">
        <ele>559</ele>
        <time>2019-06-23T10:09:00Z</time>
      </trkpt>
      <trkpt lat="42.950846962630749" lon="-2.607440007850528">
        <ele>559.20000000000005</ele>
        <time>2019-06-23T10:09:01Z</time>
      </trkpt>
      <trkpt lat="42.950803963467479" lon="-2.607396002858877">
        <ele>559.39999999999998</ele>
        <time>2019-06-23T10:09:02Z</time>
      </trkpt>
      <trkpt lat="42.950715031474829" lon="-2.60731402784586">
        <ele>560</ele>
        <time>2019-06-23T10:09:04Z</time>
      </trkpt>
      <trkpt lat="42.950620986521244" lon="-2.607239009812474">
        <ele>560.60000000000002</ele>
        <time>2019-06-23T10:09:06Z</time>
      </trkpt>
      <trkpt lat="42.950518978759646" lon="-2.607182012870908">
        <ele>561.20000000000005</ele>
        <time>2019-06-23T10:09:08Z</time>
      </trkpt>
      <trkpt lat="42.950464999303222" lon="-2.607161980122328">
        <ele>561.60000000000002</ele>
        <time>2019-06-23T10:09:09Z</time>
      </trkpt>
      <trkpt lat="42.950410014018416" lon="-2.607149994000793">
        <ele>561.79999999999995</ele>
        <time>2019-06-23T10:09:10Z</time>
      </trkpt>
      <trkpt lat="42.950351005420089" lon="-2.60714496485889">
        <ele>561.79999999999995</ele>
        <time>2019-06-23T10:09:11Z</time>
      </trkpt>
      <trkpt lat="42.950289985165" lon="-2.607147982344031">
        <ele>562</ele>
        <time>2019-06-23T10:09:12Z</time>
      </trkpt>
      <trkpt lat="42.950156964361668" lon="-2.607189975678921">
        <ele>562.20000000000005</ele>
        <time>2019-06-23T10:09:14Z</time>
      </trkpt>
      <trkpt lat="42.950086975470185" lon="-2.6072290353477">
        <ele>562</ele>
        <time>2019-06-23T10:09:15Z</time>
      </trkpt>
      <trkpt lat="42.950018998235464" lon="-2.607281003147364">
        <ele>562.20000000000005</ele>
        <time>2019-06-23T10:09:16Z</time>
      </trkpt>
      <trkpt lat="42.949953032657504" lon="-2.607347974553704">
        <ele>562.20000000000005</ele>
        <time>2019-06-23T10:09:17Z</time>
      </trkpt>
      <trkpt lat="42.949885977432132" lon="-2.60742299258709">
        <ele>562.20000000000005</ele>
        <time>2019-06-23T10:09:18Z</time>
      </trkpt>
      <trkpt lat="42.949818000197411" lon="-2.607504967600107">
        <ele>562.20000000000005</ele>
        <time>2019-06-23T10:09:19Z</time>
      </trkpt>
      <trkpt lat="42.949748011305928" lon="-2.607588032260537">
        <ele>562</ele>
        <time>2019-06-23T10:09:20Z</time>
      </trkpt>
      <trkpt lat="42.949600992724299" lon="-2.607759023085237">
        <ele>562</ele>
        <time>2019-06-23T10:09:22Z</time>
      </trkpt>
      <trkpt lat="42.949449028819799" lon="-2.607934037223458">
        <ele>561.39999999999998</ele>
        <time>2019-06-23T10:09:24Z</time>
      </trkpt>
      <trkpt lat="42.949369987472892" lon="-2.608022969216108">
        <ele>560.39999999999998</ele>
        <time>2019-06-23T10:09:25Z</time>
      </trkpt>
      <trkpt lat="42.949292035773396" lon="-2.60811198502779">
        <ele>560</ele>
        <time>2019-06-23T10:09:26Z</time>
      </trkpt>
      <trkpt lat="42.949138982221484" lon="-2.608296973630786">
        <ele>559</ele>
        <time>2019-06-23T10:09:28Z</time>
      </trkpt>
      <trkpt lat="42.948991041630507" lon="-2.608473999425769">
        <ele>557.79999999999995</ele>
        <time>2019-06-23T10:09:30Z</time>
      </trkpt>
      <trkpt lat="42.94885098002851" lon="-2.60862504132092">
        <ele>557</ele>
        <time>2019-06-23T10:09:32Z</time>
      </trkpt>
      <trkpt lat="42.948780991137028" lon="-2.608685977756977">
        <ele>556.79999999999995</ele>
        <time>2019-06-23T10:09:33Z</time>
      </trkpt>
      <trkpt lat="42.948708990588784" lon="-2.608729982748628">
        <ele>556.79999999999995</ele>
        <time>2019-06-23T10:09:34Z</time>
      </trkpt>
      <trkpt lat="42.94863598421216" lon="-2.60875697247684">
        <ele>556.79999999999995</ele>
        <time>2019-06-23T10:09:35Z</time>
      </trkpt>
      <trkpt lat="42.948561972007155" lon="-2.608767030760646">
        <ele>556.79999999999995</ele>
        <time>2019-06-23T10:09:36Z</time>
      </trkpt>
      <trkpt lat="42.948487959802151" lon="-2.608759989961982">
        <ele>556.60000000000002</ele>
        <time>2019-06-23T10:09:37Z</time>
      </trkpt>
      <trkpt lat="42.948415037244558" lon="-2.608740041032434">
        <ele>556.79999999999995</ele>
        <time>2019-06-23T10:09:38Z</time>
      </trkpt>
      <trkpt lat="42.948343036696315" lon="-2.608707016333938">
        <ele>556.79999999999995</ele>
        <time>2019-06-23T10:09:39Z</time>
      </trkpt>
      <trkpt lat="42.948275981470942" lon="-2.608663011342287">
        <ele>556.79999999999995</ele>
        <time>2019-06-23T10:09:40Z</time>
      </trkpt>
      <trkpt lat="42.948210015892982" lon="-2.608606014400721">
        <ele>556.79999999999995</ele>
        <time>2019-06-23T10:09:41Z</time>
      </trkpt>
      <trkpt lat="42.948146983981133" lon="-2.608539965003729">
        <ele>557</ele>
        <time>2019-06-23T10:09:42Z</time>
      </trkpt>
      <trkpt lat="42.948083030059934" lon="-2.608468970283866">
        <ele>557.20000000000005</ele>
        <time>2019-06-23T10:09:43Z</time>
      </trkpt>
      <trkpt lat="42.948019998148084" lon="-2.608395041897893">
        <ele>557.20000000000005</ele>
        <time>2019-06-23T10:09:44Z</time>
      </trkpt>
      <trkpt lat="42.947891000658274" lon="-2.608244000002742">
        <ele>557.20000000000005</ele>
        <time>2019-06-23T10:09:46Z</time>
      </trkpt>
      <trkpt lat="42.947758985683322" lon="-2.60808801278472">
        <ele>557.39999999999998</ele>
        <time>2019-06-23T10:09:48Z</time>
      </trkpt>
      <trkpt lat="42.94762596487999" lon="-2.607930013909936">
        <ele>557.39999999999998</ele>
        <time>2019-06-23T10:09:50Z</time>
      </trkpt>
      <trkpt lat="42.947491016238928" lon="-2.60776799172163">
        <ele>556.79999999999995</ele>
        <time>2019-06-23T10:09:52Z</time>
      </trkpt>
      <trkpt lat="42.947421027347445" lon="-2.607685010880232">
        <ele>556.39999999999998</ele>
        <time>2019-06-23T10:09:53Z</time>
      </trkpt>
      <trkpt lat="42.947351038455963" lon="-2.607602030038834">
        <ele>556.20000000000005</ele>
        <time>2019-06-23T10:09:54Z</time>
      </trkpt>
      <trkpt lat="42.947209971025586" lon="-2.607433972880244">
        <ele>555</ele>
        <time>2019-06-23T10:09:56Z</time>
      </trkpt>
      <trkpt lat="42.94706697575748" lon="-2.607267005369067">
        <ele>554.60000000000002</ele>
        <time>2019-06-23T10:09:58Z</time>
      </trkpt>
      <trkpt lat="42.946993969380856" lon="-2.607183018699288">
        <ele>554.20000000000005</ele>
        <time>2019-06-23T10:09:59Z</time>
      </trkpt>
      <trkpt lat="42.946921968832612" lon="-2.607096014544368">
        <ele>553.79999999999995</ele>
        <time>2019-06-23T10:10:00Z</time>
      </trkpt>
      <trkpt lat="42.946775034070015" lon="-2.606923012062907">
        <ele>552.79999999999995</ele>
        <time>2019-06-23T10:10:02Z</time>
      </trkpt>
      <trkpt lat="42.946626003831625" lon="-2.606752021238208">
        <ele>552</ele>
        <time>2019-06-23T10:10:04Z</time>
      </trkpt>
      <trkpt lat="42.94655098579824" lon="-2.606668034568429">
        <ele>552</ele>
        <time>2019-06-23T10:10:05Z</time>
      </trkpt>
      <trkpt lat="42.946477979421616" lon="-2.606582958251238">
        <ele>551.60000000000002</ele>
        <time>2019-06-23T10:10:06Z</time>
      </trkpt>
      <trkpt lat="42.946334984153509" lon="-2.606415990740061">
        <ele>551.20000000000005</ele>
        <time>2019-06-23T10:10:08Z</time>
      </trkpt>
      <trkpt lat="42.946264995262027" lon="-2.606333009898663">
        <ele>551</ele>
        <time>2019-06-23T10:10:09Z</time>
      </trkpt>
      <trkpt lat="42.946196012198925" lon="-2.606252040714026">
        <ele>550.79999999999995</ele>
        <time>2019-06-23T10:10:10Z</time>
      </trkpt>
      <trkpt lat="42.94605796225369" lon="-2.6060910243541">
        <ele>550.39999999999998</ele>
        <time>2019-06-23T10:10:12Z</time>
      </trkpt>
      <trkpt lat="42.945923013612628" lon="-2.605932019650936">
        <ele>550.39999999999998</ele>
        <time>2019-06-23T10:10:14Z</time>
      </trkpt>
      <trkpt lat="42.945787981152534" lon="-2.605775026604533">
        <ele>550.39999999999998</ele>
        <time>2019-06-23T10:10:16Z</time>
      </trkpt>
      <trkpt lat="42.945656972005963" lon="-2.605619039386511">
        <ele>550.39999999999998</ele>
        <time>2019-06-23T10:10:18Z</time>
      </trkpt>
      <trkpt lat="42.945525040850043" lon="-2.605464980006218">
        <ele>550.60000000000002</ele>
        <time>2019-06-23T10:10:20Z</time>
      </trkpt>
      <trkpt lat="42.945458991453052" lon="-2.605387028306723">
        <ele>550.60000000000002</ele>
        <time>2019-06-23T10:10:21Z</time>
      </trkpt>
      <trkpt lat="42.945393025875092" lon="-2.605309998616576">
        <ele>550.60000000000002</ele>
        <time>2019-06-23T10:10:22Z</time>
      </trkpt>
      <trkpt lat="42.945264028385282" lon="-2.605154011398554">
        <ele>550.79999999999995</ele>
        <time>2019-06-23T10:10:24Z</time>
      </trkpt>
      <trkpt lat="42.94513301923871" lon="-2.605001963675022">
        <ele>551</ele>
        <time>2019-06-23T10:10:26Z</time>
      </trkpt>
      <trkpt lat="42.945001004263759" lon="-2.604849999770522">
        <ele>551.20000000000005</ele>
        <time>2019-06-23T10:10:28Z</time>
      </trkpt>
      <trkpt lat="42.944867983460426" lon="-2.604699041694403">
        <ele>551.60000000000002</ele>
        <time>2019-06-23T10:10:30Z</time>
      </trkpt>
      <trkpt lat="42.944801012054086" lon="-2.604626035317779">
        <ele>551.60000000000002</ele>
        <time>2019-06-23T10:10:31Z</time>
      </trkpt>
      <trkpt lat="42.944730017334223" lon="-2.604553028941155">
        <ele>551.79999999999995</ele>
        <time>2019-06-23T10:10:32Z</time>
      </trkpt>
      <trkpt lat="42.944586016237736" lon="-2.604411039501429">
        <ele>551.79999999999995</ele>
        <time>2019-06-23T10:10:34Z</time>
      </trkpt>
      <trkpt lat="42.944436985999346" lon="-2.604271983727813">
        <ele>551.79999999999995</ele>
        <time>2019-06-23T10:10:36Z</time>
      </trkpt>
      <trkpt lat="42.944288039579988" lon="-2.60413602925837">
        <ele>552</ele>
        <time>2019-06-23T10:10:38Z</time>
      </trkpt>
      <trkpt lat="42.944214027374983" lon="-2.604066962376237">
        <ele>551.79999999999995</ele>
        <time>2019-06-23T10:10:39Z</time>
      </trkpt>
      <trkpt lat="42.944142026826739" lon="-2.603998985141516">
        <ele>551.79999999999995</ele>
        <time>2019-06-23T10:10:40Z</time>
      </trkpt>
      <trkpt lat="42.943997019901872" lon="-2.603866970166564">
        <ele>551.60000000000002</ele>
        <time>2019-06-23T10:10:42Z</time>
      </trkpt>
      <trkpt lat="42.943853018805385" lon="-2.603734033182263">
        <ele>551.39999999999998</ele>
        <time>2019-06-23T10:10:44Z</time>
      </trkpt>
      <trkpt lat="42.943706000223756" lon="-2.603607969358563">
        <ele>551.39999999999998</ele>
        <time>2019-06-23T10:10:46Z</time>
      </trkpt>
      <trkpt lat="42.943554036319256" lon="-2.603493975475431">
        <ele>551.20000000000005</ele>
        <time>2019-06-23T10:10:48Z</time>
      </trkpt>
      <trkpt lat="42.943473989143968" lon="-2.603443013504148">
        <ele>551.20000000000005</ele>
        <time>2019-06-23T10:10:49Z</time>
      </trkpt>
      <trkpt lat="42.943394025787711" lon="-2.603393979370594">
        <ele>551</ele>
        <time>2019-06-23T10:10:50Z</time>
      </trkpt>
      <trkpt lat="42.943311966955662" lon="-2.603345029056072">
        <ele>551</ele>
        <time>2019-06-23T10:10:51Z</time>
      </trkpt>
      <trkpt lat="42.943229991942644" lon="-2.603295994922519">
        <ele>550.79999999999995</ele>
        <time>2019-06-23T10:10:52Z</time>
      </trkpt>
      <trkpt lat="42.943066963925958" lon="-2.603201027959585">
        <ele>551</ele>
        <time>2019-06-23T10:10:54Z</time>
      </trkpt>
      <trkpt lat="42.942903013899922" lon="-2.603104971349239">
        <ele>550.79999999999995</ele>
        <time>2019-06-23T10:10:56Z</time>
      </trkpt>
      <trkpt lat="42.942741997539997" lon="-2.603015033528209">
        <ele>550.60000000000002</ele>
        <time>2019-06-23T10:10:58Z</time>
      </trkpt>
      <trkpt lat="42.942662034183741" lon="-2.602974968031049">
        <ele>550.20000000000005</ele>
        <time>2019-06-23T10:10:59Z</time>
      </trkpt>
      <trkpt lat="42.942581987008452" lon="-2.602942027151585">
        <ele>550</ele>
        <time>2019-06-23T10:11:00Z</time>
      </trkpt>
      <trkpt lat="42.942418958991766" lon="-2.602896010503173">
        <ele>549.60000000000002</ele>
        <time>2019-06-23T10:11:02Z</time>
      </trkpt>
      <trkpt lat="42.942260038107634" lon="-2.602860974147916">
        <ele>549.60000000000002</ele>
        <time>2019-06-23T10:11:04Z</time>
      </trkpt>
      <trkpt lat="42.94210396707058" lon="-2.602827027440071">
        <ele>549.60000000000002</ele>
        <time>2019-06-23T10:11:06Z</time>
      </trkpt>
      <trkpt lat="42.94195200316608" lon="-2.602800037711859">
        <ele>549.60000000000002</ele>
        <time>2019-06-23T10:11:08Z</time>
      </trkpt>
      <trkpt lat="42.941804984584451" lon="-2.602784028276801">
        <ele>549.60000000000002</ele>
        <time>2019-06-23T10:11:10Z</time>
      </trkpt>
      <trkpt lat="42.941731978207827" lon="-2.602781010791659">
        <ele>549.60000000000002</ele>
        <time>2019-06-23T10:11:11Z</time>
      </trkpt>
      <trkpt lat="42.941659977659583" lon="-2.602780004963279">
        <ele>549.79999999999995</ele>
        <time>2019-06-23T10:11:12Z</time>
      </trkpt>
      <trkpt lat="42.94158797711134" lon="-2.602784028276801">
        <ele>549.79999999999995</ele>
        <time>2019-06-23T10:11:13Z</time>
      </trkpt>
      <trkpt lat="42.941514970734715" lon="-2.602795008569956">
        <ele>550</ele>
        <time>2019-06-23T10:11:14Z</time>
      </trkpt>
      <trkpt lat="42.941368035972118" lon="-2.602834990248084">
        <ele>550.60000000000002</ele>
        <time>2019-06-23T10:11:16Z</time>
      </trkpt>
      <trkpt lat="42.941219005733728" lon="-2.602904979139566">
        <ele>550.79999999999995</ele>
        <time>2019-06-23T10:11:18Z</time>
      </trkpt>
      <trkpt lat="42.941147005185485" lon="-2.602950995787978">
        <ele>551</ele>
        <time>2019-06-23T10:11:19Z</time>
      </trkpt>
      <trkpt lat="42.941073998808861" lon="-2.603005981072784">
        <ele>550.79999999999995</ele>
        <time>2019-06-23T10:11:20Z</time>
      </trkpt>
      <trkpt lat="42.941005015745759" lon="-2.603069012984633">
        <ele>551</ele>
        <time>2019-06-23T10:11:21Z</time>
      </trkpt>
      <trkpt lat="42.940933015197515" lon="-2.603139001876116">
        <ele>551</ele>
        <time>2019-06-23T10:11:22Z</time>
      </trkpt>
      <trkpt lat="42.94079496525228" lon="-2.603289037942886">
        <ele>551</ele>
        <time>2019-06-23T10:11:24Z</time>
      </trkpt>
      <trkpt lat="42.940661022439599" lon="-2.603447958827019">
        <ele>550.79999999999995</ele>
        <time>2019-06-23T10:11:26Z</time>
      </trkpt>
      <trkpt lat="42.940592961385846" lon="-2.603528006002307">
        <ele>551</ele>
        <time>2019-06-23T10:11:27Z</time>
      </trkpt>
      <trkpt lat="42.940528001636267" lon="-2.603608975186944">
        <ele>550.79999999999995</ele>
        <time>2019-06-23T10:11:28Z</time>
      </trkpt>
      <trkpt lat="42.940400009974837" lon="-2.603766974061728">
        <ele>549.79999999999995</ele>
        <time>2019-06-23T10:11:30Z</time>
      </trkpt>
      <trkpt lat="42.94027503579855" lon="-2.60392002761364">
        <ele>549.60000000000002</ele>
        <time>2019-06-23T10:11:32Z</time>
      </trkpt>
      <trkpt lat="42.94014997780323" lon="-2.604066962376237">
        <ele>549.60000000000002</ele>
        <time>2019-06-23T10:11:34Z</time>
      </trkpt>
      <trkpt lat="42.940028021112084" lon="-2.604210963472724">
        <ele>549.39999999999998</ele>
        <time>2019-06-23T10:11:36Z</time>
      </trkpt>
      <trkpt lat="42.939908998087049" lon="-2.604357982054353">
        <ele>549.39999999999998</ele>
        <time>2019-06-23T10:11:38Z</time>
      </trkpt>
      <trkpt lat="42.939790980890393" lon="-2.604505000635982">
        <ele>549.39999999999998</ele>
        <time>2019-06-23T10:11:40Z</time>
      </trkpt>
      <trkpt lat="42.939734989777207" lon="-2.604585969820619">
        <ele>549.60000000000002</ele>
        <time>2019-06-23T10:11:41Z</time>
      </trkpt>
      <trkpt lat="42.939686039462686" lon="-2.604676997289062">
        <ele>549.39999999999998</ele>
        <time>2019-06-23T10:11:42Z</time>
      </trkpt>
      <trkpt lat="42.93961001560092" lon="-2.604881012812257">
        <ele>549.60000000000002</ele>
        <time>2019-06-23T10:11:44Z</time>
      </trkpt>
      <trkpt lat="42.939561987295747" lon="-2.605100031942129">
        <ele>549.39999999999998</ele>
        <time>2019-06-23T10:11:46Z</time>
      </trkpt>
      <trkpt lat="42.939519993960857" lon="-2.605325002223253">
        <ele>549.39999999999998</ele>
        <time>2019-06-23T10:11:48Z</time>
      </trkpt>
      <trkpt lat="42.939480012282729" lon="-2.605550978332758">
        <ele>549.39999999999998</ele>
        <time>2019-06-23T10:11:50Z</time>
      </trkpt>
      <trkpt lat="42.939435001462698" lon="-2.605776032432914">
        <ele>549.39999999999998</ele>
        <time>2019-06-23T10:11:52Z</time>
      </trkpt>
      <trkpt lat="42.939383033663034" lon="-2.605995973572135">
        <ele>549.60000000000002</ele>
        <time>2019-06-23T10:11:54Z</time>
      </trkpt>
      <trkpt lat="42.939314972609282" lon="-2.606207029893994">
        <ele>549.39999999999998</ele>
        <time>2019-06-23T10:11:56Z</time>
      </trkpt>
      <trkpt lat="42.939237020909786" lon="-2.606410039588809">
        <ele>549.39999999999998</ele>
        <time>2019-06-23T10:11:58Z</time>
      </trkpt>
      <trkpt lat="42.939141970127821" lon="-2.606599973514676">
        <ele>549.39999999999998</ele>
        <time>2019-06-23T10:12:00Z</time>
      </trkpt>
      <trkpt lat="42.939086984843016" lon="-2.606687983497977">
        <ele>549.39999999999998</ele>
        <time>2019-06-23T10:12:01Z</time>
      </trkpt>
      <trkpt lat="42.939029987901449" lon="-2.606769958510995">
        <ele>549.39999999999998</ele>
        <time>2019-06-23T10:12:02Z</time>
      </trkpt>
      <trkpt lat="42.938907025381923" lon="-2.606921000406146">
        <ele>549.39999999999998</ele>
        <time>2019-06-23T10:12:04Z</time>
      </trkpt>
      <trkpt lat="42.938775010406971" lon="-2.607044968754053">
        <ele>549.39999999999998</ele>
        <time>2019-06-23T10:12:06Z</time>
      </trkpt>
      <trkpt lat="42.938638972118497" lon="-2.60714303702116">
        <ele>549.60000000000002</ele>
        <time>2019-06-23T10:12:08Z</time>
      </trkpt>
      <trkpt lat="42.938568983227015" lon="-2.60718503035605">
        <ele>549.60000000000002</ele>
        <time>2019-06-23T10:12:09Z</time>
      </trkpt>
      <trkpt lat="42.938497988507152" lon="-2.607221994549036">
        <ele>549.60000000000002</ele>
        <time>2019-06-23T10:12:10Z</time>
      </trkpt>
      <trkpt lat="42.93842900544405" lon="-2.607257030904293">
        <ele>549.79999999999995</ele>
        <time>2019-06-23T10:12:11Z</time>
      </trkpt>
      <trkpt lat="42.938362034037709" lon="-2.60729500092566">
        <ele>550</ele>
        <time>2019-06-23T10:12:12Z</time>
      </trkpt>
      <trkpt lat="42.938295984640718" lon="-2.607340011745691">
        <ele>550.20000000000005</ele>
        <time>2019-06-23T10:12:13Z</time>
      </trkpt>
      <trkpt lat="42.938233958557248" lon="-2.607394997030497">
        <ele>550.39999999999998</ele>
        <time>2019-06-23T10:12:14Z</time>
      </trkpt>
      <trkpt lat="42.938174027949572" lon="-2.607460962608457">
        <ele>550.79999999999995</ele>
        <time>2019-06-23T10:12:15Z</time>
      </trkpt>
      <trkpt lat="42.938116025179625" lon="-2.607531035318971">
        <ele>551.20000000000005</ele>
        <time>2019-06-23T10:12:16Z</time>
      </trkpt>
      <trkpt lat="42.93800001963973" lon="-2.607677970081568">
        <ele>551.39999999999998</ele>
        <time>2019-06-23T10:12:18Z</time>
      </trkpt>
      <trkpt lat="42.937887031584978" lon="-2.607828006148338">
        <ele>551.60000000000002</ele>
        <time>2019-06-23T10:12:20Z</time>
      </trkpt>
      <trkpt lat="42.937835985794663" lon="-2.607908975332975">
        <ele>551.60000000000002</ele>
        <time>2019-06-23T10:12:21Z</time>
      </trkpt>
      <trkpt lat="42.937791980803013" lon="-2.607997991144657">
        <ele>551.60000000000002</ele>
        <time>2019-06-23T10:12:22Z</time>
      </trkpt>
      <trkpt lat="42.937726015225053" lon="-2.608195971697569">
        <ele>551.79999999999995</ele>
        <time>2019-06-23T10:12:24Z</time>
      </trkpt>
      <trkpt lat="42.93767899274826" lon="-2.608410967513919">
        <ele>551.79999999999995</ele>
        <time>2019-06-23T10:12:26Z</time>
      </trkpt>
      <trkpt lat="42.937644962221384" lon="-2.608628980815411">
        <ele>551.79999999999995</ele>
        <time>2019-06-23T10:12:28Z</time>
      </trkpt>
      <trkpt lat="42.937606992200017" lon="-2.60884297080338">
        <ele>551.79999999999995</ele>
        <time>2019-06-23T10:12:30Z</time>
      </trkpt>
      <trkpt lat="42.937547983601689" lon="-2.609052015468478">
        <ele>551.60000000000002</ele>
        <time>2019-06-23T10:12:32Z</time>
      </trkpt>
      <trkpt lat="42.937511019408703" lon="-2.609155029058456">
        <ele>551.60000000000002</ele>
        <time>2019-06-23T10:12:33Z</time>
      </trkpt>
      <trkpt lat="42.937471959739923" lon="-2.609254019334912">
        <ele>551.39999999999998</ele>
        <time>2019-06-23T10:12:34Z</time>
      </trkpt>
      <trkpt lat="42.937391996383667" lon="-2.609446970745921">
        <ele>551.20000000000005</ele>
        <time>2019-06-23T10:12:36Z</time>
      </trkpt>
      <trkpt lat="42.937312033027411" lon="-2.609633971005678">
        <ele>551.20000000000005</ele>
        <time>2019-06-23T10:12:38Z</time>
      </trkpt>
      <trkpt lat="42.937231985852122" lon="-2.609817031770945">
        <ele>551.20000000000005</ele>
        <time>2019-06-23T10:12:40Z</time>
      </trkpt>
      <trkpt lat="42.937154034152627" lon="-2.609999002888799">
        <ele>551</ele>
        <time>2019-06-23T10:12:42Z</time>
      </trkpt>
      <trkpt lat="42.937078010290861" lon="-2.610181979835033">
        <ele>551.20000000000005</ele>
        <time>2019-06-23T10:12:44Z</time>
      </trkpt>
      <trkpt lat="42.937011038884521" lon="-2.610373003408313">
        <ele>551.20000000000005</ele>
        <time>2019-06-23T10:12:46Z</time>
      </trkpt>
      <trkpt lat="42.936986982822418" lon="-2.610472999513149">
        <ele>551.20000000000005</ele>
        <time>2019-06-23T10:12:47Z</time>
      </trkpt>
      <trkpt lat="42.936976002529263" lon="-2.610577018931508">
        <ele>551.20000000000005</ele>
        <time>2019-06-23T10:12:48Z</time>
      </trkpt>
      <trkpt lat="42.936977008357644" lon="-2.610682966187596">
        <ele>551.20000000000005</ele>
        <time>2019-06-23T10:12:49Z</time>
      </trkpt>
      <trkpt lat="42.936993017792702" lon="-2.610787991434336">
        <ele>551.39999999999998</ele>
        <time>2019-06-23T10:12:50Z</time>
      </trkpt>
      <trkpt lat="42.937021013349295" lon="-2.610889999195933">
        <ele>551.39999999999998</ele>
        <time>2019-06-23T10:12:51Z</time>
      </trkpt>
      <trkpt lat="42.937062000855803" lon="-2.610984966158867">
        <ele>551.60000000000002</ele>
        <time>2019-06-23T10:12:52Z</time>
      </trkpt>
      <trkpt lat="42.937112040817738" lon="-2.61107599362731">
        <ele>551.60000000000002</ele>
        <time>2019-06-23T10:12:53Z</time>
      </trkpt>
      <trkpt lat="42.937169037759304" lon="-2.61116299778223">
        <ele>551.60000000000002</ele>
        <time>2019-06-23T10:12:54Z</time>
      </trkpt>
      <trkpt lat="42.937287976965308" lon="-2.61133499443531">
        <ele>551.60000000000002</ele>
        <time>2019-06-23T10:12:56Z</time>
      </trkpt>
      <trkpt lat="42.937413034960628" lon="-2.61150699108839">
        <ele>551.39999999999998</ele>
        <time>2019-06-23T10:12:58Z</time>
      </trkpt>
      <trkpt lat="42.937535997480154" lon="-2.611682005226612">
        <ele>551.39999999999998</ele>
        <time>2019-06-23T10:13:00Z</time>
      </trkpt>
      <trkpt lat="42.937657032161951" lon="-2.611855007708073">
        <ele>551</ele>
        <time>2019-06-23T10:13:02Z</time>
      </trkpt>
      <trkpt lat="42.937774965539575" lon="-2.612023986876011">
        <ele>550.79999999999995</ele>
        <time>2019-06-23T10:13:04Z</time>
      </trkpt>
      <trkpt lat="42.937889965251088" lon="-2.61219103820622">
        <ele>550.79999999999995</ele>
        <time>2019-06-23T10:13:06Z</time>
      </trkpt>
      <trkpt lat="42.937946040183306" lon="-2.612274019047618">
        <ele>550.79999999999995</ele>
        <time>2019-06-23T10:13:07Z</time>
      </trkpt>
      <trkpt lat="42.938003037124872" lon="-2.612355994060636">
        <ele>550.79999999999995</ele>
        <time>2019-06-23T10:13:08Z</time>
      </trkpt>
      <trkpt lat="42.938116025179625" lon="-2.612519022077322">
        <ele>551</ele>
        <time>2019-06-23T10:13:10Z</time>
      </trkpt>
      <trkpt lat="42.93817101046443" lon="-2.612599991261959">
        <ele>551</ele>
        <time>2019-06-23T10:13:11Z</time>
      </trkpt>
      <trkpt lat="42.938223984092474" lon="-2.612682972103357">
        <ele>550.79999999999995</ele>
        <time>2019-06-23T10:13:12Z</time>
      </trkpt>
      <trkpt lat="42.93832398019731" lon="-2.612851029261947">
        <ele>551</ele>
        <time>2019-06-23T10:13:14Z</time>
      </trkpt>
      <trkpt lat="42.938405033200979" lon="-2.613025037571788">
        <ele>551.39999999999998</ele>
        <time>2019-06-23T10:13:16Z</time>
      </trkpt>
      <trkpt lat="42.938437974080443" lon="-2.613115981221199">
        <ele>551.79999999999995</ele>
        <time>2019-06-23T10:13:17Z</time>
      </trkpt>
      <trkpt lat="42.938469992950559" lon="-2.613207008689642">
        <ele>552</ele>
        <time>2019-06-23T10:13:18Z</time>
      </trkpt>
      <trkpt lat="42.938532019034028" lon="-2.613389985635877">
        <ele>552.20000000000005</ele>
        <time>2019-06-23T10:13:20Z</time>
      </trkpt>
      <trkpt lat="42.938597984611988" lon="-2.613573968410492">
        <ele>552.60000000000002</ele>
        <time>2019-06-23T10:13:22Z</time>
      </trkpt>
      <trkpt lat="42.938669985160232" lon="-2.613756023347378">
        <ele>552.79999999999995</ele>
        <time>2019-06-23T10:13:24Z</time>
      </trkpt>
      <trkpt lat="42.93871097266674" lon="-2.613846966996789">
        <ele>553</ele>
        <time>2019-06-23T10:13:25Z</time>
      </trkpt>
      <trkpt lat="42.938756989315152" lon="-2.61393497698009">
        <ele>553.20000000000005</ele>
        <time>2019-06-23T10:13:26Z</time>
      </trkpt>
      <trkpt lat="42.938808035105467" lon="-2.61401804164052">
        <ele>553.20000000000005</ele>
        <time>2019-06-23T10:13:27Z</time>
      </trkpt>
      <trkpt lat="42.938862014561892" lon="-2.614100016653538">
        <ele>553.20000000000005</ele>
        <time>2019-06-23T10:13:28Z</time>
      </trkpt>
      <trkpt lat="42.938972990959883" lon="-2.614262960851193">
        <ele>553.20000000000005</ele>
        <time>2019-06-23T10:13:30Z</time>
      </trkpt>
      <trkpt lat="42.939090002328157" lon="-2.614434035494924">
        <ele>553.39999999999998</ele>
        <time>2019-06-23T10:13:32Z</time>
      </trkpt>
      <trkpt lat="42.939150016754866" lon="-2.614522967487574">
        <ele>553.39999999999998</ele>
        <time>2019-06-23T10:13:33Z</time>
      </trkpt>
      <trkpt lat="42.939211037009954" lon="-2.614612989127636">
        <ele>553.39999999999998</ele>
        <time>2019-06-23T10:13:34Z</time>
      </trkpt>
      <trkpt lat="42.939333999529481" lon="-2.614794038236141">
        <ele>553.39999999999998</ele>
        <time>2019-06-23T10:13:36Z</time>
      </trkpt>
      <trkpt lat="42.939459979534149" lon="-2.614979026839137">
        <ele>553.20000000000005</ele>
        <time>2019-06-23T10:13:38Z</time>
      </trkpt>
      <trkpt lat="42.939582020044327" lon="-2.615170972421765">
        <ele>553</ele>
        <time>2019-06-23T10:13:40Z</time>
      </trkpt>
      <trkpt lat="42.93963398784399" lon="-2.615273986011744">
        <ele>552.60000000000002</ele>
        <time>2019-06-23T10:13:41Z</time>
      </trkpt>
      <trkpt lat="42.939674975350499" lon="-2.615382028743625">
        <ele>552.20000000000005</ele>
        <time>2019-06-23T10:13:42Z</time>
      </trkpt>
      <trkpt lat="42.939700037240982" lon="-2.615495016798377">
        <ele>552</ele>
        <time>2019-06-23T10:13:43Z</time>
      </trkpt>
      <trkpt lat="42.939714035019279" lon="-2.615606999024749">
        <ele>552</ele>
        <time>2019-06-23T10:13:44Z</time>
      </trkpt>
      <trkpt lat="42.939715040847659" lon="-2.615715963765979">
        <ele>551.79999999999995</ele>
        <time>2019-06-23T10:13:45Z</time>
      </trkpt>
      <trkpt lat="42.939703976735473" lon="-2.615820989012718">
        <ele>551.79999999999995</ele>
        <time>2019-06-23T10:13:46Z</time>
      </trkpt>
      <trkpt lat="42.939684027805924" lon="-2.615916961804032">
        <ele>551.39999999999998</ele>
        <time>2019-06-23T10:13:47Z</time>
      </trkpt>
      <trkpt lat="42.93965402059257" lon="-2.616007989272475">
        <ele>551.39999999999998</ele>
        <time>2019-06-23T10:13:48Z</time>
      </trkpt>
      <trkpt lat="42.939616972580552" lon="-2.616092981770635">
        <ele>551.39999999999998</ele>
        <time>2019-06-23T10:13:49Z</time>
      </trkpt>
      <trkpt lat="42.939572967588902" lon="-2.616174034774303">
        <ele>551.39999999999998</ele>
        <time>2019-06-23T10:13:50Z</time>
      </trkpt>
      <trkpt lat="42.939523011445999" lon="-2.616245029494166">
        <ele>551.39999999999998</ele>
        <time>2019-06-23T10:13:51Z</time>
      </trkpt>
      <trkpt lat="42.939470037817955" lon="-2.616310995072126">
        <ele>551.60000000000002</ele>
        <time>2019-06-23T10:13:52Z</time>
      </trkpt>
      <trkpt lat="42.939414968714118" lon="-2.616376038640738">
        <ele>551.79999999999995</ele>
        <time>2019-06-23T10:13:53Z</time>
      </trkpt>
      <trkpt lat="42.939359983429313" lon="-2.616439992561936">
        <ele>551.79999999999995</ele>
        <time>2019-06-23T10:13:54Z</time>
      </trkpt>
      <trkpt lat="42.939252024516463" lon="-2.616563960909843">
        <ele>552.60000000000002</ele>
        <time>2019-06-23T10:13:56Z</time>
      </trkpt>
      <trkpt lat="42.93920399621129" lon="-2.616631016135216">
        <ele>553</ele>
        <time>2019-06-23T10:13:57Z</time>
      </trkpt>
      <trkpt lat="42.939157979562879" lon="-2.616701005026698">
        <ele>553</ele>
        <time>2019-06-23T10:13:58Z</time>
      </trkpt>
      <trkpt lat="42.939109029248357" lon="-2.616771999746561">
        <ele>553.39999999999998</ele>
        <time>2019-06-23T10:13:59Z</time>
      </trkpt>
      <trkpt lat="42.939063012599945" lon="-2.616845006123185">
        <ele>553.60000000000002</ele>
        <time>2019-06-23T10:14:00Z</time>
      </trkpt>
      <trkpt lat="42.939022025093436" lon="-2.616921029984951">
        <ele>553.79999999999995</ele>
        <time>2019-06-23T10:14:01Z</time>
      </trkpt>
      <trkpt lat="42.938983971253037" lon="-2.617001999169588">
        <ele>554</ele>
        <time>2019-06-23T10:14:02Z</time>
      </trkpt>
      <trkpt lat="42.938952036201954" lon="-2.617089003324509">
        <ele>554.20000000000005</ele>
        <time>2019-06-23T10:14:03Z</time>
      </trkpt>
      <trkpt lat="42.938926974311471" lon="-2.617180030792952">
        <ele>554.39999999999998</ele>
        <time>2019-06-23T10:14:04Z</time>
      </trkpt>
      <trkpt lat="42.938907025381923" lon="-2.617276003584266">
        <ele>554.39999999999998</ele>
        <time>2019-06-23T10:14:05Z</time>
      </trkpt>
      <trkpt lat="42.938887998461723" lon="-2.617378011345863">
        <ele>554.60000000000002</ele>
        <time>2019-06-23T10:14:06Z</time>
      </trkpt>
      <trkpt lat="42.938868971541524" lon="-2.617483036592603">
        <ele>554.60000000000002</ele>
        <time>2019-06-23T10:14:07Z</time>
      </trkpt>
      <trkpt lat="42.938849022611976" lon="-2.617593007162213">
        <ele>554.39999999999998</ele>
        <time>2019-06-23T10:14:08Z</time>
      </trkpt>
      <trkpt lat="42.938831001520157" lon="-2.617703983560205">
        <ele>554.60000000000002</ele>
        <time>2019-06-23T10:14:09Z</time>
      </trkpt>
      <trkpt lat="42.938810968771577" lon="-2.617816971614957">
        <ele>554.60000000000002</ele>
        <time>2019-06-23T10:14:10Z</time>
      </trkpt>
      <trkpt lat="42.938771992921829" lon="-2.618041019886732">
        <ele>554.39999999999998</ele>
        <time>2019-06-23T10:14:12Z</time>
      </trkpt>
      <trkpt lat="42.938751960173249" lon="-2.618153002113104">
        <ele>554.39999999999998</ele>
        <time>2019-06-23T10:14:13Z</time>
      </trkpt>
      <trkpt lat="42.938733017072082" lon="-2.618262972682715">
        <ele>554.60000000000002</ele>
        <time>2019-06-23T10:14:14Z</time>
      </trkpt>
      <trkpt lat="42.938712984323502" lon="-2.618372021242976">
        <ele>554.60000000000002</ele>
        <time>2019-06-23T10:14:15Z</time>
      </trkpt>
      <trkpt lat="42.938694041222334" lon="-2.618477968499064">
        <ele>554.39999999999998</ele>
        <time>2019-06-23T10:14:16Z</time>
      </trkpt>
      <trkpt lat="42.938655987381935" lon="-2.618688018992543">
        <ele>554.20000000000005</ele>
        <time>2019-06-23T10:14:18Z</time>
      </trkpt>
      <trkpt lat="42.938631009310484" lon="-2.618902008980513">
        <ele>554.39999999999998</ele>
        <time>2019-06-23T10:14:20Z</time>
      </trkpt>
      <trkpt lat="42.938632015138865" lon="-2.619008962064982">
        <ele>554.20000000000005</ele>
        <time>2019-06-23T10:14:21Z</time>
      </trkpt>
      <trkpt lat="42.93864500708878" lon="-2.619114993140101">
        <ele>554.20000000000005</ele>
        <time>2019-06-23T10:14:22Z</time>
      </trkpt>
      <trkpt lat="42.938671996816993" lon="-2.61921800673008">
        <ele>554.20000000000005</ele>
        <time>2019-06-23T10:14:23Z</time>
      </trkpt>
      <trkpt lat="42.93870803900063" lon="-2.619315991178155">
        <ele>554.20000000000005</ele>
        <time>2019-06-23T10:14:24Z</time>
      </trkpt>
      <trkpt lat="42.938747014850378" lon="-2.61941296979785">
        <ele>554.20000000000005</ele>
        <time>2019-06-23T10:14:25Z</time>
      </trkpt>
      <trkpt lat="42.938784984871745" lon="-2.619509026408196">
        <ele>554.20000000000005</ele>
        <time>2019-06-23T10:14:26Z</time>
      </trkpt>
      <trkpt lat="42.938818009570241" lon="-2.619609022513032">
        <ele>554.20000000000005</ele>
        <time>2019-06-23T10:14:27Z</time>
      </trkpt>
      <trkpt lat="42.93883896432817" lon="-2.61971496976912">
        <ele>554.60000000000002</ele>
        <time>2019-06-23T10:14:28Z</time>
      </trkpt>
      <trkpt lat="42.938848016783595" lon="-2.619826029986143">
        <ele>554.79999999999995</ele>
        <time>2019-06-23T10:14:29Z</time>
      </trkpt>
      <trkpt lat="42.938843993470073" lon="-2.619939018040896">
        <ele>555</ele>
        <time>2019-06-23T10:14:30Z</time>
      </trkpt>
      <trkpt lat="42.938824966549873" lon="-2.620052006095648">
        <ele>555</ele>
        <time>2019-06-23T10:14:31Z</time>
      </trkpt>
      <trkpt lat="42.938797976821661" lon="-2.620160970836878">
        <ele>554.79999999999995</ele>
        <time>2019-06-23T10:14:32Z</time>
      </trkpt>
      <trkpt lat="42.938728993758559" lon="-2.620369009673595">
        <ele>554.79999999999995</ele>
        <time>2019-06-23T10:14:34Z</time>
      </trkpt>
      <trkpt lat="42.938691023737192" lon="-2.620463976636529">
        <ele>554.60000000000002</ele>
        <time>2019-06-23T10:14:35Z</time>
      </trkpt>
      <trkpt lat="42.938653975725174" lon="-2.620557015761733">
        <ele>554.60000000000002</ele>
        <time>2019-06-23T10:14:36Z</time>
      </trkpt>
      <trkpt lat="42.938616005703807" lon="-2.620646031573415">
        <ele>554.79999999999995</ele>
        <time>2019-06-23T10:14:37Z</time>
      </trkpt>
      <trkpt lat="42.93858096934855" lon="-2.620734041556716">
        <ele>554.79999999999995</ele>
        <time>2019-06-23T10:14:38Z</time>
      </trkpt>
      <trkpt lat="42.938507962971926" lon="-2.620907966047525">
        <ele>555</ele>
        <time>2019-06-23T10:14:40Z</time>
      </trkpt>
      <trkpt lat="42.9384730104357" lon="-2.620995976030827">
        <ele>555</ele>
        <time>2019-06-23T10:14:41Z</time>
      </trkpt>
      <trkpt lat="42.938435040414333" lon="-2.621081974357367">
        <ele>554.79999999999995</ele>
        <time>2019-06-23T10:14:42Z</time>
      </trkpt>
      <trkpt lat="42.938395980745554" lon="-2.621171995997429">
        <ele>555</ele>
        <time>2019-06-23T10:14:43Z</time>
      </trkpt>
      <trkpt lat="42.938358010724187" lon="-2.621263023465872">
        <ele>555</ele>
        <time>2019-06-23T10:14:44Z</time>
      </trkpt>
      <trkpt lat="42.938281986862421" lon="-2.621449017897248">
        <ele>555</ele>
        <time>2019-06-23T10:14:46Z</time>
      </trkpt>
      <trkpt lat="42.938198000192642" lon="-2.621638029813767">
        <ele>555.39999999999998</ele>
        <time>2019-06-23T10:14:48Z</time>
      </trkpt>
      <trkpt lat="42.938098004087806" lon="-2.621814971789718">
        <ele>556</ele>
        <time>2019-06-23T10:14:50Z</time>
      </trkpt>
      <trkpt lat="42.938036983832717" lon="-2.621892001479864">
        <ele>556.20000000000005</ele>
        <time>2019-06-23T10:14:51Z</time>
      </trkpt>
      <trkpt lat="42.937966994941235" lon="-2.621966013684869">
        <ele>556.20000000000005</ele>
        <time>2019-06-23T10:14:52Z</time>
      </trkpt>
      <trkpt lat="42.937888959422708" lon="-2.622032985091209">
        <ele>556.20000000000005</ele>
        <time>2019-06-23T10:14:53Z</time>
      </trkpt>
      <trkpt lat="42.937808996066451" lon="-2.622098028659821">
        <ele>556.20000000000005</ele>
        <time>2019-06-23T10:14:54Z</time>
      </trkpt>
      <trkpt lat="42.937648985534906" lon="-2.622225014492869">
        <ele>556.39999999999998</ele>
        <time>2019-06-23T10:14:56Z</time>
      </trkpt>
      <trkpt lat="42.937492998316884" lon="-2.622349988669157">
        <ele>556.20000000000005</ele>
        <time>2019-06-23T10:14:58Z</time>
      </trkpt>
      <trkpt lat="42.937345979735255" lon="-2.622478986158967">
        <ele>556</ele>
        <time>2019-06-23T10:15:00Z</time>
      </trkpt>
      <trkpt lat="42.937275990843773" lon="-2.622545035555959">
        <ele>555.20000000000005</ele>
        <time>2019-06-23T10:15:01Z</time>
      </trkpt>
      <trkpt lat="42.937206001952291" lon="-2.62261301279068">
        <ele>555</ele>
        <time>2019-06-23T10:15:02Z</time>
      </trkpt>
      <trkpt lat="42.937070969492197" lon="-2.622746033594012">
        <ele>554.39999999999998</ele>
        <time>2019-06-23T10:15:04Z</time>
      </trkpt>
      <trkpt lat="42.936936020851135" lon="-2.622877964749932">
        <ele>554</ele>
        <time>2019-06-23T10:15:06Z</time>
      </trkpt>
      <trkpt lat="42.936866031959653" lon="-2.62293697334826">
        <ele>554</ele>
        <time>2019-06-23T10:15:07Z</time>
      </trkpt>
      <trkpt lat="42.936794031411409" lon="-2.622989024966955">
        <ele>554</ele>
        <time>2019-06-23T10:15:08Z</time>
      </trkpt>
      <trkpt lat="42.936717001721263" lon="-2.623035041615367">
        <ele>554</ele>
        <time>2019-06-23T10:15:09Z</time>
      </trkpt>
      <trkpt lat="42.936637038365006" lon="-2.623077034950256">
        <ele>554</ele>
        <time>2019-06-23T10:15:10Z</time>
      </trkpt>
      <trkpt lat="42.936555985361338" lon="-2.623116010800004">
        <ele>554</ele>
        <time>2019-06-23T10:15:11Z</time>
      </trkpt>
      <trkpt lat="42.93647401034832" lon="-2.623147023841739">
        <ele>554</ele>
        <time>2019-06-23T10:15:12Z</time>
      </trkpt>
      <trkpt lat="42.936393041163683" lon="-2.623169990256429">
        <ele>554</ele>
        <time>2019-06-23T10:15:13Z</time>
      </trkpt>
      <trkpt lat="42.936311988160014" lon="-2.623187005519867">
        <ele>554</ele>
        <time>2019-06-23T10:15:14Z</time>
      </trkpt>
      <trkpt lat="42.936150971800089" lon="-2.623213995248079">
        <ele>554.20000000000005</ele>
        <time>2019-06-23T10:15:16Z</time>
      </trkpt>
      <trkpt lat="42.935991967096925" lon="-2.623231010511518">
        <ele>554.20000000000005</ele>
        <time>2019-06-23T10:15:18Z</time>
      </trkpt>
      <trkpt lat="42.935835979878902" lon="-2.623246014118195">
        <ele>554.60000000000002</ele>
        <time>2019-06-23T10:15:20Z</time>
      </trkpt>
      <trkpt lat="42.9356789868325" lon="-2.623255988582969">
        <ele>554.60000000000002</ele>
        <time>2019-06-23T10:15:22Z</time>
      </trkpt>
      <trkpt lat="42.935524005442858" lon="-2.623268980532885">
        <ele>554.79999999999995</ele>
        <time>2019-06-23T10:15:24Z</time>
      </trkpt>
      <trkpt lat="42.935370029881597" lon="-2.623273003846407">
        <ele>555</ele>
        <time>2019-06-23T10:15:26Z</time>
      </trkpt>
      <trkpt lat="42.935216976329684" lon="-2.62327803298831">
        <ele>554.79999999999995</ele>
        <time>2019-06-23T10:15:28Z</time>
      </trkpt>
      <trkpt lat="42.935141958296299" lon="-2.623281972482801">
        <ele>555</ele>
        <time>2019-06-23T10:15:29Z</time>
      </trkpt>
      <trkpt lat="42.935068029910326" lon="-2.623288007453084">
        <ele>555.20000000000005</ele>
        <time>2019-06-23T10:15:30Z</time>
      </trkpt>
      <trkpt lat="42.934923022985458" lon="-2.623299993574619">
        <ele>555.39999999999998</ele>
        <time>2019-06-23T10:15:32Z</time>
      </trkpt>
      <trkpt lat="42.934851022437215" lon="-2.623299993574619">
        <ele>555.60000000000002</ele>
        <time>2019-06-23T10:15:33Z</time>
      </trkpt>
      <trkpt lat="42.934778016060591" lon="-2.623296976089478">
        <ele>555.79999999999995</ele>
        <time>2019-06-23T10:15:34Z</time>
      </trkpt>
      <trkpt lat="42.934632003307343" lon="-2.623293958604336">
        <ele>556</ele>
        <time>2019-06-23T10:15:36Z</time>
      </trkpt>
      <trkpt lat="42.934484984725714" lon="-2.623291024938226">
        <ele>556.79999999999995</ele>
        <time>2019-06-23T10:15:38Z</time>
      </trkpt>
      <trkpt lat="42.93441197834909" lon="-2.623287001624703">
        <ele>557</ele>
        <time>2019-06-23T10:15:39Z</time>
      </trkpt>
      <trkpt lat="42.934338971972466" lon="-2.623281972482801">
        <ele>557.39999999999998</ele>
        <time>2019-06-23T10:15:40Z</time>
      </trkpt>
      <trkpt lat="42.934192959219217" lon="-2.623267974704504">
        <ele>557.79999999999995</ele>
        <time>2019-06-23T10:15:42Z</time>
      </trkpt>
      <trkpt lat="42.934047030285001" lon="-2.623247019946575">
        <ele>558</ele>
        <time>2019-06-23T10:15:44Z</time>
      </trkpt>
      <trkpt lat="42.933898000046611" lon="-2.623220030218363">
        <ele>558.39999999999998</ele>
        <time>2019-06-23T10:15:46Z</time>
      </trkpt>
      <trkpt lat="42.933749975636601" lon="-2.623178958892822">
        <ele>558.60000000000002</ele>
        <time>2019-06-23T10:15:48Z</time>
      </trkpt>
      <trkpt lat="42.933676969259977" lon="-2.623147023841739">
        <ele>559</ele>
        <time>2019-06-23T10:15:49Z</time>
      </trkpt>
      <trkpt lat="42.933605974540114" lon="-2.62310603633523">
        <ele>559.39999999999998</ele>
        <time>2019-06-23T10:15:50Z</time>
      </trkpt>
      <trkpt lat="42.933534979820251" lon="-2.623061025515199">
        <ele>559.60000000000002</ele>
        <time>2019-06-23T10:15:51Z</time>
      </trkpt>
      <trkpt lat="42.933462979272008" lon="-2.623015008866787">
        <ele>559.79999999999995</ele>
        <time>2019-06-23T10:15:52Z</time>
      </trkpt>
      <trkpt lat="42.933389972895384" lon="-2.622968992218375">
        <ele>559.79999999999995</ele>
        <time>2019-06-23T10:15:53Z</time>
      </trkpt>
      <trkpt lat="42.93331503868103" lon="-2.622924987226725">
        <ele>559.79999999999995</ele>
        <time>2019-06-23T10:15:54Z</time>
      </trkpt>
      <trkpt lat="42.933238008990884" lon="-2.622880982235074">
        <ele>559.79999999999995</ele>
        <time>2019-06-23T10:15:55Z</time>
      </trkpt>
      <trkpt lat="42.933159973472357" lon="-2.622839994728565">
        <ele>560</ele>
        <time>2019-06-23T10:15:56Z</time>
      </trkpt>
      <trkpt lat="42.932997029274702" lon="-2.622759025543928">
        <ele>559.79999999999995</ele>
        <time>2019-06-23T10:15:58Z</time>
      </trkpt>
      <trkpt lat="42.932911030948162" lon="-2.622719965875149">
        <ele>559.39999999999998</ele>
        <time>2019-06-23T10:15:59Z</time>
      </trkpt>
      <trkpt lat="42.93282201513648" lon="-2.622676966711879">
        <ele>558.79999999999995</ele>
        <time>2019-06-23T10:16:00Z</time>
      </trkpt>
      <trkpt lat="42.932730987668037" lon="-2.622633967548609">
        <ele>558.20000000000005</ele>
        <time>2019-06-23T10:16:01Z</time>
      </trkpt>
      <trkpt lat="42.932638032361865" lon="-2.622590968385339">
        <ele>557.60000000000002</ele>
        <time>2019-06-23T10:16:02Z</time>
      </trkpt>
      <trkpt lat="42.932455977424979" lon="-2.622490972280502">
        <ele>556.20000000000005</ele>
        <time>2019-06-23T10:16:04Z</time>
      </trkpt>
      <trkpt lat="42.932369979098439" lon="-2.622419977560639">
        <ele>555.60000000000002</ele>
        <time>2019-06-23T10:16:05Z</time>
      </trkpt>
      <trkpt lat="42.932290015742183" lon="-2.622340014204383">
        <ele>555.39999999999998</ele>
        <time>2019-06-23T10:16:06Z</time>
      </trkpt>
      <trkpt lat="42.93213696219027" lon="-2.622167011722922">
        <ele>555</ele>
        <time>2019-06-23T10:16:08Z</time>
      </trkpt>
      <trkpt lat="42.931990027427673" lon="-2.621982023119927">
        <ele>554.79999999999995</ele>
        <time>2019-06-23T10:16:10Z</time>
      </trkpt>
      <trkpt lat="42.931859018281102" lon="-2.621773984283209">
        <ele>554.60000000000002</ele>
        <time>2019-06-23T10:16:12Z</time>
      </trkpt>
      <trkpt lat="42.931735971942544" lon="-2.62156100012362">
        <ele>554.39999999999998</ele>
        <time>2019-06-23T10:16:14Z</time>
      </trkpt>
      <trkpt lat="42.931675035506487" lon="-2.621455974876881">
        <ele>554.20000000000005</ele>
        <time>2019-06-23T10:16:15Z</time>
      </trkpt>
      <trkpt lat="42.931612003594637" lon="-2.621353967115283">
        <ele>554.20000000000005</ele>
        <time>2019-06-23T10:16:16Z</time>
      </trkpt>
      <trkpt lat="42.931546038016677" lon="-2.621256988495588">
        <ele>554.20000000000005</ele>
        <time>2019-06-23T10:16:17Z</time>
      </trkpt>
      <trkpt lat="42.931477976962924" lon="-2.621166966855526">
        <ele>554.20000000000005</ele>
        <time>2019-06-23T10:16:18Z</time>
      </trkpt>
      <trkpt lat="42.931409999728203" lon="-2.621084991842508">
        <ele>554.39999999999998</ele>
        <time>2019-06-23T10:16:19Z</time>
      </trkpt>
      <trkpt lat="42.931341016665101" lon="-2.621007962152362">
        <ele>554.20000000000005</ele>
        <time>2019-06-23T10:16:20Z</time>
      </trkpt>
      <trkpt lat="42.931201038882136" lon="-2.620877036824822">
        <ele>554.60000000000002</ele>
        <time>2019-06-23T10:16:22Z</time>
      </trkpt>
      <trkpt lat="42.931051002815366" lon="-2.620794977992773">
        <ele>555</ele>
        <time>2019-06-23T10:16:24Z</time>
      </trkpt>
      <trkpt lat="42.930894009768963" lon="-2.62078600935638">
        <ele>555.20000000000005</ele>
        <time>2019-06-23T10:16:26Z</time>
      </trkpt>
      <trkpt lat="42.930815974250436" lon="-2.620814004912973">
        <ele>555.60000000000002</ele>
        <time>2019-06-23T10:16:27Z</time>
      </trkpt>
      <trkpt lat="42.930742967873812" lon="-2.620857004076242">
        <ele>556.20000000000005</ele>
        <time>2019-06-23T10:16:28Z</time>
      </trkpt>
      <trkpt lat="42.930670967325568" lon="-2.620911989361048">
        <ele>556.60000000000002</ele>
        <time>2019-06-23T10:16:29Z</time>
      </trkpt>
      <trkpt lat="42.930602990090847" lon="-2.62097803875804">
        <ele>556.60000000000002</ele>
        <time>2019-06-23T10:16:30Z</time>
      </trkpt>
      <trkpt lat="42.930537024512887" lon="-2.621054984629154">
        <ele>556.79999999999995</ele>
        <time>2019-06-23T10:16:31Z</time>
      </trkpt>
      <trkpt lat="42.930466029793024" lon="-2.621132014319301">
        <ele>556.79999999999995</ele>
        <time>2019-06-23T10:16:32Z</time>
      </trkpt>
      <trkpt lat="42.930385982617736" lon="-2.621203009039164">
        <ele>556.79999999999995</ele>
        <time>2019-06-23T10:16:33Z</time>
      </trkpt>
      <trkpt lat="42.930295038968325" lon="-2.62125900015235">
        <ele>556.79999999999995</ele>
        <time>2019-06-23T10:16:34Z</time>
      </trkpt>
      <trkpt lat="42.930193031206727" lon="-2.621298981830478">
        <ele>556.79999999999995</ele>
        <time>2019-06-23T10:16:35Z</time>
      </trkpt>
      <trkpt lat="42.930085994303226" lon="-2.621319014579058">
        <ele>556.79999999999995</ele>
        <time>2019-06-23T10:16:36Z</time>
      </trkpt>
      <trkpt lat="42.929979041218758" lon="-2.621311973780394">
        <ele>556.60000000000002</ele>
        <time>2019-06-23T10:16:37Z</time>
      </trkpt>
      <trkpt lat="42.929870998486876" lon="-2.621275009587407">
        <ele>556.39999999999998</ele>
        <time>2019-06-23T10:16:38Z</time>
      </trkpt>
      <trkpt lat="42.929768990725279" lon="-2.621202003210783">
        <ele>556.39999999999998</ele>
        <time>2019-06-23T10:16:39Z</time>
      </trkpt>
      <trkpt lat="42.929683998227119" lon="-2.621101001277566">
        <ele>556</ele>
        <time>2019-06-23T10:16:40Z</time>
      </trkpt>
      <trkpt lat="42.929611997678876" lon="-2.620987007394433">
        <ele>555.79999999999995</ele>
        <time>2019-06-23T10:16:41Z</time>
      </trkpt>
      <trkpt lat="42.929549971595407" lon="-2.620865972712636">
        <ele>555.39999999999998</ele>
        <time>2019-06-23T10:16:42Z</time>
      </trkpt>
      <trkpt lat="42.929440001025796" lon="-2.620619963854551">
        <ele>555</ele>
        <time>2019-06-23T10:16:44Z</time>
      </trkpt>
      <trkpt lat="42.929337993264198" lon="-2.62037898413837">
        <ele>554</ele>
        <time>2019-06-23T10:16:46Z</time>
      </trkpt>
      <trkpt lat="42.92923497967422" lon="-2.620146973058581">
        <ele>554</ele>
        <time>2019-06-23T10:16:48Z</time>
      </trkpt>
      <trkpt lat="42.929173959419131" lon="-2.620043037459254">
        <ele>554</ele>
        <time>2019-06-23T10:16:49Z</time>
      </trkpt>
      <trkpt lat="42.929103970527649" lon="-2.619955027475953">
        <ele>554</ele>
        <time>2019-06-23T10:16:50Z</time>
      </trkpt>
      <trkpt lat="42.929024007171392" lon="-2.61988403275609">
        <ele>554</ele>
        <time>2019-06-23T10:16:51Z</time>
      </trkpt>
      <trkpt lat="42.928935997188091" lon="-2.619829969480634">
        <ele>554</ele>
        <time>2019-06-23T10:16:52Z</time>
      </trkpt>
      <trkpt lat="42.928843041881919" lon="-2.619793005287647">
        <ele>553.79999999999995</ele>
        <time>2019-06-23T10:16:53Z</time>
      </trkpt>
      <trkpt lat="42.928747991099954" lon="-2.619771966710687">
        <ele>554</ele>
        <time>2019-06-23T10:16:54Z</time>
      </trkpt>
      <trkpt lat="42.928550010547042" lon="-2.619758974760771">
        <ele>553.79999999999995</ele>
        <time>2019-06-23T10:16:56Z</time>
      </trkpt>
      <trkpt lat="42.928348006680608" lon="-2.619761992245913">
        <ele>554.20000000000005</ele>
        <time>2019-06-23T10:16:58Z</time>
      </trkpt>
      <trkpt lat="42.928248010575771" lon="-2.619770960882306">
        <ele>554.39999999999998</ele>
        <time>2019-06-23T10:16:59Z</time>
      </trkpt>
      <trkpt lat="42.928147008642554" lon="-2.619793005287647">
        <ele>554.39999999999998</ele>
        <time>2019-06-23T10:17:00Z</time>
      </trkpt>
      <trkpt lat="42.927946010604501" lon="-2.619871040806174">
        <ele>554.20000000000005</ele>
        <time>2019-06-23T10:17:02Z</time>
      </trkpt>
      <trkpt lat="42.927841991186142" lon="-2.619917979463935">
        <ele>554</ele>
        <time>2019-06-23T10:17:03Z</time>
      </trkpt>
      <trkpt lat="42.927735038101673" lon="-2.619966007769108">
        <ele>554</ele>
        <time>2019-06-23T10:17:04Z</time>
      </trkpt>
      <trkpt lat="42.927626995369792" lon="-2.620014036074281">
        <ele>553.79999999999995</ele>
        <time>2019-06-23T10:17:05Z</time>
      </trkpt>
      <trkpt lat="42.927518030628562" lon="-2.620064998045564">
        <ele>553.60000000000002</ele>
        <time>2019-06-23T10:17:06Z</time>
      </trkpt>
      <trkpt lat="42.927411999553442" lon="-2.62012199498713">
        <ele>553.60000000000002</ele>
        <time>2019-06-23T10:17:07Z</time>
      </trkpt>
      <trkpt lat="42.927314015105367" lon="-2.620193995535374">
        <ele>553.20000000000005</ele>
        <time>2019-06-23T10:17:08Z</time>
      </trkpt>
      <trkpt lat="42.927233967930079" lon="-2.620296003296971">
        <ele>552.79999999999995</ele>
        <time>2019-06-23T10:17:09Z</time>
      </trkpt>
      <trkpt lat="42.927185017615557" lon="-2.620430029928684">
        <ele>552.60000000000002</ele>
        <time>2019-06-23T10:17:10Z</time>
      </trkpt>
      <trkpt lat="42.927137995138764" lon="-2.620738986879587">
        <ele>550.79999999999995</ele>
        <time>2019-06-23T10:17:12Z</time>
      </trkpt>
      <trkpt lat="42.927101030945778" lon="-2.62089497409761">
        <ele>550.39999999999998</ele>
        <time>2019-06-23T10:17:13Z</time>
      </trkpt>
      <trkpt lat="42.927039004862309" lon="-2.621037969365716">
        <ele>549</ele>
        <time>2019-06-23T10:17:14Z</time>
      </trkpt>
      <trkpt lat="42.926947977393866" lon="-2.621156992390752">
        <ele>548.79999999999995</ele>
        <time>2019-06-23T10:17:15Z</time>
      </trkpt>
      <trkpt lat="42.926840018481016" lon="-2.621235027909279">
        <ele>547.79999999999995</ele>
        <time>2019-06-23T10:17:16Z</time>
      </trkpt>
      <trkpt lat="42.926723007112741" lon="-2.621261011809111">
        <ele>547.39999999999998</ele>
        <time>2019-06-23T10:17:17Z</time>
      </trkpt>
      <trkpt lat="42.92661203071475" lon="-2.621240979060531">
        <ele>546.79999999999995</ele>
        <time>2019-06-23T10:17:18Z</time>
      </trkpt>
      <trkpt lat="42.926512034609914" lon="-2.621175013482571">
        <ele>546.60000000000002</ele>
        <time>2019-06-23T10:17:19Z</time>
      </trkpt>
      <trkpt lat="42.926427964121103" lon="-2.62106697075069">
        <ele>546.39999999999998</ele>
        <time>2019-06-23T10:17:20Z</time>
      </trkpt>
      <trkpt lat="42.926358981058002" lon="-2.620927998796105">
        <ele>546.20000000000005</ele>
        <time>2019-06-23T10:17:21Z</time>
      </trkpt>
      <trkpt lat="42.926297960802913" lon="-2.620773017406464">
        <ele>546</ele>
        <time>2019-06-23T10:17:22Z</time>
      </trkpt>
      <trkpt lat="42.926179021596909" lon="-2.62044201605022">
        <ele>545.60000000000002</ele>
        <time>2019-06-23T10:17:24Z</time>
      </trkpt>
      <trkpt lat="42.9261190071702" lon="-2.62027395889163">
        <ele>545</ele>
        <time>2019-06-23T10:17:25Z</time>
      </trkpt>
      <trkpt lat="42.926057986915112" lon="-2.620104979723692">
        <ele>544.60000000000002</ele>
        <time>2019-06-23T10:17:26Z</time>
      </trkpt>
      <trkpt lat="42.925995038822293" lon="-2.619933988898993">
        <ele>543.60000000000002</ele>
        <time>2019-06-23T10:17:27Z</time>
      </trkpt>
      <trkpt lat="42.92592697776854" lon="-2.619764003902674">
        <ele>541.79999999999995</ele>
        <time>2019-06-23T10:17:28Z</time>
      </trkpt>
      <trkpt lat="42.925851037725806" lon="-2.61960499919951">
        <ele>540.39999999999998</ele>
        <time>2019-06-23T10:17:29Z</time>
      </trkpt>
      <trkpt lat="42.92575498111546" lon="-2.619468960911036">
        <ele>539.79999999999995</ele>
        <time>2019-06-23T10:17:30Z</time>
      </trkpt>
      <trkpt lat="42.925639981403947" lon="-2.619362007826567">
        <ele>539</ele>
        <time>2019-06-23T10:17:31Z</time>
      </trkpt>
      <trkpt lat="42.925515007227659" lon="-2.619275003671646">
        <ele>538.60000000000002</ele>
        <time>2019-06-23T10:17:32Z</time>
      </trkpt>
      <trkpt lat="42.925386009737849" lon="-2.61919897980988">
        <ele>538.20000000000005</ele>
        <time>2019-06-23T10:17:33Z</time>
      </trkpt>
      <trkpt lat="42.925255000591278" lon="-2.619122033938766">
        <ele>537.79999999999995</ele>
        <time>2019-06-23T10:17:34Z</time>
      </trkpt>
      <trkpt lat="42.925123991444707" lon="-2.619043998420239">
        <ele>537.39999999999998</ele>
        <time>2019-06-23T10:17:35Z</time>
      </trkpt>
      <trkpt lat="42.924991976469755" lon="-2.618966968730092">
        <ele>536.20000000000005</ele>
        <time>2019-06-23T10:17:36Z</time>
      </trkpt>
      <trkpt lat="42.924727024510503" lon="-2.618817016482353">
        <ele>532.79999999999995</ele>
        <time>2019-06-23T10:17:38Z</time>
      </trkpt>
      <trkpt lat="42.92459400370717" lon="-2.618735963478684">
        <ele>532.20000000000005</ele>
        <time>2019-06-23T10:17:39Z</time>
      </trkpt>
      <trkpt lat="42.924466012045741" lon="-2.618647031486034">
        <ele>531.60000000000002</ele>
        <time>2019-06-23T10:17:40Z</time>
      </trkpt>
      <trkpt lat="42.924254033714533" lon="-2.618392976000905">
        <ele>530.20000000000005</ele>
        <time>2019-06-23T10:17:42Z</time>
      </trkpt>
      <trkpt lat="42.924184966832399" lon="-2.618231037631631">
        <ele>529.60000000000002</ele>
        <time>2019-06-23T10:17:43Z</time>
      </trkpt>
      <trkpt lat="42.924138028174639" lon="-2.61805803515017">
        <ele>528.79999999999995</ele>
        <time>2019-06-23T10:17:44Z</time>
      </trkpt>
      <trkpt lat="42.924070972949266" lon="-2.617704989388585">
        <ele>526.60000000000002</ele>
        <time>2019-06-23T10:17:46Z</time>
      </trkpt>
      <trkpt lat="42.924001989886165" lon="-2.617357978597283">
        <ele>525.60000000000002</ele>
        <time>2019-06-23T10:17:48Z</time>
      </trkpt>
      <trkpt lat="42.923964019864798" lon="-2.617186987772584">
        <ele>525</ele>
        <time>2019-06-23T10:17:49Z</time>
      </trkpt>
      <trkpt lat="42.923926971852779" lon="-2.617018008604646">
        <ele>524.60000000000002</ele>
        <time>2019-06-23T10:17:50Z</time>
      </trkpt>
      <trkpt lat="42.923890007659793" lon="-2.616848023608327">
        <ele>524.60000000000002</ele>
        <time>2019-06-23T10:17:51Z</time>
      </trkpt>
      <trkpt lat="42.923855977132916" lon="-2.616677032783628">
        <ele>524.39999999999998</ele>
        <time>2019-06-23T10:17:52Z</time>
      </trkpt>
      <trkpt lat="42.923823036253452" lon="-2.616505036130548">
        <ele>524.20000000000005</ele>
        <time>2019-06-23T10:17:53Z</time>
      </trkpt>
      <trkpt lat="42.923787999898195" lon="-2.616332033649087">
        <ele>524</ele>
        <time>2019-06-23T10:17:54Z</time>
      </trkpt>
      <trkpt lat="42.923721028491855" lon="-2.615988040342927">
        <ele>523.79999999999995</ele>
        <time>2019-06-23T10:17:56Z</time>
      </trkpt>
      <trkpt lat="42.923685992136598" lon="-2.615821994841099">
        <ele>523.39999999999998</ele>
        <time>2019-06-23T10:17:57Z</time>
      </trkpt>
      <trkpt lat="42.923651961609721" lon="-2.615660978481174">
        <ele>523.39999999999998</ele>
        <time>2019-06-23T10:17:58Z</time>
      </trkpt>
      <trkpt lat="42.923580966889858" lon="-2.615374987944961">
        <ele>523.79999999999995</ele>
        <time>2019-06-23T10:18:00Z</time>
      </trkpt>
      <trkpt lat="42.923536961898208" lon="-2.615260994061828">
        <ele>524</ele>
        <time>2019-06-23T10:18:01Z</time>
      </trkpt>
      <trkpt lat="42.923481976613402" lon="-2.615159992128611">
        <ele>523.79999999999995</ele>
        <time>2019-06-23T10:18:02Z</time>
      </trkpt>
      <trkpt lat="42.923417016863823" lon="-2.615074999630451">
        <ele>524.20000000000005</ele>
        <time>2019-06-23T10:18:03Z</time>
      </trkpt>
      <trkpt lat="42.923344010487199" lon="-2.615008028224111">
        <ele>524.60000000000002</ele>
        <time>2019-06-23T10:18:04Z</time>
      </trkpt>
      <trkpt lat="42.923261029645801" lon="-2.61496402323246">
        <ele>524.60000000000002</ele>
        <time>2019-06-23T10:18:05Z</time>
      </trkpt>
      <trkpt lat="42.923171008005738" lon="-2.61494399048388">
        <ele>524.79999999999995</ele>
        <time>2019-06-23T10:18:06Z</time>
      </trkpt>
      <trkpt lat="42.923077968880534" lon="-2.61494399048388">
        <ele>525</ele>
        <time>2019-06-23T10:18:07Z</time>
      </trkpt>
      <trkpt lat="42.922985013574362" lon="-2.614958994090557">
        <ele>525.20000000000005</ele>
        <time>2019-06-23T10:18:08Z</time>
      </trkpt>
      <trkpt lat="42.922892980277538" lon="-2.61498598381877">
        <ele>525.39999999999998</ele>
        <time>2019-06-23T10:18:09Z</time>
      </trkpt>
      <trkpt lat="42.922802036628127" lon="-2.615021020174027">
        <ele>525.39999999999998</ele>
        <time>2019-06-23T10:18:10Z</time>
      </trkpt>
      <trkpt lat="42.922710003331304" lon="-2.615055972710252">
        <ele>525.60000000000002</ele>
        <time>2019-06-23T10:18:11Z</time>
      </trkpt>
      <trkpt lat="42.922619981691241" lon="-2.615095032379031">
        <ele>525.60000000000002</ele>
        <time>2019-06-23T10:18:12Z</time>
      </trkpt>
      <trkpt lat="42.922430969774723" lon="-2.615166027098894">
        <ele>525.79999999999995</ele>
        <time>2019-06-23T10:18:14Z</time>
      </trkpt>
      <trkpt lat="42.92222997173667" lon="-2.615231992676854">
        <ele>525.79999999999995</ele>
        <time>2019-06-23T10:18:16Z</time>
      </trkpt>
      <trkpt lat="42.922028973698616" lon="-2.615291001275182">
        <ele>526</ele>
        <time>2019-06-23T10:18:18Z</time>
      </trkpt>
      <trkpt lat="42.921927971765399" lon="-2.615317991003394">
        <ele>526</ele>
        <time>2019-06-23T10:18:19Z</time>
      </trkpt>
      <trkpt lat="42.921825964003801" lon="-2.615344980731607">
        <ele>526</ele>
        <time>2019-06-23T10:18:20Z</time>
      </trkpt>
      <trkpt lat="42.921619014814496" lon="-2.615395020693541">
        <ele>526</ele>
        <time>2019-06-23T10:18:22Z</time>
      </trkpt>
      <trkpt lat="42.92141399346292" lon="-2.615451011806727">
        <ele>526.20000000000005</ele>
        <time>2019-06-23T10:18:24Z</time>
      </trkpt>
      <trkpt lat="42.921210983768106" lon="-2.615507002919912">
        <ele>526</ele>
        <time>2019-06-23T10:18:26Z</time>
      </trkpt>
      <trkpt lat="42.921009985730052" lon="-2.615558970719576">
        <ele>526</ele>
        <time>2019-06-23T10:18:28Z</time>
      </trkpt>
      <trkpt lat="42.92081200517714" lon="-2.615615967661142">
        <ele>526.20000000000005</ele>
        <time>2019-06-23T10:18:30Z</time>
      </trkpt>
      <trkpt lat="42.920611007139087" lon="-2.615670030936599">
        <ele>525.79999999999995</ele>
        <time>2019-06-23T10:18:32Z</time>
      </trkpt>
      <trkpt lat="42.92040497995913" lon="-2.615730967372656">
        <ele>525.79999999999995</ele>
        <time>2019-06-23T10:18:34Z</time>
      </trkpt>
      <trkpt lat="42.920301966369152" lon="-2.615771032869816">
        <ele>525.79999999999995</ele>
        <time>2019-06-23T10:18:35Z</time>
      </trkpt>
      <trkpt lat="42.920199036598206" lon="-2.615819983184338">
        <ele>525.79999999999995</ele>
        <time>2019-06-23T10:18:36Z</time>
      </trkpt>
      <trkpt lat="42.920099040493369" lon="-2.615878991782665">
        <ele>525.79999999999995</ele>
        <time>2019-06-23T10:18:37Z</time>
      </trkpt>
      <trkpt lat="42.919998960569501" lon="-2.615946969017386">
        <ele>525.60000000000002</ele>
        <time>2019-06-23T10:18:38Z</time>
      </trkpt>
      <trkpt lat="42.919900976121426" lon="-2.616019975394011">
        <ele>525.39999999999998</ele>
        <time>2019-06-23T10:18:39Z</time>
      </trkpt>
      <trkpt lat="42.919803997501731" lon="-2.616100022569299">
        <ele>525.20000000000005</ele>
        <time>2019-06-23T10:18:40Z</time>
      </trkpt>
      <trkpt lat="42.919709030538797" lon="-2.616184009239078">
        <ele>524.79999999999995</ele>
        <time>2019-06-23T10:18:41Z</time>
      </trkpt>
      <trkpt lat="42.919614985585213" lon="-2.616269001737237">
        <ele>524.20000000000005</ele>
        <time>2019-06-23T10:18:42Z</time>
      </trkpt>
      <trkpt lat="42.919427985325456" lon="-2.616438986733556">
        <ele>523.79999999999995</ele>
        <time>2019-06-23T10:18:44Z</time>
      </trkpt>
      <trkpt lat="42.919246014207602" lon="-2.616604026407003">
        <ele>523.39999999999998</ele>
        <time>2019-06-23T10:18:46Z</time>
      </trkpt>
      <trkpt lat="42.919154986739159" lon="-2.616686001420021">
        <ele>523.39999999999998</ele>
        <time>2019-06-23T10:18:47Z</time>
      </trkpt>
      <trkpt lat="42.919065970927477" lon="-2.616766970604658">
        <ele>523.39999999999998</ele>
        <time>2019-06-23T10:18:48Z</time>
      </trkpt>
      <trkpt lat="42.918977038934827" lon="-2.616846011951566">
        <ele>523</ele>
        <time>2019-06-23T10:18:49Z</time>
      </trkpt>
      <trkpt lat="42.918889028951526" lon="-2.616924969479442">
        <ele>523</ele>
        <time>2019-06-23T10:18:50Z</time>
      </trkpt>
      <trkpt lat="42.918799007311463" lon="-2.617001999169588">
        <ele>522.60000000000002</ele>
        <time>2019-06-23T10:18:51Z</time>
      </trkpt>
      <trkpt lat="42.91870797984302" lon="-2.617075005546212">
        <ele>522.39999999999998</ele>
        <time>2019-06-23T10:18:52Z</time>
      </trkpt>
      <trkpt lat="42.918614018708467" lon="-2.617142982780933">
        <ele>522.60000000000002</ele>
        <time>2019-06-23T10:18:53Z</time>
      </trkpt>
      <trkpt lat="42.918517040088773" lon="-2.617206014692783">
        <ele>522.39999999999998</ele>
        <time>2019-06-23T10:18:54Z</time>
      </trkpt>
      <trkpt lat="42.91832098737359" lon="-2.617323026061058">
        <ele>522.39999999999998</ele>
        <time>2019-06-23T10:18:56Z</time>
      </trkpt>
      <trkpt lat="42.91812602430582" lon="-2.617441965267062">
        <ele>522.39999999999998</ele>
        <time>2019-06-23T10:18:58Z</time>
      </trkpt>
      <trkpt lat="42.917927037924528" lon="-2.617558976635337">
        <ele>522.39999999999998</ele>
        <time>2019-06-23T10:19:00Z</time>
      </trkpt>
      <trkpt lat="42.91782503016293" lon="-2.617615973576903">
        <ele>522.60000000000002</ele>
        <time>2019-06-23T10:19:01Z</time>
      </trkpt>
      <trkpt lat="42.917725034058094" lon="-2.617671964690089">
        <ele>522.60000000000002</ele>
        <time>2019-06-23T10:19:02Z</time>
      </trkpt>
      <trkpt lat="42.917527975514531" lon="-2.617785958573222">
        <ele>522.39999999999998</ele>
        <time>2019-06-23T10:19:04Z</time>
      </trkpt>
      <trkpt lat="42.917432002723217" lon="-2.617839016020298">
        <ele>522.39999999999998</ele>
        <time>2019-06-23T10:19:05Z</time>
      </trkpt>
      <trkpt lat="42.917335024103522" lon="-2.617889977991581">
        <ele>522.39999999999998</ele>
        <time>2019-06-23T10:19:06Z</time>
      </trkpt>
      <trkpt lat="42.91713897138834" lon="-2.617992991581559">
        <ele>522.39999999999998</ele>
        <time>2019-06-23T10:19:08Z</time>
      </trkpt>
      <trkpt lat="42.916941996663809" lon="-2.618113020434976">
        <ele>522.39999999999998</ele>
        <time>2019-06-23T10:19:10Z</time>
      </trkpt>
      <trkpt lat="42.916740998625755" lon="-2.618255009874702">
        <ele>522</ele>
        <time>2019-06-23T10:19:12Z</time>
      </trkpt>
      <trkpt lat="42.916543018072844" lon="-2.618408985435963">
        <ele>521.79999999999995</ele>
        <time>2019-06-23T10:19:14Z</time>
      </trkpt>
      <trkpt lat="42.916349982842803" lon="-2.618565978482366">
        <ele>521.60000000000002</ele>
        <time>2019-06-23T10:19:16Z</time>
      </trkpt>
      <trkpt lat="42.916146973147988" lon="-2.618698999285698">
        <ele>521.20000000000005</ele>
        <time>2019-06-23T10:19:18Z</time>
      </trkpt>
      <trkpt lat="42.916042031720281" lon="-2.618753984570503">
        <ele>521.20000000000005</ele>
        <time>2019-06-23T10:19:19Z</time>
      </trkpt>
      <trkpt lat="42.91593499481678" lon="-2.618800001218915">
        <ele>521.39999999999998</ele>
        <time>2019-06-23T10:19:20Z</time>
      </trkpt>
      <trkpt lat="42.915724022313952" lon="-2.618876025080681">
        <ele>521.39999999999998</ele>
        <time>2019-06-23T10:19:22Z</time>
      </trkpt>
      <trkpt lat="42.915622014552355" lon="-2.618907960131764">
        <ele>521.39999999999998</ele>
        <time>2019-06-23T10:19:23Z</time>
      </trkpt>
      <trkpt lat="42.915520006790757" lon="-2.618937967345119">
        <ele>521.39999999999998</ele>
        <time>2019-06-23T10:19:24Z</time>
      </trkpt>
      <trkpt lat="42.915321020409465" lon="-2.618993958458304">
        <ele>521.60000000000002</ele>
        <time>2019-06-23T10:19:26Z</time>
      </trkpt>
      <trkpt lat="42.915126979351044" lon="-2.61904701590538">
        <ele>521.79999999999995</ele>
        <time>2019-06-23T10:19:28Z</time>
      </trkpt>
      <trkpt lat="42.914933022111654" lon="-2.619103007018566">
        <ele>522.20000000000005</ele>
        <time>2019-06-23T10:19:30Z</time>
      </trkpt>
      <trkpt lat="42.914835959672928" lon="-2.61913200840354">
        <ele>522.20000000000005</ele>
        <time>2019-06-23T10:19:31Z</time>
      </trkpt>
      <trkpt lat="42.914739986881614" lon="-2.619157992303371">
        <ele>522.20000000000005</ele>
        <time>2019-06-23T10:19:32Z</time>
      </trkpt>
      <trkpt lat="42.914544017985463" lon="-2.61921800673008">
        <ele>522.20000000000005</ele>
        <time>2019-06-23T10:19:34Z</time>
      </trkpt>
      <trkpt lat="42.914351988583803" lon="-2.61928103864193">
        <ele>522.39999999999998</ele>
        <time>2019-06-23T10:19:36Z</time>
      </trkpt>
      <trkpt lat="42.914163982495666" lon="-2.61934700421989">
        <ele>522.39999999999998</ele>
        <time>2019-06-23T10:19:38Z</time>
      </trkpt>
      <trkpt lat="42.914071027189493" lon="-2.619386985898018">
        <ele>522.39999999999998</ele>
        <time>2019-06-23T10:19:39Z</time>
      </trkpt>
      <trkpt lat="42.913977988064289" lon="-2.61943300254643">
        <ele>522.39999999999998</ele>
        <time>2019-06-23T10:19:40Z</time>
      </trkpt>
      <trkpt lat="42.913803979754448" lon="-2.619537021964788">
        <ele>522.60000000000002</ele>
        <time>2019-06-23T10:19:42Z</time>
      </trkpt>
      <trkpt lat="42.913637012243271" lon="-2.61966903693974">
        <ele>522.60000000000002</ele>
        <time>2019-06-23T10:19:44Z</time>
      </trkpt>
      <trkpt lat="42.913556965067983" lon="-2.619747994467616">
        <ele>522.60000000000002</ele>
        <time>2019-06-23T10:19:45Z</time>
      </trkpt>
      <trkpt lat="42.913480019196868" lon="-2.619833992794156">
        <ele>522.60000000000002</ele>
        <time>2019-06-23T10:19:46Z</time>
      </trkpt>
      <trkpt lat="42.913325959816575" lon="-2.620005989447236">
        <ele>522.79999999999995</ele>
        <time>2019-06-23T10:19:48Z</time>
      </trkpt>
      <trkpt lat="42.91324901394546" lon="-2.620090981945396">
        <ele>522.79999999999995</ele>
        <time>2019-06-23T10:19:49Z</time>
      </trkpt>
      <trkpt lat="42.913171984255314" lon="-2.620175974443555">
        <ele>523</ele>
        <time>2019-06-23T10:19:50Z</time>
      </trkpt>
      <trkpt lat="42.913020020350814" lon="-2.620345959439874">
        <ele>523.20000000000005</ele>
        <time>2019-06-23T10:19:52Z</time>
      </trkpt>
      <trkpt lat="42.91286101564765" lon="-2.620510999113321">
        <ele>523.39999999999998</ele>
        <time>2019-06-23T10:19:54Z</time>
      </trkpt>
      <trkpt lat="42.912701005116105" lon="-2.620666986331344">
        <ele>523.60000000000002</ele>
        <time>2019-06-23T10:19:56Z</time>
      </trkpt>
      <trkpt lat="42.91253998875618" lon="-2.620814004912973">
        <ele>523.79999999999995</ele>
        <time>2019-06-23T10:19:58Z</time>
      </trkpt>
      <trkpt lat="42.91236899793148" lon="-2.620950965210795">
        <ele>524</ele>
        <time>2019-06-23T10:20:00Z</time>
      </trkpt>
      <trkpt lat="42.912279982119799" lon="-2.621017014607787">
        <ele>524</ele>
        <time>2019-06-23T10:20:01Z</time>
      </trkpt>
      <trkpt lat="42.912189038470387" lon="-2.621080968528986">
        <ele>524</ele>
        <time>2019-06-23T10:20:02Z</time>
      </trkpt>
      <trkpt lat="42.911996003240347" lon="-2.621199991554022">
        <ele>523.79999999999995</ele>
        <time>2019-06-23T10:20:04Z</time>
      </trkpt>
      <trkpt lat="42.911792993545532" lon="-2.621310967952013">
        <ele>523.79999999999995</ele>
        <time>2019-06-23T10:20:06Z</time>
      </trkpt>
      <trkpt lat="42.911687968298793" lon="-2.62136603705585">
        <ele>524</ele>
        <time>2019-06-23T10:20:07Z</time>
      </trkpt>
      <trkpt lat="42.911584032699466" lon="-2.621421022340655">
        <ele>524</ele>
        <time>2019-06-23T10:20:08Z</time>
      </trkpt>
      <trkpt lat="42.911479007452726" lon="-2.621476007625461">
        <ele>524</ele>
        <time>2019-06-23T10:20:09Z</time>
      </trkpt>
      <trkpt lat="42.911375993862748" lon="-2.621529987081885">
        <ele>524</ele>
        <time>2019-06-23T10:20:10Z</time>
      </trkpt>
      <trkpt lat="42.911178013309836" lon="-2.621650015935302">
        <ele>523.79999999999995</ele>
        <time>2019-06-23T10:20:12Z</time>
      </trkpt>
      <trkpt lat="42.910990007221699" lon="-2.621786976233125">
        <ele>523.60000000000002</ele>
        <time>2019-06-23T10:20:14Z</time>
      </trkpt>
      <trkpt lat="42.910814993083477" lon="-2.621941035613418">
        <ele>523.39999999999998</ele>
        <time>2019-06-23T10:20:16Z</time>
      </trkpt>
      <trkpt lat="42.910646013915539" lon="-2.622109008952975">
        <ele>523</ele>
        <time>2019-06-23T10:20:18Z</time>
      </trkpt>
      <trkpt lat="42.910474017262459" lon="-2.622281005606055">
        <ele>522.60000000000002</ele>
        <time>2019-06-23T10:20:20Z</time>
      </trkpt>
      <trkpt lat="42.910297997295856" lon="-2.622460965067148">
        <ele>522.20000000000005</ele>
        <time>2019-06-23T10:20:22Z</time>
      </trkpt>
      <trkpt lat="42.910119965672493" lon="-2.622646959498525">
        <ele>522</ele>
        <time>2019-06-23T10:20:24Z</time>
      </trkpt>
      <trkpt lat="42.909942017868161" lon="-2.622832031920552">
        <ele>522</ele>
        <time>2019-06-23T10:20:26Z</time>
      </trkpt>
      <trkpt lat="42.909770021215081" lon="-2.623011991381645">
        <ele>521.79999999999995</ele>
        <time>2019-06-23T10:20:28Z</time>
      </trkpt>
      <trkpt lat="42.909602969884872" lon="-2.623187005519867">
        <ele>521.60000000000002</ele>
        <time>2019-06-23T10:20:30Z</time>
      </trkpt>
      <trkpt lat="42.909442037343979" lon="-2.623351039364934">
        <ele>521.20000000000005</ele>
        <time>2019-06-23T10:20:32Z</time>
      </trkpt>
      <trkpt lat="42.909279009327292" lon="-2.623512977734208">
        <ele>521</ele>
        <time>2019-06-23T10:20:34Z</time>
      </trkpt>
      <trkpt lat="42.909195022657514" lon="-2.623595958575606">
        <ele>520.79999999999995</ele>
        <time>2019-06-23T10:20:35Z</time>
      </trkpt>
      <trkpt lat="42.909110030159354" lon="-2.623682040721178">
        <ele>520.60000000000002</ele>
        <time>2019-06-23T10:20:36Z</time>
      </trkpt>
      <trkpt lat="42.908937027677894" lon="-2.623858982697129">
        <ele>520.39999999999998</ele>
        <time>2019-06-23T10:20:38Z</time>
      </trkpt>
      <trkpt lat="42.908766958862543" lon="-2.624028967693448">
        <ele>520.39999999999998</ele>
        <time>2019-06-23T10:20:40Z</time>
      </trkpt>
      <trkpt lat="42.908600997179747" lon="-2.624199036508799">
        <ele>520.39999999999998</ele>
        <time>2019-06-23T10:20:42Z</time>
      </trkpt>
      <trkpt lat="42.908436041325331" lon="-2.624386036768556">
        <ele>520.20000000000005</ele>
        <time>2019-06-23T10:20:44Z</time>
      </trkpt>
      <trkpt lat="42.908273013308644" lon="-2.624589968472719">
        <ele>520.20000000000005</ele>
        <time>2019-06-23T10:20:46Z</time>
      </trkpt>
      <trkpt lat="42.908120965585113" lon="-2.62480597011745">
        <ele>520.20000000000005</ele>
        <time>2019-06-23T10:20:48Z</time>
      </trkpt>
      <trkpt lat="42.907970007508993" lon="-2.625029012560844">
        <ele>520.20000000000005</ele>
        <time>2019-06-23T10:20:50Z</time>
      </trkpt>
      <trkpt lat="42.907822988927364" lon="-2.625249959528446">
        <ele>520.20000000000005</ele>
        <time>2019-06-23T10:20:52Z</time>
      </trkpt>
      <trkpt lat="42.90768401697278" lon="-2.625475013628602">
        <ele>520.39999999999998</ele>
        <time>2019-06-23T10:20:54Z</time>
      </trkpt>
      <trkpt lat="42.907548984512687" lon="-2.625696966424584">
        <ele>520.39999999999998</ele>
        <time>2019-06-23T10:20:56Z</time>
      </trkpt>
      <trkpt lat="42.907483018934727" lon="-2.625810038298369">
        <ele>520.39999999999998</ele>
        <time>2019-06-23T10:20:57Z</time>
      </trkpt>
      <trkpt lat="42.907416969537735" lon="-2.625925038009882">
        <ele>520.60000000000002</ele>
        <time>2019-06-23T10:20:58Z</time>
      </trkpt>
      <trkpt lat="42.907283026725054" lon="-2.626152019947767">
        <ele>520.60000000000002</ele>
        <time>2019-06-23T10:21:00Z</time>
      </trkpt>
      <trkpt lat="42.907217983156443" lon="-2.626267019659281">
        <ele>520.39999999999998</ele>
        <time>2019-06-23T10:21:01Z</time>
      </trkpt>
      <trkpt lat="42.907154029235244" lon="-2.626383025199175">
        <ele>520.39999999999998</ele>
        <time>2019-06-23T10:21:02Z</time>
      </trkpt>
      <trkpt lat="42.907026959583163" lon="-2.626619981601834">
        <ele>520.39999999999998</ele>
        <time>2019-06-23T10:21:04Z</time>
      </trkpt>
      <trkpt lat="42.906897040084004" lon="-2.626860961318016">
        <ele>520.39999999999998</ele>
        <time>2019-06-23T10:21:06Z</time>
      </trkpt>
      <trkpt lat="42.906829984858632" lon="-2.626983001828194">
        <ele>520.39999999999998</ele>
        <time>2019-06-23T10:21:07Z</time>
      </trkpt>
      <trkpt lat="42.906762007623911" lon="-2.627106970176101">
        <ele>520</ele>
        <time>2019-06-23T10:21:08Z</time>
      </trkpt>
      <trkpt lat="42.906626975163817" lon="-2.627354990690947">
        <ele>519.79999999999995</ele>
        <time>2019-06-23T10:21:10Z</time>
      </trkpt>
      <trkpt lat="42.906494960188866" lon="-2.627600999549031">
        <ele>519.60000000000002</ele>
        <time>2019-06-23T10:21:12Z</time>
      </trkpt>
      <trkpt lat="42.906367974355817" lon="-2.62783301062882">
        <ele>519.79999999999995</ele>
        <time>2019-06-23T10:21:14Z</time>
      </trkpt>
      <trkpt lat="42.90630703791976" lon="-2.627948010340333">
        <ele>519.79999999999995</ele>
        <time>2019-06-23T10:21:15Z</time>
      </trkpt>
      <trkpt lat="42.906246017664671" lon="-2.628062004223466">
        <ele>519.60000000000002</ele>
        <time>2019-06-23T10:21:16Z</time>
      </trkpt>
      <trkpt lat="42.90611601434648" lon="-2.628280017524958">
        <ele>519.60000000000002</ele>
        <time>2019-06-23T10:21:18Z</time>
      </trkpt>
      <trkpt lat="42.905978970229626" lon="-2.628483027219772">
        <ele>519.60000000000002</ele>
        <time>2019-06-23T10:21:20Z</time>
      </trkpt>
      <trkpt lat="42.905910992994905" lon="-2.628579000011087">
        <ele>519.60000000000002</ele>
        <time>2019-06-23T10:21:21Z</time>
      </trkpt>
      <trkpt lat="42.905842009931803" lon="-2.628672961145639">
        <ele>519.79999999999995</ele>
        <time>2019-06-23T10:21:22Z</time>
      </trkpt>
      <trkpt lat="42.905704965814948" lon="-2.628857027739286">
        <ele>520</ele>
        <time>2019-06-23T10:21:24Z</time>
      </trkpt>
      <trkpt lat="42.905569011345506" lon="-2.629042016342282">
        <ele>520.20000000000005</ele>
        <time>2019-06-23T10:21:26Z</time>
      </trkpt>
      <trkpt lat="42.905436996370554" lon="-2.629219964146614">
        <ele>520.20000000000005</ele>
        <time>2019-06-23T10:21:28Z</time>
      </trkpt>
      <trkpt lat="42.905303975567222" lon="-2.629396989941597">
        <ele>520.20000000000005</ele>
        <time>2019-06-23T10:21:30Z</time>
      </trkpt>
      <trkpt lat="42.90516902692616" lon="-2.629576027393341">
        <ele>520.39999999999998</ele>
        <time>2019-06-23T10:21:32Z</time>
      </trkpt>
      <trkpt lat="42.905032988637686" lon="-2.629757998511195">
        <ele>520.20000000000005</ele>
        <time>2019-06-23T10:21:34Z</time>
      </trkpt>
      <trkpt lat="42.90489200502634" lon="-2.629929995164275">
        <ele>520.39999999999998</ele>
        <time>2019-06-23T10:21:36Z</time>
      </trkpt>
      <trkpt lat="42.904822016134858" lon="-2.630009036511183">
        <ele>520.20000000000005</ele>
        <time>2019-06-23T10:21:37Z</time>
      </trkpt>
      <trkpt lat="42.904750015586615" lon="-2.630082964897156">
        <ele>520.20000000000005</ele>
        <time>2019-06-23T10:21:38Z</time>
      </trkpt>
      <trkpt lat="42.904677009209991" lon="-2.630152031779289">
        <ele>520.20000000000005</ele>
        <time>2019-06-23T10:21:39Z</time>
      </trkpt>
      <trkpt lat="42.904604002833366" lon="-2.63022000901401">
        <ele>520.20000000000005</ele>
        <time>2019-06-23T10:21:40Z</time>
      </trkpt>
      <trkpt lat="42.904455978423357" lon="-2.630352023988962">
        <ele>520.39999999999998</ele>
        <time>2019-06-23T10:21:42Z</time>
      </trkpt>
      <trkpt lat="42.904308037832379" lon="-2.630482027307153">
        <ele>520.39999999999998</ele>
        <time>2019-06-23T10:21:44Z</time>
      </trkpt>
      <trkpt lat="42.904156995937228" lon="-2.630614964291453">
        <ele>520.39999999999998</ele>
        <time>2019-06-23T10:21:46Z</time>
      </trkpt>
      <trkpt lat="42.904006037861109" lon="-2.630757037550211">
        <ele>520.60000000000002</ele>
        <time>2019-06-23T10:21:48Z</time>
      </trkpt>
      <trkpt lat="42.903856001794338" lon="-2.630899026989937">
        <ele>521</ele>
        <time>2019-06-23T10:21:50Z</time>
      </trkpt>
      <trkpt lat="42.903782995417714" lon="-2.630969015881419">
        <ele>521.20000000000005</ele>
        <time>2019-06-23T10:21:51Z</time>
      </trkpt>
      <trkpt lat="42.903712000697851" lon="-2.631041016429663">
        <ele>521.20000000000005</ele>
        <time>2019-06-23T10:21:52Z</time>
      </trkpt>
      <trkpt lat="42.903577974066138" lon="-2.631189040839672">
        <ele>521.39999999999998</ele>
        <time>2019-06-23T10:21:54Z</time>
      </trkpt>
      <trkpt lat="42.903458029031754" lon="-2.63133798725903">
        <ele>521.60000000000002</ele>
        <time>2019-06-23T10:21:56Z</time>
      </trkpt>
      <trkpt lat="42.90334596298635" lon="-2.631489029154182">
        <ele>522</ele>
        <time>2019-06-23T10:21:58Z</time>
      </trkpt>
      <trkpt lat="42.903239009901881" lon="-2.631646022200584">
        <ele>522.20000000000005</ele>
        <time>2019-06-23T10:22:00Z</time>
      </trkpt>
      <trkpt lat="42.903134990483522" lon="-2.631801003590226">
        <ele>522.20000000000005</ele>
        <time>2019-06-23T10:22:02Z</time>
      </trkpt>
      <trkpt lat="42.903032982721925" lon="-2.631951961666346">
        <ele>522.39999999999998</ele>
        <time>2019-06-23T10:22:04Z</time>
      </trkpt>
      <trkpt lat="42.902938015758991" lon="-2.632095040753484">
        <ele>523.20000000000005</ele>
        <time>2019-06-23T10:22:06Z</time>
      </trkpt>
      <trkpt lat="42.90289300493896" lon="-2.632163017988205">
        <ele>523.60000000000002</ele>
        <time>2019-06-23T10:22:07Z</time>
      </trkpt>
      <trkpt lat="42.902846988290548" lon="-2.632229989394546">
        <ele>524.39999999999998</ele>
        <time>2019-06-23T10:22:08Z</time>
      </trkpt>
      <trkpt lat="42.902755960822105" lon="-2.6323670335114">
        <ele>524.60000000000002</ele>
        <time>2019-06-23T10:22:10Z</time>
      </trkpt>
      <trkpt lat="42.902658982202411" lon="-2.632510028779507">
        <ele>524.79999999999995</ele>
        <time>2019-06-23T10:22:12Z</time>
      </trkpt>
      <trkpt lat="42.902557980269194" lon="-2.632665010169148">
        <ele>525.20000000000005</ele>
        <time>2019-06-23T10:22:14Z</time>
      </trkpt>
      <trkpt lat="42.902452033013105" lon="-2.63281999155879">
        <ele>525.60000000000002</ele>
        <time>2019-06-23T10:22:16Z</time>
      </trkpt>
      <trkpt lat="42.902344996109605" lon="-2.632976984605193">
        <ele>526</ele>
        <time>2019-06-23T10:22:18Z</time>
      </trkpt>
      <trkpt lat="42.902238965034485" lon="-2.633128026500344">
        <ele>526.20000000000005</ele>
        <time>2019-06-23T10:22:20Z</time>
      </trkpt>
      <trkpt lat="42.902133017778397" lon="-2.633274961262941">
        <ele>526.20000000000005</ele>
        <time>2019-06-23T10:22:22Z</time>
      </trkpt>
      <trkpt lat="42.902079038321972" lon="-2.633349979296327">
        <ele>526.39999999999998</ele>
        <time>2019-06-23T10:22:23Z</time>
      </trkpt>
      <trkpt lat="42.902024975046515" lon="-2.633424997329712">
        <ele>526.60000000000002</ele>
        <time>2019-06-23T10:22:24Z</time>
      </trkpt>
      <trkpt lat="42.901919027790427" lon="-2.633576961234212">
        <ele>526.79999999999995</ele>
        <time>2019-06-23T10:22:26Z</time>
      </trkpt>
      <trkpt lat="42.901808973401785" lon="-2.633724985644221">
        <ele>526.79999999999995</ele>
        <time>2019-06-23T10:22:28Z</time>
      </trkpt>
      <trkpt lat="42.901693973690271" lon="-2.633877033367753">
        <ele>526.79999999999995</ele>
        <time>2019-06-23T10:22:30Z</time>
      </trkpt>
      <trkpt lat="42.901570005342364" lon="-2.634033020585775">
        <ele>526.79999999999995</ele>
        <time>2019-06-23T10:22:32Z</time>
      </trkpt>
      <trkpt lat="42.901438996195793" lon="-2.634196970611811">
        <ele>526.79999999999995</ele>
        <time>2019-06-23T10:22:34Z</time>
      </trkpt>
      <trkpt lat="42.901371018961072" lon="-2.634281041100621">
        <ele>526.79999999999995</ele>
        <time>2019-06-23T10:22:35Z</time>
      </trkpt>
      <trkpt lat="42.90130103006959" lon="-2.634363016113639">
        <ele>526.79999999999995</ele>
        <time>2019-06-23T10:22:36Z</time>
      </trkpt>
      <trkpt lat="42.901159962639213" lon="-2.634527971968055">
        <ele>526.60000000000002</ele>
        <time>2019-06-23T10:22:38Z</time>
      </trkpt>
      <trkpt lat="42.90108896791935" lon="-2.634610030800104">
        <ele>526.60000000000002</ele>
        <time>2019-06-23T10:22:39Z</time>
      </trkpt>
      <trkpt lat="42.901017973199487" lon="-2.634689994156361">
        <ele>526.60000000000002</ele>
        <time>2019-06-23T10:22:40Z</time>
      </trkpt>
      <trkpt lat="42.900871960446239" lon="-2.634848998859525">
        <ele>526</ele>
        <time>2019-06-23T10:22:42Z</time>
      </trkpt>
      <trkpt lat="42.900726031512022" lon="-2.63501001521945">
        <ele>525.60000000000002</ele>
        <time>2019-06-23T10:22:44Z</time>
      </trkpt>
      <trkpt lat="42.900574989616871" lon="-2.635166002437472">
        <ele>525</ele>
        <time>2019-06-23T10:22:46Z</time>
      </trkpt>
      <trkpt lat="42.900411039590836" lon="-2.635316960513592">
        <ele>525</ele>
        <time>2019-06-23T10:22:48Z</time>
      </trkpt>
      <trkpt lat="42.900224961340427" lon="-2.635459033772349">
        <ele>524.79999999999995</ele>
        <time>2019-06-23T10:22:50Z</time>
      </trkpt>
      <trkpt lat="42.90012395940721" lon="-2.635527011007071">
        <ele>524.60000000000002</ele>
        <time>2019-06-23T10:22:51Z</time>
      </trkpt>
      <trkpt lat="42.900018012151122" lon="-2.635592976585031">
        <ele>524.39999999999998</ele>
        <time>2019-06-23T10:22:52Z</time>
      </trkpt>
      <trkpt lat="42.899801004678011" lon="-2.635707976296544">
        <ele>524</ele>
        <time>2019-06-23T10:22:54Z</time>
      </trkpt>
      <trkpt lat="42.8995839972049" lon="-2.635810989886522">
        <ele>523.79999999999995</ele>
        <time>2019-06-23T10:22:56Z</time>
      </trkpt>
      <trkpt lat="42.899372018873692" lon="-2.635915009304881">
        <ele>523.20000000000005</ele>
        <time>2019-06-23T10:22:58Z</time>
      </trkpt>
      <trkpt lat="42.899160962551832" lon="-2.636012993752956">
        <ele>522.60000000000002</ele>
        <time>2019-06-23T10:23:00Z</time>
      </trkpt>
      <trkpt lat="42.899057026952505" lon="-2.636059010401368">
        <ele>522.39999999999998</ele>
        <time>2019-06-23T10:23:01Z</time>
      </trkpt>
      <trkpt lat="42.898954013362527" lon="-2.63610502704978">
        <ele>522.20000000000005</ele>
        <time>2019-06-23T10:23:02Z</time>
      </trkpt>
      <trkpt lat="42.898748992010951" lon="-2.636195970699191">
        <ele>522</ele>
        <time>2019-06-23T10:23:04Z</time>
      </trkpt>
      <trkpt lat="42.898644972592592" lon="-2.636240981519222">
        <ele>521.79999999999995</ele>
        <time>2019-06-23T10:23:05Z</time>
      </trkpt>
      <trkpt lat="42.898540031164885" lon="-2.636289009824395">
        <ele>521.60000000000002</ele>
        <time>2019-06-23T10:23:06Z</time>
      </trkpt>
      <trkpt lat="42.898328974843025" lon="-2.636380959302187">
        <ele>521.39999999999998</ele>
        <time>2019-06-23T10:23:08Z</time>
      </trkpt>
      <trkpt lat="42.8981230314821" lon="-2.636472992599011">
        <ele>521.20000000000005</ele>
        <time>2019-06-23T10:23:10Z</time>
      </trkpt>
      <trkpt lat="42.897924967110157" lon="-2.636556979268789">
        <ele>520.79999999999995</ele>
        <time>2019-06-23T10:23:12Z</time>
      </trkpt>
      <trkpt lat="42.897826982662082" lon="-2.636597966775298">
        <ele>520.79999999999995</ele>
        <time>2019-06-23T10:23:13Z</time>
      </trkpt>
      <trkpt lat="42.897727992385626" lon="-2.636636020615697">
        <ele>520.79999999999995</ele>
        <time>2019-06-23T10:23:14Z</time>
      </trkpt>
      <trkpt lat="42.897524982690811" lon="-2.636711960658431">
        <ele>520.60000000000002</ele>
        <time>2019-06-23T10:23:16Z</time>
      </trkpt>
      <trkpt lat="42.897316021844745" lon="-2.636800976470113">
        <ele>520.60000000000002</ele>
        <time>2019-06-23T10:23:18Z</time>
      </trkpt>
      <trkpt lat="42.897112006321549" lon="-2.636898038908839">
        <ele>520.39999999999998</ele>
        <time>2019-06-23T10:23:20Z</time>
      </trkpt>
      <trkpt lat="42.896910002455115" lon="-2.636997029185295">
        <ele>520.60000000000002</ele>
        <time>2019-06-23T10:23:22Z</time>
      </trkpt>
      <trkpt lat="42.896712021902204" lon="-2.63709501363337">
        <ele>520.60000000000002</ele>
        <time>2019-06-23T10:23:24Z</time>
      </trkpt>
      <trkpt lat="42.896520998328924" lon="-2.637198027223349">
        <ele>520.60000000000002</ele>
        <time>2019-06-23T10:23:26Z</time>
      </trkpt>
      <trkpt lat="42.896424019709229" lon="-2.637248989194632">
        <ele>520.60000000000002</ele>
        <time>2019-06-23T10:23:27Z</time>
      </trkpt>
      <trkpt lat="42.896325029432774" lon="-2.637301962822676">
        <ele>520.60000000000002</ele>
        <time>2019-06-23T10:23:28Z</time>
      </trkpt>
      <trkpt lat="42.896122019737959" lon="-2.637411011382937">
        <ele>520.79999999999995</ele>
        <time>2019-06-23T10:23:30Z</time>
      </trkpt>
      <trkpt lat="42.895913980901241" lon="-2.637522993609309">
        <ele>521.20000000000005</ele>
        <time>2019-06-23T10:23:32Z</time>
      </trkpt>
      <trkpt lat="42.895812978968024" lon="-2.637579990550876">
        <ele>521.20000000000005</ele>
        <time>2019-06-23T10:23:33Z</time>
      </trkpt>
      <trkpt lat="42.89571600034833" lon="-2.637637993320823">
        <ele>521.20000000000005</ele>
        <time>2019-06-23T10:23:34Z</time>
      </trkpt>
      <trkpt lat="42.895621033385396" lon="-2.63769700191915">
        <ele>521.20000000000005</ele>
        <time>2019-06-23T10:23:35Z</time>
      </trkpt>
      <trkpt lat="42.895527994260192" lon="-2.637756010517478">
        <ele>521.39999999999998</ele>
        <time>2019-06-23T10:23:36Z</time>
      </trkpt>
      <trkpt lat="42.895347028970718" lon="-2.637875033542514">
        <ele>521.60000000000002</ele>
        <time>2019-06-23T10:23:38Z</time>
      </trkpt>
      <trkpt lat="42.895172014832497" lon="-2.637992966920137">
        <ele>521.79999999999995</ele>
        <time>2019-06-23T10:23:40Z</time>
      </trkpt>
      <trkpt lat="42.894993983209133" lon="-2.638109978288412">
        <ele>522</ele>
        <time>2019-06-23T10:23:42Z</time>
      </trkpt>
      <trkpt lat="42.894903039559722" lon="-2.638167981058359">
        <ele>522</ele>
        <time>2019-06-23T10:23:43Z</time>
      </trkpt>
      <trkpt lat="42.894807988777757" lon="-2.638227995485067">
        <ele>522.20000000000005</ele>
        <time>2019-06-23T10:23:44Z</time>
      </trkpt>
      <trkpt lat="42.894713021814823" lon="-2.638289015740156">
        <ele>522.20000000000005</ele>
        <time>2019-06-23T10:23:45Z</time>
      </trkpt>
      <trkpt lat="42.894617971032858" lon="-2.638351963832974">
        <ele>522.20000000000005</ele>
        <time>2019-06-23T10:23:46Z</time>
      </trkpt>
      <trkpt lat="42.894424013793468" lon="-2.638478027656674">
        <ele>522</ele>
        <time>2019-06-23T10:23:48Z</time>
      </trkpt>
      <trkpt lat="42.894328041002154" lon="-2.638540975749493">
        <ele>522</ele>
        <time>2019-06-23T10:23:49Z</time>
      </trkpt>
      <trkpt lat="42.894230978563428" lon="-2.638605013489723">
        <ele>522</ele>
        <time>2019-06-23T10:23:50Z</time>
      </trkpt>
      <trkpt lat="42.894040960818529" lon="-2.638730993494391">
        <ele>522</ele>
        <time>2019-06-23T10:23:52Z</time>
      </trkpt>
      <trkpt lat="42.893850021064281" lon="-2.63885797932744">
        <ele>521.60000000000002</ele>
        <time>2019-06-23T10:23:54Z</time>
      </trkpt>
      <trkpt lat="42.89365598000586" lon="-2.63898597098887">
        <ele>521.20000000000005</ele>
        <time>2019-06-23T10:23:56Z</time>
      </trkpt>
      <trkpt lat="42.893456993624568" lon="-2.639107005670667">
        <ele>520.60000000000002</ele>
        <time>2019-06-23T10:23:58Z</time>
      </trkpt>
      <trkpt lat="42.893259013071656" lon="-2.639219993725419">
        <ele>520.20000000000005</ele>
        <time>2019-06-23T10:24:00Z</time>
      </trkpt>
      <trkpt lat="42.893161028623581" lon="-2.639271961525083">
        <ele>520</ele>
        <time>2019-06-23T10:24:01Z</time>
      </trkpt>
      <trkpt lat="42.893061032518744" lon="-2.639322001487017">
        <ele>520</ele>
        <time>2019-06-23T10:24:02Z</time>
      </trkpt>
      <trkpt lat="42.892855005338788" lon="-2.639411017298698">
        <ele>519.60000000000002</ele>
        <time>2019-06-23T10:24:04Z</time>
      </trkpt>
      <trkpt lat="42.89264302700758" lon="-2.639491986483336">
        <ele>519.20000000000005</ele>
        <time>2019-06-23T10:24:06Z</time>
      </trkpt>
      <trkpt lat="42.89253699593246" lon="-2.639532973989844">
        <ele>519</ele>
        <time>2019-06-23T10:24:07Z</time>
      </trkpt>
      <trkpt lat="42.892429959028959" lon="-2.639574967324734">
        <ele>519.20000000000005</ele>
        <time>2019-06-23T10:24:08Z</time>
      </trkpt>
      <trkpt lat="42.892223009839654" lon="-2.639659959822893">
        <ele>518.20000000000005</ele>
        <time>2019-06-23T10:24:10Z</time>
      </trkpt>
      <trkpt lat="42.892023017629981" lon="-2.639749981462956">
        <ele>517.79999999999995</ele>
        <time>2019-06-23T10:24:12Z</time>
      </trkpt>
      <trkpt lat="42.891824031248689" lon="-2.639831034466624">
        <ele>517.60000000000002</ele>
        <time>2019-06-23T10:24:14Z</time>
      </trkpt>
      <trkpt lat="42.891615992411971" lon="-2.639885013923049">
        <ele>517.39999999999998</ele>
        <time>2019-06-23T10:24:16Z</time>
      </trkpt>
      <trkpt lat="42.891405019909143" lon="-2.639941005036235">
        <ele>517.20000000000005</ele>
        <time>2019-06-23T10:24:18Z</time>
      </trkpt>
      <trkpt lat="42.891301000490785" lon="-2.639974029734731">
        <ele>517.20000000000005</ele>
        <time>2019-06-23T10:24:19Z</time>
      </trkpt>
      <trkpt lat="42.891195975244045" lon="-2.640004958957434">
        <ele>517</ele>
        <time>2019-06-23T10:24:20Z</time>
      </trkpt>
      <trkpt lat="42.890990031883121" lon="-2.640047036111355">
        <ele>517</ele>
        <time>2019-06-23T10:24:22Z</time>
      </trkpt>
      <trkpt lat="42.890790039673448" lon="-2.640078971162438">
        <ele>517</ele>
        <time>2019-06-23T10:24:24Z</time>
      </trkpt>
      <trkpt lat="42.890601027756929" lon="-2.640097998082638">
        <ele>517.20000000000005</ele>
        <time>2019-06-23T10:24:26Z</time>
      </trkpt>
      <trkpt lat="42.890408998355269" lon="-2.640138985589147">
        <ele>517.20000000000005</ele>
        <time>2019-06-23T10:24:28Z</time>
      </trkpt>
      <trkpt lat="42.890314031392336" lon="-2.640177961438894">
        <ele>517</ele>
        <time>2019-06-23T10:24:29Z</time>
      </trkpt>
      <trkpt lat="42.890216968953609" lon="-2.64023001305759">
        <ele>517</ele>
        <time>2019-06-23T10:24:30Z</time>
      </trkpt>
      <trkpt lat="42.890018988400698" lon="-2.640344006940723">
        <ele>516.79999999999995</ele>
        <time>2019-06-23T10:24:32Z</time>
      </trkpt>
      <trkpt lat="42.889913041144609" lon="-2.640401003882289">
        <ele>517</ele>
        <time>2019-06-23T10:24:33Z</time>
      </trkpt>
      <trkpt lat="42.889801980927587" lon="-2.640450960025191">
        <ele>516.79999999999995</ele>
        <time>2019-06-23T10:24:34Z</time>
      </trkpt>
      <trkpt lat="42.889687987044454" lon="-2.640495970845223">
        <ele>517</ele>
        <time>2019-06-23T10:24:35Z</time>
      </trkpt>
      <trkpt lat="42.889573993161321" lon="-2.640530001372099">
        <ele>517.20000000000005</ele>
        <time>2019-06-23T10:24:36Z</time>
      </trkpt>
      <trkpt lat="42.889458993449807" lon="-2.640555985271931">
        <ele>517.20000000000005</ele>
        <time>2019-06-23T10:24:37Z</time>
      </trkpt>
      <trkpt lat="42.889346005395055" lon="-2.640580041334033">
        <ele>517</ele>
        <time>2019-06-23T10:24:38Z</time>
      </trkpt>
      <trkpt lat="42.889123968780041" lon="-2.640627985820174">
        <ele>517.20000000000005</ele>
        <time>2019-06-23T10:24:40Z</time>
      </trkpt>
      <trkpt lat="42.888900004327297" lon="-2.640678025782108">
        <ele>517.20000000000005</ele>
        <time>2019-06-23T10:24:42Z</time>
      </trkpt>
      <trkpt lat="42.888790033757687" lon="-2.64070300385356">
        <ele>517</ele>
        <time>2019-06-23T10:24:43Z</time>
      </trkpt>
      <trkpt lat="42.888681991025805" lon="-2.64072697609663">
        <ele>517.20000000000005</ele>
        <time>2019-06-23T10:24:44Z</time>
      </trkpt>
      <trkpt lat="42.888575959950686" lon="-2.640750026330352">
        <ele>517</ele>
        <time>2019-06-23T10:24:45Z</time>
      </trkpt>
      <trkpt lat="42.888470012694597" lon="-2.640771986916661">
        <ele>517.20000000000005</ele>
        <time>2019-06-23T10:24:46Z</time>
      </trkpt>
      <trkpt lat="42.88826297968626" lon="-2.640815991908312">
        <ele>517.20000000000005</ele>
        <time>2019-06-23T10:24:48Z</time>
      </trkpt>
      <trkpt lat="42.888061981648207" lon="-2.640857985243201">
        <ele>517</ele>
        <time>2019-06-23T10:24:50Z</time>
      </trkpt>
      <trkpt lat="42.887869030237198" lon="-2.64089897274971">
        <ele>517.20000000000005</ele>
        <time>2019-06-23T10:24:52Z</time>
      </trkpt>
      <trkpt lat="42.887774985283613" lon="-2.640920011326671">
        <ele>517.20000000000005</ele>
        <time>2019-06-23T10:24:53Z</time>
      </trkpt>
      <trkpt lat="42.887684963643551" lon="-2.640939960256219">
        <ele>517</ele>
        <time>2019-06-23T10:24:54Z</time>
      </trkpt>
      <trkpt lat="42.887597037479281" lon="-2.640957981348038">
        <ele>517</ele>
        <time>2019-06-23T10:24:55Z</time>
      </trkpt>
      <trkpt lat="42.887511039152741" lon="-2.640976002439857">
        <ele>516.79999999999995</ele>
        <time>2019-06-23T10:24:56Z</time>
      </trkpt>
      <trkpt lat="42.887338036671281" lon="-2.641011960804462">
        <ele>517</ele>
        <time>2019-06-23T10:24:58Z</time>
      </trkpt>
      <trkpt lat="42.887161010876298" lon="-2.64104699715972">
        <ele>517</ele>
        <time>2019-06-23T10:25:00Z</time>
      </trkpt>
      <trkpt lat="42.887070989236236" lon="-2.641064012423158">
        <ele>517</ele>
        <time>2019-06-23T10:25:01Z</time>
      </trkpt>
      <trkpt lat="42.886978033930063" lon="-2.641081027686596">
        <ele>517</ele>
        <time>2019-06-23T10:25:02Z</time>
      </trkpt>
      <trkpt lat="42.886882983148098" lon="-2.641098964959383">
        <ele>517</ele>
        <time>2019-06-23T10:25:03Z</time>
      </trkpt>
      <trkpt lat="42.886787010356784" lon="-2.641116986051202">
        <ele>517</ele>
        <time>2019-06-23T10:25:04Z</time>
      </trkpt>
      <trkpt lat="42.886593975126743" lon="-2.64115696772933">
        <ele>517</ele>
        <time>2019-06-23T10:25:06Z</time>
      </trkpt>
      <trkpt lat="42.886403035372496" lon="-2.64119896106422">
        <ele>516.79999999999995</ele>
        <time>2019-06-23T10:25:08Z</time>
      </trkpt>
      <trkpt lat="42.886308990418911" lon="-2.64121999964118">
        <ele>516.60000000000002</ele>
        <time>2019-06-23T10:25:09Z</time>
      </trkpt>
      <trkpt lat="42.886216035112739" lon="-2.641239026561379">
        <ele>516.39999999999998</ele>
        <time>2019-06-23T10:25:10Z</time>
      </trkpt>
      <trkpt lat="42.886030040681362" lon="-2.641275990754366">
        <ele>516.39999999999998</ele>
        <time>2019-06-23T10:25:12Z</time>
      </trkpt>
      <trkpt lat="42.885843962430954" lon="-2.641313960775733">
        <ele>516.39999999999998</ele>
        <time>2019-06-23T10:25:14Z</time>
      </trkpt>
      <trkpt lat="42.885654028505087" lon="-2.641354026272893">
        <ele>516.20000000000005</ele>
        <time>2019-06-23T10:25:16Z</time>
      </trkpt>
      <trkpt lat="42.885466022416949" lon="-2.641399959102273">
        <ele>516.39999999999998</ele>
        <time>2019-06-23T10:25:18Z</time>
      </trkpt>
      <trkpt lat="42.885371977463365" lon="-2.641420997679234">
        <ele>516.20000000000005</ele>
        <time>2019-06-23T10:25:19Z</time>
      </trkpt>
      <trkpt lat="42.885278016328812" lon="-2.641442036256194">
        <ele>516.20000000000005</ele>
        <time>2019-06-23T10:25:20Z</time>
      </trkpt>
      <trkpt lat="42.885086992755532" lon="-2.641481012105942">
        <ele>516</ele>
        <time>2019-06-23T10:25:22Z</time>
      </trkpt>
      <trkpt lat="42.884898986667395" lon="-2.641521999612451">
        <ele>516</ele>
        <time>2019-06-23T10:25:24Z</time>
      </trkpt>
      <trkpt lat="42.884713998064399" lon="-2.641562987118959">
        <ele>516</ele>
        <time>2019-06-23T10:25:26Z</time>
      </trkpt>
      <trkpt lat="42.884622970595956" lon="-2.64158402569592">
        <ele>515.79999999999995</ele>
        <time>2019-06-23T10:25:27Z</time>
      </trkpt>
      <trkpt lat="42.884534038603306" lon="-2.641603974625468">
        <ele>515.79999999999995</ele>
        <time>2019-06-23T10:25:28Z</time>
      </trkpt>
      <trkpt lat="42.884355001151562" lon="-2.641643034294248">
        <ele>515.39999999999998</ele>
        <time>2019-06-23T10:25:30Z</time>
      </trkpt>
      <trkpt lat="42.884177975356579" lon="-2.641679998487234">
        <ele>515.39999999999998</ele>
        <time>2019-06-23T10:25:32Z</time>
      </trkpt>
      <trkpt lat="42.884001033380628" lon="-2.641716040670872">
        <ele>515.20000000000005</ele>
        <time>2019-06-23T10:25:34Z</time>
      </trkpt>
      <trkpt lat="42.883821995928884" lon="-2.641750993207097">
        <ele>515</ele>
        <time>2019-06-23T10:25:36Z</time>
      </trkpt>
      <trkpt lat="42.883642958477139" lon="-2.641786029562354">
        <ele>515</ele>
        <time>2019-06-23T10:25:38Z</time>
      </trkpt>
      <trkpt lat="42.883553020656109" lon="-2.641802961006761">
        <ele>515</ele>
        <time>2019-06-23T10:25:39Z</time>
      </trkpt>
      <trkpt lat="42.883462999016047" lon="-2.641822993755341">
        <ele>515</ele>
        <time>2019-06-23T10:25:40Z</time>
      </trkpt>
      <trkpt lat="42.883371971547604" lon="-2.641845960170031">
        <ele>515</ele>
        <time>2019-06-23T10:25:41Z</time>
      </trkpt>
      <trkpt lat="42.883281027898192" lon="-2.641866998746991">
        <ele>515</ele>
        <time>2019-06-23T10:25:42Z</time>
      </trkpt>
      <trkpt lat="42.883098972961307" lon="-2.641905974596739">
        <ele>515</ele>
        <time>2019-06-23T10:25:44Z</time>
      </trkpt>
      <trkpt lat="42.882913984358311" lon="-2.641945034265518">
        <ele>515</ele>
        <time>2019-06-23T10:25:46Z</time>
      </trkpt>
      <trkpt lat="42.882726984098554" lon="-2.641985015943646">
        <ele>515</ele>
        <time>2019-06-23T10:25:48Z</time>
      </trkpt>
      <trkpt lat="42.882634028792381" lon="-2.642004964873195">
        <ele>515</ele>
        <time>2019-06-23T10:25:49Z</time>
      </trkpt>
      <trkpt lat="42.882539983838797" lon="-2.642026003450155">
        <ele>515</ele>
        <time>2019-06-23T10:25:50Z</time>
      </trkpt>
      <trkpt lat="42.882348960265517" lon="-2.642067996785045">
        <ele>514.79999999999995</ele>
        <time>2019-06-23T10:25:52Z</time>
      </trkpt>
      <trkpt lat="42.882153997197747" lon="-2.642109990119934">
        <ele>514.79999999999995</ele>
        <time>2019-06-23T10:25:54Z</time>
      </trkpt>
      <trkpt lat="42.881954004988074" lon="-2.642151983454824">
        <ele>514.60000000000002</ele>
        <time>2019-06-23T10:25:56Z</time>
      </trkpt>
      <trkpt lat="42.881856020539999" lon="-2.642174027860165">
        <ele>514.39999999999998</ele>
        <time>2019-06-23T10:25:57Z</time>
      </trkpt>
      <trkpt lat="42.881757030263543" lon="-2.642191965132952">
        <ele>514.39999999999998</ele>
        <time>2019-06-23T10:25:58Z</time>
      </trkpt>
      <trkpt lat="42.881567012518644" lon="-2.642224989831448">
        <ele>514.39999999999998</ele>
        <time>2019-06-23T10:26:00Z</time>
      </trkpt>
      <trkpt lat="42.881475985050201" lon="-2.642243010923266">
        <ele>514.20000000000005</ele>
        <time>2019-06-23T10:26:01Z</time>
      </trkpt>
      <trkpt lat="42.88138504140079" lon="-2.642259020358324">
        <ele>514.20000000000005</ele>
        <time>2019-06-23T10:26:02Z</time>
      </trkpt>
      <trkpt lat="42.88129803724587" lon="-2.642277041450143">
        <ele>514.39999999999998</ele>
        <time>2019-06-23T10:26:03Z</time>
      </trkpt>
      <trkpt lat="42.881212960928679" lon="-2.64229497872293">
        <ele>514.20000000000005</ele>
        <time>2019-06-23T10:26:04Z</time>
      </trkpt>
      <trkpt lat="42.88104297593236" lon="-2.642330015078187">
        <ele>514.20000000000005</ele>
        <time>2019-06-23T10:26:06Z</time>
      </trkpt>
      <trkpt lat="42.88087097927928" lon="-2.642366979271174">
        <ele>514.20000000000005</ele>
        <time>2019-06-23T10:26:08Z</time>
      </trkpt>
      <trkpt lat="42.880694037303329" lon="-2.642410984262824">
        <ele>514.60000000000002</ele>
        <time>2019-06-23T10:26:10Z</time>
      </trkpt>
      <trkpt lat="42.880508964881301" lon="-2.642449038103223">
        <ele>515</ele>
        <time>2019-06-23T10:26:12Z</time>
      </trkpt>
      <trkpt lat="42.880325987935066" lon="-2.642493965104222">
        <ele>515.20000000000005</ele>
        <time>2019-06-23T10:26:14Z</time>
      </trkpt>
      <trkpt lat="42.88014099933207" lon="-2.642531013116241">
        <ele>515.20000000000005</ele>
        <time>2019-06-23T10:26:16Z</time>
      </trkpt>
      <trkpt lat="42.880047960206866" lon="-2.642550962045789">
        <ele>515</ele>
        <time>2019-06-23T10:26:17Z</time>
      </trkpt>
      <trkpt lat="42.879955004900694" lon="-2.642569988965988">
        <ele>515.20000000000005</ele>
        <time>2019-06-23T10:26:18Z</time>
      </trkpt>
      <trkpt lat="42.879770016297698" lon="-2.642597984522581">
        <ele>515.20000000000005</ele>
        <time>2019-06-23T10:26:20Z</time>
      </trkpt>
      <trkpt lat="42.879585027694702" lon="-2.642610976472497">
        <ele>515</ele>
        <time>2019-06-23T10:26:22Z</time>
      </trkpt>
      <trkpt lat="42.879398027434945" lon="-2.642613993957639">
        <ele>515.20000000000005</ele>
        <time>2019-06-23T10:26:24Z</time>
      </trkpt>
      <trkpt lat="42.879210021346807" lon="-2.642620028927922">
        <ele>515</ele>
        <time>2019-06-23T10:26:26Z</time>
      </trkpt>
      <trkpt lat="42.879115976393223" lon="-2.642621034756303">
        <ele>515.20000000000005</ele>
        <time>2019-06-23T10:26:27Z</time>
      </trkpt>
      <trkpt lat="42.879025032743812" lon="-2.642622962594032">
        <ele>515.20000000000005</ele>
        <time>2019-06-23T10:26:28Z</time>
      </trkpt>
      <trkpt lat="42.878848006948829" lon="-2.642622962594032">
        <ele>515</ele>
        <time>2019-06-23T10:26:30Z</time>
      </trkpt>
      <trkpt lat="42.878670981153846" lon="-2.642624974250794">
        <ele>515.20000000000005</ele>
        <time>2019-06-23T10:26:32Z</time>
      </trkpt>
      <trkpt lat="42.878490015864372" lon="-2.642625980079174">
        <ele>515.20000000000005</ele>
        <time>2019-06-23T10:26:34Z</time>
      </trkpt>
      <trkpt lat="42.878309972584248" lon="-2.642634026706219">
        <ele>515.39999999999998</ele>
        <time>2019-06-23T10:26:36Z</time>
      </trkpt>
      <trkpt lat="42.878130013123155" lon="-2.642651963979006">
        <ele>515.39999999999998</ele>
        <time>2019-06-23T10:26:38Z</time>
      </trkpt>
      <trkpt lat="42.877950975671411" lon="-2.642694963142276">
        <ele>515.60000000000002</ele>
        <time>2019-06-23T10:26:40Z</time>
      </trkpt>
      <trkpt lat="42.877862965688109" lon="-2.642728993669152">
        <ele>515.39999999999998</ele>
        <time>2019-06-23T10:26:41Z</time>
      </trkpt>
      <trkpt lat="42.87777797318995" lon="-2.642776016145945">
        <ele>515.39999999999998</ele>
        <time>2019-06-23T10:26:42Z</time>
      </trkpt>
      <trkpt lat="42.877618968486786" lon="-2.642892021685839">
        <ele>515.60000000000002</ele>
        <time>2019-06-23T10:26:44Z</time>
      </trkpt>
      <trkpt lat="42.877472033724189" lon="-2.64302403666079">
        <ele>515.60000000000002</ele>
        <time>2019-06-23T10:26:46Z</time>
      </trkpt>
      <trkpt lat="42.877332977950573" lon="-2.643154039978981">
        <ele>515.60000000000002</ele>
        <time>2019-06-23T10:26:48Z</time>
      </trkpt>
      <trkpt lat="42.877200962975621" lon="-2.643289994448423">
        <ele>515.60000000000002</ele>
        <time>2019-06-23T10:26:50Z</time>
      </trkpt>
      <trkpt lat="42.877070037648082" lon="-2.643427038565278">
        <ele>515.60000000000002</ele>
        <time>2019-06-23T10:26:52Z</time>
      </trkpt>
      <trkpt lat="42.876937016844749" lon="-2.643557963892818">
        <ele>515.60000000000002</ele>
        <time>2019-06-23T10:26:54Z</time>
      </trkpt>
      <trkpt lat="42.876868033781648" lon="-2.643622001633048">
        <ele>515.79999999999995</ele>
        <time>2019-06-23T10:26:55Z</time>
      </trkpt>
      <trkpt lat="42.876798966899514" lon="-2.643688973039389">
        <ele>515.60000000000002</ele>
        <time>2019-06-23T10:26:56Z</time>
      </trkpt>
      <trkpt lat="42.876729983836412" lon="-2.64375502243638">
        <ele>515.79999999999995</ele>
        <time>2019-06-23T10:26:57Z</time>
      </trkpt>
      <trkpt lat="42.87665999494493" lon="-2.64381998218596">
        <ele>515.60000000000002</ele>
        <time>2019-06-23T10:26:58Z</time>
      </trkpt>
      <trkpt lat="42.876590006053448" lon="-2.64388301409781">
        <ele>515.60000000000002</ele>
        <time>2019-06-23T10:26:59Z</time>
      </trkpt>
      <trkpt lat="42.876520017161965" lon="-2.643946968019009">
        <ele>515.60000000000002</ele>
        <time>2019-06-23T10:27:00Z</time>
      </trkpt>
      <trkpt lat="42.87638096138835" lon="-2.644074037671089">
        <ele>515.79999999999995</ele>
        <time>2019-06-23T10:27:02Z</time>
      </trkpt>
      <trkpt lat="42.876248024404049" lon="-2.644203035160899">
        <ele>515.60000000000002</ele>
        <time>2019-06-23T10:27:04Z</time>
      </trkpt>
      <trkpt lat="42.876113997772336" lon="-2.644327003508806">
        <ele>515.60000000000002</ele>
        <time>2019-06-23T10:27:06Z</time>
      </trkpt>
      <trkpt lat="42.876047026365995" lon="-2.644390035420656">
        <ele>515.79999999999995</ele>
        <time>2019-06-23T10:27:07Z</time>
      </trkpt>
      <trkpt lat="42.875979971140623" lon="-2.644452983513475">
        <ele>515.79999999999995</ele>
        <time>2019-06-23T10:27:08Z</time>
      </trkpt>
      <trkpt lat="42.8758430108428" lon="-2.644576029852033">
        <ele>516</ele>
        <time>2019-06-23T10:27:10Z</time>
      </trkpt>
      <trkpt lat="42.875774027779698" lon="-2.64463696628809">
        <ele>516</ele>
        <time>2019-06-23T10:27:11Z</time>
      </trkpt>
      <trkpt lat="42.875705966725945" lon="-2.644704021513462">
        <ele>516.20000000000005</ele>
        <time>2019-06-23T10:27:12Z</time>
      </trkpt>
      <trkpt lat="42.875636983662844" lon="-2.6447659637779">
        <ele>516.20000000000005</ele>
        <time>2019-06-23T10:27:13Z</time>
      </trkpt>
      <trkpt lat="42.875566994771361" lon="-2.644827989861369">
        <ele>516.39999999999998</ele>
        <time>2019-06-23T10:27:14Z</time>
      </trkpt>
      <trkpt lat="42.875423999503255" lon="-2.644956987351179">
        <ele>516.79999999999995</ele>
        <time>2019-06-23T10:27:16Z</time>
      </trkpt>
      <trkpt lat="42.875275975093246" lon="-2.645089002326131">
        <ele>517.20000000000005</ele>
        <time>2019-06-23T10:27:18Z</time>
      </trkpt>
      <trkpt lat="42.875200035050511" lon="-2.64515396207571">
        <ele>517</ele>
        <time>2019-06-23T10:27:19Z</time>
      </trkpt>
      <trkpt lat="42.875124011188745" lon="-2.645217999815941">
        <ele>517.20000000000005</ele>
        <time>2019-06-23T10:27:20Z</time>
      </trkpt>
      <trkpt lat="42.874972969293594" lon="-2.645339034497738">
        <ele>517.39999999999998</ele>
        <time>2019-06-23T10:27:22Z</time>
      </trkpt>
      <trkpt lat="42.874898035079241" lon="-2.645398965105414">
        <ele>517.60000000000002</ele>
        <time>2019-06-23T10:27:23Z</time>
      </trkpt>
      <trkpt lat="42.874825028702617" lon="-2.645458979532123">
        <ele>517.60000000000002</ele>
        <time>2019-06-23T10:27:24Z</time>
      </trkpt>
      <trkpt lat="42.874675998464227" lon="-2.645579008385539">
        <ele>517.79999999999995</ele>
        <time>2019-06-23T10:27:26Z</time>
      </trkpt>
      <trkpt lat="42.874530991539359" lon="-2.645697025582194">
        <ele>518</ele>
        <time>2019-06-23T10:27:28Z</time>
      </trkpt>
      <trkpt lat="42.874390007928014" lon="-2.645811019465327">
        <ele>518.79999999999995</ele>
        <time>2019-06-23T10:27:30Z</time>
      </trkpt>
      <trkpt lat="42.874323036521673" lon="-2.645862987264991">
        <ele>519</ele>
        <time>2019-06-23T10:27:31Z</time>
      </trkpt>
      <trkpt lat="42.874256987124681" lon="-2.645913027226925">
        <ele>519</ele>
        <time>2019-06-23T10:27:32Z</time>
      </trkpt>
      <trkpt lat="42.874196972697973" lon="-2.645961977541447">
        <ele>519</ele>
        <time>2019-06-23T10:27:33Z</time>
      </trkpt>
      <trkpt lat="42.874143999069929" lon="-2.646017968654633">
        <ele>519.20000000000005</ele>
        <time>2019-06-23T10:27:34Z</time>
      </trkpt>
      <trkpt lat="42.874065963551402" lon="-2.646172028034926">
        <ele>519.60000000000002</ele>
        <time>2019-06-23T10:27:36Z</time>
      </trkpt>
      <trkpt lat="42.874021958559752" lon="-2.646243022754788">
        <ele>519.60000000000002</ele>
        <time>2019-06-23T10:27:37Z</time>
      </trkpt>
      <trkpt lat="42.873964039608836" lon="-2.64628803357482">
        <ele>519.60000000000002</ele>
        <time>2019-06-23T10:27:38Z</time>
      </trkpt>
      <trkpt lat="42.873896984383464" lon="-2.646304965019226">
        <ele>519.39999999999998</ele>
        <time>2019-06-23T10:27:39Z</time>
      </trkpt>
      <trkpt lat="42.873828001320362" lon="-2.646315023303032">
        <ele>519.39999999999998</ele>
        <time>2019-06-23T10:27:40Z</time>
      </trkpt>
      <trkpt lat="42.873757006600499" lon="-2.646340001374483">
        <ele>519.60000000000002</ele>
        <time>2019-06-23T10:27:41Z</time>
      </trkpt>
      <trkpt lat="42.873689029365778" lon="-2.646380988880992">
        <ele>519.60000000000002</ele>
        <time>2019-06-23T10:27:42Z</time>
      </trkpt>
      <trkpt lat="42.873621974140406" lon="-2.646433040499687">
        <ele>519.39999999999998</ele>
        <time>2019-06-23T10:27:43Z</time>
      </trkpt>
      <trkpt lat="42.873553996905684" lon="-2.64648400247097">
        <ele>519.20000000000005</ele>
        <time>2019-06-23T10:27:44Z</time>
      </trkpt>
      <trkpt lat="42.873423993587494" lon="-2.64658902771771">
        <ele>519.39999999999998</ele>
        <time>2019-06-23T10:27:46Z</time>
      </trkpt>
      <trkpt lat="42.873299019411206" lon="-2.646691035479307">
        <ele>519.20000000000005</ele>
        <time>2019-06-23T10:27:48Z</time>
      </trkpt>
      <trkpt lat="42.873176978901029" lon="-2.646794971078634">
        <ele>519</ele>
        <time>2019-06-23T10:27:50Z</time>
      </trkpt>
      <trkpt lat="42.873115036636591" lon="-2.64684702269733">
        <ele>519</ele>
        <time>2019-06-23T10:27:51Z</time>
      </trkpt>
      <trkpt lat="42.873053010553122" lon="-2.646898990496993">
        <ele>519</ele>
        <time>2019-06-23T10:27:52Z</time>
      </trkpt>
      <trkpt lat="42.872927030548453" lon="-2.64699898660183">
        <ele>518.79999999999995</ele>
        <time>2019-06-23T10:27:54Z</time>
      </trkpt>
      <trkpt lat="42.872802978381515" lon="-2.647098982706666">
        <ele>519</ele>
        <time>2019-06-23T10:27:56Z</time>
      </trkpt>
      <trkpt lat="42.872740030288696" lon="-2.64714801684022">
        <ele>518.79999999999995</ele>
        <time>2019-06-23T10:27:57Z</time>
      </trkpt>
      <trkpt lat="42.872678004205227" lon="-2.647195961326361">
        <ele>519</ele>
        <time>2019-06-23T10:27:58Z</time>
      </trkpt>
      <trkpt lat="42.872615978121758" lon="-2.647243989631534">
        <ele>519.20000000000005</ele>
        <time>2019-06-23T10:27:59Z</time>
      </trkpt>
      <trkpt lat="42.872553030028939" lon="-2.647291012108326">
        <ele>519.39999999999998</ele>
        <time>2019-06-23T10:28:00Z</time>
      </trkpt>
      <trkpt lat="42.87242797203362" lon="-2.647393019869924">
        <ele>519.39999999999998</ele>
        <time>2019-06-23T10:28:02Z</time>
      </trkpt>
      <trkpt lat="42.87236301228404" lon="-2.647446999326348">
        <ele>519.60000000000002</ele>
        <time>2019-06-23T10:28:03Z</time>
      </trkpt>
      <trkpt lat="42.872296962887049" lon="-2.647499972954392">
        <ele>519.60000000000002</ele>
        <time>2019-06-23T10:28:04Z</time>
      </trkpt>
      <trkpt lat="42.872161008417606" lon="-2.647607009857893">
        <ele>519.60000000000002</ele>
        <time>2019-06-23T10:28:06Z</time>
      </trkpt>
      <trkpt lat="42.872091019526124" lon="-2.647660989314318">
        <ele>519.79999999999995</ele>
        <time>2019-06-23T10:28:07Z</time>
      </trkpt>
      <trkpt lat="42.872022036463022" lon="-2.647714968770742">
        <ele>519.39999999999998</ele>
        <time>2019-06-23T10:28:08Z</time>
      </trkpt>
      <trkpt lat="42.871955987066031" lon="-2.647766014561057">
        <ele>519.60000000000002</ele>
        <time>2019-06-23T10:28:09Z</time>
      </trkpt>
      <trkpt lat="42.87189002148807" lon="-2.64781697653234">
        <ele>519.39999999999998</ele>
        <time>2019-06-23T10:28:10Z</time>
      </trkpt>
      <trkpt lat="42.871758006513119" lon="-2.647915966808796">
        <ele>518.79999999999995</ele>
        <time>2019-06-23T10:28:12Z</time>
      </trkpt>
      <trkpt lat="42.871624985709786" lon="-2.648018980398774">
        <ele>518.60000000000002</ele>
        <time>2019-06-23T10:28:14Z</time>
      </trkpt>
      <trkpt lat="42.871488025411963" lon="-2.648126017302275">
        <ele>518.20000000000005</ele>
        <time>2019-06-23T10:28:16Z</time>
      </trkpt>
      <trkpt lat="42.871347041800618" lon="-2.648235987871885">
        <ele>518</ele>
        <time>2019-06-23T10:28:18Z</time>
      </trkpt>
      <trkpt lat="42.871274035423994" lon="-2.648290973156691">
        <ele>518</ele>
        <time>2019-06-23T10:28:19Z</time>
      </trkpt>
      <trkpt lat="42.871199017390609" lon="-2.648346964269877">
        <ele>517.60000000000002</ele>
        <time>2019-06-23T10:28:20Z</time>
      </trkpt>
      <trkpt lat="42.87105199880898" lon="-2.648462969809771">
        <ele>517.20000000000005</ele>
        <time>2019-06-23T10:28:22Z</time>
      </trkpt>
      <trkpt lat="42.87090003490448" lon="-2.648587021976709">
        <ele>517.20000000000005</ele>
        <time>2019-06-23T10:28:24Z</time>
      </trkpt>
      <trkpt lat="42.870826022699475" lon="-2.648647958412767">
        <ele>517</ele>
        <time>2019-06-23T10:28:25Z</time>
      </trkpt>
      <trkpt lat="42.870747987180948" lon="-2.648706967011094">
        <ele>517</ele>
        <time>2019-06-23T10:28:26Z</time>
      </trkpt>
      <trkpt lat="42.870595017448068" lon="-2.648826995864511">
        <ele>516.39999999999998</ele>
        <time>2019-06-23T10:28:28Z</time>
      </trkpt>
      <trkpt lat="42.870439030230045" lon="-2.648946018889546">
        <ele>516</ele>
        <time>2019-06-23T10:28:30Z</time>
      </trkpt>
      <trkpt lat="42.870362000539899" lon="-2.649007039144635">
        <ele>516</ele>
        <time>2019-06-23T10:28:31Z</time>
      </trkpt>
      <trkpt lat="42.870283965021372" lon="-2.649068981409073">
        <ele>516</ele>
        <time>2019-06-23T10:28:32Z</time>
      </trkpt>
      <trkpt lat="42.870129989460111" lon="-2.649191021919251">
        <ele>515.39999999999998</ele>
        <time>2019-06-23T10:28:34Z</time>
      </trkpt>
      <trkpt lat="42.869978025555611" lon="-2.649311972782016">
        <ele>515.39999999999998</ele>
        <time>2019-06-23T10:28:36Z</time>
      </trkpt>
      <trkpt lat="42.869825977832079" lon="-2.649430995807052">
        <ele>514.60000000000002</ele>
        <time>2019-06-23T10:28:38Z</time>
      </trkpt>
      <trkpt lat="42.869748026132584" lon="-2.649488998576999">
        <ele>514.39999999999998</ele>
        <time>2019-06-23T10:28:39Z</time>
      </trkpt>
      <trkpt lat="42.869674013927579" lon="-2.649545995518565">
        <ele>514.20000000000005</ele>
        <time>2019-06-23T10:28:40Z</time>
      </trkpt>
      <trkpt lat="42.869529007002711" lon="-2.649657977744937">
        <ele>514</ele>
        <time>2019-06-23T10:28:42Z</time>
      </trkpt>
      <trkpt lat="42.869386011734605" lon="-2.649768032133579">
        <ele>513.39999999999998</ele>
        <time>2019-06-23T10:28:44Z</time>
      </trkpt>
      <trkpt lat="42.869313005357981" lon="-2.649824023246765">
        <ele>513.39999999999998</ele>
        <time>2019-06-23T10:28:45Z</time>
      </trkpt>
      <trkpt lat="42.869239998981357" lon="-2.649880014359951">
        <ele>513.20000000000005</ele>
        <time>2019-06-23T10:28:46Z</time>
      </trkpt>
      <trkpt lat="42.869167998433113" lon="-2.649938017129898">
        <ele>513.20000000000005</ele>
        <time>2019-06-23T10:28:47Z</time>
      </trkpt>
      <trkpt lat="42.869093986228108" lon="-2.649996019899845">
        <ele>513.20000000000005</ele>
        <time>2019-06-23T10:28:48Z</time>
      </trkpt>
      <trkpt lat="42.869019974023104" lon="-2.650053016841412">
        <ele>513.20000000000005</ele>
        <time>2019-06-23T10:28:49Z</time>
      </trkpt>
      <trkpt lat="42.86894696764648" lon="-2.650111019611359">
        <ele>513</ele>
        <time>2019-06-23T10:28:50Z</time>
      </trkpt>
      <trkpt lat="42.868802966549993" lon="-2.650224007666111">
        <ele>512.79999999999995</ele>
        <time>2019-06-23T10:28:52Z</time>
      </trkpt>
      <trkpt lat="42.868660977110267" lon="-2.650338001549244">
        <ele>512.60000000000002</ele>
        <time>2019-06-23T10:28:54Z</time>
      </trkpt>
      <trkpt lat="42.868518987670541" lon="-2.650449983775616">
        <ele>512.60000000000002</ele>
        <time>2019-06-23T10:28:56Z</time>
      </trkpt>
      <trkpt lat="42.868448998779058" lon="-2.650506980717182">
        <ele>512.60000000000002</ele>
        <time>2019-06-23T10:28:57Z</time>
      </trkpt>
      <trkpt lat="42.868378004059196" lon="-2.650561966001988">
        <ele>512.60000000000002</ele>
        <time>2019-06-23T10:28:58Z</time>
      </trkpt>
      <trkpt lat="42.868309020996094" lon="-2.650618040934205">
        <ele>512.60000000000002</ele>
        <time>2019-06-23T10:28:59Z</time>
      </trkpt>
      <trkpt lat="42.868239032104611" lon="-2.65067302621901">
        <ele>512.39999999999998</ele>
        <time>2019-06-23T10:29:00Z</time>
      </trkpt>
      <trkpt lat="42.868168959394097" lon="-2.650729017332196">
        <ele>512.39999999999998</ele>
        <time>2019-06-23T10:29:01Z</time>
      </trkpt>
      <trkpt lat="42.868098970502615" lon="-2.650784002617002">
        <ele>512.39999999999998</ele>
        <time>2019-06-23T10:29:02Z</time>
      </trkpt>
      <trkpt lat="42.867959998548031" lon="-2.650893973186612">
        <ele>512.39999999999998</ele>
        <time>2019-06-23T10:29:04Z</time>
      </trkpt>
      <trkpt lat="42.867890009656549" lon="-2.650948958471417">
        <ele>512.60000000000002</ele>
        <time>2019-06-23T10:29:05Z</time>
      </trkpt>
      <trkpt lat="42.867821026593447" lon="-2.651006961241365">
        <ele>512.79999999999995</ele>
        <time>2019-06-23T10:29:06Z</time>
      </trkpt>
      <trkpt lat="42.867681970819831" lon="-2.65112497843802">
        <ele>512.60000000000002</ele>
        <time>2019-06-23T10:29:08Z</time>
      </trkpt>
      <trkpt lat="42.867612987756729" lon="-2.651184992864728">
        <ele>512.60000000000002</ele>
        <time>2019-06-23T10:29:09Z</time>
      </trkpt>
      <trkpt lat="42.867544004693627" lon="-2.651242995634675">
        <ele>512.39999999999998</ele>
        <time>2019-06-23T10:29:10Z</time>
      </trkpt>
      <trkpt lat="42.867404026910663" lon="-2.651359001174569">
        <ele>512.39999999999998</ele>
        <time>2019-06-23T10:29:12Z</time>
      </trkpt>
      <trkpt lat="42.867262037470937" lon="-2.651466960087419">
        <ele>512.39999999999998</ele>
        <time>2019-06-23T10:29:14Z</time>
      </trkpt>
      <trkpt lat="42.867122981697321" lon="-2.651571985334158">
        <ele>512.20000000000005</ele>
        <time>2019-06-23T10:29:16Z</time>
      </trkpt>
      <trkpt lat="42.866983003914356" lon="-2.65168497338891">
        <ele>512.39999999999998</ele>
        <time>2019-06-23T10:29:18Z</time>
      </trkpt>
      <trkpt lat="42.866845959797502" lon="-2.651796033605933">
        <ele>512.60000000000002</ele>
        <time>2019-06-23T10:29:20Z</time>
      </trkpt>
      <trkpt lat="42.8667769767344" lon="-2.65185403637588">
        <ele>512.60000000000002</ele>
        <time>2019-06-23T10:29:21Z</time>
      </trkpt>
      <trkpt lat="42.866708999499679" lon="-2.651912961155176">
        <ele>512.79999999999995</ele>
        <time>2019-06-23T10:29:22Z</time>
      </trkpt>
      <trkpt lat="42.866577990353107" lon="-2.652029972523451">
        <ele>512.60000000000002</ele>
        <time>2019-06-23T10:29:24Z</time>
      </trkpt>
      <trkpt lat="42.866444969549775" lon="-2.652142960578203">
        <ele>512.60000000000002</ele>
        <time>2019-06-23T10:29:26Z</time>
      </trkpt>
      <trkpt lat="42.866376992315054" lon="-2.652199035510421">
        <ele>512.79999999999995</ele>
        <time>2019-06-23T10:29:27Z</time>
      </trkpt>
      <trkpt lat="42.866309015080333" lon="-2.652253014966846">
        <ele>512.79999999999995</ele>
        <time>2019-06-23T10:29:28Z</time>
      </trkpt>
      <trkpt lat="42.866175994277" lon="-2.652372037991881">
        <ele>513</ele>
        <time>2019-06-23T10:29:30Z</time>
      </trkpt>
      <trkpt lat="42.866040039807558" lon="-2.652484020218253">
        <ele>512.79999999999995</ele>
        <time>2019-06-23T10:29:32Z</time>
      </trkpt>
      <trkpt lat="42.865970972925425" lon="-2.652540011331439">
        <ele>513</ele>
        <time>2019-06-23T10:29:33Z</time>
      </trkpt>
      <trkpt lat="42.865901989862323" lon="-2.652593990787864">
        <ele>513</ele>
        <time>2019-06-23T10:29:34Z</time>
      </trkpt>
      <trkpt lat="42.865764023736119" lon="-2.652704967185855">
        <ele>513.20000000000005</ele>
        <time>2019-06-23T10:29:36Z</time>
      </trkpt>
      <trkpt lat="42.865629997104406" lon="-2.652817033231258">
        <ele>513</ele>
        <time>2019-06-23T10:29:38Z</time>
      </trkpt>
      <trkpt lat="42.865497982129455" lon="-2.652919040992856">
        <ele>513</ele>
        <time>2019-06-23T10:29:40Z</time>
      </trkpt>
      <trkpt lat="42.865362027660012" lon="-2.653013002127409">
        <ele>513.20000000000005</ele>
        <time>2019-06-23T10:29:42Z</time>
      </trkpt>
      <trkpt lat="42.865223977714777" lon="-2.653106963261962">
        <ele>513.20000000000005</ele>
        <time>2019-06-23T10:29:44Z</time>
      </trkpt>
      <trkpt lat="42.865089029073715" lon="-2.653202014043927">
        <ele>513.20000000000005</ele>
        <time>2019-06-23T10:29:46Z</time>
      </trkpt>
      <trkpt lat="42.864964976906776" lon="-2.65329597517848">
        <ele>513.20000000000005</ele>
        <time>2019-06-23T10:29:48Z</time>
      </trkpt>
      <trkpt lat="42.864849977195263" lon="-2.653389014303684">
        <ele>513.39999999999998</ele>
        <time>2019-06-23T10:29:50Z</time>
      </trkpt>
      <trkpt lat="42.864795997738838" lon="-2.653430001810193">
        <ele>513.60000000000002</ele>
        <time>2019-06-23T10:29:51Z</time>
      </trkpt>
      <trkpt lat="42.864751992747188" lon="-2.65346503816545">
        <ele>513.39999999999998</ele>
        <time>2019-06-23T10:29:52Z</time>
      </trkpt>
      <trkpt lat="42.864678986370564" lon="-2.653516000136733">
        <ele>513.60000000000002</ele>
        <time>2019-06-23T10:29:54Z</time>
      </trkpt>
      <trkpt lat="42.864647973328829" lon="-2.653540978208184">
        <ele>513.60000000000002</ele>
        <time>2019-06-23T10:29:55Z</time>
      </trkpt>
      <trkpt lat="42.864615032449365" lon="-2.653571991249919">
        <ele>513.60000000000002</ele>
        <time>2019-06-23T10:29:56Z</time>
      </trkpt>
      <trkpt lat="42.864550994709134" lon="-2.653656983748078">
        <ele>513.60000000000002</ele>
        <time>2019-06-23T10:29:58Z</time>
      </trkpt>
      <trkpt lat="42.864517970010638" lon="-2.653710041195154">
        <ele>513.79999999999995</ele>
        <time>2019-06-23T10:29:59Z</time>
      </trkpt>
      <trkpt lat="42.864481005817652" lon="-2.653758991509676">
        <ele>513.79999999999995</ele>
        <time>2019-06-23T10:30:00Z</time>
      </trkpt>
      <trkpt lat="42.864380003884435" lon="-2.653821017593145">
        <ele>513.79999999999995</ele>
        <time>2019-06-23T10:30:02Z</time>
      </trkpt>
      <trkpt lat="42.864319989457726" lon="-2.653816994279623">
        <ele>513.79999999999995</ele>
        <time>2019-06-23T10:30:03Z</time>
      </trkpt>
      <trkpt lat="42.864263998344541" lon="-2.653791010379791">
        <ele>513.79999999999995</ele>
        <time>2019-06-23T10:30:04Z</time>
      </trkpt>
      <trkpt lat="42.864181017503142" lon="-2.653668969869614">
        <ele>513.79999999999995</ele>
        <time>2019-06-23T10:30:06Z</time>
      </trkpt>
      <trkpt lat="42.864165008068085" lon="-2.653483981266618">
        <ele>514</ele>
        <time>2019-06-23T10:30:08Z</time>
      </trkpt>
      <trkpt lat="42.864180011674762" lon="-2.653384990990162">
        <ele>514</ele>
        <time>2019-06-23T10:30:09Z</time>
      </trkpt>
      <trkpt lat="42.864198032766581" lon="-2.653286000713706">
        <ele>513.79999999999995</ele>
        <time>2019-06-23T10:30:10Z</time>
      </trkpt>
      <trkpt lat="42.864205995574594" lon="-2.653180975466967">
        <ele>513.60000000000002</ele>
        <time>2019-06-23T10:30:11Z</time>
      </trkpt>
      <trkpt lat="42.864202978089452" lon="-2.653075028210878">
        <ele>513.60000000000002</ele>
        <time>2019-06-23T10:30:12Z</time>
      </trkpt>
      <trkpt lat="42.8641970269382" lon="-2.652968997135758">
        <ele>513.60000000000002</ele>
        <time>2019-06-23T10:30:13Z</time>
      </trkpt>
      <trkpt lat="42.864189986139536" lon="-2.652862966060638">
        <ele>513.39999999999998</ele>
        <time>2019-06-23T10:30:14Z</time>
      </trkpt>
      <trkpt lat="42.864172970876098" lon="-2.65265098772943">
        <ele>513.39999999999998</ele>
        <time>2019-06-23T10:30:16Z</time>
      </trkpt>
      <trkpt lat="42.864153021946549" lon="-2.652438003569841">
        <ele>513.39999999999998</ele>
        <time>2019-06-23T10:30:18Z</time>
      </trkpt>
      <trkpt lat="42.864131983369589" lon="-2.652227031067014">
        <ele>513.39999999999998</ele>
        <time>2019-06-23T10:30:20Z</time>
      </trkpt>
      <trkpt lat="42.864112034440041" lon="-2.652014968916774">
        <ele>513.60000000000002</ele>
        <time>2019-06-23T10:30:22Z</time>
      </trkpt>
      <trkpt lat="42.864101976156235" lon="-2.651908015832305">
        <ele>513.39999999999998</ele>
        <time>2019-06-23T10:30:23Z</time>
      </trkpt>
      <trkpt lat="42.864093007519841" lon="-2.651799973100424">
        <ele>513.39999999999998</ele>
        <time>2019-06-23T10:30:24Z</time>
      </trkpt>
      <trkpt lat="42.864082027226686" lon="-2.651693020015955">
        <ele>513.39999999999998</ele>
        <time>2019-06-23T10:30:25Z</time>
      </trkpt>
      <trkpt lat="42.8640709631145" lon="-2.651585983112454">
        <ele>513.39999999999998</ele>
        <time>2019-06-23T10:30:26Z</time>
      </trkpt>
      <trkpt lat="42.864059982821345" lon="-2.651479030027986">
        <ele>513.39999999999998</ele>
        <time>2019-06-23T10:30:27Z</time>
      </trkpt>
      <trkpt lat="42.864050008356571" lon="-2.651372998952866">
        <ele>513.39999999999998</ele>
        <time>2019-06-23T10:30:28Z</time>
      </trkpt>
      <trkpt lat="42.864026958122849" lon="-2.651159008964896">
        <ele>513.39999999999998</ele>
        <time>2019-06-23T10:30:30Z</time>
      </trkpt>
      <trkpt lat="42.864006003364921" lon="-2.650947030633688">
        <ele>513.60000000000002</ele>
        <time>2019-06-23T10:30:32Z</time>
      </trkpt>
      <trkpt lat="42.863987982273102" lon="-2.650735974311829">
        <ele>513.60000000000002</ele>
        <time>2019-06-23T10:30:34Z</time>
      </trkpt>
      <trkpt lat="42.863969961181283" lon="-2.650526007637382">
        <ele>513.60000000000002</ele>
        <time>2019-06-23T10:30:36Z</time>
      </trkpt>
      <trkpt lat="42.863952023908496" lon="-2.650316962972283">
        <ele>513.39999999999998</ele>
        <time>2019-06-23T10:30:38Z</time>
      </trkpt>
      <trkpt lat="42.863932996988297" lon="-2.650108002126217">
        <ele>513.39999999999998</ele>
        <time>2019-06-23T10:30:40Z</time>
      </trkpt>
      <trkpt lat="42.863911036401987" lon="-2.649899963289499">
        <ele>513.39999999999998</ele>
        <time>2019-06-23T10:30:42Z</time>
      </trkpt>
      <trkpt lat="42.863888991996646" lon="-2.649693014100194">
        <ele>513.39999999999998</ele>
        <time>2019-06-23T10:30:44Z</time>
      </trkpt>
      <trkpt lat="42.863866025581956" lon="-2.649490004405379">
        <ele>513.39999999999998</ele>
        <time>2019-06-23T10:30:46Z</time>
      </trkpt>
      <trkpt lat="42.863845992833376" lon="-2.649309039115906">
        <ele>513.60000000000002</ele>
        <time>2019-06-23T10:30:48Z</time>
      </trkpt>
      <trkpt lat="42.863829983398318" lon="-2.649179035797715">
        <ele>514</ele>
        <time>2019-06-23T10:30:50Z</time>
      </trkpt>
      <trkpt lat="42.863817997276783" lon="-2.649084990844131">
        <ele>514.39999999999998</ele>
        <time>2019-06-23T10:30:52Z</time>
      </trkpt>
      <trkpt lat="42.863794025033712" lon="-2.649025982245803">
        <ele>514.39999999999998</ele>
        <time>2019-06-23T10:30:54Z</time>
      </trkpt>
      <trkpt lat="42.863739039748907" lon="-2.648974014446139">
        <ele>514.60000000000002</ele>
        <time>2019-06-23T10:30:56Z</time>
      </trkpt>
      <trkpt lat="42.863699980080128" lon="-2.648960016667843">
        <ele>514.60000000000002</ele>
        <time>2019-06-23T10:30:57Z</time>
      </trkpt>
      <trkpt lat="42.863653041422367" lon="-2.648947024717927">
        <ele>514.60000000000002</ele>
        <time>2019-06-23T10:30:58Z</time>
      </trkpt>
      <trkpt lat="42.863546004518867" lon="-2.648918023332954">
        <ele>514.79999999999995</ele>
        <time>2019-06-23T10:31:00Z</time>
      </trkpt>
      <trkpt lat="42.863490013405681" lon="-2.648918023332954">
        <ele>514.60000000000002</ele>
        <time>2019-06-23T10:31:01Z</time>
      </trkpt>
      <trkpt lat="42.863433016464114" lon="-2.648938978090882">
        <ele>514.60000000000002</ele>
        <time>2019-06-23T10:31:02Z</time>
      </trkpt>
      <trkpt lat="42.863376019522548" lon="-2.648976026102901">
        <ele>514.60000000000002</ele>
        <time>2019-06-23T10:31:03Z</time>
      </trkpt>
      <trkpt lat="42.863318016752601" lon="-2.649019025266171">
        <ele>514.79999999999995</ele>
        <time>2019-06-23T10:31:04Z</time>
      </trkpt>
      <trkpt lat="42.863198993727565" lon="-2.649108963087201">
        <ele>514.79999999999995</ele>
        <time>2019-06-23T10:31:06Z</time>
      </trkpt>
      <trkpt lat="42.863138979300857" lon="-2.649151962250471">
        <ele>514.79999999999995</ele>
        <time>2019-06-23T10:31:07Z</time>
      </trkpt>
      <trkpt lat="42.863078964874148" lon="-2.649195967242122">
        <ele>514.79999999999995</ele>
        <time>2019-06-23T10:31:08Z</time>
      </trkpt>
      <trkpt lat="42.863019034266472" lon="-2.649240978062153">
        <ele>514.79999999999995</ele>
        <time>2019-06-23T10:31:09Z</time>
      </trkpt>
      <trkpt lat="42.862959019839764" lon="-2.649284983053803">
        <ele>514.79999999999995</ele>
        <time>2019-06-23T10:31:10Z</time>
      </trkpt>
      <trkpt lat="42.862837985157967" lon="-2.649372993037105">
        <ele>514.79999999999995</ele>
        <time>2019-06-23T10:31:12Z</time>
      </trkpt>
      <trkpt lat="42.862716028466821" lon="-2.649459997192025">
        <ele>514.60000000000002</ele>
        <time>2019-06-23T10:31:14Z</time>
      </trkpt>
      <trkpt lat="42.862592982128263" lon="-2.649544989690185">
        <ele>514.60000000000002</ele>
        <time>2019-06-23T10:31:16Z</time>
      </trkpt>
      <trkpt lat="42.862531961873174" lon="-2.649586983025074">
        <ele>514.60000000000002</ele>
        <time>2019-06-23T10:31:17Z</time>
      </trkpt>
      <trkpt lat="42.862471025437117" lon="-2.649628976359963">
        <ele>514.39999999999998</ele>
        <time>2019-06-23T10:31:18Z</time>
      </trkpt>
      <trkpt lat="42.862410005182028" lon="-2.649671975523233">
        <ele>514.60000000000002</ele>
        <time>2019-06-23T10:31:19Z</time>
      </trkpt>
      <trkpt lat="42.862348984926939" lon="-2.649714974686503">
        <ele>514.39999999999998</ele>
        <time>2019-06-23T10:31:20Z</time>
      </trkpt>
      <trkpt lat="42.862227028235793" lon="-2.649800973013043">
        <ele>514.39999999999998</ele>
        <time>2019-06-23T10:31:22Z</time>
      </trkpt>
      <trkpt lat="42.862104987725616" lon="-2.649886971339583">
        <ele>514.39999999999998</ele>
        <time>2019-06-23T10:31:24Z</time>
      </trkpt>
      <trkpt lat="42.86198303103447" lon="-2.649974981322885">
        <ele>514.39999999999998</ele>
        <time>2019-06-23T10:31:26Z</time>
      </trkpt>
      <trkpt lat="42.861858978867531" lon="-2.65007003210485">
        <ele>514.39999999999998</ele>
        <time>2019-06-23T10:31:28Z</time>
      </trkpt>
      <trkpt lat="42.861796030774713" lon="-2.65011697076261">
        <ele>514.60000000000002</ele>
        <time>2019-06-23T10:31:29Z</time>
      </trkpt>
      <trkpt lat="42.861730987206101" lon="-2.650164999067783">
        <ele>514.60000000000002</ele>
        <time>2019-06-23T10:31:30Z</time>
      </trkpt>
      <trkpt lat="42.861597966402769" lon="-2.650261977687478">
        <ele>514.60000000000002</ele>
        <time>2019-06-23T10:31:32Z</time>
      </trkpt>
      <trkpt lat="42.861462011933327" lon="-2.650361973792315">
        <ele>514.79999999999995</ele>
        <time>2019-06-23T10:31:34Z</time>
      </trkpt>
      <trkpt lat="42.861324967816472" lon="-2.650459036231041">
        <ele>515</ele>
        <time>2019-06-23T10:31:36Z</time>
      </trkpt>
      <trkpt lat="42.861188007518649" lon="-2.650557020679116">
        <ele>515</ele>
        <time>2019-06-23T10:31:38Z</time>
      </trkpt>
      <trkpt lat="42.861051969230175" lon="-2.650653999298811">
        <ele>515.20000000000005</ele>
        <time>2019-06-23T10:31:40Z</time>
      </trkpt>
      <trkpt lat="42.860916014760733" lon="-2.650751983746886">
        <ele>515.20000000000005</ele>
        <time>2019-06-23T10:31:42Z</time>
      </trkpt>
      <trkpt lat="42.860779976472259" lon="-2.650850974023342">
        <ele>515.20000000000005</ele>
        <time>2019-06-23T10:31:44Z</time>
      </trkpt>
      <trkpt lat="42.860643016174436" lon="-2.650948958471417">
        <ele>515.39999999999998</ele>
        <time>2019-06-23T10:31:46Z</time>
      </trkpt>
      <trkpt lat="42.860574033111334" lon="-2.650997992604971">
        <ele>515.39999999999998</ele>
        <time>2019-06-23T10:31:47Z</time>
      </trkpt>
      <trkpt lat="42.8605049662292" lon="-2.651049038395286">
        <ele>515.39999999999998</ele>
        <time>2019-06-23T10:31:48Z</time>
      </trkpt>
      <trkpt lat="42.860367000102997" lon="-2.651149034500122">
        <ele>515.20000000000005</ele>
        <time>2019-06-23T10:31:50Z</time>
      </trkpt>
      <trkpt lat="42.860298017039895" lon="-2.651195973157883">
        <ele>515.20000000000005</ele>
        <time>2019-06-23T10:31:51Z</time>
      </trkpt>
      <trkpt lat="42.860228028148413" lon="-2.651244001463056">
        <ele>515.20000000000005</ele>
        <time>2019-06-23T10:31:52Z</time>
      </trkpt>
      <trkpt lat="42.860089978203177" lon="-2.651345003396273">
        <ele>515.39999999999998</ele>
        <time>2019-06-23T10:31:54Z</time>
      </trkpt>
      <trkpt lat="42.859951006248593" lon="-2.651448016986251">
        <ele>515.39999999999998</ele>
        <time>2019-06-23T10:31:56Z</time>
      </trkpt>
      <trkpt lat="42.859810022637248" lon="-2.651547007262707">
        <ele>515.39999999999998</ele>
        <time>2019-06-23T10:31:58Z</time>
      </trkpt>
      <trkpt lat="42.859667027369142" lon="-2.651649015024304">
        <ele>515.39999999999998</ele>
        <time>2019-06-23T10:32:00Z</time>
      </trkpt>
      <trkpt lat="42.859596032649279" lon="-2.651700982823968">
        <ele>515.60000000000002</ele>
        <time>2019-06-23T10:32:01Z</time>
      </trkpt>
      <trkpt lat="42.859524032101035" lon="-2.651754040271044">
        <ele>515.60000000000002</ele>
        <time>2019-06-23T10:32:02Z</time>
      </trkpt>
      <trkpt lat="42.859381036832929" lon="-2.65185596421361">
        <ele>515.39999999999998</ele>
        <time>2019-06-23T10:32:04Z</time>
      </trkpt>
      <trkpt lat="42.859241981059313" lon="-2.651959983631969">
        <ele>515.39999999999998</ele>
        <time>2019-06-23T10:32:06Z</time>
      </trkpt>
      <trkpt lat="42.859100997447968" lon="-2.652060985565186">
        <ele>515.39999999999998</ele>
        <time>2019-06-23T10:32:08Z</time>
      </trkpt>
      <trkpt lat="42.859030002728105" lon="-2.65211102552712">
        <ele>515.39999999999998</ele>
        <time>2019-06-23T10:32:09Z</time>
      </trkpt>
      <trkpt lat="42.858960013836622" lon="-2.652159975841641">
        <ele>515.39999999999998</ele>
        <time>2019-06-23T10:32:10Z</time>
      </trkpt>
      <trkpt lat="42.858821041882038" lon="-2.652259971946478">
        <ele>515.39999999999998</ele>
        <time>2019-06-23T10:32:12Z</time>
      </trkpt>
      <trkpt lat="42.858681986108422" lon="-2.652358962222934">
        <ele>515.60000000000002</ele>
        <time>2019-06-23T10:32:14Z</time>
      </trkpt>
      <trkpt lat="42.858544019982219" lon="-2.65245602466166">
        <ele>515.39999999999998</ele>
        <time>2019-06-23T10:32:16Z</time>
      </trkpt>
      <trkpt lat="42.858475036919117" lon="-2.652502963319421">
        <ele>515.60000000000002</ele>
        <time>2019-06-23T10:32:17Z</time>
      </trkpt>
      <trkpt lat="42.858405970036983" lon="-2.652549985796213">
        <ele>515.60000000000002</ele>
        <time>2019-06-23T10:32:18Z</time>
      </trkpt>
      <trkpt lat="42.858337992802262" lon="-2.652600025758147">
        <ele>515.60000000000002</ele>
        <time>2019-06-23T10:32:19Z</time>
      </trkpt>
      <trkpt lat="42.858270015567541" lon="-2.652654005214572">
        <ele>515.60000000000002</ele>
        <time>2019-06-23T10:32:20Z</time>
      </trkpt>
      <trkpt lat="42.858208995312452" lon="-2.652722988277674">
        <ele>515.60000000000002</ele>
        <time>2019-06-23T10:32:21Z</time>
      </trkpt>
      <trkpt lat="42.858157027512789" lon="-2.652806974947453">
        <ele>515.60000000000002</ele>
        <time>2019-06-23T10:32:22Z</time>
      </trkpt>
      <trkpt lat="42.858103970065713" lon="-2.652890039607883">
        <ele>515.79999999999995</ele>
        <time>2019-06-23T10:32:23Z</time>
      </trkpt>
      <trkpt lat="42.858049990609288" lon="-2.6529720146209">
        <ele>515.79999999999995</ele>
        <time>2019-06-23T10:32:24Z</time>
      </trkpt>
      <trkpt lat="42.857943037524819" lon="-2.653138982132077">
        <ele>515.79999999999995</ele>
        <time>2019-06-23T10:32:26Z</time>
      </trkpt>
      <trkpt lat="42.857843041419983" lon="-2.653310978785157">
        <ele>516</ele>
        <time>2019-06-23T10:32:28Z</time>
      </trkpt>
      <trkpt lat="42.857793001458049" lon="-2.653395971283317">
        <ele>515.79999999999995</ele>
        <time>2019-06-23T10:32:29Z</time>
      </trkpt>
      <trkpt lat="42.857742961496115" lon="-2.653482975438237">
        <ele>515.79999999999995</ele>
        <time>2019-06-23T10:32:30Z</time>
      </trkpt>
      <trkpt lat="42.857642965391278" lon="-2.653654972091317">
        <ele>516</ele>
        <time>2019-06-23T10:32:32Z</time>
      </trkpt>
      <trkpt lat="42.857543975114822" lon="-2.653825962916017">
        <ele>516.39999999999998</ele>
        <time>2019-06-23T10:32:34Z</time>
      </trkpt>
      <trkpt lat="42.857445990666747" lon="-2.653997037559748">
        <ele>516.39999999999998</ele>
        <time>2019-06-23T10:32:36Z</time>
      </trkpt>
      <trkpt lat="42.85734498873353" lon="-2.654165010899305">
        <ele>516.60000000000002</ele>
        <time>2019-06-23T10:32:38Z</time>
      </trkpt>
      <trkpt lat="42.857250021770597" lon="-2.654342036694288">
        <ele>516.60000000000002</ele>
        <time>2019-06-23T10:32:40Z</time>
      </trkpt>
      <trkpt lat="42.857200987637043" lon="-2.654429962858558">
        <ele>516.60000000000002</ele>
        <time>2019-06-23T10:32:41Z</time>
      </trkpt>
      <trkpt lat="42.857151031494141" lon="-2.654515961185098">
        <ele>516.60000000000002</ele>
        <time>2019-06-23T10:32:42Z</time>
      </trkpt>
      <trkpt lat="42.857099985703826" lon="-2.654602965340018">
        <ele>516.60000000000002</ele>
        <time>2019-06-23T10:32:43Z</time>
      </trkpt>
      <trkpt lat="42.857050029560924" lon="-2.654689969494939">
        <ele>516.39999999999998</ele>
        <time>2019-06-23T10:32:44Z</time>
      </trkpt>
      <trkpt lat="42.856948021799326" lon="-2.654865989461541">
        <ele>516.60000000000002</ele>
        <time>2019-06-23T10:32:46Z</time>
      </trkpt>
      <trkpt lat="42.856850037351251" lon="-2.655046032741666">
        <ele>516.39999999999998</ele>
        <time>2019-06-23T10:32:48Z</time>
      </trkpt>
      <trkpt lat="42.856747023761272" lon="-2.655221968889237">
        <ele>516.20000000000005</ele>
        <time>2019-06-23T10:32:50Z</time>
      </trkpt>
      <trkpt lat="42.856695977970958" lon="-2.655311990529299">
        <ele>516.20000000000005</ele>
        <time>2019-06-23T10:32:51Z</time>
      </trkpt>
      <trkpt lat="42.856645015999675" lon="-2.655401006340981">
        <ele>516.20000000000005</ele>
        <time>2019-06-23T10:32:52Z</time>
      </trkpt>
      <trkpt lat="42.856543008238077" lon="-2.655579037964344">
        <ele>516</ele>
        <time>2019-06-23T10:32:54Z</time>
      </trkpt>
      <trkpt lat="42.856491962447762" lon="-2.655667969956994">
        <ele>516</ele>
        <time>2019-06-23T10:32:55Z</time>
      </trkpt>
      <trkpt lat="42.856437982991338" lon="-2.655754974111915">
        <ele>516</ele>
        <time>2019-06-23T10:32:56Z</time>
      </trkpt>
      <trkpt lat="42.85633304156363" lon="-2.655929988250136">
        <ele>515.60000000000002</ele>
        <time>2019-06-23T10:32:58Z</time>
      </trkpt>
      <trkpt lat="42.856232961639762" lon="-2.656100979074836">
        <ele>515.39999999999998</ele>
        <time>2019-06-23T10:33:00Z</time>
      </trkpt>
      <trkpt lat="42.856132965534925" lon="-2.656261995434761">
        <ele>515.39999999999998</ele>
        <time>2019-06-23T10:33:02Z</time>
      </trkpt>
      <trkpt lat="42.856043027713895" lon="-2.656413959339261">
        <ele>515.39999999999998</ele>
        <time>2019-06-23T10:33:04Z</time>
      </trkpt>
      <trkpt lat="42.855959963053465" lon="-2.656557960435748">
        <ele>515.39999999999998</ele>
        <time>2019-06-23T10:33:06Z</time>
      </trkpt>
      <trkpt lat="42.855877988040447" lon="-2.656695004552603">
        <ele>515.39999999999998</ele>
        <time>2019-06-23T10:33:08Z</time>
      </trkpt>
      <trkpt lat="42.855838006362319" lon="-2.656758036464453">
        <ele>515.39999999999998</ele>
        <time>2019-06-23T10:33:09Z</time>
      </trkpt>
      <trkpt lat="42.855803975835443" lon="-2.656824002042413">
        <ele>515.39999999999998</ele>
        <time>2019-06-23T10:33:10Z</time>
      </trkpt>
      <trkpt lat="42.855768017470837" lon="-2.656962973996997">
        <ele>515.20000000000005</ele>
        <time>2019-06-23T10:33:12Z</time>
      </trkpt>
      <trkpt lat="42.855762988328934" lon="-2.657121978700161">
        <ele>515.39999999999998</ele>
        <time>2019-06-23T10:33:14Z</time>
      </trkpt>
      <trkpt lat="42.855760976672173" lon="-2.65728903003037">
        <ele>515.39999999999998</ele>
        <time>2019-06-23T10:33:16Z</time>
      </trkpt>
      <trkpt lat="42.855747984722257" lon="-2.657374022528529">
        <ele>515.79999999999995</ele>
        <time>2019-06-23T10:33:17Z</time>
      </trkpt>
      <trkpt lat="42.855723006650805" lon="-2.657454991713166">
        <ele>515.60000000000002</ele>
        <time>2019-06-23T10:33:18Z</time>
      </trkpt>
      <trkpt lat="42.855642037466168" lon="-2.657587006688118">
        <ele>515.79999999999995</ele>
        <time>2019-06-23T10:33:20Z</time>
      </trkpt>
      <trkpt lat="42.855524020269513" lon="-2.657662024721503">
        <ele>516.79999999999995</ele>
        <time>2019-06-23T10:33:22Z</time>
      </trkpt>
      <trkpt lat="42.855454031378031" lon="-2.657674010843039">
        <ele>517.20000000000005</ele>
        <time>2019-06-23T10:33:23Z</time>
      </trkpt>
      <trkpt lat="42.855382030829787" lon="-2.657662024721503">
        <ele>517.20000000000005</ele>
        <time>2019-06-23T10:33:24Z</time>
      </trkpt>
      <trkpt lat="42.855248004198074" lon="-2.657582983374596">
        <ele>517.20000000000005</ele>
        <time>2019-06-23T10:33:26Z</time>
      </trkpt>
      <trkpt lat="42.855187989771366" lon="-2.65752699226141">
        <ele>517.20000000000005</ele>
        <time>2019-06-23T10:33:27Z</time>
      </trkpt>
      <trkpt lat="42.855125963687897" lon="-2.657476030290127">
        <ele>517</ele>
        <time>2019-06-23T10:33:28Z</time>
      </trkpt>
      <trkpt lat="42.854987997561693" lon="-2.657435964792967">
        <ele>517</ele>
        <time>2019-06-23T10:33:30Z</time>
      </trkpt>
      <trkpt lat="42.854843996465206" lon="-2.65744199976325">
        <ele>517</ele>
        <time>2019-06-23T10:33:32Z</time>
      </trkpt>
      <trkpt lat="42.854770990088582" lon="-2.657446023076773">
        <ele>517</ele>
        <time>2019-06-23T10:33:33Z</time>
      </trkpt>
      <trkpt lat="42.854698989540339" lon="-2.657449040561914">
        <ele>516.79999999999995</ele>
        <time>2019-06-23T10:33:34Z</time>
      </trkpt>
      <trkpt lat="42.854554988443851" lon="-2.657455997541547">
        <ele>517</ele>
        <time>2019-06-23T10:33:36Z</time>
      </trkpt>
      <trkpt lat="42.854409981518984" lon="-2.65746496617794">
        <ele>516.79999999999995</ele>
        <time>2019-06-23T10:33:38Z</time>
      </trkpt>
      <trkpt lat="42.854265980422497" lon="-2.657472006976605">
        <ele>517</ele>
        <time>2019-06-23T10:33:40Z</time>
      </trkpt>
      <trkpt lat="42.85412197932601" lon="-2.657479969784617">
        <ele>517</ele>
        <time>2019-06-23T10:33:42Z</time>
      </trkpt>
      <trkpt lat="42.853978984057903" lon="-2.657489022240043">
        <ele>517</ele>
        <time>2019-06-23T10:33:44Z</time>
      </trkpt>
      <trkpt lat="42.853834982961416" lon="-2.657502014189959">
        <ele>517.20000000000005</ele>
        <time>2019-06-23T10:33:46Z</time>
      </trkpt>
      <trkpt lat="42.853689976036549" lon="-2.657514000311494">
        <ele>517.39999999999998</ele>
        <time>2019-06-23T10:33:48Z</time>
      </trkpt>
      <trkpt lat="42.853544969111681" lon="-2.657519029453397">
        <ele>517.39999999999998</ele>
        <time>2019-06-23T10:33:50Z</time>
      </trkpt>
      <trkpt lat="42.853399040177464" lon="-2.657533027231693">
        <ele>517.60000000000002</ele>
        <time>2019-06-23T10:33:52Z</time>
      </trkpt>
      <trkpt lat="42.853254033252597" lon="-2.657541995868087">
        <ele>517.60000000000002</ele>
        <time>2019-06-23T10:33:54Z</time>
      </trkpt>
      <trkpt lat="42.85311103798449" lon="-2.657552976161242">
        <ele>517.60000000000002</ele>
        <time>2019-06-23T10:33:56Z</time>
      </trkpt>
      <trkpt lat="42.853039037436247" lon="-2.657555993646383">
        <ele>517.79999999999995</ele>
        <time>2019-06-23T10:33:57Z</time>
      </trkpt>
      <trkpt lat="42.852967036888003" lon="-2.657561022788286">
        <ele>517.60000000000002</ele>
        <time>2019-06-23T10:33:58Z</time>
      </trkpt>
      <trkpt lat="42.852822029963136" lon="-2.657572003081441">
        <ele>517.60000000000002</ele>
        <time>2019-06-23T10:34:00Z</time>
      </trkpt>
      <trkpt lat="42.852677023038268" lon="-2.657582983374596">
        <ele>517.79999999999995</ele>
        <time>2019-06-23T10:34:02Z</time>
      </trkpt>
      <trkpt lat="42.8525320161134" lon="-2.657593041658402">
        <ele>517.79999999999995</ele>
        <time>2019-06-23T10:34:04Z</time>
      </trkpt>
      <trkpt lat="42.852386003360152" lon="-2.657604021951556">
        <ele>518</ele>
        <time>2019-06-23T10:34:06Z</time>
      </trkpt>
      <trkpt lat="42.852237978950143" lon="-2.65761399641633">
        <ele>518.20000000000005</ele>
        <time>2019-06-23T10:34:08Z</time>
      </trkpt>
      <trkpt lat="42.852090960368514" lon="-2.657620031386614">
        <ele>518.20000000000005</ele>
        <time>2019-06-23T10:34:10Z</time>
      </trkpt>
      <trkpt lat="42.852018037810922" lon="-2.657619025558233">
        <ele>518.20000000000005</ele>
        <time>2019-06-23T10:34:11Z</time>
      </trkpt>
      <trkpt lat="42.851945031434298" lon="-2.657618019729853">
        <ele>518.39999999999998</ele>
        <time>2019-06-23T10:34:12Z</time>
      </trkpt>
      <trkpt lat="42.851802036166191" lon="-2.65761299058795">
        <ele>518.39999999999998</ele>
        <time>2019-06-23T10:34:14Z</time>
      </trkpt>
      <trkpt lat="42.851659040898085" lon="-2.65761299058795">
        <ele>518.60000000000002</ele>
        <time>2019-06-23T10:34:16Z</time>
      </trkpt>
      <trkpt lat="42.851517973467708" lon="-2.657627994194627">
        <ele>518.39999999999998</ele>
        <time>2019-06-23T10:34:18Z</time>
      </trkpt>
      <trkpt lat="42.851455025374889" lon="-2.657625982537866">
        <ele>518.60000000000002</ele>
        <time>2019-06-23T10:34:19Z</time>
      </trkpt>
      <trkpt lat="42.85139299929142" lon="-2.657624976709485">
        <ele>518.60000000000002</ele>
        <time>2019-06-23T10:34:20Z</time>
      </trkpt>
      <trkpt lat="42.851260984316468" lon="-2.657630005851388">
        <ele>518.60000000000002</ele>
        <time>2019-06-23T10:34:22Z</time>
      </trkpt>
      <trkpt lat="42.851190995424986" lon="-2.657636040821672">
        <ele>518.39999999999998</ele>
        <time>2019-06-23T10:34:23Z</time>
      </trkpt>
      <trkpt lat="42.851122012361884" lon="-2.657641991972923">
        <ele>518.60000000000002</ele>
        <time>2019-06-23T10:34:24Z</time>
      </trkpt>
      <trkpt lat="42.851051017642021" lon="-2.657644003629684">
        <ele>518.60000000000002</ele>
        <time>2019-06-23T10:34:25Z</time>
      </trkpt>
      <trkpt lat="42.850978011265397" lon="-2.657650038599968">
        <ele>518.60000000000002</ele>
        <time>2019-06-23T10:34:26Z</time>
      </trkpt>
      <trkpt lat="42.850830992683768" lon="-2.657661018893123">
        <ele>518.39999999999998</ele>
        <time>2019-06-23T10:34:28Z</time>
      </trkpt>
      <trkpt lat="42.850758992135525" lon="-2.657664036378264">
        <ele>518.39999999999998</ele>
        <time>2019-06-23T10:34:29Z</time>
      </trkpt>
      <trkpt lat="42.850686991587281" lon="-2.657665964215994">
        <ele>518.39999999999998</ele>
        <time>2019-06-23T10:34:30Z</time>
      </trkpt>
      <trkpt lat="42.850615996867418" lon="-2.657667975872755">
        <ele>518.39999999999998</ele>
        <time>2019-06-23T10:34:31Z</time>
      </trkpt>
      <trkpt lat="42.850545002147555" lon="-2.6576760224998">
        <ele>518.39999999999998</ele>
        <time>2019-06-23T10:34:32Z</time>
      </trkpt>
      <trkpt lat="42.850475013256073" lon="-2.657684991136193">
        <ele>518.60000000000002</ele>
        <time>2019-06-23T10:34:33Z</time>
      </trkpt>
      <trkpt lat="42.850406030192971" lon="-2.657693959772587">
        <ele>518.60000000000002</ele>
        <time>2019-06-23T10:34:34Z</time>
      </trkpt>
      <trkpt lat="42.850266974419355" lon="-2.657708963379264">
        <ele>519</ele>
        <time>2019-06-23T10:34:36Z</time>
      </trkpt>
      <trkpt lat="42.850130014121532" lon="-2.657717010006309">
        <ele>519</ele>
        <time>2019-06-23T10:34:38Z</time>
      </trkpt>
      <trkpt lat="42.849993975833058" lon="-2.657731007784605">
        <ele>519.20000000000005</ele>
        <time>2019-06-23T10:34:40Z</time>
      </trkpt>
      <trkpt lat="42.849858021363616" lon="-2.657743999734521">
        <ele>519.20000000000005</ele>
        <time>2019-06-23T10:34:42Z</time>
      </trkpt>
      <trkpt lat="42.849789960309863" lon="-2.657749028876424">
        <ele>519.20000000000005</ele>
        <time>2019-06-23T10:34:43Z</time>
      </trkpt>
      <trkpt lat="42.849721983075142" lon="-2.657751040533185">
        <ele>519.39999999999998</ele>
        <time>2019-06-23T10:34:44Z</time>
      </trkpt>
      <trkpt lat="42.8495860286057" lon="-2.657752968370915">
        <ele>519.60000000000002</ele>
        <time>2019-06-23T10:34:46Z</time>
      </trkpt>
      <trkpt lat="42.84952400252223" lon="-2.657765038311482">
        <ele>519.60000000000002</ele>
        <time>2019-06-23T10:34:47Z</time>
      </trkpt>
      <trkpt lat="42.84945803694427" lon="-2.657773001119494">
        <ele>519.60000000000002</ele>
        <time>2019-06-23T10:34:48Z</time>
      </trkpt>
      <trkpt lat="42.849318981170654" lon="-2.657779958099127">
        <ele>520</ele>
        <time>2019-06-23T10:34:50Z</time>
      </trkpt>
      <trkpt lat="42.849251003935933" lon="-2.657779958099127">
        <ele>520</ele>
        <time>2019-06-23T10:34:51Z</time>
      </trkpt>
      <trkpt lat="42.849181015044451" lon="-2.657777024433017">
        <ele>520.20000000000005</ele>
        <time>2019-06-23T10:34:52Z</time>
      </trkpt>
      <trkpt lat="42.849036008119583" lon="-2.657766966149211">
        <ele>520.20000000000005</ele>
        <time>2019-06-23T10:34:54Z</time>
      </trkpt>
      <trkpt lat="42.848883038386703" lon="-2.657753974199295">
        <ele>520.20000000000005</ele>
        <time>2019-06-23T10:34:56Z</time>
      </trkpt>
      <trkpt lat="42.848726967349648" lon="-2.657737964764237">
        <ele>520.39999999999998</ele>
        <time>2019-06-23T10:34:58Z</time>
      </trkpt>
      <trkpt lat="42.848648009821773" lon="-2.657728996127844">
        <ele>520.39999999999998</ele>
        <time>2019-06-23T10:34:59Z</time>
      </trkpt>
      <trkpt lat="42.848567962646484" lon="-2.657716004177928">
        <ele>520.20000000000005</ele>
        <time>2019-06-23T10:35:00Z</time>
      </trkpt>
      <trkpt lat="42.848404012620449" lon="-2.657688008621335">
        <ele>520.20000000000005</ele>
        <time>2019-06-23T10:35:02Z</time>
      </trkpt>
      <trkpt lat="42.848322037607431" lon="-2.657675016671419">
        <ele>520.20000000000005</ele>
        <time>2019-06-23T10:35:03Z</time>
      </trkpt>
      <trkpt lat="42.848240984603763" lon="-2.6576569955796">
        <ele>519.79999999999995</ele>
        <time>2019-06-23T10:35:04Z</time>
      </trkpt>
      <trkpt lat="42.848070999607444" lon="-2.657603016123176">
        <ele>519.20000000000005</ele>
        <time>2019-06-23T10:35:06Z</time>
      </trkpt>
      <trkpt lat="42.847899002954364" lon="-2.657546019181609">
        <ele>519</ele>
        <time>2019-06-23T10:35:08Z</time>
      </trkpt>
      <trkpt lat="42.847729017958045" lon="-2.657534033060074">
        <ele>518.79999999999995</ele>
        <time>2019-06-23T10:35:10Z</time>
      </trkpt>
      <trkpt lat="42.847570013254881" lon="-2.657564962282777">
        <ele>518.60000000000002</ele>
        <time>2019-06-23T10:35:12Z</time>
      </trkpt>
      <trkpt lat="42.847424000501633" lon="-2.657606033608317">
        <ele>518.60000000000002</ele>
        <time>2019-06-23T10:35:14Z</time>
      </trkpt>
      <trkpt lat="42.84735300578177" lon="-2.657630005851388">
        <ele>518.60000000000002</ele>
        <time>2019-06-23T10:35:15Z</time>
      </trkpt>
      <trkpt lat="42.847287962213159" lon="-2.65765598975122">
        <ele>518.39999999999998</ele>
        <time>2019-06-23T10:35:16Z</time>
      </trkpt>
      <trkpt lat="42.847167011350393" lon="-2.657711980864406">
        <ele>518.60000000000002</ele>
        <time>2019-06-23T10:35:18Z</time>
      </trkpt>
      <trkpt lat="42.847108002752066" lon="-2.657737964764237">
        <ele>518.60000000000002</ele>
        <time>2019-06-23T10:35:19Z</time>
      </trkpt>
      <trkpt lat="42.84705301746726" lon="-2.657768977805972">
        <ele>518.60000000000002</ele>
        <time>2019-06-23T10:35:20Z</time>
      </trkpt>
      <trkpt lat="42.846999038010836" lon="-2.657800996676087">
        <ele>518.60000000000002</ele>
        <time>2019-06-23T10:35:21Z</time>
      </trkpt>
      <trkpt lat="42.846943968906999" lon="-2.657835027202964">
        <ele>518.79999999999995</ele>
        <time>2019-06-23T10:35:22Z</time>
      </trkpt>
      <trkpt lat="42.846892001107335" lon="-2.657868973910809">
        <ele>518.79999999999995</ele>
        <time>2019-06-23T10:35:23Z</time>
      </trkpt>
      <trkpt lat="42.84683701582253" lon="-2.657897975295782">
        <ele>519</ele>
        <time>2019-06-23T10:35:24Z</time>
      </trkpt>
      <trkpt lat="42.846728973090649" lon="-2.657965030521154">
        <ele>519.60000000000002</ele>
        <time>2019-06-23T10:35:26Z</time>
      </trkpt>
      <trkpt lat="42.846621014177799" lon="-2.658035019412637">
        <ele>520.39999999999998</ele>
        <time>2019-06-23T10:35:28Z</time>
      </trkpt>
      <trkpt lat="42.846508026123047" lon="-2.658104002475739">
        <ele>521</ele>
        <time>2019-06-23T10:35:30Z</time>
      </trkpt>
      <trkpt lat="42.846399983391166" lon="-2.658177008852363">
        <ele>521.60000000000002</ele>
        <time>2019-06-23T10:35:32Z</time>
      </trkpt>
      <trkpt lat="42.846294958144426" lon="-2.658256972208619">
        <ele>522</ele>
        <time>2019-06-23T10:35:34Z</time>
      </trkpt>
      <trkpt lat="42.84619303420186" lon="-2.658337019383907">
        <ele>522.79999999999995</ele>
        <time>2019-06-23T10:35:36Z</time>
      </trkpt>
      <trkpt lat="42.846135031431913" lon="-2.658358979970217">
        <ele>523.20000000000005</ele>
        <time>2019-06-23T10:35:37Z</time>
      </trkpt>
      <trkpt lat="42.846076022833586" lon="-2.658367026597261">
        <ele>523.60000000000002</ele>
        <time>2019-06-23T10:35:38Z</time>
      </trkpt>
      <trkpt lat="42.84595800563693" lon="-2.658357974141836">
        <ele>524</ele>
        <time>2019-06-23T10:35:40Z</time>
      </trkpt>
      <trkpt lat="42.845898997038603" lon="-2.658346993848681">
        <ele>524.20000000000005</ele>
        <time>2019-06-23T10:35:41Z</time>
      </trkpt>
      <trkpt lat="42.845838982611895" lon="-2.658329978585243">
        <ele>524.60000000000002</ele>
        <time>2019-06-23T10:35:42Z</time>
      </trkpt>
      <trkpt lat="42.845731023699045" lon="-2.658296031877399">
        <ele>525</ele>
        <time>2019-06-23T10:35:44Z</time>
      </trkpt>
      <trkpt lat="42.845679977908731" lon="-2.658292008563876">
        <ele>525</ele>
        <time>2019-06-23T10:35:45Z</time>
      </trkpt>
      <trkpt lat="42.845628010109067" lon="-2.658292008563876">
        <ele>525.20000000000005</ele>
        <time>2019-06-23T10:35:46Z</time>
      </trkpt>
      <trkpt lat="42.845514016225934" lon="-2.658298965543509">
        <ele>525.39999999999998</ele>
        <time>2019-06-23T10:35:48Z</time>
      </trkpt>
      <trkpt lat="42.845391975715756" lon="-2.658309023827314">
        <ele>525.39999999999998</ele>
        <time>2019-06-23T10:35:50Z</time>
      </trkpt>
      <trkpt lat="42.845328021794558" lon="-2.658312963321805">
        <ele>525.39999999999998</ele>
        <time>2019-06-23T10:35:51Z</time>
      </trkpt>
      <trkpt lat="42.845262978225946" lon="-2.658313969150186">
        <ele>525.60000000000002</ele>
        <time>2019-06-23T10:35:52Z</time>
      </trkpt>
      <trkpt lat="42.845133980736136" lon="-2.658315980806947">
        <ele>525.60000000000002</ele>
        <time>2019-06-23T10:35:54Z</time>
      </trkpt>
      <trkpt lat="42.845005989074707" lon="-2.65830097720027">
        <ele>525.60000000000002</ele>
        <time>2019-06-23T10:35:56Z</time>
      </trkpt>
      <trkpt lat="42.844877997413278" lon="-2.658297959715128">
        <ele>525.79999999999995</ele>
        <time>2019-06-23T10:35:58Z</time>
      </trkpt>
      <trkpt lat="42.844813037663698" lon="-2.658298965543509">
        <ele>525.60000000000002</ele>
        <time>2019-06-23T10:35:59Z</time>
      </trkpt>
      <trkpt lat="42.844748999923468" lon="-2.658302988857031">
        <ele>525.79999999999995</ele>
        <time>2019-06-23T10:36:00Z</time>
      </trkpt>
      <trkpt lat="42.844618996605277" lon="-2.658312963321805">
        <ele>525.60000000000002</ele>
        <time>2019-06-23T10:36:02Z</time>
      </trkpt>
      <trkpt lat="42.844486981630325" lon="-2.658323021605611">
        <ele>525.60000000000002</ele>
        <time>2019-06-23T10:36:04Z</time>
      </trkpt>
      <trkpt lat="42.844420010223985" lon="-2.658326039090753">
        <ele>525.79999999999995</ele>
        <time>2019-06-23T10:36:05Z</time>
      </trkpt>
      <trkpt lat="42.844353960826993" lon="-2.658329978585243">
        <ele>525.60000000000002</ele>
        <time>2019-06-23T10:36:06Z</time>
      </trkpt>
      <trkpt lat="42.844224963337183" lon="-2.658357974141836">
        <ele>525.60000000000002</ele>
        <time>2019-06-23T10:36:08Z</time>
      </trkpt>
      <trkpt lat="42.844100994989276" lon="-2.658423017710447">
        <ele>525.39999999999998</ele>
        <time>2019-06-23T10:36:10Z</time>
      </trkpt>
      <trkpt lat="42.844034023582935" lon="-2.658427963033319">
        <ele>525.20000000000005</ele>
        <time>2019-06-23T10:36:11Z</time>
      </trkpt>
      <trkpt lat="42.843968980014324" lon="-2.65840700827539">
        <ele>525.39999999999998</ele>
        <time>2019-06-23T10:36:12Z</time>
      </trkpt>
      <trkpt lat="42.843906031921506" lon="-2.658380018547177">
        <ele>525.39999999999998</ele>
        <time>2019-06-23T10:36:13Z</time>
      </trkpt>
      <trkpt lat="42.843839982524514" lon="-2.658369038254023">
        <ele>525.20000000000005</ele>
        <time>2019-06-23T10:36:14Z</time>
      </trkpt>
      <trkpt lat="42.843704028055072" lon="-2.658369038254023">
        <ele>525.39999999999998</ele>
        <time>2019-06-23T10:36:16Z</time>
      </trkpt>
      <trkpt lat="42.843564972281456" lon="-2.658379012718797">
        <ele>525.39999999999998</ele>
        <time>2019-06-23T10:36:18Z</time>
      </trkpt>
      <trkpt lat="42.843428011983633" lon="-2.658389993011951">
        <ele>525.39999999999998</ele>
        <time>2019-06-23T10:36:20Z</time>
      </trkpt>
      <trkpt lat="42.843360034748912" lon="-2.658393010497093">
        <ele>525.60000000000002</ele>
        <time>2019-06-23T10:36:21Z</time>
      </trkpt>
      <trkpt lat="42.84329297952354" lon="-2.658396027982235">
        <ele>525.39999999999998</ele>
        <time>2019-06-23T10:36:22Z</time>
      </trkpt>
      <trkpt lat="42.843161970376968" lon="-2.658402984961867">
        <ele>525.39999999999998</ele>
        <time>2019-06-23T10:36:24Z</time>
      </trkpt>
      <trkpt lat="42.843033978715539" lon="-2.658417988568544">
        <ele>525.39999999999998</ele>
        <time>2019-06-23T10:36:26Z</time>
      </trkpt>
      <trkpt lat="42.842974970117211" lon="-2.658445984125137">
        <ele>525.39999999999998</ele>
        <time>2019-06-23T10:36:27Z</time>
      </trkpt>
      <trkpt lat="42.842916967347264" lon="-2.658475991338491">
        <ele>525.39999999999998</ele>
        <time>2019-06-23T10:36:28Z</time>
      </trkpt>
      <trkpt lat="42.842856030911207" lon="-2.658495018258691">
        <ele>525.39999999999998</ele>
        <time>2019-06-23T10:36:29Z</time>
      </trkpt>
      <trkpt lat="42.84279702231288" lon="-2.658499963581562">
        <ele>525.20000000000005</ele>
        <time>2019-06-23T10:36:30Z</time>
      </trkpt>
      <trkpt lat="42.842736002057791" lon="-2.658484037965536">
        <ele>525.20000000000005</ele>
        <time>2019-06-23T10:36:31Z</time>
      </trkpt>
      <trkpt lat="42.842672970145941" lon="-2.658465011045337">
        <ele>525.20000000000005</ele>
        <time>2019-06-23T10:36:32Z</time>
      </trkpt>
      <trkpt lat="42.842608010396361" lon="-2.658457970246673">
        <ele>525.20000000000005</ele>
        <time>2019-06-23T10:36:33Z</time>
      </trkpt>
      <trkpt lat="42.842541038990021" lon="-2.658456964418292">
        <ele>525</ele>
        <time>2019-06-23T10:36:34Z</time>
      </trkpt>
      <trkpt lat="42.842473983764648" lon="-2.658457970246673">
        <ele>524.79999999999995</ele>
        <time>2019-06-23T10:36:35Z</time>
      </trkpt>
      <trkpt lat="42.842409024015069" lon="-2.658462999388576">
        <ele>525</ele>
        <time>2019-06-23T10:36:36Z</time>
      </trkpt>
      <trkpt lat="42.842274997383356" lon="-2.65847004018724">
        <ele>524.79999999999995</ele>
        <time>2019-06-23T10:36:38Z</time>
      </trkpt>
      <trkpt lat="42.842209031805396" lon="-2.65847297385335">
        <ele>524.79999999999995</ele>
        <time>2019-06-23T10:36:39Z</time>
      </trkpt>
      <trkpt lat="42.842142982408404" lon="-2.658474985510111">
        <ele>524.79999999999995</ele>
        <time>2019-06-23T10:36:40Z</time>
      </trkpt>
      <trkpt lat="42.842012979090214" lon="-2.658476997166872">
        <ele>525</ele>
        <time>2019-06-23T10:36:42Z</time>
      </trkpt>
      <trkpt lat="42.841885993257165" lon="-2.658484037965536">
        <ele>525.20000000000005</ele>
        <time>2019-06-23T10:36:44Z</time>
      </trkpt>
      <trkpt lat="42.841774011030793" lon="-2.658499041572213">
        <ele>525.20000000000005</ele>
        <time>2019-06-23T10:36:46Z</time>
      </trkpt>
      <trkpt lat="42.841736041009426" lon="-2.658518990501761">
        <ele>525.39999999999998</ele>
        <time>2019-06-23T10:36:47Z</time>
      </trkpt>
      <trkpt lat="42.841710979118943" lon="-2.658538017421961">
        <ele>525.60000000000002</ele>
        <time>2019-06-23T10:36:48Z</time>
      </trkpt>
      <trkpt lat="42.841678038239479" lon="-2.658582022413611">
        <ele>525.79999999999995</ele>
        <time>2019-06-23T10:36:50Z</time>
      </trkpt>
      <trkpt lat="42.84165901131928" lon="-2.658609012141824">
        <ele>525.79999999999995</ele>
        <time>2019-06-23T10:36:51Z</time>
      </trkpt>
      <trkpt lat="42.841634033247828" lon="-2.658634996041656">
        <ele>526</ele>
        <time>2019-06-23T10:36:52Z</time>
      </trkpt>
      <trkpt lat="42.841563038527966" lon="-2.6586879696697">
        <ele>526.39999999999998</ele>
        <time>2019-06-23T10:36:54Z</time>
      </trkpt>
      <trkpt lat="42.841516016051173" lon="-2.658706996589899">
        <ele>526.60000000000002</ele>
        <time>2019-06-23T10:36:55Z</time>
      </trkpt>
      <trkpt lat="42.841462036594748" lon="-2.658718982711434">
        <ele>526.79999999999995</ele>
        <time>2019-06-23T10:36:56Z</time>
      </trkpt>
      <trkpt lat="42.841347958892584" lon="-2.658698027953506">
        <ele>527</ele>
        <time>2019-06-23T10:36:58Z</time>
      </trkpt>
      <trkpt lat="42.841247040778399" lon="-2.658604988828301">
        <ele>527.20000000000005</ele>
        <time>2019-06-23T10:37:00Z</time>
      </trkpt>
      <trkpt lat="42.841141009703279" lon="-2.658504992723465">
        <ele>527.20000000000005</ele>
        <time>2019-06-23T10:37:02Z</time>
      </trkpt>
      <trkpt lat="42.841075966134667" lon="-2.658475991338491">
        <ele>527.20000000000005</ele>
        <time>2019-06-23T10:37:03Z</time>
      </trkpt>
      <trkpt lat="42.841006983071566" lon="-2.658458976075053">
        <ele>527.20000000000005</ele>
        <time>2019-06-23T10:37:04Z</time>
      </trkpt>
      <trkpt lat="42.840938000008464" lon="-2.658447995781899">
        <ele>527.20000000000005</ele>
        <time>2019-06-23T10:37:05Z</time>
      </trkpt>
      <trkpt lat="42.840862981975079" lon="-2.658439027145505">
        <ele>527.20000000000005</ele>
        <time>2019-06-23T10:37:06Z</time>
      </trkpt>
      <trkpt lat="42.840783018618822" lon="-2.658441960811615">
        <ele>527.20000000000005</ele>
        <time>2019-06-23T10:37:07Z</time>
      </trkpt>
      <trkpt lat="42.840710012242198" lon="-2.658442966639996">
        <ele>527</ele>
        <time>2019-06-23T10:37:08Z</time>
      </trkpt>
      <trkpt lat="42.840628959238529" lon="-2.658439027145505">
        <ele>527</ele>
        <time>2019-06-23T10:37:09Z</time>
      </trkpt>
      <trkpt lat="42.840561987832189" lon="-2.658454030752182">
        <ele>527.20000000000005</ele>
        <time>2019-06-23T10:37:10Z</time>
      </trkpt>
      <trkpt lat="42.840422010049224" lon="-2.658452019095421">
        <ele>527</ele>
        <time>2019-06-23T10:37:12Z</time>
      </trkpt>
      <trkpt lat="42.840280020609498" lon="-2.658441960811615">
        <ele>527</ele>
        <time>2019-06-23T10:37:14Z</time>
      </trkpt>
      <trkpt lat="42.840211959555745" lon="-2.658436009660363">
        <ele>527</ele>
        <time>2019-06-23T10:37:15Z</time>
      </trkpt>
      <trkpt lat="42.840139959007502" lon="-2.658421006053686">
        <ele>527</ele>
        <time>2019-06-23T10:37:16Z</time>
      </trkpt>
      <trkpt lat="42.84000601619482" lon="-2.658410025760531">
        <ele>527</ele>
        <time>2019-06-23T10:37:18Z</time>
      </trkpt>
      <trkpt lat="42.83987701870501" lon="-2.658412959426642">
        <ele>527</ele>
        <time>2019-06-23T10:37:20Z</time>
      </trkpt>
      <trkpt lat="42.839749027043581" lon="-2.658412037417293">
        <ele>527.20000000000005</ele>
        <time>2019-06-23T10:37:22Z</time>
      </trkpt>
      <trkpt lat="42.839627992361784" lon="-2.658424023538828">
        <ele>527.60000000000002</ele>
        <time>2019-06-23T10:37:24Z</time>
      </trkpt>
      <trkpt lat="42.839502012357116" lon="-2.658425029367209">
        <ele>528</ele>
        <time>2019-06-23T10:37:26Z</time>
      </trkpt>
      <trkpt lat="42.839378966018558" lon="-2.658437015488744">
        <ele>528.20000000000005</ele>
        <time>2019-06-23T10:37:28Z</time>
      </trkpt>
      <trkpt lat="42.8393180295825" lon="-2.658442966639996">
        <ele>528.39999999999998</ele>
        <time>2019-06-23T10:37:29Z</time>
      </trkpt>
      <trkpt lat="42.839258015155792" lon="-2.658446989953518">
        <ele>528.60000000000002</ele>
        <time>2019-06-23T10:37:30Z</time>
      </trkpt>
      <trkpt lat="42.839134968817234" lon="-2.658457970246673">
        <ele>529.20000000000005</ele>
        <time>2019-06-23T10:37:32Z</time>
      </trkpt>
      <trkpt lat="42.839011000469327" lon="-2.65847004018724">
        <ele>529.60000000000002</ele>
        <time>2019-06-23T10:37:34Z</time>
      </trkpt>
      <trkpt lat="42.838886026293039" lon="-2.658483032137156">
        <ele>530</ele>
        <time>2019-06-23T10:37:36Z</time>
      </trkpt>
      <trkpt lat="42.838827017694712" lon="-2.658489989116788">
        <ele>530.20000000000005</ele>
        <time>2019-06-23T10:37:37Z</time>
      </trkpt>
      <trkpt lat="42.838769014924765" lon="-2.658497029915452">
        <ele>530.20000000000005</ele>
        <time>2019-06-23T10:37:38Z</time>
      </trkpt>
      <trkpt lat="42.838711012154818" lon="-2.658505998551846">
        <ele>530.39999999999998</ele>
        <time>2019-06-23T10:37:39Z</time>
      </trkpt>
      <trkpt lat="42.838655021041632" lon="-2.658514967188239">
        <ele>530.60000000000002</ele>
        <time>2019-06-23T10:37:40Z</time>
      </trkpt>
      <trkpt lat="42.838541027158499" lon="-2.658532988280058">
        <ele>530.79999999999995</ele>
        <time>2019-06-23T10:37:42Z</time>
      </trkpt>
      <trkpt lat="42.838428961113095" lon="-2.658556960523129">
        <ele>530.79999999999995</ele>
        <time>2019-06-23T10:37:44Z</time>
      </trkpt>
      <trkpt lat="42.838321002200246" lon="-2.65857900492847">
        <ele>531</ele>
        <time>2019-06-23T10:37:46Z</time>
      </trkpt>
      <trkpt lat="42.838267022743821" lon="-2.658588979393244">
        <ele>531.20000000000005</ele>
        <time>2019-06-23T10:37:47Z</time>
      </trkpt>
      <trkpt lat="42.838212037459016" lon="-2.658599959686399">
        <ele>531.39999999999998</ele>
        <time>2019-06-23T10:37:48Z</time>
      </trkpt>
      <trkpt lat="42.838101983070374" lon="-2.658625021576881">
        <ele>532</ele>
        <time>2019-06-23T10:37:50Z</time>
      </trkpt>
      <trkpt lat="42.838048003613949" lon="-2.658639019355178">
        <ele>532.20000000000005</ele>
        <time>2019-06-23T10:37:51Z</time>
      </trkpt>
      <trkpt lat="42.837995029985905" lon="-2.658654022961855">
        <ele>532.20000000000005</ele>
        <time>2019-06-23T10:37:52Z</time>
      </trkpt>
      <trkpt lat="42.837888998910785" lon="-2.65868604183197">
        <ele>532.60000000000002</ele>
        <time>2019-06-23T10:37:54Z</time>
      </trkpt>
      <trkpt lat="42.837837031111121" lon="-2.658702973276377">
        <ele>532.79999999999995</ele>
        <time>2019-06-23T10:37:55Z</time>
      </trkpt>
      <trkpt lat="42.837784979492426" lon="-2.658719988539815">
        <ele>533.20000000000005</ele>
        <time>2019-06-23T10:37:56Z</time>
      </trkpt>
      <trkpt lat="42.837676014751196" lon="-2.658756030723453">
        <ele>533.79999999999995</ele>
        <time>2019-06-23T10:37:58Z</time>
      </trkpt>
      <trkpt lat="42.837571995332837" lon="-2.658787965774536">
        <ele>534.39999999999998</ele>
        <time>2019-06-23T10:38:00Z</time>
      </trkpt>
      <trkpt lat="42.837520027533174" lon="-2.658804981037974">
        <ele>534.39999999999998</ele>
        <time>2019-06-23T10:38:01Z</time>
      </trkpt>
      <trkpt lat="42.837467975914478" lon="-2.658821996301413">
        <ele>534.60000000000002</ele>
        <time>2019-06-23T10:38:02Z</time>
      </trkpt>
      <trkpt lat="42.837363034486771" lon="-2.658858960494399">
        <ele>535</ele>
        <time>2019-06-23T10:38:04Z</time>
      </trkpt>
      <trkpt lat="42.837258009240031" lon="-2.658899025991559">
        <ele>535</ele>
        <time>2019-06-23T10:38:06Z</time>
      </trkpt>
      <trkpt lat="42.837206041440368" lon="-2.658919980749488">
        <ele>535</ele>
        <time>2019-06-23T10:38:07Z</time>
      </trkpt>
      <trkpt lat="42.837152983993292" lon="-2.658940013498068">
        <ele>535</ele>
        <time>2019-06-23T10:38:08Z</time>
      </trkpt>
      <trkpt lat="42.837101016193628" lon="-2.658960968255997">
        <ele>535.20000000000005</ele>
        <time>2019-06-23T10:38:09Z</time>
      </trkpt>
      <trkpt lat="42.837047958746552" lon="-2.658982006832957">
        <ele>535.20000000000005</ele>
        <time>2019-06-23T10:38:10Z</time>
      </trkpt>
      <trkpt lat="42.836942011490464" lon="-2.659024000167847">
        <ele>535.39999999999998</ele>
        <time>2019-06-23T10:38:12Z</time>
      </trkpt>
      <trkpt lat="42.836888032034039" lon="-2.659045960754156">
        <ele>535.60000000000002</ele>
        <time>2019-06-23T10:38:13Z</time>
      </trkpt>
      <trkpt lat="42.836835980415344" lon="-2.659069010987878">
        <ele>535.79999999999995</ele>
        <time>2019-06-23T10:38:14Z</time>
      </trkpt>
      <trkpt lat="42.836731960996985" lon="-2.659114021807909">
        <ele>536.39999999999998</ele>
        <time>2019-06-23T10:38:16Z</time>
      </trkpt>
      <trkpt lat="42.836627019569278" lon="-2.65915903262794">
        <ele>537.39999999999998</ele>
        <time>2019-06-23T10:38:18Z</time>
      </trkpt>
      <trkpt lat="42.836520988494158" lon="-2.659209994599223">
        <ele>537.60000000000002</ele>
        <time>2019-06-23T10:38:20Z</time>
      </trkpt>
      <trkpt lat="42.83641504123807" lon="-2.659262968227267">
        <ele>538</ele>
        <time>2019-06-23T10:38:22Z</time>
      </trkpt>
      <trkpt lat="42.83631001599133" lon="-2.659317031502724">
        <ele>538.39999999999998</ele>
        <time>2019-06-23T10:38:24Z</time>
      </trkpt>
      <trkpt lat="42.83620398491621" lon="-2.659368999302387">
        <ele>538.60000000000002</ele>
        <time>2019-06-23T10:38:26Z</time>
      </trkpt>
      <trkpt lat="42.836099965497851" lon="-2.659425996243954">
        <ele>538.60000000000002</ele>
        <time>2019-06-23T10:38:28Z</time>
      </trkpt>
      <trkpt lat="42.836047997698188" lon="-2.65945902094245">
        <ele>538.79999999999995</ele>
        <time>2019-06-23T10:38:29Z</time>
      </trkpt>
      <trkpt lat="42.835999969393015" lon="-2.659501014277339">
        <ele>538.79999999999995</ele>
        <time>2019-06-23T10:38:30Z</time>
      </trkpt>
      <trkpt lat="42.835961999371648" lon="-2.659557005390525">
        <ele>538.79999999999995</ele>
        <time>2019-06-23T10:38:31Z</time>
      </trkpt>
      <trkpt lat="42.835936015471816" lon="-2.659624982625246">
        <ele>538.79999999999995</ele>
        <time>2019-06-23T10:38:32Z</time>
      </trkpt>
      <trkpt lat="42.83590299077332" lon="-2.659778958186507">
        <ele>539</ele>
        <time>2019-06-23T10:38:34Z</time>
      </trkpt>
      <trkpt lat="42.835883041843772" lon="-2.659854982048273">
        <ele>539.20000000000005</ele>
        <time>2019-06-23T10:38:35Z</time>
      </trkpt>
      <trkpt lat="42.835855968296528" lon="-2.659926982596517">
        <ele>539.39999999999998</ele>
        <time>2019-06-23T10:38:36Z</time>
      </trkpt>
      <trkpt lat="42.835819004103541" lon="-2.659989008679986">
        <ele>539.39999999999998</ele>
        <time>2019-06-23T10:38:37Z</time>
      </trkpt>
      <trkpt lat="42.83577298745513" lon="-2.660038964822888">
        <ele>539.39999999999998</ele>
        <time>2019-06-23T10:38:38Z</time>
      </trkpt>
      <trkpt lat="42.835721019655466" lon="-2.660068972036243">
        <ele>539.39999999999998</ele>
        <time>2019-06-23T10:38:39Z</time>
      </trkpt>
      <trkpt lat="42.8356640227139" lon="-2.660080958157778">
        <ele>539.39999999999998</ele>
        <time>2019-06-23T10:38:40Z</time>
      </trkpt>
      <trkpt lat="42.835607025772333" lon="-2.660076012834907">
        <ele>539.39999999999998</ele>
        <time>2019-06-23T10:38:41Z</time>
      </trkpt>
      <trkpt lat="42.835552040487528" lon="-2.660052962601185">
        <ele>539.39999999999998</ele>
        <time>2019-06-23T10:38:42Z</time>
      </trkpt>
      <trkpt lat="42.835502000525594" lon="-2.660011975094676">
        <ele>539.39999999999998</ele>
        <time>2019-06-23T10:38:43Z</time>
      </trkpt>
      <trkpt lat="42.835457995533943" lon="-2.659956989809871">
        <ele>539.39999999999998</ele>
        <time>2019-06-23T10:38:44Z</time>
      </trkpt>
      <trkpt lat="42.835425976663828" lon="-2.659892030060291">
        <ele>539.39999999999998</ele>
        <time>2019-06-23T10:38:45Z</time>
      </trkpt>
      <trkpt lat="42.83540703356266" lon="-2.659818017855287">
        <ele>539.39999999999998</ele>
        <time>2019-06-23T10:38:46Z</time>
      </trkpt>
      <trkpt lat="42.835400998592377" lon="-2.659738976508379">
        <ele>539.39999999999998</ele>
        <time>2019-06-23T10:38:47Z</time>
      </trkpt>
      <trkpt lat="42.835405021905899" lon="-2.659659013152123">
        <ele>539.39999999999998</ele>
        <time>2019-06-23T10:38:48Z</time>
      </trkpt>
      <trkpt lat="42.835420025512576" lon="-2.659579971805215">
        <ele>539.39999999999998</ele>
        <time>2019-06-23T10:38:49Z</time>
      </trkpt>
      <trkpt lat="42.835438968613744" lon="-2.6595030259341">
        <ele>539.60000000000002</ele>
        <time>2019-06-23T10:38:50Z</time>
      </trkpt>
      <trkpt lat="42.83545196056366" lon="-2.659424990415573">
        <ele>539.60000000000002</ele>
        <time>2019-06-23T10:38:51Z</time>
      </trkpt>
      <trkpt lat="42.835445003584027" lon="-2.659348966553807">
        <ele>539.60000000000002</ele>
        <time>2019-06-23T10:38:52Z</time>
      </trkpt>
      <trkpt lat="42.835420025512576" lon="-2.659275960177183">
        <ele>539.60000000000002</ele>
        <time>2019-06-23T10:38:53Z</time>
      </trkpt>
      <trkpt lat="42.835384989157319" lon="-2.659213012084365">
        <ele>539.60000000000002</ele>
        <time>2019-06-23T10:38:54Z</time>
      </trkpt>
      <trkpt lat="42.83529999665916" lon="-2.659099018201232">
        <ele>539.79999999999995</ele>
        <time>2019-06-23T10:38:56Z</time>
      </trkpt>
      <trkpt lat="42.835211986675858" lon="-2.65898603014648">
        <ele>539.79999999999995</ele>
        <time>2019-06-23T10:38:58Z</time>
      </trkpt>
      <trkpt lat="42.835122970864177" lon="-2.658874969929457">
        <ele>539.79999999999995</ele>
        <time>2019-06-23T10:39:00Z</time>
      </trkpt>
      <trkpt lat="42.835033033043146" lon="-2.658766005188227">
        <ele>539.79999999999995</ele>
        <time>2019-06-23T10:39:02Z</time>
      </trkpt>
      <trkpt lat="42.834943011403084" lon="-2.658657962456346">
        <ele>540.20000000000005</ele>
        <time>2019-06-23T10:39:04Z</time>
      </trkpt>
      <trkpt lat="42.834853995591402" lon="-2.658544974401593">
        <ele>540.20000000000005</ele>
        <time>2019-06-23T10:39:06Z</time>
      </trkpt>
      <trkpt lat="42.834769003093243" lon="-2.65842997469008">
        <ele>540.39999999999998</ele>
        <time>2019-06-23T10:39:08Z</time>
      </trkpt>
      <trkpt lat="42.834681998938322" lon="-2.658315980806947">
        <ele>540.39999999999998</ele>
        <time>2019-06-23T10:39:10Z</time>
      </trkpt>
      <trkpt lat="42.83459197729826" lon="-2.658208021894097">
        <ele>540.60000000000002</ele>
        <time>2019-06-23T10:39:12Z</time>
      </trkpt>
      <trkpt lat="42.83454897813499" lon="-2.658153958618641">
        <ele>540.60000000000002</ele>
        <time>2019-06-23T10:39:13Z</time>
      </trkpt>
      <trkpt lat="42.834507990628481" lon="-2.658098973333836">
        <ele>540.60000000000002</ele>
        <time>2019-06-23T10:39:14Z</time>
      </trkpt>
      <trkpt lat="42.834428027272224" lon="-2.657997971400619">
        <ele>540.79999999999995</ele>
        <time>2019-06-23T10:39:16Z</time>
      </trkpt>
      <trkpt lat="42.834358038380742" lon="-2.657903004437685">
        <ele>541</ele>
        <time>2019-06-23T10:39:18Z</time>
      </trkpt>
      <trkpt lat="42.834329959005117" lon="-2.657857993617654">
        <ele>541</ele>
        <time>2019-06-23T10:39:19Z</time>
      </trkpt>
      <trkpt lat="42.83431202173233" lon="-2.657811976969242">
        <ele>541</ele>
        <time>2019-06-23T10:39:20Z</time>
      </trkpt>
      <trkpt lat="42.834301041439176" lon="-2.657764032483101">
        <ele>541</ele>
        <time>2019-06-23T10:39:21Z</time>
      </trkpt>
      <trkpt lat="42.834289977326989" lon="-2.65772296115756">
        <ele>541.20000000000005</ele>
        <time>2019-06-23T10:39:22Z</time>
      </trkpt>
      <trkpt lat="42.834274973720312" lon="-2.657692031934857">
        <ele>541.39999999999998</ele>
        <time>2019-06-23T10:39:23Z</time>
      </trkpt>
      <trkpt lat="42.834261981770396" lon="-2.657670993357897">
        <ele>541.39999999999998</ele>
        <time>2019-06-23T10:39:24Z</time>
      </trkpt>
      <trkpt lat="42.8342479839921" lon="-2.65765598975122">
        <ele>541.60000000000002</ele>
        <time>2019-06-23T10:39:26Z</time>
      </trkpt>
      <trkpt lat="42.834244966506958" lon="-2.657652972266078">
        <ele>541.79999999999995</ele>
        <time>2019-06-23T10:39:27Z</time>
      </trkpt>
      <trkpt lat="42.834243960678577" lon="-2.657650960609317">
        <ele>542</ele>
        <time>2019-06-23T10:39:28Z</time>
      </trkpt>
      <trkpt lat="42.834289977326989" lon="-2.657712986692786">
        <ele>542.79999999999995</ele>
        <time>2019-06-23T10:57:00Z</time>
      </trkpt>
      <trkpt lat="42.834343034774065" lon="-2.657775012776256">
        <ele>543</ele>
        <time>2019-06-23T10:57:02Z</time>
      </trkpt>
      <trkpt lat="42.834372958168387" lon="-2.657812982797623">
        <ele>543</ele>
        <time>2019-06-23T10:57:03Z</time>
      </trkpt>
      <trkpt lat="42.834403971210122" lon="-2.657853970304132">
        <ele>542.79999999999995</ele>
        <time>2019-06-23T10:57:04Z</time>
      </trkpt>
      <trkpt lat="42.834471026435494" lon="-2.657938962802291">
        <ele>542.79999999999995</ele>
        <time>2019-06-23T10:57:06Z</time>
      </trkpt>
      <trkpt lat="42.834541015326977" lon="-2.658030996099114">
        <ele>542.60000000000002</ele>
        <time>2019-06-23T10:57:08Z</time>
      </trkpt>
      <trkpt lat="42.834576973691583" lon="-2.658080030232668">
        <ele>542.79999999999995</ele>
        <time>2019-06-23T10:57:09Z</time>
      </trkpt>
      <trkpt lat="42.83461301587522" lon="-2.65812898054719">
        <ele>542.60000000000002</ele>
        <time>2019-06-23T10:57:10Z</time>
      </trkpt>
      <trkpt lat="42.834649980068207" lon="-2.658181032165885">
        <ele>542.60000000000002</ele>
        <time>2019-06-23T10:57:11Z</time>
      </trkpt>
      <trkpt lat="42.834689039736986" lon="-2.658232999965549">
        <ele>542.60000000000002</ele>
        <time>2019-06-23T10:57:12Z</time>
      </trkpt>
      <trkpt lat="42.834767997264862" lon="-2.658339031040669">
        <ele>542.39999999999998</ele>
        <time>2019-06-23T10:57:14Z</time>
      </trkpt>
      <trkpt lat="42.83484703861177" lon="-2.658446989953518">
        <ele>542.39999999999998</ele>
        <time>2019-06-23T10:57:16Z</time>
      </trkpt>
      <trkpt lat="42.834929013624787" lon="-2.658555032685399">
        <ele>542.20000000000005</ele>
        <time>2019-06-23T10:57:18Z</time>
      </trkpt>
      <trkpt lat="42.835015011951327" lon="-2.658663997426629">
        <ele>541.79999999999995</ele>
        <time>2019-06-23T10:57:20Z</time>
      </trkpt>
      <trkpt lat="42.835058011114597" lon="-2.658719988539815">
        <ele>541.79999999999995</ele>
        <time>2019-06-23T10:57:21Z</time>
      </trkpt>
      <trkpt lat="42.835101010277867" lon="-2.658776985481381">
        <ele>541.79999999999995</ele>
        <time>2019-06-23T10:57:22Z</time>
      </trkpt>
      <trkpt lat="42.835186002776027" lon="-2.658893996849656">
        <ele>541.60000000000002</ele>
        <time>2019-06-23T10:57:24Z</time>
      </trkpt>
      <trkpt lat="42.835272001102567" lon="-2.65901000238955">
        <ele>541.39999999999998</ele>
        <time>2019-06-23T10:57:26Z</time>
      </trkpt>
      <trkpt lat="42.835361016914248" lon="-2.659123996272683">
        <ele>541.39999999999998</ele>
        <time>2019-06-23T10:57:28Z</time>
      </trkpt>
      <trkpt lat="42.835445003584027" lon="-2.659238995984197">
        <ele>541</ele>
        <time>2019-06-23T10:57:30Z</time>
      </trkpt>
      <trkpt lat="42.835481967777014" lon="-2.659283000975847">
        <ele>540.79999999999995</ele>
        <time>2019-06-23T10:57:31Z</time>
      </trkpt>
      <trkpt lat="42.835512980818748" lon="-2.659312002360821">
        <ele>540.79999999999995</ele>
        <time>2019-06-23T10:57:32Z</time>
      </trkpt>
      <trkpt lat="42.835566960275173" lon="-2.659349972382188">
        <ele>541</ele>
        <time>2019-06-23T10:57:34Z</time>
      </trkpt>
      <trkpt lat="42.83560099080205" lon="-2.659366987645626">
        <ele>540.79999999999995</ele>
        <time>2019-06-23T10:57:35Z</time>
      </trkpt>
      <trkpt lat="42.835640972480178" lon="-2.659387020394206">
        <ele>540.79999999999995</ele>
        <time>2019-06-23T10:57:36Z</time>
      </trkpt>
      <trkpt lat="42.835734011605382" lon="-2.659428007900715">
        <ele>540.79999999999995</ele>
        <time>2019-06-23T10:57:38Z</time>
      </trkpt>
      <trkpt lat="42.835782961919904" lon="-2.659454997628927">
        <ele>540.79999999999995</ele>
        <time>2019-06-23T10:57:39Z</time>
      </trkpt>
      <trkpt lat="42.835829984396696" lon="-2.659493973478675">
        <ele>540.60000000000002</ele>
        <time>2019-06-23T10:57:40Z</time>
      </trkpt>
      <trkpt lat="42.835872983559966" lon="-2.65954602509737">
        <ele>540.60000000000002</ele>
        <time>2019-06-23T10:57:41Z</time>
      </trkpt>
      <trkpt lat="42.835909025743604" lon="-2.659609979018569">
        <ele>540.60000000000002</ele>
        <time>2019-06-23T10:57:42Z</time>
      </trkpt>
      <trkpt lat="42.835934003815055" lon="-2.659684997051954">
        <ele>540.39999999999998</ele>
        <time>2019-06-23T10:57:43Z</time>
      </trkpt>
      <trkpt lat="42.83594498410821" lon="-2.659767977893353">
        <ele>540.60000000000002</ele>
        <time>2019-06-23T10:57:44Z</time>
      </trkpt>
      <trkpt lat="42.835941966623068" lon="-2.659851964563131">
        <ele>540.39999999999998</ele>
        <time>2019-06-23T10:57:45Z</time>
      </trkpt>
      <trkpt lat="42.835925035178661" lon="-2.6599330175668">
        <ele>540.39999999999998</ele>
        <time>2019-06-23T10:57:46Z</time>
      </trkpt>
      <trkpt lat="42.835896033793688" lon="-2.660003006458283">
        <ele>540.20000000000005</ele>
        <time>2019-06-23T10:57:47Z</time>
      </trkpt>
      <trkpt lat="42.835855968296528" lon="-2.66006201505661">
        <ele>540.39999999999998</ele>
        <time>2019-06-23T10:57:48Z</time>
      </trkpt>
      <trkpt lat="42.835811041295528" lon="-2.660109959542751">
        <ele>540.20000000000005</ele>
        <time>2019-06-23T10:57:49Z</time>
      </trkpt>
      <trkpt lat="42.835762007161975" lon="-2.66014801338315">
        <ele>540.20000000000005</ele>
        <time>2019-06-23T10:57:50Z</time>
      </trkpt>
      <trkpt lat="42.83566502854228" lon="-2.660225965082645">
        <ele>540.20000000000005</ele>
        <time>2019-06-23T10:57:52Z</time>
      </trkpt>
      <trkpt lat="42.835577018558979" lon="-2.660324033349752">
        <ele>540</ele>
        <time>2019-06-23T10:57:54Z</time>
      </trkpt>
      <trkpt lat="42.835498983040452" lon="-2.660446995869279">
        <ele>539.79999999999995</ele>
        <time>2019-06-23T10:57:56Z</time>
      </trkpt>
      <trkpt lat="42.835426982492208" lon="-2.660584039986134">
        <ele>539.79999999999995</ele>
        <time>2019-06-23T10:57:58Z</time>
      </trkpt>
      <trkpt lat="42.835394041612744" lon="-2.660656962543726">
        <ele>539.79999999999995</ele>
        <time>2019-06-23T10:57:59Z</time>
      </trkpt>
      <trkpt lat="42.835367973893881" lon="-2.660732986405492">
        <ele>539.79999999999995</ele>
        <time>2019-06-23T10:58:00Z</time>
      </trkpt>
      <trkpt lat="42.835347019135952" lon="-2.660898026078939">
        <ele>539.79999999999995</ele>
        <time>2019-06-23T10:58:02Z</time>
      </trkpt>
      <trkpt lat="42.835346013307571" lon="-2.660980001091957">
        <ele>539.79999999999995</ele>
        <time>2019-06-23T10:58:03Z</time>
      </trkpt>
      <trkpt lat="42.835350036621094" lon="-2.661061976104975">
        <ele>539.60000000000002</ele>
        <time>2019-06-23T10:58:04Z</time>
      </trkpt>
      <trkpt lat="42.835357999429107" lon="-2.661141017451882">
        <ele>539.79999999999995</ele>
        <time>2019-06-23T10:58:05Z</time>
      </trkpt>
      <trkpt lat="42.8353669680655" lon="-2.661217963322997">
        <ele>539.60000000000002</ele>
        <time>2019-06-23T10:58:06Z</time>
      </trkpt>
      <trkpt lat="42.835391024127603" lon="-2.661367999389768">
        <ele>539.60000000000002</ele>
        <time>2019-06-23T10:58:08Z</time>
      </trkpt>
      <trkpt lat="42.835410973057151" lon="-2.661516023799777">
        <ele>539.60000000000002</ele>
        <time>2019-06-23T10:58:10Z</time>
      </trkpt>
      <trkpt lat="42.83542899414897" lon="-2.661662958562374">
        <ele>539.79999999999995</ele>
        <time>2019-06-23T10:58:12Z</time>
      </trkpt>
      <trkpt lat="42.835445003584027" lon="-2.661805031821132">
        <ele>540.20000000000005</ele>
        <time>2019-06-23T10:58:14Z</time>
      </trkpt>
      <trkpt lat="42.835462018847466" lon="-2.661930005997419">
        <ele>540.20000000000005</ele>
        <time>2019-06-23T10:58:16Z</time>
      </trkpt>
      <trkpt lat="42.835476016625762" lon="-2.662056991830468">
        <ele>540.60000000000002</ele>
        <time>2019-06-23T10:58:18Z</time>
      </trkpt>
      <trkpt lat="42.835484985262156" lon="-2.662201998755336">
        <ele>540.60000000000002</ele>
        <time>2019-06-23T10:58:20Z</time>
      </trkpt>
      <trkpt lat="42.8354930318892" lon="-2.662272993475199">
        <ele>540.60000000000002</ele>
        <time>2019-06-23T10:58:21Z</time>
      </trkpt>
      <trkpt lat="42.835500994697213" lon="-2.662345999851823">
        <ele>540.79999999999995</ele>
        <time>2019-06-23T10:58:22Z</time>
      </trkpt>
      <trkpt lat="42.83551599830389" lon="-2.662498969584703">
        <ele>541.39999999999998</ele>
        <time>2019-06-23T10:58:24Z</time>
      </trkpt>
      <trkpt lat="42.835533013567328" lon="-2.662655962631106">
        <ele>541.79999999999995</ele>
        <time>2019-06-23T10:58:26Z</time>
      </trkpt>
      <trkpt lat="42.83553896471858" lon="-2.662732992321253">
        <ele>541.79999999999995</ele>
        <time>2019-06-23T10:58:27Z</time>
      </trkpt>
      <trkpt lat="42.835547011345625" lon="-2.66281203366816">
        <ele>542</ele>
        <time>2019-06-23T10:58:28Z</time>
      </trkpt>
      <trkpt lat="42.83555899746716" lon="-2.662971960380673">
        <ele>541.79999999999995</ele>
        <time>2019-06-23T10:58:30Z</time>
      </trkpt>
      <trkpt lat="42.835564026609063" lon="-2.6630499958992">
        <ele>542</ele>
        <time>2019-06-23T10:58:31Z</time>
      </trkpt>
      <trkpt lat="42.835571989417076" lon="-2.66313498839736">
        <ele>542</ele>
        <time>2019-06-23T10:58:32Z</time>
      </trkpt>
      <trkpt lat="42.835593027994037" lon="-2.663300028070808">
        <ele>542</ele>
        <time>2019-06-23T10:58:34Z</time>
      </trkpt>
      <trkpt lat="42.835603002458811" lon="-2.663383008912206">
        <ele>542</ele>
        <time>2019-06-23T10:58:35Z</time>
      </trkpt>
      <trkpt lat="42.835613982751966" lon="-2.663465989753604">
        <ele>542</ele>
        <time>2019-06-23T10:58:36Z</time>
      </trkpt>
      <trkpt lat="42.835635021328926" lon="-2.663634968921542">
        <ele>542</ele>
        <time>2019-06-23T10:58:38Z</time>
      </trkpt>
      <trkpt lat="42.83564398996532" lon="-2.663717027753592">
        <ele>542</ele>
        <time>2019-06-23T10:58:39Z</time>
      </trkpt>
      <trkpt lat="42.835653964430094" lon="-2.66380000859499">
        <ele>542</ele>
        <time>2019-06-23T10:58:40Z</time>
      </trkpt>
      <trkpt lat="42.835672991350293" lon="-2.663966976106167">
        <ele>542</ele>
        <time>2019-06-23T10:58:42Z</time>
      </trkpt>
      <trkpt lat="42.835682965815067" lon="-2.664049034938216">
        <ele>541.79999999999995</ele>
        <time>2019-06-23T10:58:43Z</time>
      </trkpt>
      <trkpt lat="42.835691012442112" lon="-2.664134027436376">
        <ele>541.79999999999995</ele>
        <time>2019-06-23T10:58:44Z</time>
      </trkpt>
      <trkpt lat="42.835709033533931" lon="-2.664305018261075">
        <ele>541.79999999999995</ele>
        <time>2019-06-23T10:58:46Z</time>
      </trkpt>
      <trkpt lat="42.835728982463479" lon="-2.664481960237026">
        <ele>541.79999999999995</ele>
        <time>2019-06-23T10:58:48Z</time>
      </trkpt>
      <trkpt lat="42.835739040747285" lon="-2.66457499936223">
        <ele>541.79999999999995</ele>
        <time>2019-06-23T10:58:49Z</time>
      </trkpt>
      <trkpt lat="42.835749015212059" lon="-2.664669966325164">
        <ele>541.39999999999998</ele>
        <time>2019-06-23T10:58:50Z</time>
      </trkpt>
      <trkpt lat="42.835771981626749" lon="-2.664859984070063">
        <ele>541.39999999999998</ele>
        <time>2019-06-23T10:58:52Z</time>
      </trkpt>
      <trkpt lat="42.83579302020371" lon="-2.665053019300103">
        <ele>541.20000000000005</ele>
        <time>2019-06-23T10:58:54Z</time>
      </trkpt>
      <trkpt lat="42.835805006325245" lon="-2.665148992091417">
        <ele>541.20000000000005</ele>
        <time>2019-06-23T10:58:55Z</time>
      </trkpt>
      <trkpt lat="42.8358159866184" lon="-2.665247982367873">
        <ele>541.20000000000005</ele>
        <time>2019-06-23T10:58:56Z</time>
      </trkpt>
      <trkpt lat="42.835825039073825" lon="-2.665343033149838">
        <ele>541.20000000000005</ele>
        <time>2019-06-23T10:58:57Z</time>
      </trkpt>
      <trkpt lat="42.835834007710218" lon="-2.665435988456011">
        <ele>541</ele>
        <time>2019-06-23T10:58:58Z</time>
      </trkpt>
      <trkpt lat="42.835856974124908" lon="-2.665618965402246">
        <ele>540.60000000000002</ele>
        <time>2019-06-23T10:59:00Z</time>
      </trkpt>
      <trkpt lat="42.835872983559966" lon="-2.665764978155494">
        <ele>540.39999999999998</ele>
        <time>2019-06-23T10:59:02Z</time>
      </trkpt>
      <trkpt lat="42.835885975509882" lon="-2.665860028937459">
        <ele>540.39999999999998</ele>
        <time>2019-06-23T10:59:04Z</time>
      </trkpt>
      <trkpt lat="42.835889998823404" lon="-2.665937980636954">
        <ele>540.20000000000005</ele>
        <time>2019-06-23T10:59:06Z</time>
      </trkpt>
      <trkpt lat="42.835896033793688" lon="-2.665972011163831">
        <ele>540.20000000000005</ele>
        <time>2019-06-23T10:59:08Z</time>
      </trkpt>
      <trkpt lat="42.835896033793688" lon="-2.665974022820592">
        <ele>540.39999999999998</ele>
        <time>2019-06-23T10:59:09Z</time>
      </trkpt>
      <trkpt lat="42.835892010480165" lon="-2.666031019762158">
        <ele>540.20000000000005</ele>
        <time>2019-06-23T10:59:43Z</time>
      </trkpt>
      <trkpt lat="42.835899973288178" lon="-2.666071001440287">
        <ele>540.20000000000005</ele>
        <time>2019-06-23T10:59:44Z</time>
      </trkpt>
      <trkpt lat="42.835913971066475" lon="-2.666176026687026">
        <ele>540.20000000000005</ele>
        <time>2019-06-23T10:59:46Z</time>
      </trkpt>
      <trkpt lat="42.835931992158294" lon="-2.666304018348455">
        <ele>540.20000000000005</ele>
        <time>2019-06-23T10:59:48Z</time>
      </trkpt>
      <trkpt lat="42.835941966623068" lon="-2.666373001411557">
        <ele>540</ele>
        <time>2019-06-23T10:59:49Z</time>
      </trkpt>
      <trkpt lat="42.835952024906874" lon="-2.666447013616562">
        <ele>540.20000000000005</ele>
        <time>2019-06-23T10:59:50Z</time>
      </trkpt>
      <trkpt lat="42.835971973836422" lon="-2.666599983349443">
        <ele>540.20000000000005</ele>
        <time>2019-06-23T10:59:52Z</time>
      </trkpt>
      <trkpt lat="42.835982032120228" lon="-2.666680030524731">
        <ele>540</ele>
        <time>2019-06-23T10:59:53Z</time>
      </trkpt>
      <trkpt lat="42.835992006585002" lon="-2.666762005537748">
        <ele>540</ele>
        <time>2019-06-23T10:59:54Z</time>
      </trkpt>
      <trkpt lat="42.836012961342931" lon="-2.666934002190828">
        <ele>539.79999999999995</ele>
        <time>2019-06-23T10:59:56Z</time>
      </trkpt>
      <trkpt lat="42.836037017405033" lon="-2.667111027985811">
        <ele>539.60000000000002</ele>
        <time>2019-06-23T10:59:58Z</time>
      </trkpt>
      <trkpt lat="42.836058977991343" lon="-2.667291993275285">
        <ele>539.20000000000005</ele>
        <time>2019-06-23T11:00:00Z</time>
      </trkpt>
      <trkpt lat="42.836082028225064" lon="-2.667478993535042">
        <ele>538.79999999999995</ele>
        <time>2019-06-23T11:00:02Z</time>
      </trkpt>
      <trkpt lat="42.836101977154613" lon="-2.667670017108321">
        <ele>538.60000000000002</ele>
        <time>2019-06-23T11:00:04Z</time>
      </trkpt>
      <trkpt lat="42.836113963276148" lon="-2.667765989899635">
        <ele>538.39999999999998</ele>
        <time>2019-06-23T11:00:05Z</time>
      </trkpt>
      <trkpt lat="42.836125027388334" lon="-2.667861962690949">
        <ele>538.20000000000005</ele>
        <time>2019-06-23T11:00:06Z</time>
      </trkpt>
      <trkpt lat="42.836135001853108" lon="-2.667960030958056">
        <ele>538</ele>
        <time>2019-06-23T11:00:07Z</time>
      </trkpt>
      <trkpt lat="42.836144976317883" lon="-2.668057009577751">
        <ele>538.20000000000005</ele>
        <time>2019-06-23T11:00:08Z</time>
      </trkpt>
      <trkpt lat="42.836164003238082" lon="-2.668249038979411">
        <ele>538</ele>
        <time>2019-06-23T11:00:10Z</time>
      </trkpt>
      <trkpt lat="42.836185041815042" lon="-2.668436039239168">
        <ele>538</ele>
        <time>2019-06-23T11:00:12Z</time>
      </trkpt>
      <trkpt lat="42.836197027936578" lon="-2.668523965403438">
        <ele>538</ele>
        <time>2019-06-23T11:00:13Z</time>
      </trkpt>
      <trkpt lat="42.836208008229733" lon="-2.668606024235487">
        <ele>537.79999999999995</ele>
        <time>2019-06-23T11:00:14Z</time>
      </trkpt>
      <trkpt lat="42.836228040978312" lon="-2.66874298453331">
        <ele>537.60000000000002</ele>
        <time>2019-06-23T11:00:16Z</time>
      </trkpt>
      <trkpt lat="42.836237009614706" lon="-2.668804004788399">
        <ele>537.60000000000002</ele>
        <time>2019-06-23T11:00:17Z</time>
      </trkpt>
      <trkpt lat="42.836243966594338" lon="-2.668856978416443">
        <ele>537.60000000000002</ele>
        <time>2019-06-23T11:00:18Z</time>
      </trkpt>
      <trkpt lat="42.836253019049764" lon="-2.668939959257841">
        <ele>537.60000000000002</ele>
        <time>2019-06-23T11:00:20Z</time>
      </trkpt>
      <trkpt lat="42.836258970201015" lon="-2.668993016704917">
        <ele>537.39999999999998</ele>
        <time>2019-06-23T11:00:22Z</time>
      </trkpt>
      <trkpt lat="42.836257964372635" lon="-2.669006008654833">
        <ele>537.20000000000005</ele>
        <time>2019-06-23T11:00:24Z</time>
      </trkpt>
      <trkpt lat="42.836257964372635" lon="-2.669003996998072">
        <ele>537.20000000000005</ele>
        <time>2019-06-23T11:00:25Z</time>
      </trkpt>
      <trkpt lat="42.83626701682806" lon="-2.669040961191058">
        <ele>537.39999999999998</ele>
        <time>2019-06-23T11:00:50Z</time>
      </trkpt>
      <trkpt lat="42.836271040141582" lon="-2.669083038344979">
        <ele>537.39999999999998</ele>
        <time>2019-06-23T11:00:51Z</time>
      </trkpt>
      <trkpt lat="42.836276991292834" lon="-2.669138023629785">
        <ele>537.60000000000002</ele>
        <time>2019-06-23T11:00:52Z</time>
      </trkpt>
      <trkpt lat="42.836284032091498" lon="-2.669198038056493">
        <ele>537.60000000000002</ele>
        <time>2019-06-23T11:00:53Z</time>
      </trkpt>
      <trkpt lat="42.83628897741437" lon="-2.669262997806072">
        <ele>537.60000000000002</ele>
        <time>2019-06-23T11:00:54Z</time>
      </trkpt>
      <trkpt lat="42.836298029869795" lon="-2.669413033872843">
        <ele>537.39999999999998</ele>
        <time>2019-06-23T11:00:56Z</time>
      </trkpt>
      <trkpt lat="42.836315967142582" lon="-2.669568015262485">
        <ele>537.60000000000002</ele>
        <time>2019-06-23T11:00:58Z</time>
      </trkpt>
      <trkpt lat="42.836324013769627" lon="-2.669649990275502">
        <ele>537.39999999999998</ele>
        <time>2019-06-23T11:00:59Z</time>
      </trkpt>
      <trkpt lat="42.836334994062781" lon="-2.669741017743945">
        <ele>537.39999999999998</ele>
        <time>2019-06-23T11:01:00Z</time>
      </trkpt>
      <trkpt lat="42.836356032639742" lon="-2.669928018003702">
        <ele>536.39999999999998</ele>
        <time>2019-06-23T11:01:02Z</time>
      </trkpt>
      <trkpt lat="42.83637598156929" lon="-2.670110994949937">
        <ele>535.79999999999995</ele>
        <time>2019-06-23T11:01:04Z</time>
      </trkpt>
      <trkpt lat="42.836384028196335" lon="-2.670204034075141">
        <ele>535.39999999999998</ele>
        <time>2019-06-23T11:01:05Z</time>
      </trkpt>
      <trkpt lat="42.836394002661109" lon="-2.670303024351597">
        <ele>535.20000000000005</ele>
        <time>2019-06-23T11:01:06Z</time>
      </trkpt>
      <trkpt lat="42.836401965469122" lon="-2.670402014628053">
        <ele>535</ele>
        <time>2019-06-23T11:01:07Z</time>
      </trkpt>
      <trkpt lat="42.836414035409689" lon="-2.670501004904509">
        <ele>535</ele>
        <time>2019-06-23T11:01:08Z</time>
      </trkpt>
      <trkpt lat="42.836435995995998" lon="-2.670704014599323">
        <ele>534.60000000000002</ele>
        <time>2019-06-23T11:01:10Z</time>
      </trkpt>
      <trkpt lat="42.836456028744578" lon="-2.670906018465757">
        <ele>534.60000000000002</ele>
        <time>2019-06-23T11:01:12Z</time>
      </trkpt>
      <trkpt lat="42.836466003209352" lon="-2.671009032055736">
        <ele>534.20000000000005</ele>
        <time>2019-06-23T11:01:13Z</time>
      </trkpt>
      <trkpt lat="42.836478995159268" lon="-2.671110033988953">
        <ele>534</ele>
        <time>2019-06-23T11:01:14Z</time>
      </trkpt>
      <trkpt lat="42.836501961573958" lon="-2.671314971521497">
        <ele>534</ele>
        <time>2019-06-23T11:01:16Z</time>
      </trkpt>
      <trkpt lat="42.836510008201003" lon="-2.671418990939856">
        <ele>533.79999999999995</ele>
        <time>2019-06-23T11:01:17Z</time>
      </trkpt>
      <trkpt lat="42.836521994322538" lon="-2.671517981216312">
        <ele>533.79999999999995</ele>
        <time>2019-06-23T11:01:18Z</time>
      </trkpt>
      <trkpt lat="42.836534986272454" lon="-2.671615965664387">
        <ele>534</ele>
        <time>2019-06-23T11:01:19Z</time>
      </trkpt>
      <trkpt lat="42.83654697239399" lon="-2.671716967597604">
        <ele>533.79999999999995</ele>
        <time>2019-06-23T11:01:20Z</time>
      </trkpt>
      <trkpt lat="42.836574967950583" lon="-2.671919977292419">
        <ele>533.79999999999995</ele>
        <time>2019-06-23T11:01:22Z</time>
      </trkpt>
      <trkpt lat="42.836602963507175" lon="-2.672127010300756">
        <ele>533.79999999999995</ele>
        <time>2019-06-23T11:01:24Z</time>
      </trkpt>
      <trkpt lat="42.836617967113853" lon="-2.672227006405592">
        <ele>533.60000000000002</ele>
        <time>2019-06-23T11:01:25Z</time>
      </trkpt>
      <trkpt lat="42.836628025397658" lon="-2.67232901416719">
        <ele>533.60000000000002</ele>
        <time>2019-06-23T11:01:26Z</time>
      </trkpt>
      <trkpt lat="42.836643029004335" lon="-2.672543004155159">
        <ele>533.60000000000002</ele>
        <time>2019-06-23T11:01:28Z</time>
      </trkpt>
      <trkpt lat="42.836659960448742" lon="-2.672750959172845">
        <ele>533.20000000000005</ele>
        <time>2019-06-23T11:01:30Z</time>
      </trkpt>
      <trkpt lat="42.836683010682464" lon="-2.67295497469604">
        <ele>533</ele>
        <time>2019-06-23T11:01:32Z</time>
      </trkpt>
      <trkpt lat="42.836694996803999" lon="-2.673053964972496">
        <ele>533</ele>
        <time>2019-06-23T11:01:33Z</time>
      </trkpt>
      <trkpt lat="42.836705977097154" lon="-2.673153039067984">
        <ele>532.79999999999995</ele>
        <time>2019-06-23T11:01:34Z</time>
      </trkpt>
      <trkpt lat="42.836728021502495" lon="-2.673346996307373">
        <ele>533</ele>
        <time>2019-06-23T11:01:36Z</time>
      </trkpt>
      <trkpt lat="42.836751993745565" lon="-2.673546988517046">
        <ele>532.79999999999995</ele>
        <time>2019-06-23T11:01:38Z</time>
      </trkpt>
      <trkpt lat="42.836780995130539" lon="-2.673746980726719">
        <ele>532.79999999999995</ele>
        <time>2019-06-23T11:01:40Z</time>
      </trkpt>
      <trkpt lat="42.836811002343893" lon="-2.673944961279631">
        <ele>532.79999999999995</ele>
        <time>2019-06-23T11:01:42Z</time>
      </trkpt>
      <trkpt lat="42.83682500012219" lon="-2.674044035375118">
        <ele>532.79999999999995</ele>
        <time>2019-06-23T11:01:43Z</time>
      </trkpt>
      <trkpt lat="42.836838997900486" lon="-2.674144031479955">
        <ele>532.79999999999995</ele>
        <time>2019-06-23T11:01:44Z</time>
      </trkpt>
      <trkpt lat="42.836865987628698" lon="-2.674344023689628">
        <ele>532.79999999999995</ele>
        <time>2019-06-23T11:01:46Z</time>
      </trkpt>
      <trkpt lat="42.83689096570015" lon="-2.674539992585778">
        <ele>532.79999999999995</ele>
        <time>2019-06-23T11:01:48Z</time>
      </trkpt>
      <trkpt lat="42.836915021762252" lon="-2.674732021987438">
        <ele>532.79999999999995</ele>
        <time>2019-06-23T11:01:50Z</time>
      </trkpt>
      <trkpt lat="42.836937988176942" lon="-2.674918016418815">
        <ele>533</ele>
        <time>2019-06-23T11:01:52Z</time>
      </trkpt>
      <trkpt lat="42.836959026753902" lon="-2.675084983929992">
        <ele>533</ele>
        <time>2019-06-23T11:01:54Z</time>
      </trkpt>
      <trkpt lat="42.836978975683451" lon="-2.675209958106279">
        <ele>533</ele>
        <time>2019-06-23T11:01:56Z</time>
      </trkpt>
      <trkpt lat="42.836992973461747" lon="-2.675291011109948">
        <ele>533</ele>
        <time>2019-06-23T11:01:58Z</time>
      </trkpt>
      <trkpt lat="42.837000014260411" lon="-2.675334010273218">
        <ele>533.20000000000005</ele>
        <time>2019-06-23T11:02:00Z</time>
      </trkpt>
      <trkpt lat="42.837004037573934" lon="-2.675343984737992">
        <ele>533.20000000000005</ele>
        <time>2019-06-23T11:02:01Z</time>
      </trkpt>
      <trkpt lat="42.837005965411663" lon="-2.675349013879895">
        <ele>533.39999999999998</ele>
        <time>2019-06-23T11:02:02Z</time>
      </trkpt>
      <trkpt lat="42.837005965411663" lon="-2.675351025536656">
        <ele>533.39999999999998</ele>
        <time>2019-06-23T11:02:03Z</time>
      </trkpt>
      <trkpt lat="42.837016023695469" lon="-2.675424031913281">
        <ele>533.79999999999995</ele>
        <time>2019-06-23T11:02:08Z</time>
      </trkpt>
      <trkpt lat="42.837030021473765" lon="-2.67553199082613">
        <ele>533.60000000000002</ele>
        <time>2019-06-23T11:02:10Z</time>
      </trkpt>
      <trkpt lat="42.837045025080442" lon="-2.675668029114604">
        <ele>533.60000000000002</ele>
        <time>2019-06-23T11:02:12Z</time>
      </trkpt>
      <trkpt lat="42.837051982060075" lon="-2.675742963328958">
        <ele>533.60000000000002</ele>
        <time>2019-06-23T11:02:13Z</time>
      </trkpt>
      <trkpt lat="42.837059022858739" lon="-2.675820998847485">
        <ele>533.79999999999995</ele>
        <time>2019-06-23T11:02:14Z</time>
      </trkpt>
      <trkpt lat="42.837075032293797" lon="-2.675978997722268">
        <ele>533.79999999999995</ele>
        <time>2019-06-23T11:02:16Z</time>
      </trkpt>
      <trkpt lat="42.837091041728854" lon="-2.676144959405065">
        <ele>533.60000000000002</ele>
        <time>2019-06-23T11:02:18Z</time>
      </trkpt>
      <trkpt lat="42.837099004536867" lon="-2.676231041550636">
        <ele>533.60000000000002</ele>
        <time>2019-06-23T11:02:19Z</time>
      </trkpt>
      <trkpt lat="42.8371059615165" lon="-2.676317039877176">
        <ele>533.60000000000002</ele>
        <time>2019-06-23T11:02:20Z</time>
      </trkpt>
      <trkpt lat="42.837116019800305" lon="-2.676403038203716">
        <ele>533.39999999999998</ele>
        <time>2019-06-23T11:02:21Z</time>
      </trkpt>
      <trkpt lat="42.837129011750221" lon="-2.676488030701876">
        <ele>533.20000000000005</ele>
        <time>2019-06-23T11:02:22Z</time>
      </trkpt>
      <trkpt lat="42.837157007306814" lon="-2.676663966849446">
        <ele>533</ele>
        <time>2019-06-23T11:02:24Z</time>
      </trkpt>
      <trkpt lat="42.83719296567142" lon="-2.676849039271474">
        <ele>532.60000000000002</ele>
        <time>2019-06-23T11:02:26Z</time>
      </trkpt>
      <trkpt lat="42.837217021733522" lon="-2.677033022046089">
        <ele>532.20000000000005</ele>
        <time>2019-06-23T11:02:28Z</time>
      </trkpt>
      <trkpt lat="42.837244011461735" lon="-2.67722899094224">
        <ele>532</ele>
        <time>2019-06-23T11:02:30Z</time>
      </trkpt>
      <trkpt lat="42.837254991754889" lon="-2.677327981218696">
        <ele>532</ele>
        <time>2019-06-23T11:02:31Z</time>
      </trkpt>
      <trkpt lat="42.837266977876425" lon="-2.677426971495152">
        <ele>532</ele>
        <time>2019-06-23T11:02:32Z</time>
      </trkpt>
      <trkpt lat="42.837291033938527" lon="-2.677626963704824">
        <ele>531.79999999999995</ele>
        <time>2019-06-23T11:02:34Z</time>
      </trkpt>
      <trkpt lat="42.837315006181598" lon="-2.677813963964582">
        <ele>531.79999999999995</ele>
        <time>2019-06-23T11:02:36Z</time>
      </trkpt>
      <trkpt lat="42.837325986474752" lon="-2.67789401113987">
        <ele>531.60000000000002</ele>
        <time>2019-06-23T11:02:37Z</time>
      </trkpt>
      <trkpt lat="42.837333027273417" lon="-2.677957965061069">
        <ele>531.60000000000002</ele>
        <time>2019-06-23T11:02:38Z</time>
      </trkpt>
      <trkpt lat="42.837340990081429" lon="-2.678033988922834">
        <ele>531.60000000000002</ele>
        <time>2019-06-23T11:02:40Z</time>
      </trkpt>
      <trkpt lat="42.837348030880094" lon="-2.678071958944202">
        <ele>531.79999999999995</ele>
        <time>2019-06-23T11:02:42Z</time>
      </trkpt>
      <trkpt lat="42.837350964546204" lon="-2.678091991692781">
        <ele>532</ele>
        <time>2019-06-23T11:02:44Z</time>
      </trkpt>
      <trkpt lat="42.837352976202965" lon="-2.678096015006304">
        <ele>532</ele>
        <time>2019-06-23T11:02:45Z</time>
      </trkpt>
      <trkpt lat="42.837353982031345" lon="-2.678099032491446">
        <ele>532.39999999999998</ele>
        <time>2019-06-23T11:02:46Z</time>
      </trkpt>
      <trkpt lat="42.837359011173248" lon="-2.678154017776251">
        <ele>532.60000000000002</ele>
        <time>2019-06-23T11:03:20Z</time>
      </trkpt>
      <trkpt lat="42.837361022830009" lon="-2.678181007504463">
        <ele>532.60000000000002</ele>
        <time>2019-06-23T11:03:21Z</time>
      </trkpt>
      <trkpt lat="42.8373649623245" lon="-2.678211014717817">
        <ele>532.60000000000002</ele>
        <time>2019-06-23T11:03:22Z</time>
      </trkpt>
      <trkpt lat="42.837377032265067" lon="-2.678293995559216">
        <ele>532.60000000000002</ele>
        <time>2019-06-23T11:03:24Z</time>
      </trkpt>
      <trkpt lat="42.83738499507308" lon="-2.67834696918726">
        <ele>532.39999999999998</ele>
        <time>2019-06-23T11:03:25Z</time>
      </trkpt>
      <trkpt lat="42.837392035871744" lon="-2.678407989442349">
        <ele>532.39999999999998</ele>
        <time>2019-06-23T11:03:26Z</time>
      </trkpt>
      <trkpt lat="42.837406033650041" lon="-2.678548973053694">
        <ele>532.60000000000002</ele>
        <time>2019-06-23T11:03:28Z</time>
      </trkpt>
      <trkpt lat="42.83742799423635" lon="-2.678706971928477">
        <ele>532.39999999999998</ele>
        <time>2019-06-23T11:03:30Z</time>
      </trkpt>
      <trkpt lat="42.837437968701124" lon="-2.678788024932146">
        <ele>532.39999999999998</ele>
        <time>2019-06-23T11:03:31Z</time>
      </trkpt>
      <trkpt lat="42.83744802698493" lon="-2.678873017430306">
        <ele>532.39999999999998</ele>
        <time>2019-06-23T11:03:32Z</time>
      </trkpt>
      <trkpt lat="42.83747099339962" lon="-2.679050965234637">
        <ele>531.60000000000002</ele>
        <time>2019-06-23T11:03:34Z</time>
      </trkpt>
      <trkpt lat="42.837493037804961" lon="-2.679230002686381">
        <ele>531.20000000000005</ele>
        <time>2019-06-23T11:03:36Z</time>
      </trkpt>
      <trkpt lat="42.837505023926497" lon="-2.679319018498063">
        <ele>531.20000000000005</ele>
        <time>2019-06-23T11:03:37Z</time>
      </trkpt>
      <trkpt lat="42.837517010048032" lon="-2.679409040138125">
        <ele>531</ele>
        <time>2019-06-23T11:03:38Z</time>
      </trkpt>
      <trkpt lat="42.83753695897758" lon="-2.679590005427599">
        <ele>531</ele>
        <time>2019-06-23T11:03:40Z</time>
      </trkpt>
      <trkpt lat="42.837559003382921" lon="-2.679772982373834">
        <ele>530.79999999999995</ele>
        <time>2019-06-23T11:03:42Z</time>
      </trkpt>
      <trkpt lat="42.837579036131501" lon="-2.679956965148449">
        <ele>530.79999999999995</ele>
        <time>2019-06-23T11:03:44Z</time>
      </trkpt>
      <trkpt lat="42.837588004767895" lon="-2.680052015930414">
        <ele>530.79999999999995</ele>
        <time>2019-06-23T11:03:45Z</time>
      </trkpt>
      <trkpt lat="42.837594039738178" lon="-2.680147988721728">
        <ele>530.79999999999995</ele>
        <time>2019-06-23T11:03:46Z</time>
      </trkpt>
      <trkpt lat="42.837608037516475" lon="-2.680339012295008">
        <ele>530.79999999999995</ele>
        <time>2019-06-23T11:03:48Z</time>
      </trkpt>
      <trkpt lat="42.837629998102784" lon="-2.680532969534397">
        <ele>530.79999999999995</ele>
        <time>2019-06-23T11:03:50Z</time>
      </trkpt>
      <trkpt lat="42.837655982002616" lon="-2.680729022249579">
        <ele>530.79999999999995</ele>
        <time>2019-06-23T11:03:52Z</time>
      </trkpt>
      <trkpt lat="42.837680038064718" lon="-2.680927002802491">
        <ele>530.79999999999995</ele>
        <time>2019-06-23T11:03:54Z</time>
      </trkpt>
      <trkpt lat="42.837704010307789" lon="-2.681128000840545">
        <ele>530.60000000000002</ele>
        <time>2019-06-23T11:03:56Z</time>
      </trkpt>
      <trkpt lat="42.837725970894098" lon="-2.681331010535359">
        <ele>530.60000000000002</ele>
        <time>2019-06-23T11:03:58Z</time>
      </trkpt>
      <trkpt lat="42.837750026956201" lon="-2.681533014401794">
        <ele>530.60000000000002</ele>
        <time>2019-06-23T11:04:00Z</time>
      </trkpt>
      <trkpt lat="42.837777016684413" lon="-2.681738035753369">
        <ele>530.60000000000002</ele>
        <time>2019-06-23T11:04:02Z</time>
      </trkpt>
      <trkpt lat="42.837790008634329" lon="-2.681840965524316">
        <ele>530.60000000000002</ele>
        <time>2019-06-23T11:04:03Z</time>
      </trkpt>
      <trkpt lat="42.837801994755864" lon="-2.681943979114294">
        <ele>530.39999999999998</ele>
        <time>2019-06-23T11:04:04Z</time>
      </trkpt>
      <trkpt lat="42.837826972827315" lon="-2.682150006294251">
        <ele>530.39999999999998</ele>
        <time>2019-06-23T11:04:06Z</time>
      </trkpt>
      <trkpt lat="42.837853040546179" lon="-2.682354021817446">
        <ele>530.60000000000002</ele>
        <time>2019-06-23T11:04:08Z</time>
      </trkpt>
      <trkpt lat="42.837875001132488" lon="-2.682559965178371">
        <ele>530.60000000000002</ele>
        <time>2019-06-23T11:04:10Z</time>
      </trkpt>
      <trkpt lat="42.837898973375559" lon="-2.682765992358327">
        <ele>530.60000000000002</ele>
        <time>2019-06-23T11:04:12Z</time>
      </trkpt>
      <trkpt lat="42.837925963103771" lon="-2.682972019538283">
        <ele>530.60000000000002</ele>
        <time>2019-06-23T11:04:14Z</time>
      </trkpt>
      <trkpt lat="42.837948007509112" lon="-2.683171005919576">
        <ele>530.60000000000002</ele>
        <time>2019-06-23T11:04:16Z</time>
      </trkpt>
      <trkpt lat="42.837969968095422" lon="-2.683360017836094">
        <ele>530.60000000000002</ele>
        <time>2019-06-23T11:04:18Z</time>
      </trkpt>
      <trkpt lat="42.837991006672382" lon="-2.683534026145935">
        <ele>530.60000000000002</ele>
        <time>2019-06-23T11:04:20Z</time>
      </trkpt>
      <trkpt lat="42.838011039420962" lon="-2.683682972565293">
        <ele>530.60000000000002</ele>
        <time>2019-06-23T11:04:22Z</time>
      </trkpt>
      <trkpt lat="42.838024031370878" lon="-2.683751033619046">
        <ele>530.60000000000002</ele>
        <time>2019-06-23T11:04:23Z</time>
      </trkpt>
      <trkpt lat="42.838039034977555" lon="-2.683816999197006">
        <ele>530.60000000000002</ele>
        <time>2019-06-23T11:04:24Z</time>
      </trkpt>
      <trkpt lat="42.838054038584232" lon="-2.683872990310192">
        <ele>530.79999999999995</ele>
        <time>2019-06-23T11:04:25Z</time>
      </trkpt>
      <trkpt lat="42.838064013049006" lon="-2.683906015008688">
        <ele>530.79999999999995</ele>
        <time>2019-06-23T11:04:26Z</time>
      </trkpt>
      <trkpt lat="42.838074993342161" lon="-2.683938033878803">
        <ele>530.60000000000002</ele>
        <time>2019-06-23T11:04:28Z</time>
      </trkpt>
      <trkpt lat="42.838095026090741" lon="-2.683988995850086">
        <ele>531</ele>
        <time>2019-06-23T11:04:30Z</time>
      </trkpt>
      <trkpt lat="42.838120004162192" lon="-2.684088991954923">
        <ele>531.39999999999998</ele>
        <time>2019-06-23T11:04:32Z</time>
      </trkpt>
      <trkpt lat="42.838130984455347" lon="-2.684215977787972">
        <ele>531.79999999999995</ele>
        <time>2019-06-23T11:04:34Z</time>
      </trkpt>
      <trkpt lat="42.838130984455347" lon="-2.684356961399317">
        <ele>531.79999999999995</ele>
        <time>2019-06-23T11:04:36Z</time>
      </trkpt>
      <trkpt lat="42.838126961141825" lon="-2.684431979432702">
        <ele>531.79999999999995</ele>
        <time>2019-06-23T11:04:37Z</time>
      </trkpt>
      <trkpt lat="42.838123021647334" lon="-2.68451102077961">
        <ele>532</ele>
        <time>2019-06-23T11:04:38Z</time>
      </trkpt>
      <trkpt lat="42.838123021647334" lon="-2.684672037139535">
        <ele>532</ele>
        <time>2019-06-23T11:04:40Z</time>
      </trkpt>
      <trkpt lat="42.838129978626966" lon="-2.684754012152553">
        <ele>532</ele>
        <time>2019-06-23T11:04:41Z</time>
      </trkpt>
      <trkpt lat="42.838140036910772" lon="-2.68483498133719">
        <ele>531.79999999999995</ele>
        <time>2019-06-23T11:04:42Z</time>
      </trkpt>
      <trkpt lat="42.838151017203927" lon="-2.684918968006969">
        <ele>532</ele>
        <time>2019-06-23T11:04:43Z</time>
      </trkpt>
      <trkpt lat="42.838160991668701" lon="-2.685004966333509">
        <ele>532</ele>
        <time>2019-06-23T11:04:44Z</time>
      </trkpt>
      <trkpt lat="42.838180018588901" lon="-2.68517897464335">
        <ele>532</ele>
        <time>2019-06-23T11:04:46Z</time>
      </trkpt>
      <trkpt lat="42.838203990831971" lon="-2.685356000438333">
        <ele>532</ele>
        <time>2019-06-23T11:04:48Z</time>
      </trkpt>
      <trkpt lat="42.838227041065693" lon="-2.685535959899426">
        <ele>532</ele>
        <time>2019-06-23T11:04:50Z</time>
      </trkpt>
      <trkpt lat="42.838247995823622" lon="-2.685719020664692">
        <ele>532</ele>
        <time>2019-06-23T11:04:52Z</time>
      </trkpt>
      <trkpt lat="42.838267022743821" lon="-2.685904009267688">
        <ele>532</ele>
        <time>2019-06-23T11:04:54Z</time>
      </trkpt>
      <trkpt lat="42.838294012472034" lon="-2.686092015355825">
        <ele>531.79999999999995</ele>
        <time>2019-06-23T11:04:56Z</time>
      </trkpt>
      <trkpt lat="42.838325025513768" lon="-2.686285972595215">
        <ele>532</ele>
        <time>2019-06-23T11:04:58Z</time>
      </trkpt>
      <trkpt lat="42.838354026898742" lon="-2.686484958976507">
        <ele>531.79999999999995</ele>
        <time>2019-06-23T11:05:00Z</time>
      </trkpt>
      <trkpt lat="42.838377999141812" lon="-2.686688974499703">
        <ele>531.79999999999995</ele>
        <time>2019-06-23T11:05:02Z</time>
      </trkpt>
      <trkpt lat="42.838387973606586" lon="-2.686791988089681">
        <ele>531.79999999999995</ele>
        <time>2019-06-23T11:05:03Z</time>
      </trkpt>
      <trkpt lat="42.838399037718773" lon="-2.686893995851278">
        <ele>531.79999999999995</ele>
        <time>2019-06-23T11:05:04Z</time>
      </trkpt>
      <trkpt lat="42.838420998305082" lon="-2.687098011374474">
        <ele>531.60000000000002</ele>
        <time>2019-06-23T11:05:06Z</time>
      </trkpt>
      <trkpt lat="42.83843700774014" lon="-2.687300015240908">
        <ele>531.60000000000002</ele>
        <time>2019-06-23T11:05:08Z</time>
      </trkpt>
      <trkpt lat="42.838456034660339" lon="-2.687500007450581">
        <ele>531.39999999999998</ele>
        <time>2019-06-23T11:05:10Z</time>
      </trkpt>
      <trkpt lat="42.838472966104746" lon="-2.687686001881957">
        <ele>531.39999999999998</ele>
        <time>2019-06-23T11:05:12Z</time>
      </trkpt>
      <trkpt lat="42.838483024388552" lon="-2.687773006036878">
        <ele>531.20000000000005</ele>
        <time>2019-06-23T11:05:13Z</time>
      </trkpt>
      <trkpt lat="42.838492998853326" lon="-2.687855986878276">
        <ele>531.20000000000005</ele>
        <time>2019-06-23T11:05:14Z</time>
      </trkpt>
      <trkpt lat="42.838518982753158" lon="-2.688009040430188">
        <ele>531</ele>
        <time>2019-06-23T11:05:16Z</time>
      </trkpt>
      <trkpt lat="42.838551001623273" lon="-2.688122028484941">
        <ele>531</ele>
        <time>2019-06-23T11:05:18Z</time>
      </trkpt>
      <trkpt lat="42.838578997179866" lon="-2.688180031254888">
        <ele>530.79999999999995</ele>
        <time>2019-06-23T11:05:20Z</time>
      </trkpt>
      <trkpt lat="42.838596012443304" lon="-2.688202997669578">
        <ele>530.79999999999995</ele>
        <time>2019-06-23T11:05:22Z</time>
      </trkpt>
      <trkpt lat="42.838617973029613" lon="-2.68822998739779">
        <ele>530.79999999999995</ele>
        <time>2019-06-23T11:05:24Z</time>
      </trkpt>
      <trkpt lat="42.83863197080791" lon="-2.688292013481259">
        <ele>530.79999999999995</ele>
        <time>2019-06-23T11:05:26Z</time>
      </trkpt>
      <trkpt lat="42.838643034920096" lon="-2.688394021242857">
        <ele>531</ele>
        <time>2019-06-23T11:05:28Z</time>
      </trkpt>
      <trkpt lat="42.838656026870012" lon="-2.688453029841185">
        <ele>531</ele>
        <time>2019-06-23T11:05:29Z</time>
      </trkpt>
      <trkpt lat="42.838679999113083" lon="-2.688515977934003">
        <ele>531</ele>
        <time>2019-06-23T11:05:30Z</time>
      </trkpt>
      <trkpt lat="42.838747976347804" lon="-2.688647992908955">
        <ele>531</ele>
        <time>2019-06-23T11:05:32Z</time>
      </trkpt>
      <trkpt lat="42.838822994381189" lon="-2.688785959035158">
        <ele>530.79999999999995</ele>
        <time>2019-06-23T11:05:34Z</time>
      </trkpt>
      <trkpt lat="42.838861970230937" lon="-2.688857037574053">
        <ele>530.79999999999995</ele>
        <time>2019-06-23T11:05:35Z</time>
      </trkpt>
      <trkpt lat="42.838901029899716" lon="-2.688929038122296">
        <ele>530.79999999999995</ele>
        <time>2019-06-23T11:05:36Z</time>
      </trkpt>
      <trkpt lat="42.838983004912734" lon="-2.689072033390403">
        <ele>530.39999999999998</ele>
        <time>2019-06-23T11:05:38Z</time>
      </trkpt>
      <trkpt lat="42.839064979925752" lon="-2.689214022830129">
        <ele>530.39999999999998</ele>
        <time>2019-06-23T11:05:40Z</time>
      </trkpt>
      <trkpt lat="42.839147038757801" lon="-2.689358023926616">
        <ele>530.39999999999998</ele>
        <time>2019-06-23T11:05:42Z</time>
      </trkpt>
      <trkpt lat="42.839227002114058" lon="-2.689500013366342">
        <ele>530.39999999999998</ele>
        <time>2019-06-23T11:05:44Z</time>
      </trkpt>
      <trkpt lat="42.839305959641933" lon="-2.689643008634448">
        <ele>530.20000000000005</ele>
        <time>2019-06-23T11:05:46Z</time>
      </trkpt>
      <trkpt lat="42.839345019310713" lon="-2.68971199169755">
        <ele>530.39999999999998</ele>
        <time>2019-06-23T11:05:47Z</time>
      </trkpt>
      <trkpt lat="42.83938399516046" lon="-2.689782986417413">
        <ele>530.39999999999998</ele>
        <time>2019-06-23T11:05:48Z</time>
      </trkpt>
      <trkpt lat="42.839464964345098" lon="-2.689921958371997">
        <ele>530.39999999999998</ele>
        <time>2019-06-23T11:05:50Z</time>
      </trkpt>
      <trkpt lat="42.839542999863625" lon="-2.69005699083209">
        <ele>530.39999999999998</ele>
        <time>2019-06-23T11:05:52Z</time>
      </trkpt>
      <trkpt lat="42.839616006240249" lon="-2.6901859883219">
        <ele>530.39999999999998</ele>
        <time>2019-06-23T11:05:54Z</time>
      </trkpt>
      <trkpt lat="42.83968398347497" lon="-2.690302999690175">
        <ele>530.60000000000002</ele>
        <time>2019-06-23T11:05:56Z</time>
      </trkpt>
      <trkpt lat="42.839712984859943" lon="-2.690352033823729">
        <ele>530.60000000000002</ele>
        <time>2019-06-23T11:05:57Z</time>
      </trkpt>
      <trkpt lat="42.839737040922046" lon="-2.690387992188335">
        <ele>530.79999999999995</ele>
        <time>2019-06-23T11:05:58Z</time>
      </trkpt>
      <trkpt lat="42.839759001508355" lon="-2.690410958603025">
        <ele>530.60000000000002</ele>
        <time>2019-06-23T11:05:59Z</time>
      </trkpt>
      <trkpt lat="42.839778028428555" lon="-2.690425040200353">
        <ele>530.79999999999995</ele>
        <time>2019-06-23T11:06:00Z</time>
      </trkpt>
      <trkpt lat="42.839792026206851" lon="-2.690436020493507">
        <ele>531</ele>
        <time>2019-06-23T11:06:02Z</time>
      </trkpt>
      <trkpt lat="42.839793032035232" lon="-2.690437026321888">
        <ele>531.20000000000005</ele>
        <time>2019-06-23T11:06:03Z</time>
      </trkpt>
      <trkpt lat="42.839826978743076" lon="-2.690456975251436">
        <ele>532.60000000000002</ele>
        <time>2019-06-23T11:06:15Z</time>
      </trkpt>
      <trkpt lat="42.839850028976798" lon="-2.690472984686494">
        <ele>532.39999999999998</ele>
        <time>2019-06-23T11:06:16Z</time>
      </trkpt>
      <trkpt lat="42.839905014261603" lon="-2.690517995506525">
        <ele>532.39999999999998</ele>
        <time>2019-06-23T11:06:18Z</time>
      </trkpt>
      <trkpt lat="42.839975003153086" lon="-2.690584966912866">
        <ele>532.60000000000002</ele>
        <time>2019-06-23T11:06:20Z</time>
      </trkpt>
      <trkpt lat="42.840057983994484" lon="-2.690663002431393">
        <ele>532.60000000000002</ele>
        <time>2019-06-23T11:06:22Z</time>
      </trkpt>
      <trkpt lat="42.840154962614179" lon="-2.69074103794992">
        <ele>532.60000000000002</ele>
        <time>2019-06-23T11:06:24Z</time>
      </trkpt>
      <trkpt lat="42.840259987860918" lon="-2.690815972164273">
        <ele>532.39999999999998</ele>
        <time>2019-06-23T11:06:26Z</time>
      </trkpt>
      <trkpt lat="42.840376999229193" lon="-2.690889984369278">
        <ele>532.60000000000002</ele>
        <time>2019-06-23T11:06:28Z</time>
      </trkpt>
      <trkpt lat="42.840491998940706" lon="-2.69097900018096">
        <ele>532.39999999999998</ele>
        <time>2019-06-23T11:06:30Z</time>
      </trkpt>
      <trkpt lat="42.840603981167078" lon="-2.69106600433588">
        <ele>532.60000000000002</ele>
        <time>2019-06-23T11:06:32Z</time>
      </trkpt>
      <trkpt lat="42.840725015848875" lon="-2.691144961863756">
        <ele>532.60000000000002</ele>
        <time>2019-06-23T11:06:34Z</time>
      </trkpt>
      <trkpt lat="42.84084496088326" lon="-2.691222997382283">
        <ele>532.60000000000002</ele>
        <time>2019-06-23T11:06:36Z</time>
      </trkpt>
      <trkpt lat="42.840963983908296" lon="-2.69130002707243">
        <ele>533</ele>
        <time>2019-06-23T11:06:38Z</time>
      </trkpt>
      <trkpt lat="42.841023998335004" lon="-2.691336991265416">
        <ele>533.20000000000005</ele>
        <time>2019-06-23T11:06:39Z</time>
      </trkpt>
      <trkpt lat="42.841083006933331" lon="-2.691376972943544">
        <ele>533.20000000000005</ele>
        <time>2019-06-23T11:06:40Z</time>
      </trkpt>
      <trkpt lat="42.841202029958367" lon="-2.691456014290452">
        <ele>533.39999999999998</ele>
        <time>2019-06-23T11:06:42Z</time>
      </trkpt>
      <trkpt lat="42.841320969164371" lon="-2.691532038152218">
        <ele>533.60000000000002</ele>
        <time>2019-06-23T11:06:44Z</time>
      </trkpt>
      <trkpt lat="42.841437980532646" lon="-2.691609989851713">
        <ele>534</ele>
        <time>2019-06-23T11:06:46Z</time>
      </trkpt>
      <trkpt lat="42.841559015214443" lon="-2.691691964864731">
        <ele>534.20000000000005</ele>
        <time>2019-06-23T11:06:48Z</time>
      </trkpt>
      <trkpt lat="42.84168197773397" lon="-2.691767988726497">
        <ele>534.39999999999998</ele>
        <time>2019-06-23T11:06:50Z</time>
      </trkpt>
      <trkpt lat="42.841801000759006" lon="-2.691863039508462">
        <ele>534.39999999999998</ele>
        <time>2019-06-23T11:06:52Z</time>
      </trkpt>
      <trkpt lat="42.841921029612422" lon="-2.691949959844351">
        <ele>534.39999999999998</ele>
        <time>2019-06-23T11:06:54Z</time>
      </trkpt>
      <trkpt lat="42.841977020725608" lon="-2.69198901951313">
        <ele>534.60000000000002</ele>
        <time>2019-06-23T11:06:55Z</time>
      </trkpt>
      <trkpt lat="42.842032006010413" lon="-2.692020032554865">
        <ele>534.60000000000002</ele>
        <time>2019-06-23T11:06:56Z</time>
      </trkpt>
      <trkpt lat="42.842135019600391" lon="-2.692080968990922">
        <ele>534.39999999999998</ele>
        <time>2019-06-23T11:06:58Z</time>
      </trkpt>
      <trkpt lat="42.842181958258152" lon="-2.692107036709786">
        <ele>534.39999999999998</ele>
        <time>2019-06-23T11:06:59Z</time>
      </trkpt>
      <trkpt lat="42.842228980734944" lon="-2.692121034488082">
        <ele>534.39999999999998</ele>
        <time>2019-06-23T11:07:00Z</time>
      </trkpt>
      <trkpt lat="42.842335011810064" lon="-2.692125979810953">
        <ele>534</ele>
        <time>2019-06-23T11:07:02Z</time>
      </trkpt>
      <trkpt lat="42.842388991266489" lon="-2.692122040316463">
        <ele>534</ele>
        <time>2019-06-23T11:07:03Z</time>
      </trkpt>
      <trkpt lat="42.84245302900672" lon="-2.692107958719134">
        <ele>533.79999999999995</ele>
        <time>2019-06-23T11:07:04Z</time>
      </trkpt>
      <trkpt lat="42.842590995132923" lon="-2.692087003961206">
        <ele>533.60000000000002</ele>
        <time>2019-06-23T11:07:06Z</time>
      </trkpt>
      <trkpt lat="42.842658972367644" lon="-2.692070994526148">
        <ele>533.39999999999998</ele>
        <time>2019-06-23T11:07:07Z</time>
      </trkpt>
      <trkpt lat="42.842720998451114" lon="-2.69205498509109">
        <ele>533.20000000000005</ele>
        <time>2019-06-23T11:07:08Z</time>
      </trkpt>
      <trkpt lat="42.842830969020724" lon="-2.692033024504781">
        <ele>533</ele>
        <time>2019-06-23T11:07:10Z</time>
      </trkpt>
      <trkpt lat="42.8428840264678" lon="-2.692033024504781">
        <ele>533</ele>
        <time>2019-06-23T11:07:11Z</time>
      </trkpt>
      <trkpt lat="42.842933982610703" lon="-2.6920320186764">
        <ele>533</ele>
        <time>2019-06-23T11:07:12Z</time>
      </trkpt>
      <trkpt lat="42.843039007857442" lon="-2.692008968442679">
        <ele>532.79999999999995</ele>
        <time>2019-06-23T11:07:14Z</time>
      </trkpt>
      <trkpt lat="42.843097010627389" lon="-2.691999999806285">
        <ele>532.79999999999995</ele>
        <time>2019-06-23T11:07:15Z</time>
      </trkpt>
      <trkpt lat="42.843157025054097" lon="-2.691992036998272">
        <ele>532.60000000000002</ele>
        <time>2019-06-23T11:07:16Z</time>
      </trkpt>
      <trkpt lat="42.843279987573624" lon="-2.691973010078073">
        <ele>532.60000000000002</ele>
        <time>2019-06-23T11:07:18Z</time>
      </trkpt>
      <trkpt lat="42.843410996720195" lon="-2.691953983157873">
        <ele>532.20000000000005</ele>
        <time>2019-06-23T11:07:20Z</time>
      </trkpt>
      <trkpt lat="42.843549968674779" lon="-2.691927999258041">
        <ele>532.39999999999998</ele>
        <time>2019-06-23T11:07:22Z</time>
      </trkpt>
      <trkpt lat="42.843690030276775" lon="-2.691892040893436">
        <ele>532.20000000000005</ele>
        <time>2019-06-23T11:07:24Z</time>
      </trkpt>
      <trkpt lat="42.843751972541213" lon="-2.69190302118659">
        <ele>532.39999999999998</ele>
        <time>2019-06-23T11:07:25Z</time>
      </trkpt>
      <trkpt lat="42.843817016109824" lon="-2.691908972337842">
        <ele>532.39999999999998</ele>
        <time>2019-06-23T11:07:26Z</time>
      </trkpt>
      <trkpt lat="42.843933021649718" lon="-2.691855998709798">
        <ele>532.39999999999998</ele>
        <time>2019-06-23T11:07:28Z</time>
      </trkpt>
      <trkpt lat="42.844057995826006" lon="-2.691832026466727">
        <ele>532.39999999999998</ele>
        <time>2019-06-23T11:07:30Z</time>
      </trkpt>
      <trkpt lat="42.844182970002294" lon="-2.69179598428309">
        <ele>532.39999999999998</ele>
        <time>2019-06-23T11:07:32Z</time>
      </trkpt>
      <trkpt lat="42.844307022169232" lon="-2.691747033968568">
        <ele>532.39999999999998</ele>
        <time>2019-06-23T11:07:34Z</time>
      </trkpt>
      <trkpt lat="42.844363013282418" lon="-2.691724989563227">
        <ele>532.39999999999998</ele>
        <time>2019-06-23T11:07:35Z</time>
      </trkpt>
      <trkpt lat="42.844412969425321" lon="-2.691708980128169">
        <ele>532.60000000000002</ele>
        <time>2019-06-23T11:07:36Z</time>
      </trkpt>
      <trkpt lat="42.844458986073732" lon="-2.691685007885099">
        <ele>532.60000000000002</ele>
        <time>2019-06-23T11:07:37Z</time>
      </trkpt>
      <trkpt lat="42.844505002722144" lon="-2.691661035642028">
        <ele>532.60000000000002</ele>
        <time>2019-06-23T11:07:38Z</time>
      </trkpt>
      <trkpt lat="42.844549007713795" lon="-2.691642008721829">
        <ele>532.60000000000002</ele>
        <time>2019-06-23T11:07:39Z</time>
      </trkpt>
      <trkpt lat="42.844595024362206" lon="-2.691631028428674">
        <ele>532.79999999999995</ele>
        <time>2019-06-23T11:07:40Z</time>
      </trkpt>
      <trkpt lat="42.844698959961534" lon="-2.691604038700461">
        <ele>532.60000000000002</ele>
        <time>2019-06-23T11:07:42Z</time>
      </trkpt>
      <trkpt lat="42.844813037663698" lon="-2.691549975425005">
        <ele>533</ele>
        <time>2019-06-23T11:07:44Z</time>
      </trkpt>
      <trkpt lat="42.844940023496747" lon="-2.691490966826677">
        <ele>533.20000000000005</ele>
        <time>2019-06-23T11:07:46Z</time>
      </trkpt>
      <trkpt lat="42.845070026814938" lon="-2.691444028168917">
        <ele>533.20000000000005</ele>
        <time>2019-06-23T11:07:48Z</time>
      </trkpt>
      <trkpt lat="42.845207992941141" lon="-2.691393988206983">
        <ele>533.20000000000005</ele>
        <time>2019-06-23T11:07:50Z</time>
      </trkpt>
      <trkpt lat="42.845347970724106" lon="-2.691347971558571">
        <ele>533.39999999999998</ele>
        <time>2019-06-23T11:07:52Z</time>
      </trkpt>
      <trkpt lat="42.845419971272349" lon="-2.69132299348712">
        <ele>533.39999999999998</ele>
        <time>2019-06-23T11:07:53Z</time>
      </trkpt>
      <trkpt lat="42.845494989305735" lon="-2.691298015415669">
        <ele>533.39999999999998</ele>
        <time>2019-06-23T11:07:54Z</time>
      </trkpt>
      <trkpt lat="42.8455710131675" lon="-2.691272031515837">
        <ele>533.39999999999998</ele>
        <time>2019-06-23T11:07:55Z</time>
      </trkpt>
      <trkpt lat="42.845651982352138" lon="-2.691245963796973">
        <ele>533.60000000000002</ele>
        <time>2019-06-23T11:07:56Z</time>
      </trkpt>
      <trkpt lat="42.845734041184187" lon="-2.691218974068761">
        <ele>533.39999999999998</ele>
        <time>2019-06-23T11:07:57Z</time>
      </trkpt>
      <trkpt lat="42.845820961520076" lon="-2.691187961027026">
        <ele>533.20000000000005</ele>
        <time>2019-06-23T11:07:58Z</time>
      </trkpt>
      <trkpt lat="42.845910983160138" lon="-2.691156025975943">
        <ele>533.20000000000005</ele>
        <time>2019-06-23T11:07:59Z</time>
      </trkpt>
      <trkpt lat="42.846004022285342" lon="-2.691121995449066">
        <ele>533</ele>
        <time>2019-06-23T11:08:00Z</time>
      </trkpt>
      <trkpt lat="42.846102006733418" lon="-2.69108796492219">
        <ele>533</ele>
        <time>2019-06-23T11:08:01Z</time>
      </trkpt>
      <trkpt lat="42.846203008666635" lon="-2.691055024042726">
        <ele>532.79999999999995</ele>
        <time>2019-06-23T11:08:02Z</time>
      </trkpt>
      <trkpt lat="42.846415992826223" lon="-2.690987968817353">
        <ele>532.20000000000005</ele>
        <time>2019-06-23T11:08:04Z</time>
      </trkpt>
      <trkpt lat="42.846525963395834" lon="-2.690954022109509">
        <ele>531.39999999999998</ele>
        <time>2019-06-23T11:08:05Z</time>
      </trkpt>
      <trkpt lat="42.846637023612857" lon="-2.690917979925871">
        <ele>531.20000000000005</ele>
        <time>2019-06-23T11:08:06Z</time>
      </trkpt>
      <trkpt lat="42.846856964752078" lon="-2.690839022397995">
        <ele>529.79999999999995</ele>
        <time>2019-06-23T11:08:08Z</time>
      </trkpt>
      <trkpt lat="42.847070032730699" lon="-2.690751012414694">
        <ele>528</ele>
        <time>2019-06-23T11:08:10Z</time>
      </trkpt>
      <trkpt lat="42.847174974158406" lon="-2.690706001594663">
        <ele>527.39999999999998</ele>
        <time>2019-06-23T11:08:11Z</time>
      </trkpt>
      <trkpt lat="42.847277987748384" lon="-2.690659984946251">
        <ele>526.79999999999995</ele>
        <time>2019-06-23T11:08:12Z</time>
      </trkpt>
      <trkpt lat="42.847476974129677" lon="-2.69057197496295">
        <ele>526</ele>
        <time>2019-06-23T11:08:14Z</time>
      </trkpt>
      <trkpt lat="42.847574958577752" lon="-2.690525036305189">
        <ele>525.20000000000005</ele>
        <time>2019-06-23T11:08:15Z</time>
      </trkpt>
      <trkpt lat="42.847672021016479" lon="-2.690473990514875">
        <ele>524.79999999999995</ele>
        <time>2019-06-23T11:08:16Z</time>
      </trkpt>
      <trkpt lat="42.847862038761377" lon="-2.690379023551941">
        <ele>524.60000000000002</ele>
        <time>2019-06-23T11:08:18Z</time>
      </trkpt>
      <trkpt lat="42.848048033192754" lon="-2.690287996083498">
        <ele>524.39999999999998</ele>
        <time>2019-06-23T11:08:20Z</time>
      </trkpt>
      <trkpt lat="42.848223969340324" lon="-2.690179031342268">
        <ele>524.20000000000005</ele>
        <time>2019-06-23T11:08:22Z</time>
      </trkpt>
      <trkpt lat="42.848386997357011" lon="-2.690042993053794">
        <ele>524.20000000000005</ele>
        <time>2019-06-23T11:08:24Z</time>
      </trkpt>
      <trkpt lat="42.84853502176702" lon="-2.689886000007391">
        <ele>523.79999999999995</ele>
        <time>2019-06-23T11:08:26Z</time>
      </trkpt>
      <trkpt lat="42.848668964579701" lon="-2.68971199169755">
        <ele>524</ele>
        <time>2019-06-23T11:08:28Z</time>
      </trkpt>
      <trkpt lat="42.848734008148313" lon="-2.689623981714249">
        <ele>523.60000000000002</ele>
        <time>2019-06-23T11:08:29Z</time>
      </trkpt>
      <trkpt lat="42.848797962069511" lon="-2.689537983387709">
        <ele>523.39999999999998</ele>
        <time>2019-06-23T11:08:30Z</time>
      </trkpt>
      <trkpt lat="42.848927965387702" lon="-2.68936799839139">
        <ele>523.20000000000005</ele>
        <time>2019-06-23T11:08:32Z</time>
      </trkpt>
      <trkpt lat="42.849056962877512" lon="-2.689198013395071">
        <ele>523.20000000000005</ele>
        <time>2019-06-23T11:08:34Z</time>
      </trkpt>
      <trkpt lat="42.849181015044451" lon="-2.689038002863526">
        <ele>523</ele>
        <time>2019-06-23T11:08:36Z</time>
      </trkpt>
      <trkpt lat="42.849232982844114" lon="-2.68896097317338">
        <ele>523</ele>
        <time>2019-06-23T11:08:37Z</time>
      </trkpt>
      <trkpt lat="42.849274976179004" lon="-2.688882015645504">
        <ele>523</ele>
        <time>2019-06-23T11:08:38Z</time>
      </trkpt>
      <trkpt lat="42.849349994212389" lon="-2.688719993457198">
        <ele>523</ele>
        <time>2019-06-23T11:08:40Z</time>
      </trkpt>
      <trkpt lat="42.849398022517562" lon="-2.688651010394096">
        <ele>523</ele>
        <time>2019-06-23T11:08:41Z</time>
      </trkpt>
      <trkpt lat="42.849458958953619" lon="-2.688605999574065">
        <ele>523</ele>
        <time>2019-06-23T11:08:42Z</time>
      </trkpt>
      <trkpt lat="42.849603965878487" lon="-2.688631983473897">
        <ele>523</ele>
        <time>2019-06-23T11:08:44Z</time>
      </trkpt>
      <trkpt lat="42.849756013602018" lon="-2.68865997903049">
        <ele>523</ele>
        <time>2019-06-23T11:08:46Z</time>
      </trkpt>
      <trkpt lat="42.84991099499166" lon="-2.688640030100942">
        <ele>523</ele>
        <time>2019-06-23T11:08:48Z</time>
      </trkpt>
      <trkpt lat="42.850061031058431" lon="-2.688595019280911">
        <ele>523.20000000000005</ele>
        <time>2019-06-23T11:08:50Z</time>
      </trkpt>
      <trkpt lat="42.850136971101165" lon="-2.688570041209459">
        <ele>523</ele>
        <time>2019-06-23T11:08:51Z</time>
      </trkpt>
      <trkpt lat="42.850216012448072" lon="-2.688542967662215">
        <ele>523</ele>
        <time>2019-06-23T11:08:52Z</time>
      </trkpt>
      <trkpt lat="42.850365964695811" lon="-2.688486976549029">
        <ele>523.20000000000005</ele>
        <time>2019-06-23T11:08:54Z</time>
      </trkpt>
      <trkpt lat="42.850437965244055" lon="-2.688461998477578">
        <ele>523.20000000000005</ele>
        <time>2019-06-23T11:08:55Z</time>
      </trkpt>
      <trkpt lat="42.850509965792298" lon="-2.688432997092605">
        <ele>523.20000000000005</ele>
        <time>2019-06-23T11:08:56Z</time>
      </trkpt>
      <trkpt lat="42.850639969110489" lon="-2.688383962959051">
        <ele>523.20000000000005</ele>
        <time>2019-06-23T11:08:58Z</time>
      </trkpt>
      <trkpt lat="42.850704006850719" lon="-2.6883589848876">
        <ele>523</ele>
        <time>2019-06-23T11:08:59Z</time>
      </trkpt>
      <trkpt lat="42.850767960771918" lon="-2.688339035958052">
        <ele>523</ele>
        <time>2019-06-23T11:09:00Z</time>
      </trkpt>
      <trkpt lat="42.850967030972242" lon="-2.688263012096286">
        <ele>523</ele>
        <time>2019-06-23T11:09:02Z</time>
      </trkpt>
      <trkpt lat="42.851030984893441" lon="-2.688234010711312">
        <ele>523</ele>
        <time>2019-06-23T11:09:04Z</time>
      </trkpt>
      <trkpt lat="42.851169034838676" lon="-2.688197968527675">
        <ele>523.20000000000005</ele>
        <time>2019-06-23T11:09:06Z</time>
      </trkpt>
      <trkpt lat="42.851235000416636" lon="-2.688225964084268">
        <ele>523.20000000000005</ele>
        <time>2019-06-23T11:09:07Z</time>
      </trkpt>
      <trkpt lat="42.851293003186584" lon="-2.688285978510976">
        <ele>523.39999999999998</ele>
        <time>2019-06-23T11:09:08Z</time>
      </trkpt>
      <trkpt lat="42.851339019834995" lon="-2.688370971009135">
        <ele>523.39999999999998</ele>
        <time>2019-06-23T11:09:09Z</time>
      </trkpt>
      <trkpt lat="42.851371960714459" lon="-2.688466021791101">
        <ele>523.39999999999998</ele>
        <time>2019-06-23T11:09:10Z</time>
      </trkpt>
      <trkpt lat="42.851414037868381" lon="-2.688645981252194">
        <ele>523.60000000000002</ele>
        <time>2019-06-23T11:09:12Z</time>
      </trkpt>
      <trkpt lat="42.851430969312787" lon="-2.688737008720636">
        <ele>523.60000000000002</ele>
        <time>2019-06-23T11:09:13Z</time>
      </trkpt>
      <trkpt lat="42.851448990404606" lon="-2.688830969855189">
        <ele>523.60000000000002</ele>
        <time>2019-06-23T11:09:14Z</time>
      </trkpt>
      <trkpt lat="42.851482015103102" lon="-2.689016964286566">
        <ele>523.60000000000002</ele>
        <time>2019-06-23T11:09:16Z</time>
      </trkpt>
      <trkpt lat="42.851517973467708" lon="-2.689208993688226">
        <ele>523.60000000000002</ele>
        <time>2019-06-23T11:09:18Z</time>
      </trkpt>
      <trkpt lat="42.851575976237655" lon="-2.689507976174355">
        <ele>523.79999999999995</ele>
        <time>2019-06-23T11:09:20Z</time>
      </trkpt>
      <trkpt lat="42.85158502869308" lon="-2.689557010307908">
        <ele>523.60000000000002</ele>
        <time>2019-06-23T11:09:21Z</time>
      </trkpt>
      <trkpt lat="42.851592991501093" lon="-2.68960696645081">
        <ele>523.60000000000002</ele>
        <time>2019-06-23T11:09:22Z</time>
      </trkpt>
      <trkpt lat="42.85162802785635" lon="-2.689803019165993">
        <ele>523.79999999999995</ele>
        <time>2019-06-23T11:09:24Z</time>
      </trkpt>
      <trkpt lat="42.851662980392575" lon="-2.689999993890524">
        <ele>524</ele>
        <time>2019-06-23T11:09:26Z</time>
      </trkpt>
      <trkpt lat="42.851683013141155" lon="-2.69009898416698">
        <ele>524.20000000000005</ele>
        <time>2019-06-23T11:09:27Z</time>
      </trkpt>
      <trkpt lat="42.851703967899084" lon="-2.690195962786675">
        <ele>524</ele>
        <time>2019-06-23T11:09:28Z</time>
      </trkpt>
      <trkpt lat="42.851745961233974" lon="-2.690390003845096">
        <ele>524</ele>
        <time>2019-06-23T11:09:30Z</time>
      </trkpt>
      <trkpt lat="42.851778985932469" lon="-2.690587984398007">
        <ele>524.20000000000005</ele>
        <time>2019-06-23T11:09:32Z</time>
      </trkpt>
      <trkpt lat="42.851796001195908" lon="-2.690688986331224">
        <ele>524.39999999999998</ele>
        <time>2019-06-23T11:09:33Z</time>
      </trkpt>
      <trkpt lat="42.851817039772868" lon="-2.690788982436061">
        <ele>524.39999999999998</ele>
        <time>2019-06-23T11:09:34Z</time>
      </trkpt>
      <trkpt lat="42.851852998137474" lon="-2.690987968817353">
        <ele>524.39999999999998</ele>
        <time>2019-06-23T11:09:36Z</time>
      </trkpt>
      <trkpt lat="42.851889962330461" lon="-2.691192990168929">
        <ele>524.60000000000002</ele>
        <time>2019-06-23T11:09:38Z</time>
      </trkpt>
      <trkpt lat="42.851933967322111" lon="-2.691402034834027">
        <ele>524.39999999999998</ele>
        <time>2019-06-23T11:09:40Z</time>
      </trkpt>
      <trkpt lat="42.851956011727452" lon="-2.691509993746877">
        <ele>524.39999999999998</ele>
        <time>2019-06-23T11:09:41Z</time>
      </trkpt>
      <trkpt lat="42.851978978142142" lon="-2.691620970144868">
        <ele>524.39999999999998</ele>
        <time>2019-06-23T11:09:42Z</time>
      </trkpt>
      <trkpt lat="42.852002028375864" lon="-2.691734964028001">
        <ele>524.39999999999998</ele>
        <time>2019-06-23T11:09:43Z</time>
      </trkpt>
      <trkpt lat="42.852027006447315" lon="-2.691850969567895">
        <ele>524.39999999999998</ele>
        <time>2019-06-23T11:09:44Z</time>
      </trkpt>
      <trkpt lat="42.852052990347147" lon="-2.69196798093617">
        <ele>524.39999999999998</ele>
        <time>2019-06-23T11:09:45Z</time>
      </trkpt>
      <trkpt lat="42.852078974246979" lon="-2.692087003961206">
        <ele>524.39999999999998</ele>
        <time>2019-06-23T11:09:46Z</time>
      </trkpt>
      <trkpt lat="42.852130020037293" lon="-2.692322032526135">
        <ele>524</ele>
        <time>2019-06-23T11:09:48Z</time>
      </trkpt>
      <trkpt lat="42.852159021422267" lon="-2.692437032237649">
        <ele>523.79999999999995</ele>
        <time>2019-06-23T11:09:49Z</time>
      </trkpt>
      <trkpt lat="42.852189028635621" lon="-2.692550020292401">
        <ele>523.60000000000002</ele>
        <time>2019-06-23T11:09:50Z</time>
      </trkpt>
      <trkpt lat="42.852247031405568" lon="-2.692772978916764">
        <ele>523.39999999999998</ele>
        <time>2019-06-23T11:09:52Z</time>
      </trkpt>
      <trkpt lat="42.852297993376851" lon="-2.692988980561495">
        <ele>523</ele>
        <time>2019-06-23T11:09:54Z</time>
      </trkpt>
      <trkpt lat="42.852345015853643" lon="-2.693197019398212">
        <ele>522.79999999999995</ele>
        <time>2019-06-23T11:09:56Z</time>
      </trkpt>
      <trkpt lat="42.852367982268333" lon="-2.69329802133143">
        <ele>522.79999999999995</ele>
        <time>2019-06-23T11:09:57Z</time>
      </trkpt>
      <trkpt lat="42.852392038330436" lon="-2.693397011607885">
        <ele>522.79999999999995</ele>
        <time>2019-06-23T11:09:58Z</time>
      </trkpt>
      <trkpt lat="42.852437971159816" lon="-2.693590968847275">
        <ele>523</ele>
        <time>2019-06-23T11:10:00Z</time>
      </trkpt>
      <trkpt lat="42.852459009736776" lon="-2.693688031286001">
        <ele>522.79999999999995</ele>
        <time>2019-06-23T11:10:01Z</time>
      </trkpt>
      <trkpt lat="42.852480970323086" lon="-2.693784004077315">
        <ele>522.79999999999995</ele>
        <time>2019-06-23T11:10:02Z</time>
      </trkpt>
      <trkpt lat="42.852524975314736" lon="-2.693977039307356">
        <ele>523</ele>
        <time>2019-06-23T11:10:04Z</time>
      </trkpt>
      <trkpt lat="42.852568980306387" lon="-2.694176025688648">
        <ele>523.39999999999998</ele>
        <time>2019-06-23T11:10:06Z</time>
      </trkpt>
      <trkpt lat="42.852614996954799" lon="-2.694383980706334">
        <ele>523.79999999999995</ele>
        <time>2019-06-23T11:10:08Z</time>
      </trkpt>
      <trkpt lat="42.852664031088352" lon="-2.694602999836206">
        <ele>524</ele>
        <time>2019-06-23T11:10:10Z</time>
      </trkpt>
      <trkpt lat="42.852691020816565" lon="-2.69471799954772">
        <ele>523.79999999999995</ele>
        <time>2019-06-23T11:10:11Z</time>
      </trkpt>
      <trkpt lat="42.852719016373158" lon="-2.694838028401136">
        <ele>523.79999999999995</ele>
        <time>2019-06-23T11:10:12Z</time>
      </trkpt>
      <trkpt lat="42.85274701192975" lon="-2.694959985092282">
        <ele>523.79999999999995</ele>
        <time>2019-06-23T11:10:13Z</time>
      </trkpt>
      <trkpt lat="42.852775007486343" lon="-2.695085965096951">
        <ele>524</ele>
        <time>2019-06-23T11:10:14Z</time>
      </trkpt>
      <trkpt lat="42.852804008871317" lon="-2.695215968415141">
        <ele>523.79999999999995</ele>
        <time>2019-06-23T11:10:15Z</time>
      </trkpt>
      <trkpt lat="42.852835021913052" lon="-2.695349995046854">
        <ele>524</ele>
        <time>2019-06-23T11:10:16Z</time>
      </trkpt>
      <trkpt lat="42.852895958349109" lon="-2.695626011118293">
        <ele>523.60000000000002</ele>
        <time>2019-06-23T11:10:18Z</time>
      </trkpt>
      <trkpt lat="42.852955972775817" lon="-2.695914013311267">
        <ele>522.39999999999998</ele>
        <time>2019-06-23T11:10:20Z</time>
      </trkpt>
      <trkpt lat="42.853019004687667" lon="-2.696205032989383">
        <ele>520.60000000000002</ele>
        <time>2019-06-23T11:10:22Z</time>
      </trkpt>
      <trkpt lat="42.853082036599517" lon="-2.696489011868835">
        <ele>519.39999999999998</ele>
        <time>2019-06-23T11:10:24Z</time>
      </trkpt>
      <trkpt lat="42.853142973035574" lon="-2.696757987141609">
        <ele>518</ele>
        <time>2019-06-23T11:10:26Z</time>
      </trkpt>
      <trkpt lat="42.853234000504017" lon="-2.697129976004362">
        <ele>516.60000000000002</ele>
        <time>2019-06-23T11:10:28Z</time>
      </trkpt>
      <trkpt lat="42.853259984403849" lon="-2.69725201651454">
        <ele>515.79999999999995</ele>
        <time>2019-06-23T11:10:30Z</time>
      </trkpt>
      <trkpt lat="42.853308012709022" lon="-2.697456032037735">
        <ele>515.60000000000002</ele>
        <time>2019-06-23T11:10:32Z</time>
      </trkpt>
      <trkpt lat="42.853331984952092" lon="-2.697547981515527">
        <ele>515.60000000000002</ele>
        <time>2019-06-23T11:10:33Z</time>
      </trkpt>
      <trkpt lat="42.853351011872292" lon="-2.697632974013686">
        <ele>515.60000000000002</ele>
        <time>2019-06-23T11:10:34Z</time>
      </trkpt>
      <trkpt lat="42.85339099355042" lon="-2.697789967060089">
        <ele>515.39999999999998</ele>
        <time>2019-06-23T11:10:36Z</time>
      </trkpt>
      <trkpt lat="42.853425024077296" lon="-2.697945032268763">
        <ele>515.60000000000002</ele>
        <time>2019-06-23T11:10:38Z</time>
      </trkpt>
      <trkpt lat="42.853442039340734" lon="-2.6980260014534">
        <ele>515.79999999999995</ele>
        <time>2019-06-23T11:10:39Z</time>
      </trkpt>
      <trkpt lat="42.853465005755424" lon="-2.698104036971927">
        <ele>515.60000000000002</ele>
        <time>2019-06-23T11:10:40Z</time>
      </trkpt>
      <trkpt lat="42.853517979383469" lon="-2.698256000876427">
        <ele>515.79999999999995</ele>
        <time>2019-06-23T11:10:42Z</time>
      </trkpt>
      <trkpt lat="42.853542035445571" lon="-2.698336970061064">
        <ele>515.79999999999995</ele>
        <time>2019-06-23T11:10:43Z</time>
      </trkpt>
      <trkpt lat="42.853551004081964" lon="-2.698422968387604">
        <ele>516</ele>
        <time>2019-06-23T11:10:44Z</time>
      </trkpt>
      <trkpt lat="42.853556033223867" lon="-2.698583984747529">
        <ele>516</ele>
        <time>2019-06-23T11:10:46Z</time>
      </trkpt>
      <trkpt lat="42.853558966889977" lon="-2.698663026094437">
        <ele>516.20000000000005</ele>
        <time>2019-06-23T11:10:47Z</time>
      </trkpt>
      <trkpt lat="42.853571036830544" lon="-2.698739971965551">
        <ele>516</ele>
        <time>2019-06-23T11:10:48Z</time>
      </trkpt>
      <trkpt lat="42.85358402878046" lon="-2.698817001655698">
        <ele>516</ele>
        <time>2019-06-23T11:10:49Z</time>
      </trkpt>
      <trkpt lat="42.853597020730376" lon="-2.698887996375561">
        <ele>516.20000000000005</ele>
        <time>2019-06-23T11:10:50Z</time>
      </trkpt>
      <trkpt lat="42.853624010458589" lon="-2.699010036885738">
        <ele>516.39999999999998</ele>
        <time>2019-06-23T11:10:52Z</time>
      </trkpt>
      <trkpt lat="42.853664997965097" lon="-2.699064016342163">
        <ele>516.20000000000005</ele>
        <time>2019-06-23T11:10:54Z</time>
      </trkpt>
      <trkpt lat="42.853686036542058" lon="-2.699072984978557">
        <ele>516.20000000000005</ele>
        <time>2019-06-23T11:10:55Z</time>
      </trkpt>
      <trkpt lat="42.853700034320354" lon="-2.699082037433982">
        <ele>516.20000000000005</ele>
        <time>2019-06-23T11:10:56Z</time>
      </trkpt>
      <trkpt lat="42.853720989078283" lon="-2.699092011898756">
        <ele>516.20000000000005</ele>
        <time>2019-06-23T11:10:58Z</time>
      </trkpt>
      <trkpt lat="42.85373599268496" lon="-2.699092011898756">
        <ele>516.39999999999998</ele>
        <time>2019-06-23T11:11:00Z</time>
      </trkpt>
      <trkpt lat="42.853704979643226" lon="-2.699110032990575">
        <ele>516.60000000000002</ele>
        <time>2019-06-23T11:11:02Z</time>
      </trkpt>
      <trkpt lat="42.853703973814845" lon="-2.69912101328373">
        <ele>517</ele>
        <time>2019-06-23T11:11:04Z</time>
      </trkpt>
      <trkpt lat="42.853702967986465" lon="-2.69912101328373">
        <ele>516.79999999999995</ele>
        <time>2019-06-23T11:11:05Z</time>
      </trkpt>
      <trkpt lat="42.8551309928298" lon="-2.697985013946891">
        <ele>535.39999999999998</ele>
        <time>2019-06-23T11:25:00Z</time>
      </trkpt>
      <trkpt lat="42.855134010314941" lon="-2.697880994528532">
        <ele>535.60000000000002</ele>
        <time>2019-06-23T11:25:01Z</time>
      </trkpt>
      <trkpt lat="42.855096962302923" lon="-2.697975039482117">
        <ele>535.60000000000002</ele>
        <time>2019-06-23T11:25:10Z</time>
      </trkpt>
      <trkpt lat="42.855096962302923" lon="-2.697975039482117">
        <ele>534.79999999999995</ele>
        <time>2019-06-23T11:29:55Z</time>
      </trkpt>
      <trkpt lat="42.853506999090314" lon="-2.699052030220628">
        <ele>535.60000000000002</ele>
        <time>2019-06-23T11:31:41Z</time>
      </trkpt>
      <trkpt lat="42.853506999090314" lon="-2.699052030220628">
        <ele>535.79999999999995</ele>
        <time>2019-06-23T11:31:44Z</time>
      </trkpt>
      <trkpt lat="42.85332603380084" lon="-2.698908029124141">
        <ele>535.60000000000002</ele>
        <time>2019-06-23T11:31:50Z</time>
      </trkpt>
      <trkpt lat="42.853251015767455" lon="-2.698825970292091">
        <ele>535.60000000000002</ele>
        <time>2019-06-23T11:31:54Z</time>
      </trkpt>
      <trkpt lat="42.853182032704353" lon="-2.698772996664047">
        <ele>535.20000000000005</ele>
        <time>2019-06-23T11:32:09Z</time>
      </trkpt>
      <trkpt lat="42.853182032704353" lon="-2.698772996664047">
        <ele>536.20000000000005</ele>
        <time>2019-06-23T11:33:59Z</time>
      </trkpt>
      <trkpt lat="42.853585034608841" lon="-2.699013976380229">
        <ele>536.20000000000005</ele>
        <time>2019-06-23T11:37:58Z</time>
      </trkpt>
      <trkpt lat="42.853585034608841" lon="-2.699013976380229">
        <ele>536.20000000000005</ele>
        <time>2019-06-23T11:38:13Z</time>
      </trkpt>
      <trkpt lat="42.85330499522388" lon="-2.69899201579392">
        <ele>536.39999999999998</ele>
        <time>2019-06-23T11:39:26Z</time>
      </trkpt>
      <trkpt lat="42.853286974132061" lon="-2.698982041329145">
        <ele>536.39999999999998</ele>
        <time>2019-06-23T11:39:27Z</time>
      </trkpt>
      <trkpt lat="42.853182032704353" lon="-2.698909034952521">
        <ele>536.39999999999998</ele>
        <time>2019-06-23T11:39:33Z</time>
      </trkpt>
      <trkpt lat="42.853159988299012" lon="-2.698884978890419">
        <ele>536.39999999999998</ele>
        <time>2019-06-23T11:39:38Z</time>
      </trkpt>
      <trkpt lat="42.853139033541083" lon="-2.698860000818968">
        <ele>536.39999999999998</ele>
        <time>2019-06-23T11:39:49Z</time>
      </trkpt>
      <trkpt lat="42.853116989135742" lon="-2.698836028575897">
        <ele>536.39999999999998</ele>
        <time>2019-06-23T11:40:06Z</time>
      </trkpt>
      <trkpt lat="42.853096034377813" lon="-2.698810966685414">
        <ele>536</ele>
        <time>2019-06-23T11:44:21Z</time>
      </trkpt>
      <trkpt lat="42.853073989972472" lon="-2.698786994442344">
        <ele>536</ele>
        <time>2019-06-23T11:44:24Z</time>
      </trkpt>
      <trkpt lat="42.853053035214543" lon="-2.698762016370893">
        <ele>536</ele>
        <time>2019-06-23T11:44:27Z</time>
      </trkpt>
      <trkpt lat="42.853030990809202" lon="-2.69873796030879">
        <ele>536</ele>
        <time>2019-06-23T11:46:01Z</time>
      </trkpt>
      <trkpt lat="42.853010036051273" lon="-2.698712982237339">
        <ele>536</ele>
        <time>2019-06-23T11:46:02Z</time>
      </trkpt>
      <trkpt lat="42.852987991645932" lon="-2.698689009994268">
        <ele>536</ele>
        <time>2019-06-23T11:46:03Z</time>
      </trkpt>
      <trkpt lat="42.852987991645932" lon="-2.698689009994268">
        <ele>536</ele>
        <time>2019-06-23T11:46:12Z</time>
      </trkpt>
    </trkseg>
  </trk>
</gpx>
